
Distance (Route):
Temperature : 13.3°C
Humidity : 85.6%
Pressure : 968.24hPa| Receiver | Frames | First received | Last received |
|---|---|---|---|
| DL1XH-west | 907 | 2026-09-04 22:57:35 | 2026-09-05 01:23:00 |
| AA1-15 | 738 | 2026-09-04 23:02:37 | 2026-09-05 01:27:19 |
| DF8AY | 711 | 2026-09-04 22:59:08 | 2026-09-05 01:25:07 |
| DB0DAN | 573 | 2026-09-04 22:55:10 | 2026-09-05 01:29:25 |
| BIOWL1-15 | 541 | 2026-09-04 22:57:32 | 2026-09-05 01:21:43 |
| DM0DOS-11 | 508 | 2026-09-04 22:56:24 | 2026-09-05 00:51:18 |
| DO2SHX-10 | 428 | 2026-09-04 23:06:57 | 2026-09-05 00:37:44 |
| DL1XH1-15 | 413 | 2026-09-04 22:58:30 | 2026-09-05 00:51:13 |
| DL1XH-15 | 337 | 2026-09-04 22:58:26 | 2026-09-05 00:51:15 |
| DL1NUX | 154 | 2026-09-05 00:02:57 | 2026-09-05 00:51:02 |
| DD8BA-10 | 141 | 2026-09-04 23:01:24 | 2026-09-05 00:37:31 |
| HSKMA3-T | 120 | 2026-09-05 00:12:50 | 2026-09-05 01:02:34 |
| GOEST3-10 | 111 | 2026-09-04 23:14:31 | 2026-09-05 00:35:36 |
| DF8AY-15 | 83 | 2026-09-04 23:01:08 | 2026-09-05 00:36:08 |
| DF7ER-10 | 56 | 2026-09-04 23:05:25 | 2026-09-05 00:41:42 |
| TFSTFS | 56 | 2026-09-04 23:17:20 | 2026-09-05 00:42:20 |
| DL4BBY-15 | 47 | 2026-09-04 23:01:32 | 2026-09-05 00:41:17 |
| AM1SDL-15 | 45 | 2026-09-04 22:59:25 | 2026-09-05 00:35:33 |
| DB0NH | 38 | 2026-09-04 23:21:43 | 2026-09-05 00:37:28 |
| DL3AQ-11 | 37 | 2026-09-04 23:08:38 | 2026-09-04 23:48:49 |
| DL4XJ-10 | 37 | 2026-09-04 23:17:03 | 2026-09-05 00:42:16 |
| SMARD9-15 | 36 | 2026-09-04 23:02:35 | 2026-09-05 00:27:29 |
| BIOWL9-15 | 30 | 2026-09-04 22:58:38 | 2026-09-05 00:25:37 |
| EDDB2-11 | 28 | 2026-09-04 23:28:56 | 2026-09-05 00:34:08 |
| S3001 | 27 | 2026-09-04 23:08:54 | 2026-09-05 00:34:49 |
| SONCRA | 26 | 2026-09-04 23:06:14 | 2026-09-05 00:34:45 |
| EDDB2-12 | 25 | 2026-09-04 23:18:57 | 2026-09-05 00:34:30 |
| DL1ZP-14 | 23 | 2026-09-04 23:18:46 | 2026-09-05 00:30:51 |
| SONDE2-11 | 23 | 2026-09-04 23:22:48 | 2026-09-05 00:37:56 |
| DC4HF-4 | 22 | 2026-09-04 23:01:46 | 2026-09-05 00:37:21 |
| DJ2DS-15 | 19 | 2026-09-04 23:02:42 | 2026-09-05 00:37:40 |
| HTAHTA | 19 | 2026-09-04 23:27:47 | 2026-09-05 00:37:39 |
| DO3MHA-11 | 18 | 2026-09-05 00:20:24 | 2026-09-05 00:35:18 |
| DF2AP-13 | 17 | 2026-09-04 23:49:46 | 2026-09-05 00:21:42 |
| SMARD9-10 | 15 | 2026-09-04 22:56:55 | 2026-09-05 00:40:51 |
| SO1NDE-10 | 15 | 2026-09-05 00:03:46 | 2026-09-05 00:28:16 |
| SP3BTT-10 | 14 | 2026-09-04 23:30:19 | 2026-09-05 00:36:43 |
| DL1LOL-11 | 13 | 2026-09-04 23:05:09 | 2026-09-05 00:42:02 |
| DL2RXE-15 | 12 | 2026-09-04 23:29:23 | 2026-09-05 00:41:48 |
| DB0UT-7 | 11 | 2026-09-04 23:15:04 | 2026-09-05 00:06:56 |
| HARRO8 | 11 | 2026-09-04 23:57:48 | 2026-09-05 00:30:56 |
| DK7RCA | 10 | 2026-09-05 00:15:16 | 2026-09-05 00:32:54 |
| DG6HD-11 | 9 | 2026-09-04 23:29:34 | 2026-09-05 00:19:36 |
| MECKS9 | 9 | 2026-09-04 23:50:35 | 2026-09-05 00:36:41 |
| DH5RUM-10 | 9 | 2026-09-04 23:51:31 | 2026-09-05 00:38:53 |
| SP3WXH-11 | 9 | 2026-09-05 00:13:59 | 2026-09-05 00:36:14 |
| DL8OAI-8 | 7 | 2026-09-04 23:04:29 | 2026-09-04 23:21:38 |
| DK9SH | 5 | 2026-09-04 23:06:22 | 2026-09-05 00:38:28 |
| BUE01 | 4 | 2026-09-04 23:42:56 | 2026-09-05 00:32:37 |
| DAC517 | 3 | 2026-09-05 00:23:55 | 2026-09-05 00:42:24 |
| BIOWL7-15 | 2 | 2026-09-04 23:06:33 | 2026-09-05 00:11:43 |
| DO2LYB-13 | 2 | 2026-09-04 23:10:43 | 2026-09-04 23:16:43 |
| AP2371 | 2 | 2026-09-04 23:22:27 | 2026-09-04 23:32:14 |
| DK1YY | 2 | 2026-09-05 00:01:23 | 2026-09-05 00:02:23 |
| NBG1-10 | 1 | 2026-09-04 23:40:17 | 2026-09-04 23:40:17 |
| Receiver | Date | Latitude | Longitude | Direction | Speed | Altitude | Climb | Temperature | Humidity | Pressure | Voltage | Killtimer | Uptime | BKT | XDATA |
|---|---|---|---|---|---|---|---|---|---|---|---|---|---|---|---|
| DB0DAN | 2026-09-05 01:29:25 | 55.08237 | 19.72714 | 0° | 0km/h | 2608m | 0m/s | 13.3°C | 85.6% | 968.24hPa | 2.7V | 00:00:00 | 00:00:00 | 00:00:00 | |
| DB0DAN | 2026-09-05 01:29:10 | 55.08237 | 19.72714 | 0° | 0km/h | 2608m | 0m/s | 12.1°C | 90.7% | 952.49hPa | 2.7V | 00:00:00 | 00:00:00 | 00:00:00 | |
| DB0DAN | 2026-09-05 01:28:55 | 55.08237 | 19.72714 | 0° | 0km/h | 2608m | 0m/s | 11.4°C | 90.5% | 937.98hPa | 2.6V | 00:00:00 | 00:00:00 | 00:00:00 | |
| DB0DAN | 2026-09-05 01:28:40 | 55.08237 | 19.72714 | 0° | 0km/h | 2608m | 0m/s | 10.4°C | 93.5% | 924.02hPa | 2.7V | 00:00:00 | 00:00:00 | 00:00:00 | |
| DB0DAN | 2026-09-05 01:28:25 | 55.08237 | 19.72714 | 0° | 0km/h | 2608m | 0m/s | 9.6°C | 91.8% | 909.28hPa | 2.7V | 00:00:00 | 00:00:00 | 00:00:00 | |
| DB0DAN | 2026-09-05 01:28:10 | 55.08237 | 19.72714 | 0° | 0km/h | 2608m | 0m/s | 8.6°C | 89.5% | 894.08hPa | 2.7V | 00:00:00 | 00:00:00 | 00:00:00 | |
| DB0DAN | 2026-09-05 01:27:55 | 55.08237 | 19.72714 | 0° | 0km/h | 2608m | 0m/s | 7.4°C | 91.8% | 878.17hPa | 2.6V | 00:00:00 | 00:00:00 | 00:00:00 | |
| DB0DAN | 2026-09-05 01:27:40 | 55.08237 | 19.72714 | 0° | 0km/h | 2608m | 0m/s | 6.4°C | 87.7% | 860.63hPa | 2.6V | 00:00:00 | 00:00:00 | 00:00:00 | |
| DB0DAN | 2026-09-05 01:27:25 | 55.08237 | 19.72714 | 0° | 0km/h | 2608m | 0m/s | 6.3°C | 67% | 844.32hPa | 2.6V | 00:00:00 | 00:00:00 | 00:00:00 | |
| AA1-15 | 2026-09-05 01:27:19 | 55.08237 | 19.72714 | 0° | 0km/h | 2608m | 0m/s | 5.7°C | 77.5% | 837.6hPa | 2.6V | 02:29:50 | 02:57:33 | 00:00:00 | |
| DB0DAN | 2026-09-05 01:27:10 | 55.08237 | 19.72714 | 0° | 0km/h | 2608m | 0m/s | 4.9°C | 72.9% | 827.74hPa | 2.6V | 00:00:00 | 00:00:00 | 00:00:00 | |
| AA1-15 | 2026-09-05 01:27:08 | 55.08237 | 19.72714 | 0° | 0km/h | 2608m | 0m/s | 4.7°C | 81.1% | 825.7hPa | 2.6V | 02:29:50 | 02:57:22 | 00:00:00 | |
| AA1-15 | 2026-09-05 01:26:58 | 55.08237 | 19.72714 | 0° | 0km/h | 2608m | 0m/s | 3.9°C | 80% | 815.4hPa | 2.6V | 02:29:50 | 02:57:12 | 00:00:00 | |
| DB0DAN | 2026-09-05 01:26:55 | 55.08237 | 19.72714 | 0° | 0km/h | 2608m | 0m/s | 3.6°C | 74.3% | 812.3hPa | 2.6V | 00:00:00 | 00:00:00 | 00:00:00 | |
| AA1-15 | 2026-09-05 01:26:47 | 55.08237 | 19.72714 | 0° | 0km/h | 2608m | 0m/s | 3.2°C | 80.5% | 804.1hPa | 2.6V | 02:29:50 | 02:57:01 | 00:00:00 | |
| DB0DAN | 2026-09-05 01:26:40 | 55.08237 | 19.72714 | 0° | 0km/h | 2608m | 0m/s | 2.8°C | 77.6% | 796.88hPa | 2.6V | 00:00:00 | 00:00:00 | 00:00:00 | |
| AA1-15 | 2026-09-05 01:26:36 | 55.08237 | 19.72714 | 0° | 0km/h | 2608m | 0m/s | 2.4°C | 85.1% | 793.2hPa | 2.6V | 02:29:50 | 02:56:50 | 00:00:00 | |
| AA1-15 | 2026-09-05 01:26:26 | 55.08237 | 19.72714 | 0° | 0km/h | 2608m | 0m/s | 2°C | 82.8% | 783.2hPa | 2.6V | 02:30:41 | 02:56:40 | 00:00:00 | |
| DB0DAN | 2026-09-05 01:26:25 | 55.08237 | 19.72714 | 0° | 0km/h | 2608m | 0m/s | 1.9°C | 79.5% | 782.13hPa | 2.6V | 00:00:00 | 00:00:00 | 00:00:00 | |
| AA1-15 | 2026-09-05 01:26:16 | 55.08237 | 19.72714 | 0° | 0km/h | 2608m | 0m/s | 1.3°C | 82.9% | 772.8hPa | 2.6V | 02:30:41 | 02:56:29 | 00:00:00 | |
| DB0DAN | 2026-09-05 01:26:10 | 55.08237 | 19.72714 | 0° | 0km/h | 2608m | 0m/s | 2.2°C | 37.5% | 768.4hPa | 2.6V | 00:00:00 | 00:00:00 | 00:00:00 | |
| AA1-15 | 2026-09-05 01:26:04 | 55.08237 | 19.72714 | 0° | 0km/h | 2608m | 0m/s | 2.3°C | 55.7% | 763.1hPa | 2.6V | 02:30:41 | 02:56:18 | 00:00:00 | |
| DB0DAN | 2026-09-05 01:25:55 | 55.08237 | 19.72714 | 0° | 0km/h | 2608m | 0m/s | 1.7°C | 49.5% | 755.1hPa | 2.6V | 00:00:00 | 00:00:00 | 00:00:00 | |
| AA1-15 | 2026-09-05 01:25:54 | 55.08237 | 19.72714 | 0° | 0km/h | 2608m | 0m/s | 1.6°C | 55.2% | 753.9hPa | 2.6V | 02:30:41 | 02:56:08 | 00:00:00 | |
| AA1-15 | 2026-09-05 01:25:43 | 55.08237 | 19.72714 | 0° | 0km/h | 2608m | 0m/s | 1°C | 39% | 744.5hPa | 2.5V | 02:30:41 | 02:55:57 | 00:00:00 | |
| DB0DAN | 2026-09-05 01:25:40 | 55.08237 | 19.72714 | 0° | 0km/h | 2608m | 0m/s | 0.8°C | 33.6% | 742.04hPa | 2.6V | 00:00:00 | 00:00:00 | 00:00:00 | |
| AA1-15 | 2026-09-05 01:25:32 | 55.08237 | 19.72714 | 0° | 0km/h | 2608m | 0m/s | 1°C | 25.3% | 735.1hPa | 2.6V | 02:31:32 | 02:55:46 | 00:00:00 | |
| DB0DAN | 2026-09-05 01:25:25 | 55.08237 | 19.72714 | 0° | 0km/h | 2608m | 0m/s | 0.9°C | 15.3% | 729.44hPa | 2.6V | 00:00:00 | 00:00:00 | 00:00:00 | |
| AA1-15 | 2026-09-05 01:25:21 | 55.08237 | 19.72714 | 0° | 0km/h | 2608m | 0m/s | 0.7°C | 16% | 725.9hPa | 2.6V | 02:31:32 | 02:55:35 | 00:00:00 | |
| AA1-15 | 2026-09-05 01:25:11 | 55.08237 | 19.72714 | 0° | 0km/h | 2608m | 0m/s | 0.2°C | 17.7% | 717.3hPa | 2.5V | 02:31:32 | 02:55:25 | 00:00:00 | |
| DB0DAN | 2026-09-05 01:25:10 | 55.08237 | 19.72714 | 0° | 0km/h | 2608m | 0m/s | 0.1°C | 15.2% | 716.42hPa | 2.5V | 00:00:00 | 00:00:00 | 00:00:00 | |
| DF8AY | 2026-09-05 01:25:07 | 55.08237 | 19.72714 | 0° | 0km/h | 2608m | 0m/s | -0.1°C | 23.6% | 713.4hPa | 2.6V | 02:32:23 | 02:55:21 | 00:00:00 | |
| AA1-15 | 2026-09-05 01:25:00 | 55.08237 | 19.72714 | 0° | 0km/h | 2608m | 0m/s | -0.8°C | 27.1% | 706.5hPa | 2.6V | 02:31:32 | 02:55:14 | 00:00:00 | |
| DB0DAN | 2026-09-05 01:24:55 | 55.08237 | 19.72714 | 0° | 0km/h | 2608m | 0m/s | -0.9°C | 24% | 701.43hPa | 2.6V | 00:00:00 | 00:00:00 | 00:00:00 | |
| AA1-15 | 2026-09-05 01:24:49 | 55.08237 | 19.72714 | 0° | 0km/h | 2608m | 0m/s | -1.3°C | 29.9% | 694.9hPa | 2.6V | 02:32:23 | 02:55:03 | 00:00:00 | |
| DB0DAN | 2026-09-05 01:24:40 | 55.08237 | 19.72714 | 0° | 0km/h | 2608m | 0m/s | -2°C | 23.8% | 685.78hPa | 2.5V | 00:00:00 | 00:00:00 | 00:00:00 | |
| AA1-15 | 2026-09-05 01:24:39 | 55.08237 | 19.72714 | 0° | 0km/h | 2608m | 0m/s | -2.1°C | 28.9% | 684.9hPa | 2.6V | 02:32:23 | 02:54:53 | 00:00:00 | |
| DF8AY | 2026-09-05 01:24:35 | 55.08237 | 19.72714 | 0° | 0km/h | 2608m | 0m/s | -2.3°C | 26.9% | 680.7hPa | 2.5V | 02:32:23 | 02:54:49 | 00:00:00 | |
| AA1-15 | 2026-09-05 01:24:28 | 55.08237 | 19.72714 | 0° | 0km/h | 2608m | 0m/s | -3.1°C | 26.5% | 673.3hPa | 2.5V | 02:32:23 | 02:54:42 | 00:00:00 | |
| DB0DAN | 2026-09-05 01:24:25 | 55.08237 | 19.72714 | 0° | 0km/h | 2608m | 0m/s | -3.4°C | 21.3% | 670.02hPa | 2.6V | 00:00:00 | 00:00:00 | 00:00:00 | |
| DF8AY | 2026-09-05 01:24:25 | 55.08237 | 19.72714 | 0° | 0km/h | 2608m | 0m/s | -3.4°C | 23.4% | 669hPa | 2.6V | 02:32:23 | 02:54:38 | 00:00:00 | |
| AA1-15 | 2026-09-05 01:24:17 | 55.08237 | 19.72714 | 0° | 0km/h | 2608m | 0m/s | -3.6°C | 14.4% | 661.7hPa | 2.5V | 02:32:23 | 02:54:31 | 00:00:00 | |
| DF8AY | 2026-09-05 01:24:14 | 55.08237 | 19.72714 | 0° | 0km/h | 2608m | 0m/s | -3.9°C | 15.4% | 658.6hPa | 2.6V | 02:32:23 | 02:54:28 | 00:00:00 | |
| DB0DAN | 2026-09-05 01:24:10 | 55.08237 | 19.72714 | 0° | 0km/h | 2608m | 0m/s | -4.3°C | 14.1% | 654.53hPa | 2.5V | 00:00:00 | 00:00:00 | 00:00:00 | |
| AA1-15 | 2026-09-05 01:24:07 | 55.08237 | 19.72714 | 0° | 0km/h | 2608m | 0m/s | -4.6°C | 19.1% | 651.6hPa | 2.6V | 02:32:23 | 02:54:21 | 00:00:00 | |
| DF8AY | 2026-09-05 01:24:04 | 55.08237 | 19.72714 | 0° | 0km/h | 2608m | 0m/s | -4.7°C | 15.8% | 648.7hPa | 2.6V | 02:32:23 | 02:54:18 | 00:00:00 | |
| AA1-15 | 2026-09-05 01:23:56 | 55.08237 | 19.72714 | 0° | 0km/h | 2608m | 0m/s | -5.3°C | 14.7% | 641.1hPa | 2.6V | 02:34:05 | 02:54:10 | 00:00:00 | |
| DB0DAN | 2026-09-05 01:23:55 | 55.08237 | 19.72714 | 0° | 0km/h | 2608m | 0m/s | -5.3°C | 13.3% | 640.03hPa | 2.5V | 00:00:00 | 00:00:00 | 00:00:00 | |
| DF8AY | 2026-09-05 01:23:53 | 55.08237 | 19.72714 | 0° | 0km/h | 2608m | 0m/s | -5.5°C | 15.8% | 638.1hPa | 2.6V | 02:33:14 | 02:54:07 | 00:00:00 | |
| AA1-15 | 2026-09-05 01:23:45 | 55.08237 | 19.72714 | 0° | 0km/h | 2608m | 0m/s | -6°C | 13.5% | 630.2hPa | 2.6V | 02:34:05 | 02:53:59 | 00:00:00 | |
| DF8AY | 2026-09-05 01:23:43 | 55.08237 | 19.72714 | 0° | 0km/h | 2608m | 0m/s | -6.2°C | 13.4% | 628.2hPa | 2.6V | 02:33:14 | 02:53:57 | 00:00:00 | |
| DB0DAN | 2026-09-05 01:23:40 | 55.08237 | 19.72714 | 0° | 0km/h | 2608m | 0m/s | -6.5°C | 12.4% | 625.27hPa | 2.5V | 00:00:00 | 00:00:00 | 00:00:00 | |
| AA1-15 | 2026-09-05 01:23:34 | 55.08237 | 19.72714 | 0° | 0km/h | 2608m | 0m/s | -6.8°C | 10.6% | 619.6hPa | 2.6V | 02:34:05 | 02:53:48 | 00:00:00 | |
| DF8AY | 2026-09-05 01:23:33 | 55.08237 | 19.72714 | 0° | 0km/h | 2608m | 0m/s | -6.9°C | 9.9% | 617.7hPa | 2.5V | 02:33:14 | 02:53:46 | 00:00:00 | |
| DB0DAN | 2026-09-05 01:23:25 | 55.08237 | 19.72714 | 0° | 0km/h | 2608m | 0m/s | -7.1°C | 7.4% | 610.93hPa | 2.5V | 00:00:00 | 00:00:00 | 00:00:00 | |
| AA1-15 | 2026-09-05 01:23:24 | 55.08237 | 19.72714 | 0° | 0km/h | 2608m | 0m/s | -7.1°C | 7.5% | 609.9hPa | 2.5V | 02:34:05 | 02:53:38 | 00:00:00 | |
| DF8AY | 2026-09-05 01:23:21 | 55.08237 | 19.72714 | 0° | 0km/h | 2608m | 0m/s | -7.3°C | 7% | 607hPa | 2.6V | 02:33:14 | 02:53:35 | 00:00:00 | |
| AA1-15 | 2026-09-05 01:23:13 | 55.08237 | 19.72714 | 0° | 0km/h | 2608m | 0m/s | -7.8°C | 6.1% | 599.7hPa | 2.6V | 02:34:05 | 02:53:27 | 00:00:00 | |
| DF8AY | 2026-09-05 01:23:10 | 55.08237 | 19.72714 | 0° | 0km/h | 2608m | 0m/s | -7.9°C | 5.3% | 596.8hPa | 2.6V | 02:33:14 | 02:53:24 | 00:00:00 | |
| DB0DAN | 2026-09-05 01:23:10 | 55.08237 | 19.72714 | 0° | 0km/h | 2608m | 0m/s | -7.9°C | 5.7% | 596.75hPa | 2.6V | 00:00:00 | 00:00:00 | 00:00:00 | |
| AA1-15 | 2026-09-05 01:23:02 | 55.08237 | 19.72714 | 0° | 0km/h | 2608m | 0m/s | -8.3°C | 5.9% | 589.5hPa | 2.5V | 02:34:05 | 02:53:16 | 00:00:00 | |
| DL1XH-west | 2026-09-05 01:23:00 | 55.08237 | 19.72714 | 0° | 0km/h | 2608m | 0m/s | -8.4°C | 5.9% | 587.5hPa | 2.6V | 02:34:56 | 02:53:14 | 00:00:00 | |
| DF8AY | 2026-09-05 01:22:59 | 55.08237 | 19.72714 | 0° | 0km/h | 2608m | 0m/s | -8.6°C | 6.1% | 586.6hPa | 2.6V | 02:34:05 | 02:53:13 | 00:00:00 | |
| DB0DAN | 2026-09-05 01:22:55 | 55.08237 | 19.72714 | 0° | 0km/h | 2608m | 0m/s | -8.9°C | 6.3% | 582.92hPa | 2.6V | 00:00:00 | 00:00:00 | 00:00:00 | |
| AA1-15 | 2026-09-05 01:22:52 | 55.08237 | 19.72714 | 0° | 0km/h | 2608m | 0m/s | -9.2°C | 7.4% | 580.1hPa | 2.5V | 02:34:05 | 02:53:06 | 00:00:00 | |
| DL1XH-west | 2026-09-05 01:22:50 | 55.08237 | 19.72714 | 0° | 0km/h | 2608m | 0m/s | -9.4°C | 8.6% | 578.6hPa | 2.6V | 02:34:56 | 02:53:04 | 00:00:00 | |
| DF8AY | 2026-09-05 01:22:49 | 55.08237 | 19.72714 | 0° | 0km/h | 2608m | 0m/s | -9.5°C | 8.7% | 577.8hPa | 2.6V | 02:34:05 | 02:53:03 | 00:00:00 | |
| AA1-15 | 2026-09-05 01:22:41 | 55.08237 | 19.72714 | 0° | 0km/h | 2608m | 0m/s | -10.4°C | 11.7% | 570.9hPa | 2.5V | 02:34:05 | 02:52:55 | 00:00:00 | |
| DB0DAN | 2026-09-05 01:22:40 | 55.08237 | 19.72714 | 0° | 0km/h | 2608m | 0m/s | -10.5°C | 10.4% | 569.96hPa | 2.6V | 00:00:00 | 00:00:00 | 00:00:00 | |
| DF8AY | 2026-09-05 01:22:39 | 55.08237 | 19.72714 | 0° | 0km/h | 2608m | 0m/s | -10.7°C | 14.6% | 568.1hPa | 2.6V | 02:34:05 | 02:52:52 | 00:00:00 | |
| AA1-15 | 2026-09-05 01:22:31 | 55.08237 | 19.72714 | 0° | 0km/h | 2608m | 0m/s | -11.3°C | 16.5% | 562.3hPa | 2.5V | 02:34:05 | 02:52:45 | 00:00:00 | |
| DF8AY | 2026-09-05 01:22:28 | 55.08237 | 19.72714 | 0° | 0km/h | 2608m | 0m/s | -11.5°C | 16.4% | 559.9hPa | 2.6V | 02:34:05 | 02:52:42 | 00:00:00 | |
| DB0DAN | 2026-09-05 01:22:25 | 55.08237 | 19.72714 | 0° | 0km/h | 2608m | 0m/s | -11.8°C | 13.4% | 557.27hPa | 2.6V | 00:00:00 | 00:00:00 | 00:00:00 | |
| AA1-15 | 2026-09-05 01:22:20 | 55.08237 | 19.72714 | 0° | 0km/h | 2608m | 0m/s | -12.3°C | 16.3% | 553.1hPa | 2.5V | 02:34:05 | 02:52:34 | 00:00:00 | |
| DF8AY | 2026-09-05 01:22:17 | 55.08237 | 19.72714 | 0° | 0km/h | 2608m | 0m/s | -12.6°C | 15.7% | 550.6hPa | 2.6V | 02:34:56 | 02:52:31 | 00:00:00 | |
| DB0DAN | 2026-09-05 01:22:10 | 55.08237 | 19.72714 | 0° | 0km/h | 2608m | 0m/s | -13.3°C | 13.2% | 544.64hPa | 2.6V | 00:00:00 | 00:00:00 | 00:00:00 | |
| AA1-15 | 2026-09-05 01:22:09 | 55.08237 | 19.72714 | 0° | 0km/h | 2608m | 0m/s | -13.4°C | 16.4% | 543.8hPa | 2.5V | 02:34:56 | 02:52:23 | 00:00:00 | |
| DF8AY | 2026-09-05 01:22:06 | 55.08237 | 19.72714 | 0° | 0km/h | 2608m | 0m/s | -13.7°C | 16.5% | 541.5hPa | 2.6V | 02:34:56 | 02:52:20 | 00:00:00 | |
| AA1-15 | 2026-09-05 01:21:58 | 55.08237 | 19.72714 | 0° | 0km/h | 2608m | 0m/s | -14.6°C | 20.1% | 534.9hPa | 2.6V | 02:34:56 | 02:52:12 | 00:00:00 | |
| DF8AY | 2026-09-05 01:21:57 | 55.08237 | 19.72714 | 0° | 0km/h | 2608m | 0m/s | -14.7°C | 20.7% | 533.5hPa | 2.6V | 02:34:56 | 02:52:10 | 00:00:00 | |
| DB0DAN | 2026-09-05 01:21:55 | 55.08237 | 19.72714 | 0° | 0km/h | 2608m | 0m/s | -14.8°C | 16.5% | 532.68hPa | 2.5V | 00:00:00 | 00:00:00 | 00:00:00 | |
| DL1XH-west | 2026-09-05 01:21:48 | 55.08237 | 19.72714 | 0° | 0km/h | 2608m | 0m/s | -15.5°C | 19.4% | 526.9hPa | 2.5V | 02:34:56 | 02:52:02 | 00:00:00 | |
| DF8AY | 2026-09-05 01:21:45 | 55.08237 | 19.72714 | 0° | 0km/h | 2608m | 0m/s | -15.7°C | 19.2% | 524.6hPa | 2.6V | 02:34:56 | 02:51:59 | 00:00:00 | |
| BIOWL1-15 | 2026-09-05 01:21:43 | 55.08237 | 19.72714 | 0° | 0km/h | 2608m | 0m/s | -15.9°C | 19.1% | 523.1hPa | 2.5V | 02:34:56 | 02:51:57 | 00:00:00 | |
| DB0DAN | 2026-09-05 01:21:40 | 55.08237 | 19.72714 | 0° | 0km/h | 2608m | 0m/s | -16.2°C | 15.6% | 520.77hPa | 2.6V | 00:00:00 | 00:00:00 | 00:00:00 | |
| DL1XH-west | 2026-09-05 01:21:37 | 55.08237 | 19.72714 | 0° | 0km/h | 2608m | 0m/s | -16.5°C | 19.1% | 518.6hPa | 2.5V | 02:34:56 | 02:51:51 | 00:00:00 | |
| DF8AY | 2026-09-05 01:21:34 | 55.08237 | 19.72714 | 0° | 0km/h | 2608m | 0m/s | -16.7°C | 17.5% | 516.3hPa | 2.6V | 02:34:56 | 02:51:48 | 00:00:00 | |
| BIOWL1-15 | 2026-09-05 01:21:34 | 55.08237 | 19.72714 | 0° | 0km/h | 2608m | 0m/s | -16.8°C | 16.8% | 514.8hPa | 2.5V | 02:34:56 | 02:51:46 | 00:00:00 | |
| DL1XH-west | 2026-09-05 01:21:27 | 55.08237 | 19.72714 | 0° | 0km/h | 2608m | 0m/s | -17.2°C | 17.1% | 511hPa | 2.6V | 02:35:47 | 02:51:41 | 00:00:00 | |
| AA1-15 | 2026-09-05 01:21:26 | 55.08237 | 19.72714 | 0° | 0km/h | 2608m | 0m/s | -17.3°C | 17% | 510.3hPa | 2.6V | 02:35:47 | 02:51:40 | 00:00:00 | |
| DB0DAN | 2026-09-05 01:21:25 | 55.08237 | 19.72714 | 0° | 0km/h | 2608m | 0m/s | -17.4°C | 13.9% | 509.7hPa | 2.5V | 00:00:00 | 00:00:00 | 00:00:00 | |
| BIOWL1-15 | 2026-09-05 01:21:24 | 55.08237 | 19.72714 | 0° | 0km/h | 2608m | 0m/s | -17.9°C | 17.4% | 505.8hPa | 2.6V | 02:36:38 | 02:51:34 | 00:00:00 | |
| DF8AY | 2026-09-05 01:21:23 | 55.08237 | 19.72714 | 0° | 0km/h | 2608m | 0m/s | -17.6°C | 17.1% | 508.1hPa | 2.5V | 02:35:47 | 02:51:37 | 00:00:00 | |
| DL1XH-west | 2026-09-05 01:21:17 | 55.08237 | 19.72714 | 0° | 0km/h | 2608m | 0m/s | -18.1°C | 17.4% | 503.8hPa | 2.6V | 02:35:47 | 02:51:31 | 00:00:00 | |
| AA1-15 | 2026-09-05 01:21:16 | 55.08237 | 19.72714 | 0° | 0km/h | 2608m | 0m/s | -18.2°C | 17.4% | 502.8hPa | 2.6V | 02:35:47 | 02:51:30 | 00:00:00 | |
| DF8AY | 2026-09-05 01:21:13 | 55.08237 | 19.72714 | 0° | 0km/h | 2608m | 0m/s | -18.4°C | 17.3% | 500.8hPa | 2.5V | 02:35:47 | 02:51:27 | 00:00:00 | |
| BIOWL1-15 | 2026-09-05 01:21:11 | 55.08237 | 19.72714 | 0° | 0km/h | 2608m | 0m/s | -18.8°C | 17.4% | 497.8hPa | 2.6V | 02:36:38 | 02:51:23 | 00:00:00 | |
| DB0DAN | 2026-09-05 01:21:10 | 55.08237 | 19.72714 | 0° | 0km/h | 2608m | 0m/s | -18.7°C | 14.1% | 498.52hPa | 2.6V | 00:00:00 | 00:00:00 | 00:00:00 | |
| DL1XH-west | 2026-09-05 01:21:07 | 55.08237 | 19.72714 | 0° | 0km/h | 2608m | 0m/s | -18.9°C | 17.3% | 496.2hPa | 2.5V | 02:35:47 | 02:51:21 | 00:00:00 | |
| AA1-15 | 2026-09-05 01:21:06 | 55.08237 | 19.72714 | 0° | 0km/h | 2608m | 0m/s | -19°C | 17.1% | 495.5hPa | 2.5V | 02:35:47 | 02:51:20 | 00:00:00 | |
| DF8AY | 2026-09-05 01:21:02 | 55.08237 | 19.72714 | 0° | 0km/h | 2608m | 0m/s | -19.4°C | 18.8% | 492.4hPa | 2.6V | 02:35:47 | 02:51:16 | 00:00:00 | |
| BIOWL1-15 | 2026-09-05 01:20:59 | 55.08237 | 19.72714 | 0° | 0km/h | 2608m | 0m/s | -19.5°C | 19.2% | 490.2hPa | 2.6V | 02:36:38 | 02:51:13 | 00:00:00 | |
| DL1XH-west | 2026-09-05 01:20:57 | 55.08237 | 19.72714 | 0° | 0km/h | 2608m | 0m/s | -19.6°C | 19.7% | 488.8hPa | 2.6V | 02:35:47 | 02:51:11 | 00:00:00 | |
| AA1-15 | 2026-09-05 01:20:56 | 55.08237 | 19.72714 | 0° | 0km/h | 2608m | 0m/s | -19.6°C | 20.2% | 488.1hPa | 2.5V | 02:35:47 | 02:51:10 | 00:00:00 | |
| DB0DAN | 2026-09-05 01:20:55 | 55.08237 | 19.72714 | 0° | 0km/h | 2608m | 0m/s | -19.7°C | 16.8% | 487.34hPa | 2.5V | 00:00:00 | 00:00:00 | 00:00:00 | |
| DF8AY | 2026-09-05 01:20:51 | 55.08237 | 19.72714 | 0° | 0km/h | 2608m | 0m/s | -20°C | 21.1% | 484.4hPa | 2.6V | 02:35:47 | 02:51:05 | 00:00:00 | |
| BIOWL1-15 | 2026-09-05 01:20:49 | 55.08237 | 19.72714 | 0° | 0km/h | 2608m | 0m/s | -20.1°C | 21.2% | 483hPa | 2.5V | 02:36:38 | 02:51:03 | 00:00:00 | |
| DL1XH-west | 2026-09-05 01:20:46 | 55.08237 | 19.72714 | 0° | 0km/h | 2608m | 0m/s | -20.3°C | 21.4% | 480.8hPa | 2.6V | 02:35:47 | 02:51:00 | 00:00:00 | |
| AA1-15 | 2026-09-05 01:20:45 | 55.08237 | 19.72714 | 0° | 0km/h | 2608m | 0m/s | -20.4°C | 21.4% | 480.1hPa | 2.5V | 02:35:47 | 02:50:59 | 00:00:00 | |
| DF8AY | 2026-09-05 01:20:40 | 55.08237 | 19.72714 | 0° | 0km/h | 2608m | 0m/s | -20.7°C | 22% | 476.4hPa | 2.6V | 02:35:47 | 02:50:54 | 00:00:00 | |
| DB0DAN | 2026-09-05 01:20:40 | 55.08237 | 19.72714 | 0° | 0km/h | 2608m | 0m/s | -20.7°C | 18.1% | 476.42hPa | 2.6V | 00:00:00 | 00:00:00 | 00:00:00 | |
| BIOWL1-15 | 2026-09-05 01:20:39 | 55.08237 | 19.72714 | 0° | 0km/h | 2608m | 0m/s | -20.7°C | 21.9% | 475.5hPa | 2.5V | 02:36:38 | 02:50:53 | 00:00:00 | |
| DL1XH-west | 2026-09-05 01:20:35 | 55.08237 | 19.72714 | 0° | 0km/h | 2608m | 0m/s | -21°C | 22% | 472.7hPa | 2.6V | 02:36:38 | 02:50:49 | 00:00:00 | |
| DF8AY | 2026-09-05 01:20:29 | 55.08237 | 19.72714 | 0° | 0km/h | 2608m | 0m/s | -21.3°C | 17.3% | 468hPa | 2.6V | 02:36:38 | 02:50:43 | 00:00:00 | |
| BIOWL1-15 | 2026-09-05 01:20:28 | 55.08237 | 19.72714 | 0° | 0km/h | 2608m | 0m/s | -21.4°C | 16.3% | 467.2hPa | 2.5V | 02:36:38 | 02:50:42 | 00:00:00 | |
| DB0DAN | 2026-09-05 01:20:25 | 55.08237 | 19.72714 | 0° | 0km/h | 2608m | 0m/s | -21.5°C | 11.3% | 464.85hPa | 2.6V | 00:00:00 | 00:00:00 | 00:00:00 | |
| AA1-15 | 2026-09-05 01:20:25 | 55.08237 | 19.72714 | 0° | 0km/h | 2608m | 0m/s | -21.5°C | 14.1% | 464.9hPa | 2.6V | 02:36:38 | 02:50:39 | 00:00:00 | |
| DL1XH-west | 2026-09-05 01:20:24 | 55.08237 | 19.72714 | 0° | 0km/h | 2608m | 0m/s | -21.6°C | 14.5% | 464hPa | 2.5V | 02:36:38 | 02:50:38 | 00:00:00 | |
| DF8AY | 2026-09-05 01:20:18 | 55.08237 | 19.72714 | 0° | 0km/h | 2608m | 0m/s | -22.1°C | 16.6% | 459.6hPa | 2.5V | 02:36:38 | 02:50:32 | 00:00:00 | |
| BIOWL1-15 | 2026-09-05 01:20:17 | 55.08237 | 19.72714 | 0° | 0km/h | 2608m | 0m/s | -22.2°C | 16.6% | 458.9hPa | 2.5V | 02:36:38 | 02:50:31 | 00:00:00 | |
| DL1XH-west | 2026-09-05 01:20:14 | 55.08237 | 19.72714 | 0° | 0km/h | 2608m | 0m/s | -22.6°C | 16.7% | 456.5hPa | 2.6V | 02:36:38 | 02:50:28 | 00:00:00 | |
| DB0DAN | 2026-09-05 01:20:10 | 55.08237 | 19.72714 | 0° | 0km/h | 2608m | 0m/s | -23°C | 13.4% | 453.41hPa | 2.6V | 00:00:00 | 00:00:00 | 00:00:00 | |
| DF8AY | 2026-09-05 01:20:08 | 55.08237 | 19.72714 | 0° | 0km/h | 2608m | 0m/s | -23.2°C | 17.6% | 451.8hPa | 2.5V | 02:36:38 | 02:50:22 | 00:00:00 | |
| BIOWL1-15 | 2026-09-05 01:20:07 | 55.08237 | 19.72714 | 0° | 0km/h | 2608m | 0m/s | -23.3°C | 18.2% | 450.9hPa | 2.5V | 02:36:38 | 02:50:21 | 00:00:00 | |
| DL1XH-west | 2026-09-05 01:20:03 | 55.08237 | 19.72714 | 0° | 0km/h | 2608m | 0m/s | -23.8°C | 18.9% | 447.9hPa | 2.6V | 02:36:38 | 02:50:17 | 00:00:00 | |
| DF8AY | 2026-09-05 01:19:57 | 55.08237 | 19.72714 | 0° | 0km/h | 2608m | 0m/s | -24.5°C | 19.7% | 443.1hPa | 2.6V | 02:36:38 | 02:50:11 | 00:00:00 | |
| BIOWL1-15 | 2026-09-05 01:19:56 | 55.08237 | 19.72714 | 0° | 0km/h | 2608m | 0m/s | -24.6°C | 19.8% | 442.4hPa | 2.5V | 02:36:38 | 02:50:10 | 00:00:00 | |
| DB0DAN | 2026-09-05 01:19:55 | 55.08237 | 19.72714 | 0° | 0km/h | 2608m | 0m/s | -24.7°C | 15.5% | 441.56hPa | 2.5V | 00:00:00 | 00:00:00 | 00:00:00 | |
| AA1-15 | 2026-09-05 01:19:53 | 55.08237 | 19.72714 | 0° | 0km/h | 2608m | 0m/s | -25°C | 19.8% | 440.2hPa | 2.6V | 02:36:38 | 02:50:07 | 00:00:00 | |
| DL1XH-west | 2026-09-05 01:19:52 | 55.08237 | 19.72714 | 0° | 0km/h | 2608m | 0m/s | -25.1°C | 19.6% | 439.4hPa | 2.5V | 02:36:38 | 02:50:06 | 00:00:00 | |
| DF8AY | 2026-09-05 01:19:46 | 55.08237 | 19.72714 | 0° | 0km/h | 2608m | 0m/s | -25.8°C | 19% | 433.8hPa | 2.5V | 02:37:29 | 02:49:59 | 00:00:00 | |
| BIOWL1-15 | 2026-09-05 01:19:45 | 55.08237 | 19.72714 | 0° | 0km/h | 2608m | 0m/s | -26.1°C | 18.5% | 431.4hPa | 2.6V | 02:37:29 | 02:49:56 | 00:00:00 | |
| AA1-15 | 2026-09-05 01:19:43 | 55.08237 | 19.72714 | 0° | 0km/h | 2608m | 0m/s | -26°C | 18.5% | 432.2hPa | 2.6V | 02:37:29 | 02:49:57 | 00:00:00 | |
| DL1XH-west | 2026-09-05 01:19:41 | 55.08237 | 19.72714 | 0° | 0km/h | 2608m | 0m/s | -26.3°C | 18.4% | 430.6hPa | 2.5V | 02:37:29 | 02:49:55 | 00:00:00 | |
| DB0DAN | 2026-09-05 01:19:40 | 55.08237 | 19.72714 | 0° | 0km/h | 2608m | 0m/s | -26.4°C | 14.5% | 429.82hPa | 2.5V | 00:00:00 | 00:00:00 | 00:00:00 | |
| BIOWL1-15 | 2026-09-05 01:19:35 | 55.08237 | 19.72714 | 0° | 0km/h | 2608m | 0m/s | -27°C | 18% | 425.9hPa | 2.5V | 02:37:29 | 02:49:49 | 00:00:00 | |
| AA1-15 | 2026-09-05 01:19:32 | 55.08237 | 19.72714 | 0° | 0km/h | 2608m | 0m/s | -27.2°C | 16.3% | 423.8hPa | 2.6V | 02:37:29 | 02:49:46 | 00:00:00 | |
| DL1XH-west | 2026-09-05 01:19:30 | 55.08237 | 19.72714 | 0° | 0km/h | 2608m | 0m/s | -27.3°C | 14.7% | 422.1hPa | 2.6V | 02:37:29 | 02:49:44 | 00:00:00 | |
| DF8AY | 2026-09-05 01:19:27 | 55.08237 | 19.72714 | 0° | 0km/h | 2608m | 0m/s | -27.2°C | 13.1% | 419.9hPa | 2.6V | 02:37:29 | 02:49:41 | 00:00:00 | |
| DB0DAN | 2026-09-05 01:19:25 | 55.08237 | 19.72714 | 0° | 0km/h | 2608m | 0m/s | -27.3°C | 10.2% | 418.52hPa | 2.5V | 00:00:00 | 00:00:00 | 00:00:00 | |
| BIOWL1-15 | 2026-09-05 01:19:23 | 55.08237 | 19.72714 | 0° | 0km/h | 2608m | 0m/s | -27.6°C | 12.8% | 417hPa | 2.6V | 02:37:29 | 02:49:37 | 00:00:00 | |
| AA1-15 | 2026-09-05 01:19:22 | 55.08237 | 19.72714 | 0° | 0km/h | 2608m | 0m/s | -27.6°C | 12.6% | 416.3hPa | 2.6V | 02:37:29 | 02:49:36 | 00:00:00 | |
| DL1XH-west | 2026-09-05 01:19:19 | 55.08237 | 19.72714 | 0° | 0km/h | 2608m | 0m/s | -27.9°C | 12.5% | 414.2hPa | 2.6V | 02:37:29 | 02:49:33 | 00:00:00 | |
| DF8AY | 2026-09-05 01:19:16 | 55.08237 | 19.72714 | 0° | 0km/h | 2608m | 0m/s | -28.2°C | 12.2% | 411.9hPa | 2.5V | 02:37:29 | 02:49:30 | 00:00:00 | |
| BIOWL1-15 | 2026-09-05 01:19:12 | 55.08237 | 19.72714 | 0° | 0km/h | 2608m | 0m/s | -28.6°C | 12.4% | 409.2hPa | 2.6V | 02:37:29 | 02:49:26 | 00:00:00 | |
| AA1-15 | 2026-09-05 01:19:11 | 55.08237 | 19.72714 | 0° | 0km/h | 2608m | 0m/s | -28.7°C | 12.3% | 408.4hPa | 2.6V | 02:37:29 | 02:49:25 | 00:00:00 | |
| DB0DAN | 2026-09-05 01:19:10 | 55.08237 | 19.72714 | 0° | 0km/h | 2608m | 0m/s | -28.8°C | 9.3% | 407.78hPa | 2.5V | 00:00:00 | 00:00:00 | 00:00:00 | |
| DL1XH-west | 2026-09-05 01:19:08 | 55.08237 | 19.72714 | 0° | 0km/h | 2608m | 0m/s | -29°C | 11.9% | 406.4hPa | 2.5V | 02:37:29 | 02:49:22 | 00:00:00 | |
| DF8AY | 2026-09-05 01:19:07 | 55.08237 | 19.72714 | 0° | 0km/h | 2608m | 0m/s | -29.2°C | 11.6% | 405.1hPa | 2.6V | 02:37:29 | 02:49:20 | 00:00:00 | |
| BIOWL1-15 | 2026-09-05 01:19:03 | 55.08237 | 19.72714 | 0° | 0km/h | 2608m | 0m/s | -29.6°C | 11.1% | 402.1hPa | 2.5V | 02:37:29 | 02:49:16 | 00:00:00 | |
| AA1-15 | 2026-09-05 01:19:01 | 55.08237 | 19.72714 | 0° | 0km/h | 2608m | 0m/s | -29.6°C | 10.8% | 401.5hPa | 2.6V | 02:37:29 | 02:49:15 | 00:00:00 | |
| DL1XH-west | 2026-09-05 01:18:57 | 55.08237 | 19.72714 | 0° | 0km/h | 2608m | 0m/s | -30°C | 10.3% | 398.6hPa | 2.5V | 02:37:29 | 02:49:11 | 00:00:00 | |
| DF8AY | 2026-09-05 01:18:55 | 55.08237 | 19.72714 | 0° | 0km/h | 2608m | 0m/s | -30.2°C | 10.3% | 397.1hPa | 2.6V | 02:37:29 | 02:49:09 | 00:00:00 | |
| DB0DAN | 2026-09-05 01:18:55 | 55.08237 | 19.72714 | 0° | 0km/h | 2608m | 0m/s | -30.2°C | 8% | 397.15hPa | 2.6V | 00:00:00 | 00:00:00 | 00:00:00 | |
| BIOWL1-15 | 2026-09-05 01:18:51 | 55.08237 | 19.72714 | 0° | 0km/h | 2608m | 0m/s | -30.5°C | 10% | 394.2hPa | 2.5V | 02:39:11 | 02:49:05 | 00:00:00 | |
| DF8AY | 2026-09-05 01:18:50 | 55.08237 | 19.72714 | 0° | 0km/h | 2608m | 0m/s | -31°C | 9.8% | 389.7hPa | 2.5V | 02:38:20 | 02:48:59 | 00:00:00 | |
| AA1-15 | 2026-09-05 01:18:50 | 55.08237 | 19.72714 | 0° | 0km/h | 2608m | 0m/s | -30.7°C | 10% | 393.3hPa | 2.5V | 02:38:20 | 02:49:04 | 00:00:00 | |
| DL1XH-west | 2026-09-05 01:18:46 | 55.08237 | 19.72714 | 0° | 0km/h | 2608m | 0m/s | -30.9°C | 9.8% | 390.4hPa | 2.5V | 02:38:20 | 02:49:00 | 00:00:00 | |
| DB0DAN | 2026-09-05 01:18:40 | 55.08237 | 19.72714 | 0° | 0km/h | 2608m | 0m/s | -31.2°C | 7% | 386.28hPa | 2.5V | 00:00:00 | 00:00:00 | 00:00:00 | |
| BIOWL1-15 | 2026-09-05 01:18:40 | 55.08237 | 19.72714 | 0° | 0km/h | 2608m | 0m/s | -31.2°C | 8.8% | 386.3hPa | 2.5V | 02:39:11 | 02:48:54 | 00:00:00 | |
| AA1-15 | 2026-09-05 01:18:39 | 55.08237 | 19.72714 | 0° | 0km/h | 2608m | 0m/s | -31.3°C | 8.6% | 385.6hPa | 2.5V | 02:38:20 | 02:48:53 | 00:00:00 | |
| DL1XH-west | 2026-09-05 01:18:35 | 55.08237 | 19.72714 | 0° | 0km/h | 2608m | 0m/s | -31.7°C | 8.2% | 382.6hPa | 2.6V | 02:38:20 | 02:48:49 | 00:00:00 | |
| DF8AY | 2026-09-05 01:18:34 | 55.08237 | 19.72714 | 0° | 0km/h | 2608m | 0m/s | -31.7°C | 8.1% | 382hPa | 2.5V | 02:38:20 | 02:48:48 | 00:00:00 | |
| BIOWL1-15 | 2026-09-05 01:18:30 | 55.08237 | 19.72714 | 0° | 0km/h | 2608m | 0m/s | -31.9°C | 7.5% | 379.3hPa | 2.6V | 02:39:11 | 02:48:44 | 00:00:00 | |
| AA1-15 | 2026-09-05 01:18:28 | 55.08237 | 19.72714 | 0° | 0km/h | 2608m | 0m/s | -32°C | 7.2% | 378hPa | 2.5V | 02:38:20 | 02:48:42 | 00:00:00 | |
| DB0DAN | 2026-09-05 01:18:25 | 55.08237 | 19.72714 | 0° | 0km/h | 2608m | 0m/s | -32.2°C | 5.8% | 376.08hPa | 2.6V | 00:00:00 | 00:00:00 | 00:00:00 | |
| DL1XH-west | 2026-09-05 01:18:25 | 55.08237 | 19.72714 | 0° | 0km/h | 2608m | 0m/s | -32.2°C | 7.1% | 376.1hPa | 2.6V | 02:38:20 | 02:48:39 | 00:00:00 | |
| DF8AY | 2026-09-05 01:18:23 | 55.08237 | 19.72714 | 0° | 0km/h | 2608m | 0m/s | -32.3°C | 7% | 374.7hPa | 2.6V | 02:38:20 | 02:48:37 | 00:00:00 | |
| DF8AY | 2026-09-05 01:18:17 | 55.08237 | 19.72714 | 0° | 0km/h | 2608m | 0m/s | -33.3°C | 7% | 367.9hPa | 2.6V | 02:38:20 | 02:48:26 | 00:00:00 | |
| AA1-15 | 2026-09-05 01:18:17 | 55.08237 | 19.72714 | 0° | 0km/h | 2608m | 0m/s | -32.9°C | 7.1% | 370.8hPa | 2.6V | 02:38:20 | 02:48:31 | 00:00:00 | |
| DL1XH-west | 2026-09-05 01:18:15 | 55.08237 | 19.72714 | 0° | 0km/h | 2608m | 0m/s | -33.1°C | 7.1% | 369.6hPa | 2.5V | 02:38:20 | 02:48:29 | 00:00:00 | |
| DB0DAN | 2026-09-05 01:18:10 | 55.08237 | 19.72714 | 0° | 0km/h | 2608m | 0m/s | -33.4°C | 5.7% | 366.42hPa | 2.5V | 00:00:00 | 00:00:00 | 00:00:00 | |
| AA1-15 | 2026-09-05 01:18:06 | 55.08237 | 19.72714 | 0° | 0km/h | 2608m | 0m/s | -33.7°C | 7.3% | 363.7hPa | 2.6V | 02:38:20 | 02:48:20 | 00:00:00 | |
| DL1XH-west | 2026-09-05 01:18:04 | 55.08237 | 19.72714 | 0° | 0km/h | 2608m | 0m/s | -33.6°C | 7.3% | 362.2hPa | 2.5V | 02:38:20 | 02:48:18 | 00:00:00 | |
| DF8AY | 2026-09-05 01:18:02 | 55.08237 | 19.72714 | 0° | 0km/h | 2608m | 0m/s | -33.5°C | 6.8% | 360.9hPa | 2.5V | 02:39:11 | 02:48:16 | 00:00:00 | |
| AA1-15 | 2026-09-05 01:17:55 | 55.08237 | 19.72714 | 0° | 0km/h | 2608m | 0m/s | -34.2°C | 5.8% | 355.9hPa | 2.6V | 02:39:11 | 02:48:09 | 00:00:00 | |
| DB0DAN | 2026-09-05 01:17:55 | 55.08237 | 19.72714 | 0° | 0km/h | 2608m | 0m/s | -34.2°C | 5% | 355.87hPa | 2.6V | 00:00:00 | 00:00:00 | 00:00:00 | |
| DL1XH-west | 2026-09-05 01:17:54 | 55.08237 | 19.72714 | 0° | 0km/h | 2608m | 0m/s | -34.3°C | 5.7% | 355.2hPa | 2.6V | 02:39:11 | 02:48:08 | 00:00:00 | |
| DF8AY | 2026-09-05 01:17:52 | 55.08237 | 19.72714 | 0° | 0km/h | 2608m | 0m/s | -34.5°C | 5.4% | 353.9hPa | 2.5V | 02:39:11 | 02:48:06 | 00:00:00 | |
| AA1-15 | 2026-09-05 01:17:45 | 55.08237 | 19.72714 | 0° | 0km/h | 2608m | 0m/s | -34.7°C | 4.8% | 349.1hPa | 2.5V | 02:39:11 | 02:47:59 | 00:00:00 | |
| BIOWL1-15 | 2026-09-05 01:17:44 | 55.08237 | 19.72714 | 0° | 0km/h | 2608m | 0m/s | -34.6°C | 5% | 346.9hPa | 2.6V | 02:39:11 | 02:47:56 | 00:00:00 | |
| DL1XH-west | 2026-09-05 01:17:43 | 55.08237 | 19.72714 | 0° | 0km/h | 2608m | 0m/s | -34.7°C | 4.9% | 347.7hPa | 2.6V | 02:39:11 | 02:47:57 | 00:00:00 | |
| DF8AY | 2026-09-05 01:17:41 | 55.08237 | 19.72714 | 0° | 0km/h | 2608m | 0m/s | -34.6°C | 5% | 346.3hPa | 2.5V | 02:39:11 | 02:47:55 | 00:00:00 | |
| DB0DAN | 2026-09-05 01:17:40 | 55.08237 | 19.72714 | 0° | 0km/h | 2608m | 0m/s | -34.6°C | 4.5% | 345.56hPa | 2.5V | 00:00:00 | 00:00:00 | 00:00:00 | |
| AA1-15 | 2026-09-05 01:17:35 | 55.08237 | 19.72714 | 0° | 0km/h | 2608m | 0m/s | -34.8°C | 5.4% | 342.2hPa | 2.6V | 02:39:11 | 02:47:49 | 00:00:00 | |
| DL1XH-west | 2026-09-05 01:17:32 | 55.08237 | 19.72714 | 0° | 0km/h | 2608m | 0m/s | -34.8°C | 5.6% | 340hPa | 2.5V | 02:39:11 | 02:47:46 | 00:00:00 | |
| DF8AY | 2026-09-05 01:17:31 | 55.08237 | 19.72714 | 0° | 0km/h | 2608m | 0m/s | -34.8°C | 5.7% | 339.4hPa | 2.5V | 02:39:11 | 02:47:45 | 00:00:00 | |
| DB0DAN | 2026-09-05 01:17:25 | 55.08237 | 19.72714 | 0° | 0km/h | 2608m | 0m/s | -34.8°C | 5.8% | 335.44hPa | 2.5V | 00:00:00 | 00:00:00 | 00:00:00 | |
| AA1-15 | 2026-09-05 01:17:24 | 55.08237 | 19.72714 | 0° | 0km/h | 2608m | 0m/s | -34.8°C | 7.8% | 334.8hPa | 2.6V | 02:39:11 | 02:47:38 | 00:00:00 | |
| BIOWL1-15 | 2026-09-05 01:17:23 | 55.08237 | 19.72714 | 0° | 0km/h | 2608m | 0m/s | -35.2°C | 8.6% | 332.7hPa | 2.5V | 02:39:11 | 02:47:35 | 00:00:00 | |
| DL1XH-west | 2026-09-05 01:17:22 | 55.08237 | 19.72714 | 0° | 0km/h | 2608m | 0m/s | -35°C | 8.4% | 333.4hPa | 2.6V | 02:39:11 | 02:47:36 | 00:00:00 | |
| DF8AY | 2026-09-05 01:17:20 | 55.08237 | 19.72714 | 0° | 0km/h | 2608m | 0m/s | -35.3°C | 8.8% | 332.1hPa | 2.5V | 02:39:11 | 02:47:34 | 00:00:00 | |
| AA1-15 | 2026-09-05 01:17:13 | 55.08237 | 19.72714 | 0° | 0km/h | 2608m | 0m/s | -36.1°C | 9.8% | 327.6hPa | 2.5V | 02:39:11 | 02:47:27 | 00:00:00 | |
| DL1XH-west | 2026-09-05 01:17:12 | 55.08237 | 19.72714 | 0° | 0km/h | 2608m | 0m/s | -36.2°C | 9.7% | 327.2hPa | 2.6V | 02:40:02 | 02:47:26 | 00:00:00 | |
| BIOWL1-15 | 2026-09-05 01:17:10 | 55.08237 | 19.72714 | 0° | 0km/h | 2608m | 0m/s | -36.3°C | 9.6% | 326hPa | 2.5V | 02:40:53 | 02:47:24 | 00:00:00 | |
| DB0DAN | 2026-09-05 01:17:10 | 55.08237 | 19.72714 | 0° | 0km/h | 2608m | 0m/s | -36.3°C | 7.3% | 326.01hPa | 2.5V | 00:00:00 | 00:00:00 | 00:00:00 | |
| DF8AY | 2026-09-05 01:17:09 | 55.08237 | 19.72714 | 0° | 0km/h | 2608m | 0m/s | -36.4°C | 9.5% | 325.3hPa | 2.5V | 02:40:02 | 02:47:23 | 00:00:00 | |
| AA1-15 | 2026-09-05 01:17:02 | 55.08237 | 19.72714 | 0° | 0km/h | 2608m | 0m/s | -37.1°C | 9.7% | 321.2hPa | 2.6V | 02:40:02 | 02:47:16 | 00:00:00 | |
| BIOWL1-15 | 2026-09-05 01:17:02 | 55.08237 | 19.72714 | 0° | 0km/h | 2608m | 0m/s | -37.3°C | 9.8% | 320hPa | 2.5V | 02:40:53 | 02:47:14 | 00:00:00 | |
| DL1XH-west | 2026-09-05 01:17:01 | 55.08237 | 19.72714 | 0° | 0km/h | 2608m | 0m/s | -37.2°C | 9.7% | 320.6hPa | 2.6V | 02:40:02 | 02:47:15 | 00:00:00 | |
| DF8AY | 2026-09-05 01:16:58 | 55.08237 | 19.72714 | 0° | 0km/h | 2608m | 0m/s | -37.5°C | 9.9% | 318.9hPa | 2.5V | 02:40:02 | 02:47:12 | 00:00:00 | |
| DB0DAN | 2026-09-05 01:16:55 | 55.08237 | 19.72714 | 0° | 0km/h | 2608m | 0m/s | -37.7°C | 7.4% | 317.28hPa | 2.6V | 00:00:00 | 00:00:00 | 00:00:00 | |
| AA1-15 | 2026-09-05 01:16:51 | 55.08237 | 19.72714 | 0° | 0km/h | 2608m | 0m/s | -38°C | 10% | 314.8hPa | 2.6V | 02:40:02 | 02:47:05 | 00:00:00 | |
| DL1XH-west | 2026-09-05 01:16:50 | 55.08237 | 19.72714 | 0° | 0km/h | 2608m | 0m/s | -38.1°C | 10% | 314.2hPa | 2.6V | 02:40:02 | 02:47:04 | 00:00:00 | |
| DF8AY | 2026-09-05 01:16:47 | 55.08237 | 19.72714 | 0° | 0km/h | 2608m | 0m/s | -38.4°C | 10.2% | 312.5hPa | 2.6V | 02:40:02 | 02:47:01 | 00:00:00 | |
| DB0DAN | 2026-09-05 01:16:40 | 55.08237 | 19.72714 | 0° | 0km/h | 2608m | 0m/s | -39°C | 8.1% | 308.52hPa | 2.6V | 00:00:00 | 00:00:00 | 00:00:00 | |
| DL1XH-west | 2026-09-05 01:16:40 | 55.08237 | 19.72714 | 0° | 0km/h | 2608m | 0m/s | -39°C | 11.1% | 308.5hPa | 2.6V | 02:40:02 | 02:46:54 | 00:00:00 | |
| BIOWL1-15 | 2026-09-05 01:16:39 | 55.08237 | 19.72714 | 0° | 0km/h | 2608m | 0m/s | -39.9°C | 11.8% | 303.9hPa | 2.5V | 02:40:53 | 02:46:46 | 00:00:00 | |
| DF8AY | 2026-09-05 01:16:37 | 55.08237 | 19.72714 | 0° | 0km/h | 2608m | 0m/s | -39.4°C | 11.4% | 306.7hPa | 2.5V | 02:40:02 | 02:46:51 | 00:00:00 | |
| AA1-15 | 2026-09-05 01:16:30 | 55.08237 | 19.72714 | 0° | 0km/h | 2608m | 0m/s | -40.2°C | 11.9% | 302.6hPa | 2.6V | 02:40:02 | 02:46:44 | 00:00:00 | |
| DL1XH-west | 2026-09-05 01:16:29 | 55.08237 | 19.72714 | 0° | 0km/h | 2608m | 0m/s | -40.3°C | 12% | 301.9hPa | 2.6V | 02:40:02 | 02:46:43 | 00:00:00 | |
| BIOWL1-15 | 2026-09-05 01:16:28 | 55.08237 | 19.72714 | 0° | 0km/h | 2608m | 0m/s | -40.4°C | 12.1% | 301.3hPa | 2.5V | 02:40:53 | 02:46:42 | 00:00:00 | |
| DF8AY | 2026-09-05 01:16:26 | 55.08237 | 19.72714 | 0° | 0km/h | 2608m | 0m/s | -40.7°C | 12.4% | 299.9hPa | 2.6V | 02:40:02 | 02:46:40 | 00:00:00 | |
| DB0DAN | 2026-09-05 01:16:25 | 55.08237 | 19.72714 | 0° | 0km/h | 2608m | 0m/s | -40.8°C | 9.1% | 299.24hPa | 2.6V | 00:00:00 | 00:00:00 | 00:00:00 | |
| DL1XH-west | 2026-09-05 01:16:19 | 55.08237 | 19.72714 | 0° | 0km/h | 2608m | 0m/s | -41.5°C | 13.1% | 295.2hPa | 2.6V | 02:40:53 | 02:46:33 | 00:00:00 | |
| BIOWL1-15 | 2026-09-05 01:16:17 | 55.08237 | 19.72714 | 0° | 0km/h | 2608m | 0m/s | -41.8°C | 13.3% | 294hPa | 2.5V | 02:40:53 | 02:46:31 | 00:00:00 | |
| DF8AY | 2026-09-05 01:16:15 | 55.08237 | 19.72714 | 0° | 0km/h | 2608m | 0m/s | -42°C | 13.6% | 292.7hPa | 2.6V | 02:40:53 | 02:46:29 | 00:00:00 | |
| DB0DAN | 2026-09-05 01:16:10 | 55.08237 | 19.72714 | 0° | 0km/h | 2608m | 0m/s | -42.5°C | 10% | 289.34hPa | 2.6V | 00:00:00 | 00:00:00 | 00:00:00 | |
| DL1XH-west | 2026-09-05 01:16:09 | 55.08237 | 19.72714 | 0° | 0km/h | 2608m | 0m/s | -42.6°C | 13.8% | 288.7hPa | 2.5V | 02:40:53 | 02:46:23 | 00:00:00 | |
| AA1-15 | 2026-09-05 01:16:08 | 55.08237 | 19.72714 | 0° | 0km/h | 2608m | 0m/s | -42.7°C | 13.8% | 288.1hPa | 2.5V | 02:40:53 | 02:46:22 | 00:00:00 | |
| BIOWL1-15 | 2026-09-05 01:16:06 | 55.08237 | 19.72714 | 0° | 0km/h | 2608m | 0m/s | -43°C | 13.9% | 286.8hPa | 2.6V | 02:40:53 | 02:46:20 | 00:00:00 | |
| DF8AY | 2026-09-05 01:16:05 | 55.08237 | 19.72714 | 0° | 0km/h | 2608m | 0m/s | -43.1°C | 13.7% | 286.1hPa | 2.6V | 02:40:53 | 02:46:19 | 00:00:00 | |
| DL1XH-west | 2026-09-05 01:15:58 | 55.08237 | 19.72714 | 0° | 0km/h | 2608m | 0m/s | -43.8°C | 13.5% | 281.8hPa | 2.6V | 02:40:53 | 02:46:12 | 00:00:00 | |
| DB0DAN | 2026-09-05 01:15:55 | 55.08237 | 19.72714 | 0° | 0km/h | 2608m | 0m/s | -44°C | 10% | 280.13hPa | 2.5V | 00:00:00 | 00:00:00 | 00:00:00 | |
| BIOWL1-15 | 2026-09-05 01:15:55 | 55.08237 | 19.72714 | 0° | 0km/h | 2608m | 0m/s | -44°C | 13.6% | 280.1hPa | 2.5V | 02:40:53 | 02:46:09 | 00:00:00 | |
| DL1XH-west | 2026-09-05 01:15:48 | 55.08237 | 19.72714 | 0° | 0km/h | 2608m | 0m/s | -44.5°C | 14% | 275.9hPa | 2.6V | 02:40:53 | 02:46:02 | 00:00:00 | |
| BIOWL1-15 | 2026-09-05 01:15:45 | 55.08237 | 19.72714 | 0° | 0km/h | 2608m | 0m/s | -44.8°C | 13.7% | 274.1hPa | 2.5V | 02:40:53 | 02:45:59 | 00:00:00 | |
| DF8AY | 2026-09-05 01:15:44 | 55.08237 | 19.72714 | 0° | 0km/h | 2608m | 0m/s | -44.9°C | 13.6% | 273.6hPa | 2.5V | 02:40:53 | 02:45:58 | 00:00:00 | |
| DB0DAN | 2026-09-05 01:15:40 | 55.08237 | 19.72714 | 0° | 0km/h | 2608m | 0m/s | -45°C | 9.7% | 271.09hPa | 2.5V | 00:00:00 | 00:00:00 | 00:00:00 | |
| DL1XH-west | 2026-09-05 01:15:37 | 55.08237 | 19.72714 | 0° | 0km/h | 2608m | 0m/s | -45.3°C | 13.5% | 269.5hPa | 2.6V | 02:40:53 | 02:45:51 | 00:00:00 | |
| DF8AY | 2026-09-05 01:15:33 | 55.08237 | 19.72714 | 0° | 0km/h | 2608m | 0m/s | -45.6°C | 13.5% | 267.3hPa | 2.5V | 02:40:53 | 02:45:47 | 00:00:00 | |
| DL1XH-west | 2026-09-05 01:15:27 | 55.08237 | 19.72714 | 0° | 0km/h | 2608m | 0m/s | -46.1°C | 13.7% | 263.8hPa | 2.5V | 02:41:44 | 02:45:41 | 00:00:00 | |
| DB0DAN | 2026-09-05 01:15:25 | 55.08237 | 19.72714 | 0° | 0km/h | 2608m | 0m/s | -46.3°C | 9.9% | 262.62hPa | 2.6V | 00:00:00 | 00:00:00 | 00:00:00 | |
| DF8AY | 2026-09-05 01:15:23 | 55.08237 | 19.72714 | 0° | 0km/h | 2608m | 0m/s | -46.5°C | 13.7% | 261.4hPa | 2.5V | 02:41:44 | 02:45:37 | 00:00:00 | |
| BIOWL1-15 | 2026-09-05 01:15:22 | 55.08237 | 19.72714 | 0° | 0km/h | 2608m | 0m/s | -46.6°C | 13.7% | 260.9hPa | 2.5V | 02:41:44 | 02:45:36 | 00:00:00 | |
| DL1XH-west | 2026-09-05 01:15:17 | 55.08237 | 19.72714 | 0° | 0km/h | 2608m | 0m/s | -47.1°C | 13.7% | 257.9hPa | 2.5V | 02:41:44 | 02:45:31 | 00:00:00 | |
| AA1-15 | 2026-09-05 01:15:17 | 55.08237 | 19.72714 | 0° | 0km/h | 2608m | 0m/s | -47.2°C | 13.7% | 257.3hPa | 2.5V | 02:41:44 | 02:45:30 | 00:00:00 | |
| BIOWL1-15 | 2026-09-05 01:15:13 | 55.08237 | 19.72714 | 0° | 0km/h | 2608m | 0m/s | -47°C | 13.5% | 254.4hPa | 2.5V | 02:41:44 | 02:45:25 | 00:00:00 | |
| DF8AY | 2026-09-05 01:15:12 | 55.08237 | 19.72714 | 0° | 0km/h | 2608m | 0m/s | -47°C | 13.5% | 255.1hPa | 2.5V | 02:41:44 | 02:45:26 | 00:00:00 | |
| DL1XH-west | 2026-09-05 01:15:06 | 55.08237 | 19.72714 | 0° | 0km/h | 2608m | 0m/s | -47.4°C | 13.7% | 251.5hPa | 2.5V | 02:41:44 | 02:45:20 | 00:00:00 | |
| BIOWL1-15 | 2026-09-05 01:15:03 | 55.08237 | 19.72714 | 0° | 0km/h | 2608m | 0m/s | -47.9°C | 13.8% | 248.5hPa | 2.5V | 02:41:44 | 02:45:15 | 00:00:00 | |
| DF8AY | 2026-09-05 01:15:02 | 55.08237 | 19.72714 | 0° | 0km/h | 2608m | 0m/s | -47.8°C | 13.8% | 249.1hPa | 2.6V | 02:41:44 | 02:45:16 | 00:00:00 | |
| DL1XH-west | 2026-09-05 01:14:56 | 55.08237 | 19.72714 | 0° | 0km/h | 2608m | 0m/s | -48.4°C | 13.6% | 245.7hPa | 2.6V | 02:41:44 | 02:45:10 | 00:00:00 | |
| AA1-15 | 2026-09-05 01:14:55 | 55.08237 | 19.72714 | 0° | 0km/h | 2608m | 0m/s | -48.4°C | 13.7% | 245.1hPa | 2.5V | 02:41:44 | 02:45:09 | 00:00:00 | |
| DB0DAN | 2026-09-05 01:14:55 | 55.08237 | 19.72714 | 0° | 0km/h | 2608m | 0m/s | -48.4°C | 9.8% | 245.11hPa | 2.5V | 00:00:00 | 00:00:00 | 00:00:00 | |
| DF8AY | 2026-09-05 01:14:52 | 55.08237 | 19.72714 | 0° | 0km/h | 2608m | 0m/s | -49°C | 13.4% | 240.5hPa | 2.5V | 02:41:44 | 02:45:01 | 00:00:00 | |
| BIOWL1-15 | 2026-09-05 01:14:50 | 55.08237 | 19.72714 | 0° | 0km/h | 2608m | 0m/s | -48.8°C | 13.4% | 242.1hPa | 2.6V | 02:41:44 | 02:45:04 | 00:00:00 | |
| DL1XH-west | 2026-09-05 01:14:46 | 55.08237 | 19.72714 | 0° | 0km/h | 2608m | 0m/s | -49.1°C | 13.4% | 239.9hPa | 2.6V | 02:41:44 | 02:45:00 | 00:00:00 | |
| AA1-15 | 2026-09-05 01:14:44 | 55.08237 | 19.72714 | 0° | 0km/h | 2608m | 0m/s | -49.3°C | 13.5% | 238.8hPa | 2.5V | 02:41:44 | 02:44:58 | 00:00:00 | |
| DF8AY | 2026-09-05 01:14:41 | 55.08237 | 19.72714 | 0° | 0km/h | 2608m | 0m/s | -49.6°C | 13.4% | 237.2hPa | 2.6V | 02:41:44 | 02:44:55 | 00:00:00 | |
| DB0DAN | 2026-09-05 01:14:40 | 55.08237 | 19.72714 | 0° | 0km/h | 2608m | 0m/s | -49.7°C | 9.7% | 236.64hPa | 2.6V | 00:00:00 | 00:00:00 | 00:00:00 | |
| BIOWL1-15 | 2026-09-05 01:14:39 | 55.08237 | 19.72714 | 0° | 0km/h | 2608m | 0m/s | -49.7°C | 13.5% | 236.1hPa | 2.6V | 02:43:26 | 02:44:53 | 00:00:00 | |
| DL1XH-west | 2026-09-05 01:14:35 | 55.08237 | 19.72714 | 0° | 0km/h | 2608m | 0m/s | -49.8°C | 13.7% | 234hPa | 2.6V | 02:42:35 | 02:44:49 | 00:00:00 | |
| AA1-15 | 2026-09-05 01:14:34 | 55.08237 | 19.72714 | 0° | 0km/h | 2608m | 0m/s | -49.8°C | 13.8% | 233.5hPa | 2.6V | 02:42:35 | 02:44:48 | 00:00:00 | |
| DF8AY | 2026-09-05 01:14:31 | 55.08237 | 19.72714 | 0° | 0km/h | 2608m | 0m/s | -50°C | 14.1% | 231.4hPa | 2.5V | 02:42:35 | 02:44:44 | 00:00:00 | |
| BIOWL1-15 | 2026-09-05 01:14:28 | 55.08237 | 19.72714 | 0° | 0km/h | 2608m | 0m/s | -50.1°C | 14.2% | 230.5hPa | 2.6V | 02:43:26 | 02:44:42 | 00:00:00 | |
| DB0DAN | 2026-09-05 01:14:25 | 55.08237 | 19.72714 | 0° | 0km/h | 2608m | 0m/s | -50.5°C | 10.3% | 228.92hPa | 2.5V | 00:00:00 | 00:00:00 | 00:00:00 | |
| DL1XH-west | 2026-09-05 01:14:25 | 55.08237 | 19.72714 | 0° | 0km/h | 2608m | 0m/s | -50.5°C | 14.5% | 228.9hPa | 2.5V | 02:42:35 | 02:44:39 | 00:00:00 | |
| AA1-15 | 2026-09-05 01:14:24 | 55.08237 | 19.72714 | 0° | 0km/h | 2608m | 0m/s | -50.7°C | 14.5% | 228.3hPa | 2.6V | 02:42:35 | 02:44:38 | 00:00:00 | |
| DF8AY | 2026-09-05 01:14:19 | 55.08237 | 19.72714 | 0° | 0km/h | 2608m | 0m/s | -51.1°C | 14.8% | 225.9hPa | 2.5V | 02:42:35 | 02:44:33 | 00:00:00 | |
| DL1XH-west | 2026-09-05 01:14:14 | 55.08237 | 19.72714 | 0° | 0km/h | 2608m | 0m/s | -51.4°C | 14.8% | 223.5hPa | 2.5V | 02:42:35 | 02:44:28 | 00:00:00 | |
| AA1-15 | 2026-09-05 01:14:13 | 55.08237 | 19.72714 | 0° | 0km/h | 2608m | 0m/s | -51.5°C | 14.8% | 223hPa | 2.5V | 02:42:35 | 02:44:27 | 00:00:00 | |
| DB0DAN | 2026-09-05 01:14:10 | 55.08237 | 19.72714 | 0° | 0km/h | 2608m | 0m/s | -51.5°C | 10.6% | 221.55hPa | 2.5V | 00:00:00 | 00:00:00 | 00:00:00 | |
| DF8AY | 2026-09-05 01:14:09 | 55.08237 | 19.72714 | 0° | 0km/h | 2608m | 0m/s | -51.6°C | 14.6% | 221.1hPa | 2.5V | 02:42:35 | 02:44:23 | 00:00:00 | |
| BIOWL1-15 | 2026-09-05 01:14:06 | 55.08237 | 19.72714 | 0° | 0km/h | 2608m | 0m/s | -51.7°C | 14.5% | 219.7hPa | 2.5V | 02:43:26 | 02:44:20 | 00:00:00 | |
| DL1XH-west | 2026-09-05 01:14:04 | 55.08237 | 19.72714 | 0° | 0km/h | 2608m | 0m/s | -52°C | 14.4% | 218.8hPa | 2.5V | 02:42:35 | 02:44:18 | 00:00:00 | |
| AA1-15 | 2026-09-05 01:14:03 | 55.08237 | 19.72714 | 0° | 0km/h | 2608m | 0m/s | -52.1°C | 14.4% | 218.3hPa | 2.6V | 02:42:35 | 02:44:17 | 00:00:00 | |
| DF8AY | 2026-09-05 01:13:59 | 55.08237 | 19.72714 | 0° | 0km/h | 2608m | 0m/s | -52.4°C | 14.2% | 216.5hPa | 2.5V | 02:42:35 | 02:44:13 | 00:00:00 | |
| BIOWL1-15 | 2026-09-05 01:13:56 | 55.08237 | 19.72714 | 0° | 0km/h | 2608m | 0m/s | -52.5°C | 13.6% | 215.3hPa | 2.6V | 02:43:26 | 02:44:10 | 00:00:00 | |
| AA1-15 | 2026-09-05 01:13:53 | 55.08237 | 19.72714 | 0° | 0km/h | 2608m | 0m/s | -52.7°C | 13% | 213.7hPa | 2.5V | 02:42:35 | 02:44:07 | 00:00:00 | |
| DF8AY | 2026-09-05 01:13:48 | 55.08237 | 19.72714 | 0° | 0km/h | 2608m | 0m/s | -52.4°C | 11.6% | 211.3hPa | 2.5V | 02:43:26 | 02:44:02 | 00:00:00 | |
| BIOWL1-15 | 2026-09-05 01:13:47 | 55.08237 | 19.72714 | 0° | 0km/h | 2608m | 0m/s | -52.1°C | 11% | 209.9hPa | 2.6V | 02:43:26 | 02:43:59 | 00:00:00 | |
| DL1XH-west | 2026-09-05 01:13:42 | 55.08237 | 19.72714 | 0° | 0km/h | 2608m | 0m/s | -52.1°C | 10.4% | 208.7hPa | 2.5V | 02:43:26 | 02:43:56 | 00:00:00 | |
| BIOWL1-15 | 2026-09-05 01:13:35 | 55.08237 | 19.72714 | 0° | 0km/h | 2608m | 0m/s | -52.3°C | 8.5% | 205.3hPa | 2.6V | 02:43:26 | 02:43:47 | 00:00:00 | |
| DL1XH-west | 2026-09-05 01:13:32 | 55.08237 | 19.72714 | 0° | 0km/h | 2608m | 0m/s | -52.2°C | 8.2% | 204.9hPa | 2.5V | 02:43:26 | 02:43:46 | 00:00:00 | |
| AA1-15 | 2026-09-05 01:13:31 | 55.08237 | 19.72714 | 0° | 0km/h | 2608m | 0m/s | -52.2°C | 7.9% | 204.4hPa | 2.5V | 02:43:26 | 02:43:45 | 00:00:00 | |
| DF8AY | 2026-09-05 01:13:23 | 55.08237 | 19.72714 | 0° | 0km/h | 2608m | 0m/s | -52.6°C | 6.1% | 201.1hPa | 2.6V | 02:43:26 | 02:43:37 | 00:00:00 | |
| DL1XH-west | 2026-09-05 01:13:21 | 55.08237 | 19.72714 | 0° | 0km/h | 2608m | 0m/s | -52.8°C | 5.6% | 200.2hPa | 2.5V | 02:43:26 | 02:43:35 | 00:00:00 | |
| DF8AY | 2026-09-05 01:13:13 | 55.08237 | 19.72714 | 0° | 0km/h | 2608m | 0m/s | -53.1°C | 3.7% | 197.1hPa | 2.6V | 02:43:26 | 02:43:27 | 00:00:00 | |
| BIOWL1-15 | 2026-09-05 01:13:12 | 55.08237 | 19.72714 | 0° | 0km/h | 2608m | 0m/s | -53.1°C | 3.5% | 196.6hPa | 2.6V | 02:43:26 | 02:43:26 | 00:00:00 | |
| DL1XH-west | 2026-09-05 01:13:11 | 55.08237 | 19.72714 | 0° | 0km/h | 2608m | 0m/s | -53.1°C | 3.3% | 196.2hPa | 2.5V | 02:43:26 | 02:43:25 | 00:00:00 | |
| DF8AY | 2026-09-05 01:13:03 | 55.08237 | 19.72714 | 0° | 0km/h | 2608m | 0m/s | -52.7°C | 1.5% | 193.1hPa | 2.6V | 02:43:26 | 02:43:17 | 00:00:00 | |
| AA1-15 | 2026-09-05 01:13:01 | 55.08237 | 19.72714 | 0° | 0km/h | 2608m | 0m/s | -52.7°C | 1.4% | 192.3hPa | 2.5V | 02:43:26 | 02:43:15 | 00:00:00 | |
| DL1XH-west | 2026-09-05 01:13:00 | 55.08237 | 19.72714 | 0° | 0km/h | 2608m | 0m/s | -52.8°C | 1.3% | 191.9hPa | 2.5V | 02:43:26 | 02:43:14 | 00:00:00 | |
| DB0DAN | 2026-09-05 01:12:55 | 55.08237 | 19.72714 | 0° | 0km/h | 2608m | 0m/s | -52°C | 1.7% | 189.94hPa | 2.5V | 00:00:00 | 00:00:00 | 00:00:00 | |
| DF8AY | 2026-09-05 01:12:53 | 55.08237 | 19.72714 | 0° | 0km/h | 2608m | 0m/s | -51.6°C | 0.7% | 189.2hPa | 2.5V | 02:44:17 | 02:43:07 | 00:00:00 | |
| BIOWL1-15 | 2026-09-05 01:12:53 | 55.08237 | 19.72714 | 0° | 0km/h | 2608m | 0m/s | -51.6°C | 0.8% | 188.4hPa | 2.6V | 02:44:17 | 02:43:05 | 00:00:00 | |
| DL1XH-west | 2026-09-05 01:12:50 | 55.08237 | 19.72714 | 0° | 0km/h | 2608m | 0m/s | -51.6°C | 0.8% | 187.9hPa | 2.5V | 02:44:17 | 02:43:04 | 00:00:00 | |
| DF8AY | 2026-09-05 01:12:42 | 55.08237 | 19.72714 | 0° | 0km/h | 2608m | 0m/s | -51.7°C | 0.6% | 184.8hPa | 2.6V | 02:44:17 | 02:42:56 | 00:00:00 | |
| BIOWL1-15 | 2026-09-05 01:12:41 | 55.08237 | 19.72714 | 0° | 0km/h | 2608m | 0m/s | -51.8°C | 0.8% | 184.3hPa | 2.6V | 02:44:17 | 02:42:55 | 00:00:00 | |
| DB0DAN | 2026-09-05 01:12:40 | 55.08237 | 19.72714 | 0° | 0km/h | 2608m | 0m/s | -51.9°C | 1.6% | 183.87hPa | 2.5V | 00:00:00 | 00:00:00 | 00:00:00 | |
| DL1XH-west | 2026-09-05 01:12:39 | 55.08237 | 19.72714 | 0° | 0km/h | 2608m | 0m/s | -51.8°C | 0.6% | 183.4hPa | 2.5V | 02:44:17 | 02:42:53 | 00:00:00 | |
| DF8AY | 2026-09-05 01:12:31 | 55.08237 | 19.72714 | 0° | 0km/h | 2608m | 0m/s | -51.2°C | 0.3% | 180hPa | 2.6V | 02:44:17 | 02:42:45 | 00:00:00 | |
| BIOWL1-15 | 2026-09-05 01:12:30 | 55.08237 | 19.72714 | 0° | 0km/h | 2608m | 0m/s | -51.1°C | 0.3% | 179.7hPa | 2.6V | 02:44:17 | 02:42:44 | 00:00:00 | |
| DL1XH-west | 2026-09-05 01:12:29 | 55.08237 | 19.72714 | 0° | 0km/h | 2608m | 0m/s | -51°C | 0.3% | 179.2hPa | 2.5V | 02:44:17 | 02:42:43 | 00:00:00 | |
| AA1-15 | 2026-09-05 01:12:28 | 55.08237 | 19.72714 | 0° | 0km/h | 2608m | 0m/s | -51°C | 0.3% | 178.9hPa | 2.5V | 02:44:17 | 02:42:42 | 00:00:00 | |
| DB0DAN | 2026-09-05 01:12:25 | 55.08237 | 19.72714 | 0° | 0km/h | 2608m | 0m/s | -50.7°C | 1.3% | 177.73hPa | 2.5V | 00:00:00 | 00:00:00 | 00:00:00 | |
| DF8AY | 2026-09-05 01:12:20 | 55.08237 | 19.72714 | 0° | 0km/h | 2608m | 0m/s | -50.6°C | 0.2% | 176hPa | 2.6V | 02:44:17 | 02:42:34 | 00:00:00 | |
| DL1XH-west | 2026-09-05 01:12:19 | 55.08237 | 19.72714 | 0° | 0km/h | 2608m | 0m/s | -50.5°C | 0.1% | 175.6hPa | 2.5V | 02:44:17 | 02:42:33 | 00:00:00 | |
| AA1-15 | 2026-09-05 01:12:18 | 55.08237 | 19.72714 | 0° | 0km/h | 2608m | 0m/s | -50.3°C | 0.2% | 175.3hPa | 2.5V | 02:44:17 | 02:42:32 | 00:00:00 | |
| DB0DAN | 2026-09-05 01:12:10 | 55.08237 | 19.72714 | 0° | 0km/h | 2608m | 0m/s | -49.9°C | 1.2% | 172.51hPa | 2.6V | 00:00:00 | 00:00:00 | 00:00:00 | |
| DL1XH-west | 2026-09-05 01:12:09 | 55.08237 | 19.72714 | 0° | 0km/h | 2608m | 0m/s | -49.7°C | 0.1% | 172.2hPa | 2.6V | 02:44:17 | 02:42:23 | 00:00:00 | |
| AA1-15 | 2026-09-05 01:12:08 | 55.08237 | 19.72714 | 0° | 0km/h | 2608m | 0m/s | -49.7°C | 0.1% | 171.9hPa | 2.5V | 02:44:17 | 02:42:22 | 00:00:00 | |
| DF8AY | 2026-09-05 01:11:59 | 55.08237 | 19.72714 | 0° | 0km/h | 2608m | 0m/s | -49.9°C | 0.2% | 168.5hPa | 2.6V | 02:45:08 | 02:42:13 | 00:00:00 | |
| DL1XH-west | 2026-09-05 01:11:58 | 55.08237 | 19.72714 | 0° | 0km/h | 2608m | 0m/s | -49.9°C | 0.1% | 168.2hPa | 2.5V | 02:45:08 | 02:42:12 | 00:00:00 | |
| AA1-15 | 2026-09-05 01:11:58 | 55.08237 | 19.72714 | 0° | 0km/h | 2608m | 0m/s | -50°C | 0.1% | 167.8hPa | 2.5V | 02:45:08 | 02:42:11 | 00:00:00 | |
| DB0DAN | 2026-09-05 01:11:55 | 55.08237 | 19.72714 | 0° | 0km/h | 2608m | 0m/s | -50.1°C | 1.2% | 167.11hPa | 2.6V | 00:00:00 | 00:00:00 | 00:00:00 | |
| DL1XH-west | 2026-09-05 01:11:48 | 55.08237 | 19.72714 | 0° | 0km/h | 2608m | 0m/s | -50.1°C | 0.2% | 165.3hPa | 2.6V | 02:45:08 | 02:42:02 | 00:00:00 | |
| BIOWL1-15 | 2026-09-05 01:11:47 | 55.08237 | 19.72714 | 0° | 0km/h | 2608m | 0m/s | -50°C | 0.1% | 165.1hPa | 2.5V | 02:45:08 | 02:42:01 | 00:00:00 | |
| AA1-15 | 2026-09-05 01:11:46 | 55.08237 | 19.72714 | 0° | 0km/h | 2608m | 0m/s | -49.8°C | 0% | 164.9hPa | 2.5V | 02:45:08 | 02:42:00 | 00:00:00 | |
| DL1XH-west | 2026-09-05 01:11:38 | 55.08237 | 19.72714 | 0° | 0km/h | 2608m | 0m/s | -49.1°C | 0% | 162.8hPa | 2.6V | 02:45:08 | 02:41:52 | 00:00:00 | |
| DF8AY | 2026-09-05 01:11:37 | 55.08237 | 19.72714 | 0° | 0km/h | 2608m | 0m/s | -49.2°C | 0% | 162.6hPa | 2.5V | 02:45:08 | 02:41:51 | 00:00:00 | |
| AA1-15 | 2026-09-05 01:11:35 | 55.08237 | 19.72714 | 0° | 0km/h | 2608m | 0m/s | -49.4°C | 0% | 162hPa | 2.5V | 02:45:08 | 02:41:49 | 00:00:00 | |
| BIOWL1-15 | 2026-09-05 01:11:28 | 55.08237 | 19.72714 | 0° | 0km/h | 2608m | 0m/s | -50.3°C | 0% | 159.8hPa | 2.5V | 02:45:08 | 02:41:40 | 00:00:00 | |
| DL1XH-west | 2026-09-05 01:11:27 | 55.08237 | 19.72714 | 0° | 0km/h | 2608m | 0m/s | -50.2°C | 0.1% | 160hPa | 2.6V | 02:45:08 | 02:41:41 | 00:00:00 | |
| DB0DAN | 2026-09-05 01:11:25 | 55.08237 | 19.72714 | 0° | 0km/h | 2608m | 0m/s | -50.3°C | 1.2% | 159.51hPa | 2.5V | 00:00:00 | 00:00:00 | 00:00:00 | |
| AA1-15 | 2026-09-05 01:11:24 | 55.08237 | 19.72714 | 0° | 0km/h | 2608m | 0m/s | -50.4°C | 0.1% | 159.3hPa | 2.6V | 02:45:08 | 02:41:38 | 00:00:00 | |
| BIOWL1-15 | 2026-09-05 01:11:17 | 55.08237 | 19.72714 | 0° | 0km/h | 2608m | 0m/s | -50.6°C | 0.1% | 155.3hPa | 2.5V | 02:45:59 | 02:41:23 | 00:00:00 | |
| DL1XH-west | 2026-09-05 01:11:17 | 55.08237 | 19.72714 | 0° | 0km/h | 2608m | 0m/s | -50.9°C | 0.1% | 157.5hPa | 2.6V | 02:45:08 | 02:41:31 | 00:00:00 | |
| AA1-15 | 2026-09-05 01:11:13 | 55.08237 | 19.72714 | 0° | 0km/h | 2608m | 0m/s | -51.1°C | 0.1% | 156.5hPa | 2.6V | 02:45:59 | 02:41:27 | 00:00:00 | |
| DB0DAN | 2026-09-05 01:11:10 | 55.08237 | 19.72714 | 0° | 0km/h | 2608m | 0m/s | -50.7°C | 1.2% | 155.64hPa | 2.5V | 00:00:00 | 00:00:00 | 00:00:00 | |
| DL1XH-west | 2026-09-05 01:11:06 | 55.08237 | 19.72714 | 0° | 0km/h | 2608m | 0m/s | -50.6°C | 0% | 154.5hPa | 2.6V | 02:45:59 | 02:41:20 | 00:00:00 | |
| BIOWL1-15 | 2026-09-05 01:11:02 | 55.08237 | 19.72714 | 0° | 0km/h | 2608m | 0m/s | -51°C | 0.1% | 153.6hPa | 2.6V | 02:45:59 | 02:41:16 | 00:00:00 | |
| DL1XH-west | 2026-09-05 01:10:56 | 55.08237 | 19.72714 | 0° | 0km/h | 2608m | 0m/s | -51°C | 0.1% | 152hPa | 2.6V | 02:45:59 | 02:41:10 | 00:00:00 | |
| DF8AY | 2026-09-05 01:10:55 | 55.08237 | 19.72714 | 0° | 0km/h | 2608m | 0m/s | -51°C | 0.1% | 151.7hPa | 2.5V | 02:45:59 | 02:41:09 | 00:00:00 | |
| DB0DAN | 2026-09-05 01:10:55 | 55.08237 | 19.72714 | 0° | 0km/h | 2608m | 0m/s | -51°C | 1.2% | 151.73hPa | 2.5V | 00:00:00 | 00:00:00 | 00:00:00 | |
| BIOWL1-15 | 2026-09-05 01:10:53 | 55.08237 | 19.72714 | 0° | 0km/h | 2608m | 0m/s | -51°C | 0.1% | 150.7hPa | 2.6V | 02:45:59 | 02:41:05 | 00:00:00 | |
| AA1-15 | 2026-09-05 01:10:52 | 55.08237 | 19.72714 | 0° | 0km/h | 2608m | 0m/s | -51.1°C | 0.1% | 151hPa | 2.6V | 02:45:59 | 02:41:06 | 00:00:00 | |
| DL1XH-west | 2026-09-05 01:10:45 | 55.08237 | 19.72714 | 0° | 0km/h | 2608m | 0m/s | -51.2°C | 0% | 149.1hPa | 2.6V | 02:45:59 | 02:40:59 | 00:00:00 | |
| DF8AY | 2026-09-05 01:10:44 | 55.08237 | 19.72714 | 0° | 0km/h | 2608m | 0m/s | -51.3°C | 0.1% | 148.8hPa | 2.5V | 02:45:59 | 02:40:58 | 00:00:00 | |
| AA1-15 | 2026-09-05 01:10:41 | 55.08237 | 19.72714 | 0° | 0km/h | 2608m | 0m/s | -51.4°C | 0.1% | 148.1hPa | 2.6V | 02:45:59 | 02:40:55 | 00:00:00 | |
| DB0DAN | 2026-09-05 01:10:40 | 55.08237 | 19.72714 | 0° | 0km/h | 2608m | 0m/s | -51.3°C | 1.2% | 147.83hPa | 2.5V | 00:00:00 | 00:00:00 | 00:00:00 | |
| BIOWL1-15 | 2026-09-05 01:10:40 | 55.08237 | 19.72714 | 0° | 0km/h | 2608m | 0m/s | -51.3°C | 0.1% | 147.8hPa | 2.5V | 02:45:59 | 02:40:54 | 00:00:00 | |
| DL1XH-west | 2026-09-05 01:10:34 | 55.08237 | 19.72714 | 0° | 0km/h | 2608m | 0m/s | -50.5°C | 0% | 146.3hPa | 2.5V | 02:45:59 | 02:40:48 | 00:00:00 | |
| AA1-15 | 2026-09-05 01:10:31 | 55.08237 | 19.72714 | 0° | 0km/h | 2608m | 0m/s | -50.8°C | 0% | 145.5hPa | 2.6V | 02:45:59 | 02:40:45 | 00:00:00 | |
| BIOWL1-15 | 2026-09-05 01:10:30 | 55.08237 | 19.72714 | 0° | 0km/h | 2608m | 0m/s | -50.9°C | 0% | 145.3hPa | 2.6V | 02:45:59 | 02:40:44 | 00:00:00 | |
| DB0DAN | 2026-09-05 01:10:25 | 55.08237 | 19.72714 | 0° | 0km/h | 2608m | 0m/s | -51.3°C | 1.1% | 144.16hPa | 2.6V | 00:00:00 | 00:00:00 | 00:00:00 | |
| DL1XH-west | 2026-09-05 01:10:23 | 55.08237 | 19.72714 | 0° | 0km/h | 2608m | 0m/s | -51.3°C | 0.1% | 143.7hPa | 2.5V | 02:46:50 | 02:40:37 | 00:00:00 | |
| AA1-15 | 2026-09-05 01:10:21 | 55.08237 | 19.72714 | 0° | 0km/h | 2608m | 0m/s | -51.3°C | 0% | 143.2hPa | 2.6V | 02:46:50 | 02:40:35 | 00:00:00 | |
| BIOWL1-15 | 2026-09-05 01:10:20 | 55.08237 | 19.72714 | 0° | 0km/h | 2608m | 0m/s | -51.4°C | 0.1% | 143hPa | 2.6V | 02:46:50 | 02:40:34 | 00:00:00 | |
| DL1XH-west | 2026-09-05 01:10:13 | 55.08237 | 19.72714 | 0° | 0km/h | 2608m | 0m/s | -51.4°C | 0.1% | 141.2hPa | 2.5V | 02:46:50 | 02:40:27 | 00:00:00 | |
| DB0DAN | 2026-09-05 01:10:10 | 55.08237 | 19.72714 | 0° | 0km/h | 2608m | 0m/s | -51.5°C | 1.1% | 140.43hPa | 2.6V | 00:00:00 | 00:00:00 | 00:00:00 | |
| AA1-15 | 2026-09-05 01:10:10 | 55.08237 | 19.72714 | 0° | 0km/h | 2608m | 0m/s | -51.5°C | 0% | 140.4hPa | 2.6V | 02:46:50 | 02:40:24 | 00:00:00 | |
| BIOWL1-15 | 2026-09-05 01:10:09 | 55.08237 | 19.72714 | 0° | 0km/h | 2608m | 0m/s | -51.5°C | 0.1% | 140.2hPa | 2.6V | 02:46:50 | 02:40:23 | 00:00:00 | |
| DL1XH-west | 2026-09-05 01:10:02 | 55.08237 | 19.72714 | 0° | 0km/h | 2608m | 0m/s | -50.9°C | 0% | 138.4hPa | 2.5V | 02:46:50 | 02:40:16 | 00:00:00 | |
| AA1-15 | 2026-09-05 01:09:59 | 55.08237 | 19.72714 | 0° | 0km/h | 2608m | 0m/s | -50.8°C | 0% | 137.7hPa | 2.6V | 02:46:50 | 02:40:13 | 00:00:00 | |
| BIOWL1-15 | 2026-09-05 01:09:58 | 55.08237 | 19.72714 | 0° | 0km/h | 2608m | 0m/s | -50.8°C | 0% | 137.4hPa | 2.5V | 02:46:50 | 02:40:12 | 00:00:00 | |
| DB0DAN | 2026-09-05 01:09:55 | 55.08237 | 19.72714 | 0° | 0km/h | 2608m | 0m/s | -50.8°C | 1% | 136.8hPa | 2.6V | 00:00:00 | 00:00:00 | 00:00:00 | |
| DF8AY | 2026-09-05 01:09:54 | 55.08237 | 19.72714 | 0° | 0km/h | 2608m | 0m/s | -50.9°C | 0% | 136.2hPa | 2.5V | 02:46:50 | 02:40:06 | 00:00:00 | |
| DL1XH-west | 2026-09-05 01:09:51 | 55.08237 | 19.72714 | 0° | 0km/h | 2608m | 0m/s | -51°C | 0% | 136hPa | 2.5V | 02:46:50 | 02:40:05 | 00:00:00 | |
| AA1-15 | 2026-09-05 01:09:49 | 55.08237 | 19.72714 | 0° | 0km/h | 2608m | 0m/s | -51.1°C | 0% | 135.5hPa | 2.6V | 02:46:50 | 02:40:03 | 00:00:00 | |
| BIOWL1-15 | 2026-09-05 01:09:48 | 55.08237 | 19.72714 | 0° | 0km/h | 2608m | 0m/s | -51.1°C | 0% | 135.3hPa | 2.6V | 02:46:50 | 02:40:02 | 00:00:00 | |
| DF8AY | 2026-09-05 01:09:43 | 55.08237 | 19.72714 | 0° | 0km/h | 2608m | 0m/s | -51.4°C | 0% | 133.8hPa | 2.6V | 02:46:50 | 02:39:56 | 00:00:00 | |
| DL1XH-west | 2026-09-05 01:09:41 | 55.08237 | 19.72714 | 0° | 0km/h | 2608m | 0m/s | -51.4°C | 0% | 133.6hPa | 2.5V | 02:46:50 | 02:39:55 | 00:00:00 | |
| BIOWL1-15 | 2026-09-05 01:09:39 | 55.08237 | 19.72714 | 0° | 0km/h | 2608m | 0m/s | -51.5°C | 0% | 132.5hPa | 2.5V | 02:46:50 | 02:39:51 | 00:00:00 | |
| AA1-15 | 2026-09-05 01:09:39 | 55.08237 | 19.72714 | 0° | 0km/h | 2608m | 0m/s | -51.4°C | 0% | 133.1hPa | 2.6V | 02:46:50 | 02:39:53 | 00:00:00 | |
| DL1XH-west | 2026-09-05 01:09:31 | 55.08237 | 19.72714 | 0° | 0km/h | 2608m | 0m/s | -51.8°C | 0% | 131.1hPa | 2.5V | 02:47:41 | 02:39:45 | 00:00:00 | |
| AA1-15 | 2026-09-05 01:09:29 | 55.08237 | 19.72714 | 0° | 0km/h | 2608m | 0m/s | -51.9°C | 0% | 130.6hPa | 2.5V | 02:47:41 | 02:39:43 | 00:00:00 | |
| BIOWL1-15 | 2026-09-05 01:09:26 | 55.08237 | 19.72714 | 0° | 0km/h | 2608m | 0m/s | -51.5°C | 0% | 129.3hPa | 2.5V | 02:47:41 | 02:39:38 | 00:00:00 | |
| DF8AY | 2026-09-05 01:09:21 | 55.08237 | 19.72714 | 0° | 0km/h | 2608m | 0m/s | -51.7°C | 0% | 128.7hPa | 2.6V | 02:47:41 | 02:39:35 | 00:00:00 | |
| DL1XH-west | 2026-09-05 01:09:20 | 55.08237 | 19.72714 | 0° | 0km/h | 2608m | 0m/s | -51.7°C | 0% | 128.3hPa | 2.5V | 02:47:41 | 02:39:34 | 00:00:00 | |
| AA1-15 | 2026-09-05 01:09:19 | 55.08237 | 19.72714 | 0° | 0km/h | 2608m | 0m/s | -51.8°C | 0% | 128.1hPa | 2.5V | 02:47:41 | 02:39:33 | 00:00:00 | |
| BIOWL1-15 | 2026-09-05 01:09:15 | 55.08237 | 19.72714 | 0° | 0km/h | 2608m | 0m/s | -52°C | 0% | 126.8hPa | 2.5V | 02:47:41 | 02:39:28 | 00:00:00 | |
| DL1XH-west | 2026-09-05 01:09:10 | 55.08237 | 19.72714 | 0° | 0km/h | 2608m | 0m/s | -51.9°C | 0% | 125.8hPa | 2.5V | 02:47:41 | 02:39:24 | 00:00:00 | |
| DB0DAN | 2026-09-05 01:09:10 | 55.08237 | 19.72714 | 0° | 0km/h | 2608m | 0m/s | -51.9°C | 1.1% | 125.83hPa | 2.5V | 00:00:00 | 00:00:00 | 00:00:00 | |
| AA1-15 | 2026-09-05 01:09:09 | 55.08237 | 19.72714 | 0° | 0km/h | 2608m | 0m/s | -51.8°C | 0% | 125.7hPa | 2.5V | 02:47:41 | 02:39:23 | 00:00:00 | |
| BIOWL1-15 | 2026-09-05 01:09:04 | 55.08237 | 19.72714 | 0° | 0km/h | 2608m | 0m/s | -52°C | 0% | 124.4hPa | 2.5V | 02:47:41 | 02:39:18 | 00:00:00 | |
| DF8AY | 2026-09-05 01:09:00 | 55.08237 | 19.72714 | 0° | 0km/h | 2608m | 0m/s | -52.3°C | 0% | 123.4hPa | 2.6V | 02:47:41 | 02:39:14 | 00:00:00 | |
| DL1XH-west | 2026-09-05 01:08:59 | 55.08237 | 19.72714 | 0° | 0km/h | 2608m | 0m/s | -52.3°C | 0.1% | 123.2hPa | 2.5V | 02:47:41 | 02:39:13 | 00:00:00 | |
| AA1-15 | 2026-09-05 01:08:58 | 55.08237 | 19.72714 | 0° | 0km/h | 2608m | 0m/s | -52.3°C | 0.1% | 123hPa | 2.5V | 02:47:41 | 02:39:12 | 00:00:00 | |
| BIOWL1-15 | 2026-09-05 01:08:56 | 55.08237 | 19.72714 | 0° | 0km/h | 2608m | 0m/s | -52.3°C | 0.1% | 122.1hPa | 2.5V | 02:47:41 | 02:39:08 | 00:00:00 | |
| DB0DAN | 2026-09-05 01:08:55 | 55.08237 | 19.72714 | 0° | 0km/h | 2608m | 0m/s | -52.2°C | 1% | 122.27hPa | 2.5V | 00:00:00 | 00:00:00 | 00:00:00 | |
| DL1XH-west | 2026-09-05 01:08:49 | 55.08237 | 19.72714 | 0° | 0km/h | 2608m | 0m/s | -52.5°C | 0.2% | 120.8hPa | 2.5V | 02:47:41 | 02:39:03 | 00:00:00 | |
| AA1-15 | 2026-09-05 01:08:47 | 55.08237 | 19.72714 | 0° | 0km/h | 2608m | 0m/s | -52.6°C | 0% | 120.4hPa | 2.6V | 02:47:41 | 02:39:01 | 00:00:00 | |
| BIOWL1-15 | 2026-09-05 01:08:46 | 55.08237 | 19.72714 | 0° | 0km/h | 2608m | 0m/s | -52.7°C | 0.1% | 119.8hPa | 2.5V | 02:47:41 | 02:38:58 | 00:00:00 | |
| DB0DAN | 2026-09-05 01:08:40 | 55.08237 | 19.72714 | 0° | 0km/h | 2608m | 0m/s | -52.8°C | 1.1% | 118.89hPa | 2.6V | 00:00:00 | 00:00:00 | 00:00:00 | |
| DF8AY | 2026-09-05 01:08:39 | 55.08237 | 19.72714 | 0° | 0km/h | 2608m | 0m/s | -52.8°C | 0.1% | 118.7hPa | 2.5V | 02:48:32 | 02:38:53 | 00:00:00 | |
| DL1XH-west | 2026-09-05 01:08:38 | 55.08237 | 19.72714 | 0° | 0km/h | 2608m | 0m/s | -52.8°C | 0.1% | 118.5hPa | 2.5V | 02:48:32 | 02:38:52 | 00:00:00 | |
| AA1-15 | 2026-09-05 01:08:37 | 55.08237 | 19.72714 | 0° | 0km/h | 2608m | 0m/s | -52.8°C | 0.2% | 118.3hPa | 2.5V | 02:48:32 | 02:38:51 | 00:00:00 | |
| BIOWL1-15 | 2026-09-05 01:08:33 | 55.08237 | 19.72714 | 0° | 0km/h | 2608m | 0m/s | -52.5°C | 0.1% | 117.3hPa | 2.5V | 02:48:32 | 02:38:47 | 00:00:00 | |
| DF8AY | 2026-09-05 01:08:29 | 55.08237 | 19.72714 | 0° | 0km/h | 2608m | 0m/s | -52.7°C | 0.1% | 116.5hPa | 2.5V | 02:48:32 | 02:38:43 | 00:00:00 | |
| DL1XH-west | 2026-09-05 01:08:28 | 55.08237 | 19.72714 | 0° | 0km/h | 2608m | 0m/s | -52.7°C | 0% | 116.3hPa | 2.5V | 02:48:32 | 02:38:42 | 00:00:00 | |
| AA1-15 | 2026-09-05 01:08:26 | 55.08237 | 19.72714 | 0° | 0km/h | 2608m | 0m/s | -52.8°C | 0.1% | 115.8hPa | 2.6V | 02:48:32 | 02:38:40 | 00:00:00 | |
| DB0DAN | 2026-09-05 01:08:25 | 55.08237 | 19.72714 | 0° | 0km/h | 2608m | 0m/s | -52.7°C | 1% | 115.63hPa | 2.6V | 00:00:00 | 00:00:00 | 00:00:00 | |
| BIOWL1-15 | 2026-09-05 01:08:22 | 55.08237 | 19.72714 | 0° | 0km/h | 2608m | 0m/s | -52.7°C | 0% | 115hPa | 2.5V | 02:48:32 | 02:38:36 | 00:00:00 | |
| DF8AY | 2026-09-05 01:08:18 | 55.08237 | 19.72714 | 0° | 0km/h | 2608m | 0m/s | -52.8°C | 0.1% | 114hPa | 2.5V | 02:48:32 | 02:38:32 | 00:00:00 | |
| DL1XH-west | 2026-09-05 01:08:18 | 55.08237 | 19.72714 | 0° | 0km/h | 2608m | 0m/s | -52.8°C | 0.1% | 113.8hPa | 2.5V | 02:48:32 | 02:38:31 | 00:00:00 | |
| AA1-15 | 2026-09-05 01:08:15 | 55.08237 | 19.72714 | 0° | 0km/h | 2608m | 0m/s | -52.9°C | 0% | 113.4hPa | 2.6V | 02:48:32 | 02:38:29 | 00:00:00 | |
| BIOWL1-15 | 2026-09-05 01:08:13 | 55.08237 | 19.72714 | 0° | 0km/h | 2608m | 0m/s | -52.7°C | 0.1% | 112.5hPa | 2.5V | 02:48:32 | 02:38:25 | 00:00:00 | |
| DB0DAN | 2026-09-05 01:08:10 | 55.08237 | 19.72714 | 0° | 0km/h | 2608m | 0m/s | -52.7°C | 0.9% | 112.38hPa | 2.5V | 00:00:00 | 00:00:00 | 00:00:00 | |
| DL1XH-west | 2026-09-05 01:08:07 | 55.08237 | 19.72714 | 0° | 0km/h | 2608m | 0m/s | -52.6°C | 0.1% | 111.7hPa | 2.5V | 02:48:32 | 02:38:21 | 00:00:00 | |
| AA1-15 | 2026-09-05 01:08:04 | 55.08237 | 19.72714 | 0° | 0km/h | 2608m | 0m/s | -52.2°C | 0% | 111hPa | 2.6V | 02:48:32 | 02:38:18 | 00:00:00 | |
| BIOWL1-15 | 2026-09-05 01:08:03 | 55.08237 | 19.72714 | 0° | 0km/h | 2608m | 0m/s | -52.1°C | 0% | 110.4hPa | 2.5V | 02:48:32 | 02:38:15 | 00:00:00 | |
| DL1XH-west | 2026-09-05 01:07:56 | 55.08237 | 19.72714 | 0° | 0km/h | 2608m | 0m/s | -52.1°C | 0.1% | 109.4hPa | 2.5V | 02:48:32 | 02:38:10 | 00:00:00 | |
| DB0DAN | 2026-09-05 01:07:55 | 55.08237 | 19.72714 | 0° | 0km/h | 2608m | 0m/s | -52.1°C | 0.9% | 109.18hPa | 2.5V | 00:00:00 | 00:00:00 | 00:00:00 | |
| AA1-15 | 2026-09-05 01:07:54 | 55.08237 | 19.72714 | 0° | 0km/h | 2608m | 0m/s | -52.1°C | 0% | 109hPa | 2.6V | 02:48:32 | 02:38:08 | 00:00:00 | |
| BIOWL1-15 | 2026-09-05 01:07:50 | 55.08237 | 19.72714 | 0° | 0km/h | 2608m | 0m/s | -51.6°C | 0% | 108.1hPa | 2.5V | 02:49:23 | 02:38:03 | 00:00:00 | |
| DL1XH-west | 2026-09-05 01:07:46 | 55.08237 | 19.72714 | 0° | 0km/h | 2608m | 0m/s | -51.3°C | 0% | 107.5hPa | 2.6V | 02:49:23 | 02:38:00 | 00:00:00 | |
| DF8AY | 2026-09-05 01:07:45 | 55.08237 | 19.72714 | 0° | 0km/h | 2608m | 0m/s | -51.2°C | 0% | 107.3hPa | 2.5V | 02:49:23 | 02:37:59 | 00:00:00 | |
| AA1-15 | 2026-09-05 01:07:43 | 55.08237 | 19.72714 | 0° | 0km/h | 2608m | 0m/s | -51.2°C | 0% | 106.8hPa | 2.5V | 02:49:23 | 02:37:57 | 00:00:00 | |
| DB0DAN | 2026-09-05 01:07:40 | 55.08237 | 19.72714 | 0° | 0km/h | 2608m | 0m/s | -51.2°C | 0.9% | 106.21hPa | 2.5V | 00:00:00 | 00:00:00 | 00:00:00 | |
| BIOWL1-15 | 2026-09-05 01:07:39 | 55.08237 | 19.72714 | 0° | 0km/h | 2608m | 0m/s | -50.9°C | 0% | 105.8hPa | 2.6V | 02:49:23 | 02:37:52 | 00:00:00 | |
| DL1XH-west | 2026-09-05 01:07:36 | 55.08237 | 19.72714 | 0° | 0km/h | 2608m | 0m/s | -50.7°C | 0% | 105.4hPa | 2.5V | 02:49:23 | 02:37:50 | 00:00:00 | |
| DF8AY | 2026-09-05 01:07:34 | 55.08237 | 19.72714 | 0° | 0km/h | 2608m | 0m/s | -50.7°C | 0% | 105hPa | 2.6V | 02:49:23 | 02:37:48 | 00:00:00 | |
| AA1-15 | 2026-09-05 01:07:32 | 55.08237 | 19.72714 | 0° | 0km/h | 2608m | 0m/s | -50.7°C | 0% | 104.5hPa | 2.5V | 02:49:23 | 02:37:46 | 00:00:00 | |
| BIOWL1-15 | 2026-09-05 01:07:28 | 55.08237 | 19.72714 | 0° | 0km/h | 2608m | 0m/s | -51°C | 0% | 103.7hPa | 2.6V | 02:49:23 | 02:37:42 | 00:00:00 | |
| DL1XH-west | 2026-09-05 01:07:25 | 55.08237 | 19.72714 | 0° | 0km/h | 2608m | 0m/s | -51.2°C | 0% | 103.1hPa | 2.5V | 02:49:23 | 02:37:39 | 00:00:00 | |
| DB0DAN | 2026-09-05 01:07:25 | 55.08237 | 19.72714 | 0° | 0km/h | 2608m | 0m/s | -51.2°C | 0.9% | 103.06hPa | 2.5V | 00:00:00 | 00:00:00 | 00:00:00 | |
| DF8AY | 2026-09-05 01:07:23 | 55.08237 | 19.72714 | 0° | 0km/h | 2608m | 0m/s | -51.4°C | 0% | 102.6hPa | 2.6V | 02:49:23 | 02:37:37 | 00:00:00 | |
| AA1-15 | 2026-09-05 01:07:22 | 55.08237 | 19.72714 | 0° | 0km/h | 2608m | 0m/s | -51.4°C | 0% | 102.5hPa | 2.6V | 02:49:23 | 02:37:36 | 00:00:00 | |
| BIOWL1-15 | 2026-09-05 01:07:20 | 55.08237 | 19.72714 | 0° | 0km/h | 2608m | 0m/s | -51.7°C | 0% | 101.8hPa | 2.5V | 02:49:23 | 02:37:32 | 00:00:00 | |
| DL1XH-west | 2026-09-05 01:07:14 | 55.08237 | 19.72714 | 0° | 0km/h | 2608m | 0m/s | -51.7°C | 0% | 101hPa | 2.5V | 02:49:23 | 02:37:28 | 00:00:00 | |
| DF8AY | 2026-09-05 01:07:13 | 55.08237 | 19.72714 | 0° | 0km/h | 2608m | 0m/s | -51.7°C | 0% | 100.9hPa | 2.5V | 02:49:23 | 02:37:27 | 00:00:00 | |
| AA1-15 | 2026-09-05 01:07:12 | 55.08237 | 19.72714 | 0° | 0km/h | 2608m | 0m/s | -51.7°C | 0% | 100.8hPa | 2.5V | 02:49:23 | 02:37:26 | 00:00:00 | |
| DB0DAN | 2026-09-05 01:07:10 | 55.08237 | 19.72714 | 0° | 0km/h | 2608m | 0m/s | -51.7°C | 0.8% | 100.52hPa | 2.6V | 00:00:00 | 00:00:00 | 00:00:00 | |
| BIOWL1-15 | 2026-09-05 01:07:07 | 55.08237 | 19.72714 | 0° | 0km/h | 2608m | 0m/s | -51.7°C | 0% | 100hPa | 2.6V | 02:49:23 | 02:37:21 | 00:00:00 | |
| DL1XH-west | 2026-09-05 01:07:03 | 55.08237 | 19.72714 | 0° | 0km/h | 2608m | 0m/s | -51.3°C | 0% | 99.3hPa | 2.6V | 02:49:23 | 02:37:17 | 00:00:00 | |
| DF8AY | 2026-09-05 01:07:02 | 55.08237 | 19.72714 | 0° | 0km/h | 2608m | 0m/s | -51.3°C | 0% | 99.1hPa | 2.6V | 02:49:23 | 02:37:16 | 00:00:00 | |
| AA1-15 | 2026-09-05 01:07:01 | 55.08237 | 19.72714 | 0° | 0km/h | 2608m | 0m/s | -51.4°C | 0.1% | 99hPa | 2.5V | 02:49:23 | 02:37:15 | 00:00:00 | |
| BIOWL1-15 | 2026-09-05 01:06:57 | 55.08237 | 19.72714 | 0° | 0km/h | 2608m | 0m/s | -51.5°C | 0% | 98.5hPa | 2.6V | 02:51:05 | 02:37:11 | 00:00:00 | |
| DB0DAN | 2026-09-05 01:06:55 | 55.08237 | 19.72714 | 0° | 0km/h | 2608m | 0m/s | -51.6°C | 0.9% | 98.29hPa | 2.5V | 00:00:00 | 00:00:00 | 00:00:00 | |
| DL1XH-west | 2026-09-05 01:06:53 | 55.08237 | 19.72714 | 0° | 0km/h | 2608m | 0m/s | -51.5°C | 0% | 98hPa | 2.6V | 02:50:14 | 02:37:07 | 00:00:00 | |
| DF8AY | 2026-09-05 01:06:51 | 55.08237 | 19.72714 | 0° | 0km/h | 2608m | 0m/s | -51.4°C | 0% | 97.7hPa | 2.6V | 02:50:14 | 02:37:05 | 00:00:00 | |
| AA1-15 | 2026-09-05 01:06:51 | 55.08237 | 19.72714 | 0° | 0km/h | 2608m | 0m/s | -51.4°C | 0% | 97.4hPa | 2.6V | 02:50:14 | 02:37:04 | 00:00:00 | |
| BIOWL1-15 | 2026-09-05 01:06:48 | 55.08237 | 19.72714 | 0° | 0km/h | 2608m | 0m/s | -51.1°C | 0% | 96.6hPa | 2.6V | 02:51:05 | 02:36:59 | 00:00:00 | |
| DL1XH-west | 2026-09-05 01:06:42 | 55.08237 | 19.72714 | 0° | 0km/h | 2608m | 0m/s | -51°C | 0% | 96.3hPa | 2.5V | 02:50:14 | 02:36:56 | 00:00:00 | |
| DF8AY | 2026-09-05 01:06:41 | 55.08237 | 19.72714 | 0° | 0km/h | 2608m | 0m/s | -51.1°C | 0% | 96hPa | 2.5V | 02:50:14 | 02:36:55 | 00:00:00 | |
| DB0DAN | 2026-09-05 01:06:40 | 55.08237 | 19.72714 | 0° | 0km/h | 2608m | 0m/s | -51.1°C | 0.8% | 95.86hPa | 2.6V | 00:00:00 | 00:00:00 | 00:00:00 | |
| AA1-15 | 2026-09-05 01:06:39 | 55.08237 | 19.72714 | 0° | 0km/h | 2608m | 0m/s | -51.1°C | 0% | 95.7hPa | 2.6V | 02:50:14 | 02:36:53 | 00:00:00 | |
| BIOWL1-15 | 2026-09-05 01:06:32 | 55.08237 | 19.72714 | 0° | 0km/h | 2608m | 0m/s | -52.1°C | 0% | 93.5hPa | 2.6V | 02:51:05 | 02:36:42 | 00:00:00 | |
| DF8AY | 2026-09-05 01:06:31 | 55.08237 | 19.72714 | 0° | 0km/h | 2608m | 0m/s | -51.9°C | 0% | 94hPa | 2.6V | 02:50:14 | 02:36:45 | 00:00:00 | |
| AA1-15 | 2026-09-05 01:06:29 | 55.08237 | 19.72714 | 0° | 0km/h | 2608m | 0m/s | -52.1°C | 0% | 93.7hPa | 2.5V | 02:50:14 | 02:36:43 | 00:00:00 | |
| DB0DAN | 2026-09-05 01:06:25 | 55.08237 | 19.72714 | 0° | 0km/h | 2608m | 0m/s | -52.1°C | 0.9% | 92.83hPa | 2.5V | 00:00:00 | 00:00:00 | 00:00:00 | |
| DL1XH-west | 2026-09-05 01:06:20 | 55.08237 | 19.72714 | 0° | 0km/h | 2608m | 0m/s | -52.5°C | 0.1% | 91.9hPa | 2.5V | 02:50:14 | 02:36:34 | 00:00:00 | |
| AA1-15 | 2026-09-05 01:06:19 | 55.08237 | 19.72714 | 0° | 0km/h | 2608m | 0m/s | -52.5°C | 0% | 91.7hPa | 2.5V | 02:50:14 | 02:36:33 | 00:00:00 | |
| BIOWL1-15 | 2026-09-05 01:06:17 | 55.08237 | 19.72714 | 0° | 0km/h | 2608m | 0m/s | -52.5°C | 0% | 91.2hPa | 2.6V | 02:51:05 | 02:36:31 | 00:00:00 | |
| DL1XH-west | 2026-09-05 01:06:10 | 55.08237 | 19.72714 | 0° | 0km/h | 2608m | 0m/s | -51.7°C | 0% | 89.8hPa | 2.6V | 02:50:14 | 02:36:24 | 00:00:00 | |
| DB0DAN | 2026-09-05 01:06:10 | 55.08237 | 19.72714 | 0° | 0km/h | 2608m | 0m/s | -51.7°C | 0.9% | 89.84hPa | 2.6V | 00:00:00 | 00:00:00 | 00:00:00 | |
| BIOWL1-15 | 2026-09-05 01:06:09 | 55.08237 | 19.72714 | 0° | 0km/h | 2608m | 0m/s | -51.9°C | 0% | 88.8hPa | 2.6V | 02:51:05 | 02:36:18 | 00:00:00 | |
| AA1-15 | 2026-09-05 01:06:08 | 55.08237 | 19.72714 | 0° | 0km/h | 2608m | 0m/s | -51.8°C | 0% | 89.5hPa | 2.5V | 02:51:05 | 02:36:22 | 00:00:00 | |
| DL1XH-west | 2026-09-05 01:05:59 | 55.08237 | 19.72714 | 0° | 0km/h | 2608m | 0m/s | -52.2°C | 0% | 87.9hPa | 2.6V | 02:51:05 | 02:36:13 | 00:00:00 | |
| AA1-15 | 2026-09-05 01:05:58 | 55.08237 | 19.72714 | 0° | 0km/h | 2608m | 0m/s | -52.2°C | 0% | 87.7hPa | 2.6V | 02:51:05 | 02:36:12 | 00:00:00 | |
| DB0DAN | 2026-09-05 01:05:55 | 55.08237 | 19.72714 | 0° | 0km/h | 2608m | 0m/s | -52.2°C | 0.9% | 87.14hPa | 2.6V | 00:00:00 | 00:00:00 | 00:00:00 | |
| BIOWL1-15 | 2026-09-05 01:05:54 | 55.08237 | 19.72714 | 0° | 0km/h | 2608m | 0m/s | -52.1°C | 0% | 86.9hPa | 2.6V | 02:51:05 | 02:36:08 | 00:00:00 | |
| DF8AY | 2026-09-05 01:05:49 | 55.08237 | 19.72714 | 0° | 0km/h | 2608m | 0m/s | -51.9°C | 0% | 86hPa | 2.5V | 02:51:05 | 02:36:03 | 00:00:00 | |
| DL1XH-west | 2026-09-05 01:05:48 | 55.08237 | 19.72714 | 0° | 0km/h | 2608m | 0m/s | -51.9°C | 0% | 85.8hPa | 2.6V | 02:51:05 | 02:36:02 | 00:00:00 | |
| AA1-15 | 2026-09-05 01:05:47 | 55.08237 | 19.72714 | 0° | 0km/h | 2608m | 0m/s | -51.9°C | 0% | 85.7hPa | 2.6V | 02:51:05 | 02:36:01 | 00:00:00 | |
| BIOWL1-15 | 2026-09-05 01:05:43 | 55.08237 | 19.72714 | 0° | 0km/h | 2608m | 0m/s | -51.9°C | 0% | 84.8hPa | 2.6V | 02:51:05 | 02:35:57 | 00:00:00 | |
| DB0DAN | 2026-09-05 01:05:40 | 55.08237 | 19.72714 | 0° | 0km/h | 2608m | 0m/s | -51.8°C | 0.8% | 84.22hPa | 2.6V | 00:00:00 | 00:00:00 | 00:00:00 | |
| DF8AY | 2026-09-05 01:05:38 | 55.08237 | 19.72714 | 0° | 0km/h | 2608m | 0m/s | -51.9°C | 0% | 83.9hPa | 2.5V | 02:51:05 | 02:35:52 | 00:00:00 | |
| DL1XH-west | 2026-09-05 01:05:37 | 55.08237 | 19.72714 | 0° | 0km/h | 2608m | 0m/s | -52°C | 0% | 83.7hPa | 2.6V | 02:51:05 | 02:35:51 | 00:00:00 | |
| BIOWL1-15 | 2026-09-05 01:05:33 | 55.08237 | 19.72714 | 0° | 0km/h | 2608m | 0m/s | -51.9°C | 0.1% | 82.9hPa | 2.5V | 02:51:05 | 02:35:47 | 00:00:00 | |
| DF8AY | 2026-09-05 01:05:28 | 55.08237 | 19.72714 | 0° | 0km/h | 2608m | 0m/s | -52°C | 0% | 82hPa | 2.6V | 02:51:05 | 02:35:42 | 00:00:00 | |
| DL1XH-west | 2026-09-05 01:05:27 | 55.08237 | 19.72714 | 0° | 0km/h | 2608m | 0m/s | -52°C | 0% | 81.8hPa | 2.5V | 02:51:05 | 02:35:41 | 00:00:00 | |
| AA1-15 | 2026-09-05 01:05:26 | 55.08237 | 19.72714 | 0° | 0km/h | 2608m | 0m/s | -52°C | 0% | 81.6hPa | 2.5V | 02:51:05 | 02:35:40 | 00:00:00 | |
| DB0DAN | 2026-09-05 01:05:25 | 55.08237 | 19.72714 | 0° | 0km/h | 2608m | 0m/s | -52.1°C | 0.9% | 81.4hPa | 2.6V | 00:00:00 | 00:00:00 | 00:00:00 | |
| BIOWL1-15 | 2026-09-05 01:05:24 | 55.08237 | 19.72714 | 0° | 0km/h | 2608m | 0m/s | -52.5°C | 0% | 80.6hPa | 2.5V | 02:51:05 | 02:35:35 | 00:00:00 | |
| DF8AY | 2026-09-05 01:05:17 | 55.08237 | 19.72714 | 0° | 0km/h | 2608m | 0m/s | -52.1°C | 0% | 79.9hPa | 2.6V | 02:51:56 | 02:35:31 | 00:00:00 | |
| DL1XH-west | 2026-09-05 01:05:16 | 55.08237 | 19.72714 | 0° | 0km/h | 2608m | 0m/s | -52°C | 0% | 79.7hPa | 2.6V | 02:51:56 | 02:35:30 | 00:00:00 | |
| BIOWL1-15 | 2026-09-05 01:05:14 | 55.08237 | 19.72714 | 0° | 0km/h | 2608m | 0m/s | -52.3°C | 0% | 78.9hPa | 2.6V | 02:51:56 | 02:35:26 | 00:00:00 | |
| DB0DAN | 2026-09-05 01:05:10 | 55.08237 | 19.72714 | 0° | 0km/h | 2608m | 0m/s | -52.5°C | 0.9% | 78.63hPa | 2.6V | 00:00:00 | 00:00:00 | 00:00:00 | |
| AA1-15 | 2026-09-05 01:05:06 | 55.08237 | 19.72714 | 0° | 0km/h | 2608m | 0m/s | -52.9°C | 0% | 78hPa | 2.6V | 02:51:56 | 02:35:20 | 00:00:00 | |
| BIOWL1-15 | 2026-09-05 01:05:01 | 55.08237 | 19.72714 | 0° | 0km/h | 2608m | 0m/s | -53.6°C | 0% | 77hPa | 2.5V | 02:51:56 | 02:35:15 | 00:00:00 | |
| DF8AY | 2026-09-05 01:04:56 | 55.08237 | 19.72714 | 0° | 0km/h | 2608m | 0m/s | -54.1°C | 0.1% | 76hPa | 2.6V | 02:51:56 | 02:35:10 | 00:00:00 | |
| DL1XH-west | 2026-09-05 01:04:55 | 55.08237 | 19.72714 | 0° | 0km/h | 2608m | 0m/s | -54.1°C | 0.1% | 75.9hPa | 2.6V | 02:51:56 | 02:35:09 | 00:00:00 | |
| DB0DAN | 2026-09-05 01:04:55 | 55.08237 | 19.72714 | 0° | 0km/h | 2608m | 0m/s | -54.1°C | 0.9% | 75.89hPa | 2.6V | 00:00:00 | 00:00:00 | 00:00:00 | |
| BIOWL1-15 | 2026-09-05 01:04:50 | 55.08237 | 19.72714 | 0° | 0km/h | 2608m | 0m/s | -53.7°C | 0.1% | 74.8hPa | 2.6V | 02:51:56 | 02:35:02 | 00:00:00 | |
| DF8AY | 2026-09-05 01:04:45 | 55.08237 | 19.72714 | 0° | 0km/h | 2608m | 0m/s | -53.8°C | 0.2% | 74.2hPa | 2.5V | 02:51:56 | 02:34:59 | 00:00:00 | |
| DL1XH-west | 2026-09-05 01:04:44 | 55.08237 | 19.72714 | 0° | 0km/h | 2608m | 0m/s | -53.8°C | 0.1% | 74.1hPa | 2.5V | 02:51:56 | 02:34:58 | 00:00:00 | |
| BIOWL1-15 | 2026-09-05 01:04:40 | 55.08237 | 19.72714 | 0° | 0km/h | 2608m | 0m/s | -53.5°C | 0.2% | 73.2hPa | 2.6V | 02:51:56 | 02:34:52 | 00:00:00 | |
| DB0DAN | 2026-09-05 01:04:40 | 55.08237 | 19.72714 | 0° | 0km/h | 2608m | 0m/s | -53.6°C | 0.9% | 73.54hPa | 2.6V | 00:00:00 | 00:00:00 | 00:00:00 | |
| DF8AY | 2026-09-05 01:04:35 | 55.08237 | 19.72714 | 0° | 0km/h | 2608m | 0m/s | -53.4°C | 0% | 72.6hPa | 2.6V | 02:51:56 | 02:34:49 | 00:00:00 | |
| AA1-15 | 2026-09-05 01:04:34 | 55.08237 | 19.72714 | 0° | 0km/h | 2608m | 0m/s | -53.4°C | 0.1% | 72.5hPa | 2.6V | 02:51:56 | 02:34:48 | 00:00:00 | |
| DL1XH-west | 2026-09-05 01:04:33 | 55.08237 | 19.72714 | 0° | 0km/h | 2608m | 0m/s | -53.4°C | 0.2% | 72.4hPa | 2.6V | 02:51:56 | 02:34:47 | 00:00:00 | |
| BIOWL1-15 | 2026-09-05 01:04:29 | 55.08237 | 19.72714 | 0° | 0km/h | 2608m | 0m/s | -53.5°C | 0% | 71.7hPa | 2.6V | 02:51:56 | 02:34:43 | 00:00:00 | |
| DF8AY | 2026-09-05 01:04:25 | 55.08237 | 19.72714 | 0° | 0km/h | 2608m | 0m/s | -53.6°C | 0% | 71.1hPa | 2.6V | 02:52:47 | 02:34:39 | 00:00:00 | |
| DB0DAN | 2026-09-05 01:04:25 | 55.08237 | 19.72714 | 0° | 0km/h | 2608m | 0m/s | -53.6°C | 0.9% | 71.13hPa | 2.6V | 00:00:00 | 00:00:00 | 00:00:00 | |
| DL1XH-west | 2026-09-05 01:04:23 | 55.08237 | 19.72714 | 0° | 0km/h | 2608m | 0m/s | -53.3°C | 0% | 70.8hPa | 2.6V | 02:52:47 | 02:34:37 | 00:00:00 | |
| BIOWL1-15 | 2026-09-05 01:04:18 | 55.08237 | 19.72714 | 0° | 0km/h | 2608m | 0m/s | -53.6°C | 0% | 69.9hPa | 2.6V | 02:53:38 | 02:34:32 | 00:00:00 | |
| DF8AY | 2026-09-05 01:04:15 | 55.08237 | 19.72714 | 0° | 0km/h | 2608m | 0m/s | -54°C | 0.2% | 69.2hPa | 2.5V | 02:52:47 | 02:34:28 | 00:00:00 | |
| DL1XH-west | 2026-09-05 01:04:13 | 55.08237 | 19.72714 | 0° | 0km/h | 2608m | 0m/s | -54.1°C | 0.1% | 69.1hPa | 2.6V | 02:52:47 | 02:34:27 | 00:00:00 | |
| AA1-15 | 2026-09-05 01:04:13 | 55.08237 | 19.72714 | 0° | 0km/h | 2608m | 0m/s | -54°C | 0.1% | 68.9hPa | 2.6V | 02:52:47 | 02:34:26 | 00:00:00 | |
| DB0DAN | 2026-09-05 01:04:10 | 55.08237 | 19.72714 | 0° | 0km/h | 2608m | 0m/s | -53.8°C | 0.9% | 68.65hPa | 2.6V | 00:00:00 | 00:00:00 | 00:00:00 | |
| BIOWL1-15 | 2026-09-05 01:04:07 | 55.08237 | 19.72714 | 0° | 0km/h | 2608m | 0m/s | -54.1°C | 0% | 68.1hPa | 2.5V | 02:53:38 | 02:34:21 | 00:00:00 | |
| DF8AY | 2026-09-05 01:04:04 | 55.08237 | 19.72714 | 0° | 0km/h | 2608m | 0m/s | -53.9°C | 0.1% | 67.7hPa | 2.6V | 02:52:47 | 02:34:18 | 00:00:00 | |
| DL1XH-west | 2026-09-05 01:04:03 | 55.08237 | 19.72714 | 0° | 0km/h | 2608m | 0m/s | -53.8°C | 0.2% | 67.5hPa | 2.6V | 02:52:47 | 02:34:17 | 00:00:00 | |
| AA1-15 | 2026-09-05 01:04:02 | 55.08237 | 19.72714 | 0° | 0km/h | 2608m | 0m/s | -53.8°C | 0.1% | 67.3hPa | 2.6V | 02:52:47 | 02:34:16 | 00:00:00 | |
| DB0DAN | 2026-09-05 01:03:55 | 55.08237 | 19.72714 | 0° | 0km/h | 2608m | 0m/s | -54.3°C | 1% | 66.29hPa | 2.6V | 00:00:00 | 00:00:00 | 00:00:00 | |
| DF8AY | 2026-09-05 01:03:54 | 55.08237 | 19.72714 | 0° | 0km/h | 2608m | 0m/s | -54.3°C | 0.1% | 66.1hPa | 2.6V | 02:52:47 | 02:34:08 | 00:00:00 | |
| DL1XH-west | 2026-09-05 01:03:52 | 55.08237 | 19.72714 | 0° | 0km/h | 2608m | 0m/s | -54.4°C | 0.3% | 65.8hPa | 2.6V | 02:52:47 | 02:34:06 | 00:00:00 | |
| AA1-15 | 2026-09-05 01:03:51 | 55.08237 | 19.72714 | 0° | 0km/h | 2608m | 0m/s | -54.4°C | 0.3% | 65.6hPa | 2.5V | 02:52:47 | 02:34:05 | 00:00:00 | |
| DF8AY | 2026-09-05 01:03:43 | 55.08237 | 19.72714 | 0° | 0km/h | 2608m | 0m/s | -53°C | 0.1% | 64.3hPa | 2.6V | 02:52:47 | 02:33:57 | 00:00:00 | |
| DL1XH-west | 2026-09-05 01:03:41 | 55.08237 | 19.72714 | 0° | 0km/h | 2608m | 0m/s | -53°C | 0.1% | 64hPa | 2.6V | 02:52:47 | 02:33:55 | 00:00:00 | |
| AA1-15 | 2026-09-05 01:03:40 | 55.08237 | 19.72714 | 0° | 0km/h | 2608m | 0m/s | -53°C | 0% | 63.8hPa | 2.6V | 02:52:47 | 02:33:54 | 00:00:00 | |
| DB0DAN | 2026-09-05 01:03:40 | 55.08237 | 19.72714 | 0° | 0km/h | 2608m | 0m/s | -53°C | 0.8% | 63.83hPa | 2.6V | 00:00:00 | 00:00:00 | 00:00:00 | |
| DF8AY | 2026-09-05 01:03:33 | 55.08237 | 19.72714 | 0° | 0km/h | 2608m | 0m/s | -52.5°C | 0% | 62.7hPa | 2.5V | 02:53:38 | 02:33:47 | 00:00:00 | |
| AA1-15 | 2026-09-05 01:03:30 | 55.08237 | 19.72714 | 0° | 0km/h | 2608m | 0m/s | -52.9°C | 0.1% | 62.1hPa | 2.6V | 02:53:38 | 02:33:43 | 00:00:00 | |
| DL1XH-west | 2026-09-05 01:03:30 | 55.08237 | 19.72714 | 0° | 0km/h | 2608m | 0m/s | -52.8°C | 0% | 62.2hPa | 2.6V | 02:53:38 | 02:33:44 | 00:00:00 | |
| BIOWL1-15 | 2026-09-05 01:03:26 | 55.08237 | 19.72714 | 0° | 0km/h | 2608m | 0m/s | -53.1°C | 0% | 61.6hPa | 2.6V | 02:53:38 | 02:33:40 | 00:00:00 | |
| DB0DAN | 2026-09-05 01:03:25 | 55.08237 | 19.72714 | 0° | 0km/h | 2608m | 0m/s | -53.2°C | 0.9% | 61.43hPa | 2.6V | 00:00:00 | 00:00:00 | 00:00:00 | |
| DF8AY | 2026-09-05 01:03:23 | 55.08237 | 19.72714 | 0° | 0km/h | 2608m | 0m/s | -52.8°C | 0.1% | 61hPa | 2.6V | 02:53:38 | 02:33:36 | 00:00:00 | |
| DL1XH-west | 2026-09-05 01:03:19 | 55.08237 | 19.72714 | 0° | 0km/h | 2608m | 0m/s | -52.6°C | 0% | 60.6hPa | 2.6V | 02:53:38 | 02:33:33 | 00:00:00 | |
| DF8AY | 2026-09-05 01:03:12 | 55.08237 | 19.72714 | 0° | 0km/h | 2608m | 0m/s | -52.6°C | 0% | 59.6hPa | 2.6V | 02:53:38 | 02:33:26 | 00:00:00 | |
| BIOWL1-15 | 2026-09-05 01:03:11 | 55.08237 | 19.72714 | 0° | 0km/h | 2608m | 0m/s | -52.4°C | 0% | 59.4hPa | 2.6V | 02:53:38 | 02:33:25 | 00:00:00 | |
| DB0DAN | 2026-09-05 01:03:10 | 55.08237 | 19.72714 | 0° | 0km/h | 2608m | 0m/s | -52.5°C | 0.8% | 59.32hPa | 2.6V | 00:00:00 | 00:00:00 | 00:00:00 | |
| DL1XH-west | 2026-09-05 01:03:08 | 55.08237 | 19.72714 | 0° | 0km/h | 2608m | 0m/s | -52.7°C | 0.1% | 59.1hPa | 2.6V | 02:53:38 | 02:33:22 | 00:00:00 | |
| DF8AY | 2026-09-05 01:03:02 | 55.08237 | 19.72714 | 0° | 0km/h | 2608m | 0m/s | -53.4°C | 0.2% | 58.2hPa | 2.6V | 02:53:38 | 02:33:15 | 00:00:00 | |
| BIOWL1-15 | 2026-09-05 01:03:00 | 55.08237 | 19.72714 | 0° | 0km/h | 2608m | 0m/s | -52.8°C | 0.2% | 57.7hPa | 2.6V | 02:53:38 | 02:33:12 | 00:00:00 | |
| AA1-15 | 2026-09-05 01:02:59 | 55.08237 | 19.72714 | 0° | 0km/h | 2608m | 0m/s | -53.1°C | 0.1% | 57.8hPa | 2.6V | 02:53:38 | 02:33:13 | 00:00:00 | |
| DL1XH-west | 2026-09-05 01:02:57 | 55.08237 | 19.72714 | 0° | 0km/h | 2608m | 0m/s | -52.7°C | 0% | 57.6hPa | 2.5V | 02:53:38 | 02:33:11 | 00:00:00 | |
| DB0DAN | 2026-09-05 01:02:55 | 55.08237 | 19.72714 | 0° | 0km/h | 2608m | 0m/s | -52.7°C | 0.8% | 57.24hPa | 2.6V | 00:00:00 | 00:00:00 | 00:00:00 | |
| DF8AY | 2026-09-05 01:02:51 | 55.08237 | 19.72714 | 0° | 0km/h | 2608m | 0m/s | -52°C | 0% | 56.8hPa | 2.6V | 02:53:38 | 02:33:05 | 00:00:00 | |
| AA1-15 | 2026-09-05 01:02:48 | 55.08237 | 19.72714 | 0° | 0km/h | 2608m | 0m/s | -52°C | 0% | 56.4hPa | 2.6V | 02:53:38 | 02:33:02 | 00:00:00 | |
| DL1XH-west | 2026-09-05 01:02:47 | 55.08237 | 19.72714 | 0° | 0km/h | 2608m | 0m/s | -52°C | 0% | 56.3hPa | 2.6V | 02:53:38 | 02:33:01 | 00:00:00 | |
| BIOWL1-15 | 2026-09-05 01:02:46 | 55.08237 | 19.72714 | 0° | 0km/h | 2608m | 0m/s | -52°C | 0% | 56.2hPa | 2.6V | 02:53:38 | 02:33:00 | 00:00:00 | |
| DF8AY | 2026-09-05 01:02:40 | 55.08237 | 19.72714 | 0° | 0km/h | 2608m | 0m/s | -52.3°C | 0% | 55.4hPa | 2.5V | 02:54:29 | 02:32:54 | 00:00:00 | |
| DB0DAN | 2026-09-05 01:02:40 | 55.08237 | 19.72714 | 0° | 0km/h | 2608m | 0m/s | -52.3°C | 0.8% | 55.41hPa | 2.5V | 00:00:00 | 00:00:00 | 00:00:00 | |
| AA1-15 | 2026-09-05 01:02:38 | 55.08237 | 19.72714 | 0° | 0km/h | 2608m | 0m/s | -52.2°C | 0% | 55hPa | 2.6V | 02:54:29 | 02:32:51 | 00:00:00 | |
| DL1XH-west | 2026-09-05 01:02:36 | 55.08237 | 19.72714 | 0° | 0km/h | 2608m | 0m/s | -52.1°C | 0% | 54.9hPa | 2.6V | 02:54:29 | 02:32:50 | 00:00:00 | |
| HSKMA3-T | 2026-09-05 01:02:34 | 55.08237 | 19.72714 | 0° | 0km/h | 2608m | 0m/s | -52.2°C | 0% | 54.6hPa | 2.6V | 02:54:29 | 02:32:48 | 00:00:00 | |
| DF8AY | 2026-09-05 01:02:30 | 55.08237 | 19.72714 | 0° | 0km/h | 2608m | 0m/s | -52.4°C | 0.1% | 54.2hPa | 2.6V | 02:54:29 | 02:32:44 | 00:00:00 | |
| BIOWL1-15 | 2026-09-05 01:02:27 | 55.08237 | 19.72714 | 0° | 0km/h | 2608m | 0m/s | -52.4°C | 0% | 53.9hPa | 2.6V | 02:56:11 | 02:32:41 | 00:00:00 | |
| DL1XH-west | 2026-09-05 01:02:26 | 55.08237 | 19.72714 | 0° | 0km/h | 2608m | 0m/s | -52.1°C | 0% | 53.8hPa | 2.6V | 02:54:29 | 02:32:40 | 00:00:00 | |
| DB0DAN | 2026-09-05 01:02:25 | 55.08237 | 19.72714 | 0° | 0km/h | 2608m | 0m/s | -51.9°C | 0.8% | 53.68hPa | 2.6V | 00:00:00 | 00:00:00 | 00:00:00 | |
| DF8AY | 2026-09-05 01:02:19 | 55.08237 | 19.72714 | 0° | 0km/h | 2608m | 0m/s | -51.8°C | 0% | 52.9hPa | 2.5V | 02:54:29 | 02:32:33 | 00:00:00 | |
| AA1-15 | 2026-09-05 01:02:16 | 55.08237 | 19.72714 | 0° | 0km/h | 2608m | 0m/s | -51.7°C | 0% | 52.5hPa | 2.6V | 02:54:29 | 02:32:30 | 00:00:00 | |
| DL1XH-west | 2026-09-05 01:02:15 | 55.08237 | 19.72714 | 0° | 0km/h | 2608m | 0m/s | -51.8°C | 0% | 52.4hPa | 2.6V | 02:54:29 | 02:32:29 | 00:00:00 | |
| BIOWL1-15 | 2026-09-05 01:02:13 | 55.08237 | 19.72714 | 0° | 0km/h | 2608m | 0m/s | -51.9°C | 0% | 51.9hPa | 2.5V | 02:56:11 | 02:32:25 | 00:00:00 | |
| DB0DAN | 2026-09-05 01:02:10 | 55.08237 | 19.72714 | 0° | 0km/h | 2608m | 0m/s | -51.9°C | 0.8% | 51.86hPa | 2.5V | 00:00:00 | 00:00:00 | 00:00:00 | |
| DF8AY | 2026-09-05 01:02:09 | 55.08237 | 19.72714 | 0° | 0km/h | 2608m | 0m/s | -52°C | 0% | 51.8hPa | 2.6V | 02:54:29 | 02:32:23 | 00:00:00 | |
| AA1-15 | 2026-09-05 01:02:06 | 55.08237 | 19.72714 | 0° | 0km/h | 2608m | 0m/s | -52°C | 0% | 51.4hPa | 2.6V | 02:54:29 | 02:32:20 | 00:00:00 | |
| DL1XH-west | 2026-09-05 01:02:05 | 55.08237 | 19.72714 | 0° | 0km/h | 2608m | 0m/s | -52.1°C | 0% | 51.3hPa | 2.6V | 02:54:29 | 02:32:19 | 00:00:00 | |
| BIOWL1-15 | 2026-09-05 01:02:00 | 55.08237 | 19.72714 | 0° | 0km/h | 2608m | 0m/s | -52.4°C | 0.1% | 50.8hPa | 2.6V | 02:56:11 | 02:32:14 | 00:00:00 | |
| DF8AY | 2026-09-05 01:01:58 | 55.08237 | 19.72714 | 0° | 0km/h | 2608m | 0m/s | -52.6°C | 0.1% | 50.5hPa | 2.5V | 02:54:29 | 02:32:12 | 00:00:00 | |
| AA1-15 | 2026-09-05 01:01:55 | 55.08237 | 19.72714 | 0° | 0km/h | 2608m | 0m/s | -52.9°C | 0.2% | 50.2hPa | 2.6V | 02:54:29 | 02:32:09 | 00:00:00 | |
| DB0DAN | 2026-09-05 01:01:55 | 55.08237 | 19.72714 | 0° | 0km/h | 2608m | 0m/s | -52.9°C | 0.9% | 50.19hPa | 2.6V | 00:00:00 | 00:00:00 | 00:00:00 | |
| DL1XH-west | 2026-09-05 01:01:54 | 55.08237 | 19.72714 | 0° | 0km/h | 2608m | 0m/s | -53°C | 0.2% | 50.1hPa | 2.6V | 02:55:20 | 02:32:08 | 00:00:00 | |
| BIOWL1-15 | 2026-09-05 01:01:52 | 55.08237 | 19.72714 | 0° | 0km/h | 2608m | 0m/s | -53°C | 0.3% | 49.6hPa | 2.6V | 02:56:11 | 02:32:04 | 00:00:00 | |
| DF8AY | 2026-09-05 01:01:48 | 55.08237 | 19.72714 | 0° | 0km/h | 2608m | 0m/s | -52°C | 0% | 49.4hPa | 2.6V | 02:55:20 | 02:32:02 | 00:00:00 | |
| AA1-15 | 2026-09-05 01:01:45 | 55.08237 | 19.72714 | 0° | 0km/h | 2608m | 0m/s | -51.2°C | 0% | 49.1hPa | 2.6V | 02:55:20 | 02:31:59 | 00:00:00 | |
| DL1XH-west | 2026-09-05 01:01:43 | 55.08237 | 19.72714 | 0° | 0km/h | 2608m | 0m/s | -51.2°C | 0% | 48.8hPa | 2.6V | 02:55:20 | 02:31:57 | 00:00:00 | |
| DB0DAN | 2026-09-05 01:01:40 | 55.08237 | 19.72714 | 0° | 0km/h | 2608m | 0m/s | -51.3°C | 0.7% | 48.49hPa | 2.5V | 00:00:00 | 00:00:00 | 00:00:00 | |
| BIOWL1-15 | 2026-09-05 01:01:39 | 55.08237 | 19.72714 | 0° | 0km/h | 2608m | 0m/s | -51.4°C | 0% | 48.4hPa | 2.5V | 02:56:11 | 02:31:53 | 00:00:00 | |
| DF8AY | 2026-09-05 01:01:38 | 55.08237 | 19.72714 | 0° | 0km/h | 2608m | 0m/s | -51.5°C | 0% | 48.3hPa | 2.6V | 02:55:20 | 02:31:52 | 00:00:00 | |
| AA1-15 | 2026-09-05 01:01:34 | 55.08237 | 19.72714 | 0° | 0km/h | 2608m | 0m/s | -51.8°C | 0% | 47.7hPa | 2.5V | 02:55:20 | 02:31:48 | 00:00:00 | |
| DL1XH-west | 2026-09-05 01:01:34 | 55.08237 | 19.72714 | 0° | 0km/h | 2608m | 0m/s | -52°C | 0% | 47.6hPa | 2.6V | 02:55:20 | 02:31:47 | 00:00:00 | |
| HSKMA3-T | 2026-09-05 01:01:32 | 55.08237 | 19.72714 | 0° | 0km/h | 2608m | 0m/s | -52.1°C | 0% | 47.4hPa | 2.6V | 02:55:20 | 02:31:46 | 00:00:00 | |
| BIOWL1-15 | 2026-09-05 01:01:29 | 55.08237 | 19.72714 | 0° | 0km/h | 2608m | 0m/s | -52.3°C | 0% | 47.1hPa | 2.6V | 02:56:11 | 02:31:43 | 00:00:00 | |
| DF8AY | 2026-09-05 01:01:28 | 55.08237 | 19.72714 | 0° | 0km/h | 2608m | 0m/s | -52.3°C | 0% | 46.9hPa | 2.5V | 02:55:20 | 02:31:41 | 00:00:00 | |
| DB0DAN | 2026-09-05 01:01:25 | 55.08237 | 19.72714 | 0° | 0km/h | 2608m | 0m/s | -52°C | 0.8% | 46.67hPa | 2.6V | 00:00:00 | 00:00:00 | 00:00:00 | |
| AA1-15 | 2026-09-05 01:01:24 | 55.08237 | 19.72714 | 0° | 0km/h | 2608m | 0m/s | -52°C | 0% | 46.6hPa | 2.6V | 02:55:20 | 02:31:38 | 00:00:00 | |
| DL1XH-west | 2026-09-05 01:01:23 | 55.08237 | 19.72714 | 0° | 0km/h | 2608m | 0m/s | -51.8°C | 0% | 46.5hPa | 2.5V | 02:55:20 | 02:31:37 | 00:00:00 | |
| HSKMA3-T | 2026-09-05 01:01:21 | 55.08237 | 19.72714 | 0° | 0km/h | 2608m | 0m/s | -51.8°C | 0% | 46.2hPa | 2.6V | 02:55:20 | 02:31:35 | 00:00:00 | |
| BIOWL1-15 | 2026-09-05 01:01:20 | 55.08237 | 19.72714 | 0° | 0km/h | 2608m | 0m/s | -52.2°C | 0% | 45.8hPa | 2.6V | 02:56:11 | 02:31:32 | 00:00:00 | |
| DF8AY | 2026-09-05 01:01:16 | 55.08237 | 19.72714 | 0° | 0km/h | 2608m | 0m/s | -52.1°C | 0% | 45.1hPa | 2.6V | 02:55:20 | 02:31:26 | 00:00:00 | |
| AA1-15 | 2026-09-05 01:01:14 | 55.08237 | 19.72714 | 0° | 0km/h | 2608m | 0m/s | -52°C | 0% | 45.4hPa | 2.5V | 02:55:20 | 02:31:28 | 00:00:00 | |
| DL1XH-west | 2026-09-05 01:01:13 | 55.08237 | 19.72714 | 0° | 0km/h | 2608m | 0m/s | -52°C | 0% | 45.2hPa | 2.6V | 02:55:20 | 02:31:27 | 00:00:00 | |
| HSKMA3-T | 2026-09-05 01:01:10 | 55.08237 | 19.72714 | 0° | 0km/h | 2608m | 0m/s | -52.4°C | 0% | 44.8hPa | 2.6V | 02:55:20 | 02:31:24 | 00:00:00 | |
| DB0DAN | 2026-09-05 01:01:10 | 55.08237 | 19.72714 | 0° | 0km/h | 2608m | 0m/s | -52.4°C | 0.7% | 44.84hPa | 2.6V | 00:00:00 | 00:00:00 | 00:00:00 | |
| BIOWL1-15 | 2026-09-05 01:01:07 | 55.08237 | 19.72714 | 0° | 0km/h | 2608m | 0m/s | -52.7°C | 0% | 44.6hPa | 2.6V | 02:56:11 | 02:31:21 | 00:00:00 | |
| DF8AY | 2026-09-05 01:01:06 | 55.08237 | 19.72714 | 0° | 0km/h | 2608m | 0m/s | -52.8°C | 0% | 44.5hPa | 2.6V | 02:55:20 | 02:31:20 | 00:00:00 | |
| AA1-15 | 2026-09-05 01:01:04 | 55.08237 | 19.72714 | 0° | 0km/h | 2608m | 0m/s | -53°C | 0.1% | 44.3hPa | 2.6V | 02:55:20 | 02:31:18 | 00:00:00 | |
| DL1XH-west | 2026-09-05 01:01:02 | 55.08237 | 19.72714 | 0° | 0km/h | 2608m | 0m/s | -53.2°C | 0.1% | 44hPa | 2.6V | 02:56:11 | 02:31:16 | 00:00:00 | |
| HSKMA3-T | 2026-09-05 01:00:59 | 55.08237 | 19.72714 | 0° | 0km/h | 2608m | 0m/s | -53°C | 0.2% | 43.7hPa | 2.6V | 02:56:11 | 02:31:13 | 00:00:00 | |
| BIOWL1-15 | 2026-09-05 01:00:56 | 55.08237 | 19.72714 | 0° | 0km/h | 2608m | 0m/s | -53.1°C | 0% | 43.4hPa | 2.6V | 02:56:11 | 02:31:10 | 00:00:00 | |
| DF8AY | 2026-09-05 01:00:55 | 55.08237 | 19.72714 | 0° | 0km/h | 2608m | 0m/s | -53°C | 0% | 43.4hPa | 2.6V | 02:56:11 | 02:31:09 | 00:00:00 | |
| DB0DAN | 2026-09-05 01:00:55 | 55.08237 | 19.72714 | 0° | 0km/h | 2608m | 0m/s | -53°C | 0.8% | 43.39hPa | 2.6V | 00:00:00 | 00:00:00 | 00:00:00 | |
| AA1-15 | 2026-09-05 01:00:54 | 55.08237 | 19.72714 | 0° | 0km/h | 2608m | 0m/s | -53°C | 0.1% | 43.3hPa | 2.6V | 02:56:11 | 02:31:08 | 00:00:00 | |
| DL1XH-west | 2026-09-05 01:00:51 | 55.08237 | 19.72714 | 0° | 0km/h | 2608m | 0m/s | -52.9°C | 0.2% | 42.9hPa | 2.5V | 02:56:11 | 02:31:05 | 00:00:00 | |
| HSKMA3-T | 2026-09-05 01:00:49 | 55.08237 | 19.72714 | 0° | 0km/h | 2608m | 0m/s | -52.8°C | 0.1% | 42.7hPa | 2.6V | 02:56:11 | 02:31:03 | 00:00:00 | |
| BIOWL1-15 | 2026-09-05 01:00:46 | 55.08237 | 19.72714 | 0° | 0km/h | 2608m | 0m/s | -52.5°C | 0.2% | 42.3hPa | 2.6V | 02:56:11 | 02:31:00 | 00:00:00 | |
| AA1-15 | 2026-09-05 01:00:43 | 55.08237 | 19.72714 | 0° | 0km/h | 2608m | 0m/s | -52.5°C | 0.1% | 42hPa | 2.6V | 02:56:11 | 02:30:57 | 00:00:00 | |
| DL1XH-west | 2026-09-05 01:00:40 | 55.08237 | 19.72714 | 0° | 0km/h | 2608m | 0m/s | -52.6°C | 0.1% | 41.7hPa | 2.6V | 02:56:11 | 02:30:54 | 00:00:00 | |
| DB0DAN | 2026-09-05 01:00:40 | 55.08237 | 19.72714 | 0° | 0km/h | 2608m | 0m/s | -52.6°C | 0.8% | 41.69hPa | 2.6V | 00:00:00 | 00:00:00 | 00:00:00 | |
| HSKMA3-T | 2026-09-05 01:00:38 | 55.08237 | 19.72714 | 0° | 0km/h | 2608m | 0m/s | -52.7°C | 0.2% | 41.5hPa | 2.6V | 02:56:11 | 02:30:52 | 00:00:00 | |
| BIOWL1-15 | 2026-09-05 01:00:37 | 55.08237 | 19.72714 | 0° | 0km/h | 2608m | 0m/s | -52.6°C | 0.1% | 41hPa | 2.6V | 02:56:11 | 02:30:48 | 00:00:00 | |
| DF8AY | 2026-09-05 01:00:33 | 55.08237 | 19.72714 | 0° | 0km/h | 2608m | 0m/s | -52.5°C | 0.1% | 40.9hPa | 2.6V | 02:56:11 | 02:30:47 | 00:00:00 | |
| AA1-15 | 2026-09-05 01:00:32 | 55.08237 | 19.72714 | 0° | 0km/h | 2608m | 0m/s | -52.3°C | 0.1% | 40.8hPa | 2.6V | 02:56:11 | 02:30:46 | 00:00:00 | |
| DL1XH-west | 2026-09-05 01:00:29 | 55.08237 | 19.72714 | 0° | 0km/h | 2608m | 0m/s | -52.1°C | 0% | 40.5hPa | 2.6V | 02:56:11 | 02:30:43 | 00:00:00 | |
| HSKMA3-T | 2026-09-05 01:00:28 | 55.08237 | 19.72714 | 0° | 0km/h | 2608m | 0m/s | -51.9°C | 0% | 40.3hPa | 2.6V | 02:56:11 | 02:30:42 | 00:00:00 | |
| DB0DAN | 2026-09-05 01:00:25 | 55.08237 | 19.72714 | 0° | 0km/h | 2608m | 0m/s | -51.7°C | 0.7% | 40.02hPa | 2.5V | 00:00:00 | 00:00:00 | 00:00:00 | |
| BIOWL1-15 | 2026-09-05 01:00:22 | 55.08237 | 19.72714 | 0° | 0km/h | 2608m | 0m/s | -51.6°C | 0% | 39.7hPa | 2.6V | 02:56:11 | 02:30:36 | 00:00:00 | |
| AA1-15 | 2026-09-05 01:00:21 | 55.08237 | 19.72714 | 0° | 0km/h | 2608m | 0m/s | -51.6°C | 0% | 39.6hPa | 2.6V | 02:56:11 | 02:30:35 | 00:00:00 | |
| DL1XH-west | 2026-09-05 01:00:18 | 55.08237 | 19.72714 | 0° | 0km/h | 2608m | 0m/s | -51.6°C | 0% | 39.2hPa | 2.6V | 02:56:11 | 02:30:32 | 00:00:00 | |
| HSKMA3-T | 2026-09-05 01:00:17 | 55.08237 | 19.72714 | 0° | 0km/h | 2608m | 0m/s | -51.6°C | 0% | 39.1hPa | 2.6V | 02:56:11 | 02:30:31 | 00:00:00 | |
| DF8AY | 2026-09-05 01:00:12 | 55.08237 | 19.72714 | 0° | 0km/h | 2608m | 0m/s | -51.5°C | 0% | 38.6hPa | 2.5V | 02:57:02 | 02:30:26 | 00:00:00 | |
| AA1-15 | 2026-09-05 01:00:11 | 55.08237 | 19.72714 | 0° | 0km/h | 2608m | 0m/s | -51.4°C | 0% | 38.5hPa | 2.6V | 02:57:02 | 02:30:25 | 00:00:00 | |
| DB0DAN | 2026-09-05 01:00:10 | 55.08237 | 19.72714 | 0° | 0km/h | 2608m | 0m/s | -51.3°C | 0.7% | 38.28hPa | 2.6V | 00:00:00 | 00:00:00 | 00:00:00 | |
| DL1XH-west | 2026-09-05 01:00:08 | 55.08237 | 19.72714 | 0° | 0km/h | 2608m | 0m/s | -51.2°C | 0% | 38.1hPa | 2.6V | 02:57:02 | 02:30:22 | 00:00:00 | |
| HSKMA3-T | 2026-09-05 01:00:06 | 55.08237 | 19.72714 | 0° | 0km/h | 2608m | 0m/s | -51°C | 0% | 37.9hPa | 2.6V | 02:57:53 | 02:30:20 | 00:00:00 | |
| DF8AY | 2026-09-05 01:00:01 | 55.08237 | 19.72714 | 0° | 0km/h | 2608m | 0m/s | -50.6°C | 0% | 37.4hPa | 2.6V | 02:57:02 | 02:30:15 | 00:00:00 | |
| AA1-15 | 2026-09-05 01:00:00 | 55.08237 | 19.72714 | 0° | 0km/h | 2608m | 0m/s | -50.5°C | 0% | 37.3hPa | 2.6V | 02:57:02 | 02:30:14 | 00:00:00 | |
| DL1XH-west | 2026-09-05 00:59:57 | 55.08237 | 19.72714 | 0° | 0km/h | 2608m | 0m/s | -50.8°C | 0% | 37.1hPa | 2.6V | 02:57:02 | 02:30:11 | 00:00:00 | |
| DB0DAN | 2026-09-05 00:59:55 | 55.08237 | 19.72714 | 0° | 0km/h | 2608m | 0m/s | -51°C | 0.7% | 36.93hPa | 2.6V | 00:00:00 | 00:00:00 | 00:00:00 | |
| DF8AY | 2026-09-05 00:59:50 | 55.08237 | 19.72714 | 0° | 0km/h | 2608m | 0m/s | -51.1°C | 0% | 36.4hPa | 2.6V | 02:57:02 | 02:30:04 | 00:00:00 | |
| AA1-15 | 2026-09-05 00:59:49 | 55.08237 | 19.72714 | 0° | 0km/h | 2608m | 0m/s | -51.2°C | 0% | 36.4hPa | 2.6V | 02:57:02 | 02:30:03 | 00:00:00 | |
| DL1XH-west | 2026-09-05 00:59:47 | 55.08237 | 19.72714 | 0° | 0km/h | 2608m | 0m/s | -51.1°C | 0% | 36.1hPa | 2.6V | 02:57:02 | 02:30:01 | 00:00:00 | |
| DF8AY | 2026-09-05 00:59:40 | 55.08237 | 19.72714 | 0° | 0km/h | 2608m | 0m/s | -51.4°C | 0% | 35.4hPa | 2.6V | 02:57:02 | 02:29:54 | 00:00:00 | |
| DB0DAN | 2026-09-05 00:59:40 | 55.08237 | 19.72714 | 0° | 0km/h | 2608m | 0m/s | -51.4°C | 0.7% | 35.43hPa | 2.6V | 00:00:00 | 00:00:00 | 00:00:00 | |
| AA1-15 | 2026-09-05 00:59:38 | 55.08237 | 19.72714 | 0° | 0km/h | 2608m | 0m/s | -51.5°C | 0% | 35.2hPa | 2.6V | 02:57:02 | 02:29:52 | 00:00:00 | |
| DL1XH-west | 2026-09-05 00:59:36 | 55.08237 | 19.72714 | 0° | 0km/h | 2608m | 0m/s | -51.7°C | 0% | 35hPa | 2.6V | 02:57:02 | 02:29:50 | 00:00:00 | |
| DF8AY | 2026-09-05 00:59:30 | 55.08237 | 19.72714 | 0° | 0km/h | 2608m | 0m/s | -51.5°C | 0% | 34.4hPa | 2.6V | 02:57:02 | 02:29:44 | 00:00:00 | |
| HSKMA3-T | 2026-09-05 00:59:28 | 55.08237 | 19.72714 | 0° | 0km/h | 2608m | 0m/s | -51.5°C | 0% | 34.3hPa | 2.6V | 02:57:53 | 02:29:42 | 00:00:00 | |
| AA1-15 | 2026-09-05 00:59:27 | 55.08237 | 19.72714 | 0° | 0km/h | 2608m | 0m/s | -51.5°C | 0% | 34.2hPa | 2.6V | 02:57:02 | 02:29:41 | 00:00:00 | |
| DL1XH-west | 2026-09-05 00:59:26 | 55.08237 | 19.72714 | 0° | 0km/h | 2608m | 0m/s | -51.4°C | 0% | 34.2hPa | 2.6V | 02:57:02 | 02:29:40 | 00:00:00 | |
| DB0DAN | 2026-09-05 00:59:25 | 55.08237 | 19.72714 | 0° | 0km/h | 2608m | 0m/s | -51.4°C | 0.7% | 34hPa | 2.6V | 00:00:00 | 00:00:00 | 00:00:00 | |
| BIOWL1-15 | 2026-09-05 00:59:24 | 55.08237 | 19.72714 | 0° | 0km/h | 2608m | 0m/s | -51.4°C | 0% | 33.9hPa | 2.6V | 02:57:02 | 02:29:38 | 00:00:00 | |
| DF8AY | 2026-09-05 00:59:20 | 55.08237 | 19.72714 | 0° | 0km/h | 2608m | 0m/s | -51.7°C | 0% | 33.4hPa | 2.6V | 02:57:53 | 02:29:33 | 00:00:00 | |
| AA1-15 | 2026-09-05 00:59:17 | 55.08237 | 19.72714 | 0° | 0km/h | 2608m | 0m/s | -51.9°C | 0% | 33.1hPa | 2.6V | 02:57:53 | 02:29:31 | 00:00:00 | |
| DL1XH-west | 2026-09-05 00:59:15 | 55.08237 | 19.72714 | 0° | 0km/h | 2608m | 0m/s | -52°C | 0% | 32.9hPa | 2.6V | 02:57:53 | 02:29:29 | 00:00:00 | |
| BIOWL1-15 | 2026-09-05 00:59:14 | 55.08237 | 19.72714 | 0° | 0km/h | 2608m | 0m/s | -52.5°C | 0% | 32.3hPa | 2.5V | 02:57:53 | 02:29:22 | 00:00:00 | |
| DB0DAN | 2026-09-05 00:59:10 | 55.08237 | 19.72714 | 0° | 0km/h | 2608m | 0m/s | -52.3°C | 0.7% | 32.46hPa | 2.6V | 00:00:00 | 00:00:00 | 00:00:00 | |
| DF8AY | 2026-09-05 00:59:09 | 55.08237 | 19.72714 | 0° | 0km/h | 2608m | 0m/s | -52.4°C | 0% | 32.4hPa | 2.6V | 02:57:53 | 02:29:23 | 00:00:00 | |
| HSKMA3-T | 2026-09-05 00:59:07 | 55.08237 | 19.72714 | 0° | 0km/h | 2608m | 0m/s | -52.6°C | 0% | 32.2hPa | 2.6V | 02:57:53 | 02:29:21 | 00:00:00 | |
| AA1-15 | 2026-09-05 00:59:06 | 55.08237 | 19.72714 | 0° | 0km/h | 2608m | 0m/s | -52.6°C | 0.1% | 32.1hPa | 2.6V | 02:57:53 | 02:29:20 | 00:00:00 | |
| DL1XH-west | 2026-09-05 00:59:05 | 55.08237 | 19.72714 | 0° | 0km/h | 2608m | 0m/s | -52.6°C | 0% | 32hPa | 2.6V | 02:57:53 | 02:29:19 | 00:00:00 | |
| BIOWL1-15 | 2026-09-05 00:59:03 | 55.08237 | 19.72714 | 0° | 0km/h | 2608m | 0m/s | -52.7°C | 0% | 31.7hPa | 2.6V | 02:57:53 | 02:29:15 | 00:00:00 | |
| DF8AY | 2026-09-05 00:58:58 | 55.08237 | 19.72714 | 0° | 0km/h | 2608m | 0m/s | -52.5°C | 0.1% | 31.2hPa | 2.6V | 02:57:53 | 02:29:09 | 00:00:00 | |
| HSKMA3-T | 2026-09-05 00:58:56 | 55.08237 | 19.72714 | 0° | 0km/h | 2608m | 0m/s | -52.5°C | 0% | 31.3hPa | 2.6V | 02:57:53 | 02:29:10 | 00:00:00 | |
| DB0DAN | 2026-09-05 00:58:55 | 55.08237 | 19.72714 | 0° | 0km/h | 2608m | 0m/s | -52.5°C | 0.8% | 31.17hPa | 2.6V | 00:00:00 | 00:00:00 | 00:00:00 | |
| DL1XH-west | 2026-09-05 00:58:54 | 55.08237 | 19.72714 | 0° | 0km/h | 2608m | 0m/s | -52.5°C | 0% | 31.1hPa | 2.6V | 02:57:53 | 02:29:08 | 00:00:00 | |
| BIOWL1-15 | 2026-09-05 00:58:51 | 55.08237 | 19.72714 | 0° | 0km/h | 2608m | 0m/s | -52.6°C | 0.1% | 30.8hPa | 2.6V | 02:57:53 | 02:29:05 | 00:00:00 | |
| HSKMA3-T | 2026-09-05 00:58:45 | 55.08237 | 19.72714 | 0° | 0km/h | 2608m | 0m/s | -52.8°C | 0.1% | 30.3hPa | 2.6V | 02:57:53 | 02:28:59 | 00:00:00 | |
| DL1XH-west | 2026-09-05 00:58:43 | 55.08237 | 19.72714 | 0° | 0km/h | 2608m | 0m/s | -52.9°C | 0.1% | 30.1hPa | 2.6V | 02:57:53 | 02:28:57 | 00:00:00 | |
| BIOWL1-15 | 2026-09-05 00:58:40 | 55.08237 | 19.72714 | 0° | 0km/h | 2608m | 0m/s | -53°C | 0.2% | 29.8hPa | 2.6V | 02:57:53 | 02:28:54 | 00:00:00 | |
| HSKMA3-T | 2026-09-05 00:58:35 | 55.08237 | 19.72714 | 0° | 0km/h | 2608m | 0m/s | -52.3°C | 0.1% | 29.5hPa | 2.6V | 02:57:53 | 02:28:49 | 00:00:00 | |
| BIOWL1-15 | 2026-09-05 00:58:34 | 55.08237 | 19.72714 | 0° | 0km/h | 2608m | 0m/s | -51.9°C | 0% | 29.1hPa | 2.6V | 03:00:26 | 02:28:44 | 00:00:00 | |
| AA1-15 | 2026-09-05 00:58:33 | 55.08237 | 19.72714 | 0° | 0km/h | 2608m | 0m/s | -52.1°C | 0.1% | 29.3hPa | 2.6V | 02:57:53 | 02:28:47 | 00:00:00 | |
| DL1XH-west | 2026-09-05 00:58:32 | 55.08237 | 19.72714 | 0° | 0km/h | 2608m | 0m/s | -52°C | 0.1% | 29.3hPa | 2.6V | 02:57:53 | 02:28:46 | 00:00:00 | |
| HSKMA3-T | 2026-09-05 00:58:24 | 55.08237 | 19.72714 | 0° | 0km/h | 2608m | 0m/s | -51.6°C | 0.1% | 28.7hPa | 2.6V | 02:58:44 | 02:28:38 | 00:00:00 | |
| AA1-15 | 2026-09-05 00:58:23 | 55.08237 | 19.72714 | 0° | 0km/h | 2608m | 0m/s | -51.6°C | 0.1% | 28.6hPa | 2.6V | 02:58:44 | 02:28:37 | 00:00:00 | |
| DL1XH-west | 2026-09-05 00:58:22 | 55.08237 | 19.72714 | 0° | 0km/h | 2608m | 0m/s | -51.6°C | 0.1% | 28.5hPa | 2.6V | 02:58:44 | 02:28:36 | 00:00:00 | |
| BIOWL1-15 | 2026-09-05 00:58:19 | 55.08237 | 19.72714 | 0° | 0km/h | 2608m | 0m/s | -51.3°C | 0% | 28.1hPa | 2.6V | 03:00:26 | 02:28:31 | 00:00:00 | |
| DF8AY | 2026-09-05 00:58:19 | 55.08237 | 19.72714 | 0° | 0km/h | 2608m | 0m/s | -50.8°C | 0% | 27.8hPa | 2.6V | 02:59:35 | 02:28:28 | 00:00:00 | |
| HSKMA3-T | 2026-09-05 00:58:13 | 55.08237 | 19.72714 | 0° | 0km/h | 2608m | 0m/s | -50.7°C | 0% | 27.8hPa | 2.6V | 02:58:44 | 02:28:27 | 00:00:00 | |
| AA1-15 | 2026-09-05 00:58:12 | 55.08237 | 19.72714 | 0° | 0km/h | 2608m | 0m/s | -50.6°C | 0% | 27.7hPa | 2.6V | 02:58:44 | 02:28:26 | 00:00:00 | |
| DL1XH-west | 2026-09-05 00:58:11 | 55.08237 | 19.72714 | 0° | 0km/h | 2608m | 0m/s | -50.6°C | 0.1% | 27.6hPa | 2.5V | 02:58:44 | 02:28:25 | 00:00:00 | |
| BIOWL1-15 | 2026-09-05 00:58:07 | 55.08237 | 19.72714 | 0° | 0km/h | 2608m | 0m/s | -50.2°C | 0% | 27.3hPa | 2.6V | 03:00:26 | 02:28:21 | 00:00:00 | |
| DF8AY | 2026-09-05 00:58:04 | 55.08237 | 19.72714 | 0° | 0km/h | 2608m | 0m/s | -49.9°C | 0% | 26.9hPa | 2.6V | 02:59:35 | 02:28:18 | 00:00:00 | |
| HSKMA3-T | 2026-09-05 00:58:03 | 55.08237 | 19.72714 | 0° | 0km/h | 2608m | 0m/s | -49.9°C | 0% | 26.9hPa | 2.6V | 02:58:44 | 02:28:17 | 00:00:00 | |
| AA1-15 | 2026-09-05 00:58:01 | 55.08237 | 19.72714 | 0° | 0km/h | 2608m | 0m/s | -49.9°C | 0% | 26.8hPa | 2.6V | 02:58:44 | 02:28:15 | 00:00:00 | |
| DL1XH-west | 2026-09-05 00:58:00 | 55.08237 | 19.72714 | 0° | 0km/h | 2608m | 0m/s | -49.9°C | 0% | 26.7hPa | 2.5V | 02:58:44 | 02:28:14 | 00:00:00 | |
| BIOWL1-15 | 2026-09-05 00:57:56 | 55.08237 | 19.72714 | 0° | 0km/h | 2608m | 0m/s | -49.7°C | 0% | 26.4hPa | 2.6V | 03:00:26 | 02:28:10 | 00:00:00 | |
| DF8AY | 2026-09-05 00:57:54 | 55.08237 | 19.72714 | 0° | 0km/h | 2608m | 0m/s | -49.7°C | 0% | 26.2hPa | 2.6V | 02:59:35 | 02:28:07 | 00:00:00 | |
| HSKMA3-T | 2026-09-05 00:57:52 | 55.08237 | 19.72714 | 0° | 0km/h | 2608m | 0m/s | -49.6°C | 0% | 26.1hPa | 2.6V | 02:58:44 | 02:28:06 | 00:00:00 | |
| AA1-15 | 2026-09-05 00:57:51 | 55.08237 | 19.72714 | 0° | 0km/h | 2608m | 0m/s | -49.6°C | 0% | 26.1hPa | 2.6V | 02:58:44 | 02:28:05 | 00:00:00 | |
| DL1XH-west | 2026-09-05 00:57:50 | 55.08237 | 19.72714 | 0° | 0km/h | 2608m | 0m/s | -49.5°C | 0% | 26hPa | 2.6V | 02:58:44 | 02:28:04 | 00:00:00 | |
| BIOWL1-15 | 2026-09-05 00:57:45 | 55.08237 | 19.72714 | 0° | 0km/h | 2608m | 0m/s | -49.4°C | 0% | 25.7hPa | 2.6V | 03:00:26 | 02:27:59 | 00:00:00 | |
| DF8AY | 2026-09-05 00:57:43 | 55.08237 | 19.72714 | 0° | 0km/h | 2608m | 0m/s | -49.2°C | 0% | 25.5hPa | 2.6V | 02:59:35 | 02:27:57 | 00:00:00 | |
| HSKMA3-T | 2026-09-05 00:57:41 | 55.08237 | 19.72714 | 0° | 0km/h | 2608m | 0m/s | -49.2°C | 0% | 25.4hPa | 2.6V | 02:58:44 | 02:27:55 | 00:00:00 | |
| AA1-15 | 2026-09-05 00:57:40 | 55.08237 | 19.72714 | 0° | 0km/h | 2608m | 0m/s | -49.2°C | 0% | 25.3hPa | 2.6V | 02:58:44 | 02:27:54 | 00:00:00 | |
| DL1XH-west | 2026-09-05 00:57:39 | 55.08237 | 19.72714 | 0° | 0km/h | 2608m | 0m/s | -49.2°C | 0% | 25.2hPa | 2.6V | 02:59:35 | 02:27:53 | 00:00:00 | |
| BIOWL1-15 | 2026-09-05 00:57:34 | 55.08237 | 19.72714 | 0° | 0km/h | 2608m | 0m/s | -49.3°C | 0% | 24.8hPa | 2.6V | 03:00:26 | 02:27:48 | 00:00:00 | |
| DF8AY | 2026-09-05 00:57:32 | 55.08237 | 19.72714 | 0° | 0km/h | 2608m | 0m/s | -49.2°C | 0% | 24.6hPa | 2.5V | 02:59:35 | 02:27:46 | 00:00:00 | |
| HSKMA3-T | 2026-09-05 00:57:31 | 55.08237 | 19.72714 | 0° | 0km/h | 2608m | 0m/s | -49.2°C | 0% | 24.6hPa | 2.6V | 02:59:35 | 02:27:45 | 00:00:00 | |
| AA1-15 | 2026-09-05 00:57:30 | 55.08237 | 19.72714 | 0° | 0km/h | 2608m | 0m/s | -49.2°C | 0% | 24.5hPa | 2.6V | 02:59:35 | 02:27:44 | 00:00:00 | |
| DL1XH-west | 2026-09-05 00:57:29 | 55.08237 | 19.72714 | 0° | 0km/h | 2608m | 0m/s | -49.1°C | 0% | 24.4hPa | 2.6V | 02:59:35 | 02:27:43 | 00:00:00 | |
| BIOWL1-15 | 2026-09-05 00:57:23 | 55.08237 | 19.72714 | 0° | 0km/h | 2608m | 0m/s | -49°C | 0% | 23.9hPa | 2.6V | 03:00:26 | 02:27:37 | 00:00:00 | |
| DF8AY | 2026-09-05 00:57:21 | 55.08237 | 19.72714 | 0° | 0km/h | 2608m | 0m/s | -49°C | 0% | 23.7hPa | 2.6V | 02:59:35 | 02:27:35 | 00:00:00 | |
| HSKMA3-T | 2026-09-05 00:57:20 | 55.08237 | 19.72714 | 0° | 0km/h | 2608m | 0m/s | -49°C | 0% | 23.7hPa | 2.6V | 02:59:35 | 02:27:34 | 00:00:00 | |
| DL1XH-west | 2026-09-05 00:57:19 | 55.08237 | 19.72714 | 0° | 0km/h | 2608m | 0m/s | -49°C | 0% | 23.7hPa | 2.6V | 02:59:35 | 02:27:33 | 00:00:00 | |
| BIOWL1-15 | 2026-09-05 00:57:12 | 55.08237 | 19.72714 | 0° | 0km/h | 2608m | 0m/s | -49.2°C | 0% | 0hPa | 2.6V | 03:00:26 | 02:27:25 | 00:00:00 | |
| DF8AY | 2026-09-05 00:57:11 | 55.08237 | 19.72714 | 0° | 0km/h | 2608m | 0m/s | -48.9°C | 0% | 22.7hPa | 2.6V | 02:59:35 | 02:27:20 | 00:00:00 | |
| AA1-15 | 2026-09-05 00:57:09 | 55.08237 | 19.72714 | 0° | 0km/h | 2608m | 0m/s | -49°C | 0% | 22.9hPa | 2.6V | 02:59:35 | 02:27:23 | 00:00:00 | |
| DL1XH-west | 2026-09-05 00:57:08 | 55.08237 | 19.72714 | 0° | 0km/h | 2608m | 0m/s | -48.9°C | 0% | 22.8hPa | 2.6V | 02:59:35 | 02:27:22 | 00:00:00 | |
| BIOWL1-15 | 2026-09-05 00:57:03 | 55.08237 | 19.72714 | 0° | 0km/h | 2608m | 0m/s | -48.9°C | 0% | 0hPa | 2.6V | 03:00:26 | 02:27:15 | 00:00:00 | |
| DF8AY | 2026-09-05 00:57:00 | 55.08237 | 19.72714 | 0° | 0km/h | 2608m | 0m/s | -48.8°C | 0% | 22.3hPa | 2.6V | 02:59:35 | 02:27:14 | 00:00:00 | |
| DL1XH-west | 2026-09-05 00:56:58 | 55.08237 | 19.72714 | 0° | 0km/h | 2608m | 0m/s | -48.4°C | 0% | 22.1hPa | 2.6V | 02:59:35 | 02:27:12 | 00:00:00 | |
| BIOWL1-15 | 2026-09-05 00:56:50 | 55.08237 | 19.72714 | 0° | 0km/h | 2608m | 0m/s | -48°C | 0% | 0hPa | 2.6V | 03:00:26 | 02:27:04 | 00:00:00 | |
| DF8AY | 2026-09-05 00:56:49 | 55.08237 | 19.72714 | 0° | 0km/h | 2608m | 0m/s | -47.9°C | 0% | 21.4hPa | 2.6V | 02:59:35 | 02:27:03 | 00:00:00 | |
| DL1XH-west | 2026-09-05 00:56:48 | 55.08237 | 19.72714 | 0° | 0km/h | 2608m | 0m/s | -47.9°C | 0% | 21.3hPa | 2.6V | 03:00:26 | 02:27:02 | 00:00:00 | |
| AA1-15 | 2026-09-05 00:56:47 | 55.08237 | 19.72714 | 0° | 0km/h | 2608m | 0m/s | -48.1°C | 0% | 21.3hPa | 2.6V | 03:00:26 | 02:27:01 | 00:00:00 | |
| BIOWL1-15 | 2026-09-05 00:56:41 | 55.08237 | 19.72714 | 0° | 0km/h | 2608m | 0m/s | -49°C | 0% | 0hPa | 2.6V | 03:00:26 | 02:26:53 | 00:00:00 | |
| DF8AY | 2026-09-05 00:56:38 | 55.08237 | 19.72714 | 0° | 0km/h | 2608m | 0m/s | -49.1°C | 0% | 20.6hPa | 2.6V | 03:00:26 | 02:26:52 | 00:00:00 | |
| DL1XH-west | 2026-09-05 00:56:37 | 55.08237 | 19.72714 | 0° | 0km/h | 2608m | 0m/s | -49.2°C | 0% | 20.5hPa | 2.6V | 03:00:26 | 02:26:51 | 00:00:00 | |
| DF8AY | 2026-09-05 00:56:28 | 55.08237 | 19.72714 | 0° | 0km/h | 2608m | 0m/s | -48.8°C | 0% | 19.9hPa | 2.6V | 03:00:26 | 02:26:42 | 00:00:00 | |
| DL1XH-west | 2026-09-05 00:56:27 | 55.08237 | 19.72714 | 0° | 0km/h | 2608m | 0m/s | -48.9°C | 0% | 19.8hPa | 2.6V | 03:00:26 | 02:26:41 | 00:00:00 | |
| HSKMA3-T | 2026-09-05 00:56:26 | 55.08237 | 19.72714 | 0° | 0km/h | 2608m | 0m/s | -48.9°C | 0% | 19.7hPa | 2.6V | 03:00:26 | 02:26:40 | 00:00:00 | |
| DB0DAN | 2026-09-05 00:56:25 | 55.08237 | 19.72714 | 0° | 0km/h | 2608m | 0m/s | -48.9°C | 0.7% | 19.63hPa | 2.6V | 00:00:00 | 00:00:00 | 00:00:00 | |
| DL1XH-west | 2026-09-05 00:56:17 | 55.08237 | 19.72714 | 0° | 0km/h | 2608m | 0m/s | -48.5°C | 0% | 19.1hPa | 2.6V | 03:00:26 | 02:26:31 | 00:00:00 | |
| AA1-15 | 2026-09-05 00:56:15 | 55.08237 | 19.72714 | 0° | 0km/h | 2608m | 0m/s | -48.3°C | 0% | 19hPa | 2.6V | 03:00:26 | 02:26:29 | 00:00:00 | |
| DB0DAN | 2026-09-05 00:56:10 | 55.08237 | 19.72714 | 0° | 0km/h | 2608m | 0m/s | -48°C | 0.6% | 18.63hPa | 2.6V | 00:00:00 | 00:00:00 | 00:00:00 | |
| DF8AY | 2026-09-05 00:56:07 | 55.08237 | 19.72714 | 0° | 0km/h | 2608m | 0m/s | -48°C | 0% | 18.4hPa | 2.6V | 03:00:26 | 02:26:21 | 00:00:00 | |
| DL1XH-west | 2026-09-05 00:56:06 | 55.08237 | 19.72714 | 0° | 0km/h | 2608m | 0m/s | -48°C | 0% | 18.4hPa | 2.6V | 03:00:26 | 02:26:20 | 00:00:00 | |
| HSKMA3-T | 2026-09-05 00:56:04 | 55.08237 | 19.72714 | 0° | 0km/h | 2608m | 0m/s | -47.9°C | 0% | 18.2hPa | 2.6V | 03:00:26 | 02:26:18 | 00:00:00 | |
| BIOWL1-15 | 2026-09-05 00:55:58 | 55.08237 | 19.72714 | 0° | 0km/h | 2608m | 0m/s | 0°C | 0% | 0hPa | 2.6V | 18:12:15 | 02:26:10 | 00:00:00 | |
| DF8AY | 2026-09-05 00:55:57 | 55.08237 | 19.72714 | 0° | 0km/h | 2608m | 0m/s | -48°C | 0% | 17.8hPa | 2.6V | 03:01:17 | 02:26:11 | 00:00:00 | |
| DB0DAN | 2026-09-05 00:55:55 | 55.08237 | 19.72714 | 0° | 0km/h | 2608m | 0m/s | -48.1°C | 0.6% | 17.68hPa | 2.6V | 00:00:00 | 00:00:00 | 00:00:00 | |
| DL1XH-west | 2026-09-05 00:55:55 | 55.08237 | 19.72714 | 0° | 0km/h | 2608m | 0m/s | -48.1°C | 0% | 17.7hPa | 2.6V | 03:01:17 | 02:26:09 | 00:00:00 | |
| AA1-15 | 2026-09-05 00:55:54 | 55.08237 | 19.72714 | 0° | 0km/h | 2608m | 0m/s | -48.3°C | 0% | 17.6hPa | 2.6V | 03:01:17 | 02:26:08 | 00:00:00 | |
| HSKMA3-T | 2026-09-05 00:55:53 | 55.08237 | 19.72714 | 0° | 0km/h | 2608m | 0m/s | -48.4°C | 0% | 17.5hPa | 2.6V | 03:01:17 | 02:26:07 | 00:00:00 | |
| DF8AY | 2026-09-05 00:55:46 | 55.08237 | 19.72714 | 0° | 0km/h | 2608m | 0m/s | -49.1°C | 0% | 17hPa | 2.6V | 03:01:17 | 02:26:00 | 00:00:00 | |
| DL1XH-west | 2026-09-05 00:55:45 | 55.08237 | 19.72714 | 0° | 0km/h | 2608m | 0m/s | -49.1°C | 0% | 17hPa | 2.5V | 03:01:17 | 02:25:59 | 00:00:00 | |
| AA1-15 | 2026-09-05 00:55:44 | 55.08237 | 19.72714 | 0° | 0km/h | 2608m | 0m/s | -49.1°C | 0% | 16.9hPa | 2.6V | 03:01:17 | 02:25:58 | 00:00:00 | |
| HSKMA3-T | 2026-09-05 00:55:42 | 55.08237 | 19.72714 | 0° | 0km/h | 2608m | 0m/s | -49.2°C | 0% | 16.8hPa | 2.7V | 03:01:17 | 02:25:56 | 00:00:00 | |
| DB0DAN | 2026-09-05 00:55:40 | 55.08237 | 19.72714 | 0° | 0km/h | 2608m | 0m/s | -49.1°C | 0.6% | 16.68hPa | 2.6V | 00:00:00 | 00:00:00 | 00:00:00 | |
| DF8AY | 2026-09-05 00:55:35 | 55.08237 | 19.72714 | 0° | 0km/h | 2608m | 0m/s | -48.3°C | 0% | 16.4hPa | 2.6V | 03:01:17 | 02:25:49 | 00:00:00 | |
| DL1XH-west | 2026-09-05 00:55:34 | 55.08237 | 19.72714 | 0° | 0km/h | 2608m | 0m/s | -48.3°C | 0% | 16.3hPa | 2.6V | 03:01:17 | 02:25:48 | 00:00:00 | |
| AA1-15 | 2026-09-05 00:55:33 | 55.08237 | 19.72714 | 0° | 0km/h | 2608m | 0m/s | -48.2°C | 0% | 16.3hPa | 2.6V | 03:01:17 | 02:25:47 | 00:00:00 | |
| HSKMA3-T | 2026-09-05 00:55:31 | 55.08237 | 19.72714 | 0° | 0km/h | 2608m | 0m/s | -48.1°C | 0% | 16.2hPa | 2.6V | 03:01:17 | 02:25:45 | 00:00:00 | |
| BIOWL1-15 | 2026-09-05 00:55:27 | 55.08237 | 19.72714 | 0° | 0km/h | 2608m | 0m/s | 0°C | 0% | 0hPa | 2.6V | 18:12:15 | 02:25:39 | 00:00:00 | |
| DB0DAN | 2026-09-05 00:55:25 | 55.08237 | 19.72714 | 0° | 0km/h | 2608m | 0m/s | -48.5°C | 0.6% | 15.83hPa | 2.6V | 00:00:00 | 00:00:00 | 00:00:00 | |
| DF8AY | 2026-09-05 00:55:25 | 55.08237 | 19.72714 | 0° | 0km/h | 2608m | 0m/s | -48.6°C | 0% | 15.8hPa | 2.6V | 03:01:17 | 02:25:38 | 00:00:00 | |
| DL1XH-west | 2026-09-05 00:55:23 | 55.08237 | 19.72714 | 0° | 0km/h | 2608m | 0m/s | -48.7°C | 0% | 15.7hPa | 2.6V | 03:01:17 | 02:25:37 | 00:00:00 | |
| AA1-15 | 2026-09-05 00:55:22 | 55.08237 | 19.72714 | 0° | 0km/h | 2608m | 0m/s | -48.7°C | 0% | 15.7hPa | 2.6V | 03:01:17 | 02:25:36 | 00:00:00 | |
| HSKMA3-T | 2026-09-05 00:55:21 | 55.08237 | 19.72714 | 0° | 0km/h | 2608m | 0m/s | -48.6°C | 0% | 15.6hPa | 2.6V | 03:01:17 | 02:25:35 | 00:00:00 | |
| DL1XH-west | 2026-09-05 00:55:13 | 55.08237 | 19.72714 | 0° | 0km/h | 2608m | 0m/s | -47.7°C | 0% | 15.2hPa | 2.6V | 03:01:17 | 02:25:27 | 00:00:00 | |
| AA1-15 | 2026-09-05 00:55:12 | 55.08237 | 19.72714 | 0° | 0km/h | 2608m | 0m/s | -47.6°C | 0% | 15.2hPa | 2.6V | 03:01:17 | 02:25:26 | 00:00:00 | |
| HSKMA3-T | 2026-09-05 00:55:11 | 55.08237 | 19.72714 | 0° | 0km/h | 2608m | 0m/s | -47.4°C | 0% | 15.1hPa | 2.6V | 03:01:17 | 02:25:25 | 00:00:00 | |
| DB0DAN | 2026-09-05 00:55:10 | 55.08237 | 19.72714 | 0° | 0km/h | 2608m | 0m/s | -47.3°C | 0.6% | 15hPa | 2.6V | 00:00:00 | 00:00:00 | 00:00:00 | |
| DF8AY | 2026-09-05 00:55:02 | 55.08237 | 19.72714 | 0° | 0km/h | 2608m | 0m/s | -45.9°C | 0% | 14.3hPa | 2.6V | 03:02:08 | 02:25:10 | 00:00:00 | |
| DL1XH-west | 2026-09-05 00:55:02 | 55.08237 | 19.72714 | 0° | 0km/h | 2608m | 0m/s | -46.4°C | 0% | 14.7hPa | 2.5V | 03:02:08 | 02:25:16 | 00:00:00 | |
| AA1-15 | 2026-09-05 00:55:01 | 55.08237 | 19.72714 | 0° | 0km/h | 2608m | 0m/s | -46.4°C | 0% | 14.6hPa | 2.5V | 03:02:08 | 02:25:15 | 00:00:00 | |
| HSKMA3-T | 2026-09-05 00:55:00 | 55.08237 | 19.72714 | 0° | 0km/h | 2608m | 0m/s | -46.4°C | 0% | 14.6hPa | 2.6V | 03:02:08 | 02:25:14 | 00:00:00 | |
| DB0DAN | 2026-09-05 00:54:55 | 55.08237 | 19.72714 | 0° | 0km/h | 2608m | 0m/s | -45.7°C | 0.4% | 14.29hPa | 2.6V | 00:00:00 | 00:00:00 | 00:00:00 | |
| DF8AY | 2026-09-05 00:54:52 | 55.08237 | 19.72714 | 0° | 0km/h | 2608m | 0m/s | -45.1°C | 0% | 14.1hPa | 2.6V | 03:02:08 | 02:25:06 | 00:00:00 | |
| DL1XH-west | 2026-09-05 00:54:51 | 55.08237 | 19.72714 | 0° | 0km/h | 2608m | 0m/s | -44.9°C | 0% | 14.1hPa | 2.5V | 03:02:08 | 02:25:05 | 00:00:00 | |
| HSKMA3-T | 2026-09-05 00:54:50 | 55.08237 | 19.72714 | 0° | 0km/h | 2608m | 0m/s | -44.7°C | 0% | 14hPa | 2.5V | 03:02:08 | 02:25:04 | 00:00:00 | |
| DF8AY | 2026-09-05 00:54:41 | 55.08237 | 19.72714 | 0° | 0km/h | 2608m | 0m/s | -44.8°C | 0% | 13.4hPa | 2.6V | 03:02:08 | 02:24:55 | 00:00:00 | |
| DL1XH-west | 2026-09-05 00:54:40 | 55.08237 | 19.72714 | 0° | 0km/h | 2608m | 0m/s | -44.7°C | 0% | 13.4hPa | 2.6V | 03:02:08 | 02:24:54 | 00:00:00 | |
| AA1-15 | 2026-09-05 00:54:39 | 55.08237 | 19.72714 | 0° | 0km/h | 2608m | 0m/s | -44.6°C | 0% | 13.3hPa | 2.6V | 03:02:08 | 02:24:53 | 00:00:00 | |
| DF8AY | 2026-09-05 00:54:30 | 55.08237 | 19.72714 | 0° | 0km/h | 2608m | 0m/s | -44.8°C | 0% | 12.5hPa | 2.6V | 03:02:08 | 02:24:40 | 00:00:00 | |
| DL1XH-west | 2026-09-05 00:54:29 | 55.08237 | 19.72714 | 0° | 0km/h | 2608m | 0m/s | -44.9°C | 0% | 12.7hPa | 2.6V | 03:02:08 | 02:24:43 | 00:00:00 | |
| AA1-15 | 2026-09-05 00:54:28 | 55.08237 | 19.72714 | 0° | 0km/h | 2608m | 0m/s | -44.7°C | 0% | 12.6hPa | 2.6V | 03:02:08 | 02:24:42 | 00:00:00 | |
| DB0DAN | 2026-09-05 00:54:25 | 55.08237 | 19.72714 | 0° | 0km/h | 2608m | 0m/s | -44.9°C | 0.5% | 12.46hPa | 2.6V | 00:00:00 | 00:00:00 | 00:00:00 | |
| DL1XH-west | 2026-09-05 00:54:18 | 55.08237 | 19.72714 | 0° | 0km/h | 2608m | 0m/s | -45°C | 0% | 12.1hPa | 2.6V | 03:02:08 | 02:24:32 | 00:00:00 | |
| HSKMA3-T | 2026-09-05 00:54:17 | 55.08237 | 19.72714 | 0° | 0km/h | 2608m | 0m/s | -45.1°C | 0% | 12hPa | 2.6V | 03:02:08 | 02:24:31 | 00:00:00 | |
| DB0DAN | 2026-09-05 00:54:10 | 55.08237 | 19.72714 | 0° | 0km/h | 2608m | 0m/s | -45°C | 0.5% | 11.72hPa | 2.6V | 00:00:00 | 00:00:00 | 00:00:00 | |
| DL1XH-west | 2026-09-05 00:54:08 | 55.08237 | 19.72714 | 0° | 0km/h | 2608m | 0m/s | -44.7°C | 0% | 11.6hPa | 2.6V | 03:02:59 | 02:24:21 | 00:00:00 | |
| AA1-15 | 2026-09-05 00:54:06 | 55.08237 | 19.72714 | 0° | 0km/h | 2608m | 0m/s | -44.5°C | 0% | 11.5hPa | 2.6V | 03:02:59 | 02:24:20 | 00:00:00 | |
| DF8AY | 2026-09-05 00:53:56 | 55.08237 | 19.72714 | 0° | 0km/h | 2608m | 0m/s | -44.4°C | 0% | 11hPa | 2.6V | 03:02:59 | 02:24:10 | 00:00:00 | |
| AA1-15 | 2026-09-05 00:53:55 | 55.08237 | 19.72714 | 0° | 0km/h | 2608m | 0m/s | -44°C | 0% | 11hPa | 2.6V | 03:02:59 | 02:24:09 | 00:00:00 | |
| DL1XH-west | 2026-09-05 00:53:46 | 55.08237 | 19.72714 | 0° | 0km/h | 2608m | 0m/s | -43°C | 0% | 10.5hPa | 2.6V | 03:02:59 | 02:24:00 | 00:00:00 | |
| DF8AY | 2026-09-05 00:53:45 | 55.08237 | 19.72714 | 0° | 0km/h | 2608m | 0m/s | -42.9°C | 0% | 10.4hPa | 2.6V | 03:02:59 | 02:23:59 | 00:00:00 | |
| AA1-15 | 2026-09-05 00:53:44 | 55.08237 | 19.72714 | 0° | 0km/h | 2608m | 0m/s | -42.8°C | 0% | 10.4hPa | 2.6V | 03:02:59 | 02:23:58 | 00:00:00 | |
| DB0DAN | 2026-09-05 00:53:40 | 55.08237 | 19.72714 | 0° | 0km/h | 2608m | 0m/s | -42.9°C | 0.4% | 10.2hPa | 2.6V | 00:00:00 | 00:00:00 | 00:00:00 | |
| DL1XH-west | 2026-09-05 00:53:36 | 55.08237 | 19.72714 | 0° | 0km/h | 2608m | 0m/s | -43.4°C | 0% | 10hPa | 2.6V | 03:02:59 | 02:23:50 | 00:00:00 | |
| DL1XH-west | 2026-09-05 00:53:25 | 55.08237 | 19.72714 | 0° | 0km/h | 2608m | 0m/s | -44.2°C | 0% | 9.5hPa | 2.6V | 03:02:59 | 02:23:40 | 00:00:00 | |
| DB0DAN | 2026-09-05 00:53:25 | 55.08237 | 19.72714 | 0° | 0km/h | 2608m | 0m/s | -44.3°C | 0.5% | 9.48hPa | 2.6V | 00:00:00 | 00:00:00 | 00:00:00 | |
| DF8AY | 2026-09-05 00:53:24 | 55.08237 | 19.72714 | 0° | 0km/h | 2608m | 0m/s | -44.3°C | 0% | 9.5hPa | 2.6V | 03:02:59 | 02:23:39 | 00:00:00 | |
| AA1-15 | 2026-09-05 00:53:23 | 55.08237 | 19.72714 | 0° | 0km/h | 2608m | 0m/s | -44.3°C | 0% | 9.4hPa | 2.6V | 03:03:50 | 02:23:38 | 00:00:00 | |
| DL1XH-west | 2026-09-05 00:53:15 | 55.08237 | 19.72714 | 0° | 0km/h | 2608m | 0m/s | -44.8°C | 0% | 9hPa | 2.5V | 03:03:50 | 02:23:30 | 00:00:00 | |
| DF8AY | 2026-09-05 00:53:14 | 55.08237 | 19.72714 | 0° | 0km/h | 2608m | 0m/s | -44.9°C | 0% | 9hPa | 2.6V | 03:03:50 | 02:23:29 | 00:00:00 | |
| HSKMA3-T | 2026-09-05 00:53:13 | 55.08237 | 19.72714 | 0° | 0km/h | 2608m | 0m/s | -44.8°C | 0% | 8.9hPa | 2.6V | 03:03:50 | 02:23:28 | 00:00:00 | |
| AA1-15 | 2026-09-05 00:53:12 | 55.08237 | 19.72714 | 0° | 0km/h | 2608m | 0m/s | -44.6°C | 0% | 8.9hPa | 2.6V | 03:03:50 | 02:23:27 | 00:00:00 | |
| DB0DAN | 2026-09-05 00:53:10 | 55.08237 | 19.72714 | 0° | 0km/h | 2608m | 0m/s | -44.4°C | 0.6% | 8.8hPa | 2.6V | 00:00:00 | 00:00:00 | 00:00:00 | |
| DB0DAN | 2026-09-05 00:53:10 | 55.08237 | 19.72714 | 0° | 0km/h | 2608m | 0m/s | -44.2°C | 0.5% | 8.76hPa | 2.6V | 00:00:00 | 00:00:00 | 00:00:00 | |
| DL1XH-west | 2026-09-05 00:53:04 | 55.08237 | 19.72714 | 0° | 0km/h | 2608m | 0m/s | -43.4°C | 0% | 8.6hPa | 2.6V | 03:03:50 | 02:23:19 | 00:00:00 | |
| HSKMA3-T | 2026-09-05 00:53:04 | 55.08237 | 19.72714 | 0° | 0km/h | 2608m | 0m/s | -43.2°C | 0% | 8.5hPa | 2.6V | 03:03:50 | 02:23:18 | 00:00:00 | |
| AA1-15 | 2026-09-05 00:53:02 | 55.08237 | 19.72714 | 0° | 0km/h | 2608m | 0m/s | -43°C | 0% | 8.5hPa | 2.6V | 03:03:50 | 02:23:17 | 00:00:00 | |
| DB0DAN | 2026-09-05 00:52:55 | 55.08237 | 19.72714 | 0° | 0km/h | 2608m | 0m/s | -41.8°C | 0.4% | 8.12hPa | 2.6V | 00:00:00 | 00:00:00 | 00:00:00 | |
| DF8AY | 2026-09-05 00:52:53 | 55.08237 | 19.72714 | 0° | 0km/h | 2608m | 0m/s | -41.3°C | 0% | 8.1hPa | 2.6V | 03:03:50 | 02:23:08 | 00:00:00 | |
| AA1-15 | 2026-09-05 00:52:52 | 55.08237 | 19.72714 | 0° | 0km/h | 2608m | 0m/s | -40.9°C | 0% | 8hPa | 2.6V | 03:03:50 | 02:23:07 | 00:00:00 | |
| DL1XH-west | 2026-09-05 00:52:42 | 55.08237 | 19.72714 | 0° | 0km/h | 2608m | 0m/s | -38.2°C | 0% | 7.6hPa | 2.6V | 03:03:50 | 02:22:57 | 00:00:00 | |
| HSKMA3-T | 2026-09-05 00:52:41 | 55.08237 | 19.72714 | 0° | 0km/h | 2608m | 0m/s | -38.1°C | 0% | 7.6hPa | 2.6V | 03:03:50 | 02:22:56 | 00:00:00 | |
| DB0DAN | 2026-09-05 00:52:40 | 55.08237 | 19.72714 | 0° | 0km/h | 2608m | 0m/s | -37.8°C | 0.3% | 7.49hPa | 2.6V | 00:00:00 | 00:00:00 | 00:00:00 | |
| HSKMA3-T | 2026-09-05 00:52:31 | 55.08237 | 19.72714 | 0° | 0km/h | 2608m | 0m/s | -37.2°C | 0% | 7.2hPa | 2.6V | 03:04:41 | 02:22:46 | 00:00:00 | |
| AA1-15 | 2026-09-05 00:52:30 | 55.08237 | 19.72714 | 0° | 0km/h | 2608m | 0m/s | -37.1°C | 0% | 7.2hPa | 2.5V | 03:04:41 | 02:22:45 | 00:00:00 | |
| DB0DAN | 2026-09-05 00:52:25 | 55.08237 | 19.72714 | 0° | 0km/h | 2608m | 0m/s | -36.2°C | 0.3% | 6.95hPa | 2.6V | 00:00:00 | 00:00:00 | 00:00:00 | |
| HSKMA3-T | 2026-09-05 00:52:21 | 55.08237 | 19.72714 | 0° | 0km/h | 2608m | 0m/s | -35.9°C | 0% | 6.8hPa | 2.6V | 03:04:41 | 02:22:36 | 00:00:00 | |
| AA1-15 | 2026-09-05 00:52:20 | 55.08237 | 19.72714 | 0° | 0km/h | 2608m | 0m/s | -35.8°C | 0% | 6.8hPa | 2.6V | 03:04:41 | 02:22:35 | 00:00:00 | |
| DB0DAN | 2026-09-05 00:52:10 | 55.08237 | 19.72714 | 0° | 0km/h | 2608m | 0m/s | -34.8°C | 0.2% | 6.41hPa | 2.6V | 00:00:00 | 00:00:00 | 00:00:00 | |
| DF8AY | 2026-09-05 00:52:10 | 55.08237 | 19.72714 | 0° | 0km/h | 2608m | 0m/s | -33.7°C | 0% | 6.2hPa | 2.6V | 03:04:41 | 02:22:18 | 00:00:00 | |
| AA1-15 | 2026-09-05 00:52:10 | 55.08237 | 19.72714 | 0° | 0km/h | 2608m | 0m/s | -34.8°C | 0% | 6.4hPa | 2.6V | 03:04:41 | 02:22:25 | 00:00:00 | |
| BIOWL1-15 | 2026-09-05 00:52:08 | 55.08237 | 19.72714 | 0° | 0km/h | 2608m | 0m/s | 0°C | 0% | 0hPa | 2.6V | 18:12:15 | 02:22:23 | 00:00:00 | |
| HSKMA3-T | 2026-09-05 00:52:00 | 55.08237 | 19.72714 | 0° | 0km/h | 2608m | 0m/s | -33.7°C | 0% | 6.2hPa | 2.6V | 03:04:41 | 02:22:15 | 00:00:00 | |
| BIOWL1-15 | 2026-09-05 00:52:00 | 55.08237 | 19.72714 | 0° | 0km/h | 2608m | 0m/s | 0°C | 0% | 0hPa | 2.6V | 18:12:15 | 02:22:13 | 00:00:00 | |
| DF8AY | 2026-09-05 00:51:56 | 55.08237 | 19.72714 | 0° | 0km/h | 2608m | 0m/s | -33.8°C | 0% | 6hPa | 2.6V | 03:04:41 | 02:22:10 | 00:00:00 | |
| DB0DAN | 2026-09-05 00:51:55 | 55.08237 | 19.72714 | 0° | 0km/h | 2608m | 0m/s | -33.8°C | 0.2% | 6.05hPa | 2.6V | 00:00:00 | 00:00:00 | 00:00:00 | |
| AA1-15 | 2026-09-05 00:51:49 | 55.08237 | 19.72714 | 0° | 0km/h | 2608m | 0m/s | -33.7°C | 0% | 5.9hPa | 2.6V | 03:04:41 | 02:22:04 | 00:00:00 | |
| DB0DAN | 2026-09-05 00:51:40 | 55.08237 | 19.72714 | 0° | 0km/h | 2608m | 0m/s | -32.7°C | 0.2% | 5.71hPa | 2.6V | 00:00:00 | 00:00:00 | 00:00:00 | |
| AA1-15 | 2026-09-05 00:51:39 | 55.08237 | 19.72714 | 0° | 0km/h | 2608m | 0m/s | -32.8°C | 0% | 5.8hPa | 2.6V | 03:05:32 | 02:21:54 | 00:00:00 | |
| DF8AY | 2026-09-05 00:51:34 | 55.08237 | 19.72714 | 0° | 0km/h | 2608m | 0m/s | -33.2°C | 0% | 5.7hPa | 2.6V | 03:05:32 | 02:21:49 | 00:00:00 | |
| AA1-15 | 2026-09-05 00:51:28 | 55.08237 | 19.72714 | 0° | 0km/h | 2608m | 0m/s | -33°C | 0% | 5.7hPa | 2.6V | 03:05:32 | 02:21:43 | 00:00:00 | |
| DB0DAN | 2026-09-05 00:51:25 | 55.08237 | 19.72714 | 0° | 0km/h | 2608m | 0m/s | -32.9°C | 0.2% | 5.69hPa | 2.6V | 00:00:00 | 00:00:00 | 00:00:00 | |
| DF8AY | 2026-09-05 00:51:22 | 55.08241 | 19.72740 | 255° | 29km/h | 2599m | 4.6m/s | -32.9°C | 0% | 5.7hPa | 2.6V | 03:05:32 | 02:21:37 | 00:00:00 | |
| DL1XH-west | 2026-09-05 00:51:18 | 55.08249 | 19.72790 | 255° | 29km/h | 2581m | 4.6m/s | -32.9°C | 0% | 5.7hPa | 2.6V | 03:05:32 | 02:21:33 | 00:00:00 | |
| DM0DOS-11 | 2026-09-05 00:51:18 | 55.08258 | 19.72853 | 254° | 29km/h | 2558m | 4.6m/s | -32.9°C | 1.4% | 5.7hPa | 2.6V | 03:05:10 | 02:21:28 | 00:00:00 | |
| AA1-15 | 2026-09-05 00:51:17 | 55.08251 | 19.72802 | 255° | 29km/h | 2576m | 4.6m/s | -32.9°C | 0% | 5.7hPa | 2.6V | 03:05:32 | 02:21:32 | 00:00:00 | |
| DL1XH-15 | 2026-09-05 00:51:15 | 55.08262 | 19.72883 | 278° | 13km/h | 2545m | 8m/s | -33°C | 1.4% | 5.8hPa | 2.7V | 03:05:13 | 02:21:25 | 00:00:00 | |
| DL1XH1-15 | 2026-09-05 00:51:13 | 55.08261 | 19.72899 | 264° | 15km/h | 2530m | 10m/s | -33.1°C | 1.4% | 5.8hPa | 2.6V | 03:05:15 | 02:21:23 | 00:00:00 | |
| DF8AY | 2026-09-05 00:51:12 | 55.08260 | 19.72864 | 269° | 24km/h | 2553m | 4.8m/s | -33°C | 0% | 5.7hPa | 2.6V | 03:05:32 | 02:21:27 | 00:00:00 | |
| DB0DAN | 2026-09-05 00:51:10 | 55.08262 | 19.72883 | 278° | 13km/h | 2545m | 8m/s | -33°C | 0.2% | 5.76hPa | 2.7V | 00:00:00 | 00:00:00 | 00:00:00 | |
| DL1XH-15 | 2026-09-05 00:51:10 | 55.08259 | 19.72918 | 250° | 11km/h | 2510m | 11.2m/s | -33.2°C | 1.5% | 5.7hPa | 2.7V | 03:05:18 | 02:21:20 | 00:00:00 | |
| DL1XH1-15 | 2026-09-05 00:51:08 | 55.08255 | 19.72927 | 237° | 15km/h | 2487m | 11.7m/s | -33.3°C | 1.5% | 5.8hPa | 2.7V | 03:05:20 | 02:21:18 | 00:00:00 | |
| DL1XH-west | 2026-09-05 00:51:08 | 55.08258 | 19.72909 | 254° | 11km/h | 2529m | 10.3m/s | -33.1°C | 0% | 5.7hPa | 2.6V | 03:05:32 | 02:21:22 | 00:00:00 | |
| AA1-15 | 2026-09-05 00:51:06 | 55.08259 | 19.72914 | 251° | 9km/h | 2523m | 11.5m/s | -33.1°C | 0% | 5.8hPa | 2.6V | 03:05:32 | 02:21:21 | 00:00:00 | |
| DL1XH-15 | 2026-09-05 00:51:05 | 55.08258 | 19.72949 | 266° | 13km/h | 2470m | 8.2m/s | -33.3°C | 1.4% | 5.8hPa | 2.7V | 03:05:23 | 02:21:15 | 00:00:00 | |
| DL1XH1-15 | 2026-09-05 00:51:03 | 55.08253 | 19.72969 | 284° | 18km/h | 2452m | 5.2m/s | -33.3°C | 1.5% | 5.8hPa | 2.6V | 03:05:26 | 02:21:12 | 00:00:00 | |
| DF8AY | 2026-09-05 00:51:02 | 55.08255 | 19.72938 | 242° | 11km/h | 2487m | 10.1m/s | -33.3°C | 0% | 5.8hPa | 2.6V | 03:05:32 | 02:21:17 | 00:00:00 | |
| DL1NUX | 2026-09-05 00:51:02 | 55.08253 | 19.72969 | 284° | 18km/h | 2452m | 5.2m/s | -33.3°C | 1.5% | 5.8hPa | 2.6V | 03:05:26 | 02:21:12 | 00:00:00 | |
| DL1XH-15 | 2026-09-05 00:51:00 | 55.08252 | 19.72983 | 257° | 13km/h | 2436m | 8.2m/s | -33.3°C | 1.5% | 5.8hPa | 2.6V | 03:05:28 | 02:21:10 | 00:00:00 | |
| DL1NUX | 2026-09-05 00:50:57 | 55.08250 | 19.73003 | 239° | 11km/h | 2417m | 11.2m/s | -33.3°C | 1.5% | 5.8hPa | 2.6V | 03:05:31 | 02:21:07 | 00:00:00 | |
| DL1XH-west | 2026-09-05 00:50:56 | 55.08253 | 19.72976 | 273° | 16km/h | 2444m | 5.8m/s | -33.3°C | 0% | 5.8hPa | 2.6V | 03:05:32 | 02:21:11 | 00:00:00 | |
| DB0DAN | 2026-09-05 00:50:55 | 55.08252 | 19.72983 | 258° | 13km/h | 2436m | 8.2m/s | -33.3°C | 0.2% | 5.84hPa | 2.6V | 00:00:00 | 00:00:00 | 00:00:00 | |
| HSKMA3-T | 2026-09-05 00:50:55 | 55.08252 | 19.72983 | 258° | 13km/h | 2436m | 8.2m/s | -33.3°C | 0% | 5.8hPa | 2.6V | 03:05:32 | 02:21:10 | 00:00:00 | |
| DF8AY | 2026-09-05 00:50:52 | 55.08248 | 19.73013 | 224° | 13km/h | 2411m | 11.8m/s | -33.4°C | 0% | 5.8hPa | 2.6V | 03:05:32 | 02:21:06 | 00:00:00 | |
| DL1XH1-15 | 2026-09-05 00:50:51 | 55.08256 | 19.73029 | 283° | 16km/h | 2381m | 4.5m/s | -33.4°C | 1.5% | 5.8hPa | 2.6V | 03:05:36 | 02:21:02 | 00:00:00 | |
| DL1XH-west | 2026-09-05 00:50:46 | 55.08256 | 19.73035 | 298° | 20km/h | 2376m | 2.7m/s | -33.5°C | 0% | 5.9hPa | 2.6V | 03:06:23 | 02:21:01 | 00:00:00 | |
| HSKMA3-T | 2026-09-05 00:50:45 | 55.08257 | 19.73043 | 293° | 24km/h | 2371m | 2.8m/s | -33.5°C | 0% | 5.9hPa | 2.7V | 03:06:23 | 02:21:00 | 00:00:00 | |
| DL1XH1-15 | 2026-09-05 00:50:44 | 55.08263 | 19.73060 | 256° | 15km/h | 2348m | 9.5m/s | -33.5°C | 1.5% | 5.9hPa | 2.6V | 03:05:41 | 02:20:57 | 00:00:00 | |
| DB0DAN | 2026-09-05 00:50:40 | 55.08267 | 19.73072 | 207° | 13km/h | 2320m | 16.9m/s | -33.6°C | 0.2% | 5.91hPa | 2.6V | 00:00:00 | 00:00:00 | 00:00:00 | |
| DF8AY | 2026-09-05 00:50:40 | 55.08267 | 19.73072 | 207° | 15km/h | 2320m | 16.9m/s | -33.6°C | 0% | 5.9hPa | 2.6V | 03:06:23 | 02:20:55 | 00:00:00 | |
| DL1XH-15 | 2026-09-05 00:50:40 | 55.08266 | 19.73103 | 266° | 15km/h | 2255m | 4.4m/s | -33.7°C | 1.5% | 5.9hPa | 2.6V | 03:05:48 | 02:20:50 | 00:00:00 | |
| DL1XH1-15 | 2026-09-05 00:50:37 | 55.08270 | 19.73088 | 212° | 16km/h | 2273m | 13.4m/s | -33.6°C | 1.5% | 5.9hPa | 2.6V | 03:05:46 | 02:20:52 | 00:00:00 | |
| DL1NUX | 2026-09-05 00:50:37 | 55.08260 | 19.73126 | 290° | 22km/h | 2237m | 1.4m/s | -33.8°C | 1.5% | 5.9hPa | 2.6V | 03:05:51 | 02:20:47 | 00:00:00 | |
| DL1XH-west | 2026-09-05 00:50:36 | 55.08265 | 19.73109 | 290° | 18km/h | 2252m | 1.4m/s | -33.7°C | 0% | 5.9hPa | 2.6V | 03:06:23 | 02:20:49 | 00:00:00 | |
| DL1XH-15 | 2026-09-05 00:50:35 | 55.08259 | 19.73141 | 282° | 15km/h | 2215m | 6.5m/s | -33.8°C | 1.5% | 5.9hPa | 2.6V | 03:05:53 | 02:20:45 | 00:00:00 | |
| HSKMA3-T | 2026-09-05 00:50:35 | 55.08266 | 19.73103 | 267° | 15km/h | 2255m | 4.4m/s | -33.7°C | 0% | 5.9hPa | 2.6V | 03:06:23 | 02:20:50 | 00:00:00 | |
| AA1-15 | 2026-09-05 00:50:35 | 55.08262 | 19.73118 | 296° | 22km/h | 2245m | 1m/s | -33.8°C | 0% | 5.9hPa | 2.6V | 03:06:23 | 02:20:48 | 00:00:00 | |
| DL1NUX | 2026-09-05 00:50:32 | 55.08261 | 19.73154 | 237° | 9km/h | 2179m | 16.7m/s | -33.8°C | 1.5% | 5.9hPa | 2.6V | 03:05:56 | 02:20:42 | 00:00:00 | |
| DF8AY | 2026-09-05 00:50:30 | 55.08259 | 19.73146 | 267° | 13km/h | 2203m | 10.5m/s | -33.9°C | 0% | 5.9hPa | 2.6V | 03:06:23 | 02:20:44 | 00:00:00 | |
| DL1XH-15 | 2026-09-05 00:50:28 | 55.08256 | 19.73171 | 185° | 16km/h | 2169m | 17.3m/s | -33.8°C | 1.5% | 6hPa | 2.6V | 03:05:58 | 02:20:40 | 00:00:00 | |
| DL1NUX | 2026-09-05 00:50:27 | 55.08241 | 19.73213 | 268° | 16km/h | 2222m | 8m/s | -33.7°C | 1.5% | 6hPa | 2.6V | 03:06:01 | 02:20:37 | 00:00:00 | |
| DB0DAN | 2026-09-05 00:50:25 | 55.08256 | 19.73171 | 185° | 16km/h | 2169m | 17.3m/s | -33.8°C | 0.2% | 5.96hPa | 2.6V | 00:00:00 | 00:00:00 | 00:00:00 | |
| HSKMA3-T | 2026-09-05 00:50:24 | 55.08241 | 19.73198 | 269° | 16km/h | 2238m | 8m/s | -33.8°C | 0% | 6hPa | 2.6V | 03:06:23 | 02:20:39 | 00:00:00 | |
| AA1-15 | 2026-09-05 00:50:23 | 55.08241 | 19.73206 | 269° | 16km/h | 2230m | 8m/s | -33.7°C | 0% | 6hPa | 2.6V | 03:06:23 | 02:20:38 | 00:00:00 | |
| DL1XH1-15 | 2026-09-05 00:50:22 | 55.08241 | 19.73240 | 289° | 20km/h | 2185m | 3.9m/s | -33.7°C | 1.5% | 6hPa | 2.6V | 03:06:06 | 02:20:32 | 00:00:00 | |
| DL1XH-15 | 2026-09-05 00:50:18 | 55.08232 | 19.73286 | 175° | 16km/h | 2143m | 17.8m/s | -33.7°C | 1.5% | 6hPa | 2.6V | 03:06:11 | 02:20:27 | 00:00:00 | |
| DL1XH1-15 | 2026-09-05 00:50:17 | 55.08232 | 19.73286 | 175° | 16km/h | 2143m | 17.8m/s | -33.7°C | 1.5% | 6hPa | 2.6V | 03:06:11 | 02:20:27 | 00:00:00 | |
| AA1-15 | 2026-09-05 00:50:13 | 55.08232 | 19.73286 | 175° | 16km/h | 2143m | 17.8m/s | -33.7°C | 0% | 6hPa | 2.6V | 03:06:23 | 02:20:27 | 00:00:00 | |
| HSKMA3-T | 2026-09-05 00:50:13 | 55.08234 | 19.73277 | 200° | 15km/h | 2153m | 17.3m/s | -33.7°C | 0% | 6hPa | 2.6V | 03:06:23 | 02:20:28 | 00:00:00 | |
| DB0DAN | 2026-09-05 00:50:10 | 55.08234 | 19.73299 | 206° | 11km/h | 2120m | 14.7m/s | -33.7°C | 0.2% | 6.03hPa | 2.6V | 00:00:00 | 00:00:00 | 00:00:00 | |
| HSKMA3-T | 2026-09-05 00:50:03 | 55.08234 | 19.73343 | 271° | 15km/h | 2056m | 5.9m/s | -33.8°C | 0% | 6.1hPa | 2.6V | 03:06:23 | 02:20:18 | 00:00:00 | |
| DF8AY | 2026-09-05 00:50:02 | 55.08231 | 19.73347 | 266° | 15km/h | 2053m | 9.1m/s | -33.8°C | 0% | 6.1hPa | 2.6V | 03:06:23 | 02:20:17 | 00:00:00 | |
| DB0DAN | 2026-09-05 00:49:55 | 55.08229 | 19.73386 | 257° | 13km/h | 2015m | 10.5m/s | -33.7°C | 0.2% | 6.08hPa | 2.6V | 00:00:00 | 00:00:00 | 00:00:00 | |
| HSKMA3-T | 2026-09-05 00:49:52 | 55.08234 | 19.73394 | 274° | 15km/h | 1976m | 6.7m/s | -33.7°C | 0% | 6.1hPa | 2.6V | 03:07:14 | 02:20:07 | 00:00:00 | |
| DL1XH-west | 2026-09-05 00:49:51 | 55.08233 | 19.73400 | 275° | 18km/h | 1969m | 6.8m/s | -33.7°C | 0% | 6.1hPa | 2.6V | 03:07:14 | 02:20:06 | 00:00:00 | |
| DL1XH-west | 2026-09-05 00:49:50 | 55.08233 | 19.73405 | 277° | 16km/h | 1960m | 6.7m/s | -33.7°C | 0% | 6.2hPa | 2.6V | 03:07:14 | 02:20:05 | 00:00:00 | |
| AA1-15 | 2026-09-05 00:49:49 | 55.08233 | 19.73411 | 269° | 15km/h | 1951m | 8.3m/s | -33.7°C | 0% | 6.2hPa | 2.6V | 03:07:14 | 02:20:04 | 00:00:00 | |
| DF8AY | 2026-09-05 00:49:48 | 55.08233 | 19.73416 | 259° | 11km/h | 1940m | 10m/s | -33.7°C | 0% | 6.2hPa | 2.6V | 03:07:14 | 02:20:03 | 00:00:00 | |
| AA1-15 | 2026-09-05 00:49:47 | 55.08233 | 19.73420 | 230° | 15km/h | 1927m | 11.9m/s | -33.8°C | 0% | 6.1hPa | 2.6V | 03:07:14 | 02:20:02 | 00:00:00 | |
| AA1-15 | 2026-09-05 00:49:46 | 55.08233 | 19.73426 | 231° | 13km/h | 1910m | 12.1m/s | -33.8°C | 0% | 6.2hPa | 2.6V | 03:07:14 | 02:20:01 | 00:00:00 | |
| DL1XH-west | 2026-09-05 00:49:45 | 55.08232 | 19.73433 | 232° | 11km/h | 1903m | 12.3m/s | -33.8°C | 0% | 6.2hPa | 2.6V | 03:07:14 | 02:20:00 | 00:00:00 | |
| DL1XH-west | 2026-09-05 00:49:44 | 55.08230 | 19.73439 | 233° | 11km/h | 1896m | 12.3m/s | -33.8°C | 0% | 6.1hPa | 2.6V | 03:07:14 | 02:19:59 | 00:00:00 | |
| AA1-15 | 2026-09-05 00:49:43 | 55.08230 | 19.73444 | 240° | 11km/h | 1885m | 12.1m/s | -33.8°C | 0% | 6.2hPa | 2.7V | 03:07:14 | 02:19:58 | 00:00:00 | |
| DL1XH-west | 2026-09-05 00:49:42 | 55.08228 | 19.73451 | 249° | 15km/h | 1874m | 10.4m/s | -33.8°C | 0% | 6.2hPa | 2.7V | 03:07:14 | 02:19:57 | 00:00:00 | |
| HSKMA3-T | 2026-09-05 00:49:41 | 55.08226 | 19.73460 | 275° | 15km/h | 1867m | 8m/s | -33.8°C | 0% | 6.2hPa | 2.6V | 03:07:14 | 02:19:56 | 00:00:00 | |
| DF8AY | 2026-09-05 00:49:41 | 55.08225 | 19.73467 | 264° | 11km/h | 1858m | 5.1m/s | -33.8°C | 0% | 6.2hPa | 2.6V | 03:07:14 | 02:19:55 | 00:00:00 | |
| DB0DAN | 2026-09-05 00:49:40 | 55.08225 | 19.73467 | 264° | 11km/h | 1858m | 5.1m/s | -33.8°C | 0.2% | 6.2hPa | 2.6V | 00:00:00 | 00:00:00 | 00:00:00 | |
| DL1XH-west | 2026-09-05 00:49:39 | 55.08227 | 19.73471 | 274° | 15km/h | 1848m | 6.2m/s | -33.8°C | 0% | 6.2hPa | 2.6V | 03:07:14 | 02:19:54 | 00:00:00 | |
| DF8AY | 2026-09-05 00:49:38 | 55.08226 | 19.73481 | 285° | 20km/h | 1849m | 5.3m/s | -33.8°C | 0% | 6.2hPa | 2.6V | 03:07:14 | 02:19:53 | 00:00:00 | |
| DL1XH-west | 2026-09-05 00:49:37 | 55.08227 | 19.73491 | 272° | 16km/h | 1846m | 4.5m/s | -33.8°C | 0% | 6.2hPa | 2.6V | 03:07:14 | 02:19:52 | 00:00:00 | |
| DL1XH-west | 2026-09-05 00:49:36 | 55.08227 | 19.73498 | 251° | 16km/h | 1839m | 6m/s | -33.8°C | 0% | 6.2hPa | 2.6V | 03:07:14 | 02:19:51 | 00:00:00 | |
| AA1-15 | 2026-09-05 00:49:35 | 55.08227 | 19.73503 | 255° | 13km/h | 1827m | 9.3m/s | -33.8°C | 0% | 6.2hPa | 2.6V | 03:07:14 | 02:19:50 | 00:00:00 | |
| DL1XH-west | 2026-09-05 00:49:34 | 55.08230 | 19.73506 | 242° | 11km/h | 1813m | 11.7m/s | -33.9°C | 0% | 6.2hPa | 2.6V | 03:07:14 | 02:19:49 | 00:00:00 | |
| AA1-15 | 2026-09-05 00:49:34 | 55.08231 | 19.73511 | 240° | 13km/h | 1798m | 12.8m/s | -33.9°C | 0% | 6.2hPa | 2.6V | 03:07:14 | 02:19:48 | 00:00:00 | |
| AA1-15 | 2026-09-05 00:49:32 | 55.08231 | 19.73517 | 267° | 11km/h | 1783m | 13.4m/s | -33.9°C | 0% | 6.2hPa | 2.6V | 03:07:14 | 02:19:47 | 00:00:00 | |
| DL1XH-west | 2026-09-05 00:49:31 | 55.08225 | 19.73527 | 213° | 15km/h | 1779m | 13.9m/s | -34°C | 0% | 6.2hPa | 2.7V | 03:07:14 | 02:19:46 | 00:00:00 | |
| DF8AY | 2026-09-05 00:49:30 | 55.08226 | 19.73532 | 223° | 13km/h | 1770m | 12.1m/s | -34°C | 0% | 6.2hPa | 2.6V | 03:07:14 | 02:19:45 | 00:00:00 | |
| AA1-15 | 2026-09-05 00:49:29 | 55.08227 | 19.73538 | 255° | 13km/h | 1762m | 9.8m/s | -34.1°C | 0% | 6.3hPa | 2.6V | 03:07:14 | 02:19:44 | 00:00:00 | |
| AA1-15 | 2026-09-05 00:49:28 | 55.08229 | 19.73544 | 281° | 16km/h | 1756m | 7.5m/s | -34.2°C | 0% | 6.2hPa | 2.6V | 03:07:14 | 02:19:43 | 00:00:00 | |
| DL1XH-west | 2026-09-05 00:49:27 | 55.08229 | 19.73552 | 290° | 16km/h | 1756m | 6m/s | -34.2°C | 0% | 6.3hPa | 2.7V | 03:07:14 | 02:19:42 | 00:00:00 | |
| AA1-15 | 2026-09-05 00:49:26 | 55.08228 | 19.73559 | 282° | 16km/h | 1750m | 5.8m/s | -34.3°C | 0% | 6.2hPa | 2.6V | 03:07:14 | 02:19:41 | 00:00:00 | |
| DB0DAN | 2026-09-05 00:49:25 | 55.08228 | 19.73569 | 285° | 16km/h | 1761m | 5.4m/s | -34.4°C | 0.2% | 6.26hPa | 2.6V | 00:00:00 | 00:00:00 | 00:00:00 | |
| DL1XH-west | 2026-09-05 00:49:25 | 55.08228 | 19.73569 | 285° | 18km/h | 1761m | 5.4m/s | -34.4°C | 0% | 6.3hPa | 2.6V | 03:07:14 | 02:19:40 | 00:00:00 | |
| AA1-15 | 2026-09-05 00:49:24 | 55.08230 | 19.73573 | 278° | 18km/h | 1750m | 5.8m/s | -34.5°C | 0% | 6.3hPa | 2.6V | 03:07:14 | 02:19:39 | 00:00:00 | |
| DF8AY | 2026-09-05 00:49:23 | 55.08233 | 19.73576 | 262° | 11km/h | 1739m | 6.9m/s | -34.6°C | 0% | 6.2hPa | 2.7V | 03:07:14 | 02:19:38 | 00:00:00 | |
| AA1-15 | 2026-09-05 00:49:22 | 55.08232 | 19.73581 | 248° | 11km/h | 1727m | 10.1m/s | -34.6°C | 0% | 6.2hPa | 2.7V | 03:07:14 | 02:19:37 | 00:00:00 | |
| DL1XH-west | 2026-09-05 00:49:21 | 55.08237 | 19.73583 | 234° | 11km/h | 1713m | 12.2m/s | -34.7°C | 0% | 6.3hPa | 2.6V | 03:07:14 | 02:19:36 | 00:00:00 | |
| DF8AY | 2026-09-05 00:49:20 | 55.08236 | 19.73587 | 239° | 7km/h | 1704m | 13.2m/s | -34.7°C | 0% | 6.2hPa | 2.6V | 03:07:14 | 02:19:35 | 00:00:00 | |
| DL1XH-west | 2026-09-05 00:49:19 | 55.08236 | 19.73592 | 228° | 13km/h | 1691m | 13.2m/s | -34.8°C | 0% | 6.3hPa | 2.6V | 03:07:14 | 02:19:34 | 00:00:00 | |
| DL1XH-west | 2026-09-05 00:49:18 | 55.08235 | 19.73597 | 225° | 11km/h | 1680m | 14m/s | -34.8°C | 0% | 6.3hPa | 2.6V | 03:07:14 | 02:19:33 | 00:00:00 | |
| DF8AY | 2026-09-05 00:49:18 | 55.08237 | 19.73602 | 223° | 13km/h | 1670m | 12.9m/s | -34.9°C | 0% | 6.3hPa | 2.7V | 03:07:14 | 02:19:32 | 00:00:00 | |
| DL1NUX | 2026-09-05 00:49:18 | 55.08241 | 19.73608 | 271° | 16km/h | 1645m | 8.8m/s | -35°C | 1.5% | 6.3hPa | 2.6V | 03:07:08 | 02:19:30 | 00:00:00 | |
| DL1XH-west | 2026-09-05 00:49:16 | 55.08239 | 19.73604 | 252° | 11km/h | 1656m | 10.5m/s | -34.9°C | 0% | 6.3hPa | 2.7V | 03:07:14 | 02:19:31 | 00:00:00 | |
| AA1-15 | 2026-09-05 00:49:15 | 55.08241 | 19.73608 | 272° | 16km/h | 1645m | 8.8m/s | -35°C | 0% | 6.3hPa | 2.6V | 03:07:14 | 02:19:30 | 00:00:00 | |
| AA1-15 | 2026-09-05 00:49:14 | 55.08241 | 19.73615 | 269° | 13km/h | 1638m | 7.9m/s | -35°C | 0% | 6.3hPa | 2.6V | 03:07:14 | 02:19:29 | 00:00:00 | |
| AA1-15 | 2026-09-05 00:49:12 | 55.08240 | 19.73629 | 277° | 15km/h | 1626m | 7m/s | -35.1°C | 0% | 6.3hPa | 2.6V | 03:07:14 | 02:19:27 | 00:00:00 | |
| DL1XH-west | 2026-09-05 00:49:11 | 55.08235 | 19.73644 | 269° | 15km/h | 1633m | 7.9m/s | -35.2°C | 0% | 6.3hPa | 2.6V | 03:07:14 | 02:19:26 | 00:00:00 | |
| DB0DAN | 2026-09-05 00:49:10 | 55.08235 | 19.73650 | 263° | 15km/h | 1624m | 8.7m/s | -35.2°C | 0.3% | 6.31hPa | 2.6V | 00:00:00 | 00:00:00 | 00:00:00 | |
| DL1XH-west | 2026-09-05 00:49:10 | 55.08235 | 19.73650 | 263° | 15km/h | 1624m | 8.7m/s | -35.2°C | 0% | 6.3hPa | 2.6V | 03:07:14 | 02:19:25 | 00:00:00 | |
| DF8AY | 2026-09-05 00:49:09 | 55.08236 | 19.73655 | 273° | 13km/h | 1614m | 9.5m/s | -35.3°C | 0% | 6.3hPa | 2.6V | 03:07:14 | 02:19:24 | 00:00:00 | |
| DL1XH-west | 2026-09-05 00:49:08 | 55.08233 | 19.73662 | 238° | 11km/h | 1607m | 11m/s | -35.4°C | 0% | 6.3hPa | 2.6V | 03:08:05 | 02:19:23 | 00:00:00 | |
| AA1-15 | 2026-09-05 00:49:07 | 55.08236 | 19.73666 | 244° | 11km/h | 1599m | 11.6m/s | -35.4°C | 0% | 6.3hPa | 2.6V | 03:08:05 | 02:19:22 | 00:00:00 | |
| DL1XH-west | 2026-09-05 00:49:06 | 55.08237 | 19.73676 | 281° | 37km/h | 1592m | 12.4m/s | -35.5°C | 0% | 6.3hPa | 2.6V | 03:08:05 | 02:19:21 | 00:00:00 | |
| AA1-15 | 2026-09-05 00:49:05 | 55.08234 | 19.73707 | 267° | 93km/h | 1586m | 9.3m/s | -35.6°C | 0% | 6.3hPa | 2.6V | 03:08:05 | 02:19:20 | 00:00:00 | |
| AA1-15 | 2026-09-05 00:49:04 | 55.08237 | 19.73748 | 261° | 97km/h | 1576m | 7.7m/s | -35.6°C | 0% | 6.3hPa | 2.6V | 03:08:05 | 02:19:19 | 00:00:00 | |
| DL1XH-west | 2026-09-05 00:49:03 | 55.08241 | 19.73791 | 254° | 97km/h | 1569m | 7.8m/s | -35.6°C | 0% | 6.3hPa | 2.6V | 03:08:05 | 02:19:18 | 00:00:00 | |
| DF8AY | 2026-09-05 00:49:03 | 55.08246 | 19.73833 | 248° | 95km/h | 1561m | 7.8m/s | -35.6°C | 0% | 6.3hPa | 2.7V | 03:08:05 | 02:19:17 | 00:00:00 | |
| AA1-15 | 2026-09-05 00:49:01 | 55.08257 | 19.73869 | 241° | 99km/h | 1548m | 8.4m/s | -35.6°C | 0% | 6.4hPa | 2.7V | 03:08:05 | 02:19:16 | 00:00:00 | |
| DF8AY | 2026-09-05 00:49:01 | 55.08346 | 19.74013 | 211° | 99km/h | 1497m | 10.2m/s | -35.7°C | 0% | 6.3hPa | 2.6V | 03:08:05 | 02:19:11 | 00:00:00 | |
| AA1-15 | 2026-09-05 00:49:00 | 55.08271 | 19.73903 | 236° | 95km/h | 1539m | 9m/s | -35.6°C | 0% | 6.3hPa | 2.6V | 03:08:05 | 02:19:15 | 00:00:00 | |
| DL1XH-west | 2026-09-05 00:48:58 | 55.08304 | 19.73967 | 223° | 95km/h | 1520m | 9.8m/s | -35.6°C | 0% | 6.3hPa | 2.6V | 03:08:05 | 02:19:13 | 00:00:00 | |
| DL1XH-west | 2026-09-05 00:48:57 | 55.08325 | 19.73991 | 216° | 97km/h | 1509m | 10.1m/s | -35.6°C | 0% | 6.3hPa | 2.7V | 03:08:05 | 02:19:12 | 00:00:00 | |
| DB0DAN | 2026-09-05 00:48:55 | 55.08368 | 19.74032 | 206° | 91km/h | 1486m | 8.8m/s | -35.7°C | 0.2% | 6.36hPa | 2.6V | 00:00:00 | 00:00:00 | 00:00:00 | |
| DL1XH-west | 2026-09-05 00:48:55 | 55.08368 | 19.74032 | 206° | 95km/h | 1486m | 8.8m/s | -35.7°C | 0% | 6.4hPa | 2.6V | 03:08:05 | 02:19:10 | 00:00:00 | |
| AA1-15 | 2026-09-05 00:48:54 | 55.08390 | 19.74046 | 200° | 97km/h | 1479m | 9m/s | -35.7°C | 0% | 6.4hPa | 2.6V | 03:08:05 | 02:19:09 | 00:00:00 | |
| DL1XH-west | 2026-09-05 00:48:53 | 55.08410 | 19.74062 | 193° | 99km/h | 1476m | 9m/s | -35.8°C | 0% | 6.4hPa | 2.7V | 03:08:05 | 02:19:08 | 00:00:00 | |
| DL1XH-west | 2026-09-05 00:48:52 | 55.08431 | 19.74072 | 186° | 102km/h | 1470m | 11m/s | -35.8°C | 0% | 6.4hPa | 2.6V | 03:08:05 | 02:19:07 | 00:00:00 | |
| DF8AY | 2026-09-05 00:48:51 | 55.08454 | 19.74075 | 178° | 111km/h | 1462m | 12.5m/s | -35.8°C | 0% | 6.4hPa | 2.6V | 03:08:05 | 02:19:06 | 00:00:00 | |
| DF8AY | 2026-09-05 00:48:50 | 55.08480 | 19.74074 | 172° | 108km/h | 1452m | 13.5m/s | -35.9°C | 0% | 6.4hPa | 2.6V | 03:08:05 | 02:19:05 | 00:00:00 | |
| HSKMA3-T | 2026-09-05 00:48:49 | 55.08503 | 19.74070 | 167° | 102km/h | 1446m | 11.2m/s | -35.9°C | 0% | 6.4hPa | 2.6V | 03:08:05 | 02:19:04 | 00:00:00 | |
| DL1XH-west | 2026-09-05 00:48:48 | 55.08525 | 19.74062 | 163° | 99km/h | 1444m | 7.5m/s | -35.9°C | 0% | 6.4hPa | 2.6V | 03:08:05 | 02:19:03 | 00:00:00 | |
| DL1XH-west | 2026-09-05 00:48:47 | 55.08547 | 19.74049 | 157° | 100km/h | 1437m | 10m/s | -36°C | 0% | 6.4hPa | 2.6V | 03:08:05 | 02:19:02 | 00:00:00 | |
| DL1XH-west | 2026-09-05 00:48:46 | 55.08568 | 19.74028 | 152° | 97km/h | 1426m | 8.9m/s | -36°C | 0% | 6.4hPa | 2.6V | 03:08:05 | 02:19:01 | 00:00:00 | |
| DL1XH-west | 2026-09-05 00:48:45 | 55.08585 | 19.74006 | 147° | 102km/h | 1424m | 11.5m/s | -36°C | 0% | 6.4hPa | 2.6V | 03:08:05 | 02:19:00 | 00:00:00 | |
| DF8AY | 2026-09-05 00:48:44 | 55.08604 | 19.73977 | 141° | 110km/h | 1413m | 12.8m/s | -36.1°C | 0% | 6.4hPa | 2.6V | 03:08:05 | 02:18:59 | 00:00:00 | |
| DL1XH-west | 2026-09-05 00:48:43 | 55.08624 | 19.73947 | 136° | 119km/h | 1406m | 14.8m/s | -36.1°C | 0% | 6.4hPa | 2.6V | 03:08:05 | 02:18:58 | 00:00:00 | |
| AA1-15 | 2026-09-05 00:48:42 | 55.08643 | 19.73912 | 127° | 110km/h | 1394m | 13.6m/s | -36.2°C | 0% | 6.4hPa | 2.6V | 03:08:05 | 02:18:57 | 00:00:00 | |
| DL1XH-west | 2026-09-05 00:48:41 | 55.08655 | 19.73878 | 121° | 106km/h | 1387m | 12m/s | -36.2°C | 0% | 6.4hPa | 2.6V | 03:08:05 | 02:18:56 | 00:00:00 | |
| DB0DAN | 2026-09-05 00:48:40 | 55.08662 | 19.73847 | 116° | 93km/h | 1388m | 10.1m/s | -36.2°C | 0.3% | 6.42hPa | 2.6V | 00:00:00 | 00:00:00 | 00:00:00 | |
| AA1-15 | 2026-09-05 00:48:40 | 55.08662 | 19.73847 | 116° | 99km/h | 1388m | 10.1m/s | -36.2°C | 0% | 6.4hPa | 2.6V | 03:08:05 | 02:18:55 | 00:00:00 | |
| DF8AY | 2026-09-05 00:48:39 | 55.08667 | 19.73813 | 108° | 93km/h | 1387m | 8.1m/s | -36.2°C | 0% | 6.5hPa | 2.6V | 03:08:05 | 02:18:54 | 00:00:00 | |
| DF8AY | 2026-09-05 00:48:38 | 55.08670 | 19.73775 | 104° | 97km/h | 1384m | 6.2m/s | -36.2°C | 0% | 6.4hPa | 2.7V | 03:08:05 | 02:18:53 | 00:00:00 | |
| DL1XH-west | 2026-09-05 00:48:37 | 55.08674 | 19.73734 | 97° | 97km/h | 1377m | 6.4m/s | -36.2°C | 0% | 6.4hPa | 2.7V | 03:08:05 | 02:18:52 | 00:00:00 | |
| DF8AY | 2026-09-05 00:48:36 | 55.08676 | 19.73691 | 92° | 93km/h | 1370m | 7.3m/s | -36.2°C | 0% | 6.5hPa | 2.6V | 03:08:05 | 02:18:51 | 00:00:00 | |
| DL1XH-west | 2026-09-05 00:48:35 | 55.08675 | 19.73647 | 85° | 95km/h | 1363m | 7.6m/s | -36.2°C | 0% | 6.5hPa | 2.6V | 03:08:05 | 02:18:50 | 00:00:00 | |
| DL1XH-west | 2026-09-05 00:48:34 | 55.08672 | 19.73603 | 80° | 97km/h | 1353m | 8.6m/s | -36.3°C | 0% | 6.5hPa | 2.6V | 03:08:05 | 02:18:49 | 00:00:00 | |
| AA1-15 | 2026-09-05 00:48:33 | 55.08667 | 19.73560 | 77° | 97km/h | 1342m | 10.6m/s | -36.3°C | 0% | 6.4hPa | 2.6V | 03:08:05 | 02:18:48 | 00:00:00 | |
| DF8AY | 2026-09-05 00:48:32 | 55.08649 | 19.73478 | 68° | 97km/h | 1326m | 14.4m/s | -36.3°C | 0% | 6.5hPa | 2.7V | 03:08:05 | 02:18:46 | 00:00:00 | |
| AA1-15 | 2026-09-05 00:48:32 | 55.08660 | 19.73518 | 72° | 97km/h | 1331m | 12.4m/s | -36.3°C | 0% | 6.5hPa | 2.7V | 03:08:05 | 02:18:47 | 00:00:00 | |
| AA1-15 | 2026-09-05 00:48:30 | 55.08640 | 19.73434 | 62° | 99km/h | 1310m | 13.7m/s | -36.4°C | 0% | 6.5hPa | 2.6V | 03:08:05 | 02:18:45 | 00:00:00 | |
| DL1XH-west | 2026-09-05 00:48:28 | 55.08605 | 19.73368 | 42° | 97km/h | 1301m | 9.1m/s | -36.5°C | 0% | 6.5hPa | 2.6V | 03:08:05 | 02:18:43 | 00:00:00 | |
| DL1XH-west | 2026-09-05 00:48:27 | 55.08585 | 19.73341 | 35° | 93km/h | 1294m | 7.5m/s | -36.6°C | 0% | 6.5hPa | 2.7V | 03:08:05 | 02:18:42 | 00:00:00 | |
| DL1XH-west | 2026-09-05 00:48:26 | 55.08561 | 19.73320 | 30° | 97km/h | 1292m | 7.9m/s | -36.7°C | 0% | 6.5hPa | 2.6V | 03:08:05 | 02:18:41 | 00:00:00 | |
| DB0DAN | 2026-09-05 00:48:25 | 55.08538 | 19.73304 | 27° | 89km/h | 1296m | 6.5m/s | -36.8°C | 0.2% | 6.5hPa | 2.6V | 00:00:00 | 00:00:00 | 00:00:00 | |
| DL1XH-west | 2026-09-05 00:48:24 | 55.08515 | 19.73288 | 17° | 99km/h | 1296m | 7.6m/s | -36.8°C | 0% | 6.5hPa | 2.6V | 03:08:05 | 02:18:39 | 00:00:00 | |
| AA1-15 | 2026-09-05 00:48:23 | 55.08495 | 19.73277 | 15° | 86km/h | 1287m | 9.9m/s | -36.8°C | 0% | 6.5hPa | 2.6V | 03:08:05 | 02:18:38 | 00:00:00 | |
| DL1XH-west | 2026-09-05 00:48:22 | 55.08477 | 19.73271 | 10° | 73km/h | 1283m | 12m/s | -36.8°C | 0% | 6.5hPa | 2.6V | 03:08:05 | 02:18:37 | 00:00:00 | |
| AA1-15 | 2026-09-05 00:48:21 | 55.08456 | 19.73272 | 360° | 97km/h | 1287m | 7m/s | -36.9°C | 0% | 6.5hPa | 2.6V | 03:08:05 | 02:18:36 | 00:00:00 | |
| DL1XH-west | 2026-09-05 00:48:20 | 55.08433 | 19.73272 | 360° | 93km/h | 1279m | 8.8m/s | -36.9°C | 0% | 6.5hPa | 2.5V | 03:08:05 | 02:18:35 | 00:00:00 | |
| AA1-15 | 2026-09-05 00:48:19 | 55.08410 | 19.73272 | 2° | 93km/h | 1271m | 11.2m/s | -36.9°C | 0% | 6.5hPa | 2.6V | 03:08:05 | 02:18:34 | 00:00:00 | |
| DM0DOS-11 | 2026-09-05 00:48:19 | 55.08387 | 19.73274 | 2° | 88km/h | 1266m | 12.4m/s | -36.9°C | 1.7% | 6.5hPa | 2.6V | 03:08:05 | 02:18:33 | 00:00:00 | |
| AA1-15 | 2026-09-05 00:48:18 | 55.08387 | 19.73274 | 3° | 89km/h | 1266m | 12.4m/s | -36.9°C | 0% | 6.5hPa | 2.6V | 03:08:05 | 02:18:33 | 00:00:00 | |
| DF8AY | 2026-09-05 00:48:18 | 55.08364 | 19.73276 | 3° | 93km/h | 1262m | 12.8m/s | -36.9°C | 0% | 6.5hPa | 2.6V | 03:08:56 | 02:18:32 | 00:00:00 | |
| DL1XH-15 | 2026-09-05 00:48:17 | 55.08340 | 19.73277 | 2° | 91km/h | 1258m | 11.4m/s | -36.9°C | 1.7% | 6.5hPa | 2.6V | 03:08:07 | 02:18:31 | 00:00:00 | |
| DL1XH-15 | 2026-09-05 00:48:17 | 55.08290 | 19.73284 | 359° | 97km/h | 1259m | 6m/s | -36.9°C | 1.8% | 6.5hPa | 2.6V | 03:08:09 | 02:18:29 | 00:00:00 | |
| AA1-15 | 2026-09-05 00:48:16 | 55.08340 | 19.73277 | 2° | 91km/h | 1258m | 11.5m/s | -36.9°C | 0% | 6.5hPa | 2.6V | 03:08:56 | 02:18:31 | 00:00:00 | |
| DF8AY | 2026-09-05 00:48:15 | 55.08314 | 19.73279 | 360° | 99km/h | 1254m | 8.2m/s | -36.9°C | 0% | 6.5hPa | 2.6V | 03:08:56 | 02:18:30 | 00:00:00 | |
| DL1XH-west | 2026-09-05 00:48:14 | 55.08290 | 19.73284 | 359° | 97km/h | 1259m | 6m/s | -36.9°C | 0% | 6.5hPa | 2.6V | 03:08:56 | 02:18:29 | 00:00:00 | |
| DL1XH1-15 | 2026-09-05 00:48:13 | 55.08238 | 19.73290 | 354° | 108km/h | 1252m | -0.2m/s | -36.9°C | 1.8% | 6.5hPa | 2.6V | 03:08:11 | 02:18:27 | 00:00:00 | |
| DL1XH-west | 2026-09-05 00:48:13 | 55.08265 | 19.73286 | 356° | 115km/h | 1254m | 2m/s | -36.9°C | 0% | 6.5hPa | 2.6V | 03:08:56 | 02:18:28 | 00:00:00 | |
| DF8AY | 2026-09-05 00:48:12 | 55.08238 | 19.73290 | 355° | 108km/h | 1252m | -0.2m/s | -36.9°C | 0% | 6.6hPa | 2.6V | 03:08:56 | 02:18:27 | 00:00:00 | |
| DL1XH-15 | 2026-09-05 00:48:11 | 55.08187 | 19.73292 | 354° | 113km/h | 1248m | -2.8m/s | -36.9°C | 1.7% | 6.6hPa | 2.6V | 03:08:13 | 02:18:25 | 00:00:00 | |
| DL1XH-15 | 2026-09-05 00:48:11 | 55.08137 | 19.73294 | 359° | 104km/h | 1241m | 5.3m/s | -36.9°C | 1.7% | 6.6hPa | 2.6V | 03:08:15 | 02:18:23 | 00:00:00 | |
| AA1-15 | 2026-09-05 00:48:11 | 55.08213 | 19.73291 | 354° | 115km/h | 1251m | -3.8m/s | -36.9°C | 0% | 6.6hPa | 2.6V | 03:08:56 | 02:18:26 | 00:00:00 | |
| DB0DAN | 2026-09-05 00:48:10 | 55.08188 | 19.73292 | 354° | 108km/h | 1248m | -2.8m/s | -36.9°C | 0.3% | 6.58hPa | 2.6V | 00:00:00 | 00:00:00 | 00:00:00 | |
| DL1XH-west | 2026-09-05 00:48:10 | 55.08188 | 19.73292 | 354° | 113km/h | 1248m | -2.8m/s | -36.9°C | 0% | 6.6hPa | 2.6V | 03:08:56 | 02:18:25 | 00:00:00 | |
| DF8AY | 2026-09-05 00:48:09 | 55.08163 | 19.73294 | 356° | 106km/h | 1246m | 1.2m/s | -36.9°C | 0% | 6.6hPa | 2.6V | 03:08:56 | 02:18:24 | 00:00:00 | |
| HSKMA3-T | 2026-09-05 00:48:08 | 55.08137 | 19.73294 | 359° | 104km/h | 1241m | 5.3m/s | -36.9°C | 0% | 6.6hPa | 2.6V | 03:08:56 | 02:18:23 | 00:00:00 | |
| DL1XH1-15 | 2026-09-05 00:48:07 | 55.08092 | 19.73289 | 0° | 97km/h | 1237m | 9.6m/s | -37°C | 1.7% | 6.6hPa | 2.6V | 03:08:17 | 02:18:21 | 00:00:00 | |
| AA1-15 | 2026-09-05 00:48:07 | 55.08115 | 19.73290 | 0° | 93km/h | 1239m | 8.4m/s | -36.9°C | 0% | 6.6hPa | 2.6V | 03:08:56 | 02:18:22 | 00:00:00 | |
| DL1XH-west | 2026-09-05 00:48:06 | 55.08092 | 19.73289 | 0° | 97km/h | 1237m | 9.6m/s | -37°C | 0% | 6.6hPa | 2.6V | 03:08:56 | 02:18:21 | 00:00:00 | |
| DL1NUX | 2026-09-05 00:48:05 | 55.08052 | 19.73261 | 358° | 99km/h | 1280m | 13.9m/s | -37°C | 1.7% | 6.6hPa | 2.6V | 03:08:19 | 02:18:19 | 00:00:00 | |
| DL1XH-west | 2026-09-05 00:48:05 | 55.08069 | 19.73290 | 1° | 93km/h | 1244m | 10.4m/s | -37°C | 0% | 6.6hPa | 2.6V | 03:08:56 | 02:18:20 | 00:00:00 | |
| DL1XH-west | 2026-09-05 00:48:04 | 55.08052 | 19.73261 | 358° | 99km/h | 1280m | 13.9m/s | -37°C | 0% | 6.6hPa | 2.6V | 03:08:56 | 02:18:19 | 00:00:00 | |
| AA1-15 | 2026-09-05 00:48:03 | 55.08028 | 19.73263 | 355° | 124km/h | 1273m | 10.4m/s | -37°C | 0% | 6.6hPa | 2.6V | 03:08:56 | 02:18:18 | 00:00:00 | |
| DB0DAN | 2026-09-05 00:47:55 | 54.92017 | 19.89580 | 0° | 0km/h | 2612m | 0m/s | -37°C | 0.3% | 6.65hPa | 2.6V | 00:00:00 | 00:00:00 | 00:00:00 | |
| HSKMA3-T | 2026-09-05 00:47:47 | 54.92017 | 19.89580 | 0° | 0km/h | 2612m | 0m/s | -37.1°C | 0% | 6.7hPa | 2.6V | 03:08:56 | 02:18:02 | 00:00:00 | |
| DF8AY | 2026-09-05 00:47:46 | 54.92017 | 19.89580 | 0° | 0km/h | 2612m | 0m/s | -37.1°C | 0% | 6.7hPa | 2.6V | 03:08:56 | 02:18:01 | 00:00:00 | |
| AA1-15 | 2026-09-05 00:47:43 | 54.92017 | 19.89580 | 0° | 0km/h | 2612m | 0m/s | -37.1°C | 0% | 6.7hPa | 2.6V | 03:08:56 | 02:17:59 | 00:00:00 | |
| DB0DAN | 2026-09-05 00:47:40 | 54.92017 | 19.89580 | 0° | 0km/h | 2612m | 0m/s | -37.1°C | 0.3% | 6.73hPa | 2.6V | 00:00:00 | 00:00:00 | 00:00:00 | |
| DL1XH-west | 2026-09-05 00:47:36 | 54.92017 | 19.89580 | 0° | 0km/h | 2612m | 0m/s | -37.2°C | 0% | 6.8hPa | 2.7V | 03:08:56 | 02:17:51 | 00:00:00 | |
| AA1-15 | 2026-09-05 00:47:33 | 54.92017 | 19.89580 | 0° | 0km/h | 2612m | 0m/s | -37.2°C | 0% | 6.8hPa | 2.6V | 03:08:56 | 02:17:49 | 00:00:00 | |
| HSKMA3-T | 2026-09-05 00:47:26 | 54.92017 | 19.89580 | 0° | 0km/h | 2612m | 0m/s | -37.6°C | 0% | 6.8hPa | 2.6V | 03:09:47 | 02:17:41 | 00:00:00 | |
| DB0DAN | 2026-09-05 00:47:25 | 54.92017 | 19.89580 | 0° | 0km/h | 2612m | 0m/s | -37.6°C | 0.3% | 6.81hPa | 2.6V | 00:00:00 | 00:00:00 | 00:00:00 | |
| DF8AY | 2026-09-05 00:47:24 | 54.92017 | 19.89580 | 0° | 0km/h | 2612m | 0m/s | -37.6°C | 0% | 6.8hPa | 2.6V | 03:09:47 | 02:17:40 | 00:00:00 | |
| AA1-15 | 2026-09-05 00:47:23 | 54.92017 | 19.89580 | 0° | 0km/h | 2612m | 0m/s | -37.7°C | 0% | 6.8hPa | 2.6V | 03:09:47 | 02:17:39 | 00:00:00 | |
| DM0DOS-11 | 2026-09-05 00:47:17 | 54.92120 | 19.89569 | 176° | 37km/h | 2580m | 2.9m/s | -37.8°C | 1.8% | 6.9hPa | 2.6V | 03:09:10 | 02:17:28 | 00:00:00 | |
| HSKMA3-T | 2026-09-05 00:47:15 | 54.92092 | 19.89572 | 177° | 37km/h | 2589m | 2.9m/s | -37.7°C | 0% | 6.9hPa | 2.6V | 03:09:47 | 02:17:31 | 00:00:00 | |
| DF8AY | 2026-09-05 00:47:14 | 54.92102 | 19.89571 | 177° | 37km/h | 2586m | 2.9m/s | -37.7°C | 0% | 6.9hPa | 2.6V | 03:09:47 | 02:17:30 | 00:00:00 | |
| AA1-15 | 2026-09-05 00:47:13 | 54.92120 | 19.89569 | 177° | 37km/h | 2580m | 2.9m/s | -37.8°C | 0% | 6.9hPa | 2.6V | 03:09:47 | 02:17:28 | 00:00:00 | |
| DM0DOS-11 | 2026-09-05 00:47:12 | 54.92127 | 19.89593 | 212° | 13km/h | 2537m | 15.2m/s | -37.8°C | 1.8% | 6.9hPa | 2.6V | 03:09:15 | 02:17:23 | 00:00:00 | |
| DL1NUX | 2026-09-05 00:47:10 | 54.92126 | 19.89606 | 237° | 11km/h | 2516m | 11.7m/s | -37.8°C | 1.8% | 6.9hPa | 2.6V | 03:09:17 | 02:17:21 | 00:00:00 | |
| DB0DAN | 2026-09-05 00:47:10 | 54.92128 | 19.89580 | 245° | 11km/h | 2550m | 12m/s | -37.9°C | 0.3% | 6.88hPa | 2.6V | 00:00:00 | 00:00:00 | 00:00:00 | |
| DM0DOS-11 | 2026-09-05 00:47:07 | 54.92116 | 19.89633 | 288° | 22km/h | 2488m | 2.9m/s | -37.8°C | 1.8% | 6.9hPa | 2.6V | 03:09:20 | 02:17:18 | 00:00:00 | |
| HSKMA3-T | 2026-09-05 00:47:04 | 54.92123 | 19.89614 | 258° | 15km/h | 2507m | 8.8m/s | -37.8°C | 0% | 6.9hPa | 2.6V | 03:09:47 | 02:17:20 | 00:00:00 | |
| DL1XH-west | 2026-09-05 00:47:04 | 54.92119 | 19.89624 | 287° | 16km/h | 2499m | 5.7m/s | -37.8°C | 0% | 6.9hPa | 2.6V | 03:09:47 | 02:17:19 | 00:00:00 | |
| AA1-15 | 2026-09-05 00:47:02 | 54.92116 | 19.89633 | 289° | 22km/h | 2488m | 2.9m/s | -37.8°C | 0% | 6.9hPa | 2.6V | 03:09:47 | 02:17:18 | 00:00:00 | |
| DM0DOS-11 | 2026-09-05 00:47:02 | 54.92113 | 19.89676 | 189° | 16km/h | 2446m | 11.9m/s | -37.9°C | 1.8% | 7hPa | 2.6V | 03:09:25 | 02:17:13 | 00:00:00 | |
| DL1XH-15 | 2026-09-05 00:47:00 | 54.92123 | 19.89682 | 185° | 20km/h | 2421m | 18.1m/s | -37.9°C | 1.8% | 7hPa | 2.6V | 03:09:27 | 02:17:11 | 00:00:00 | |
| DL1NUX | 2026-09-05 00:46:59 | 54.92131 | 19.89680 | 190° | 11km/h | 2404m | 17.9m/s | -37.9°C | 1.8% | 7hPa | 2.6V | 03:09:28 | 02:17:10 | 00:00:00 | |
| DM0DOS-11 | 2026-09-05 00:46:57 | 54.92133 | 19.89682 | 220° | 15km/h | 2379m | 13.2m/s | -37.9°C | 1.9% | 7hPa | 2.7V | 03:09:30 | 02:17:08 | 00:00:00 | |
| DL1XH-15 | 2026-09-05 00:46:55 | 54.92141 | 19.89692 | 282° | 18km/h | 2365m | 5.5m/s | -37.9°C | 1.8% | 7hPa | 2.6V | 03:09:32 | 02:17:06 | 00:00:00 | |
| DB0DAN | 2026-09-05 00:46:55 | 54.92131 | 19.89680 | 191° | 11km/h | 2404m | 17.9m/s | -37.9°C | 0.3% | 6.98hPa | 2.6V | 00:00:00 | 00:00:00 | 00:00:00 | |
| HSKMA3-T | 2026-09-05 00:46:53 | 54.92131 | 19.89683 | 188° | 11km/h | 2394m | 16.3m/s | -37.9°C | 0% | 7hPa | 2.6V | 03:09:47 | 02:17:09 | 00:00:00 | |
| DL1XH-west | 2026-09-05 00:46:53 | 54.92133 | 19.89682 | 220° | 15km/h | 2379m | 13.2m/s | -37.9°C | 0% | 7hPa | 2.7V | 03:09:47 | 02:17:08 | 00:00:00 | |
| AA1-15 | 2026-09-05 00:46:52 | 54.92134 | 19.89690 | 259° | 16km/h | 2373m | 9.8m/s | -37.9°C | 0% | 7hPa | 2.6V | 03:09:47 | 02:17:07 | 00:00:00 | |
| DL1XH-15 | 2026-09-05 00:46:50 | 54.92154 | 19.89746 | 266° | 16km/h | 2403m | 7.7m/s | -37.9°C | 1.8% | 7hPa | 2.6V | 03:09:37 | 02:17:01 | 00:00:00 | |
| DL1NUX | 2026-09-05 00:46:49 | 54.92155 | 19.89753 | 249° | 13km/h | 2398m | 10.8m/s | -37.9°C | 1.8% | 7hPa | 2.6V | 03:09:38 | 02:17:00 | 00:00:00 | |
| DM0DOS-11 | 2026-09-05 00:46:47 | 54.92157 | 19.89765 | 207° | 9km/h | 2361m | 15.8m/s | -37.9°C | 1.8% | 7.1hPa | 2.6V | 03:09:41 | 02:16:57 | 00:00:00 | |
| DL1XH-15 | 2026-09-05 00:46:45 | 54.92162 | 19.89781 | 248° | 11km/h | 2351m | 12.1m/s | -37.9°C | 1.8% | 7.1hPa | 2.6V | 03:09:43 | 02:16:55 | 00:00:00 | |
| DF8AY | 2026-09-05 00:46:43 | 54.92154 | 19.89757 | 231° | 15km/h | 2385m | 13.8m/s | -37.9°C | 0% | 7.1hPa | 2.6V | 03:09:47 | 02:16:59 | 00:00:00 | |
| DL1XH-west | 2026-09-05 00:46:42 | 54.92156 | 19.89762 | 209° | 11km/h | 2374m | 15.7m/s | -37.9°C | 0% | 7.1hPa | 2.6V | 03:09:47 | 02:16:58 | 00:00:00 | |
| AA1-15 | 2026-09-05 00:46:42 | 54.92157 | 19.89765 | 208° | 9km/h | 2361m | 15.8m/s | -37.9°C | 0% | 7.1hPa | 2.6V | 03:09:47 | 02:16:57 | 00:00:00 | |
| DM0DOS-11 | 2026-09-05 00:46:42 | 54.92157 | 19.89801 | 288° | 20km/h | 2335m | 2.7m/s | -37.9°C | 1.8% | 7.1hPa | 2.6V | 03:09:46 | 02:16:52 | 00:00:00 | |
| DB0DAN | 2026-09-05 00:46:40 | 54.92162 | 19.89781 | 249° | 9km/h | 2351m | 12.1m/s | -37.9°C | 0.3% | 7.12hPa | 2.6V | 00:00:00 | 00:00:00 | 00:00:00 | |
| DL1NUX | 2026-09-05 00:46:39 | 54.92152 | 19.89813 | 296° | 27km/h | 2318m | 3.3m/s | -37.9°C | 1.8% | 7.1hPa | 2.6V | 03:09:48 | 02:16:50 | 00:00:00 | |
| DM0DOS-11 | 2026-09-05 00:46:36 | 54.92142 | 19.89833 | 243° | 11km/h | 2285m | 11.3m/s | -37.9°C | 1.8% | 7.1hPa | 2.6V | 03:09:51 | 02:16:47 | 00:00:00 | |
| DL1NUX | 2026-09-05 00:46:34 | 54.92133 | 19.89845 | 210° | 15km/h | 2259m | 16.8m/s | -37.9°C | 1.8% | 7.1hPa | 2.6V | 03:09:53 | 02:16:45 | 00:00:00 | |
| HSKMA3-T | 2026-09-05 00:46:33 | 54.92147 | 19.89826 | 274° | 16km/h | 2296m | 7.9m/s | -37.9°C | 0% | 7.1hPa | 2.6V | 03:10:38 | 02:16:48 | 00:00:00 | |
| DL1XH-west | 2026-09-05 00:46:32 | 54.92142 | 19.89833 | 244° | 11km/h | 2285m | 11.3m/s | -37.9°C | 0% | 7.1hPa | 2.6V | 03:10:38 | 02:16:47 | 00:00:00 | |
| DM0DOS-11 | 2026-09-05 00:46:31 | 54.92129 | 19.89861 | 232° | 15km/h | 2216m | 12.6m/s | -37.9°C | 1.8% | 7.1hPa | 2.6V | 03:09:56 | 02:16:42 | 00:00:00 | |
| AA1-15 | 2026-09-05 00:46:31 | 54.92137 | 19.89840 | 228° | 13km/h | 2275m | 15.3m/s | -37.9°C | 0% | 7.2hPa | 2.6V | 03:10:38 | 02:16:46 | 00:00:00 | |
| DL1NUX | 2026-09-05 00:46:29 | 54.92133 | 19.89873 | 284° | 16km/h | 2183m | 7.5m/s | -38°C | 1.8% | 7.2hPa | 2.6V | 03:09:58 | 02:16:40 | 00:00:00 | |
| DM0DOS-11 | 2026-09-05 00:46:26 | 54.92127 | 19.89895 | 299° | 22km/h | 2146m | 5m/s | -38°C | 1.8% | 7.2hPa | 2.5V | 03:10:01 | 02:16:37 | 00:00:00 | |
| DB0DAN | 2026-09-05 00:46:25 | 54.92133 | 19.89873 | 285° | 16km/h | 2183m | 7.5m/s | -38°C | 0.3% | 7.21hPa | 2.6V | 00:00:00 | 00:00:00 | 00:00:00 | |
| DL1NUX | 2026-09-05 00:46:24 | 54.92128 | 19.89911 | 272° | 15km/h | 2134m | 8.9m/s | -38°C | 1.9% | 7.2hPa | 2.6V | 03:10:03 | 02:16:35 | 00:00:00 | |
| DF8AY | 2026-09-05 00:46:22 | 54.92128 | 19.89888 | 283° | 18km/h | 2158m | 4.2m/s | -38°C | 0% | 7.2hPa | 2.5V | 03:10:38 | 02:16:38 | 00:00:00 | |
| HSKMA3-T | 2026-09-05 00:46:21 | 54.92127 | 19.89895 | 300° | 22km/h | 2146m | 5m/s | -38°C | 0% | 7.2hPa | 2.5V | 03:10:38 | 02:16:37 | 00:00:00 | |
| AA1-15 | 2026-09-05 00:46:20 | 54.92126 | 19.89905 | 278° | 15km/h | 2147m | 6.9m/s | -38°C | 0% | 7.2hPa | 2.6V | 03:10:38 | 02:16:36 | 00:00:00 | |
| HSKMA3-T | 2026-09-05 00:46:11 | 54.92118 | 19.89968 | 273° | 18km/h | 2075m | 6.6m/s | -37.8°C | 0% | 7.3hPa | 2.6V | 03:10:38 | 02:16:27 | 00:00:00 | |
| DL1XH-west | 2026-09-05 00:46:10 | 54.92118 | 19.89974 | 277° | 15km/h | 2068m | 6.7m/s | -37.8°C | 0% | 7.3hPa | 2.6V | 03:10:38 | 02:16:26 | 00:00:00 | |
| DB0DAN | 2026-09-05 00:46:10 | 54.92119 | 19.89981 | 260° | 15km/h | 2062m | 7.6m/s | -37.8°C | 0.3% | 7.29hPa | 2.6V | 00:00:00 | 00:00:00 | 00:00:00 | |
| DL1NUX | 2026-09-05 00:46:07 | 54.92117 | 19.90018 | 229° | 15km/h | 2030m | 13.2m/s | -37.9°C | 1.8% | 7.3hPa | 2.7V | 03:10:18 | 02:16:20 | 00:00:00 | |
| HSKMA3-T | 2026-09-05 00:46:02 | 54.92122 | 19.90034 | 265° | 13km/h | 2006m | 9.1m/s | -37.8°C | 0% | 7.3hPa | 2.5V | 03:10:38 | 02:16:17 | 00:00:00 | |
| DF8AY | 2026-09-05 00:46:00 | 54.92123 | 19.90042 | 275° | 13km/h | 1998m | 8.7m/s | -37.8°C | 0% | 7.3hPa | 2.6V | 03:10:38 | 02:16:16 | 00:00:00 | |
| AA1-15 | 2026-09-05 00:45:59 | 54.92124 | 19.90048 | 261° | 13km/h | 1989m | 9m/s | -37.8°C | 0% | 7.3hPa | 2.6V | 03:10:38 | 02:16:15 | 00:00:00 | |
| DL1XH-west | 2026-09-05 00:45:58 | 54.92117 | 19.90055 | 275° | 11km/h | 1999m | 9.7m/s | -37.8°C | 0% | 7.3hPa | 2.7V | 03:10:38 | 02:16:14 | 00:00:00 | |
| DL1XH-west | 2026-09-05 00:45:57 | 54.92118 | 19.90060 | 256° | 13km/h | 1999m | 10m/s | -37.8°C | 0% | 7.4hPa | 2.7V | 03:10:38 | 02:16:13 | 00:00:00 | |
| AA1-15 | 2026-09-05 00:45:56 | 54.92124 | 19.90064 | 249° | 11km/h | 1990m | 10.7m/s | -37.8°C | 0% | 7.4hPa | 2.6V | 03:10:38 | 02:16:12 | 00:00:00 | |
| DL1XH-west | 2026-09-05 00:45:55 | 54.92125 | 19.90068 | 237° | 11km/h | 1987m | 11.6m/s | -37.8°C | 0% | 7.4hPa | 2.6V | 03:10:38 | 02:16:11 | 00:00:00 | |
| DB0DAN | 2026-09-05 00:45:55 | 54.92125 | 19.90070 | 251° | 13km/h | 1977m | 11m/s | -37.8°C | 0.3% | 7.38hPa | 2.6V | 00:00:00 | 00:00:00 | 00:00:00 | |
| DL1XH-west | 2026-09-05 00:45:54 | 54.92125 | 19.90070 | 251° | 13km/h | 1977m | 11m/s | -37.8°C | 0% | 7.4hPa | 2.6V | 03:10:38 | 02:16:10 | 00:00:00 | |
| DF8AY | 2026-09-05 00:45:53 | 54.92126 | 19.90072 | 254° | 11km/h | 1964m | 8.9m/s | -37.8°C | 0% | 7.4hPa | 2.7V | 03:10:38 | 02:16:09 | 00:00:00 | |
| DL1XH-west | 2026-09-05 00:45:53 | 54.92124 | 19.90080 | 262° | 16km/h | 1957m | 7.9m/s | -37.9°C | 0% | 7.4hPa | 2.6V | 03:10:38 | 02:16:08 | 00:00:00 | |
| DF8AY | 2026-09-05 00:45:51 | 54.92126 | 19.90085 | 275° | 15km/h | 1949m | 7.9m/s | -37.9°C | 0% | 7.4hPa | 2.6V | 03:10:38 | 02:16:07 | 00:00:00 | |
| DL1XH-west | 2026-09-05 00:45:50 | 54.92125 | 19.90092 | 274° | 16km/h | 1940m | 7.2m/s | -38°C | 0% | 7.4hPa | 2.6V | 03:10:38 | 02:16:06 | 00:00:00 | |
| DF8AY | 2026-09-05 00:45:50 | 54.92126 | 19.90098 | 272° | 15km/h | 1932m | 7.1m/s | -38.1°C | 0% | 7.4hPa | 2.7V | 03:10:38 | 02:16:05 | 00:00:00 | |
| DF8AY | 2026-09-05 00:45:49 | 54.92128 | 19.90124 | 245° | 11km/h | 1911m | 10.5m/s | -38.3°C | 0% | 7.5hPa | 2.6V | 03:10:38 | 02:16:01 | 00:00:00 | |
| AA1-15 | 2026-09-05 00:45:48 | 54.92126 | 19.90105 | 268° | 18km/h | 1925m | 7.4m/s | -38.2°C | 0% | 7.4hPa | 2.6V | 03:10:38 | 02:16:04 | 00:00:00 | |
| DL1XH-west | 2026-09-05 00:45:46 | 54.92128 | 19.90119 | 257° | 15km/h | 1918m | 10m/s | -38.3°C | 0% | 7.4hPa | 2.6V | 03:10:38 | 02:16:02 | 00:00:00 | |
| DL1XH-west | 2026-09-05 00:45:44 | 54.92129 | 19.90126 | 248° | 11km/h | 1902m | 10.1m/s | -38.3°C | 0% | 7.4hPa | 2.6V | 03:10:38 | 02:16:00 | 00:00:00 | |
| AA1-15 | 2026-09-05 00:45:44 | 54.92130 | 19.90131 | 252° | 13km/h | 1892m | 10.2m/s | -38.4°C | 0% | 7.5hPa | 2.6V | 03:11:29 | 02:15:59 | 00:00:00 | |
| DM0DOS-11 | 2026-09-05 00:45:43 | 54.92136 | 19.90159 | 279° | 15km/h | 1869m | 6.1m/s | -38.4°C | 1.8% | 7.5hPa | 2.6V | 03:10:44 | 02:15:54 | 00:00:00 | |
| DL1XH-west | 2026-09-05 00:45:42 | 54.92130 | 19.90137 | 262° | 13km/h | 1888m | 9.2m/s | -38.4°C | 0% | 7.5hPa | 2.6V | 03:11:29 | 02:15:58 | 00:00:00 | |
| AA1-15 | 2026-09-05 00:45:42 | 54.92133 | 19.90144 | 272° | 15km/h | 1890m | 7.9m/s | -38.4°C | 0% | 7.5hPa | 2.6V | 03:11:29 | 02:15:57 | 00:00:00 | |
| DL1XH-west | 2026-09-05 00:45:40 | 54.92134 | 19.90150 | 278° | 16km/h | 1884m | 5.9m/s | -38.4°C | 0% | 7.5hPa | 2.6V | 03:11:29 | 02:15:56 | 00:00:00 | |
| DB0DAN | 2026-09-05 00:45:40 | 54.92135 | 19.90155 | 281° | 15km/h | 1875m | 5.3m/s | -38.4°C | 0.3% | 7.46hPa | 2.6V | 00:00:00 | 00:00:00 | 00:00:00 | |
| DF8AY | 2026-09-05 00:45:39 | 54.92135 | 19.90155 | 282° | 16km/h | 1875m | 5.3m/s | -38.4°C | 0% | 7.5hPa | 2.6V | 03:11:29 | 02:15:55 | 00:00:00 | |
| AA1-15 | 2026-09-05 00:45:38 | 54.92136 | 19.90159 | 280° | 15km/h | 1869m | 6.1m/s | -38.4°C | 0% | 7.5hPa | 2.6V | 03:11:29 | 02:15:54 | 00:00:00 | |
| DF8AY | 2026-09-05 00:45:37 | 54.92140 | 19.90164 | 270° | 15km/h | 1877m | 7.1m/s | -38.5°C | 0% | 7.5hPa | 2.6V | 03:11:29 | 02:15:53 | 00:00:00 | |
| DL1XH-west | 2026-09-05 00:45:36 | 54.92141 | 19.90169 | 264° | 13km/h | 1872m | 8.2m/s | -38.5°C | 0% | 7.5hPa | 2.6V | 03:11:29 | 02:15:52 | 00:00:00 | |
| DL1XH-west | 2026-09-05 00:45:35 | 54.92142 | 19.90173 | 263° | 15km/h | 1872m | 9.2m/s | -38.5°C | 0% | 7.5hPa | 2.6V | 03:11:29 | 02:15:51 | 00:00:00 | |
| AA1-15 | 2026-09-05 00:45:34 | 54.92142 | 19.90177 | 254° | 15km/h | 1862m | 9.4m/s | -38.5°C | 0% | 7.5hPa | 2.6V | 03:11:29 | 02:15:50 | 00:00:00 | |
| DL1XH-west | 2026-09-05 00:45:33 | 54.92139 | 19.90186 | 261° | 15km/h | 1857m | 9.5m/s | -38.5°C | 0% | 7.5hPa | 2.6V | 03:11:29 | 02:15:49 | 00:00:00 | |
| AA1-15 | 2026-09-05 00:45:32 | 54.92131 | 19.90196 | 268° | 13km/h | 1857m | 8.9m/s | -38.5°C | 0% | 7.5hPa | 2.6V | 03:11:29 | 02:15:48 | 00:00:00 | |
| DF8AY | 2026-09-05 00:45:31 | 54.92126 | 19.90206 | 272° | 16km/h | 1851m | 7.7m/s | -38.5°C | 0% | 7.5hPa | 2.6V | 03:11:29 | 02:15:47 | 00:00:00 | |
| DM0DOS-11 | 2026-09-05 00:45:31 | 54.92125 | 19.90212 | 283° | 16km/h | 1840m | 6.2m/s | -38.5°C | 1.8% | 7.5hPa | 2.6V | 03:10:52 | 02:15:46 | 00:00:00 | |
| DL1XH-west | 2026-09-05 00:45:30 | 54.92125 | 19.90212 | 283° | 16km/h | 1840m | 6.2m/s | -38.5°C | 0% | 7.5hPa | 2.6V | 03:11:29 | 02:15:46 | 00:00:00 | |
| DL1XH-west | 2026-09-05 00:45:29 | 54.92125 | 19.90218 | 278° | 18km/h | 1826m | 5.8m/s | -38.5°C | 0% | 7.5hPa | 2.6V | 03:11:29 | 02:15:45 | 00:00:00 | |
| DF8AY | 2026-09-05 00:45:28 | 54.92125 | 19.90225 | 260° | 15km/h | 1824m | 6.3m/s | -38.5°C | 0% | 7.5hPa | 2.6V | 03:11:29 | 02:15:44 | 00:00:00 | |
| DL1XH-west | 2026-09-05 00:45:27 | 54.92126 | 19.90231 | 274° | 15km/h | 1816m | 8m/s | -38.6°C | 0% | 7.5hPa | 2.6V | 03:11:29 | 02:15:43 | 00:00:00 | |
| AA1-15 | 2026-09-05 00:45:27 | 54.92123 | 19.90240 | 271° | 11km/h | 1814m | 9.8m/s | -38.6°C | 0% | 7.5hPa | 2.6V | 03:11:29 | 02:15:42 | 00:00:00 | |
| DL1XH-west | 2026-09-05 00:45:26 | 54.92123 | 19.90245 | 243° | 11km/h | 1804m | 11.4m/s | -38.6°C | 0% | 7.6hPa | 2.5V | 03:11:29 | 02:15:41 | 00:00:00 | |
| DM0DOS-11 | 2026-09-05 00:45:25 | 54.92126 | 19.90249 | 223° | 9km/h | 1792m | 13.4m/s | -38.7°C | 1.9% | 7.6hPa | 2.6V | 03:10:58 | 02:15:40 | 00:00:00 | |
| DB0DAN | 2026-09-05 00:45:25 | 54.92126 | 19.90249 | 224° | 9km/h | 1792m | 13.4m/s | -38.7°C | 0.3% | 7.56hPa | 2.6V | 00:00:00 | 00:00:00 | 00:00:00 | |
| AA1-15 | 2026-09-05 00:45:24 | 54.92126 | 19.90249 | 224° | 9km/h | 1792m | 13.4m/s | -38.7°C | 0% | 7.6hPa | 2.6V | 03:11:29 | 02:15:40 | 00:00:00 | |
| DL1XH-west | 2026-09-05 00:45:24 | 54.92123 | 19.90255 | 213° | 11km/h | 1784m | 14.4m/s | -38.8°C | 0% | 7.6hPa | 2.6V | 03:11:29 | 02:15:39 | 00:00:00 | |
| DL1XH-west | 2026-09-05 00:45:22 | 54.92122 | 19.90261 | 219° | 11km/h | 1777m | 15.2m/s | -38.9°C | 0% | 7.5hPa | 2.6V | 03:11:29 | 02:15:38 | 00:00:00 | |
| AA1-15 | 2026-09-05 00:45:21 | 54.92122 | 19.90273 | 236° | 11km/h | 1755m | 11.3m/s | -39.1°C | 0% | 7.6hPa | 2.6V | 03:11:29 | 02:15:36 | 00:00:00 | |
| DF8AY | 2026-09-05 00:45:20 | 54.92116 | 19.90289 | 280° | 16km/h | 1732m | 6.1m/s | -39.2°C | 0% | 7.6hPa | 2.6V | 03:11:29 | 02:15:34 | 00:00:00 | |
| DM0DOS-11 | 2026-09-05 00:45:19 | 54.92116 | 19.90289 | 280° | 16km/h | 1732m | 6.1m/s | -39.2°C | 1.9% | 7.6hPa | 2.6V | 03:11:04 | 02:15:34 | 00:00:00 | |
| DL1XH-west | 2026-09-05 00:45:19 | 54.92122 | 19.90280 | 276° | 15km/h | 1741m | 8.2m/s | -39.2°C | 0% | 7.6hPa | 2.6V | 03:11:29 | 02:15:35 | 00:00:00 | |
| AA1-15 | 2026-09-05 00:45:18 | 54.92108 | 19.90299 | 276° | 16km/h | 1722m | 4.4m/s | -39.2°C | 0% | 7.6hPa | 2.6V | 03:11:29 | 02:15:33 | 00:00:00 | |
| DF8AY | 2026-09-05 00:45:17 | 54.92095 | 19.90311 | 286° | 20km/h | 1709m | 5.7m/s | -39.2°C | 0% | 7.6hPa | 2.6V | 03:11:29 | 02:15:32 | 00:00:00 | |
| DL1XH-west | 2026-09-05 00:45:16 | 54.92088 | 19.90319 | 277° | 16km/h | 1703m | 7.7m/s | -39.3°C | 0% | 7.6hPa | 2.6V | 03:11:29 | 02:15:31 | 00:00:00 | |
| DL1XH-west | 2026-09-05 00:45:14 | 54.92094 | 19.90318 | 268° | 16km/h | 1688m | 9.4m/s | -39.3°C | 0% | 7.6hPa | 2.6V | 03:11:29 | 02:15:30 | 00:00:00 | |
| DL1XH-west | 2026-09-05 00:45:13 | 54.92115 | 19.90316 | 226° | 15km/h | 1650m | 15.6m/s | -39.5°C | 0% | 7.6hPa | 2.6V | 03:11:29 | 02:15:28 | 00:00:00 | |
| DL1XH-west | 2026-09-05 00:45:11 | 54.92118 | 19.90321 | 233° | 13km/h | 1636m | 18.1m/s | -39.5°C | 0% | 7.6hPa | 2.6V | 03:11:29 | 02:15:27 | 00:00:00 | |
| AA1-15 | 2026-09-05 00:45:11 | 54.92121 | 19.90324 | 268° | 16km/h | 1631m | 18.1m/s | -39.6°C | 0% | 7.6hPa | 2.6V | 03:11:29 | 02:15:26 | 00:00:00 | |
| DB0DAN | 2026-09-05 00:45:10 | 54.92125 | 19.90324 | 269° | 15km/h | 1623m | 15.3m/s | -39.7°C | 0.3% | 7.64hPa | 2.6V | 00:00:00 | 00:00:00 | 00:00:00 | |
| AA1-15 | 2026-09-05 00:45:10 | 54.92125 | 19.90324 | 269° | 16km/h | 1623m | 15.3m/s | -39.7°C | 0% | 7.6hPa | 2.6V | 03:11:29 | 02:15:25 | 00:00:00 | |
| DL1XH-west | 2026-09-05 00:45:08 | 54.92130 | 19.90325 | 275° | 16km/h | 1614m | 10.8m/s | -39.7°C | 0% | 7.6hPa | 2.6V | 03:11:29 | 02:15:24 | 00:00:00 | |
| DF8AY | 2026-09-05 00:45:06 | 54.92135 | 19.90351 | 287° | 110km/h | 1618m | 6.4m/s | -39.8°C | 0% | 7.7hPa | 2.6V | 03:11:29 | 02:15:22 | 00:00:00 | |
| DF8AY | 2026-09-05 00:45:05 | 54.92129 | 19.90397 | 271° | 100km/h | 1615m | 2.7m/s | -39.9°C | 0% | 7.7hPa | 2.6V | 03:11:29 | 02:15:21 | 00:00:00 | |
| DL1XH-west | 2026-09-05 00:45:04 | 54.92132 | 19.90443 | 265° | 97km/h | 1632m | 2.5m/s | -39.9°C | 0% | 7.7hPa | 2.5V | 03:11:29 | 02:15:20 | 00:00:00 | |
| DM0DOS-11 | 2026-09-05 00:45:04 | 54.92144 | 19.90525 | 248° | 95km/h | 1620m | 6.8m/s | -40°C | 1.9% | 7.7hPa | 2.6V | 03:11:20 | 02:15:18 | 00:00:00 | |
| DM0DOS-11 | 2026-09-05 00:45:04 | 54.92168 | 19.90598 | 232° | 95km/h | 1598m | 12.1m/s | -40°C | 2% | 7.7hPa | 2.6V | 03:11:22 | 02:15:16 | 00:00:00 | |
| DL1XH-west | 2026-09-05 00:45:03 | 54.92136 | 19.90485 | 256° | 100km/h | 1629m | 4.1m/s | -39.9°C | 0% | 7.7hPa | 2.6V | 03:11:29 | 02:15:19 | 00:00:00 | |
| DL1XH-west | 2026-09-05 00:45:02 | 54.92144 | 19.90525 | 249° | 95km/h | 1620m | 6.8m/s | -40°C | 0% | 7.7hPa | 2.6V | 03:11:29 | 02:15:18 | 00:00:00 | |
| DL1XH-15 | 2026-09-05 00:45:02 | 54.92152 | 19.90564 | 239° | 97km/h | 1611m | 9.9m/s | -40°C | 2% | 7.7hPa | 2.6V | 03:11:21 | 02:15:17 | 00:00:00 | |
| DL1XH-west | 2026-09-05 00:45:00 | 54.92168 | 19.90598 | 232° | 95km/h | 1598m | 12.1m/s | -40°C | 0% | 7.7hPa | 2.6V | 03:11:29 | 02:15:16 | 00:00:00 | |
| DL1XH1-15 | 2026-09-05 00:45:00 | 54.92212 | 19.90690 | 210° | 102km/h | 1558m | 14.8m/s | -40.2°C | 1.9% | 7.7hPa | 2.6V | 03:11:25 | 02:15:13 | 00:00:00 | |
| AA1-15 | 2026-09-05 00:45:00 | 54.92179 | 19.90633 | 228° | 95km/h | 1586m | 14.3m/s | -40.1°C | 0% | 7.7hPa | 2.6V | 03:11:29 | 02:15:15 | 00:00:00 | |
| AA1-15 | 2026-09-05 00:44:58 | 54.92193 | 19.90665 | 218° | 100km/h | 1575m | 15.1m/s | -40.1°C | 0% | 7.7hPa | 2.6V | 03:11:29 | 02:15:14 | 00:00:00 | |
| DL1XH-west | 2026-09-05 00:44:57 | 54.92212 | 19.90690 | 211° | 102km/h | 1558m | 14.9m/s | -40.2°C | 0% | 7.7hPa | 2.6V | 03:11:29 | 02:15:13 | 00:00:00 | |
| DF8AY | 2026-09-05 00:44:57 | 54.92241 | 19.90708 | 208° | 100km/h | 1539m | 13.9m/s | -40.2°C | 0% | 7.7hPa | 2.6V | 03:11:29 | 02:15:12 | 00:00:00 | |
| AA1-15 | 2026-09-05 00:44:55 | 54.92267 | 19.90722 | 204° | 95km/h | 1521m | 11.4m/s | -40.3°C | 0% | 7.7hPa | 2.6V | 03:11:29 | 02:15:11 | 00:00:00 | |
| DB0DAN | 2026-09-05 00:44:55 | 54.92290 | 19.90736 | 197° | 95km/h | 1507m | 9.3m/s | -40.3°C | 0.3% | 7.71hPa | 2.6V | 00:00:00 | 00:00:00 | 00:00:00 | |
| AA1-15 | 2026-09-05 00:44:54 | 54.92290 | 19.90736 | 197° | 99km/h | 1507m | 9.3m/s | -40.3°C | 0% | 7.7hPa | 2.6V | 03:11:29 | 02:15:10 | 00:00:00 | |
| DL1XH-west | 2026-09-05 00:44:53 | 54.92314 | 19.90747 | 194° | 99km/h | 1494m | 8m/s | -40.4°C | 0% | 7.7hPa | 2.6V | 03:11:29 | 02:15:09 | 00:00:00 | |
| DM0DOS-11 | 2026-09-05 00:44:53 | 54.92435 | 19.90743 | 163° | 108km/h | 1444m | 10m/s | -40.8°C | 1.9% | 7.8hPa | 2.6V | 03:11:34 | 02:15:04 | 00:00:00 | |
| DL1XH-west | 2026-09-05 00:44:52 | 54.92339 | 19.90753 | 190° | 93km/h | 1479m | 6.5m/s | -40.4°C | 0% | 7.8hPa | 2.6V | 03:12:20 | 02:15:08 | 00:00:00 | |
| AA1-15 | 2026-09-05 00:44:51 | 54.92363 | 19.90757 | 183° | 97km/h | 1471m | 6.1m/s | -40.5°C | 0% | 7.7hPa | 2.6V | 03:12:20 | 02:15:07 | 00:00:00 | |
| DL1XH-west | 2026-09-05 00:44:50 | 54.92386 | 19.90758 | 177° | 89km/h | 1467m | 7.9m/s | -40.6°C | 0% | 7.7hPa | 2.7V | 03:12:20 | 02:15:06 | 00:00:00 | |
| AA1-15 | 2026-09-05 00:44:50 | 54.92410 | 19.90753 | 171° | 99km/h | 1455m | 9.2m/s | -40.7°C | 0% | 7.7hPa | 2.6V | 03:12:20 | 02:15:05 | 00:00:00 | |
| AA1-15 | 2026-09-05 00:44:49 | 54.92435 | 19.90743 | 164° | 108km/h | 1444m | 10m/s | -40.8°C | 0% | 7.8hPa | 2.6V | 03:12:20 | 02:15:04 | 00:00:00 | |
| DL1XH-west | 2026-09-05 00:44:48 | 54.92460 | 19.90729 | 158° | 104km/h | 1432m | 10.2m/s | -40.9°C | 0% | 7.8hPa | 2.6V | 03:12:20 | 02:15:03 | 00:00:00 | |
| DL1XH-west | 2026-09-05 00:44:46 | 54.92483 | 19.90711 | 151° | 99km/h | 1420m | 10.3m/s | -41°C | 0% | 7.8hPa | 2.7V | 03:12:20 | 02:15:02 | 00:00:00 | |
| DF8AY | 2026-09-05 00:44:42 | 54.92552 | 19.90601 | 126° | 91km/h | 1373m | 7.7m/s | -41.3°C | 0% | 7.8hPa | 2.6V | 03:12:20 | 02:14:58 | 00:00:00 | |
| DL1XH1-15 | 2026-09-05 00:44:41 | 54.92582 | 19.90486 | 111° | 100km/h | 1339m | 9.5m/s | -41.4°C | 2% | 7.8hPa | 2.6V | 03:11:42 | 02:14:56 | 00:00:00 | |
| DL1XH-west | 2026-09-05 00:44:41 | 54.92565 | 19.90566 | 119° | 97km/h | 1364m | 8m/s | -41.4°C | 0% | 7.8hPa | 2.6V | 03:12:20 | 02:14:57 | 00:00:00 | |
| DB0DAN | 2026-09-05 00:44:40 | 54.92582 | 19.90486 | 111° | 97km/h | 1339m | 9.5m/s | -41.4°C | 0.3% | 7.79hPa | 2.6V | 00:00:00 | 00:00:00 | 00:00:00 | |
| DL1XH-west | 2026-09-05 00:44:40 | 54.92582 | 19.90486 | 111° | 100km/h | 1339m | 9.5m/s | -41.4°C | 0% | 7.8hPa | 2.6V | 03:12:20 | 02:14:56 | 00:00:00 | |
| DL1XH-west | 2026-09-05 00:44:38 | 54.92587 | 19.90444 | 106° | 100km/h | 1325m | 11.4m/s | -41.5°C | 0% | 7.8hPa | 2.5V | 03:12:20 | 02:14:55 | 00:00:00 | |
| AA1-15 | 2026-09-05 00:44:37 | 54.92590 | 19.90401 | 101° | 102km/h | 1311m | 12.7m/s | -41.6°C | 0% | 7.8hPa | 2.5V | 03:12:20 | 02:14:54 | 00:00:00 | |
| DL1XH-west | 2026-09-05 00:44:36 | 54.92588 | 19.90357 | 98° | 102km/h | 1297m | 13.4m/s | -41.6°C | 0% | 7.8hPa | 2.6V | 03:12:20 | 02:14:53 | 00:00:00 | |
| DL1XH-west | 2026-09-05 00:44:35 | 54.92581 | 19.90314 | 90° | 102km/h | 1284m | 13.6m/s | -41.7°C | 0% | 7.8hPa | 2.6V | 03:12:20 | 02:14:52 | 00:00:00 | |
| AA1-15 | 2026-09-05 00:44:34 | 54.92571 | 19.90271 | 82° | 102km/h | 1270m | 13m/s | -41.7°C | 0% | 7.8hPa | 2.6V | 03:12:20 | 02:14:51 | 00:00:00 | |
| DL1XH-west | 2026-09-05 00:44:33 | 54.92558 | 19.90228 | 78° | 97km/h | 1255m | 11m/s | -41.8°C | 0% | 7.8hPa | 2.6V | 03:12:20 | 02:14:50 | 00:00:00 | |
| DL1XH-west | 2026-09-05 00:44:32 | 54.92542 | 19.90187 | 68° | 97km/h | 1239m | 9.2m/s | -41.8°C | 0% | 7.8hPa | 2.5V | 03:12:20 | 02:14:49 | 00:00:00 | |
| DF8AY | 2026-09-05 00:44:31 | 54.92489 | 19.90068 | 44° | 95km/h | 1208m | 10.8m/s | -42°C | 0% | 7.9hPa | 2.6V | 03:12:20 | 02:14:45 | 00:00:00 | |
| DL1XH-west | 2026-09-05 00:44:31 | 54.92511 | 19.90118 | 55° | 97km/h | 1220m | 8m/s | -41.9°C | 0% | 7.8hPa | 2.6V | 03:12:20 | 02:14:47 | 00:00:00 | |
| DF8AY | 2026-09-05 00:44:30 | 54.92470 | 19.90044 | 39° | 91km/h | 1194m | 11.7m/s | -42.1°C | 0% | 7.9hPa | 2.6V | 03:12:20 | 02:14:44 | 00:00:00 | |
| DL1XH-west | 2026-09-05 00:44:29 | 54.92500 | 19.90090 | 54° | 91km/h | 1214m | 9.2m/s | -42°C | 0% | 7.9hPa | 2.7V | 03:12:20 | 02:14:46 | 00:00:00 | |
| DL1XH-west | 2026-09-05 00:44:28 | 54.92449 | 19.90025 | 34° | 93km/h | 1176m | 12.1m/s | -42.2°C | 0% | 7.9hPa | 2.6V | 03:12:20 | 02:14:43 | 00:00:00 | |
| DL1XH1-15 | 2026-09-05 00:44:26 | 54.92427 | 19.90007 | 26° | 95km/h | 1162m | 12.2m/s | -42.3°C | 2.2% | 7.9hPa | 2.6V | 03:11:56 | 02:14:42 | 00:00:00 | |
| DL1XH-west | 2026-09-05 00:44:26 | 54.92427 | 19.90007 | 27° | 95km/h | 1162m | 12.2m/s | -42.3°C | 0% | 7.9hPa | 2.6V | 03:12:20 | 02:14:42 | 00:00:00 | |
| DB0DAN | 2026-09-05 00:44:25 | 54.92404 | 19.89996 | 20° | 89km/h | 1153m | 11m/s | -42.4°C | 0.4% | 7.87hPa | 2.6V | 00:00:00 | 00:00:00 | 00:00:00 | |
| DM0DOS-11 | 2026-09-05 00:44:25 | 54.92383 | 19.89983 | 11° | 100km/h | 1147m | 8.8m/s | -42.4°C | 2.2% | 7.9hPa | 2.6V | 03:11:58 | 02:14:40 | 00:00:00 | |
| DL1XH-west | 2026-09-05 00:44:25 | 54.92404 | 19.89996 | 20° | 93km/h | 1153m | 11m/s | -42.4°C | 0% | 7.9hPa | 2.6V | 03:12:20 | 02:14:41 | 00:00:00 | |
| DL1XH-west | 2026-09-05 00:44:23 | 54.92383 | 19.89983 | 11° | 100km/h | 1148m | 8.8m/s | -42.4°C | 0% | 7.9hPa | 2.6V | 03:12:20 | 02:14:40 | 00:00:00 | |
| AA1-15 | 2026-09-05 00:44:21 | 54.92335 | 19.89974 | 358° | 99km/h | 1137m | 6.5m/s | -42.5°C | 0% | 7.9hPa | 2.6V | 03:12:20 | 02:14:38 | 00:00:00 | |
| DL1XH-west | 2026-09-05 00:44:20 | 54.92307 | 19.89982 | 358° | 97km/h | 1141m | 6.6m/s | -42.5°C | 0% | 7.9hPa | 2.7V | 03:12:20 | 02:14:37 | 00:00:00 | |
| DL1NUX | 2026-09-05 00:44:20 | 54.92279 | 19.89991 | 359° | 99km/h | 1143m | 7.1m/s | -42.5°C | 2.2% | 7.9hPa | 2.6V | 03:12:02 | 02:14:36 | 00:00:00 | |
| AA1-15 | 2026-09-05 00:44:19 | 54.92279 | 19.89991 | 360° | 99km/h | 1143m | 7.1m/s | -42.5°C | 0% | 7.9hPa | 2.6V | 03:12:20 | 02:14:36 | 00:00:00 | |
| DM0DOS-11 | 2026-09-05 00:44:19 | 54.92214 | 19.89991 | 1° | 91km/h | 1122m | 11.6m/s | -42.7°C | 2.2% | 7.9hPa | 2.6V | 03:12:05 | 02:14:33 | 00:00:00 | |
| DL1XH-west | 2026-09-05 00:44:18 | 54.92255 | 19.89991 | 1° | 95km/h | 1136m | 8.2m/s | -42.6°C | 0% | 7.9hPa | 2.6V | 03:12:20 | 02:14:35 | 00:00:00 | |
| DF8AY | 2026-09-05 00:44:18 | 54.92091 | 19.90004 | 360° | 97km/h | 1087m | 7m/s | -42.8°C | 0% | 8hPa | 2.6V | 03:12:20 | 02:14:28 | 00:00:00 | |
| AA1-15 | 2026-09-05 00:44:17 | 54.92233 | 19.89992 | 1° | 97km/h | 1130m | 10.1m/s | -42.6°C | 0% | 7.9hPa | 2.6V | 03:12:20 | 02:14:34 | 00:00:00 | |
| DL1XH-west | 2026-09-05 00:44:16 | 54.92214 | 19.89991 | 2° | 91km/h | 1122m | 11.6m/s | -42.7°C | 0% | 7.9hPa | 2.6V | 03:12:20 | 02:14:33 | 00:00:00 | |
| DL1XH-west | 2026-09-05 00:44:14 | 54.92166 | 19.89991 | 3° | 88km/h | 1111m | 11.2m/s | -42.7°C | 0% | 7.9hPa | 2.6V | 03:12:20 | 02:14:31 | 00:00:00 | |
| DL1XH-west | 2026-09-05 00:44:12 | 54.92118 | 19.89997 | 0° | 95km/h | 1095m | 8.9m/s | -42.8°C | 0% | 8hPa | 2.6V | 03:12:20 | 02:14:29 | 00:00:00 | |
| DL1XH-west | 2026-09-05 00:44:10 | 54.92063 | 19.90007 | 359° | 97km/h | 1076m | 6m/s | -42.8°C | 0% | 8hPa | 2.6V | 03:12:20 | 02:14:27 | 00:00:00 | |
| DB0DAN | 2026-09-05 00:44:10 | 54.92036 | 19.90009 | 358° | 95km/h | 1065m | 7.1m/s | -42.9°C | 0.4% | 7.97hPa | 2.6V | 00:00:00 | 00:00:00 | 00:00:00 | |
| DL1NUX | 2026-09-05 00:44:10 | 54.92036 | 19.90009 | 358° | 100km/h | 1065m | 7.1m/s | -42.9°C | 2.3% | 8hPa | 2.6V | 03:12:12 | 02:14:26 | 00:00:00 | |
| DL1XH-west | 2026-09-05 00:44:09 | 54.92036 | 19.90009 | 358° | 100km/h | 1065m | 7.1m/s | -42.9°C | 0% | 8hPa | 2.6V | 03:12:20 | 02:14:26 | 00:00:00 | |
| DL1XH-west | 2026-09-05 00:44:07 | 54.91984 | 19.90010 | 2° | 93km/h | 1040m | 9.6m/s | -42.9°C | 0% | 8hPa | 2.6V | 03:12:20 | 02:14:24 | 00:00:00 | |
| DL1XH-west | 2026-09-05 00:44:05 | 54.91931 | 19.90012 | 2° | 88km/h | 1011m | 11.8m/s | -43°C | 0% | 8hPa | 2.6V | 03:12:20 | 02:14:22 | 00:00:00 | |
| AA1-15 | 2026-09-05 00:44:04 | 54.91905 | 19.90012 | 3° | 95km/h | 994m | 12m/s | -43.1°C | 0% | 8hPa | 2.6V | 03:12:20 | 02:14:21 | 00:00:00 | |
| DL1NUX | 2026-09-05 00:44:04 | 54.91877 | 19.90014 | 1° | 95km/h | 979m | 11.8m/s | -43.1°C | 2.3% | 8hPa | 2.6V | 03:12:18 | 02:14:20 | 00:00:00 | |
| DL1XH-west | 2026-09-05 00:44:04 | 54.91877 | 19.90014 | 1° | 95km/h | 979m | 11.8m/s | -43.1°C | 0% | 8hPa | 2.6V | 03:12:20 | 02:14:20 | 00:00:00 | |
| AA1-15 | 2026-09-05 00:44:01 | 54.91820 | 19.90005 | 27° | 93km/h | 952m | 8.3m/s | -43.1°C | 0% | 8hPa | 2.6V | 03:12:20 | 02:14:18 | 00:00:00 | |
| DL1XH-west | 2026-09-05 00:44:00 | 54.91796 | 19.89984 | 43° | 97km/h | 946m | 8.2m/s | -43.2°C | 0% | 8hPa | 2.6V | 03:13:11 | 02:14:17 | 00:00:00 | |
| DL1XH-west | 2026-09-05 00:43:58 | 54.91767 | 19.89913 | 79° | 99km/h | 923m | 8.9m/s | -43.2°C | 0% | 8hPa | 2.6V | 03:13:11 | 02:14:15 | 00:00:00 | |
| DL1XH-west | 2026-09-05 00:43:57 | 54.91762 | 19.89873 | 98° | 99km/h | 904m | 10m/s | -43.2°C | 0% | 8hPa | 2.6V | 03:13:11 | 02:14:14 | 00:00:00 | |
| AA1-15 | 2026-09-05 00:43:57 | 54.91761 | 19.89837 | 116° | 100km/h | 884m | 11.2m/s | -43.2°C | 0% | 8.1hPa | 2.6V | 03:13:11 | 02:14:13 | 00:00:00 | |
| DL1XH-west | 2026-09-05 00:43:56 | 54.91762 | 19.89808 | 134° | 102km/h | 863m | 12.2m/s | -43.3°C | 0% | 8hPa | 2.6V | 03:13:11 | 02:14:12 | 00:00:00 | |
| DB0DAN | 2026-09-05 00:43:55 | 54.91765 | 19.89790 | 152° | 95km/h | 841m | 11.9m/s | -43.3°C | 0.4% | 8.08hPa | 2.6V | 00:00:00 | 00:00:00 | 00:00:00 | |
| DL1XH-west | 2026-09-05 00:43:54 | 54.91765 | 19.89790 | 152° | 100km/h | 841m | 11.9m/s | -43.3°C | 0% | 8.1hPa | 2.6V | 03:13:11 | 02:14:11 | 00:00:00 | |
| DL1XH-west | 2026-09-05 00:43:53 | 54.91772 | 19.89787 | 173° | 91km/h | 823m | 11.1m/s | -43.3°C | 0% | 8hPa | 2.6V | 03:13:11 | 02:14:10 | 00:00:00 | |
| AA1-15 | 2026-09-05 00:43:51 | 54.91800 | 19.89812 | 208° | 95km/h | 789m | 8.3m/s | -43.4°C | 0% | 8.1hPa | 2.6V | 03:13:11 | 02:14:08 | 00:00:00 | |
| AA1-15 | 2026-09-05 00:43:50 | 54.91810 | 19.89845 | 230° | 91km/h | 762m | 7.1m/s | -43.5°C | 0% | 8.1hPa | 2.6V | 03:13:11 | 02:14:07 | 00:00:00 | |
| DL1XH-west | 2026-09-05 00:43:49 | 54.91819 | 19.89885 | 251° | 97km/h | 735m | 6.2m/s | -43.5°C | 0% | 8.1hPa | 2.6V | 03:13:11 | 02:14:06 | 00:00:00 | |
| DL1XH1-15 | 2026-09-05 00:43:49 | 54.91822 | 19.89931 | 266° | 99km/h | 710m | 6.9m/s | -43.5°C | 2.4% | 8.1hPa | 2.6V | 03:12:33 | 02:14:05 | 00:00:00 | |
| AA1-15 | 2026-09-05 00:43:48 | 54.91822 | 19.89931 | 266° | 99km/h | 710m | 6.9m/s | -43.5°C | 0% | 8.1hPa | 2.6V | 03:13:11 | 02:14:05 | 00:00:00 | |
| DL1XH-west | 2026-09-05 00:43:47 | 54.91813 | 19.89982 | 277° | 104km/h | 685m | 9.2m/s | -43.4°C | 0% | 8.1hPa | 2.6V | 03:13:11 | 02:14:04 | 00:00:00 | |
| DL1NUX | 2026-09-05 00:43:47 | 54.91806 | 19.90031 | 272° | 95km/h | 654m | 9.3m/s | -43.4°C | 2.3% | 8.1hPa | 2.6V | 03:12:35 | 02:14:03 | 00:00:00 | |
| DL1XH-west | 2026-09-05 00:43:45 | 54.91786 | 19.90089 | 269° | 95km/h | 619m | 9.5m/s | -43.4°C | 0% | 8.1hPa | 2.6V | 03:13:11 | 02:14:02 | 00:00:00 | |
| DL1XH-15 | 2026-09-05 00:43:45 | 54.91717 | 19.90205 | 270° | 95km/h | 534m | 9.7m/s | -43.3°C | 2.3% | 8.1hPa | 2.5V | 03:12:37 | 02:14:01 | 00:00:00 | |
| AA1-15 | 2026-09-05 00:43:44 | 54.91717 | 19.90205 | 270° | 95km/h | 534m | 9.7m/s | -43.3°C | 0% | 8.1hPa | 2.5V | 03:13:11 | 02:14:01 | 00:00:00 | |
| DL1XH-west | 2026-09-05 00:43:43 | 54.91716 | 19.90246 | 271° | 95km/h | 531m | 8.7m/s | -43.3°C | 0% | 8.1hPa | 2.6V | 03:13:11 | 02:14:00 | 00:00:00 | |
| DL1XH1-15 | 2026-09-05 00:43:43 | 54.91717 | 19.90288 | 269° | 95km/h | 527m | 7.6m/s | -43.4°C | 2.3% | 8.2hPa | 2.6V | 03:12:39 | 02:13:59 | 00:00:00 | |
| DF8AY | 2026-09-05 00:43:42 | 54.91717 | 19.90288 | 269° | 95km/h | 527m | 7.6m/s | -43.4°C | 0% | 8.2hPa | 2.6V | 03:13:11 | 02:13:59 | 00:00:00 | |
| DL1NUX | 2026-09-05 00:43:42 | 54.91720 | 19.90365 | 269° | 97km/h | 530m | 6.4m/s | -43.5°C | 2.3% | 8.1hPa | 2.6V | 03:12:41 | 02:13:57 | 00:00:00 | |
| DL1XH-west | 2026-09-05 00:43:41 | 54.91720 | 19.90325 | 272° | 95km/h | 524m | 7.2m/s | -43.4°C | 0% | 8.1hPa | 2.6V | 03:13:11 | 02:13:58 | 00:00:00 | |
| DB0DAN | 2026-09-05 00:43:40 | 54.91720 | 19.90365 | 270° | 91km/h | 530m | 6.4m/s | -43.5°C | 0.4% | 8.13hPa | 2.6V | 00:00:00 | 00:00:00 | 00:00:00 | |
| AA1-15 | 2026-09-05 00:43:40 | 54.91720 | 19.90365 | 270° | 97km/h | 530m | 6.4m/s | -43.5°C | 0% | 8.1hPa | 2.6V | 03:13:11 | 02:13:57 | 00:00:00 | |
| DL1XH-15 | 2026-09-05 00:43:39 | 54.91722 | 19.90447 | 271° | 95km/h | 538m | 7.4m/s | -43.6°C | 2.4% | 8.2hPa | 2.6V | 03:12:43 | 02:13:55 | 00:00:00 | |
| AA1-15 | 2026-09-05 00:43:39 | 54.91720 | 19.90406 | 270° | 97km/h | 532m | 6.5m/s | -43.5°C | 0% | 8.2hPa | 2.6V | 03:13:11 | 02:13:56 | 00:00:00 | |
| DL1XH-west | 2026-09-05 00:43:38 | 54.91722 | 19.90448 | 272° | 95km/h | 538m | 7.4m/s | -43.6°C | 0% | 8.2hPa | 2.6V | 03:13:11 | 02:13:55 | 00:00:00 | |
| DL1XH-west | 2026-09-05 00:43:37 | 54.91723 | 19.90489 | 271° | 95km/h | 549m | 8.7m/s | -43.7°C | 0% | 8.2hPa | 2.6V | 03:13:11 | 02:13:54 | 00:00:00 | |
| DL1NUX | 2026-09-05 00:43:37 | 54.91721 | 19.90597 | 269° | 99km/h | 641m | 12.3m/s | -43.7°C | 2.3% | 8.2hPa | 2.6V | 03:12:47 | 02:13:51 | 00:00:00 | |
| AA1-15 | 2026-09-05 00:43:36 | 54.91723 | 19.90529 | 270° | 97km/h | 556m | 9.2m/s | -43.7°C | 0% | 8.2hPa | 2.6V | 03:13:11 | 02:13:53 | 00:00:00 | |
| DL1XH-west | 2026-09-05 00:43:36 | 54.91723 | 19.90568 | 270° | 99km/h | 587m | 9.5m/s | -43.7°C | 0% | 8.2hPa | 2.6V | 03:13:11 | 02:13:52 | 00:00:00 | |
| AA1-15 | 2026-09-05 00:43:34 | 54.91721 | 19.90597 | 270° | 99km/h | 641m | 12.3m/s | -43.7°C | 0% | 8.2hPa | 2.6V | 03:13:11 | 02:13:51 | 00:00:00 | |
| DM0DOS-11 | 2026-09-05 00:43:33 | 54.91723 | 19.90684 | 258° | 95km/h | 625m | 12.8m/s | -43.6°C | 2.4% | 8.2hPa | 2.5V | 03:12:49 | 02:13:49 | 00:00:00 | |
| DL1XH-west | 2026-09-05 00:43:33 | 54.91720 | 19.90641 | 274° | 93km/h | 635m | 13.6m/s | -43.7°C | 0% | 8.2hPa | 2.6V | 03:13:11 | 02:13:50 | 00:00:00 | |
| DL1XH-west | 2026-09-05 00:43:32 | 54.91723 | 19.90684 | 259° | 95km/h | 625m | 12.8m/s | -43.6°C | 0% | 8.2hPa | 2.5V | 03:13:11 | 02:13:49 | 00:00:00 | |
| DF8AY | 2026-09-05 00:43:30 | 54.88383 | 20.04512 | 0° | 0km/h | 3077m | 0m/s | -43.6°C | 0% | 8.2hPa | 2.6V | 03:13:11 | 02:13:47 | 00:00:00 | |
| DB0DAN | 2026-09-05 00:43:25 | 54.88378 | 20.04422 | 85° | 66km/h | 3074m | 1m/s | -43.8°C | 0.4% | 8.29hPa | 2.6V | 00:00:00 | 00:00:00 | 00:00:00 | |
| DL1XH-west | 2026-09-05 00:43:24 | 54.88376 | 20.04392 | 85° | 69km/h | 3073m | 1m/s | -43.8°C | 0% | 8.3hPa | 2.6V | 03:13:11 | 02:13:41 | 00:00:00 | |
| HSKMA3-T | 2026-09-05 00:43:22 | 54.88373 | 20.04331 | 85° | 69km/h | 3071m | 1m/s | -43.9°C | 0% | 8.3hPa | 2.6V | 03:13:11 | 02:13:39 | 00:00:00 | |
| DL1NUX | 2026-09-05 00:43:22 | 54.88365 | 20.04181 | 84° | 69km/h | 3066m | 1m/s | -44.2°C | 2.3% | 8.3hPa | 2.6V | 03:13:04 | 02:13:34 | 00:00:00 | |
| DF8AY | 2026-09-05 00:43:19 | 54.88368 | 20.04241 | 85° | 69km/h | 3068m | 1m/s | -44.1°C | 0% | 8.3hPa | 2.6V | 03:13:11 | 02:13:36 | 00:00:00 | |
| DM0DOS-11 | 2026-09-05 00:43:18 | 54.88369 | 20.04082 | 31° | 40km/h | 3016m | 16.3m/s | -44.3°C | 2.4% | 8.3hPa | 2.6V | 03:13:08 | 02:13:30 | 00:00:00 | |
| DL1XH1-15 | 2026-09-05 00:43:17 | 54.88363 | 20.04076 | 30° | 7km/h | 3000m | 12.7m/s | -44.4°C | 2.4% | 8.3hPa | 2.6V | 03:13:09 | 02:13:29 | 00:00:00 | |
| DL1XH-west | 2026-09-05 00:43:14 | 54.88378 | 20.04094 | 31° | 49km/h | 3032m | 13.9m/s | -44.3°C | 0% | 8.3hPa | 2.6V | 03:13:11 | 02:13:31 | 00:00:00 | |
| DM0DOS-11 | 2026-09-05 00:43:13 | 54.88340 | 20.04064 | 2° | 13km/h | 2974m | 9.1m/s | -44.4°C | 2.4% | 8.4hPa | 2.6V | 03:13:14 | 02:13:24 | 00:00:00 | |
| HSKMA3-T | 2026-09-05 00:43:11 | 54.88361 | 20.04075 | 12° | 13km/h | 2986m | 10.9m/s | -44.4°C | 0% | 8.3hPa | 2.6V | 03:13:11 | 02:13:28 | 00:00:00 | |
| DB0DAN | 2026-09-05 00:43:10 | 54.88354 | 20.04069 | 11° | 13km/h | 2992m | 11.5m/s | -44.4°C | 0.4% | 8.33hPa | 2.6V | 00:00:00 | 00:00:00 | 00:00:00 | |
| AA1-15 | 2026-09-05 00:43:09 | 54.88351 | 20.04060 | 8° | 11km/h | 2975m | 10.3m/s | -44.4°C | 0% | 8.4hPa | 2.6V | 03:14:02 | 02:13:25 | 00:00:00 | |
| DL1XH-15 | 2026-09-05 00:43:08 | 54.88316 | 20.04049 | 352° | 24km/h | 2946m | 5.5m/s | -44.5°C | 2.5% | 8.4hPa | 2.6V | 03:13:19 | 02:13:19 | 00:00:00 | |
| DL1NUX | 2026-09-05 00:43:07 | 54.88316 | 20.04049 | 352° | 24km/h | 2946m | 5.5m/s | -44.5°C | 2.5% | 8.4hPa | 2.6V | 03:13:19 | 02:13:19 | 00:00:00 | |
| DL1XH-west | 2026-09-05 00:43:03 | 54.88321 | 20.04049 | 358° | 27km/h | 2951m | 4.3m/s | -44.5°C | 0% | 8.4hPa | 2.6V | 03:14:02 | 02:13:20 | 00:00:00 | |
| HSKMA3-T | 2026-09-05 00:43:01 | 54.88313 | 20.04051 | 2° | 15km/h | 2947m | 7.9m/s | -44.6°C | 0% | 8.4hPa | 2.6V | 03:14:02 | 02:13:18 | 00:00:00 | |
| AA1-15 | 2026-09-05 00:42:58 | 54.88302 | 20.04047 | 36° | 9km/h | 2915m | 14.9m/s | -44.7°C | 0% | 8.4hPa | 2.6V | 03:14:02 | 02:13:14 | 00:00:00 | |
| DL1NUX | 2026-09-05 00:42:57 | 54.88285 | 20.04039 | 357° | 11km/h | 2871m | 13.9m/s | -44.8°C | 2.5% | 8.5hPa | 2.6V | 03:13:29 | 02:13:09 | 00:00:00 | |
| DB0DAN | 2026-09-05 00:42:55 | 54.88295 | 20.04043 | 360° | 16km/h | 2929m | 16.1m/s | -44.7°C | 0.4% | 8.46hPa | 2.5V | 00:00:00 | 00:00:00 | 00:00:00 | |
| DL1XH-west | 2026-09-05 00:42:52 | 54.88285 | 20.04039 | 358° | 11km/h | 2871m | 13.9m/s | -44.8°C | 0% | 8.5hPa | 2.6V | 03:14:02 | 02:13:09 | 00:00:00 | |
| HSKMA3-T | 2026-09-05 00:42:50 | 54.88296 | 20.04024 | 354° | 13km/h | 2756m | 13.5m/s | -44.8°C | 0% | 8.5hPa | 2.6V | 03:14:02 | 02:13:07 | 00:00:00 | |
| AA1-15 | 2026-09-05 00:42:48 | 54.88297 | 20.04010 | 359° | 16km/h | 2652m | 12.5m/s | -44.8°C | 0% | 8.5hPa | 2.6V | 03:14:02 | 02:13:04 | 00:00:00 | |
| DM0DOS-11 | 2026-09-05 00:42:47 | 54.88260 | 20.04012 | 1° | 16km/h | 2542m | 13.7m/s | -44.6°C | 2.4% | 8.6hPa | 2.6V | 03:13:39 | 02:12:59 | 00:00:00 | |
| DL1NUX | 2026-09-05 00:42:42 | 54.88185 | 20.04034 | 1° | 11km/h | 2449m | 10.5m/s | -44.5°C | 2.5% | 8.6hPa | 2.6V | 03:13:44 | 02:12:54 | 00:00:00 | |
| DF8AY | 2026-09-05 00:42:41 | 54.88239 | 20.04019 | 2° | 16km/h | 2523m | 14.6m/s | -44.6°C | 0% | 8.6hPa | 2.6V | 03:14:02 | 02:12:58 | 00:00:00 | |
| DB0DAN | 2026-09-05 00:42:40 | 54.88215 | 20.04026 | 11° | 11km/h | 2502m | 13.5m/s | -44.5°C | 0.5% | 8.57hPa | 2.6V | 00:00:00 | 00:00:00 | 00:00:00 | |
| HSKMA3-T | 2026-09-05 00:42:40 | 54.88215 | 20.04026 | 11° | 11km/h | 2502m | 13.5m/s | -44.5°C | 0% | 8.6hPa | 2.6V | 03:14:02 | 02:12:57 | 00:00:00 | |
| AA1-15 | 2026-09-05 00:42:38 | 54.88185 | 20.04034 | 2° | 11km/h | 2449m | 10.5m/s | -44.5°C | 0% | 8.6hPa | 2.6V | 03:14:02 | 02:12:54 | 00:00:00 | |
| DL1XH-15 | 2026-09-05 00:42:34 | 54.88168 | 20.04048 | 359° | 15km/h | 2381m | 11.2m/s | -44.5°C | 2.5% | 8.6hPa | 2.6V | 03:13:49 | 02:12:49 | 00:00:00 | |
| DF8AY | 2026-09-05 00:42:30 | 52.87072 | 11.93769 | 0° | 0km/h | 30902m | 0m/s | -44.5°C | 0% | 8.7hPa | 2.6V | 03:14:02 | 02:12:47 | 00:00:00 | |
| HSKMA3-T | 2026-09-05 00:42:29 | 52.87072 | 11.93769 | 0° | 0km/h | 30902m | 0m/s | -44.5°C | 0% | 8.7hPa | 2.6V | 03:14:02 | 02:12:46 | 00:00:00 | |
| AA1-15 | 2026-09-05 00:42:27 | 52.87072 | 11.93769 | 0° | 0km/h | 30902m | 0m/s | -44.7°C | 0% | 8.7hPa | 2.6V | 03:14:02 | 02:12:43 | 00:00:00 | |
| DB0DAN | 2026-09-05 00:42:25 | 52.87072 | 11.93769 | 0° | 0km/h | 30902m | 0m/s | -44.7°C | 0.5% | 8.72hPa | 2.6V | 00:00:00 | 00:00:00 | 00:00:00 | |
| DAC517 | 2026-09-05 00:42:24 | 52.87043 | 11.93637 | 71° | 31km/h | 30824m | 7.2m/s | -44.7°C | 0.5% | 8.7hPa | 2.5V | 00:00:00 | 00:00:00 | 00:00:00 | |
| TFSTFS | 2026-09-05 00:42:20 | 52.87072 | 11.93769 | 0° | 0km/h | 30902m | 0.0m/s | -44.9°C | 0.5% | 8.7hPa | 2.5V | 03:14:00 | 00:00:00 | 00:00:00 | |
| DL1XH-west | 2026-09-05 00:42:19 | 52.87072 | 11.93769 | 0° | 0km/h | 30902m | 0m/s | -45°C | 0% | 8.8hPa | 2.5V | 03:14:02 | 02:12:36 | 00:00:00 | |
| HSKMA3-T | 2026-09-05 00:42:18 | 52.87072 | 11.93769 | 0° | 0km/h | 30902m | 0m/s | -45°C | 0% | 8.8hPa | 2.6V | 03:14:53 | 02:12:35 | 00:00:00 | |
| AA1-15 | 2026-09-05 00:42:17 | 52.87072 | 11.93769 | 0° | 0km/h | 30902m | 0m/s | -44.9°C | 0% | 8.8hPa | 2.6V | 03:14:53 | 02:12:33 | 00:00:00 | |
| DL4XJ-10 | 2026-09-05 00:42:16 | 52.87073 | 11.93769 | 0° | 0km/h | 30903m | 0.0m/s | -45.3°C | 0% | 0hPa | 2.6V | 00:00:00 | 00:00:00 | 00:00:00 | |
| TFSTFS | 2026-09-05 00:42:11 | 52.87072 | 11.93769 | 0° | 0km/h | 30902m | 0.0m/s | -44.9°C | 0.5% | 8.8hPa | 2.6V | 03:14:00 | 00:00:00 | 00:00:00 | |
| DB0DAN | 2026-09-05 00:42:10 | 52.87072 | 11.93769 | 0° | 0km/h | 30902m | 0m/s | -44.9°C | 0.5% | 8.84hPa | 2.6V | 00:00:00 | 00:00:00 | 00:00:00 | |
| DF8AY | 2026-09-05 00:42:09 | 52.87072 | 11.93769 | 0° | 0km/h | 30902m | 0m/s | -44.9°C | 0% | 8.8hPa | 2.6V | 03:14:53 | 02:12:26 | 00:00:00 | |
| HSKMA3-T | 2026-09-05 00:42:08 | 52.87072 | 11.93769 | 0° | 0km/h | 30902m | 0m/s | -44.9°C | 0% | 8.8hPa | 2.6V | 03:14:53 | 02:12:25 | 00:00:00 | |
| AA1-15 | 2026-09-05 00:42:06 | 52.87072 | 11.93769 | 0° | 0km/h | 30902m | 0m/s | -44.9°C | 0% | 8.9hPa | 2.6V | 03:14:53 | 02:12:22 | 00:00:00 | |
| DAC517 | 2026-09-05 00:42:04 | 52.87043 | 11.93637 | 71° | 31km/h | 30824m | 7.2m/s | -44.9°C | 0.5% | 8.9hPa | 2.6V | 03:14:00 | 00:00:00 | 00:00:00 | |
| DL1LOL-11 | 2026-09-05 00:42:02 | 52.87072 | 11.93769 | 0° | 0km/h | 30902m | 0.0m/s | -44.9°C | 0.5% | 8.9hPa | 2.6V | 00:00:00 | 00:00:00 | 00:00:00 | |
| TFSTFS | 2026-09-05 00:41:59 | 52.87072 | 11.93769 | 0° | 0km/h | 30902m | 0.0m/s | -44.9°C | 0.5% | 8.9hPa | 2.6V | 00:00:00 | 00:00:00 | 00:00:00 | |
| HSKMA3-T | 2026-09-05 00:41:58 | 52.87072 | 11.93769 | 0° | 0km/h | 30902m | 0m/s | -44.8°C | 0% | 8.9hPa | 2.6V | 03:14:53 | 02:12:15 | 00:00:00 | |
| AA1-15 | 2026-09-05 00:41:56 | 52.87072 | 11.93769 | 0° | 0km/h | 30902m | 0m/s | -44.7°C | 0% | 9hPa | 2.5V | 03:14:53 | 02:12:11 | 00:00:00 | |
| DB0DAN | 2026-09-05 00:41:55 | 52.87072 | 11.93769 | 0° | 0km/h | 30902m | 0m/s | -44.7°C | 0.5% | 8.98hPa | 2.6V | 00:00:00 | 00:00:00 | 00:00:00 | |
| HSKMA3-T | 2026-09-05 00:41:48 | 52.87072 | 11.93769 | 0° | 0km/h | 30902m | 0m/s | -44.4°C | 0% | 9hPa | 2.6V | 03:14:53 | 02:12:05 | 00:00:00 | |
| DL2RXE-15 | 2026-09-05 00:41:48 | 52.87072 | 11.93769 | 0° | 0km/h | 30902m | 0.0m/s | -44.4°C | 0.5% | 9.0hPa | 2.6V | 00:00:00 | 00:00:00 | 00:00:00 | |
| DF8AY | 2026-09-05 00:41:47 | 52.87072 | 11.93769 | 0° | 0km/h | 30902m | 0m/s | -44.4°C | 0% | 9.1hPa | 2.6V | 03:14:53 | 02:12:04 | 00:00:00 | |
| AA1-15 | 2026-09-05 00:41:45 | 52.87072 | 11.93769 | 0° | 0km/h | 30902m | 0m/s | -44.2°C | 0% | 9.1hPa | 2.6V | 03:14:53 | 02:12:01 | 00:00:00 | |
| DF7ER-10 | 2026-09-05 00:41:42 | 52.87043 | 11.93637 | 71° | 31km/h | 30824m | 7.2m/s | -44.2°C | 0.5% | 9.1hPa | 2.6V | 03:14:00 | 00:00:00 | 00:00:00 | |
| DB0DAN | 2026-09-05 00:41:40 | 52.87072 | 11.93769 | 0° | 0km/h | 30902m | 0m/s | -44°C | 0.5% | 9.1hPa | 2.6V | 00:00:00 | 00:00:00 | 00:00:00 | |
| TFSTFS | 2026-09-05 00:41:39 | 52.87072 | 11.93769 | 0° | 0km/h | 30902m | 0.0m/s | -44.0°C | 0.5% | 9.1hPa | 2.6V | 00:00:00 | 00:00:00 | 00:00:00 | |
| DF8AY | 2026-09-05 00:41:37 | 52.87072 | 11.93769 | 0° | 0km/h | 30902m | 0m/s | -43.9°C | 0% | 9.1hPa | 2.6V | 03:14:53 | 02:11:53 | 00:00:00 | |
| HSKMA3-T | 2026-09-05 00:41:37 | 52.87072 | 11.93769 | 0° | 0km/h | 30902m | 0m/s | -43.9°C | 0% | 9.1hPa | 2.5V | 03:14:53 | 02:11:54 | 00:00:00 | |
| DL4XJ-10 | 2026-09-05 00:41:36 | 52.87073 | 11.93769 | 0° | 0km/h | 30903m | 0.0m/s | -44.3°C | 0% | 0hPa | 2.6V | 00:00:00 | 00:00:00 | 00:00:00 | |
| AA1-15 | 2026-09-05 00:41:33 | 52.87072 | 11.93769 | 0° | 0km/h | 30902m | 0m/s | -43.8°C | 0% | 9.2hPa | 2.6V | 03:14:53 | 02:11:50 | 00:00:00 | |
| DL1XH-west | 2026-09-05 00:41:27 | 52.87072 | 11.93769 | 0° | 0km/h | 30902m | 0m/s | -43.7°C | 0% | 9.2hPa | 2.6V | 03:15:44 | 02:11:44 | 00:00:00 | |
| HSKMA3-T | 2026-09-05 00:41:26 | 52.87072 | 11.93769 | 0° | 0km/h | 30902m | 0m/s | -43.7°C | 0% | 9.2hPa | 2.5V | 03:15:44 | 02:11:43 | 00:00:00 | |
| DF8AY | 2026-09-05 00:41:26 | 52.87072 | 11.93769 | 0° | 0km/h | 30902m | 0m/s | -43.6°C | 0% | 9.2hPa | 2.6V | 03:15:44 | 02:11:41 | 00:00:00 | |
| DB0DAN | 2026-09-05 00:41:25 | 52.87072 | 11.93769 | 0° | 0km/h | 30902m | 0m/s | -43.6°C | 0.4% | 9.26hPa | 2.6V | 00:00:00 | 00:00:00 | 00:00:00 | |
| AA1-15 | 2026-09-05 00:41:22 | 52.87072 | 11.93769 | 0° | 0km/h | 30902m | 0m/s | -43.5°C | 0% | 9.2hPa | 2.6V | 03:15:44 | 02:11:39 | 00:00:00 | |
| DL1LOL-11 | 2026-09-05 00:41:21 | 52.87072 | 11.93769 | 0° | 0km/h | 30902m | 0.0m/s | -43.5°C | 0.4% | 9.3hPa | 2.6V | 00:00:00 | 00:00:00 | 00:00:00 | |
| DF7ER-10 | 2026-09-05 00:41:20 | 52.87043 | 11.93637 | 71° | 31km/h | 30824m | 7.2m/s | -43.4°C | 0.5% | 9.3hPa | 2.6V | 03:15:00 | 00:00:00 | 00:00:00 | |
| DL4BBY-15 | 2026-09-05 00:41:17 | 52.87073 | 11.93769 | 0° | 0km/h | 30903m | 0.0m/s | -43.7°C | 0% | 0hPa | 2.6V | 00:00:00 | 00:00:00 | 00:00:00 | |
| HSKMA3-T | 2026-09-05 00:41:16 | 52.87072 | 11.93769 | 0° | 0km/h | 30902m | 0m/s | -43.3°C | 0% | 9.3hPa | 2.6V | 03:15:44 | 02:11:33 | 00:00:00 | |
| DL4XJ-10 | 2026-09-05 00:41:16 | 52.87073 | 11.93769 | 0° | 0km/h | 30903m | 0.0m/s | -43.7°C | 0% | 0hPa | 2.6V | 00:00:00 | 00:00:00 | 00:00:00 | |
| DF8AY | 2026-09-05 00:41:14 | 52.87072 | 11.93769 | 0° | 0km/h | 30902m | 0m/s | -43.3°C | 0% | 9.4hPa | 2.6V | 03:15:44 | 02:11:30 | 00:00:00 | |
| AA1-15 | 2026-09-05 00:41:11 | 52.87072 | 11.93769 | 0° | 0km/h | 30902m | 0m/s | -43.3°C | 0% | 9.4hPa | 2.6V | 03:15:44 | 02:11:28 | 00:00:00 | |
| DB0DAN | 2026-09-05 00:41:10 | 52.87072 | 11.93769 | 0° | 0km/h | 30902m | 0m/s | -43.2°C | 0.4% | 9.38hPa | 2.6V | 00:00:00 | 00:00:00 | 00:00:00 | |
| DL1XH-west | 2026-09-05 00:41:06 | 52.87072 | 11.93769 | 0° | 0km/h | 30902m | 0m/s | -43.2°C | 0% | 9.4hPa | 2.5V | 03:15:44 | 02:11:23 | 00:00:00 | |
| HSKMA3-T | 2026-09-05 00:41:05 | 52.87072 | 11.93769 | 0° | 0km/h | 30902m | 0m/s | -43.2°C | 0% | 9.4hPa | 2.6V | 03:15:44 | 02:11:22 | 00:00:00 | |
| DF8AY | 2026-09-05 00:41:03 | 52.87072 | 11.93769 | 0° | 0km/h | 30902m | 0m/s | -43.2°C | 0% | 9.4hPa | 2.6V | 03:15:44 | 02:11:20 | 00:00:00 | |
| DL2RXE-15 | 2026-09-05 00:41:02 | 52.87072 | 11.93769 | 0° | 0km/h | 30902m | 0.0m/s | -43.2°C | 0.4% | 9.4hPa | 2.5V | 00:00:00 | 00:00:00 | 00:00:00 | |
| AA1-15 | 2026-09-05 00:41:01 | 52.87072 | 11.93769 | 0° | 0km/h | 30902m | 0m/s | -43.2°C | 0% | 9.5hPa | 2.5V | 03:15:44 | 02:11:17 | 00:00:00 | |
| DF7ER-10 | 2026-09-05 00:40:59 | 52.87043 | 11.93637 | 71° | 31km/h | 30824m | 7.2m/s | -43.2°C | 0.4% | 9.5hPa | 2.5V | 03:15:00 | 00:00:00 | 00:00:00 | |
| DL4XJ-10 | 2026-09-05 00:40:56 | 52.87073 | 11.93769 | 0° | 0km/h | 30903m | 0.0m/s | -43.5°C | 0% | 0hPa | 2.5V | 00:00:00 | 00:00:00 | 00:00:00 | |
| DB0DAN | 2026-09-05 00:40:55 | 52.87072 | 11.93769 | 0° | 0km/h | 30902m | 0m/s | -43.2°C | 0.5% | 9.5hPa | 2.5V | 00:00:00 | 00:00:00 | 00:00:00 | |
| DL1XH-west | 2026-09-05 00:40:55 | 52.87072 | 11.93769 | 0° | 0km/h | 30902m | 0m/s | -43.2°C | 0% | 9.5hPa | 2.5V | 03:15:44 | 02:11:12 | 00:00:00 | |
| HSKMA3-T | 2026-09-05 00:40:54 | 52.87072 | 11.93769 | 0° | 0km/h | 30902m | 0m/s | -43.2°C | 0% | 9.5hPa | 2.6V | 03:15:44 | 02:11:11 | 00:00:00 | |
| DF8AY | 2026-09-05 00:40:53 | 52.87072 | 11.93769 | 0° | 0km/h | 30902m | 0m/s | -43.2°C | 0% | 9.5hPa | 2.6V | 03:15:44 | 02:11:09 | 00:00:00 | |
| SMARD9-10 | 2026-09-05 00:40:51 | 52.87072 | 11.93769 | 0° | 0km/h | 30902m | 0.0m/s | -43.2°C | 0.4% | 9.5hPa | 2.6V | 00:00:00 | 00:00:00 | 00:00:00 | |
| AA1-15 | 2026-09-05 00:40:50 | 52.87072 | 11.93769 | 0° | 0km/h | 30902m | 0m/s | -43.2°C | 0% | 9.6hPa | 2.6V | 03:15:44 | 02:11:06 | 00:00:00 | |
| TFSTFS | 2026-09-05 00:40:49 | 52.87072 | 11.93769 | 0° | 0km/h | 30902m | 0.0m/s | -43.2°C | 0.4% | 9.5hPa | 2.6V | 03:15:00 | 00:00:00 | 00:00:00 | |
| DF7ER-10 | 2026-09-05 00:40:48 | 52.87043 | 11.93637 | 71° | 31km/h | 30824m | 7.2m/s | -43.2°C | 0.5% | 9.6hPa | 2.6V | 03:15:00 | 00:00:00 | 00:00:00 | |
| DL4BBY-15 | 2026-09-05 00:40:47 | 52.87073 | 11.93769 | 0° | 0km/h | 30903m | 0.0m/s | -43.6°C | 0% | 0hPa | 2.6V | 00:00:00 | 00:00:00 | 00:00:00 | |
| HSKMA3-T | 2026-09-05 00:40:44 | 52.87072 | 11.93769 | 0° | 0km/h | 30902m | 0m/s | -43.2°C | 0% | 9.6hPa | 2.6V | 03:15:44 | 02:11:01 | 00:00:00 | |
| DF8AY | 2026-09-05 00:40:42 | 52.87072 | 11.93769 | 0° | 0km/h | 30902m | 0m/s | -43°C | 0% | 9.7hPa | 2.6V | 03:16:35 | 02:10:53 | 00:00:00 | |
| DB0DAN | 2026-09-05 00:40:40 | 52.87072 | 11.93769 | 0° | 0km/h | 30902m | 0m/s | -43.1°C | 0.4% | 9.65hPa | 2.6V | 00:00:00 | 00:00:00 | 00:00:00 | |
| AA1-15 | 2026-09-05 00:40:39 | 52.87072 | 11.93769 | 0° | 0km/h | 30902m | 0m/s | -43.1°C | 0% | 9.7hPa | 2.6V | 03:15:44 | 02:10:56 | 00:00:00 | |
| TFSTFS | 2026-09-05 00:40:38 | 52.87072 | 11.93769 | 0° | 0km/h | 30902m | 0.0m/s | -43.0°C | 0.4% | 9.7hPa | 2.6V | 03:15:00 | 00:00:00 | 00:00:00 | |
| DL4XJ-10 | 2026-09-05 00:40:36 | 52.87073 | 11.93769 | 0° | 0km/h | 30903m | 0.0m/s | -43.4°C | 0% | 0hPa | 2.6V | 00:00:00 | 00:00:00 | 00:00:00 | |
| DL1XH-west | 2026-09-05 00:40:34 | 52.87072 | 11.93769 | 0° | 0km/h | 30902m | 0m/s | -42.9°C | 0% | 9.7hPa | 2.6V | 03:16:35 | 02:10:51 | 00:00:00 | |
| AA1-15 | 2026-09-05 00:40:30 | 52.87072 | 11.93769 | 0° | 0km/h | 30902m | 0m/s | -42.9°C | 0% | 9.8hPa | 2.6V | 03:16:35 | 02:10:46 | 00:00:00 | |
| TFSTFS | 2026-09-05 00:40:30 | 52.87072 | 11.93769 | 0° | 0km/h | 30902m | 0.0m/s | -42.9°C | 0.4% | 9.7hPa | 2.6V | 03:16:00 | 00:00:00 | 00:00:00 | |
| DF8AY | 2026-09-05 00:40:26 | 52.87072 | 11.93769 | 0° | 0km/h | 30902m | 0m/s | -42.8°C | 0% | 9.8hPa | 2.6V | 03:16:35 | 02:10:42 | 00:00:00 | |
| DB0DAN | 2026-09-05 00:40:25 | 52.87072 | 11.93769 | 0° | 0km/h | 30902m | 0m/s | -42.8°C | 0.4% | 9.76hPa | 2.6V | 00:00:00 | 00:00:00 | 00:00:00 | |
| DL1XH-west | 2026-09-05 00:40:24 | 52.87072 | 11.93769 | 0° | 0km/h | 30902m | 0m/s | -42.8°C | 0% | 9.8hPa | 2.6V | 03:16:35 | 02:10:41 | 00:00:00 | |
| DL2RXE-15 | 2026-09-05 00:40:19 | 52.87072 | 11.93769 | 0° | 0km/h | 30902m | 0.0m/s | -42.8°C | 0.4% | 9.8hPa | 2.6V | 00:00:00 | 00:00:00 | 00:00:00 | |
| AA1-15 | 2026-09-05 00:40:18 | 52.87072 | 11.93769 | 0° | 0km/h | 30902m | 0m/s | -42.8°C | 0% | 9.8hPa | 2.6V | 03:16:35 | 02:10:35 | 00:00:00 | |
| DL4BBY-15 | 2026-09-05 00:40:17 | 52.87073 | 11.93769 | 1° | 7km/h | 30903m | 0.0m/s | -43.2°C | 0% | 0hPa | 2.6V | 00:00:00 | 00:00:00 | 00:00:00 | |
| DF8AY | 2026-09-05 00:40:16 | 52.87072 | 11.93769 | 0° | 0km/h | 30902m | 0m/s | -43°C | 0% | 9.9hPa | 2.6V | 03:16:35 | 02:10:28 | 00:00:00 | |
| DL1XH-west | 2026-09-05 00:40:13 | 52.87072 | 11.93769 | 0° | 0km/h | 30902m | 0m/s | -43°C | 0% | 9.9hPa | 2.6V | 03:16:35 | 02:10:30 | 00:00:00 | |
| DB0DAN | 2026-09-05 00:40:10 | 52.87072 | 11.93769 | 0° | 0km/h | 30902m | 0m/s | -43°C | 0.5% | 9.91hPa | 2.6V | 00:00:00 | 00:00:00 | 00:00:00 | |
| AA1-15 | 2026-09-05 00:40:09 | 52.87072 | 11.93769 | 0° | 0km/h | 30902m | 0m/s | -42.9°C | 0% | 9.9hPa | 2.6V | 03:16:35 | 02:10:25 | 00:00:00 | |
| DF8AY | 2026-09-05 00:40:05 | 52.87072 | 11.93769 | 0° | 0km/h | 30902m | 0m/s | -42.8°C | 0% | 10hPa | 2.5V | 03:16:35 | 02:10:22 | 00:00:00 | |
| DL1XH-west | 2026-09-05 00:40:02 | 52.87072 | 11.93769 | 0° | 0km/h | 30902m | 0m/s | -42.6°C | 0% | 10hPa | 2.6V | 03:16:35 | 02:10:19 | 00:00:00 | |
| AA1-15 | 2026-09-05 00:39:58 | 52.87072 | 11.93769 | 0° | 0km/h | 30902m | 0m/s | -42.5°C | 0% | 10hPa | 2.6V | 03:16:35 | 02:10:15 | 00:00:00 | |
| DF8AY | 2026-09-05 00:39:56 | 52.87072 | 11.93769 | 0° | 0km/h | 30902m | 0m/s | -42.5°C | 0% | 10hPa | 2.6V | 03:16:35 | 02:10:12 | 00:00:00 | |
| TFSTFS | 2026-09-05 00:39:56 | 52.87072 | 11.93769 | 0° | 0km/h | 30902m | 0.0m/s | -42.5°C | 0.5% | 10.0hPa | 2.6V | 03:16:00 | 00:00:00 | 00:00:00 | |
| DB0DAN | 2026-09-05 00:39:55 | 52.87072 | 11.93769 | 0° | 0km/h | 30902m | 0m/s | -42.5°C | 0.4% | 10.01hPa | 2.6V | 00:00:00 | 00:00:00 | 00:00:00 | |
| DL1XH-west | 2026-09-05 00:39:52 | 52.87072 | 11.93769 | 0° | 0km/h | 30902m | 0m/s | -42.6°C | 0% | 10hPa | 2.6V | 03:16:35 | 02:10:09 | 00:00:00 | |
| HSKMA3-T | 2026-09-05 00:39:51 | 52.87072 | 11.93769 | 0° | 0km/h | 30902m | 0m/s | -42.6°C | 0% | 10hPa | 2.6V | 03:16:35 | 02:10:08 | 00:00:00 | |
| AA1-15 | 2026-09-05 00:39:47 | 52.87072 | 11.93769 | 0° | 0km/h | 30902m | 0m/s | -42.5°C | 0% | 10.1hPa | 2.6V | 03:16:35 | 02:10:04 | 00:00:00 | |
| DF8AY | 2026-09-05 00:39:45 | 52.87072 | 11.93769 | 0° | 0km/h | 30902m | 0m/s | -42.4°C | 0% | 10.1hPa | 2.6V | 03:17:26 | 02:10:02 | 00:00:00 | |
| DL1XH-west | 2026-09-05 00:39:41 | 52.87072 | 11.93769 | 0° | 0km/h | 30902m | 0m/s | -42.4°C | 0% | 10.1hPa | 2.6V | 03:17:26 | 02:09:58 | 00:00:00 | |
| DB0DAN | 2026-09-05 00:39:40 | 52.87072 | 11.93769 | 0° | 0km/h | 30902m | 0m/s | -42.4°C | 0.4% | 10.15hPa | 2.6V | 00:00:00 | 00:00:00 | 00:00:00 | |
| HSKMA3-T | 2026-09-05 00:39:40 | 52.87072 | 11.93769 | 0° | 0km/h | 30902m | 0m/s | -42.4°C | 0% | 10.2hPa | 2.6V | 03:17:26 | 02:09:57 | 00:00:00 | |
| AA1-15 | 2026-09-05 00:39:36 | 52.87072 | 11.93769 | 0° | 0km/h | 30902m | 0m/s | -42.4°C | 0% | 10.2hPa | 2.5V | 03:17:26 | 02:09:53 | 00:00:00 | |
| DL4XJ-10 | 2026-09-05 00:39:36 | 52.87073 | 11.93769 | 0° | 0km/h | 30903m | 0.0m/s | -42.8°C | 0% | 0hPa | 2.6V | 00:00:00 | 00:00:00 | 00:00:00 | |
| TFSTFS | 2026-09-05 00:39:35 | 52.87072 | 11.93769 | 0° | 0km/h | 30902m | 0.0m/s | -42.4°C | 0.4% | 10.2hPa | 2.6V | 03:17:00 | 00:00:00 | 00:00:00 | |
| DF8AY | 2026-09-05 00:39:34 | 52.87072 | 11.93769 | 0° | 0km/h | 30902m | 0m/s | -42.4°C | 0% | 10.2hPa | 2.6V | 03:17:26 | 02:09:44 | 00:00:00 | |
| DL2RXE-15 | 2026-09-05 00:39:34 | 52.87072 | 11.93769 | 0° | 0km/h | 30902m | 0.0m/s | -42.4°C | 0.4% | 10.2hPa | 2.6V | 03:17:00 | 00:00:00 | 00:00:00 | |
| DL1XH-west | 2026-09-05 00:39:30 | 52.87072 | 11.93769 | 0° | 0km/h | 30902m | 0m/s | -42.4°C | 0% | 10.2hPa | 2.6V | 03:17:26 | 02:09:47 | 00:00:00 | |
| HSKMA3-T | 2026-09-05 00:39:29 | 52.87072 | 11.93769 | 0° | 0km/h | 30902m | 0m/s | -42.4°C | 0% | 10.2hPa | 2.6V | 03:17:26 | 02:09:46 | 00:00:00 | |
| AA1-15 | 2026-09-05 00:39:26 | 52.87072 | 11.93769 | 0° | 0km/h | 30902m | 0m/s | -42.4°C | 0% | 10.3hPa | 2.6V | 03:17:26 | 02:09:42 | 00:00:00 | |
| DB0DAN | 2026-09-05 00:39:25 | 52.87072 | 11.93769 | 0° | 0km/h | 30902m | 0m/s | -42.4°C | 0.4% | 10.29hPa | 2.6V | 00:00:00 | 00:00:00 | 00:00:00 | |
| HSKMA3-T | 2026-09-05 00:39:19 | 52.87072 | 11.93769 | 0° | 0km/h | 30902m | 0m/s | -42.4°C | 0% | 10.3hPa | 2.5V | 03:17:26 | 02:09:36 | 00:00:00 | |
| DL4XJ-10 | 2026-09-05 00:39:16 | 52.87073 | 11.93769 | 0° | 0km/h | 30903m | 0.0m/s | -42.7°C | 0% | 0hPa | 2.6V | 00:00:00 | 00:00:00 | 00:00:00 | |
| DF8AY | 2026-09-05 00:39:15 | 52.87072 | 11.93769 | 0° | 0km/h | 30902m | 0m/s | -42.3°C | 0% | 10.4hPa | 2.6V | 03:17:26 | 02:09:22 | 00:00:00 | |
| AA1-15 | 2026-09-05 00:39:14 | 52.87072 | 11.93769 | 0° | 0km/h | 30902m | 0m/s | -42.2°C | 0% | 10.3hPa | 2.6V | 03:17:26 | 02:09:31 | 00:00:00 | |
| DF7ER-10 | 2026-09-05 00:39:13 | 52.87043 | 11.93637 | 71° | 31km/h | 30824m | 7.2m/s | -42.2°C | 0.4% | 10.3hPa | 2.6V | 03:17:00 | 00:00:00 | 00:00:00 | |
| DB0DAN | 2026-09-05 00:39:10 | 52.87072 | 11.93769 | 0° | 0km/h | 30902m | 0m/s | -42.3°C | 0.4% | 10.38hPa | 2.6V | 00:00:00 | 00:00:00 | 00:00:00 | |
| HSKMA3-T | 2026-09-05 00:39:08 | 52.87072 | 11.93769 | 0° | 0km/h | 30902m | 0m/s | -42.3°C | 0% | 10.4hPa | 2.5V | 03:17:26 | 02:09:25 | 00:00:00 | |
| AA1-15 | 2026-09-05 00:39:04 | 52.87072 | 11.93769 | 0° | 0km/h | 30902m | 0m/s | -42.3°C | 0% | 10.4hPa | 2.6V | 03:17:26 | 02:09:21 | 00:00:00 | |
| DF8AY | 2026-09-05 00:39:01 | 52.87072 | 11.93769 | 0° | 0km/h | 30902m | 0m/s | -42.4°C | 0% | 10.5hPa | 2.6V | 03:17:26 | 02:09:17 | 00:00:00 | |
| HSKMA3-T | 2026-09-05 00:38:58 | 52.87072 | 11.93769 | 0° | 0km/h | 30902m | 0m/s | -42.4°C | 0% | 10.5hPa | 2.6V | 03:17:26 | 02:09:15 | 00:00:00 | |
| DL1XH-west | 2026-09-05 00:38:58 | 52.87072 | 11.93769 | 0° | 0km/h | 30902m | 0m/s | -42.4°C | 0% | 10.5hPa | 2.6V | 03:17:26 | 02:09:14 | 00:00:00 | |
| DL4XJ-10 | 2026-09-05 00:38:56 | 52.87073 | 11.93769 | 0° | 0km/h | 30903m | 0.0m/s | -42.8°C | 0% | 0hPa | 2.6V | 00:00:00 | 00:00:00 | 00:00:00 | |
| DB0DAN | 2026-09-05 00:38:55 | 52.87072 | 11.93769 | 0° | 0km/h | 30902m | 0m/s | -42.5°C | 0.4% | 10.54hPa | 2.6V | 00:00:00 | 00:00:00 | 00:00:00 | |
| AA1-15 | 2026-09-05 00:38:54 | 52.87072 | 11.93769 | 0° | 0km/h | 30902m | 0m/s | -42.5°C | 0% | 10.6hPa | 2.6V | 03:18:17 | 02:09:10 | 00:00:00 | |
| DH5RUM-10 | 2026-09-05 00:38:53 | 52.87036 | 11.93546 | 90° | 46km/h | 30786m | 4.3m/s | -42.4°C | 0.4% | 10.5hPa | 2.5V | 00:00:00 | 00:00:00 | 00:00:00 | |
| DF7ER-10 | 2026-09-05 00:38:52 | 52.87043 | 11.93637 | 71° | 31km/h | 30824m | 7.2m/s | -42.5°C | 0.4% | 10.6hPa | 2.5V | 03:18:00 | 00:00:00 | 00:00:00 | |
| TFSTFS | 2026-09-05 00:38:50 | 52.87072 | 11.93769 | 0° | 0km/h | 30902m | 0.0m/s | -42.5°C | 0.4% | 10.6hPa | 2.5V | 03:18:00 | 00:00:00 | 00:00:00 | |
| DF8AY | 2026-09-05 00:38:49 | 52.87072 | 11.93769 | 0° | 0km/h | 30902m | 0m/s | -42.6°C | 0% | 10.6hPa | 2.5V | 03:19:08 | 02:09:06 | 00:00:00 | |
| HSKMA3-T | 2026-09-05 00:38:48 | 52.87072 | 11.93769 | 0° | 0km/h | 30902m | 0m/s | -42.7°C | 0% | 10.6hPa | 2.6V | 03:18:17 | 02:09:05 | 00:00:00 | |
| DL1XH-west | 2026-09-05 00:38:48 | 52.87072 | 11.93769 | 0° | 0km/h | 30902m | 0m/s | -42.7°C | 0% | 10.6hPa | 2.6V | 03:18:17 | 02:09:04 | 00:00:00 | |
| TFSTFS | 2026-09-05 00:38:44 | 52.87072 | 11.93769 | 0° | 0km/h | 30902m | 0.0m/s | -42.8°C | 0.4% | 10.6hPa | 2.6V | 03:18:00 | 00:00:00 | 00:00:00 | |
| AA1-15 | 2026-09-05 00:38:43 | 52.87072 | 11.93769 | 0° | 0km/h | 30902m | 0m/s | -42.9°C | 0% | 10.6hPa | 2.6V | 03:18:17 | 02:09:00 | 00:00:00 | |
| DF7ER-10 | 2026-09-05 00:38:42 | 52.87043 | 11.93637 | 71° | 31km/h | 30824m | 7.2m/s | -42.9°C | 0.5% | 10.6hPa | 2.6V | 03:18:00 | 00:00:00 | 00:00:00 | |
| DB0DAN | 2026-09-05 00:38:40 | 52.87072 | 11.93769 | 0° | 0km/h | 30902m | 0m/s | -43°C | 0.4% | 10.65hPa | 2.6V | 00:00:00 | 00:00:00 | 00:00:00 | |
| DF8AY | 2026-09-05 00:38:38 | 52.87072 | 11.93769 | 0° | 0km/h | 30902m | 0m/s | -43.1°C | 0% | 10.7hPa | 2.5V | 03:19:08 | 02:08:55 | 00:00:00 | |
| HSKMA3-T | 2026-09-05 00:38:37 | 52.87072 | 11.93769 | 0° | 0km/h | 30902m | 0m/s | -43.1°C | 0% | 10.7hPa | 2.5V | 03:18:17 | 02:08:54 | 00:00:00 | |
| DL4XJ-10 | 2026-09-05 00:38:36 | 52.87073 | 11.93769 | 0° | 0km/h | 30903m | 0.0m/s | -43.6°C | 0% | 0hPa | 2.5V | 00:00:00 | 00:00:00 | 00:00:00 | |
| DF7ER-10 | 2026-09-05 00:38:31 | 52.87043 | 11.93637 | 71° | 31km/h | 30824m | 7.2m/s | -43.3°C | 0.5% | 10.7hPa | 2.5V | 03:18:00 | 00:00:00 | 00:00:00 | |
| TFSTFS | 2026-09-05 00:38:30 | 52.87072 | 11.93769 | 0° | 0km/h | 30902m | 0.0m/s | -43.2°C | 0.4% | 10.7hPa | 2.5V | 03:18:00 | 00:00:00 | 00:00:00 | |
| DK9SH | 2026-09-05 00:38:28 | 52.87072 | 11.93769 | 0° | 0km/h | 30902m | 0.0m/s | -43.3°C | 0.4% | 10.8hPa | 2.5V | 00:00:00 | 00:00:00 | 00:00:00 | |
| HSKMA3-T | 2026-09-05 00:38:26 | 52.87072 | 11.93769 | 0° | 0km/h | 30902m | 0m/s | -43.4°C | 0% | 10.8hPa | 2.5V | 03:18:17 | 02:08:44 | 00:00:00 | |
| DB0DAN | 2026-09-05 00:38:25 | 52.87072 | 11.93769 | 0° | 0km/h | 30902m | 0m/s | -43.5°C | 0.4% | 10.81hPa | 2.6V | 00:00:00 | 00:00:00 | 00:00:00 | |
| TFSTFS | 2026-09-05 00:38:24 | 52.87072 | 11.93769 | 0° | 0km/h | 30902m | 0.0m/s | -43.5°C | 0.4% | 10.8hPa | 2.6V | 03:18:00 | 00:00:00 | 00:00:00 | |
| AA1-15 | 2026-09-05 00:38:21 | 52.87072 | 11.93769 | 0° | 0km/h | 30902m | 0m/s | -43.6°C | 0% | 10.8hPa | 2.6V | 03:18:17 | 02:08:39 | 00:00:00 | |
| DF8AY | 2026-09-05 00:38:17 | 52.87072 | 11.93769 | 0° | 0km/h | 30902m | 0m/s | -43.7°C | 0% | 10.8hPa | 2.6V | 03:19:08 | 02:08:35 | 00:00:00 | |
| HSKMA3-T | 2026-09-05 00:38:16 | 52.87072 | 11.93769 | 0° | 0km/h | 30902m | 0m/s | -43.8°C | 0% | 10.9hPa | 2.6V | 03:18:17 | 02:08:34 | 00:00:00 | |
| DL1XH-west | 2026-09-05 00:38:16 | 52.87072 | 11.93769 | 0° | 0km/h | 30902m | 0m/s | -43.8°C | 0% | 10.9hPa | 2.5V | 03:18:17 | 02:08:33 | 00:00:00 | |
| AA1-15 | 2026-09-05 00:38:11 | 52.87072 | 11.93769 | 0° | 0km/h | 30902m | 0m/s | -44°C | 0% | 10.9hPa | 2.6V | 03:18:17 | 02:08:29 | 00:00:00 | |
| DB0DAN | 2026-09-05 00:38:10 | 52.87072 | 11.93769 | 0° | 0km/h | 30902m | 0m/s | -44.1°C | 0.5% | 10.94hPa | 2.6V | 00:00:00 | 00:00:00 | 00:00:00 | |
| TFSTFS | 2026-09-05 00:38:10 | 52.87072 | 11.93769 | 0° | 0km/h | 30902m | 0.0m/s | -44.1°C | 0.5% | 10.9hPa | 2.6V | 03:18:00 | 00:00:00 | 00:00:00 | |
| DF8AY | 2026-09-05 00:38:06 | 52.87072 | 11.93769 | 0° | 0km/h | 30902m | 0m/s | -44.4°C | 0% | 11hPa | 2.6V | 03:19:08 | 02:08:24 | 00:00:00 | |
| HSKMA3-T | 2026-09-05 00:38:05 | 52.87072 | 11.93769 | 0° | 0km/h | 30902m | 0m/s | -44.5°C | 0% | 11hPa | 2.6V | 03:18:17 | 02:08:23 | 00:00:00 | |
| DL1XH-west | 2026-09-05 00:38:05 | 52.87072 | 11.93769 | 0° | 0km/h | 30902m | 0m/s | -44.5°C | 0% | 11hPa | 2.5V | 03:18:17 | 02:08:22 | 00:00:00 | |
| DL2RXE-15 | 2026-09-05 00:38:05 | 52.87072 | 11.93769 | 0° | 0km/h | 30902m | 0.0m/s | -44.5°C | 0.5% | 11.0hPa | 2.6V | 00:00:00 | 00:00:00 | 00:00:00 | |
| TFSTFS | 2026-09-05 00:38:03 | 52.87072 | 11.93769 | 0° | 0km/h | 30902m | 0.0m/s | -44.5°C | 0.5% | 11.0hPa | 2.6V | 03:18:00 | 00:00:00 | 00:00:00 | |
| AA1-15 | 2026-09-05 00:38:01 | 52.87072 | 11.93769 | 0° | 0km/h | 30902m | 0m/s | -44.5°C | 0% | 11hPa | 2.6V | 03:19:08 | 02:08:19 | 00:00:00 | |
| DK9SH | 2026-09-05 00:38:01 | 52.87072 | 11.93769 | 0° | 0km/h | 30902m | 0.0m/s | -44.5°C | 0.5% | 11.0hPa | 2.6V | 03:19:00 | 00:00:00 | 00:00:00 | |
| BIOWL1-15 | 2026-09-05 00:37:59 | 52.87072 | 11.93769 | 0° | 0km/h | 30902m | 0m/s | 0°C | 0% | 0hPa | 2.6V | 18:12:15 | 02:08:17 | 00:00:00 | |
| DF8AY | 2026-09-05 00:37:56 | 52.87064 | 11.93733 | 70° | 31km/h | 30881m | 7.2m/s | -44.4°C | 0% | 11.1hPa | 2.6V | 03:19:08 | 02:08:14 | 00:00:00 | |
| SONDE2-11 | 2026-09-05 00:37:56 | 52.87043 | 11.93637 | 69° | 29km/h | 30824m | 7.2m/s | -44.3°C | 0.5% | 11.2hPa | 2.6V | 00:00:00 | 00:00:00 | 00:00:00 | |
| DB0DAN | 2026-09-05 00:37:55 | 52.87062 | 11.93721 | 70° | 29km/h | 30873m | 7.2m/s | -44.3°C | 0.5% | 11.11hPa | 2.6V | 00:00:00 | 00:00:00 | 00:00:00 | |
| HSKMA3-T | 2026-09-05 00:37:55 | 52.87062 | 11.93721 | 70° | 31km/h | 30873m | 7.2m/s | -44.3°C | 0% | 11.1hPa | 2.6V | 03:19:08 | 02:08:13 | 00:00:00 | |
| DL1XH-west | 2026-09-05 00:37:54 | 52.87059 | 11.93709 | 70° | 31km/h | 30866m | 7.2m/s | -44.3°C | 0% | 11.1hPa | 2.6V | 03:19:08 | 02:08:12 | 00:00:00 | |
| DL1XH-15 | 2026-09-05 00:37:52 | 52.87040 | 11.93625 | 71° | 31km/h | 30816m | 6.3m/s | -44.3°C | 2.5% | 11.2hPa | 2.6V | 03:18:33 | 02:08:05 | 00:00:00 | |
| AA1-15 | 2026-09-05 00:37:51 | 52.87051 | 11.93673 | 70° | 31km/h | 30845m | 7.2m/s | -44.3°C | 0% | 11.1hPa | 2.6V | 03:19:08 | 02:08:09 | 00:00:00 | |
| DF7ER-10 | 2026-09-05 00:37:50 | 52.87043 | 11.93637 | 71° | 31km/h | 30824m | 7.2m/s | -44.3°C | 0.5% | 11.2hPa | 2.7V | 03:19:00 | 00:00:00 | 00:00:00 | |
| DL1XH1-15 | 2026-09-05 00:37:49 | 52.87036 | 11.93583 | 86° | 40km/h | 30798m | 7.6m/s | -44.3°C | 2.5% | 11.2hPa | 2.7V | 03:18:36 | 02:08:02 | 00:00:00 | |
| DF8AY | 2026-09-05 00:37:46 | 52.87038 | 11.93613 | 78° | 33km/h | 30811m | 5.7m/s | -44.3°C | 0% | 11.2hPa | 2.6V | 03:19:08 | 02:08:04 | 00:00:00 | |
| HSKMA3-T | 2026-09-05 00:37:45 | 52.87037 | 11.93599 | 83° | 35km/h | 30805m | 6.3m/s | -44.3°C | 0% | 11.2hPa | 2.6V | 03:19:08 | 02:08:03 | 00:00:00 | |
| DL1XH-west | 2026-09-05 00:37:44 | 52.87036 | 11.93565 | 90° | 46km/h | 30791m | 6.1m/s | -44.4°C | 0% | 11.2hPa | 2.6V | 03:19:08 | 02:08:01 | 00:00:00 | |
| DO2SHX-10 | 2026-09-05 00:37:44 | 52.87036 | 11.93583 | 87° | 44km/h | 30799m | 7.5m/s | -44.3°C | 2.5% | 11.1hPa | 2.6V | 00:00:00 | 02:08:02 | 00:00:00 | |
| DM0DOS-11 | 2026-09-05 00:37:43 | 52.87030 | 11.93488 | 57° | 24km/h | 30763m | 6.8m/s | -44.4°C | 2.5% | 11.3hPa | 2.6V | 03:18:42 | 02:07:56 | 00:00:00 | |
| BIOWL1-15 | 2026-09-05 00:37:42 | 52.87017 | 11.93465 | 52° | 27km/h | 30747m | 5.8m/s | 0°C | 0% | 0hPa | 2.6V | 18:12:15 | 02:07:53 | 00:00:00 | |
| AA1-15 | 2026-09-05 00:37:40 | 52.87034 | 11.93511 | 83° | 37km/h | 30776m | 5.9m/s | -44.5°C | 0% | 11.3hPa | 2.7V | 03:19:08 | 02:07:58 | 00:00:00 | |
| DB0DAN | 2026-09-05 00:37:40 | 52.87034 | 11.93511 | 83° | 35km/h | 30776m | 5.9m/s | -44.5°C | 0.5% | 11.26hPa | 2.7V | 00:00:00 | 00:00:00 | 00:00:00 | |
| DJ2DS-15 | 2026-09-05 00:37:40 | 52.87033 | 11.93498 | 72° | 29km/h | 30770m | 7.2m/s | -44.5°C | 0.5% | 11.3hPa | 2.6V | 00:00:00 | 00:00:00 | 00:00:00 | |
| HTAHTA | 2026-09-05 00:37:39 | 52.87033 | 11.93498 | 72° | 29km/h | 30770m | 7.2m/s | -44.5°C | 0.5% | 11.3hPa | 2.6V | 00:00:00 | 00:00:00 | 00:00:00 | |
| DO2SHX-10 | 2026-09-05 00:37:38 | 52.87030 | 11.93488 | 58° | 24km/h | 30764m | 6.7m/s | -44.4°C | 2.5% | 11.2hPa | 2.6V | 00:00:00 | 02:07:56 | 00:00:00 | |
| DL1NUX | 2026-09-05 00:37:37 | 52.87009 | 11.93424 | 89° | 40km/h | 30729m | 6.2m/s | -44.4°C | 2.5% | 11.3hPa | 2.6V | 03:18:48 | 02:07:50 | 00:00:00 | |
| DF8AY | 2026-09-05 00:37:36 | 52.87022 | 11.93473 | 43° | 26km/h | 30752m | 4.9m/s | -44.4°C | 0% | 11.3hPa | 2.7V | 03:19:08 | 02:07:54 | 00:00:00 | |
| HSKMA3-T | 2026-09-05 00:37:34 | 52.87013 | 11.93454 | 64° | 33km/h | 30741m | 6.5m/s | -44.4°C | 0% | 11.3hPa | 2.6V | 03:19:08 | 02:07:52 | 00:00:00 | |
| DL1XH-west | 2026-09-05 00:37:32 | 52.87010 | 11.93424 | 89° | 40km/h | 30729m | 6.2m/s | -44.4°C | 0% | 11.3hPa | 2.6V | 03:19:08 | 02:07:50 | 00:00:00 | |
| DO2SHX-10 | 2026-09-05 00:37:32 | 52.87010 | 11.93424 | 90° | 40km/h | 30729m | 6.1m/s | -44.4°C | 2.5% | 11.3hPa | 2.6V | 00:00:00 | 02:07:50 | 00:00:00 | |
| DD8BA-10 | 2026-09-05 00:37:31 | 52.87010 | 11.93407 | 98° | 31km/h | 30723m | 5.8m/s | -44.3°C | 2.5% | 11.3hPa | 2.6V | 00:00:00 | 00:00:00 | 00:00:00 | |
| DM0DOS-11 | 2026-09-05 00:37:30 | 52.87016 | 11.93364 | 103° | 26km/h | 30704m | 5.2m/s | -44.3°C | 2.5% | 11.4hPa | 2.6V | 03:18:52 | 02:07:46 | 00:00:00 | |
| AA1-15 | 2026-09-05 00:37:29 | 52.87014 | 11.93376 | 106° | 35km/h | 30710m | 6.5m/s | -44.4°C | 0% | 11.4hPa | 2.6V | 03:19:08 | 02:07:47 | 00:00:00 | |
| DO2SHX-10 | 2026-09-05 00:37:29 | 52.87014 | 11.93375 | 106° | 26km/h | 30711m | 6.5m/s | -44.3°C | 2.5% | 11.3hPa | 2.6V | 00:00:00 | 02:07:47 | 00:00:00 | |
| DL1XH-15 | 2026-09-05 00:37:28 | 52.87017 | 11.93355 | 86° | 18km/h | 30699m | 5m/s | -44.3°C | 2.5% | 11.4hPa | 2.6V | 03:18:53 | 02:07:45 | 00:00:00 | |
| DB0NH | 2026-09-05 00:37:28 | 52.87016 | 11.93364 | 104° | 26km/h | 30705m | 5.1m/s | -44.3°C | 2.5% | 11.3hPa | 2.6V | 00:00:00 | 02:07:46 | 00:00:00 | |
| DL1NUX | 2026-09-05 00:37:27 | 52.86993 | 11.93314 | 37° | 38km/h | 30668m | 4.8m/s | -44.1°C | 2.4% | 11.4hPa | 2.6V | 03:18:58 | 02:07:40 | 00:00:00 | |
| DF8AY | 2026-09-05 00:37:26 | 52.87016 | 11.93347 | 63° | 18km/h | 30694m | 6.1m/s | -44.2°C | 0% | 11.4hPa | 2.7V | 03:19:08 | 02:07:44 | 00:00:00 | |
| BIOWL1-15 | 2026-09-05 00:37:26 | 52.87007 | 11.93332 | 37° | 31km/h | 30680m | 6.9m/s | 0°C | 0% | 0hPa | 2.6V | 18:12:15 | 02:07:42 | 00:00:00 | |
| DL1XH1-15 | 2026-09-05 00:37:26 | 52.87007 | 11.93332 | 37° | 31km/h | 30680m | 6.9m/s | -44.2°C | 2.4% | 11.4hPa | 2.6V | 03:18:56 | 02:07:42 | 00:00:00 | |
| HSKMA3-T | 2026-09-05 00:37:23 | 52.87000 | 11.93323 | 37° | 38km/h | 30673m | 5.4m/s | -44.2°C | 0% | 11.4hPa | 2.6V | 03:19:08 | 02:07:41 | 00:00:00 | |
| DL1XH-west | 2026-09-05 00:37:22 | 52.86985 | 11.93304 | 41° | 35km/h | 30663m | 4.8m/s | -44.1°C | 0% | 11.4hPa | 2.7V | 03:19:08 | 02:07:39 | 00:00:00 | |
| DC4HF-4 | 2026-09-05 00:37:21 | 52.86979 | 11.93295 | 45° | 27km/h | 30658m | 6.6m/s | -44.2°C | 0.5% | 11.4hPa | 2.7V | 00:00:00 | 00:00:00 | 00:00:00 | |
| DO2SHX-10 | 2026-09-05 00:37:20 | 52.86979 | 11.93295 | 46° | 24km/h | 30658m | 6.5m/s | -44.1°C | 2.4% | 11.4hPa | 2.7V | 00:00:00 | 02:07:38 | 00:00:00 | |
| DL1XH1-15 | 2026-09-05 00:37:19 | 52.86977 | 11.93241 | 90° | 27km/h | 30619m | 5.5m/s | -44.3°C | 2.5% | 11.5hPa | 2.7V | 03:19:06 | 02:07:32 | 00:00:00 | |
| AA1-15 | 2026-09-05 00:37:18 | 52.86974 | 11.93279 | 85° | 18km/h | 30644m | 6.3m/s | -44.2°C | 0% | 11.4hPa | 2.6V | 03:19:08 | 02:07:36 | 00:00:00 | |
| DL1XH-15 | 2026-09-05 00:37:18 | 52.86974 | 11.93271 | 103° | 20km/h | 30638m | 5.8m/s | -44.2°C | 2.4% | 11.5hPa | 2.6V | 03:19:03 | 02:07:35 | 00:00:00 | |
| DF8AY | 2026-09-05 00:37:15 | 52.86977 | 11.93252 | 100° | 26km/h | 30625m | 6.5m/s | -44.4°C | 0% | 11.5hPa | 2.7V | 03:19:08 | 02:07:33 | 00:00:00 | |
| HSKMA3-T | 2026-09-05 00:37:13 | 52.86977 | 11.93230 | 78° | 27km/h | 30614m | 4.8m/s | -44.4°C | 0% | 11.5hPa | 2.6V | 03:19:08 | 02:07:31 | 00:00:00 | |
| DL1XH-west | 2026-09-05 00:37:11 | 52.86968 | 11.93206 | 37° | 18km/h | 30596m | 6.7m/s | -44.5°C | 0% | 11.6hPa | 2.6V | 03:19:59 | 02:07:28 | 00:00:00 | |
| DB0DAN | 2026-09-05 00:37:10 | 52.86968 | 11.93206 | 37° | 18km/h | 30596m | 6.7m/s | -44.5°C | 0.5% | 11.55hPa | 2.6V | 00:00:00 | 00:00:00 | 00:00:00 | |
| DL1XH-15 | 2026-09-05 00:37:08 | 52.86956 | 11.93197 | 24° | 20km/h | 30579m | 5.2m/s | -44.5°C | 2.4% | 11.6hPa | 2.6V | 03:19:13 | 02:07:25 | 00:00:00 | |
| AA1-15 | 2026-09-05 00:37:07 | 52.86956 | 11.93197 | 24° | 20km/h | 30579m | 5.2m/s | -44.5°C | 0% | 11.6hPa | 2.6V | 03:19:59 | 02:07:25 | 00:00:00 | |
| DL1NUX | 2026-09-05 00:37:07 | 52.86936 | 11.93160 | 77° | 22km/h | 30550m | 5.9m/s | -44.6°C | 2.5% | 11.6hPa | 2.6V | 03:19:18 | 02:07:20 | 00:00:00 | |
| DF8AY | 2026-09-05 00:37:04 | 52.86941 | 11.93178 | 55° | 27km/h | 30560m | 5.5m/s | -44.6°C | 0% | 11.6hPa | 2.6V | 03:19:59 | 02:07:22 | 00:00:00 | |
| HSKMA3-T | 2026-09-05 00:37:02 | 52.86936 | 11.93160 | 77° | 22km/h | 30550m | 5.9m/s | -44.6°C | 0% | 11.6hPa | 2.6V | 03:19:59 | 02:07:20 | 00:00:00 | |
| DL1XH-west | 2026-09-05 00:37:00 | 52.86937 | 11.93140 | 110° | 13km/h | 30532m | 4.7m/s | -44.8°C | 0% | 11.6hPa | 2.7V | 03:19:59 | 02:07:17 | 00:00:00 | |
| DO2SHX-10 | 2026-09-05 00:36:59 | 52.86937 | 11.93140 | 110° | 15km/h | 30532m | 4.7m/s | -44.7°C | 2.5% | 11.6hPa | 2.6V | 03:19:00 | 02:07:17 | 00:00:00 | |
| DL1XH-15 | 2026-09-05 00:36:58 | 52.86937 | 11.93129 | 73° | 16km/h | 30521m | 6.2m/s | -44.8°C | 2.5% | 11.7hPa | 2.6V | 03:19:23 | 02:07:15 | 00:00:00 | |
| DB0NH | 2026-09-05 00:36:58 | 52.86938 | 11.93135 | 96° | 24km/h | 30527m | 4.8m/s | -44.7°C | 2.5% | 11.6hPa | 2.6V | 00:00:00 | 02:07:16 | 00:00:00 | |
| DL1NUX | 2026-09-05 00:36:57 | 52.86913 | 11.93087 | 31° | 31km/h | 30491m | 6.5m/s | -44.7°C | 2.5% | 11.8hPa | 2.6V | 03:19:28 | 02:07:10 | 00:00:00 | |
| AA1-15 | 2026-09-05 00:36:56 | 52.86935 | 11.93122 | 58° | 24km/h | 30514m | 7m/s | -44.8°C | 0% | 11.7hPa | 2.6V | 03:19:59 | 02:07:14 | 00:00:00 | |
| DB0DAN | 2026-09-05 00:36:55 | 52.86931 | 11.93113 | 48° | 29km/h | 30508m | 5.8m/s | -44.7°C | 0.5% | 11.7hPa | 2.7V | 00:00:00 | 00:00:00 | 00:00:00 | |
| DF8AY | 2026-09-05 00:36:54 | 52.86926 | 11.93104 | 42° | 33km/h | 30503m | 5.2m/s | -44.7°C | 0% | 11.7hPa | 2.6V | 03:19:59 | 02:07:12 | 00:00:00 | |
| SONDE2-11 | 2026-09-05 00:36:54 | 52.86919 | 11.93095 | 37° | 33km/h | 30497m | 6.3m/s | -44.7°C | 0.5% | 11.7hPa | 2.6V | 00:00:00 | 00:00:00 | 00:00:00 | |
| DM0DOS-11 | 2026-09-05 00:36:53 | 52.86884 | 11.93050 | 61° | 29km/h | 30460m | 5.5m/s | -44.7°C | 2.6% | 11.8hPa | 2.6V | 03:19:33 | 02:07:05 | 00:00:00 | |
| HSKMA3-T | 2026-09-05 00:36:52 | 52.86912 | 11.93087 | 32° | 31km/h | 30491m | 6.5m/s | -44.7°C | 0% | 11.8hPa | 2.6V | 03:19:59 | 02:07:10 | 00:00:00 | |
| DL1XH-west | 2026-09-05 00:36:48 | 52.86888 | 11.93059 | 48° | 29km/h | 30466m | 7m/s | -44.7°C | 0% | 11.8hPa | 2.7V | 03:19:59 | 02:07:06 | 00:00:00 | |
| DL1NUX | 2026-09-05 00:36:48 | 52.86884 | 11.93003 | 115° | 15km/h | 30431m | 4.5m/s | -44.7°C | 2.5% | 11.8hPa | 2.6V | 03:19:38 | 02:07:00 | 00:00:00 | |
| AA1-15 | 2026-09-05 00:36:45 | 52.86880 | 11.93028 | 88° | 26km/h | 30449m | 5.8m/s | -44.7°C | 0% | 11.8hPa | 2.6V | 03:19:59 | 02:07:03 | 00:00:00 | |
| DF8AY | 2026-09-05 00:36:45 | 52.86881 | 11.93018 | 102° | 24km/h | 30443m | 7.1m/s | -44.7°C | 0% | 11.8hPa | 2.7V | 03:19:59 | 02:07:02 | 00:00:00 | |
| DC4HF-4 | 2026-09-05 00:36:45 | 52.86881 | 11.93018 | 102° | 22km/h | 30443m | 7.1m/s | -44.7°C | 0.5% | 11.8hPa | 2.6V | 00:00:00 | 00:00:00 | 00:00:00 | |
| BIOWL1-15 | 2026-09-05 00:36:44 | 52.86881 | 11.92987 | 43° | 22km/h | 30416m | 6.9m/s | 0°C | 0% | 0hPa | 2.6V | 18:12:15 | 02:06:57 | 00:00:00 | |
| DO2SHX-10 | 2026-09-05 00:36:44 | 52.86880 | 11.93018 | 103° | 18km/h | 30443m | 7.1m/s | -44.7°C | 2.5% | 11.8hPa | 2.7V | 00:00:00 | 02:07:02 | 00:00:00 | |
| SP3BTT-10 | 2026-09-05 00:36:43 | 52.86882 | 11.93010 | 116° | 16km/h | 30436m | 6.2m/s | -44.7°C | 2.5% | 11.8hPa | 2.7V | 00:00:00 | 00:00:00 | 00:00:00 | |
| DL1XH-15 | 2026-09-05 00:36:42 | 52.86869 | 11.92973 | 30° | 35km/h | 30403m | 5m/s | -44.8°C | 2.5% | 11.9hPa | 2.6V | 03:19:43 | 02:06:55 | 00:00:00 | |
| DM0DOS-11 | 2026-09-05 00:36:42 | 52.86876 | 11.92980 | 35° | 31km/h | 30409m | 6.5m/s | -44.8°C | 2.5% | 11.8hPa | 2.7V | 03:19:42 | 02:06:56 | 00:00:00 | |
| HSKMA3-T | 2026-09-05 00:36:42 | 52.86884 | 11.93003 | 115° | 15km/h | 30431m | 4.5m/s | -44.7°C | 0% | 11.8hPa | 2.6V | 03:19:59 | 02:07:00 | 00:00:00 | |
| MECKS9 | 2026-09-05 00:36:41 | 52.86884 | 11.93003 | 116° | 15km/h | 30431m | 4.5m/s | -44.7°C | 0.5% | 11.8hPa | 2.6V | 00:00:00 | 00:00:00 | 00:00:00 | |
| DB0DAN | 2026-09-05 00:36:40 | 52.86884 | 11.92993 | 61° | 15km/h | 30422m | 5.5m/s | -44.7°C | 0.5% | 11.83hPa | 2.6V | 00:00:00 | 00:00:00 | 00:00:00 | |
| DL1XH-west | 2026-09-05 00:36:38 | 52.86876 | 11.92980 | 36° | 31km/h | 30409m | 6.5m/s | -44.8°C | 0% | 11.9hPa | 2.7V | 03:19:59 | 02:06:56 | 00:00:00 | |
| DO2SHX-10 | 2026-09-05 00:36:38 | 52.86875 | 11.92980 | 36° | 33km/h | 30409m | 6.5m/s | -44.7°C | 2.5% | 11.8hPa | 2.7V | 00:00:00 | 02:06:56 | 00:00:00 | |
| HTAHTA | 2026-09-05 00:36:37 | 52.86869 | 11.92973 | 30° | 33km/h | 30403m | 5.0m/s | -44.8°C | 0.5% | 11.9hPa | 2.6V | 00:00:00 | 00:00:00 | 00:00:00 | |
| DL1XH1-15 | 2026-09-05 00:36:36 | 52.86850 | 11.92954 | 33° | 20km/h | 30389m | 5.9m/s | -44.8°C | 2.5% | 11.9hPa | 2.6V | 03:19:46 | 02:06:52 | 00:00:00 | |
| AA1-15 | 2026-09-05 00:36:35 | 52.86849 | 11.92954 | 33° | 20km/h | 30389m | 5.9m/s | -44.8°C | 0% | 11.9hPa | 2.6V | 03:19:59 | 02:06:52 | 00:00:00 | |
| DF8AY | 2026-09-05 00:36:33 | 52.86848 | 11.92932 | 102° | 16km/h | 30359m | 5.2m/s | -44.7°C | 0% | 12hPa | 2.6V | 03:19:59 | 02:06:47 | 00:00:00 | |
| DM0DOS-11 | 2026-09-05 00:36:32 | 52.86848 | 11.92925 | 88° | 16km/h | 30354m | 4.7m/s | -44.8°C | 2.5% | 11.9hPa | 2.6V | 03:19:52 | 02:06:46 | 00:00:00 | |
| HSKMA3-T | 2026-09-05 00:36:31 | 52.86846 | 11.92943 | 109° | 11km/h | 30371m | 6.2m/s | -44.7°C | 0% | 11.9hPa | 2.7V | 03:19:59 | 02:06:49 | 00:00:00 | |
| DD8BA-10 | 2026-09-05 00:36:31 | 52.86845 | 11.92943 | 109° | 16km/h | 30371m | 6.1m/s | -44.7°C | 2.5% | 11.9hPa | 2.6V | 03:19:00 | 00:00:00 | 00:00:00 | |
| MECKS9 | 2026-09-05 00:36:30 | 52.86846 | 11.92943 | 110° | 11km/h | 30371m | 6.2m/s | -44.7°C | 0.5% | 11.9hPa | 2.6V | 00:00:00 | 00:00:00 | 00:00:00 | |
| DO2SHX-10 | 2026-09-05 00:36:29 | 52.86848 | 11.92932 | 103° | 16km/h | 30359m | 5.2m/s | -44.7°C | 2.5% | 11.9hPa | 2.6V | 00:00:00 | 02:06:47 | 00:00:00 | |
| DL1XH-15 | 2026-09-05 00:36:28 | 52.86848 | 11.92919 | 72° | 16km/h | 30349m | 5.1m/s | -44.8°C | 2.5% | 12hPa | 2.6V | 03:19:53 | 02:06:45 | 00:00:00 | |
| DL1XH-west | 2026-09-05 00:36:28 | 52.86848 | 11.92925 | 89° | 16km/h | 30354m | 4.7m/s | -44.8°C | 0% | 11.9hPa | 2.6V | 03:19:59 | 02:06:46 | 00:00:00 | |
| DB0NH | 2026-09-05 00:36:28 | 52.86848 | 11.92925 | 89° | 15km/h | 30354m | 4.7m/s | -44.7°C | 2.5% | 11.9hPa | 2.7V | 03:19:00 | 02:06:46 | 00:00:00 | |
| DL1NUX | 2026-09-05 00:36:27 | 52.86829 | 11.92904 | 14° | 24km/h | 30321m | 5m/s | -44.8°C | 2.5% | 12hPa | 2.7V | 03:19:58 | 02:06:40 | 00:00:00 | |
| DB0DAN | 2026-09-05 00:36:25 | 52.86843 | 11.92910 | 28° | 13km/h | 30337m | 6.4m/s | -44.8°C | 0.5% | 12.01hPa | 2.6V | 00:00:00 | 00:00:00 | 00:00:00 | |
| AA1-15 | 2026-09-05 00:36:25 | 52.86840 | 11.92908 | 13° | 18km/h | 30331m | 5.7m/s | -44.8°C | 0% | 12hPa | 2.6V | 03:19:59 | 02:06:42 | 00:00:00 | |
| SONDE2-11 | 2026-09-05 00:36:23 | 52.86829 | 11.92904 | 14° | 24km/h | 30321m | 5.1m/s | -44.8°C | 0.5% | 12.0hPa | 2.6V | 00:00:00 | 00:00:00 | 00:00:00 | |
| DM0DOS-11 | 2026-09-05 00:36:22 | 52.86808 | 11.92884 | 44° | 16km/h | 30299m | 4.8m/s | -44.7°C | 2.5% | 12.1hPa | 2.6V | 03:20:02 | 02:06:36 | 00:00:00 | |
| HSKMA3-T | 2026-09-05 00:36:20 | 52.86817 | 11.92896 | 32° | 27km/h | 30308m | 5.7m/s | -44.7°C | 0% | 12hPa | 2.6V | 03:20:50 | 02:06:38 | 00:00:00 | |
| DF8AY | 2026-09-05 00:36:19 | 52.86812 | 11.92889 | 40° | 24km/h | 30303m | 4.9m/s | -44.7°C | 0% | 12.1hPa | 2.6V | 03:21:41 | 02:06:37 | 00:00:00 | |
| DL1XH1-15 | 2026-09-05 00:36:19 | 52.86806 | 11.92880 | 217° | 5km/h | 30275m | 4.8m/s | -44.6°C | 2.5% | 12.1hPa | 2.6V | 03:20:06 | 02:06:32 | 00:00:00 | |
| DL1XH-15 | 2026-09-05 00:36:18 | 52.86806 | 11.92880 | 47° | 9km/h | 30293m | 7m/s | -44.7°C | 2.5% | 12.1hPa | 2.6V | 03:20:03 | 02:06:35 | 00:00:00 | |
| DL1XH-west | 2026-09-05 00:36:17 | 52.86805 | 11.92878 | 111° | 2km/h | 30286m | 6.9m/s | -44.7°C | 0% | 12.1hPa | 2.6V | 03:20:50 | 02:06:34 | 00:00:00 | |
| DL1NUX | 2026-09-05 00:36:17 | 52.86807 | 11.92881 | 33° | 4km/h | 30263m | 6.5m/s | -44.6°C | 2.5% | 12.1hPa | 2.6V | 03:20:08 | 02:06:30 | 00:00:00 | |
| AA1-15 | 2026-09-05 00:36:14 | 52.86807 | 11.92880 | 217° | 5km/h | 30275m | 4.9m/s | -44.6°C | 0% | 12.1hPa | 2.6V | 03:20:50 | 02:06:32 | 00:00:00 | |
| SP3WXH-11 | 2026-09-05 00:36:14 | 52.86808 | 11.92881 | 216° | 2km/h | 30269m | 5.9m/s | -44.6°C | 0.5% | 12.1hPa | 2.7V | 00:00:00 | 00:00:00 | 00:00:00 | |
| DL1XH-15 | 2026-09-05 00:36:12 | 52.86790 | 11.92878 | 353° | 22km/h | 30233m | 5.5m/s | -44.6°C | 2.5% | 12.2hPa | 2.7V | 03:20:13 | 02:06:25 | 00:00:00 | |
| DF7ER-10 | 2026-09-05 00:36:12 | 52.86808 | 11.92881 | 218° | 2km/h | 30269m | 5.9m/s | -44.6°C | 0.5% | 12.1hPa | 2.6V | 03:20:00 | 00:00:00 | 00:00:00 | |
| DB0DAN | 2026-09-05 00:36:10 | 52.86803 | 11.92878 | 17° | 13km/h | 30252m | 5.4m/s | -44.5°C | 0.5% | 12.18hPa | 2.6V | 00:00:00 | 00:00:00 | 00:00:00 | |
| HSKMA3-T | 2026-09-05 00:36:10 | 52.86803 | 11.92878 | 17° | 15km/h | 30252m | 5.4m/s | -44.5°C | 0% | 12.2hPa | 2.6V | 03:20:50 | 02:06:28 | 00:00:00 | |
| DF8AY | 2026-09-05 00:36:08 | 52.86795 | 11.92877 | 356° | 20km/h | 30239m | 6.3m/s | -44.5°C | 0% | 12.2hPa | 2.6V | 03:21:41 | 02:06:26 | 00:00:00 | |
| DF8AY-15 | 2026-09-05 00:36:08 | 52.86795 | 11.92877 | 357° | 15km/h | 30240m | 6.2m/s | -44.5°C | 2.5% | 12.1hPa | 2.6V | 00:00:00 | 02:06:26 | 00:00:00 | |
| DL1NUX | 2026-09-05 00:36:07 | 52.86766 | 11.92872 | 12° | 11km/h | 30205m | 3.9m/s | -44.6°C | 2.5% | 12.2hPa | 2.6V | 03:20:18 | 02:06:20 | 00:00:00 | |
| DL1XH-west | 2026-09-05 00:36:05 | 52.86779 | 11.92878 | 6° | 20km/h | 30222m | 5.6m/s | -44.6°C | 0% | 12.2hPa | 2.6V | 03:20:50 | 02:06:23 | 00:00:00 | |
| DL1XH1-15 | 2026-09-05 00:36:05 | 52.86774 | 11.92876 | 15° | 20km/h | 30216m | 6.3m/s | -44.6°C | 2.6% | 12.2hPa | 2.6V | 03:20:16 | 02:06:22 | 00:00:00 | |
| AA1-15 | 2026-09-05 00:36:04 | 52.86770 | 11.92874 | 20° | 18km/h | 30210m | 5.1m/s | -44.6°C | 0% | 12.2hPa | 2.6V | 03:20:50 | 02:06:21 | 00:00:00 | |
| HSKMA3-T | 2026-09-05 00:36:00 | 52.86763 | 11.92874 | 294° | 9km/h | 30194m | 7.4m/s | -44.5°C | 0% | 12.3hPa | 2.7V | 03:20:50 | 02:06:18 | 00:00:00 | |
| DL1XH1-15 | 2026-09-05 00:35:59 | 52.86765 | 11.92905 | 349° | 7km/h | 30159m | 6m/s | -44.5°C | 2.5% | 12.3hPa | 2.6V | 03:20:26 | 02:06:12 | 00:00:00 | |
| DF8AY | 2026-09-05 00:35:57 | 52.86764 | 11.92894 | 255° | 18km/h | 30177m | 4.3m/s | -44.5°C | 0% | 12.3hPa | 2.6V | 03:21:41 | 02:06:15 | 00:00:00 | |
| DL1NUX | 2026-09-05 00:35:57 | 52.86759 | 11.92906 | 354° | 15km/h | 30148m | 5.4m/s | -44.6°C | 2.5% | 12.3hPa | 2.6V | 03:20:28 | 02:06:10 | 00:00:00 | |
| DB0DAN | 2026-09-05 00:35:55 | 52.86766 | 11.92904 | 284° | 5km/h | 30165m | 6.4m/s | -44.5°C | 0.5% | 12.33hPa | 2.7V | 00:00:00 | 00:00:00 | 00:00:00 | |
| DL1XH-west | 2026-09-05 00:35:54 | 52.86764 | 11.92905 | 350° | 7km/h | 30159m | 6m/s | -44.6°C | 0% | 12.3hPa | 2.6V | 03:20:50 | 02:06:12 | 00:00:00 | |
| AA1-15 | 2026-09-05 00:35:52 | 52.86759 | 11.92906 | 355° | 15km/h | 30148m | 5.4m/s | -44.6°C | 0% | 12.3hPa | 2.6V | 03:20:50 | 02:06:10 | 00:00:00 | |
| DJ2DS-15 | 2026-09-05 00:35:52 | 52.86755 | 11.92908 | 341° | 15km/h | 30142m | 6.5m/s | -44.5°C | 0.5% | 12.3hPa | 2.6V | 00:00:00 | 00:00:00 | 00:00:00 | |
| DM0DOS-11 | 2026-09-05 00:35:51 | 52.86747 | 11.92918 | 298° | 11km/h | 30125m | 5.5m/s | -44.5°C | 2.5% | 12.4hPa | 2.6V | 03:20:32 | 02:06:06 | 00:00:00 | |
| HSKMA3-T | 2026-09-05 00:35:50 | 52.86752 | 11.92910 | 328° | 16km/h | 30136m | 5.6m/s | -44.5°C | 0% | 12.4hPa | 2.6V | 03:20:50 | 02:06:08 | 00:00:00 | |
| DO2SHX-10 | 2026-09-05 00:35:50 | 52.86751 | 11.92910 | 328° | 13km/h | 30136m | 5.6m/s | -44.5°C | 2.5% | 12.3hPa | 2.6V | 00:00:00 | 02:06:08 | 00:00:00 | |
| DL1XH1-15 | 2026-09-05 00:35:49 | 52.86751 | 11.92931 | 217° | 15km/h | 30103m | 4.6m/s | -44.6°C | 2.5% | 12.4hPa | 2.6V | 03:20:36 | 02:06:02 | 00:00:00 | |
| DF8AY-15 | 2026-09-05 00:35:48 | 52.86747 | 11.92918 | 299° | 13km/h | 30125m | 5.4m/s | -44.5°C | 2.5% | 12.3hPa | 2.6V | 00:00:00 | 02:06:06 | 00:00:00 | |
| DL1NUX | 2026-09-05 00:35:47 | 52.86757 | 11.92941 | 237° | 20km/h | 30091m | 6.1m/s | -44.6°C | 2.5% | 12.4hPa | 2.6V | 03:20:38 | 02:06:00 | 00:00:00 | |
| DF8AY | 2026-09-05 00:35:45 | 52.86759 | 11.92949 | 249° | 20km/h | 30085m | 4.7m/s | -44.6°C | 0% | 12.4hPa | 2.6V | 03:21:41 | 02:05:59 | 00:00:00 | |
| DL1XH-west | 2026-09-05 00:35:44 | 52.86751 | 11.92931 | 218° | 15km/h | 30103m | 4.6m/s | -44.6°C | 0% | 12.4hPa | 2.6V | 03:20:50 | 02:06:02 | 00:00:00 | |
| AA1-15 | 2026-09-05 00:35:42 | 52.86757 | 11.92941 | 237° | 20km/h | 30091m | 6.1m/s | -44.6°C | 0% | 12.4hPa | 2.6V | 03:20:50 | 02:06:00 | 00:00:00 | |
| DM0DOS-11 | 2026-09-05 00:35:41 | 52.86762 | 11.92962 | 332° | 2km/h | 30071m | 6.1m/s | -44.5°C | 2.5% | 12.5hPa | 2.6V | 03:20:42 | 02:05:56 | 00:00:00 | |
| DB0DAN | 2026-09-05 00:35:40 | 52.86761 | 11.92955 | 248° | 15km/h | 30081m | 3.5m/s | -44.5°C | 0.5% | 12.45hPa | 2.6V | 00:00:00 | 00:00:00 | 00:00:00 | |
| HSKMA3-T | 2026-09-05 00:35:40 | 52.86761 | 11.92955 | 248° | 16km/h | 30081m | 3.5m/s | -44.5°C | 0% | 12.4hPa | 2.6V | 03:20:50 | 02:05:58 | 00:00:00 | |
| DL1XH-15 | 2026-09-05 00:35:38 | 52.86761 | 11.92961 | 40° | 9km/h | 30065m | 6.2m/s | -44.5°C | 2.5% | 12.5hPa | 2.6V | 03:20:43 | 02:05:55 | 00:00:00 | |
| DL1NUX | 2026-09-05 00:35:37 | 52.86746 | 11.92950 | 328° | 13km/h | 30038m | 4.3m/s | -44.5°C | 2.4% | 12.5hPa | 2.6V | 03:20:48 | 02:05:50 | 00:00:00 | |
| GOEST3-10 | 2026-09-05 00:35:36 | 52.86759 | 11.92958 | 53° | 15km/h | 30060m | 5.2m/s | -44.5°C | 2.4% | 12.5hPa | 2.6V | 03:20:00 | 00:00:00 | 00:00:00 | |
| DL1XH1-15 | 2026-09-05 00:35:35 | 52.86753 | 11.92950 | 28° | 15km/h | 30049m | 5.7m/s | -44.5°C | 2.5% | 12.5hPa | 2.6V | 03:20:46 | 02:05:52 | 00:00:00 | |
| DL1XH-west | 2026-09-05 00:35:34 | 52.86753 | 11.92950 | 28° | 15km/h | 30049m | 5.7m/s | -44.5°C | 0% | 12.5hPa | 2.6V | 03:20:50 | 02:05:52 | 00:00:00 | |
| DL4XJ-10 | 2026-09-05 00:35:34 | 52.86753 | 11.92950 | 29° | 15km/h | 30050m | 5.6m/s | -44.9°C | 0% | 0hPa | 2.6V | 00:00:00 | 00:00:00 | 00:00:00 | |
| AM1SDL-15 | 2026-09-05 00:35:33 | 52.86749 | 11.92949 | 360° | 11km/h | 30044m | 5.6m/s | -44.4°C | 2.5% | 12.5hPa | 2.6V | 00:00:00 | 02:05:51 | 00:00:00 | |
| DL1XH-15 | 2026-09-05 00:35:32 | 52.86751 | 11.92968 | 196° | 15km/h | 30011m | 4.2m/s | -44.7°C | 2.5% | 12.5hPa | 2.6V | 03:20:53 | 02:05:45 | 00:00:00 | |
| AA1-15 | 2026-09-05 00:35:31 | 52.86744 | 11.92954 | 296° | 11km/h | 30034m | 4.5m/s | -44.5°C | 0% | 12.6hPa | 2.6V | 03:20:50 | 02:05:49 | 00:00:00 | |
| DM0DOS-11 | 2026-09-05 00:35:31 | 52.86747 | 11.92966 | 209° | 15km/h | 30017m | 6.2m/s | -44.7°C | 2.5% | 12.6hPa | 2.6V | 03:20:52 | 02:05:46 | 00:00:00 | |
| HSKMA3-T | 2026-09-05 00:35:30 | 52.86744 | 11.92958 | 269° | 11km/h | 30029m | 5.2m/s | -44.5°C | 0% | 12.6hPa | 2.7V | 03:20:50 | 02:05:48 | 00:00:00 | |
| DL1XH1-15 | 2026-09-05 00:35:29 | 52.86756 | 11.92972 | 315° | 4km/h | 29998m | 6.4m/s | -44.9°C | 2.6% | 12.6hPa | 2.7V | 03:20:56 | 02:05:42 | 00:00:00 | |
| DO2SHX-10 | 2026-09-05 00:35:29 | 52.86745 | 11.92963 | 233° | 15km/h | 30023m | 7.0m/s | -44.5°C | 2.5% | 12.5hPa | 2.6V | 00:00:00 | 02:05:47 | 00:00:00 | |
| DB0NH | 2026-09-05 00:35:28 | 52.86747 | 11.92966 | 210° | 11km/h | 30017m | 6.2m/s | -44.6°C | 2.5% | 12.5hPa | 2.6V | 00:00:00 | 02:05:46 | 00:00:00 | |
| DL1NUX | 2026-09-05 00:35:27 | 52.86750 | 11.92975 | 349° | 18km/h | 29987m | 4.7m/s | -45°C | 2.6% | 12.6hPa | 2.6V | 03:20:58 | 02:05:40 | 00:00:00 | |
| DB0DAN | 2026-09-05 00:35:25 | 52.86756 | 11.92971 | 200° | 4km/h | 30003m | 4.4m/s | -44.8°C | 0.5% | 12.59hPa | 2.6V | 00:00:00 | 00:00:00 | 00:00:00 | |
| DL1XH-west | 2026-09-05 00:35:24 | 52.86756 | 11.92972 | 315° | 4km/h | 29998m | 6.4m/s | -44.9°C | 0% | 12.6hPa | 2.7V | 03:21:41 | 02:05:42 | 00:00:00 | |
| DO2SHX-10 | 2026-09-05 00:35:23 | 52.86754 | 11.92973 | 343° | 16km/h | 29992m | 5.7m/s | -44.9°C | 2.5% | 12.6hPa | 2.7V | 03:20:00 | 02:05:41 | 00:00:00 | |
| TFSTFS | 2026-09-05 00:35:22 | 52.86754 | 11.92973 | 343° | 13km/h | 29992m | 5.8m/s | -45.0°C | 0.5% | 12.6hPa | 2.7V | 00:00:00 | 00:00:00 | 00:00:00 | |
| DM0DOS-11 | 2026-09-05 00:35:21 | 52.86732 | 11.92967 | 53° | 20km/h | 29966m | 6.3m/s | -45.1°C | 2.6% | 12.7hPa | 2.7V | 03:21:02 | 02:05:36 | 00:00:00 | |
| AA1-15 | 2026-09-05 00:35:20 | 52.86741 | 11.92975 | 11° | 20km/h | 29978m | 5.2m/s | -45.1°C | 0% | 12.7hPa | 2.6V | 03:21:41 | 02:05:38 | 00:00:00 | |
| HSKMA3-T | 2026-09-05 00:35:19 | 52.86736 | 11.92972 | 28° | 20km/h | 29972m | 6.1m/s | -45.1°C | 0% | 12.6hPa | 2.6V | 03:21:41 | 02:05:37 | 00:00:00 | |
| DL1XH1-15 | 2026-09-05 00:35:19 | 52.86730 | 11.92943 | 132° | 7km/h | 29945m | 6.1m/s | -45°C | 2.6% | 12.7hPa | 2.7V | 03:21:06 | 02:05:32 | 00:00:00 | |
| DL1XH-15 | 2026-09-05 00:35:18 | 52.86730 | 11.92960 | 71° | 18km/h | 29960m | 5.2m/s | -45°C | 2.5% | 12.7hPa | 2.6V | 03:21:03 | 02:05:35 | 00:00:00 | |
| DO3MHA-11 | 2026-09-05 00:35:18 | 52.86732 | 11.92967 | 54° | 11km/h | 29966m | 6.3m/s | -45.0°C | 2.6% | 12.6hPa | 2.6V | 00:00:00 | 02:05:36 | 00:00:00 | |
| DL1NUX | 2026-09-05 00:35:17 | 52.86732 | 11.92945 | 264° | 9km/h | 29933m | 5.1m/s | -45°C | 2.6% | 12.8hPa | 2.6V | 03:21:08 | 02:05:30 | 00:00:00 | |
| DL1XH-west | 2026-09-05 00:35:13 | 52.86731 | 11.92942 | 228° | 4km/h | 29939m | 6.3m/s | -45°C | 0% | 12.7hPa | 2.6V | 03:21:41 | 02:05:31 | 00:00:00 | |
| DL1XH-15 | 2026-09-05 00:35:12 | 52.86729 | 11.92954 | 83° | 9km/h | 29906m | 4.8m/s | -45°C | 2.6% | 12.8hPa | 2.6V | 03:21:13 | 02:05:25 | 00:00:00 | |
| DB0DAN | 2026-09-05 00:35:10 | 52.86731 | 11.92954 | 284° | 9km/h | 29923m | 5.1m/s | -45°C | 0.5% | 12.75hPa | 2.7V | 00:00:00 | 00:00:00 | 00:00:00 | |
| AA1-15 | 2026-09-05 00:35:10 | 52.86731 | 11.92954 | 284° | 9km/h | 29923m | 5.1m/s | -45°C | 0% | 12.8hPa | 2.7V | 03:21:41 | 02:05:28 | 00:00:00 | |
| HSKMA3-T | 2026-09-05 00:35:09 | 52.86730 | 11.92956 | 308° | 5km/h | 29918m | 6m/s | -45°C | 0% | 12.8hPa | 2.6V | 03:21:41 | 02:05:27 | 00:00:00 | |
| DO2SHX-10 | 2026-09-05 00:35:08 | 52.86730 | 11.92956 | 26° | 7km/h | 29912m | 5.8m/s | -44.9°C | 2.6% | 12.7hPa | 2.6V | 00:00:00 | 02:05:26 | 00:00:00 | |
| DL1NUX | 2026-09-05 00:35:07 | 52.86726 | 11.92936 | 79° | 9km/h | 29878m | 4.9m/s | -45°C | 2.6% | 12.9hPa | 2.6V | 03:21:18 | 02:05:20 | 00:00:00 | |
| DL1XH1-15 | 2026-09-05 00:35:06 | 52.86728 | 11.92942 | 73° | 9km/h | 29889m | 6.3m/s | -45°C | 2.6% | 12.8hPa | 2.7V | 03:21:16 | 02:05:22 | 00:00:00 | |
| DL1XH-west | 2026-09-05 00:35:03 | 52.86727 | 11.92939 | 68° | 7km/h | 29883m | 5.3m/s | -45°C | 0% | 12.8hPa | 2.7V | 03:21:41 | 02:05:21 | 00:00:00 | |
| DO2SHX-10 | 2026-09-05 00:35:02 | 52.86726 | 11.92936 | 80° | 9km/h | 29878m | 4.8m/s | -44.9°C | 2.6% | 12.8hPa | 2.6V | 00:00:00 | 02:05:20 | 00:00:00 | |
| DM0DOS-11 | 2026-09-05 00:35:01 | 52.86726 | 11.92921 | 89° | 7km/h | 29856m | 4.1m/s | -45°C | 2.6% | 12.9hPa | 2.6V | 03:21:22 | 02:05:16 | 00:00:00 | |
| HSKMA3-T | 2026-09-05 00:34:59 | 52.86726 | 11.92925 | 95° | 9km/h | 29861m | 4.6m/s | -45°C | 0% | 12.9hPa | 2.7V | 03:21:41 | 02:05:17 | 00:00:00 | |
| DO2SHX-10 | 2026-09-05 00:34:59 | 52.86726 | 11.92925 | 95° | 7km/h | 29861m | 4.5m/s | -44.9°C | 2.6% | 12.8hPa | 2.7V | 03:21:00 | 02:05:17 | 00:00:00 | |
| DL1NUX | 2026-09-05 00:34:57 | 52.86713 | 11.92930 | 7° | 9km/h | 29824m | 6.7m/s | -44.9°C | 2.5% | 12.9hPa | 2.7V | 03:21:28 | 02:05:10 | 00:00:00 | |
| DC4HF-4 | 2026-09-05 00:34:56 | 52.86724 | 11.92920 | 330° | 7km/h | 29846m | 6.3m/s | -45.0°C | 0.5% | 12.9hPa | 2.6V | 00:00:00 | 00:00:00 | 00:00:00 | |
| DB0DAN | 2026-09-05 00:34:55 | 52.86722 | 11.92923 | 318° | 13km/h | 29840m | 5.8m/s | -45°C | 0.5% | 12.92hPa | 2.6V | 00:00:00 | 00:00:00 | 00:00:00 | |
| DF8AY | 2026-09-05 00:34:53 | 52.86712 | 11.92912 | 103° | 5km/h | 29796m | 5.5m/s | -44.9°C | 0% | 13hPa | 2.7V | 03:21:41 | 02:05:05 | 00:00:00 | |
| DL1XH-west | 2026-09-05 00:34:52 | 52.86714 | 11.92930 | 8° | 9km/h | 29824m | 6.7m/s | -44.9°C | 0% | 12.9hPa | 2.7V | 03:21:41 | 02:05:10 | 00:00:00 | |
| DM0DOS-11 | 2026-09-05 00:34:51 | 52.86712 | 11.92916 | 98° | 9km/h | 29802m | 6.2m/s | -44.9°C | 2.6% | 13hPa | 2.6V | 03:21:32 | 02:05:06 | 00:00:00 | |
| DD8BA-10 | 2026-09-05 00:34:51 | 52.86712 | 11.92928 | 56° | 5km/h | 29818m | 5.9m/s | -44.9°C | 2.6% | 12.9hPa | 2.6V | 00:00:00 | 00:00:00 | 00:00:00 | |
| DL1XH1-15 | 2026-09-05 00:34:50 | 52.86712 | 11.92908 | 85° | 2km/h | 29780m | 6.2m/s | -44.9°C | 2.6% | 13hPa | 2.6V | 03:21:36 | 02:05:02 | 00:00:00 | |
| S3001 | 2026-09-05 00:34:49 | 52.86711 | 11.92920 | 91° | 11km/h | 29808m | 5.1m/s | -44.9°C | 0.5% | 13.0hPa | 2.6V | 00:00:00 | 00:00:00 | 00:00:00 | |
| HSKMA3-T | 2026-09-05 00:34:49 | 52.86711 | 11.92920 | 92° | 11km/h | 29807m | 5.1m/s | -44.9°C | 0% | 13hPa | 2.6V | 03:21:41 | 02:05:07 | 00:00:00 | |
| DO3MHA-11 | 2026-09-05 00:34:48 | 52.86711 | 11.92916 | 99° | 7km/h | 29802m | 6.1m/s | -44.8°C | 2.6% | 13.0hPa | 2.6V | 03:21:00 | 02:05:06 | 00:00:00 | |
| DL1NUX | 2026-09-05 00:34:47 | 52.86711 | 11.92908 | 320° | 7km/h | 29769m | 4.8m/s | -44.9°C | 2.5% | 13hPa | 2.6V | 03:21:38 | 02:05:00 | 00:00:00 | |
| SONCRA | 2026-09-05 00:34:45 | 52.86712 | 11.92909 | 79° | 2km/h | 29786m | 5.7m/s | -44.9°C | 0.5% | 13.0hPa | 2.6V | 00:00:00 | 00:00:00 | 00:00:00 | |
| DL1XH-west | 2026-09-05 00:34:41 | 52.86709 | 11.92912 | 306° | 11km/h | 29763m | 6.4m/s | -44.9°C | 0% | 13.1hPa | 2.6V | 03:21:41 | 02:04:59 | 00:00:00 | |
| DM0DOS-11 | 2026-09-05 00:34:41 | 52.86703 | 11.92929 | 299° | 15km/h | 29746m | 4m/s | -44.8°C | 2.5% | 13.1hPa | 2.6V | 03:21:42 | 02:04:56 | 00:00:00 | |
| DB0DAN | 2026-09-05 00:34:40 | 52.86708 | 11.92917 | 300° | 15km/h | 29756m | 7.2m/s | -44.8°C | 0.5% | 13.1hPa | 2.6V | 00:00:00 | 00:00:00 | 00:00:00 | |
| HSKMA3-T | 2026-09-05 00:34:38 | 52.86704 | 11.92929 | 300° | 15km/h | 29746m | 4m/s | -44.8°C | 0% | 13.1hPa | 2.6V | 03:22:32 | 02:04:56 | 00:00:00 | |
| DO2SHX-10 | 2026-09-05 00:34:38 | 52.86703 | 11.92929 | 300° | 7km/h | 29746m | 4.0m/s | -44.8°C | 2.5% | 13.1hPa | 2.7V | 00:00:00 | 02:04:56 | 00:00:00 | |
| DL1XH1-15 | 2026-09-05 00:34:37 | 52.86706 | 11.92925 | 132° | 22km/h | 29723m | 5.5m/s | -44.9°C | 2.5% | 13.1hPa | 2.7V | 03:21:46 | 02:04:52 | 00:00:00 | |
| DF8AY | 2026-09-05 00:34:36 | 52.86703 | 11.92931 | 120° | 13km/h | 29730m | 7.1m/s | -44.9°C | 0% | 13.1hPa | 2.6V | 03:23:23 | 02:04:53 | 00:00:00 | |
| GOEST3-10 | 2026-09-05 00:34:36 | 52.86702 | 11.92934 | 116° | 16km/h | 29737m | 5.9m/s | -44.8°C | 2.5% | 13.1hPa | 2.7V | 03:21:00 | 00:00:00 | 00:00:00 | |
| DO2SHX-10 | 2026-09-05 00:34:35 | 52.86703 | 11.92931 | 121° | 20km/h | 29730m | 7.1m/s | -44.8°C | 2.5% | 13.1hPa | 2.7V | 03:21:00 | 02:04:53 | 00:00:00 | |
| DL4XJ-10 | 2026-09-05 00:34:34 | 52.86706 | 11.92925 | 133° | 18km/h | 29723m | 5.5m/s | -45.3°C | 0% | 0hPa | 2.7V | 00:00:00 | 00:00:00 | 00:00:00 | |
| HTAHTA | 2026-09-05 00:34:33 | 52.86720 | 11.92911 | 172° | 16km/h | 29710m | 5.0m/s | -44.9°C | 0.5% | 13.2hPa | 2.7V | 00:00:00 | 00:00:00 | 00:00:00 | |
| DL1XH-15 | 2026-09-05 00:34:32 | 52.86723 | 11.92933 | 298° | 24km/h | 29689m | 4.9m/s | -45°C | 2.5% | 13.2hPa | 2.7V | 03:21:53 | 02:04:45 | 00:00:00 | |
| DL1XH-west | 2026-09-05 00:34:31 | 52.86720 | 11.92911 | 173° | 18km/h | 29710m | 5m/s | -44.9°C | 0% | 13.2hPa | 2.6V | 03:22:32 | 02:04:49 | 00:00:00 | |
| DD8BA-10 | 2026-09-05 00:34:31 | 52.86720 | 11.92911 | 173° | 16km/h | 29710m | 5.0m/s | -44.9°C | 2.5% | 13.1hPa | 2.7V | 03:21:00 | 00:00:00 | 00:00:00 | |
| DM0DOS-11 | 2026-09-05 00:34:30 | 52.86726 | 11.92924 | 286° | 22km/h | 29694m | 5.2m/s | -45°C | 2.5% | 13.2hPa | 2.7V | 03:21:52 | 02:04:46 | 00:00:00 | |
| EDDB2-12 | 2026-09-05 00:34:30 | 52.86724 | 11.92912 | 210° | 13km/h | 29705m | 5.4m/s | -45.0°C | 0.5% | 13.2hPa | 2.6V | 00:00:00 | 00:00:00 | 00:00:00 | |
| DO2SHX-10 | 2026-09-05 00:34:29 | 52.86726 | 11.92916 | 262° | 22km/h | 29699m | 5.3m/s | -44.9°C | 2.5% | 13.1hPa | 2.6V | 00:00:00 | 02:04:47 | 00:00:00 | |
| DB0NH | 2026-09-05 00:34:28 | 52.86725 | 11.92924 | 287° | 16km/h | 29694m | 5.1m/s | -44.9°C | 2.5% | 13.2hPa | 2.6V | 03:21:00 | 02:04:46 | 00:00:00 | |
| DL1XH1-15 | 2026-09-05 00:34:27 | 52.86712 | 11.92949 | 357° | 15km/h | 29672m | 5.1m/s | -45.1°C | 2.5% | 13.2hPa | 2.6V | 03:21:56 | 02:04:42 | 00:00:00 | |
| HSKMA3-T | 2026-09-05 00:34:27 | 52.86723 | 11.92933 | 299° | 24km/h | 29689m | 4.9m/s | -45°C | 0% | 13.2hPa | 2.7V | 03:22:32 | 02:04:45 | 00:00:00 | |
| DB0DAN | 2026-09-05 00:34:25 | 52.86716 | 11.92947 | 330° | 18km/h | 29677m | 5.5m/s | -45.1°C | 0.5% | 13.22hPa | 2.6V | 00:00:00 | 00:00:00 | 00:00:00 | |
| DF8AY | 2026-09-05 00:34:25 | 52.86716 | 11.92947 | 330° | 20km/h | 29677m | 5.5m/s | -45.1°C | 0% | 13.2hPa | 2.6V | 03:23:23 | 02:04:43 | 00:00:00 | |
| DM0DOS-11 | 2026-09-05 00:34:23 | 52.86718 | 11.92941 | 204° | 22km/h | 29639m | 5.7m/s | -45.3°C | 2.6% | 13.3hPa | 2.7V | 03:22:02 | 02:04:36 | 00:00:00 | |
| DL1XH-west | 2026-09-05 00:34:21 | 52.86708 | 11.92941 | 126° | 9km/h | 29657m | 5.6m/s | -45.2°C | 0% | 13.3hPa | 2.6V | 03:22:32 | 02:04:39 | 00:00:00 | |
| DO2SHX-10 | 2026-09-05 00:34:20 | 52.86710 | 11.92939 | 166° | 18km/h | 29652m | 6.2m/s | -45.2°C | 2.6% | 13.2hPa | 2.7V | 00:00:00 | 02:04:38 | 00:00:00 | |
| DL1XH1-15 | 2026-09-05 00:34:19 | 52.86736 | 11.92960 | 231° | 11km/h | 29617m | 5.7m/s | -45.5°C | 2.6% | 13.3hPa | 2.7V | 03:22:06 | 02:04:32 | 00:00:00 | |
| DL1XH-15 | 2026-09-05 00:34:18 | 52.86724 | 11.92946 | 211° | 26km/h | 29634m | 4.8m/s | -45.4°C | 2.6% | 13.3hPa | 2.6V | 03:22:03 | 02:04:35 | 00:00:00 | |
| HSKMA3-T | 2026-09-05 00:34:16 | 52.86729 | 11.92951 | 213° | 24km/h | 29628m | 5.3m/s | -45.4°C | 0% | 13.3hPa | 2.6V | 03:22:32 | 02:04:34 | 00:00:00 | |
| DF8AY | 2026-09-05 00:34:15 | 52.86737 | 11.92965 | 269° | 7km/h | 29611m | 5.5m/s | -45.5°C | 0% | 13.3hPa | 2.6V | 03:23:23 | 02:04:31 | 00:00:00 | |
| DO2SHX-10 | 2026-09-05 00:34:14 | 52.86736 | 11.92960 | 232° | 11km/h | 29617m | 5.7m/s | -45.4°C | 2.6% | 13.3hPa | 2.7V | 00:00:00 | 02:04:32 | 00:00:00 | |
| DO3MHA-11 | 2026-09-05 00:34:13 | 52.86737 | 11.92964 | 269° | 13km/h | 29611m | 5.5m/s | -45.5°C | 2.7% | 13.3hPa | 2.6V | 00:00:00 | 02:04:31 | 00:00:00 | |
| DL1XH-15 | 2026-09-05 00:34:12 | 52.86730 | 11.92990 | 204° | 7km/h | 29577m | 6m/s | -45.5°C | 2.6% | 13.4hPa | 2.6V | 03:22:13 | 02:04:25 | 00:00:00 | |
| DM0DOS-11 | 2026-09-05 00:34:11 | 52.86729 | 11.92988 | 268° | 9km/h | 29583m | 4m/s | -45.5°C | 2.6% | 13.4hPa | 2.7V | 03:22:12 | 02:04:26 | 00:00:00 | |
| DL1XH-west | 2026-09-05 00:34:10 | 52.86732 | 11.92978 | 307° | 16km/h | 29593m | 6.4m/s | -45.5°C | 0% | 13.4hPa | 2.6V | 03:22:32 | 02:04:28 | 00:00:00 | |
| DB0DAN | 2026-09-05 00:34:10 | 52.86732 | 11.92978 | 307° | 16km/h | 29593m | 6.4m/s | -45.5°C | 0.5% | 13.41hPa | 2.6V | 00:00:00 | 00:00:00 | 00:00:00 | |
| SP3WXH-11 | 2026-09-05 00:34:10 | 52.86730 | 11.92983 | 293° | 13km/h | 29588m | 4.7m/s | -45.5°C | 0.5% | 13.4hPa | 2.7V | 00:00:00 | 00:00:00 | 00:00:00 | |
| AM1SDL-15 | 2026-09-05 00:34:09 | 52.86730 | 11.92983 | 294° | 15km/h | 29588m | 4.6m/s | -45.5°C | 2.6% | 13.4hPa | 2.7V | 03:22:00 | 02:04:27 | 00:00:00 | |
| EDDB2-11 | 2026-09-05 00:34:08 | 52.86730 | 11.92990 | 204° | 5km/h | 29578m | 6.0m/s | -45.5°C | 0.5% | 13.4hPa | 2.7V | 00:00:00 | 00:00:00 | 00:00:00 | |
| DL1NUX | 2026-09-05 00:34:07 | 52.86751 | 11.92980 | 180° | 18km/h | 29548m | 6.7m/s | -45.5°C | 2.6% | 13.5hPa | 2.7V | 03:22:18 | 02:04:20 | 00:00:00 | |
| HSKMA3-T | 2026-09-05 00:34:06 | 52.86732 | 11.92990 | 165° | 13km/h | 29571m | 7.4m/s | -45.5°C | 0% | 13.4hPa | 2.6V | 03:22:32 | 02:04:24 | 00:00:00 | |
| DF8AY | 2026-09-05 00:34:04 | 52.86746 | 11.92982 | 167° | 22km/h | 29554m | 5.5m/s | -45.6°C | 0% | 13.5hPa | 2.7V | 03:23:23 | 02:04:21 | 00:00:00 | |
| DO3MHA-11 | 2026-09-05 00:34:03 | 52.86746 | 11.92982 | 167° | 13km/h | 29554m | 5.4m/s | -45.5°C | 2.6% | 13.4hPa | 2.7V | 03:22:00 | 02:04:21 | 00:00:00 | |
| DO2SHX-10 | 2026-09-05 00:34:02 | 52.86751 | 11.92980 | 181° | 16km/h | 29548m | 6.6m/s | -45.5°C | 2.6% | 13.4hPa | 2.6V | 00:00:00 | 02:04:20 | 00:00:00 | |
| DD8BA-10 | 2026-09-05 00:34:01 | 52.86755 | 11.92982 | 204° | 9km/h | 29542m | 5.9m/s | -45.5°C | 2.6% | 13.4hPa | 2.6V | 00:00:00 | 00:00:00 | 00:00:00 | |
| DM0DOS-11 | 2026-09-05 00:34:00 | 52.86759 | 11.92996 | 291° | 11km/h | 29524m | 6.8m/s | -45.5°C | 2.6% | 13.5hPa | 2.6V | 03:22:22 | 02:04:16 | 00:00:00 | |
| DL1XH1-15 | 2026-09-05 00:33:59 | 52.86752 | 11.93001 | 21° | 4km/h | 29500m | 5.6m/s | -45.4°C | 2.5% | 13.6hPa | 2.6V | 03:22:26 | 02:04:12 | 00:00:00 | |
| DL1XH-west | 2026-09-05 00:33:59 | 52.86759 | 11.92991 | 265° | 13km/h | 29531m | 5.7m/s | -45.5°C | 0% | 13.5hPa | 2.6V | 03:22:32 | 02:04:17 | 00:00:00 | |
| DO2SHX-10 | 2026-09-05 00:33:59 | 52.86759 | 11.92991 | 265° | 11km/h | 29531m | 5.6m/s | -45.4°C | 2.6% | 13.4hPa | 2.7V | 03:22:00 | 02:04:17 | 00:00:00 | |
| DL1XH-15 | 2026-09-05 00:33:58 | 52.86758 | 11.93000 | 321° | 9km/h | 29518m | 6.9m/s | -45.4°C | 2.6% | 13.5hPa | 2.7V | 03:22:23 | 02:04:15 | 00:00:00 | |
| DB0NH | 2026-09-05 00:33:58 | 52.86759 | 11.92996 | 292° | 15km/h | 29525m | 6.7m/s | -45.4°C | 2.6% | 13.5hPa | 2.6V | 00:00:00 | 02:04:16 | 00:00:00 | |
| DL1NUX | 2026-09-05 00:33:57 | 52.86753 | 11.93002 | 198° | 11km/h | 29488m | 6.3m/s | -45.5°C | 2.6% | 13.6hPa | 2.6V | 03:22:28 | 02:04:10 | 00:00:00 | |
| AA1-15 | 2026-09-05 00:33:56 | 52.86755 | 11.93002 | 347° | 9km/h | 29511m | 5.7m/s | -45.4°C | 0% | 13.6hPa | 2.6V | 03:22:32 | 02:04:14 | 00:00:00 | |
| DB0DAN | 2026-09-05 00:33:55 | 52.86753 | 11.93002 | 16° | 5km/h | 29506m | 4.9m/s | -45.4°C | 0.5% | 13.57hPa | 2.6V | 00:00:00 | 00:00:00 | 00:00:00 | |
| HSKMA3-T | 2026-09-05 00:33:55 | 52.86753 | 11.93002 | 16° | 7km/h | 29506m | 4.9m/s | -45.4°C | 0% | 13.6hPa | 2.6V | 03:22:32 | 02:04:13 | 00:00:00 | |
| DF8AY | 2026-09-05 00:33:53 | 52.86752 | 11.93001 | 206° | 2km/h | 29495m | 6.4m/s | -45.5°C | 0% | 13.6hPa | 2.7V | 03:23:23 | 02:04:11 | 00:00:00 | |
| DO2SHX-10 | 2026-09-05 00:33:53 | 52.86752 | 11.93001 | 207° | 9km/h | 29495m | 6.3m/s | -45.4°C | 2.5% | 13.5hPa | 2.6V | 00:00:00 | 02:04:11 | 00:00:00 | |
| TFSTFS | 2026-09-05 00:33:52 | 52.86752 | 11.93001 | 207° | 2km/h | 29495m | 6.4m/s | -45.5°C | 0.5% | 13.6hPa | 2.6V | 03:22:00 | 00:00:00 | 00:00:00 | |
| DL1XH-15 | 2026-09-05 00:33:51 | 52.86776 | 11.93008 | 167° | 16km/h | 29457m | 6.6m/s | -45.7°C | 2.6% | 13.7hPa | 2.6V | 03:22:33 | 02:04:05 | 00:00:00 | |
| GOEST3-10 | 2026-09-05 00:33:51 | 52.86756 | 11.93004 | 199° | 18km/h | 29482m | 5.9m/s | -45.5°C | 2.6% | 13.6hPa | 2.6V | 00:00:00 | 02:04:09 | 00:00:00 | |
| DM0DOS-11 | 2026-09-05 00:33:50 | 52.86771 | 11.93009 | 181° | 18km/h | 29463m | 6.8m/s | -45.7°C | 2.6% | 13.7hPa | 2.6V | 03:22:32 | 02:04:06 | 00:00:00 | |
| DL1XH-west | 2026-09-05 00:33:48 | 52.86771 | 11.93009 | 182° | 18km/h | 29463m | 6.8m/s | -45.7°C | 0% | 13.7hPa | 2.6V | 03:22:32 | 02:04:06 | 00:00:00 | |
| AA1-15 | 2026-09-05 00:33:46 | 52.86783 | 11.93004 | 159° | 13km/h | 29445m | 5.3m/s | -45.7°C | 0% | 13.7hPa | 2.6V | 03:23:23 | 02:04:03 | 00:00:00 | |
| DL1XH1-15 | 2026-09-05 00:33:45 | 52.86786 | 11.93003 | 167° | 15km/h | 29439m | 6.1m/s | -45.8°C | 2.6% | 13.7hPa | 2.7V | 03:22:36 | 02:04:02 | 00:00:00 | |
| HSKMA3-T | 2026-09-05 00:33:44 | 52.86786 | 11.93003 | 168° | 15km/h | 29439m | 6.1m/s | -45.8°C | 0% | 13.7hPa | 2.7V | 03:23:23 | 02:04:02 | 00:00:00 | |
| DO2SHX-10 | 2026-09-05 00:33:44 | 52.86786 | 11.93003 | 168° | 16km/h | 29440m | 6.1m/s | -45.7°C | 2.6% | 13.7hPa | 2.6V | 00:00:00 | 02:04:02 | 00:00:00 | |
| DK9SH | 2026-09-05 00:33:43 | 52.86790 | 11.93002 | 181° | 16km/h | 29433m | 7.1m/s | -45.8°C | 0.5% | 13.7hPa | 2.6V | 03:23:00 | 00:00:00 | 00:00:00 | |
| DB0DAN | 2026-09-05 00:33:40 | 52.86803 | 11.93005 | 187° | 13km/h | 29415m | 6.6m/s | -46°C | 0.6% | 13.75hPa | 2.6V | 00:00:00 | 00:00:00 | 00:00:00 | |
| DM0DOS-11 | 2026-09-05 00:33:40 | 52.86808 | 11.93004 | 159° | 9km/h | 29402m | 5.8m/s | -46.1°C | 2.6% | 13.8hPa | 2.7V | 03:22:42 | 02:03:56 | 00:00:00 | |
| DL1XH1-15 | 2026-09-05 00:33:39 | 52.86823 | 11.92991 | 151° | 24km/h | 29378m | 5.8m/s | -46.3°C | 2.7% | 13.8hPa | 2.6V | 03:22:46 | 02:03:52 | 00:00:00 | |
| DL1XH-15 | 2026-09-05 00:33:39 | 52.86811 | 11.93002 | 148° | 11km/h | 29396m | 5.2m/s | -46.1°C | 2.6% | 13.8hPa | 2.7V | 03:22:43 | 02:03:55 | 00:00:00 | |
| DL1XH-west | 2026-09-05 00:33:37 | 52.86811 | 11.93002 | 148° | 11km/h | 29396m | 5.2m/s | -46.2°C | 0% | 13.8hPa | 2.7V | 03:23:23 | 02:03:55 | 00:00:00 | |
| BIOWL1-15 | 2026-09-05 00:33:35 | 52.86818 | 11.92995 | 151° | 20km/h | 29384m | 6.9m/s | 0°C | 0% | 0hPa | 2.6V | 18:12:15 | 02:03:53 | 00:00:00 | |
| AA1-15 | 2026-09-05 00:33:34 | 52.86823 | 11.92991 | 151° | 24km/h | 29378m | 5.8m/s | -46.3°C | 0% | 13.8hPa | 2.6V | 03:23:23 | 02:03:52 | 00:00:00 | |
| HSKMA3-T | 2026-09-05 00:33:33 | 52.86828 | 11.92986 | 147° | 26km/h | 29372m | 5.3m/s | -46.4°C | 0% | 13.8hPa | 2.6V | 03:23:23 | 02:03:51 | 00:00:00 | |
| DO3MHA-11 | 2026-09-05 00:33:33 | 52.86828 | 11.92986 | 148° | 13km/h | 29373m | 5.2m/s | -46.3°C | 2.7% | 13.8hPa | 2.6V | 00:00:00 | 02:03:51 | 00:00:00 | |
| DO2SHX-10 | 2026-09-05 00:33:32 | 52.86833 | 11.92979 | 140° | 18km/h | 29367m | 5.4m/s | -46.3°C | 2.7% | 13.8hPa | 2.6V | 00:00:00 | 02:03:50 | 00:00:00 | |
| DL1XH-15 | 2026-09-05 00:33:31 | 52.86838 | 11.92959 | 294° | 2km/h | 29336m | 6.5m/s | -46.4°C | 2.7% | 13.9hPa | 2.6V | 03:22:53 | 02:03:45 | 00:00:00 | |
| HTAHTA | 2026-09-05 00:33:31 | 52.86840 | 11.92967 | 109° | 13km/h | 29354m | 6.4m/s | -46.4°C | 0.6% | 13.9hPa | 2.6V | 00:00:00 | 00:00:00 | 00:00:00 | |
| DO2SHX-10 | 2026-09-05 00:33:29 | 52.86840 | 11.92963 | 78° | 5km/h | 29349m | 5.8m/s | -46.3°C | 2.7% | 13.9hPa | 2.6V | 00:00:00 | 02:03:47 | 00:00:00 | |
| DL1NUX | 2026-09-05 00:33:28 | 52.86850 | 11.92968 | 168° | 11km/h | 29304m | 7.2m/s | -46.6°C | 2.7% | 14hPa | 2.6V | 03:22:58 | 02:03:40 | 00:00:00 | |
| DL1XH-west | 2026-09-05 00:33:27 | 52.86838 | 11.92959 | 295° | 2km/h | 29336m | 6.5m/s | -46.4°C | 0% | 13.9hPa | 2.6V | 03:23:23 | 02:03:45 | 00:00:00 | |
| DF8AY | 2026-09-05 00:33:26 | 52.86839 | 11.92961 | 232° | 7km/h | 29329m | 6.8m/s | -46.5°C | 0% | 13.9hPa | 2.6V | 03:23:23 | 02:03:44 | 00:00:00 | |
| DB0DAN | 2026-09-05 00:33:25 | 52.86840 | 11.92963 | 219° | 13km/h | 29323m | 6.1m/s | -46.5°C | 0.6% | 13.95hPa | 2.6V | 00:00:00 | 00:00:00 | 00:00:00 | |
| AA1-15 | 2026-09-05 00:33:24 | 52.86843 | 11.92966 | 202° | 13km/h | 29317m | 5.6m/s | -46.6°C | 0% | 14hPa | 2.7V | 03:23:23 | 02:03:42 | 00:00:00 | |
| HSKMA3-T | 2026-09-05 00:33:23 | 52.86846 | 11.92968 | 189° | 13km/h | 29311m | 6.7m/s | -46.6°C | 0% | 14hPa | 2.6V | 03:23:23 | 02:03:41 | 00:00:00 | |
| DO2SHX-10 | 2026-09-05 00:33:23 | 52.86846 | 11.92968 | 190° | 11km/h | 29311m | 6.7m/s | -46.5°C | 2.7% | 13.9hPa | 2.6V | 03:22:00 | 02:03:41 | 00:00:00 | |
| GOEST3-10 | 2026-09-05 00:33:21 | 52.86852 | 11.92966 | 146° | 16km/h | 29297m | 6.6m/s | -46.6°C | 2.7% | 13.9hPa | 2.6V | 00:00:00 | 02:03:39 | 00:00:00 | |
| DO2SHX-10 | 2026-09-05 00:33:20 | 52.86855 | 11.92962 | 134° | 16km/h | 29290m | 5.3m/s | -46.7°C | 2.7% | 14.0hPa | 2.6V | 00:00:00 | 02:03:38 | 00:00:00 | |
| DL1XH1-15 | 2026-09-05 00:33:19 | 52.86873 | 11.92936 | 122° | 9km/h | 29251m | 7.2m/s | -46.9°C | 2.8% | 14.1hPa | 2.6V | 03:23:06 | 02:03:32 | 00:00:00 | |
| DL1XH-15 | 2026-09-05 00:33:18 | 52.86865 | 11.92948 | 147° | 18km/h | 29270m | 6m/s | -46.9°C | 2.8% | 14.1hPa | 2.6V | 03:23:03 | 02:03:35 | 00:00:00 | |
| DL1NUX | 2026-09-05 00:33:17 | 52.86874 | 11.92931 | 118° | 5km/h | 29239m | 5.8m/s | -47°C | 2.8% | 14.1hPa | 2.6V | 03:23:08 | 02:03:30 | 00:00:00 | |
| DL1XH-west | 2026-09-05 00:33:16 | 52.86869 | 11.92944 | 144° | 16km/h | 29264m | 5m/s | -46.9°C | 0% | 14.1hPa | 2.6V | 03:23:23 | 02:03:34 | 00:00:00 | |
| DF8AY | 2026-09-05 00:33:15 | 52.86885 | 11.92934 | 192° | 20km/h | 29214m | 4.5m/s | -47°C | 0% | 14.2hPa | 2.6V | 03:23:23 | 02:03:26 | 00:00:00 | |
| AA1-15 | 2026-09-05 00:33:13 | 52.86875 | 11.92931 | 118° | 5km/h | 29239m | 5.8m/s | -47°C | 0% | 14.1hPa | 2.6V | 03:23:23 | 02:03:30 | 00:00:00 | |
| HSKMA3-T | 2026-09-05 00:33:13 | 52.86874 | 11.92933 | 105° | 7km/h | 29244m | 6.1m/s | -47°C | 0% | 14.1hPa | 2.7V | 03:23:23 | 02:03:31 | 00:00:00 | |
| DO3MHA-11 | 2026-09-05 00:33:13 | 52.86874 | 11.92933 | 105° | 13km/h | 29245m | 6.0m/s | -46.9°C | 2.8% | 14.1hPa | 2.6V | 00:00:00 | 02:03:31 | 00:00:00 | |
| DB0DAN | 2026-09-05 00:33:10 | 52.86878 | 11.92931 | 191° | 11km/h | 29226m | 7.4m/s | -47°C | 0.6% | 14.17hPa | 2.6V | 00:00:00 | 00:00:00 | 00:00:00 | |
| DM0DOS-11 | 2026-09-05 00:33:10 | 52.86885 | 11.92934 | 192° | 20km/h | 29214m | 4.5m/s | -47°C | 2.8% | 14.2hPa | 2.6V | 03:23:12 | 02:03:26 | 00:00:00 | |
| SP3BTT-10 | 2026-09-05 00:33:10 | 52.86877 | 11.92930 | 192° | 13km/h | 29226m | 7.3m/s | -46.9°C | 2.8% | 14.1hPa | 2.6V | 03:23:00 | 00:00:00 | 00:00:00 | |
| DL1XH1-15 | 2026-09-05 00:33:09 | 52.86901 | 11.92929 | 123° | 13km/h | 29190m | 6.2m/s | -47°C | 2.8% | 14.2hPa | 2.6V | 03:23:16 | 02:03:22 | 00:00:00 | |
| AM1SDL-15 | 2026-09-05 00:33:09 | 52.86881 | 11.92932 | 198° | 16km/h | 29220m | 5.9m/s | -47.0°C | 2.8% | 14.1hPa | 2.6V | 00:00:00 | 02:03:27 | 00:00:00 | |
| SP3WXH-11 | 2026-09-05 00:33:08 | 52.86890 | 11.92935 | 183° | 18km/h | 29209m | 5.4m/s | -47.1°C | 0.6% | 14.2hPa | 2.7V | 00:00:00 | 00:00:00 | 00:00:00 | |
| DL1NUX | 2026-09-05 00:33:07 | 52.86905 | 11.92918 | 118° | 16km/h | 29177m | 6.6m/s | -47°C | 2.8% | 14.3hPa | 2.7V | 03:23:18 | 02:03:20 | 00:00:00 | |
| DL1XH-west | 2026-09-05 00:33:07 | 52.86898 | 11.92933 | 149° | 13km/h | 29196m | 6.8m/s | -47.1°C | 0% | 14.2hPa | 2.6V | 03:23:23 | 02:03:23 | 00:00:00 | |
| HSKMA3-T | 2026-09-05 00:33:02 | 52.86904 | 11.92918 | 119° | 16km/h | 29177m | 6.6m/s | -47°C | 0% | 14.3hPa | 2.7V | 03:23:23 | 02:03:20 | 00:00:00 | |
| BIOWL1-15 | 2026-09-05 00:33:01 | 52.86910 | 11.92908 | 143° | 16km/h | 29163m | 6.1m/s | 0°C | 0% | 0hPa | 2.6V | 18:12:15 | 02:03:18 | 00:00:00 | |
| DM0DOS-11 | 2026-09-05 00:33:00 | 52.86916 | 11.92902 | 149° | 11km/h | 29152m | 6.2m/s | -46.9°C | 2.8% | 14.3hPa | 2.7V | 03:23:22 | 02:03:16 | 00:00:00 | |
| HTAHTA | 2026-09-05 00:33:00 | 52.86913 | 11.92904 | 147° | 15km/h | 29158m | 5.3m/s | -47.0°C | 0.6% | 14.3hPa | 2.7V | 00:00:00 | 00:00:00 | 00:00:00 | |
| DL1XH1-15 | 2026-09-05 00:32:59 | 52.86922 | 11.92895 | 163° | 9km/h | 29127m | 6.1m/s | -46.8°C | 2.8% | 14.4hPa | 2.7V | 03:23:26 | 02:03:12 | 00:00:00 | |
| DO2SHX-10 | 2026-09-05 00:32:59 | 52.86913 | 11.92904 | 148° | 11km/h | 29158m | 5.3m/s | -46.9°C | 2.8% | 14.3hPa | 2.6V | 03:23:00 | 02:03:17 | 00:00:00 | |
| DL1XH-15 | 2026-09-05 00:32:58 | 52.86918 | 11.92899 | 140° | 7km/h | 29146m | 7.3m/s | -46.9°C | 2.8% | 14.3hPa | 2.6V | 03:23:23 | 02:03:15 | 00:00:00 | |
| DF8AY | 2026-09-05 00:32:57 | 52.86918 | 11.92899 | 140° | 7km/h | 29146m | 7.3m/s | -46.9°C | 0% | 14.3hPa | 2.6V | 03:23:23 | 02:03:15 | 00:00:00 | |
| DL1NUX | 2026-09-05 00:32:57 | 52.86929 | 11.92893 | 163° | 18km/h | 29113m | 6.7m/s | -46.8°C | 2.8% | 14.4hPa | 2.6V | 03:23:28 | 02:03:10 | 00:00:00 | |
| EDDB2-12 | 2026-09-05 00:32:57 | 52.86920 | 11.92897 | 143° | 5km/h | 29139m | 6.4m/s | -46.9°C | 0.6% | 14.3hPa | 2.6V | 00:00:00 | 00:00:00 | 00:00:00 | |
| DB0DAN | 2026-09-05 00:32:55 | 52.86921 | 11.92896 | 130° | 2km/h | 29133m | 5.3m/s | -46.9°C | 0.6% | 14.36hPa | 2.6V | 00:00:00 | 00:00:00 | 00:00:00 | |
| DL1XH-west | 2026-09-05 00:32:55 | 52.86921 | 11.92896 | 130° | 4km/h | 29133m | 5.3m/s | -46.9°C | 0% | 14.4hPa | 2.6V | 03:24:14 | 02:03:13 | 00:00:00 | |
| DK7RCA | 2026-09-05 00:32:54 | 52.86921 | 11.92896 | 131° | 4km/h | 29133m | 5.3m/s | -46.9°C | 0.6% | 14.4hPa | 2.7V | 00:00:00 | 00:00:00 | 00:00:00 | |
| DO3MHA-11 | 2026-09-05 00:32:53 | 52.86925 | 11.92894 | 168° | 20km/h | 29120m | 7.4m/s | -46.8°C | 2.8% | 14.4hPa | 2.7V | 00:00:00 | 02:03:11 | 00:00:00 | |
| DL1XH-15 | 2026-09-05 00:32:52 | 52.86948 | 11.92860 | 105° | 24km/h | 29082m | 6.2m/s | -46.8°C | 2.8% | 14.5hPa | 2.7V | 03:23:33 | 02:03:05 | 00:00:00 | |
| HSKMA3-T | 2026-09-05 00:32:51 | 52.86933 | 11.92889 | 155° | 22km/h | 29107m | 5.4m/s | -46.8°C | 0% | 14.4hPa | 2.6V | 03:24:14 | 02:03:09 | 00:00:00 | |
| DD8BA-10 | 2026-09-05 00:32:51 | 52.86933 | 11.92889 | 156° | 18km/h | 29107m | 5.3m/s | -46.7°C | 2.8% | 14.4hPa | 2.7V | 00:00:00 | 00:00:00 | 00:00:00 | |
| DM0DOS-11 | 2026-09-05 00:32:50 | 52.86945 | 11.92869 | 113° | 22km/h | 29088m | 7.4m/s | -46.8°C | 2.8% | 14.4hPa | 2.7V | 03:23:32 | 02:03:06 | 00:00:00 | |
| DL4XJ-10 | 2026-09-05 00:32:50 | 52.86938 | 11.92884 | 143° | 18km/h | 29102m | 5.2m/s | -47.2°C | 0% | 0hPa | 2.6V | 00:00:00 | 00:00:00 | 00:00:00 | |
| GOEST3-10 | 2026-09-05 00:32:49 | 52.86942 | 11.92877 | 129° | 22km/h | 29096m | 7.0m/s | -46.7°C | 2.8% | 14.4hPa | 2.6V | 00:00:00 | 02:03:07 | 00:00:00 | |
| DL1XH1-15 | 2026-09-05 00:32:48 | 52.86953 | 11.92837 | 125° | 15km/h | 29062m | 6.9m/s | -46.8°C | 2.8% | 14.5hPa | 2.6V | 03:23:36 | 02:03:02 | 00:00:00 | |
| DF8AY | 2026-09-05 00:32:47 | 52.86948 | 11.92860 | 106° | 24km/h | 29082m | 6.2m/s | -46.8°C | 0% | 14.5hPa | 2.7V | 03:24:14 | 02:03:05 | 00:00:00 | |
| DL1NUX | 2026-09-05 00:32:47 | 52.86956 | 11.92830 | 147° | 7km/h | 29050m | 5.7m/s | -46.8°C | 2.8% | 14.5hPa | 2.7V | 03:23:38 | 02:03:00 | 00:00:00 | |
| DL1XH-west | 2026-09-05 00:32:44 | 52.86952 | 11.92837 | 125° | 15km/h | 29062m | 6.9m/s | -46.8°C | 0% | 14.5hPa | 2.6V | 03:24:14 | 02:03:02 | 00:00:00 | |
| HSKMA3-T | 2026-09-05 00:32:40 | 52.86958 | 11.92828 | 102° | 2km/h | 29036m | 6.7m/s | -46.8°C | 0% | 0hPa | 2.6V | 03:24:14 | 02:02:58 | 00:00:00 | |
| DB0DAN | 2026-09-05 00:32:40 | 52.86958 | 11.92828 | 102° | 2km/h | 29036m | 6.7m/s | -46.8°C | 0.6% | 14.56hPa | 2.6V | 00:00:00 | 00:00:00 | 00:00:00 | |
| DM0DOS-11 | 2026-09-05 00:32:40 | 52.86959 | 11.92825 | 132° | 9km/h | 29024m | 6m/s | -46.8°C | 2.7% | 14.6hPa | 2.7V | 03:23:42 | 02:02:56 | 00:00:00 | |
| GOEST3-10 | 2026-09-05 00:32:39 | 52.86958 | 11.92827 | 112° | 13km/h | 29030m | 5.6m/s | -46.7°C | 2.8% | 14.5hPa | 2.6V | 00:00:00 | 02:02:57 | 00:00:00 | |
| DL1XH-15 | 2026-09-05 00:32:38 | 52.86961 | 11.92821 | 139° | 13km/h | 29017m | 7.7m/s | -46.8°C | 2.7% | 14.6hPa | 2.6V | 03:23:43 | 02:02:55 | 00:00:00 | |
| DO2SHX-10 | 2026-09-05 00:32:38 | 52.86959 | 11.92825 | 133° | 13km/h | 29025m | 6.0m/s | -46.7°C | 2.7% | 14.5hPa | 2.6V | 00:00:00 | 02:02:56 | 00:00:00 | |
| BUE01 | 2026-09-05 00:32:37 | 52.86964 | 11.92817 | 137° | 18km/h | 29010m | 6.5m/s | -46.8°C | 0.6% | 14.6hPa | 2.6V | 00:00:00 | 00:00:00 | 00:00:00 | |
| DL1NUX | 2026-09-05 00:32:37 | 52.86976 | 11.92787 | 95° | 20km/h | 28985m | 7m/s | -46.8°C | 2.7% | 14.7hPa | 2.7V | 03:23:48 | 02:02:50 | 00:00:00 | |
| DL1XH1-15 | 2026-09-05 00:32:36 | 52.86972 | 11.92803 | 124° | 24km/h | 28999m | 5.6m/s | -46.8°C | 2.8% | 14.7hPa | 2.6V | 03:23:46 | 02:02:52 | 00:00:00 | |
| DL1XH-west | 2026-09-05 00:32:34 | 52.86972 | 11.92803 | 124° | 24km/h | 28999m | 5.6m/s | -46.8°C | 0% | 14.7hPa | 2.6V | 03:24:14 | 02:02:52 | 00:00:00 | |
| DO3MHA-11 | 2026-09-05 00:32:33 | 52.86975 | 11.92795 | 113° | 13km/h | 28993m | 7.5m/s | -46.7°C | 2.7% | 14.6hPa | 2.7V | 00:00:00 | 02:02:51 | 00:00:00 | |
| DL1XH-15 | 2026-09-05 00:32:32 | 52.86977 | 11.92771 | 183° | 9km/h | 28954m | 6m/s | -47°C | 2.8% | 14.7hPa | 2.7V | 03:23:53 | 02:02:45 | 00:00:00 | |
| AA1-15 | 2026-09-05 00:32:30 | 52.86975 | 11.92772 | 84° | 5km/h | 28968m | 6.3m/s | -46.9°C | 0% | 14.7hPa | 2.6V | 03:24:14 | 02:02:47 | 00:00:00 | |
| DM0DOS-11 | 2026-09-05 00:32:30 | 52.86975 | 11.92771 | 163° | 4km/h | 28961m | 6.8m/s | -47°C | 2.8% | 14.7hPa | 2.6V | 03:23:52 | 02:02:46 | 00:00:00 | |
| HSKMA3-T | 2026-09-05 00:32:30 | 52.86975 | 11.92775 | 77° | 9km/h | 28974m | 5.2m/s | -46.9°C | 0% | 0hPa | 2.6V | 03:24:14 | 02:02:48 | 00:00:00 | |
| DL4XJ-10 | 2026-09-05 00:32:30 | 52.86975 | 11.92775 | 77° | 15km/h | 28974m | 5.1m/s | -47.3°C | 0% | 0hPa | 2.6V | 00:00:00 | 00:00:00 | 00:00:00 | |
| DO2SHX-10 | 2026-09-05 00:32:29 | 52.86975 | 11.92772 | 85° | 5km/h | 28968m | 6.3m/s | -46.9°C | 2.8% | 14.7hPa | 2.6V | 00:00:00 | 02:02:47 | 00:00:00 | |
| DB0NH | 2026-09-05 00:32:28 | 52.86975 | 11.92771 | 164° | 15km/h | 28961m | 6.8m/s | -46.9°C | 2.8% | 14.7hPa | 2.6V | 03:23:00 | 02:02:46 | 00:00:00 | |
| DL1NUX | 2026-09-05 00:32:27 | 52.86988 | 11.92755 | 90° | 16km/h | 28925m | 6.7m/s | -47°C | 2.7% | 14.8hPa | 2.6V | 03:23:58 | 02:02:40 | 00:00:00 | |
| DB0DAN | 2026-09-05 00:32:25 | 52.86983 | 11.92770 | 159° | 13km/h | 28944m | 5.5m/s | -47°C | 0.6% | 14.75hPa | 2.6V | 00:00:00 | 00:00:00 | 00:00:00 | |
| DF8AY | 2026-09-05 00:32:25 | 52.86983 | 11.92770 | 160° | 13km/h | 28944m | 5.5m/s | -47°C | 0% | 14.8hPa | 2.6V | 03:24:14 | 02:02:43 | 00:00:00 | |
| DL1XH-west | 2026-09-05 00:32:24 | 52.86985 | 11.92767 | 133° | 13km/h | 28938m | 6.3m/s | -47°C | 0% | 14.8hPa | 2.6V | 03:24:14 | 02:02:42 | 00:00:00 | |
| HSKMA3-T | 2026-09-05 00:32:20 | 52.86988 | 11.92732 | 98° | 18km/h | 28906m | 6.4m/s | -47.1°C | 0% | 0hPa | 2.6V | 03:24:14 | 02:02:37 | 00:00:00 | |
| GOEST3-10 | 2026-09-05 00:32:19 | 52.86988 | 11.92732 | 99° | 15km/h | 28906m | 6.4m/s | -47.0°C | 2.8% | 14.8hPa | 2.7V | 00:00:00 | 02:02:37 | 00:00:00 | |
| DL1XH-15 | 2026-09-05 00:32:18 | 52.86991 | 11.92720 | 134° | 15km/h | 28892m | 6.3m/s | -47.1°C | 2.8% | 14.9hPa | 2.7V | 03:24:03 | 02:02:35 | 00:00:00 | |
| DL1NUX | 2026-09-05 00:32:17 | 52.87000 | 11.92700 | 100° | 15km/h | 28861m | 5.1m/s | -47.3°C | 2.8% | 14.9hPa | 2.7V | 03:24:08 | 02:02:30 | 00:00:00 | |
| DL1XH-west | 2026-09-05 00:32:14 | 52.86998 | 11.92709 | 116° | 11km/h | 28874m | 6.9m/s | -47.2°C | 0% | 14.9hPa | 2.6V | 03:24:14 | 02:02:32 | 00:00:00 | |
| DO2SHX-10 | 2026-09-05 00:32:14 | 52.86998 | 11.92709 | 117° | 13km/h | 28874m | 6.8m/s | -47.2°C | 2.8% | 14.9hPa | 2.7V | 00:00:00 | 02:02:32 | 00:00:00 | |
| DB0DAN | 2026-09-05 00:32:10 | 52.87002 | 11.92687 | 113° | 18km/h | 28848m | 7.2m/s | -47.3°C | 0.6% | 15hPa | 2.7V | 00:00:00 | 00:00:00 | 00:00:00 | |
| DL1XH-15 | 2026-09-05 00:32:10 | 52.87007 | 11.92661 | 94° | 24km/h | 28830m | 6.9m/s | -47.4°C | 2.8% | 15hPa | 2.6V | 03:24:13 | 02:02:25 | 00:00:00 | |
| AA1-15 | 2026-09-05 00:32:09 | 52.87004 | 11.92679 | 114° | 22km/h | 28841m | 5.8m/s | -47.3°C | 0% | 15hPa | 2.6V | 03:24:14 | 02:02:27 | 00:00:00 | |
| DL1XH1-15 | 2026-09-05 00:32:09 | 52.87006 | 11.92632 | 97° | 9km/h | 28806m | 7.2m/s | -47.5°C | 2.8% | 15.1hPa | 2.6V | 03:24:17 | 02:02:21 | 00:00:00 | |
| HSKMA3-T | 2026-09-05 00:32:08 | 52.87006 | 11.92670 | 105° | 24km/h | 28836m | 5.3m/s | 0°C | 0% | 0hPa | 2.6V | 03:24:14 | 02:02:26 | 00:00:00 | |
| DF8AY-15 | 2026-09-05 00:32:08 | 52.87006 | 11.92670 | 106° | 15km/h | 28836m | 5.3m/s | -47.3°C | 2.8% | 15.0hPa | 2.6V | 00:00:00 | 02:02:26 | 00:00:00 | |
| DL1NUX | 2026-09-05 00:32:07 | 52.87006 | 11.92629 | 140° | 7km/h | 28799m | 6.9m/s | -47.6°C | 2.9% | 15.1hPa | 2.6V | 03:24:18 | 02:02:20 | 00:00:00 | |
| DL1XH-west | 2026-09-05 00:32:04 | 52.87006 | 11.92629 | 140° | 7km/h | 28799m | 6.9m/s | -47.6°C | 0% | 15.1hPa | 2.6V | 03:25:05 | 02:02:20 | 00:00:00 | |
| DF8AY | 2026-09-05 00:32:04 | 52.87005 | 11.92632 | 97° | 9km/h | 28806m | 7.2m/s | -47.5°C | 0% | 15.1hPa | 2.6V | 03:25:05 | 02:02:21 | 00:00:00 | |
| DO2SHX-10 | 2026-09-05 00:32:02 | 52.87006 | 11.92629 | 141° | 7km/h | 28800m | 6.8m/s | -47.5°C | 2.9% | 15.0hPa | 2.6V | 00:00:00 | 02:02:20 | 00:00:00 | |
| DD8BA-10 | 2026-09-05 00:32:00 | 52.87009 | 11.92628 | 157° | 13km/h | 28788m | 5.0m/s | -47.6°C | 2.8% | 15.1hPa | 2.6V | 00:00:00 | 00:00:00 | 00:00:00 | |
| DM0DOS-11 | 2026-09-05 00:31:59 | 52.87010 | 11.92625 | 59° | 7km/h | 28776m | 7.1m/s | -47.7°C | 2.9% | 15.2hPa | 2.6V | 03:24:22 | 02:02:16 | 00:00:00 | |
| DO2SHX-10 | 2026-09-05 00:31:59 | 52.87010 | 11.92627 | 122° | 9km/h | 28783m | 6.6m/s | -47.7°C | 2.8% | 15.1hPa | 2.7V | 03:24:00 | 02:02:17 | 00:00:00 | |
| DL1XH1-15 | 2026-09-05 00:31:58 | 52.87003 | 11.92595 | 99° | 16km/h | 28746m | 6.7m/s | -47.6°C | 2.8% | 15.2hPa | 2.7V | 03:24:27 | 02:02:11 | 00:00:00 | |
| HSKMA3-T | 2026-09-05 00:31:58 | 52.87010 | 11.92625 | 59° | 7km/h | 28776m | 7.1m/s | 0°C | 0% | 0hPa | 2.6V | 18:12:15 | 02:02:16 | 00:00:00 | |
| HTAHTA | 2026-09-05 00:31:58 | 52.87008 | 11.92621 | 54° | 13km/h | 28770m | 5.9m/s | -47.7°C | 0.6% | 15.2hPa | 2.6V | 00:00:00 | 00:00:00 | 00:00:00 | |
| DC4HF-4 | 2026-09-05 00:31:56 | 52.87006 | 11.92615 | 59° | 16km/h | 28764m | 4.9m/s | -47.7°C | 0.6% | 15.2hPa | 2.6V | 00:00:00 | 00:00:00 | 00:00:00 | |
| DB0DAN | 2026-09-05 00:31:55 | 52.87004 | 11.92609 | 65° | 16km/h | 28759m | 5.2m/s | -47.7°C | 0.6% | 15.22hPa | 2.6V | 00:00:00 | 00:00:00 | 00:00:00 | |
| DL1XH-west | 2026-09-05 00:31:52 | 52.87005 | 11.92589 | 119° | 16km/h | 28739m | 6m/s | -47.7°C | 0% | 15.2hPa | 2.6V | 03:25:05 | 02:02:10 | 00:00:00 | |
| DL1XH-15 | 2026-09-05 00:31:50 | 52.87010 | 11.92569 | 40° | 9km/h | 28711m | 5.3m/s | -47.9°C | 2.9% | 15.3hPa | 2.6V | 03:24:33 | 02:02:05 | 00:00:00 | |
| DO2SHX-10 | 2026-09-05 00:31:50 | 52.87009 | 11.92579 | 130° | 11km/h | 28729m | 5.1m/s | -47.7°C | 2.8% | 15.2hPa | 2.7V | 00:00:00 | 02:02:08 | 00:00:00 | |
| DM0DOS-11 | 2026-09-05 00:31:49 | 52.87011 | 11.92572 | 69° | 9km/h | 28717m | 6.5m/s | -47.8°C | 2.8% | 15.3hPa | 2.6V | 03:24:32 | 02:02:06 | 00:00:00 | |
| AA1-15 | 2026-09-05 00:31:48 | 52.87010 | 11.92569 | 41° | 9km/h | 28711m | 5.4m/s | -47.9°C | 0% | 15.3hPa | 2.6V | 03:25:05 | 02:02:05 | 00:00:00 | |
| DL1XH1-15 | 2026-09-05 00:31:48 | 52.87001 | 11.92566 | 322° | 4km/h | 28689m | 6.6m/s | -48.1°C | 2.9% | 15.4hPa | 2.7V | 03:24:37 | 02:02:01 | 00:00:00 | |
| DF8AY-15 | 2026-09-05 00:31:48 | 52.87011 | 11.92571 | 70° | 7km/h | 28718m | 6.4m/s | -47.7°C | 2.8% | 15.2hPa | 2.6V | 00:00:00 | 02:02:06 | 00:00:00 | |
| DL1NUX | 2026-09-05 00:31:47 | 52.87001 | 11.92567 | 261° | 4km/h | 28683m | 5.7m/s | -48.2°C | 3% | 15.4hPa | 2.6V | 03:24:38 | 02:02:00 | 00:00:00 | |
| DL1XH-west | 2026-09-05 00:31:41 | 52.87001 | 11.92569 | 244° | 5km/h | 28677m | 5.4m/s | -48.3°C | 0% | 15.4hPa | 2.6V | 03:25:05 | 02:01:59 | 00:00:00 | |
| DF8AY | 2026-09-05 00:31:40 | 52.87002 | 11.92571 | 267° | 4km/h | 28672m | 5.9m/s | -48.3°C | 0% | 15.4hPa | 2.6V | 03:25:05 | 02:01:58 | 00:00:00 | |
| DB0DAN | 2026-09-05 00:31:40 | 52.87002 | 11.92571 | 267° | 4km/h | 28672m | 5.9m/s | -48.3°C | 0.6% | 15.39hPa | 2.6V | 00:00:00 | 00:00:00 | 00:00:00 | |
| DD8BA-10 | 2026-09-05 00:31:40 | 52.87002 | 11.92571 | 267° | 7km/h | 28672m | 5.9m/s | -48.2°C | 3.0% | 15.3hPa | 2.6V | 00:00:00 | 00:00:00 | 00:00:00 | |
| DM0DOS-11 | 2026-09-05 00:31:39 | 52.87001 | 11.92574 | 309° | 5km/h | 28659m | 6.1m/s | -48.3°C | 3% | 15.4hPa | 2.7V | 03:24:42 | 02:01:56 | 00:00:00 | |
| GOEST3-10 | 2026-09-05 00:31:39 | 52.87001 | 11.92572 | 311° | 5km/h | 28666m | 6.5m/s | -48.2°C | 3.0% | 15.4hPa | 2.7V | 00:00:00 | 02:01:57 | 00:00:00 | |
| DL1XH-15 | 2026-09-05 00:31:38 | 52.87000 | 11.92576 | 318° | 7km/h | 28653m | 5.2m/s | -48.3°C | 3% | 15.4hPa | 2.7V | 03:24:43 | 02:01:55 | 00:00:00 | |
| DL1XH1-15 | 2026-09-05 00:31:38 | 52.87001 | 11.92586 | 204° | 9km/h | 28630m | 5.3m/s | -48.3°C | 3% | 15.5hPa | 2.7V | 03:24:47 | 02:01:51 | 00:00:00 | |
| DL1NUX | 2026-09-05 00:31:37 | 52.87003 | 11.92587 | 186° | 7km/h | 28624m | 5.2m/s | -48.3°C | 3% | 15.5hPa | 2.7V | 03:24:48 | 02:01:50 | 00:00:00 | |
| AA1-15 | 2026-09-05 00:31:37 | 52.86999 | 11.92578 | 298° | 7km/h | 28648m | 5.2m/s | -48.3°C | 0% | 15.4hPa | 2.6V | 03:25:05 | 02:01:54 | 00:00:00 | |
| DL1XH-west | 2026-09-05 00:31:31 | 52.87005 | 11.92587 | 61° | 2km/h | 28612m | 6.7m/s | -48.3°C | 0% | 15.5hPa | 2.6V | 03:25:05 | 02:01:48 | 00:00:00 | |
| DL1XH-15 | 2026-09-05 00:31:30 | 52.87003 | 11.92584 | 134° | 2km/h | 28594m | 6.8m/s | -48.4°C | 3% | 15.6hPa | 2.6V | 03:24:53 | 02:01:45 | 00:00:00 | |
| DD8BA-10 | 2026-09-05 00:31:30 | 52.87005 | 11.92587 | 62° | 5km/h | 28612m | 6.6m/s | -48.3°C | 3.0% | 15.5hPa | 2.7V | 00:00:00 | 00:00:00 | 00:00:00 | |
| DM0DOS-11 | 2026-09-05 00:31:29 | 52.87004 | 11.92585 | 55° | 4km/h | 28600m | 5.9m/s | -48.4°C | 2.9% | 15.6hPa | 2.7V | 03:24:52 | 02:01:46 | 00:00:00 | |
| DL4XJ-10 | 2026-09-05 00:31:29 | 52.87004 | 11.92586 | 40° | 7km/h | 28605m | 5.5m/s | -48.7°C | 0% | 0hPa | 2.6V | 00:00:00 | 00:00:00 | 00:00:00 | |
| DB0NH | 2026-09-05 00:31:28 | 52.87003 | 11.92585 | 56° | 9km/h | 28600m | 5.9m/s | -48.3°C | 2.9% | 15.5hPa | 2.6V | 00:00:00 | 02:01:46 | 00:00:00 | |
| DL1NUX | 2026-09-05 00:31:27 | 52.87008 | 11.92592 | 259° | 9km/h | 28564m | 5.8m/s | -48.4°C | 3% | 15.7hPa | 2.6V | 03:24:58 | 02:01:40 | 00:00:00 | |
| AA1-15 | 2026-09-05 00:31:25 | 52.87005 | 11.92585 | 204° | 5km/h | 28583m | 4.8m/s | -48.3°C | 0% | 15.6hPa | 2.7V | 03:25:05 | 02:01:43 | 00:00:00 | |
| DB0DAN | 2026-09-05 00:31:25 | 52.87005 | 11.92585 | 204° | 5km/h | 28583m | 4.8m/s | -48.3°C | 0.6% | 15.61hPa | 2.7V | 00:00:00 | 00:00:00 | 00:00:00 | |
| SP3BTT-10 | 2026-09-05 00:31:25 | 52.87005 | 11.92585 | 204° | 16km/h | 28583m | 4.8m/s | -48.3°C | 3.0% | 15.6hPa | 2.6V | 00:00:00 | 00:00:00 | 00:00:00 | |
| DL1XH1-15 | 2026-09-05 00:31:24 | 52.87007 | 11.92588 | 252° | 7km/h | 28571m | 6.7m/s | -48.3°C | 3% | 15.7hPa | 2.6V | 03:24:57 | 02:01:41 | 00:00:00 | |
| DL1XH-west | 2026-09-05 00:31:20 | 52.87011 | 11.92602 | 240° | 16km/h | 28552m | 7.2m/s | -48.4°C | 0% | 15.7hPa | 2.7V | 03:25:05 | 02:01:38 | 00:00:00 | |
| DF8AY | 2026-09-05 00:31:20 | 52.87013 | 11.92608 | 229° | 20km/h | 28545m | 6.8m/s | -48.4°C | 0% | 15.7hPa | 2.7V | 03:25:05 | 02:01:37 | 00:00:00 | |
| DM0DOS-11 | 2026-09-05 00:31:19 | 52.87016 | 11.92614 | 232° | 20km/h | 28539m | 4.6m/s | -48.4°C | 3% | 15.7hPa | 2.7V | 03:25:02 | 02:01:36 | 00:00:00 | |
| GOEST3-10 | 2026-09-05 00:31:19 | 52.87013 | 11.92608 | 229° | 16km/h | 28545m | 6.8m/s | -48.3°C | 3.0% | 15.6hPa | 2.6V | 00:00:00 | 02:01:37 | 00:00:00 | |
| DL1XH-15 | 2026-09-05 00:31:18 | 52.87019 | 11.92621 | 233° | 18km/h | 28535m | 4.4m/s | -48.4°C | 3% | 15.7hPa | 2.6V | 03:25:03 | 02:01:35 | 00:00:00 | |
| DL1NUX | 2026-09-05 00:31:17 | 52.87022 | 11.92641 | 270° | 5km/h | 28505m | 6.6m/s | -48.4°C | 3% | 15.8hPa | 2.6V | 03:25:08 | 02:01:30 | 00:00:00 | |
| AA1-15 | 2026-09-05 00:31:15 | 52.87023 | 11.92635 | 280° | 9km/h | 28517m | 5.8m/s | -48.4°C | 0% | 15.8hPa | 2.7V | 03:25:56 | 02:01:32 | 00:00:00 | |
| DO2SHX-10 | 2026-09-05 00:31:14 | 52.87023 | 11.92635 | 281° | 7km/h | 28517m | 5.7m/s | -48.4°C | 3.0% | 15.7hPa | 2.7V | 00:00:00 | 02:01:32 | 00:00:00 | |
| S3001 | 2026-09-05 00:31:12 | 52.87023 | 11.92643 | 223° | 5km/h | 28499m | 6.1m/s | -48.4°C | 0.6% | 15.8hPa | 2.7V | 00:00:00 | 00:00:00 | 00:00:00 | |
| DO2SHX-10 | 2026-09-05 00:31:11 | 52.87023 | 11.92643 | 224° | 9km/h | 28499m | 6.1m/s | -48.4°C | 3.0% | 15.7hPa | 2.7V | 03:25:00 | 02:01:29 | 00:00:00 | |
| DL1XH-15 | 2026-09-05 00:31:10 | 52.87031 | 11.92645 | 172° | 5km/h | 28478m | 6.5m/s | -48.4°C | 3% | 15.9hPa | 2.7V | 03:25:13 | 02:01:25 | 00:00:00 | |
| DB0DAN | 2026-09-05 00:31:10 | 52.87024 | 11.92645 | 196° | 9km/h | 28493m | 4.9m/s | -48.4°C | 0.7% | 15.84hPa | 2.6V | 00:00:00 | 00:00:00 | 00:00:00 | |
| DL1XH-west | 2026-09-05 00:31:10 | 52.87024 | 11.92645 | 196° | 9km/h | 28493m | 4.9m/s | -48.4°C | 0% | 15.8hPa | 2.6V | 03:25:56 | 02:01:28 | 00:00:00 | |
| DF8AY | 2026-09-05 00:31:09 | 52.87029 | 11.92645 | 182° | 9km/h | 28484m | 5.4m/s | -48.4°C | 0% | 15.8hPa | 2.7V | 03:25:56 | 02:01:26 | 00:00:00 | |
| DL1XH1-15 | 2026-09-05 00:31:08 | 52.87035 | 11.92651 | 225° | 13km/h | 28455m | 7m/s | -48.3°C | 3% | 15.9hPa | 2.7V | 03:25:17 | 02:01:21 | 00:00:00 | |
| AA1-15 | 2026-09-05 00:31:03 | 52.87035 | 11.92651 | 225° | 13km/h | 28455m | 7.1m/s | -48.3°C | 0% | 15.9hPa | 2.7V | 03:25:56 | 02:01:21 | 00:00:00 | |
| DO2SHX-10 | 2026-09-05 00:31:02 | 52.87038 | 11.92655 | 224° | 15km/h | 28449m | 5.7m/s | -48.3°C | 3.0% | 15.9hPa | 2.6V | 00:00:00 | 02:01:20 | 00:00:00 | |
| EDDB2-11 | 2026-09-05 00:31:01 | 52.87041 | 11.92659 | 222° | 13km/h | 28444m | 4.9m/s | -48.4°C | 0.6% | 15.9hPa | 2.6V | 00:00:00 | 00:00:00 | 00:00:00 | |
| DO3MHA-11 | 2026-09-05 00:31:00 | 52.87043 | 11.92662 | 213° | 15km/h | 28439m | 4.9m/s | -48.3°C | 3.0% | 15.9hPa | 2.6V | 00:00:00 | 02:01:18 | 00:00:00 | |
| DL1XH-west | 2026-09-05 00:31:00 | 52.87043 | 11.92663 | 213° | 11km/h | 28439m | 4.9m/s | -48.4°C | 0% | 16hPa | 2.6V | 03:25:56 | 02:01:18 | 00:00:00 | |
| DL1XH1-15 | 2026-09-05 00:30:59 | 52.87054 | 11.92635 | 149° | 16km/h | 28398m | 5.8m/s | -48.2°C | 3% | 16hPa | 2.7V | 03:25:27 | 02:01:11 | 00:00:00 | |
| DL1XH-15 | 2026-09-05 00:30:58 | 52.87047 | 11.92657 | 99° | 15km/h | 28420m | 4.7m/s | -48.3°C | 3% | 16hPa | 2.7V | 03:25:23 | 02:01:15 | 00:00:00 | |
| DF8AY | 2026-09-05 00:30:57 | 52.87047 | 11.92657 | 99° | 15km/h | 28420m | 4.7m/s | -48.3°C | 0% | 16hPa | 2.7V | 03:25:56 | 02:01:15 | 00:00:00 | |
| DL1NUX | 2026-09-05 00:30:57 | 52.87058 | 11.92632 | 156° | 15km/h | 28392m | 5.3m/s | -48.2°C | 3% | 16.1hPa | 2.7V | 03:25:28 | 02:01:10 | 00:00:00 | |
| HARRO8 | 2026-09-05 00:30:56 | 52.87049 | 11.92645 | 114° | 15km/h | 28410m | 5.7m/s | -48.3°C | 0.6% | 16.0hPa | 2.6V | 00:00:00 | 00:00:00 | 00:00:00 | |
| DB0DAN | 2026-09-05 00:30:55 | 52.87049 | 11.92645 | 115° | 15km/h | 28410m | 5.7m/s | -48.3°C | 0.6% | 16.02hPa | 2.6V | 00:00:00 | 00:00:00 | 00:00:00 | |
| AA1-15 | 2026-09-05 00:30:53 | 52.87058 | 11.92632 | 157° | 15km/h | 28392m | 5.3m/s | -48.2°C | 0% | 16.1hPa | 2.7V | 03:25:56 | 02:01:10 | 00:00:00 | |
| EDDB2-12 | 2026-09-05 00:30:53 | 52.87058 | 11.92632 | 156° | 15km/h | 28393m | 5.3m/s | -48.2°C | 0.6% | 16.1hPa | 2.6V | 00:00:00 | 00:00:00 | 00:00:00 | |
| DL1ZP-14 | 2026-09-05 00:30:51 | 52.87064 | 11.92629 | 163° | 9km/h | 28381m | 5.4m/s | -48.2°C | 0.6% | 16.1hPa | 2.6V | 00:00:00 | 00:00:00 | 00:00:00 | |
| DM0DOS-11 | 2026-09-05 00:30:50 | 52.87069 | 11.92628 | 182° | 11km/h | 28372m | 4.6m/s | -48.1°C | 2.9% | 16.1hPa | 2.6V | 03:25:32 | 02:01:06 | 00:00:00 | |
| DL1XH-west | 2026-09-05 00:30:49 | 52.87066 | 11.92628 | 173° | 11km/h | 28376m | 3.8m/s | -48.2°C | 0% | 16.1hPa | 2.6V | 03:25:56 | 02:01:07 | 00:00:00 | |
| DL4XJ-10 | 2026-09-05 00:30:49 | 52.87066 | 11.92628 | 174° | 16km/h | 28376m | 3.8m/s | -48.6°C | 0% | 0hPa | 2.7V | 00:00:00 | 00:00:00 | 00:00:00 | |
| DL1XH1-15 | 2026-09-05 00:30:48 | 52.87086 | 11.92623 | 113° | 11km/h | 28344m | 7.5m/s | -48.2°C | 2.9% | 16.2hPa | 2.7V | 03:25:37 | 02:01:01 | 00:00:00 | |
| DF8AY | 2026-09-05 00:30:47 | 52.87077 | 11.92629 | 182° | 18km/h | 28360m | 5.8m/s | -48.2°C | 0% | 16.1hPa | 2.7V | 03:25:56 | 02:01:04 | 00:00:00 | |
| AA1-15 | 2026-09-05 00:30:42 | 52.87087 | 11.92618 | 93° | 16km/h | 28338m | 6.3m/s | -48.3°C | 0% | 16.2hPa | 2.7V | 03:25:56 | 02:01:00 | 00:00:00 | |
| DB0DAN | 2026-09-05 00:30:40 | 52.87087 | 11.92601 | 93° | 22km/h | 28327m | 5.2m/s | -48.4°C | 0.6% | 16.21hPa | 2.6V | 00:00:00 | 00:00:00 | 00:00:00 | |
| DM0DOS-11 | 2026-09-05 00:30:40 | 52.87090 | 11.92580 | 115° | 27km/h | 28315m | 5.9m/s | -48.4°C | 3% | 16.3hPa | 2.6V | 03:25:42 | 02:00:56 | 00:00:00 | |
| DL1XH-west | 2026-09-05 00:30:39 | 52.87088 | 11.92590 | 103° | 27km/h | 28321m | 6.4m/s | -48.4°C | 0% | 16.2hPa | 2.7V | 03:25:56 | 02:00:57 | 00:00:00 | |
| DL1XH-15 | 2026-09-05 00:30:38 | 52.87093 | 11.92570 | 123° | 27km/h | 28309m | 4.8m/s | -48.4°C | 3% | 16.3hPa | 2.6V | 03:25:43 | 02:00:55 | 00:00:00 | |
| DL1XH1-15 | 2026-09-05 00:30:38 | 52.87109 | 11.92546 | 145° | 15km/h | 28287m | 5.3m/s | -48.4°C | 2.9% | 16.3hPa | 2.7V | 03:25:47 | 02:00:51 | 00:00:00 | |
| DO2SHX-10 | 2026-09-05 00:30:38 | 52.87090 | 11.92580 | 116° | 26km/h | 28315m | 5.8m/s | -48.3°C | 3.0% | 16.2hPa | 2.6V | 00:00:00 | 02:00:56 | 00:00:00 | |
| DF7ER-10 | 2026-09-05 00:30:37 | 52.87090 | 11.92580 | 116° | 27km/h | 28315m | 5.9m/s | -48.4°C | 0.7% | 16.3hPa | 2.7V | 03:25:00 | 00:00:00 | 00:00:00 | |
| DL1NUX | 2026-09-05 00:30:36 | 52.87112 | 11.92543 | 154° | 11km/h | 28282m | 4.3m/s | -48.4°C | 2.9% | 16.3hPa | 2.7V | 03:25:48 | 02:00:50 | 00:00:00 | |
| DF8AY | 2026-09-05 00:30:35 | 52.87102 | 11.92555 | 139° | 22km/h | 28299m | 6.1m/s | -48.4°C | 0% | 16.3hPa | 2.6V | 03:25:56 | 02:00:53 | 00:00:00 | |
| AA1-15 | 2026-09-05 00:30:32 | 52.87114 | 11.92542 | 172° | 11km/h | 28277m | 4.8m/s | -48.5°C | 0% | 16.4hPa | 2.6V | 03:25:56 | 02:00:49 | 00:00:00 | |
| DM0DOS-11 | 2026-09-05 00:30:30 | 52.87125 | 11.92540 | 168° | 16km/h | 28260m | 4.9m/s | -48.6°C | 2.9% | 16.4hPa | 2.7V | 03:25:52 | 02:00:46 | 00:00:00 | |
| DL1XH-15 | 2026-09-05 00:30:30 | 52.87128 | 11.92538 | 149° | 15km/h | 28256m | 4.3m/s | -48.7°C | 3% | 16.4hPa | 2.7V | 03:25:53 | 02:00:45 | 00:00:00 | |
| DL1XH-west | 2026-09-05 00:30:28 | 52.87131 | 11.92534 | 126° | 13km/h | 28251m | 5.9m/s | -48.7°C | 0% | 16.4hPa | 2.6V | 03:25:56 | 02:00:44 | 00:00:00 | |
| DL1XH1-15 | 2026-09-05 00:30:28 | 52.87132 | 11.92514 | 85° | 22km/h | 28233m | 4.6m/s | -48.9°C | 3% | 16.4hPa | 2.6V | 03:25:57 | 02:00:41 | 00:00:00 | |
| DL1NUX | 2026-09-05 00:30:28 | 52.87132 | 11.92505 | 96° | 24km/h | 28228m | 5.1m/s | -48.9°C | 3% | 16.4hPa | 2.7V | 03:25:58 | 02:00:40 | 00:00:00 | |
| DF7ER-10 | 2026-09-05 00:30:27 | 52.87128 | 11.92538 | 151° | 15km/h | 28256m | 4.3m/s | -48.7°C | 0.7% | 16.4hPa | 2.6V | 03:25:00 | 00:00:00 | 00:00:00 | |
| DB0DAN | 2026-09-05 00:30:25 | 52.87132 | 11.92529 | 96° | 13km/h | 28245m | 7.3m/s | -48.8°C | 0.7% | 16.41hPa | 2.6V | 00:00:00 | 00:00:00 | 00:00:00 | |
| DF8AY | 2026-09-05 00:30:24 | 52.87132 | 11.92523 | 83° | 18km/h | 28238m | 5.4m/s | -48.8°C | 0% | 16.4hPa | 2.6V | 03:25:56 | 02:00:42 | 00:00:00 | |
| GOEST3-10 | 2026-09-05 00:30:24 | 52.87132 | 11.92523 | 83° | 24km/h | 28239m | 5.4m/s | -48.8°C | 3.0% | 16.4hPa | 2.7V | 00:00:00 | 00:00:00 | 00:00:00 | |
| DM0DOS-11 | 2026-09-05 00:30:23 | 52.87147 | 11.92473 | 155° | 24km/h | 28205m | 5.5m/s | -49.1°C | 3.1% | 16.5hPa | 2.7V | 03:26:02 | 02:00:36 | 00:00:00 | |
| AA1-15 | 2026-09-05 00:30:20 | 52.87136 | 11.92486 | 131° | 26km/h | 28216m | 5.7m/s | -49°C | 0% | 16.5hPa | 2.6V | 03:26:47 | 02:00:38 | 00:00:00 | |
| DL1ZP-14 | 2026-09-05 00:30:20 | 52.87141 | 11.92478 | 142° | 26km/h | 28211m | 5.5m/s | -49.1°C | 0.7% | 16.5hPa | 2.6V | 00:00:00 | 00:00:00 | 00:00:00 | |
| DL4XJ-10 | 2026-09-05 00:30:19 | 52.87141 | 11.92478 | 143° | 18km/h | 28210m | 5.4m/s | -49.5°C | 0% | 0hPa | 2.6V | 00:00:00 | 00:00:00 | 00:00:00 | |
| DL1XH-15 | 2026-09-05 00:30:18 | 52.87152 | 11.92470 | 167° | 20km/h | 28199m | 6.4m/s | -49.2°C | 3.1% | 16.5hPa | 2.6V | 03:26:03 | 02:00:35 | 00:00:00 | |
| DL1XH1-15 | 2026-09-05 00:30:18 | 52.87168 | 11.92472 | 185° | 15km/h | 28178m | 5.8m/s | -49.3°C | 3.1% | 16.6hPa | 2.7V | 03:26:07 | 02:00:31 | 00:00:00 | |
| DL1NUX | 2026-09-05 00:30:18 | 52.87172 | 11.92472 | 170° | 18km/h | 28172m | 6.3m/s | -49.3°C | 3.1% | 16.6hPa | 2.6V | 03:26:08 | 02:00:30 | 00:00:00 | |
| DL1XH-west | 2026-09-05 00:30:15 | 52.87161 | 11.92469 | 196° | 15km/h | 28188m | 4.5m/s | -49.2°C | 0% | 16.5hPa | 2.6V | 03:26:47 | 02:00:33 | 00:00:00 | |
| DF8AY | 2026-09-05 00:30:13 | 52.87168 | 11.92472 | 186° | 15km/h | 28178m | 5.8m/s | -49.3°C | 0% | 16.6hPa | 2.7V | 03:26:47 | 02:00:31 | 00:00:00 | |
| DM0DOS-11 | 2026-09-05 00:30:12 | 52.87185 | 11.92452 | 104° | 18km/h | 28149m | 6.7m/s | -49.3°C | 3.1% | 16.6hPa | 2.6V | 03:26:12 | 02:00:26 | 00:00:00 | |
| DB0DAN | 2026-09-05 00:30:10 | 52.87180 | 11.92465 | 138° | 18km/h | 28161m | 4.9m/s | -49.3°C | 0.7% | 16.61hPa | 2.6V | 00:00:00 | 00:00:00 | 00:00:00 | |
| AA1-15 | 2026-09-05 00:30:09 | 52.87183 | 11.92459 | 120° | 18km/h | 28156m | 5.9m/s | -49.3°C | 0% | 16.6hPa | 2.6V | 03:26:47 | 02:00:27 | 00:00:00 | |
| DD8BA-10 | 2026-09-05 00:30:09 | 52.87183 | 11.92459 | 121° | 18km/h | 28156m | 5.8m/s | -49.2°C | 3.1% | 16.6hPa | 2.6V | 00:00:00 | 00:00:00 | 00:00:00 | |
| DL1XH-15 | 2026-09-05 00:30:08 | 52.87186 | 11.92445 | 97° | 18km/h | 28143m | 5.6m/s | -49.4°C | 3.1% | 16.7hPa | 2.7V | 03:26:13 | 02:00:25 | 00:00:00 | |
| DF8AY-15 | 2026-09-05 00:30:08 | 52.87185 | 11.92452 | 105° | 18km/h | 28149m | 6.7m/s | -49.3°C | 3.1% | 16.6hPa | 2.6V | 03:26:00 | 02:00:26 | 00:00:00 | |
| DL1NUX | 2026-09-05 00:30:07 | 52.87198 | 11.92414 | 160° | 16km/h | 28115m | 5.3m/s | -49.4°C | 3.1% | 16.7hPa | 2.6V | 03:26:18 | 02:00:20 | 00:00:00 | |
| DL1XH-west | 2026-09-05 00:30:05 | 52.87188 | 11.92429 | 112° | 20km/h | 28132m | 6.4m/s | -49.4°C | 0% | 16.7hPa | 2.7V | 03:26:47 | 02:00:23 | 00:00:00 | |
| DF8AY | 2026-09-05 00:30:03 | 52.87194 | 11.92417 | 148° | 18km/h | 28120m | 4.8m/s | -49.4°C | 0% | 16.7hPa | 2.6V | 03:26:47 | 02:00:21 | 00:00:00 | |
| SP3WXH-11 | 2026-09-05 00:30:01 | 52.87202 | 11.92412 | 167° | 13km/h | 28109m | 6.7m/s | -49.4°C | 0.7% | 16.8hPa | 2.6V | 00:00:00 | 00:00:00 | 00:00:00 | |
| DM0DOS-11 | 2026-09-05 00:30:00 | 52.87210 | 11.92408 | 142° | 11km/h | 28093m | 4.5m/s | -49.4°C | 3.1% | 16.8hPa | 2.6V | 03:26:22 | 02:00:16 | 00:00:00 | |
| DL1XH-15 | 2026-09-05 00:30:00 | 52.87212 | 11.92404 | 131° | 15km/h | 28088m | 6.6m/s | -49.4°C | 3.1% | 16.8hPa | 2.7V | 03:26:23 | 02:00:15 | 00:00:00 | |
| AA1-15 | 2026-09-05 00:29:58 | 52.87210 | 11.92408 | 143° | 11km/h | 28093m | 4.5m/s | -49.4°C | 0% | 16.8hPa | 2.6V | 03:26:47 | 02:00:16 | 00:00:00 | |
| DB0NH | 2026-09-05 00:29:58 | 52.87210 | 11.92408 | 143° | 18km/h | 28093m | 4.4m/s | -49.3°C | 3.1% | 16.7hPa | 2.6V | 00:00:00 | 02:00:16 | 00:00:00 | |
| DL1XH1-15 | 2026-09-05 00:29:57 | 52.87220 | 11.92366 | 90° | 27km/h | 28064m | 7m/s | -49.5°C | 3.2% | 16.9hPa | 2.6V | 03:26:27 | 02:00:11 | 00:00:00 | |
| AM1SDL-15 | 2026-09-05 00:29:57 | 52.87212 | 11.92404 | 132° | 20km/h | 28088m | 6.6m/s | -49.3°C | 3.1% | 16.8hPa | 2.6V | 00:00:00 | 02:00:15 | 00:00:00 | |
| DB0DAN | 2026-09-05 00:29:55 | 52.87217 | 11.92389 | 110° | 26km/h | 28076m | 5.4m/s | -49.4°C | 0.7% | 16.85hPa | 2.6V | 00:00:00 | 00:00:00 | 00:00:00 | |
| DL1XH-west | 2026-09-05 00:29:55 | 52.87217 | 11.92389 | 110° | 26km/h | 28076m | 5.4m/s | -49.4°C | 0% | 16.9hPa | 2.6V | 03:26:47 | 02:00:13 | 00:00:00 | |
| DF8AY | 2026-09-05 00:29:53 | 52.87220 | 11.92366 | 91° | 27km/h | 28064m | 7m/s | -49.5°C | 0% | 16.9hPa | 2.6V | 03:26:47 | 02:00:11 | 00:00:00 | |
| DJ2DS-15 | 2026-09-05 00:29:51 | 52.87217 | 11.92335 | 86° | 18km/h | 28047m | 5.5m/s | -49.5°C | 0.7% | 16.9hPa | 2.6V | 00:00:00 | 00:00:00 | 00:00:00 | |
| DO2SHX-10 | 2026-09-05 00:29:50 | 52.87217 | 11.92335 | 87° | 15km/h | 28048m | 5.4m/s | -49.4°C | 3.2% | 16.9hPa | 2.6V | 00:00:00 | 02:00:08 | 00:00:00 | |
| DD8BA-10 | 2026-09-05 00:29:49 | 52.87217 | 11.92329 | 106° | 13km/h | 28042m | 6.5m/s | -49.4°C | 3.2% | 16.9hPa | 2.6V | 03:26:00 | 00:00:00 | 00:00:00 | |
| DL1XH-15 | 2026-09-05 00:29:48 | 52.87221 | 11.92321 | 156° | 11km/h | 28030m | 4.7m/s | -49.5°C | 3.2% | 17hPa | 2.6V | 03:26:33 | 02:00:05 | 00:00:00 | |
| AA1-15 | 2026-09-05 00:29:47 | 52.87221 | 11.92321 | 157° | 11km/h | 28030m | 4.7m/s | -49.5°C | 0% | 17hPa | 2.6V | 03:26:47 | 02:00:05 | 00:00:00 | |
| DL1XH1-15 | 2026-09-05 00:29:47 | 52.87229 | 11.92317 | 132° | 9km/h | 28007m | 5.5m/s | -49.4°C | 3.2% | 17hPa | 2.6V | 03:26:37 | 02:00:01 | 00:00:00 | |
| DL1XH-west | 2026-09-05 00:29:44 | 52.87228 | 11.92319 | 158° | 7km/h | 28012m | 5.5m/s | -49.4°C | 0% | 17hPa | 2.7V | 03:26:47 | 02:00:02 | 00:00:00 | |
| DF8AY | 2026-09-05 00:29:43 | 52.87229 | 11.92317 | 133° | 9km/h | 28007m | 5.5m/s | -49.4°C | 0% | 17hPa | 2.6V | 03:26:47 | 02:00:01 | 00:00:00 | |
| DL4XJ-10 | 2026-09-05 00:29:42 | 52.87231 | 11.92313 | 126° | 15km/h | 28002m | 6.9m/s | -49.8°C | 0% | 0hPa | 2.7V | 00:00:00 | 00:00:00 | 00:00:00 | |
| DF7ER-10 | 2026-09-05 00:29:41 | 52.87231 | 11.92313 | 127° | 15km/h | 28001m | 7.0m/s | -49.4°C | 0.7% | 17.0hPa | 2.7V | 03:26:00 | 00:00:00 | 00:00:00 | |
| DB0DAN | 2026-09-05 00:29:40 | 52.87236 | 11.92300 | 110° | 22km/h | 27988m | 5.5m/s | -49.3°C | 0.7% | 17.05hPa | 2.7V | 00:00:00 | 00:00:00 | 00:00:00 | |
| DL1XH-15 | 2026-09-05 00:29:40 | 52.87237 | 11.92269 | 76° | 26km/h | 27971m | 6.5m/s | -49.1°C | 3.2% | 17.1hPa | 2.6V | 03:26:43 | 01:59:55 | 00:00:00 | |
| DM0DOS-11 | 2026-09-05 00:29:39 | 52.87238 | 11.92280 | 88° | 26km/h | 27978m | 6.5m/s | -49.2°C | 3.2% | 17.1hPa | 2.6V | 03:26:42 | 01:59:56 | 00:00:00 | |
| S3001 | 2026-09-05 00:29:39 | 52.87238 | 11.92280 | 88° | 24km/h | 27978m | 6.5m/s | -49.2°C | 0.7% | 17.1hPa | 2.6V | 00:00:00 | 00:00:00 | 00:00:00 | |
| DO2SHX-10 | 2026-09-05 00:29:38 | 52.87238 | 11.92280 | 89° | 26km/h | 27978m | 6.5m/s | -49.1°C | 3.2% | 17.0hPa | 2.6V | 00:00:00 | 01:59:56 | 00:00:00 | |
| DL1XH1-15 | 2026-09-05 00:29:37 | 52.87234 | 11.92237 | 116° | 13km/h | 27948m | 6.2m/s | -49°C | 3.1% | 17.2hPa | 2.6V | 03:26:47 | 01:59:51 | 00:00:00 | |
| DL1NUX | 2026-09-05 00:29:37 | 52.87236 | 11.92233 | 143° | 13km/h | 27943m | 5.5m/s | -49°C | 3.1% | 17.2hPa | 2.6V | 03:26:48 | 01:59:50 | 00:00:00 | |
| AA1-15 | 2026-09-05 00:29:36 | 52.87235 | 11.92259 | 73° | 24km/h | 27965m | 4.7m/s | -49.1°C | 0% | 17.1hPa | 2.7V | 03:26:47 | 01:59:54 | 00:00:00 | |
| DL1XH-west | 2026-09-05 00:29:34 | 52.87233 | 11.92243 | 92° | 18km/h | 27955m | 6.6m/s | -49°C | 0% | 17.1hPa | 2.6V | 03:26:47 | 01:59:52 | 00:00:00 | |
| DF8AY | 2026-09-05 00:29:32 | 52.87236 | 11.92233 | 144° | 13km/h | 27943m | 5.5m/s | -49°C | 0% | 17.2hPa | 2.6V | 03:27:38 | 01:59:50 | 00:00:00 | |
| DO2SHX-10 | 2026-09-05 00:29:32 | 52.87236 | 11.92233 | 144° | 13km/h | 27943m | 5.5m/s | -48.9°C | 3.1% | 17.2hPa | 2.6V | 00:00:00 | 01:59:50 | 00:00:00 | |
| SP3WXH-11 | 2026-09-05 00:29:30 | 52.87242 | 11.92230 | 182° | 11km/h | 27931m | 6.8m/s | -48.9°C | 0.7% | 17.2hPa | 2.6V | 00:00:00 | 00:00:00 | 00:00:00 | |
| DO2SHX-10 | 2026-09-05 00:29:29 | 52.87244 | 11.92230 | 191° | 7km/h | 27925m | 6.2m/s | -48.8°C | 3.1% | 17.2hPa | 2.6V | 00:00:00 | 01:59:47 | 00:00:00 | |
| DF8AY-15 | 2026-09-05 00:29:28 | 52.87246 | 11.92231 | 182° | 15km/h | 27919m | 5.2m/s | -48.8°C | 3.1% | 17.2hPa | 2.6V | 00:00:00 | 01:59:46 | 00:00:00 | |
| DL1NUX | 2026-09-05 00:29:27 | 52.87259 | 11.92202 | 114° | 18km/h | 27885m | 4.5m/s | -48.7°C | 3.1% | 17.3hPa | 2.6V | 03:26:58 | 01:59:40 | 00:00:00 | |
| DL1XH1-15 | 2026-09-05 00:29:27 | 52.87256 | 11.92209 | 123° | 22km/h | 27890m | 4.6m/s | -48.7°C | 3.1% | 17.3hPa | 2.7V | 03:26:57 | 01:59:41 | 00:00:00 | |
| AA1-15 | 2026-09-05 00:29:26 | 52.87248 | 11.92227 | 129° | 11km/h | 27908m | 5.4m/s | -48.8°C | 0% | 17.3hPa | 2.6V | 03:27:38 | 01:59:44 | 00:00:00 | |
| DB0DAN | 2026-09-05 00:29:25 | 52.87251 | 11.92223 | 129° | 15km/h | 27902m | 7m/s | -48.8°C | 0.7% | 17.31hPa | 2.7V | 00:00:00 | 00:00:00 | 00:00:00 | |
| DL1XH-west | 2026-09-05 00:29:24 | 52.87256 | 11.92209 | 124° | 22km/h | 27890m | 4.6m/s | -48.7°C | 0% | 17.3hPa | 2.7V | 03:27:38 | 01:59:41 | 00:00:00 | |
| DM0DOS-11 | 2026-09-05 00:29:24 | 52.87257 | 11.92184 | 35° | 5km/h | 27862m | 4.8m/s | -48.6°C | 3.1% | 17.4hPa | 2.7V | 03:27:02 | 01:59:36 | 00:00:00 | |
| DF8AY | 2026-09-05 00:29:22 | 52.87259 | 11.92186 | 49° | 9km/h | 27867m | 5.7m/s | -48.7°C | 0% | 17.4hPa | 2.7V | 03:27:38 | 01:59:37 | 00:00:00 | |
| DL4XJ-10 | 2026-09-05 00:29:22 | 52.87258 | 11.92202 | 115° | 15km/h | 27885m | 4.4m/s | -49.1°C | 0% | 0hPa | 2.6V | 00:00:00 | 00:00:00 | 00:00:00 | |
| AM1SDL-15 | 2026-09-05 00:29:21 | 52.87260 | 11.92195 | 100° | 13km/h | 27880m | 5.5m/s | -48.6°C | 3.1% | 17.3hPa | 2.6V | 03:26:00 | 01:59:39 | 00:00:00 | |
| DO2SHX-10 | 2026-09-05 00:29:20 | 52.87260 | 11.92190 | 74° | 9km/h | 27873m | 6.4m/s | -48.6°C | 3.1% | 17.3hPa | 2.6V | 00:00:00 | 01:59:38 | 00:00:00 | |
| DD8BA-10 | 2026-09-05 00:29:19 | 52.87259 | 11.92186 | 49° | 13km/h | 27867m | 5.7m/s | -48.6°C | 3.1% | 17.4hPa | 2.6V | 00:00:00 | 00:00:00 | 00:00:00 | |
| DL1NUX | 2026-09-05 00:29:17 | 52.87273 | 11.92180 | 187° | 20km/h | 27825m | 6.2m/s | -48.5°C | 3.1% | 17.5hPa | 2.6V | 03:27:08 | 01:59:30 | 00:00:00 | |
| DL1XH1-15 | 2026-09-05 00:29:17 | 52.87268 | 11.92179 | 184° | 20km/h | 27832m | 6.2m/s | -48.6°C | 3.1% | 17.5hPa | 2.6V | 03:27:07 | 01:59:31 | 00:00:00 | |
| AA1-15 | 2026-09-05 00:29:15 | 52.87260 | 11.92179 | 173° | 13km/h | 27844m | 6.1m/s | -48.6°C | 0% | 17.4hPa | 2.7V | 03:27:38 | 01:59:33 | 00:00:00 | |
| DJ2DS-15 | 2026-09-05 00:29:15 | 52.87264 | 11.92179 | 179° | 16km/h | 27838m | 5.8m/s | -48.6°C | 0.7% | 17.5hPa | 2.7V | 00:00:00 | 00:00:00 | 00:00:00 | |
| DO2SHX-10 | 2026-09-05 00:29:14 | 52.87264 | 11.92179 | 180° | 18km/h | 27838m | 5.8m/s | -48.6°C | 3.1% | 17.4hPa | 2.7V | 00:00:00 | 01:59:32 | 00:00:00 | |
| DM0DOS-11 | 2026-09-05 00:29:13 | 52.87290 | 11.92174 | 136° | 18km/h | 27801m | 6.3m/s | -48.3°C | 3.1% | 17.6hPa | 2.7V | 03:27:12 | 01:59:26 | 00:00:00 | |
| DL1XH-west | 2026-09-05 00:29:12 | 52.87274 | 11.92180 | 188° | 20km/h | 27825m | 6.2m/s | -48.5°C | 0% | 17.5hPa | 2.6V | 03:27:38 | 01:59:30 | 00:00:00 | |
| DF8AY | 2026-09-05 00:29:11 | 52.87278 | 11.92181 | 183° | 18km/h | 27820m | 5.1m/s | -48.5°C | 0% | 17.5hPa | 2.6V | 03:27:38 | 01:59:29 | 00:00:00 | |
| DB0DAN | 2026-09-05 00:29:10 | 52.87282 | 11.92180 | 171° | 16km/h | 27815m | 5.7m/s | -48.4°C | 0.7% | 17.53hPa | 2.7V | 00:00:00 | 00:00:00 | 00:00:00 | |
| DD8BA-10 | 2026-09-05 00:29:09 | 52.87286 | 11.92178 | 154° | 11km/h | 27808m | 7.2m/s | -48.3°C | 3.0% | 17.5hPa | 2.7V | 03:27:00 | 00:00:00 | 00:00:00 | |
| DL1XH1-15 | 2026-09-05 00:29:08 | 52.87296 | 11.92153 | 294° | 4km/h | 27771m | 6m/s | -48.1°C | 3% | 17.7hPa | 2.7V | 03:27:17 | 01:59:21 | 00:00:00 | |
| S3001 | 2026-09-05 00:29:08 | 52.87293 | 11.92167 | 124° | 18km/h | 27795m | 5.2m/s | -48.3°C | 0.6% | 17.6hPa | 2.7V | 00:00:00 | 00:00:00 | 00:00:00 | |
| DL1NUX | 2026-09-05 00:29:07 | 52.87296 | 11.92155 | 254° | 7km/h | 27765m | 4.8m/s | -48°C | 3% | 17.7hPa | 2.7V | 03:27:18 | 01:59:20 | 00:00:00 | |
| AA1-15 | 2026-09-05 00:29:04 | 52.87296 | 11.92153 | 80° | 4km/h | 27778m | 7.3m/s | -48.1°C | 0% | 17.6hPa | 2.7V | 03:27:38 | 01:59:22 | 00:00:00 | |
| DM0DOS-11 | 2026-09-05 00:29:03 | 52.87310 | 11.92159 | 174° | 29km/h | 27742m | 6m/s | -47.9°C | 2.9% | 17.7hPa | 2.7V | 03:27:22 | 01:59:16 | 00:00:00 | |
| DL1XH-15 | 2026-09-05 00:29:02 | 52.87318 | 11.92158 | 175° | 35km/h | 27736m | 5.7m/s | -47.9°C | 3% | 17.8hPa | 2.7V | 03:27:23 | 01:59:15 | 00:00:00 | |
| DL1XH-west | 2026-09-05 00:29:01 | 52.87297 | 11.92157 | 217° | 9km/h | 27761m | 4.7m/s | -48°C | 0% | 17.7hPa | 2.6V | 03:27:38 | 01:59:19 | 00:00:00 | |
| DF8AY | 2026-09-05 00:29:00 | 52.87299 | 11.92159 | 196° | 15km/h | 27755m | 6.6m/s | -47.9°C | 0% | 17.7hPa | 2.6V | 03:27:38 | 01:59:18 | 00:00:00 | |
| BUE01 | 2026-09-05 00:29:00 | 52.87334 | 11.92157 | 178° | 29km/h | 27724m | 5.8m/s | -47.9°C | 0.6% | 17.8hPa | 2.6V | 00:00:00 | 00:00:00 | 00:00:00 | |
| DO2SHX-10 | 2026-09-05 00:28:59 | 52.87303 | 11.92160 | 182° | 27km/h | 27749m | 6.6m/s | -47.8°C | 3.0% | 17.6hPa | 2.6V | 03:27:00 | 01:59:17 | 00:00:00 | |
| DL4BBY-15 | 2026-09-05 00:28:58 | 52.87310 | 11.92159 | 175° | 22km/h | 27743m | 5.9m/s | -48.3°C | 0% | 0hPa | 2.6V | 00:00:00 | 00:00:00 | 00:00:00 | |
| DL1NUX | 2026-09-05 00:28:57 | 52.87349 | 11.92154 | 150° | 11km/h | 27707m | 6.4m/s | -48°C | 3% | 17.8hPa | 2.6V | 03:27:28 | 01:59:10 | 00:00:00 | |
| EDDB2-11 | 2026-09-05 00:28:57 | 52.87318 | 11.92158 | 175° | 33km/h | 27737m | 5.7m/s | -47.9°C | 0.6% | 17.8hPa | 2.6V | 00:00:00 | 00:00:00 | 00:00:00 | |
| DC4HF-4 | 2026-09-05 00:28:56 | 52.87355 | 11.92144 | 132° | 7km/h | 27689m | 4.4m/s | -47.9°C | 0.6% | 17.9hPa | 2.6V | 00:00:00 | 00:00:00 | 00:00:00 | |
| DB0DAN | 2026-09-05 00:28:55 | 52.87334 | 11.92157 | 179° | 29km/h | 27724m | 5.8m/s | -47.9°C | 0.6% | 17.76hPa | 2.6V | 00:00:00 | 00:00:00 | 00:00:00 | |
| DF8AY | 2026-09-05 00:28:55 | 52.87355 | 11.92144 | 132° | 9km/h | 27689m | 4.4m/s | -47.9°C | 0% | 17.9hPa | 2.7V | 03:27:38 | 01:59:07 | 00:00:00 | |
| AA1-15 | 2026-09-05 00:28:53 | 52.87346 | 11.92156 | 171° | 16km/h | 27713m | 5.8m/s | -48°C | 0% | 17.8hPa | 2.7V | 03:27:38 | 01:59:11 | 00:00:00 | |
| DO2SHX-10 | 2026-09-05 00:28:53 | 52.87346 | 11.92156 | 171° | 13km/h | 27714m | 5.8m/s | -48.0°C | 3.0% | 17.8hPa | 2.7V | 00:00:00 | 01:59:11 | 00:00:00 | |
| DL1XH-15 | 2026-09-05 00:28:52 | 52.87359 | 11.92144 | 213° | 13km/h | 27679m | 6.9m/s | -47.9°C | 2.9% | 17.9hPa | 2.7V | 03:27:33 | 01:59:05 | 00:00:00 | |
| DL1XH-west | 2026-09-05 00:28:51 | 52.87352 | 11.92151 | 133° | 11km/h | 27700m | 7.2m/s | -48°C | 0% | 17.8hPa | 2.6V | 03:27:38 | 01:59:09 | 00:00:00 | |
| HTAHTA | 2026-09-05 00:28:51 | 52.87353 | 11.92148 | 121° | 11km/h | 27694m | 5.2m/s | -47.9°C | 0.7% | 17.9hPa | 2.6V | 00:00:00 | 00:00:00 | 00:00:00 | |
| DO2SHX-10 | 2026-09-05 00:28:50 | 52.87353 | 11.92148 | 122° | 9km/h | 27694m | 5.1m/s | -47.9°C | 3.0% | 17.8hPa | 2.6V | 00:00:00 | 01:59:08 | 00:00:00 | |
| DD8BA-10 | 2026-09-05 00:28:49 | 52.87355 | 11.92144 | 133° | 27km/h | 27689m | 4.4m/s | -47.9°C | 3.0% | 17.8hPa | 2.7V | 00:00:00 | 00:00:00 | 00:00:00 | |
| DL1XH1-15 | 2026-09-05 00:28:48 | 52.87382 | 11.92174 | 203° | 42km/h | 27655m | 5m/s | -47.8°C | 3% | 18hPa | 2.7V | 03:27:37 | 01:59:01 | 00:00:00 | |
| DL1ZP-14 | 2026-09-05 00:28:46 | 52.87362 | 11.92149 | 226° | 20km/h | 27672m | 7.1m/s | -47.9°C | 0.6% | 17.9hPa | 2.6V | 00:00:00 | 00:00:00 | 00:00:00 | |
| AA1-15 | 2026-09-05 00:28:43 | 52.87382 | 11.92174 | 203° | 42km/h | 27655m | 5m/s | -47.8°C | 0% | 18hPa | 2.7V | 03:27:38 | 01:59:01 | 00:00:00 | |
| DL1XH-15 | 2026-09-05 00:28:42 | 52.87429 | 11.92161 | 133° | 16km/h | 27621m | 7m/s | -47.6°C | 2.9% | 18.1hPa | 2.7V | 03:27:43 | 01:58:55 | 00:00:00 | |
| GOEST3-10 | 2026-09-05 00:28:42 | 52.87392 | 11.92179 | 193° | 35km/h | 27650m | 6.6m/s | -47.7°C | 2.9% | 17.9hPa | 2.7V | 00:00:00 | 00:00:00 | 00:00:00 | |
| DK7RCA | 2026-09-05 00:28:41 | 52.87392 | 11.92179 | 193° | 42km/h | 27650m | 6.6m/s | -47.7°C | 0.7% | 18.0hPa | 2.6V | 03:27:00 | 00:00:00 | 00:00:00 | |
| DB0DAN | 2026-09-05 00:28:40 | 52.87411 | 11.92178 | 163° | 35km/h | 27637m | 5m/s | -47.7°C | 0.6% | 17.99hPa | 2.6V | 00:00:00 | 00:00:00 | 00:00:00 | |
| DL1XH-west | 2026-09-05 00:28:40 | 52.87411 | 11.92178 | 163° | 37km/h | 27637m | 5m/s | -47.7°C | 0% | 18hPa | 2.6V | 03:28:29 | 01:58:58 | 00:00:00 | |
| DF8AY | 2026-09-05 00:28:37 | 52.87429 | 11.92161 | 134° | 16km/h | 27621m | 7m/s | -47.6°C | 0% | 18.1hPa | 2.7V | 03:29:20 | 01:58:55 | 00:00:00 | |
| GOEST3-10 | 2026-09-05 00:28:37 | 52.87429 | 11.92161 | 134° | 7km/h | 27621m | 7.0m/s | -47.5°C | 2.9% | 18.0hPa | 2.7V | 00:00:00 | 01:58:55 | 00:00:00 | |
| DF7ER-10 | 2026-09-05 00:28:36 | 52.87429 | 11.92161 | 134° | 16km/h | 27621m | 7.0m/s | -47.6°C | 0.6% | 18.1hPa | 2.7V | 03:28:00 | 00:00:00 | 00:00:00 | |
| DO2SHX-10 | 2026-09-05 00:28:35 | 52.87432 | 11.92156 | 174° | 4km/h | 27608m | 6.0m/s | -47.5°C | 2.9% | 18.0hPa | 2.7V | 03:27:00 | 01:58:53 | 00:00:00 | |
| DL1XH1-15 | 2026-09-05 00:28:34 | 52.87433 | 11.92159 | 223° | 5km/h | 27597m | 5.9m/s | -47.5°C | 2.8% | 18.1hPa | 2.7V | 03:27:47 | 01:58:51 | 00:00:00 | |
| SMARD9-10 | 2026-09-05 00:28:34 | 52.87432 | 11.92157 | 257° | 5km/h | 27603m | 4.8m/s | -47.5°C | 0.6% | 18.1hPa | 2.7V | 03:28:00 | 00:00:00 | 00:00:00 | |
| AM1SDL-15 | 2026-09-05 00:28:33 | 52.87433 | 11.92159 | 224° | 18km/h | 27598m | 5.9m/s | -47.5°C | 2.8% | 18.1hPa | 2.7V | 03:27:00 | 01:58:51 | 00:00:00 | |
| DL1XH-15 | 2026-09-05 00:28:32 | 52.87463 | 11.92150 | 166° | 26km/h | 27561m | 6.3m/s | -47.7°C | 2.9% | 18.2hPa | 2.7V | 03:27:53 | 01:58:45 | 00:00:00 | |
| AA1-15 | 2026-09-05 00:28:32 | 52.87435 | 11.92160 | 191° | 11km/h | 27591m | 6.4m/s | -47.5°C | 0% | 18.1hPa | 2.7V | 03:28:29 | 01:58:50 | 00:00:00 | |
| DL1XH-west | 2026-09-05 00:28:30 | 52.87443 | 11.92159 | 168° | 24km/h | 27579m | 6m/s | -47.5°C | 0% | 18.2hPa | 2.6V | 03:28:29 | 01:58:48 | 00:00:00 | |
| DO2SHX-10 | 2026-09-05 00:28:29 | 52.87449 | 11.92156 | 165° | 27km/h | 27573m | 5.4m/s | -47.5°C | 2.9% | 18.2hPa | 2.7V | 00:00:00 | 01:58:47 | 00:00:00 | |
| DF8AY-15 | 2026-09-05 00:28:28 | 52.87456 | 11.92153 | 164° | 11km/h | 27567m | 5.8m/s | -47.6°C | 2.9% | 18.1hPa | 2.7V | 00:00:00 | 01:58:46 | 00:00:00 | |
| DL1NUX | 2026-09-05 00:28:27 | 52.87483 | 11.92145 | 121° | 7km/h | 27532m | 7.2m/s | -47.8°C | 2.9% | 18.3hPa | 2.7V | 03:27:58 | 01:58:40 | 00:00:00 | |
| DF8AY | 2026-09-05 00:28:26 | 52.87469 | 11.92148 | 173° | 24km/h | 27555m | 6.8m/s | -47.7°C | 0% | 18.2hPa | 2.7V | 03:29:20 | 01:58:44 | 00:00:00 | |
| DB0DAN | 2026-09-05 00:28:25 | 52.87474 | 11.92147 | 179° | 18km/h | 27548m | 6.1m/s | -47.8°C | 0.6% | 18.27hPa | 2.6V | 00:00:00 | 00:00:00 | 00:00:00 | |
| DL1XH1-15 | 2026-09-05 00:28:24 | 52.87482 | 11.92147 | 162° | 9km/h | 27538m | 5.4m/s | -47.8°C | 2.9% | 18.3hPa | 2.6V | 03:27:57 | 01:58:41 | 00:00:00 | |
| AA1-15 | 2026-09-05 00:28:22 | 52.87483 | 11.92145 | 121° | 7km/h | 27532m | 7.2m/s | -47.8°C | 0% | 18.3hPa | 2.7V | 03:28:29 | 01:58:40 | 00:00:00 | |
| DL1XH-west | 2026-09-05 00:28:19 | 52.87483 | 11.92131 | 74° | 11km/h | 27511m | 5.5m/s | -47.8°C | 0% | 18.4hPa | 2.6V | 03:28:29 | 01:58:37 | 00:00:00 | |
| DM0DOS-11 | 2026-09-05 00:28:19 | 52.87482 | 11.92127 | 69° | 9km/h | 27505m | 6.7m/s | -47.8°C | 3% | 18.4hPa | 2.6V | 03:28:02 | 01:58:36 | 00:00:00 | |
| DD8BA-10 | 2026-09-05 00:28:19 | 52.87482 | 11.92131 | 74° | 7km/h | 27512m | 5.4m/s | -47.7°C | 2.9% | 18.3hPa | 2.6V | 00:00:00 | 00:00:00 | 00:00:00 | |
| DL1XH1-15 | 2026-09-05 00:28:18 | 52.87486 | 11.92125 | 160° | 9km/h | 27474m | 6.8m/s | -47.7°C | 2.9% | 18.5hPa | 2.6V | 03:28:07 | 01:58:31 | 00:00:00 | |
| BIOWL1-15 | 2026-09-05 00:28:17 | 52.87484 | 11.92126 | 185° | 7km/h | 27481m | 6.4m/s | -47.7°C | 0% | 18.5hPa | 2.6V | 03:30:11 | 01:58:32 | 00:00:00 | |
| DF8AY | 2026-09-05 00:28:16 | 52.87481 | 11.92125 | 193° | 2km/h | 27493m | 5.9m/s | -47.8°C | 0% | 18.4hPa | 2.7V | 03:29:20 | 01:58:34 | 00:00:00 | |
| SO1NDE-10 | 2026-09-05 00:28:16 | 52.87481 | 11.92125 | 194° | 9km/h | 27493m | 5.9m/s | -47.7°C | 2.9% | 18.4hPa | 2.7V | 00:00:00 | 01:58:34 | 00:00:00 | |
| DL1ZP-14 | 2026-09-05 00:28:15 | 52.87482 | 11.92125 | 209° | 4km/h | 27487m | 5.3m/s | -47.8°C | 0.6% | 18.4hPa | 2.7V | 00:00:00 | 00:00:00 | 00:00:00 | |
| DO2SHX-10 | 2026-09-05 00:28:14 | 52.87484 | 11.92126 | 186° | 9km/h | 27481m | 6.4m/s | -47.7°C | 2.9% | 18.4hPa | 2.6V | 00:00:00 | 01:58:32 | 00:00:00 | |
| DM0DOS-11 | 2026-09-05 00:28:13 | 52.87491 | 11.92118 | 6° | 4km/h | 27444m | 5.3m/s | -47.8°C | 2.9% | 18.5hPa | 2.6V | 03:28:12 | 01:58:26 | 00:00:00 | |
| AA1-15 | 2026-09-05 00:28:12 | 52.87488 | 11.92123 | 147° | 9km/h | 27468m | 6m/s | -47.7°C | 0% | 18.5hPa | 2.7V | 03:28:29 | 01:58:30 | 00:00:00 | |
| GOEST3-10 | 2026-09-05 00:28:12 | 52.87488 | 11.92123 | 147° | 5km/h | 27469m | 5.9m/s | -47.7°C | 2.9% | 18.4hPa | 2.7V | 03:28:00 | 00:00:00 | 00:00:00 | |
| DK9SH | 2026-09-05 00:28:11 | 52.87488 | 11.92123 | 148° | 9km/h | 27469m | 6.0m/s | -47.7°C | 0.6% | 18.5hPa | 2.6V | 03:28:00 | 00:00:00 | 00:00:00 | |
| DB0DAN | 2026-09-05 00:28:10 | 52.87491 | 11.92119 | 129° | 4km/h | 27456m | 6.5m/s | -47.7°C | 0.6% | 18.52hPa | 2.6V | 00:00:00 | 00:00:00 | 00:00:00 | |
| DL1XH-west | 2026-09-05 00:28:09 | 52.87491 | 11.92118 | 82° | 2km/h | 27450m | 6.8m/s | -47.8°C | 0% | 18.6hPa | 2.6V | 03:28:29 | 01:58:27 | 00:00:00 | |
| DD8BA-10 | 2026-09-05 00:28:09 | 52.87491 | 11.92118 | 83° | 7km/h | 27450m | 6.8m/s | -47.7°C | 2.9% | 18.5hPa | 2.6V | 00:00:00 | 00:00:00 | 00:00:00 | |
| DL1XH-15 | 2026-09-05 00:28:08 | 52.87490 | 11.92118 | 31° | 4km/h | 27438m | 5.1m/s | -47.8°C | 2.9% | 18.6hPa | 2.7V | 03:28:13 | 01:58:25 | 00:00:00 | |
| DO2SHX-10 | 2026-09-05 00:28:08 | 52.87491 | 11.92118 | 7° | 4km/h | 27444m | 5.2m/s | -47.7°C | 2.9% | 18.5hPa | 2.6V | 00:00:00 | 01:58:26 | 00:00:00 | |
| DL1NUX | 2026-09-05 00:28:07 | 52.87493 | 11.92105 | 167° | 11km/h | 27409m | 6.9m/s | -47.9°C | 2.9% | 18.6hPa | 2.6V | 03:28:18 | 01:58:20 | 00:00:00 | |
| DF8AY | 2026-09-05 00:28:05 | 52.87489 | 11.92113 | 87° | 9km/h | 27426m | 6.7m/s | -47.8°C | 0% | 18.6hPa | 2.7V | 03:29:20 | 01:58:23 | 00:00:00 | |
| DO2SHX-10 | 2026-09-05 00:28:05 | 52.87489 | 11.92113 | 87° | 9km/h | 27427m | 6.6m/s | -47.8°C | 2.9% | 18.6hPa | 2.7V | 00:00:00 | 01:58:23 | 00:00:00 | |
| DJ2DS-15 | 2026-09-05 00:28:03 | 52.87493 | 11.92105 | 167° | 9km/h | 27409m | 6.9m/s | -47.9°C | 0.6% | 18.6hPa | 2.6V | 00:00:00 | 00:00:00 | 00:00:00 | |
| DL1XH-15 | 2026-09-05 00:28:02 | 52.87510 | 11.92108 | 172° | 18km/h | 27379m | 6.4m/s | -47.9°C | 2.9% | 18.7hPa | 2.6V | 03:28:23 | 01:58:15 | 00:00:00 | |
| DO2SHX-10 | 2026-09-05 00:28:02 | 52.87493 | 11.92105 | 168° | 13km/h | 27409m | 6.9m/s | -47.8°C | 2.9% | 18.5hPa | 2.6V | 00:00:00 | 01:58:20 | 00:00:00 | |
| DM0DOS-11 | 2026-09-05 00:28:01 | 52.87506 | 11.92108 | 182° | 16km/h | 27385m | 5.5m/s | -47.9°C | 2.9% | 18.7hPa | 2.6V | 03:28:22 | 01:58:16 | 00:00:00 | |
| AA1-15 | 2026-09-05 00:28:01 | 52.87496 | 11.92105 | 186° | 11km/h | 27402m | 7.1m/s | -47.9°C | 0% | 18.6hPa | 2.7V | 03:28:29 | 01:58:19 | 00:00:00 | |
| DL1XH-west | 2026-09-05 00:27:58 | 52.87506 | 11.92108 | 183° | 16km/h | 27385m | 5.5m/s | -47.9°C | 0% | 18.7hPa | 2.6V | 03:28:29 | 01:58:16 | 00:00:00 | |
| DB0NH | 2026-09-05 00:27:58 | 52.87506 | 11.92108 | 183° | 11km/h | 27386m | 5.4m/s | -47.8°C | 2.9% | 18.6hPa | 2.6V | 00:00:00 | 01:58:16 | 00:00:00 | |
| DL1NUX | 2026-09-05 00:27:57 | 52.87529 | 11.92096 | 159° | 7km/h | 27348m | 5.2m/s | -47.9°C | 2.9% | 18.8hPa | 2.6V | 03:28:28 | 01:58:10 | 00:00:00 | |
| BIOWL1-15 | 2026-09-05 00:27:56 | 52.87515 | 11.92106 | 159° | 18km/h | 27373m | 5.9m/s | -47.9°C | 0% | 18.7hPa | 2.6V | 03:30:11 | 01:58:14 | 00:00:00 | |
| DF8AY | 2026-09-05 00:27:55 | 52.87519 | 11.92103 | 155° | 18km/h | 27367m | 5.6m/s | -47.9°C | 0% | 18.7hPa | 2.7V | 03:29:20 | 01:58:13 | 00:00:00 | |
| DB0DAN | 2026-09-05 00:27:55 | 52.87519 | 11.92103 | 155° | 18km/h | 27367m | 5.6m/s | -47.9°C | 0.6% | 18.74hPa | 2.7V | 00:00:00 | 00:00:00 | 00:00:00 | |
| EDDB2-11 | 2026-09-05 00:27:55 | 52.87519 | 11.92103 | 154° | 18km/h | 27367m | 5.6m/s | -47.9°C | 0.6% | 18.7hPa | 2.7V | 00:00:00 | 00:00:00 | 00:00:00 | |
| SP3BTT-10 | 2026-09-05 00:27:54 | 52.87523 | 11.92099 | 155° | 11km/h | 27362m | 6.2m/s | -47.8°C | 2.9% | 18.7hPa | 2.7V | 00:00:00 | 00:00:00 | 00:00:00 | |
| DO2SHX-10 | 2026-09-05 00:27:53 | 52.87526 | 11.92097 | 160° | 7km/h | 27355m | 6.4m/s | -47.8°C | 2.9% | 18.7hPa | 2.7V | 00:00:00 | 01:58:11 | 00:00:00 | |
| GOEST3-10 | 2026-09-05 00:27:52 | 52.87529 | 11.92096 | 160° | 7km/h | 27348m | 5.1m/s | -47.8°C | 2.9% | 18.8hPa | 2.7V | 03:28:00 | 00:00:00 | 00:00:00 | |
| DM0DOS-11 | 2026-09-05 00:27:51 | 52.87529 | 11.92087 | 77° | 11km/h | 27325m | 5.8m/s | -47.9°C | 2.9% | 18.9hPa | 2.7V | 03:28:32 | 01:58:06 | 00:00:00 | |
| AA1-15 | 2026-09-05 00:27:50 | 52.87530 | 11.92094 | 83° | 5km/h | 27338m | 6.2m/s | -47.9°C | 0% | 18.9hPa | 2.7V | 03:29:20 | 01:58:08 | 00:00:00 | |
| DO2SHX-10 | 2026-09-05 00:27:50 | 52.87530 | 11.92093 | 83° | 9km/h | 27338m | 6.2m/s | -47.8°C | 2.9% | 18.8hPa | 2.6V | 00:00:00 | 01:58:08 | 00:00:00 | |
| DD8BA-10 | 2026-09-05 00:27:49 | 52.87529 | 11.92091 | 68° | 9km/h | 27331m | 6.9m/s | -47.8°C | 2.9% | 18.8hPa | 2.6V | 03:28:00 | 00:00:00 | 00:00:00 | |
| DL1XH-15 | 2026-09-05 00:27:48 | 52.87528 | 11.92083 | 81° | 9km/h | 27320m | 5.3m/s | -47.9°C | 2.9% | 18.9hPa | 2.6V | 03:28:33 | 01:58:05 | 00:00:00 | |
| DL1XH-west | 2026-09-05 00:27:47 | 52.87528 | 11.92083 | 81° | 9km/h | 27320m | 5.3m/s | -47.9°C | 0% | 18.9hPa | 2.6V | 03:29:20 | 01:58:05 | 00:00:00 | |
| DF8AY | 2026-09-05 00:27:45 | 52.87529 | 11.92079 | 158° | 2km/h | 27307m | 7.1m/s | -48°C | 0% | 18.9hPa | 2.6V | 03:29:20 | 01:58:03 | 00:00:00 | |
| AM1SDL-15 | 2026-09-05 00:27:45 | 52.87529 | 11.92079 | 158° | 9km/h | 27307m | 7.0m/s | -47.9°C | 2.9% | 18.9hPa | 2.6V | 03:28:00 | 01:58:03 | 00:00:00 | |
| DL1XH1-15 | 2026-09-05 00:27:44 | 52.87532 | 11.92080 | 198° | 9km/h | 27295m | 5.4m/s | -48°C | 2.9% | 19hPa | 2.7V | 03:28:37 | 01:58:01 | 00:00:00 | |
| DO2SHX-10 | 2026-09-05 00:27:44 | 52.87530 | 11.92079 | 203° | 9km/h | 27301m | 6.0m/s | -47.9°C | 2.9% | 18.9hPa | 2.7V | 00:00:00 | 01:58:02 | 00:00:00 | |
| DL1XH-15 | 2026-09-05 00:27:42 | 52.87545 | 11.92065 | 101° | 9km/h | 27259m | 6.1m/s | -48.3°C | 3% | 19.1hPa | 2.7V | 03:28:43 | 01:57:55 | 00:00:00 | |
| GOEST3-10 | 2026-09-05 00:27:42 | 52.87534 | 11.92081 | 182° | 13km/h | 27289m | 5.8m/s | -48.0°C | 2.9% | 18.9hPa | 2.7V | 00:00:00 | 00:00:00 | 00:00:00 | |
| DM0DOS-11 | 2026-09-05 00:27:41 | 52.87543 | 11.92069 | 115° | 11km/h | 27266m | 5.8m/s | -48.2°C | 2.9% | 19.1hPa | 2.7V | 03:28:42 | 01:57:56 | 00:00:00 | |
| DB0DAN | 2026-09-05 00:27:40 | 52.87540 | 11.92078 | 139° | 13km/h | 27277m | 5.4m/s | -48.2°C | 0.6% | 19.01hPa | 2.6V | 00:00:00 | 00:00:00 | 00:00:00 | |
| AA1-15 | 2026-09-05 00:27:39 | 52.87542 | 11.92074 | 125° | 13km/h | 27271m | 4.8m/s | -48.2°C | 0% | 19.1hPa | 2.6V | 03:29:20 | 01:57:57 | 00:00:00 | |
| DD8BA-10 | 2026-09-05 00:27:39 | 52.87542 | 11.92073 | 126° | 13km/h | 27272m | 4.7m/s | -48.2°C | 2.9% | 19.0hPa | 2.6V | 00:00:00 | 00:00:00 | 00:00:00 | |
| DL1XH1-15 | 2026-09-05 00:27:38 | 52.87540 | 11.92050 | 62° | 15km/h | 27236m | 6.9m/s | -48.4°C | 3% | 19.1hPa | 2.7V | 03:28:47 | 01:57:51 | 00:00:00 | |
| DL1XH-west | 2026-09-05 00:27:37 | 52.87544 | 11.92065 | 102° | 9km/h | 27260m | 6.1m/s | -48.3°C | 0% | 19.1hPa | 2.7V | 03:29:20 | 01:57:55 | 00:00:00 | |
| BIOWL1-15 | 2026-09-05 00:27:35 | 52.87543 | 11.92059 | 59° | 9km/h | 27248m | 5.3m/s | -48.3°C | 0% | 19.1hPa | 2.6V | 03:30:11 | 01:57:53 | 00:00:00 | |
| DF8AY | 2026-09-05 00:27:34 | 52.87542 | 11.92055 | 59° | 13km/h | 27242m | 6m/s | -48.3°C | 0% | 19.1hPa | 2.7V | 03:29:20 | 01:57:52 | 00:00:00 | |
| AM1SDL-15 | 2026-09-05 00:27:33 | 52.87540 | 11.92049 | 63° | 11km/h | 27236m | 6.8m/s | -48.3°C | 3.0% | 19.1hPa | 2.7V | 00:00:00 | 01:57:51 | 00:00:00 | |
| DO2SHX-10 | 2026-09-05 00:27:32 | 52.87538 | 11.92043 | 63° | 15km/h | 27230m | 5.4m/s | -48.3°C | 3.0% | 19.1hPa | 2.7V | 00:00:00 | 01:57:50 | 00:00:00 | |
| SONCRA | 2026-09-05 00:27:30 | 52.87534 | 11.92033 | 47° | 9km/h | 27219m | 5.4m/s | -48.3°C | 0.7% | 19.2hPa | 2.7V | 00:00:00 | 00:00:00 | 00:00:00 | |
| DL1XH-15 | 2026-09-05 00:27:29 | 52.87530 | 11.92029 | 31° | 5km/h | 27203m | 4.7m/s | -48.4°C | 2.9% | 19.2hPa | 2.7V | 03:28:53 | 01:57:45 | 00:00:00 | |
| AA1-15 | 2026-09-05 00:27:29 | 52.87533 | 11.92031 | 34° | 5km/h | 27213m | 6.5m/s | -48.3°C | 0% | 19.2hPa | 2.7V | 03:29:20 | 01:57:47 | 00:00:00 | |
| SMARD9-15 | 2026-09-05 00:27:29 | 52.87531 | 11.92030 | 12° | 5km/h | 27208m | 5.2m/s | -48.3°C | 0.7% | 19.2hPa | 2.7V | 00:00:00 | 00:00:00 | 00:00:00 | |
| DB0NH | 2026-09-05 00:27:28 | 52.87531 | 11.92030 | 13° | 9km/h | 27209m | 5.2m/s | -48.3°C | 3.0% | 19.1hPa | 2.7V | 00:00:00 | 01:57:46 | 00:00:00 | |
| DL1NUX | 2026-09-05 00:27:27 | 52.87527 | 11.92011 | 80° | 11km/h | 27174m | 7.2m/s | -48.4°C | 3% | 19.3hPa | 2.7V | 03:28:58 | 01:57:40 | 00:00:00 | |
| DL1XH-west | 2026-09-05 00:27:26 | 52.87529 | 11.92028 | 53° | 5km/h | 27198m | 6.5m/s | -48.4°C | 0% | 19.2hPa | 2.6V | 03:29:20 | 01:57:44 | 00:00:00 | |
| DB0DAN | 2026-09-05 00:27:25 | 52.87528 | 11.92025 | 76° | 9km/h | 27191m | 6.2m/s | -48.4°C | 0.6% | 19.25hPa | 2.6V | 00:00:00 | 00:00:00 | 00:00:00 | |
| DF8AY | 2026-09-05 00:27:23 | 52.87527 | 11.92015 | 82° | 11km/h | 27180m | 5.7m/s | -48.4°C | 0% | 19.3hPa | 2.7V | 03:29:20 | 01:57:41 | 00:00:00 | |
| DO2SHX-10 | 2026-09-05 00:27:23 | 52.87527 | 11.92015 | 82° | 11km/h | 27181m | 5.6m/s | -48.4°C | 3.0% | 19.3hPa | 2.6V | 03:28:00 | 01:57:41 | 00:00:00 | |
| GOEST3-10 | 2026-09-05 00:27:22 | 52.87527 | 11.92011 | 81° | 11km/h | 27174m | 7.1m/s | -48.4°C | 3.0% | 19.2hPa | 2.6V | 00:00:00 | 00:00:00 | 00:00:00 | |
| DM0DOS-11 | 2026-09-05 00:27:21 | 52.87523 | 11.91993 | 67° | 16km/h | 27151m | 6.8m/s | -48.5°C | 3% | 19.4hPa | 2.6V | 03:29:02 | 01:57:36 | 00:00:00 | |
| AA1-15 | 2026-09-05 00:27:18 | 52.87523 | 11.91993 | 68° | 16km/h | 27151m | 6.9m/s | -48.5°C | 0% | 19.4hPa | 2.6V | 03:29:20 | 01:57:36 | 00:00:00 | |
| DK7RCA | 2026-09-05 00:27:18 | 52.87523 | 11.91993 | 69° | 16km/h | 27151m | 6.9m/s | -48.5°C | 0% | 0hPa | 2.7V | 00:00:00 | 00:00:00 | 00:00:00 | |
| DL1NUX | 2026-09-05 00:27:17 | 52.87511 | 11.91965 | 26° | 7km/h | 27116m | 5.2m/s | -48.6°C | 3% | 19.5hPa | 2.7V | 03:29:08 | 01:57:30 | 00:00:00 | |
| DL1XH-west | 2026-09-05 00:27:16 | 52.87519 | 11.91979 | 59° | 20km/h | 27140m | 5m/s | -48.5°C | 0% | 19.4hPa | 2.7V | 03:29:20 | 01:57:34 | 00:00:00 | |
| DF8AY | 2026-09-05 00:27:13 | 52.87511 | 11.91965 | 27° | 7km/h | 27116m | 5.2m/s | -48.6°C | 0% | 19.5hPa | 2.7V | 03:29:20 | 01:57:30 | 00:00:00 | |
| DL1ZP-14 | 2026-09-05 00:27:13 | 52.87513 | 11.91966 | 31° | 7km/h | 27122m | 5.8m/s | -48.6°C | 0.7% | 19.5hPa | 2.7V | 00:00:00 | 00:00:00 | 00:00:00 | |
| GOEST3-10 | 2026-09-05 00:27:12 | 52.87511 | 11.91965 | 27° | 9km/h | 27117m | 5.1m/s | -48.5°C | 3.0% | 19.4hPa | 2.7V | 03:29:00 | 00:00:00 | 00:00:00 | |
| DM0DOS-11 | 2026-09-05 00:27:11 | 52.87506 | 11.91950 | 67° | 11km/h | 27094m | 4.5m/s | -48.7°C | 3% | 19.6hPa | 2.7V | 03:29:12 | 01:57:26 | 00:00:00 | |
| DB0DAN | 2026-09-05 00:27:10 | 52.87508 | 11.91959 | 63° | 11km/h | 27104m | 6.4m/s | -48.7°C | 0.7% | 19.53hPa | 2.6V | 00:00:00 | 00:00:00 | 00:00:00 | |
| BIOWL1-15 | 2026-09-05 00:27:09 | 52.87505 | 11.91946 | 67° | 9km/h | 27088m | 6.2m/s | -48.8°C | 0% | 19.6hPa | 2.7V | 03:30:11 | 01:57:25 | 00:00:00 | |
| AA1-15 | 2026-09-05 00:27:08 | 52.87506 | 11.91950 | 68° | 11km/h | 27094m | 4.5m/s | -48.7°C | 0% | 19.6hPa | 2.7V | 03:29:20 | 01:57:26 | 00:00:00 | |
| DC4HF-4 | 2026-09-05 00:27:08 | 52.87505 | 11.91946 | 66° | 7km/h | 27088m | 6.2m/s | -48.8°C | 0.7% | 19.6hPa | 2.7V | 00:00:00 | 00:00:00 | 00:00:00 | |
| DL1NUX | 2026-09-05 00:27:07 | 52.87501 | 11.91935 | 66° | 9km/h | 27059m | 5.9m/s | -48.8°C | 3.1% | 19.7hPa | 2.7V | 03:29:18 | 01:57:20 | 00:00:00 | |
| DL1XH-west | 2026-09-05 00:27:05 | 52.87503 | 11.91942 | 22° | 5km/h | 27076m | 5.2m/s | -48.8°C | 0% | 19.6hPa | 2.6V | 03:29:20 | 01:57:23 | 00:00:00 | |
| DF8AY | 2026-09-05 00:27:03 | 52.87500 | 11.91932 | 79° | 7km/h | 27053m | 5.3m/s | -48.8°C | 0% | 19.7hPa | 2.7V | 03:29:20 | 01:57:19 | 00:00:00 | |
| DO2SHX-10 | 2026-09-05 00:27:02 | 52.87501 | 11.91935 | 67° | 7km/h | 27059m | 5.9m/s | -48.8°C | 3.1% | 19.6hPa | 2.7V | 00:00:00 | 01:57:20 | 00:00:00 | |
| DM0DOS-11 | 2026-09-05 00:27:01 | 52.87501 | 11.91929 | 209° | 5km/h | 27036m | 5.3m/s | -48.8°C | 3.1% | 19.7hPa | 2.6V | 03:29:22 | 01:57:16 | 00:00:00 | |
| AA1-15 | 2026-09-05 00:26:57 | 52.87503 | 11.91930 | 200° | 7km/h | 27031m | 4.3m/s | -48.8°C | 0% | 19.8hPa | 2.6V | 03:30:11 | 01:57:15 | 00:00:00 | |
| DL1XH1-15 | 2026-09-05 00:26:57 | 52.87510 | 11.91920 | 120° | 18km/h | 27008m | 5.8m/s | -48.7°C | 3% | 19.8hPa | 2.6V | 03:29:27 | 01:57:11 | 00:00:00 | |
| GOEST3-10 | 2026-09-05 00:26:57 | 52.87503 | 11.91930 | 201° | 11km/h | 27031m | 4.2m/s | -48.7°C | 3.1% | 19.7hPa | 2.6V | 00:00:00 | 01:57:15 | 00:00:00 | |
| TFSTFS | 2026-09-05 00:26:56 | 52.87503 | 11.91930 | 201° | 7km/h | 27031m | 4.3m/s | -48.8°C | 0.7% | 19.7hPa | 2.7V | 03:30:00 | 00:00:00 | 00:00:00 | |
| DB0DAN | 2026-09-05 00:26:55 | 52.87506 | 11.91930 | 150° | 9km/h | 27021m | 6m/s | -48.8°C | 0.7% | 19.77hPa | 2.7V | 00:00:00 | 00:00:00 | 00:00:00 | |
| DL1XH-west | 2026-09-05 00:26:54 | 52.87508 | 11.91926 | 125° | 15km/h | 27015m | 6.4m/s | -48.7°C | 0% | 19.8hPa | 2.6V | 03:30:11 | 01:57:12 | 00:00:00 | |
| DF8AY | 2026-09-05 00:26:51 | 52.87515 | 11.91908 | 126° | 16km/h | 26997m | 6.1m/s | -48.7°C | 0% | 19.8hPa | 2.7V | 03:30:11 | 01:57:09 | 00:00:00 | |
| DM0DOS-11 | 2026-09-05 00:26:51 | 52.87522 | 11.91899 | 166° | 5km/h | 26981m | 4.2m/s | -48.8°C | 3% | 19.9hPa | 2.6V | 03:29:32 | 01:57:06 | 00:00:00 | |
| DO2SHX-10 | 2026-09-05 00:26:50 | 52.87518 | 11.91903 | 142° | 11km/h | 26992m | 6.4m/s | -48.7°C | 3.0% | 19.8hPa | 2.6V | 00:00:00 | 01:57:08 | 00:00:00 | |
| DO3MHA-11 | 2026-09-05 00:26:49 | 52.87520 | 11.91900 | 156° | 5km/h | 26986m | 5.1m/s | -48.7°C | 3.1% | 19.8hPa | 2.6V | 00:00:00 | 01:57:07 | 00:00:00 | |
| DF8AY-15 | 2026-09-05 00:26:48 | 52.87522 | 11.91899 | 167° | 9km/h | 26981m | 4.2m/s | -48.7°C | 3.0% | 19.9hPa | 2.6V | 00:00:00 | 01:57:06 | 00:00:00 | |
| DL1XH1-15 | 2026-09-05 00:26:47 | 52.87521 | 11.91895 | 335° | 5km/h | 26953m | 6.2m/s | -48.9°C | 3.1% | 20hPa | 2.6V | 03:29:37 | 01:57:01 | 00:00:00 | |
| AA1-15 | 2026-09-05 00:26:47 | 52.87523 | 11.91898 | 153° | 4km/h | 26975m | 6m/s | -48.8°C | 0% | 19.9hPa | 2.7V | 03:30:11 | 01:57:05 | 00:00:00 | |
| DL1XH-west | 2026-09-05 00:26:44 | 52.87522 | 11.91895 | 17° | 4km/h | 26958m | 5m/s | -48.8°C | 0% | 20hPa | 2.6V | 03:30:11 | 01:57:02 | 00:00:00 | |
| DO2SHX-10 | 2026-09-05 00:26:44 | 52.87522 | 11.91895 | 17° | 4km/h | 26959m | 5.0m/s | -48.8°C | 3.0% | 19.9hPa | 2.6V | 00:00:00 | 01:57:02 | 00:00:00 | |
| DM0DOS-11 | 2026-09-05 00:26:43 | 52.87521 | 11.91886 | 103° | 16km/h | 26923m | 6m/s | -49°C | 3.1% | 20.1hPa | 2.6V | 03:29:42 | 01:56:56 | 00:00:00 | |
| DF8AY | 2026-09-05 00:26:41 | 52.87520 | 11.91897 | 51° | 2km/h | 26941m | 5.2m/s | -49°C | 0% | 20hPa | 2.7V | 03:30:11 | 01:56:59 | 00:00:00 | |
| DB0DAN | 2026-09-05 00:26:40 | 52.87520 | 11.91896 | 106° | 5km/h | 26935m | 5.3m/s | -49°C | 0.7% | 20.01hPa | 2.7V | 00:00:00 | 00:00:00 | 00:00:00 | |
| DD8BA-10 | 2026-09-05 00:26:39 | 52.87520 | 11.91892 | 106° | 15km/h | 26930m | 6.6m/s | -49.0°C | 3.1% | 20.0hPa | 2.7V | 00:00:00 | 00:00:00 | 00:00:00 | |
| DO2SHX-10 | 2026-09-05 00:26:38 | 52.87521 | 11.91886 | 104° | 18km/h | 26924m | 6.0m/s | -49.0°C | 3.1% | 20.0hPa | 2.6V | 00:00:00 | 01:56:56 | 00:00:00 | |
| DL1NUX | 2026-09-05 00:26:37 | 52.87531 | 11.91853 | 115° | 7km/h | 26890m | 4.9m/s | -49°C | 3.1% | 20.2hPa | 2.6V | 03:29:48 | 01:56:50 | 00:00:00 | |
| AA1-15 | 2026-09-05 00:26:36 | 52.87524 | 11.91872 | 111° | 20km/h | 26912m | 5.8m/s | -49°C | 0% | 20.1hPa | 2.6V | 03:30:11 | 01:56:54 | 00:00:00 | |
| DL1XH-west | 2026-09-05 00:26:34 | 52.87528 | 11.91860 | 129° | 15km/h | 26900m | 5.5m/s | -49°C | 0% | 20.1hPa | 2.7V | 03:30:11 | 01:56:52 | 00:00:00 | |
| DL1XH1-15 | 2026-09-05 00:26:34 | 52.87530 | 11.91856 | 133° | 11km/h | 26895m | 4.4m/s | -49°C | 3% | 20.1hPa | 2.6V | 03:29:47 | 01:56:51 | 00:00:00 | |
| DM0DOS-11 | 2026-09-05 00:26:33 | 52.87529 | 11.91838 | 65° | 9km/h | 26868m | 5.4m/s | -49.1°C | 3.1% | 20.2hPa | 2.6V | 03:29:52 | 01:56:46 | 00:00:00 | |
| BIOWL1-15 | 2026-09-05 00:26:33 | 52.87527 | 11.91833 | 32° | 7km/h | 26856m | 4.8m/s | -49.2°C | 0% | 20.3hPa | 2.7V | 03:30:11 | 01:56:44 | 00:00:00 | |
| DF8AY | 2026-09-05 00:26:31 | 52.87532 | 11.91850 | 89° | 9km/h | 26885m | 6.6m/s | -49°C | 0% | 20.2hPa | 2.7V | 03:30:11 | 01:56:49 | 00:00:00 | |
| DD8BA-10 | 2026-09-05 00:26:29 | 52.87530 | 11.91842 | 66° | 11km/h | 26873m | 4.5m/s | -49.0°C | 3.1% | 20.2hPa | 2.6V | 03:29:00 | 00:00:00 | 00:00:00 | |
| DL1XH1-15 | 2026-09-05 00:26:28 | 52.87519 | 11.91824 | 38° | 16km/h | 26840m | 5.1m/s | -49.3°C | 3.1% | 20.3hPa | 2.6V | 03:29:57 | 01:56:41 | 00:00:00 | |
| SONCRA | 2026-09-05 00:26:28 | 52.87528 | 11.91835 | 42° | 7km/h | 26862m | 6.3m/s | -49.2°C | 0.7% | 20.3hPa | 2.6V | 00:00:00 | 00:00:00 | 00:00:00 | |
| GOEST3-10 | 2026-09-05 00:26:27 | 52.87528 | 11.91835 | 43° | 11km/h | 26862m | 6.3m/s | -49.1°C | 3.1% | 20.2hPa | 2.6V | 00:00:00 | 01:56:45 | 00:00:00 | |
| DF7ER-10 | 2026-09-05 00:26:26 | 52.87528 | 11.91835 | 43° | 9km/h | 26862m | 6.3m/s | -49.2°C | 0.7% | 20.3hPa | 2.7V | 03:30:00 | 00:00:00 | 00:00:00 | |
| DB0DAN | 2026-09-05 00:26:25 | 52.87525 | 11.91831 | 36° | 9km/h | 26851m | 5.1m/s | -49.2°C | 0.7% | 20.32hPa | 2.7V | 00:00:00 | 00:00:00 | 00:00:00 | |
| AA1-15 | 2026-09-05 00:26:25 | 52.87525 | 11.91831 | 36° | 11km/h | 26851m | 5.1m/s | -49.2°C | 0% | 20.3hPa | 2.7V | 03:30:11 | 01:56:43 | 00:00:00 | |
| DL1XH-west | 2026-09-05 00:26:24 | 52.87522 | 11.91828 | 38° | 15km/h | 26846m | 6.9m/s | -49.3°C | 0% | 20.3hPa | 2.7V | 03:30:11 | 01:56:42 | 00:00:00 | |
| DO2SHX-10 | 2026-09-05 00:26:23 | 52.87519 | 11.91824 | 39° | 15km/h | 26840m | 5.1m/s | -49.2°C | 3.1% | 20.3hPa | 2.6V | 03:29:00 | 01:56:41 | 00:00:00 | |
| GOEST3-10 | 2026-09-05 00:26:22 | 52.87516 | 11.91820 | 43° | 11km/h | 26836m | 3.8m/s | -49.2°C | 3.1% | 20.3hPa | 2.6V | 00:00:00 | 00:00:00 | 00:00:00 | |
| AM1SDL-15 | 2026-09-05 00:26:21 | 52.87514 | 11.91816 | 45° | 11km/h | 26831m | 5.8m/s | -49.3°C | 3.2% | 20.3hPa | 2.6V | 00:00:00 | 01:56:39 | 00:00:00 | |
| DF8AY | 2026-09-05 00:26:21 | 52.87514 | 11.91816 | 45° | 13km/h | 26830m | 5.8m/s | -49.3°C | 0% | 20.4hPa | 2.6V | 03:30:11 | 01:56:39 | 00:00:00 | |
| DH5RUM-10 | 2026-09-05 00:26:20 | 52.87512 | 11.91812 | 60° | 9km/h | 26824m | 6.6m/s | -49.3°C | 0.7% | 20.4hPa | 2.6V | 00:00:00 | 00:00:00 | 00:00:00 | |
| DD8BA-10 | 2026-09-05 00:26:19 | 52.87511 | 11.91809 | 86° | 11km/h | 26818m | 5.8m/s | -49.3°C | 3.2% | 20.3hPa | 2.6V | 00:00:00 | 00:00:00 | 00:00:00 | |
| DL1XH-15 | 2026-09-05 00:26:18 | 52.87511 | 11.91801 | 89° | 13km/h | 26806m | 7.2m/s | -49.3°C | 3.2% | 20.4hPa | 2.6V | 03:30:03 | 01:56:35 | 00:00:00 | |
| DL1NUX | 2026-09-05 00:26:17 | 52.87516 | 11.91778 | 144° | 11km/h | 26777m | 5.5m/s | -49.2°C | 3.2% | 20.5hPa | 2.6V | 03:30:08 | 01:56:30 | 00:00:00 | |
| DL1XH1-15 | 2026-09-05 00:26:17 | 52.87514 | 11.91781 | 132° | 11km/h | 26783m | 7.1m/s | -49.2°C | 3.2% | 20.5hPa | 2.7V | 03:30:07 | 01:56:31 | 00:00:00 | |
| AA1-15 | 2026-09-05 00:26:15 | 52.87512 | 11.91785 | 111° | 13km/h | 26789m | 6m/s | -49.3°C | 0% | 20.5hPa | 2.7V | 03:30:11 | 01:56:32 | 00:00:00 | |
| DL1XH-west | 2026-09-05 00:26:13 | 52.87514 | 11.91781 | 132° | 11km/h | 26783m | 7.1m/s | -49.2°C | 0% | 20.5hPa | 2.7V | 03:30:11 | 01:56:31 | 00:00:00 | |
| DM0DOS-11 | 2026-09-05 00:26:13 | 52.87521 | 11.91766 | 86° | 9km/h | 26753m | 5m/s | -49.1°C | 3.2% | 20.6hPa | 2.6V | 03:30:12 | 01:56:26 | 00:00:00 | |
| DF8AY | 2026-09-05 00:26:11 | 52.87518 | 11.91776 | 141° | 9km/h | 26772m | 5m/s | -49.2°C | 0% | 20.6hPa | 2.6V | 03:30:11 | 01:56:29 | 00:00:00 | |
| BIOWL1-15 | 2026-09-05 00:26:11 | 52.87521 | 11.91760 | 77° | 4km/h | 26742m | 6.6m/s | -49°C | 0% | 20.6hPa | 2.6V | 03:31:53 | 01:56:24 | 00:00:00 | |
| DB0DAN | 2026-09-05 00:26:10 | 52.87519 | 11.91773 | 131° | 9km/h | 26765m | 6.6m/s | -49.1°C | 0.7% | 20.59hPa | 2.6V | 00:00:00 | 00:00:00 | 00:00:00 | |
| DD8BA-10 | 2026-09-05 00:26:09 | 52.87521 | 11.91769 | 107° | 5km/h | 26759m | 6.2m/s | -49.1°C | 3.2% | 20.5hPa | 2.7V | 00:00:00 | 00:00:00 | 00:00:00 | |
| DF8AY-15 | 2026-09-05 00:26:08 | 52.87521 | 11.91766 | 87° | 9km/h | 26754m | 4.9m/s | -49.0°C | 3.2% | 20.5hPa | 2.6V | 03:30:00 | 01:56:26 | 00:00:00 | |
| DL1NUX | 2026-09-05 00:26:07 | 52.87519 | 11.91756 | 36° | 7km/h | 26718m | 6.6m/s | -48.8°C | 3.1% | 20.7hPa | 2.6V | 03:30:18 | 01:56:20 | 00:00:00 | |
| GOEST3-10 | 2026-09-05 00:26:07 | 52.87521 | 11.91762 | 84° | 4km/h | 26749m | 4.9m/s | -49.0°C | 3.1% | 20.6hPa | 2.7V | 00:00:00 | 01:56:25 | 00:00:00 | |
| DO2SHX-10 | 2026-09-05 00:26:05 | 52.87520 | 11.91758 | 89° | 2km/h | 26736m | 5.7m/s | -48.9°C | 3.1% | 20.6hPa | 2.7V | 00:00:00 | 01:56:23 | 00:00:00 | |
| DL1XH1-15 | 2026-09-05 00:26:04 | 52.87520 | 11.91757 | 36° | 2km/h | 26725m | 5.8m/s | -48.9°C | 3.1% | 20.7hPa | 2.7V | 03:30:17 | 01:56:21 | 00:00:00 | |
| AA1-15 | 2026-09-05 00:26:04 | 52.87520 | 11.91758 | 52° | 2km/h | 26730m | 5.6m/s | -48.9°C | 0% | 20.7hPa | 2.7V | 03:31:02 | 01:56:22 | 00:00:00 | |
| DM0DOS-11 | 2026-09-05 00:26:03 | 52.87517 | 11.91746 | 132° | 9km/h | 26697m | 6.7m/s | -48.7°C | 3.1% | 20.8hPa | 2.7V | 03:30:22 | 01:56:16 | 00:00:00 | |
| DL1XH-west | 2026-09-05 00:26:02 | 52.87519 | 11.91756 | 37° | 7km/h | 26719m | 6.6m/s | -48.8°C | 0% | 20.7hPa | 2.6V | 03:31:02 | 01:56:20 | 00:00:00 | |
| DF8AY | 2026-09-05 00:26:00 | 52.87517 | 11.91751 | 63° | 7km/h | 26708m | 4.6m/s | -48.7°C | 0% | 20.7hPa | 2.6V | 03:31:02 | 01:56:18 | 00:00:00 | |
| DD8BA-10 | 2026-09-05 00:25:59 | 52.87516 | 11.91749 | 99° | 13km/h | 26703m | 5.6m/s | -48.7°C | 3.1% | 20.7hPa | 2.7V | 00:00:00 | 00:00:00 | 00:00:00 | |
| DL1XH1-15 | 2026-09-05 00:25:58 | 52.87529 | 11.91721 | 91° | 16km/h | 26668m | 5.4m/s | -48.7°C | 3.1% | 20.9hPa | 2.7V | 03:30:27 | 01:56:11 | 00:00:00 | |
| DL4BBY-15 | 2026-09-05 00:25:58 | 52.87517 | 11.91746 | 133° | 9km/h | 26697m | 6.6m/s | -49.1°C | 0% | 0hPa | 2.7V | 00:00:00 | 00:00:00 | 00:00:00 | |
| DL1NUX | 2026-09-05 00:25:57 | 52.87529 | 11.91714 | 71° | 15km/h | 26663m | 4.4m/s | -48.6°C | 3.1% | 20.9hPa | 2.7V | 03:30:28 | 01:56:10 | 00:00:00 | |
| GOEST3-10 | 2026-09-05 00:25:57 | 52.87519 | 11.91742 | 148° | 16km/h | 26690m | 5.7m/s | -48.7°C | 3.1% | 20.8hPa | 2.7V | 00:00:00 | 01:56:15 | 00:00:00 | |
| DB0DAN | 2026-09-05 00:25:55 | 52.87526 | 11.91734 | 133° | 16km/h | 26679m | 4.4m/s | -48.7°C | 0.7% | 20.8hPa | 2.6V | 00:00:00 | 00:00:00 | 00:00:00 | |
| AA1-15 | 2026-09-05 00:25:53 | 52.87529 | 11.91721 | 92° | 16km/h | 26668m | 5.4m/s | -48.7°C | 0% | 20.9hPa | 2.7V | 03:31:02 | 01:56:11 | 00:00:00 | |
| DL1XH-west | 2026-09-05 00:25:51 | 52.87527 | 11.91709 | 53° | 13km/h | 26658m | 4.4m/s | -48.6°C | 0% | 20.9hPa | 2.6V | 03:31:02 | 01:56:09 | 00:00:00 | |
| DO2SHX-10 | 2026-09-05 00:25:50 | 52.87525 | 11.91706 | 28° | 7km/h | 26653m | 5.4m/s | -48.5°C | 3.1% | 20.9hPa | 2.6V | 00:00:00 | 01:56:08 | 00:00:00 | |
| DM0DOS-11 | 2026-09-05 00:25:49 | 52.87521 | 11.91706 | 333° | 7km/h | 26641m | 5.6m/s | -48.5°C | 3% | 21hPa | 2.7V | 03:30:32 | 01:56:06 | 00:00:00 | |
| DD8BA-10 | 2026-09-05 00:25:49 | 52.87523 | 11.91705 | 358° | 9km/h | 26647m | 5.9m/s | -48.5°C | 3.1% | 20.9hPa | 2.6V | 03:30:00 | 00:00:00 | 00:00:00 | |
| DL1XH1-15 | 2026-09-05 00:25:48 | 52.87513 | 11.91702 | 36° | 11km/h | 26614m | 5.4m/s | -48.4°C | 3% | 21hPa | 2.6V | 03:30:37 | 01:56:01 | 00:00:00 | |
| DF8AY-15 | 2026-09-05 00:25:48 | 52.87521 | 11.91706 | 334° | 7km/h | 26641m | 5.6m/s | -48.4°C | 3.0% | 20.9hPa | 2.7V | 00:00:00 | 01:56:06 | 00:00:00 | |
| DL1NUX | 2026-09-05 00:25:47 | 52.87511 | 11.91699 | 30° | 11km/h | 26608m | 5.6m/s | -48.4°C | 2.9% | 21hPa | 2.7V | 03:30:38 | 01:56:00 | 00:00:00 | |
| HTAHTA | 2026-09-05 00:25:45 | 52.87517 | 11.91707 | 36° | 5km/h | 26625m | 5.7m/s | -48.4°C | 0.7% | 21.0hPa | 2.6V | 00:00:00 | 00:00:00 | 00:00:00 | |
| AA1-15 | 2026-09-05 00:25:43 | 52.87513 | 11.91702 | 37° | 11km/h | 26614m | 5.4m/s | -48.4°C | 0% | 21hPa | 2.6V | 03:31:02 | 01:56:01 | 00:00:00 | |
| DL1XH-west | 2026-09-05 00:25:41 | 52.87509 | 11.91697 | 19° | 11km/h | 26602m | 6.6m/s | -48.4°C | 0% | 21hPa | 2.7V | 03:31:02 | 01:55:59 | 00:00:00 | |
| DB0DAN | 2026-09-05 00:25:40 | 52.87506 | 11.91696 | 2° | 7km/h | 26597m | 5.2m/s | -48.4°C | 0.6% | 21.05hPa | 2.7V | 00:00:00 | 00:00:00 | 00:00:00 | |
| DF8AY | 2026-09-05 00:25:39 | 52.87505 | 11.91696 | 6° | 5km/h | 26592m | 4.3m/s | -48.4°C | 0% | 21.1hPa | 2.6V | 03:31:02 | 01:55:57 | 00:00:00 | |
| DD8BA-10 | 2026-09-05 00:25:39 | 52.87505 | 11.91696 | 6° | 5km/h | 26592m | 4.2m/s | -48.3°C | 3.0% | 21.1hPa | 2.6V | 00:00:00 | 00:00:00 | 00:00:00 | |
| DL1XH-15 | 2026-09-05 00:25:38 | 52.87503 | 11.91693 | 86° | 7km/h | 26581m | 6.3m/s | -48.4°C | 3% | 21.1hPa | 2.6V | 03:30:43 | 01:55:55 | 00:00:00 | |
| DL1XH1-15 | 2026-09-05 00:25:38 | 52.87507 | 11.91677 | 135° | 4km/h | 26561m | 6.4m/s | -48.5°C | 3% | 21.2hPa | 2.6V | 03:30:47 | 01:55:51 | 00:00:00 | |
| DO2SHX-10 | 2026-09-05 00:25:38 | 52.87504 | 11.91695 | 61° | 7km/h | 26587m | 5.3m/s | -48.3°C | 3.0% | 21.1hPa | 2.6V | 00:00:00 | 01:55:56 | 00:00:00 | |
| BIOWL9-15 | 2026-09-05 00:25:37 | 52.87504 | 11.91689 | 102° | 11km/h | 26576m | 5.5m/s | -48.5°C | 0.7% | 21.2hPa | 2.6V | 00:00:00 | 00:00:00 | 00:00:00 | |
| GOEST3-10 | 2026-09-05 00:25:36 | 52.87504 | 11.91689 | 103° | 7km/h | 26576m | 5.4m/s | -48.4°C | 3.0% | 21.1hPa | 2.6V | 00:00:00 | 01:55:54 | 00:00:00 | |
| DO2SHX-10 | 2026-09-05 00:25:35 | 52.87505 | 11.91684 | 110° | 9km/h | 26571m | 4.0m/s | -48.4°C | 3.0% | 21.1hPa | 2.6V | 03:30:00 | 01:55:53 | 00:00:00 | |
| DM0DOS-11 | 2026-09-05 00:25:33 | 52.87506 | 11.91678 | 0° | 2km/h | 26533m | 4m/s | -48.6°C | 3.1% | 21.3hPa | 2.6V | 03:30:52 | 01:55:46 | 00:00:00 | |
| AA1-15 | 2026-09-05 00:25:33 | 52.87507 | 11.91677 | 135° | 4km/h | 26561m | 6.4m/s | -48.5°C | 0% | 21.2hPa | 2.6V | 03:31:02 | 01:55:51 | 00:00:00 | |
| DL1XH-west | 2026-09-05 00:25:31 | 52.87508 | 11.91678 | 287° | 2km/h | 26549m | 4.8m/s | -48.5°C | 0% | 21.2hPa | 2.7V | 03:31:02 | 01:55:49 | 00:00:00 | |
| DF8AY | 2026-09-05 00:25:28 | 52.87506 | 11.91678 | 1° | 2km/h | 26533m | 4m/s | -48.6°C | 0% | 21.3hPa | 2.6V | 03:31:02 | 01:55:46 | 00:00:00 | |
| DB0NH | 2026-09-05 00:25:28 | 52.87506 | 11.91678 | 1° | 13km/h | 26533m | 4.0m/s | -48.5°C | 3.1% | 21.2hPa | 2.6V | 00:00:00 | 01:55:46 | 00:00:00 | |
| DL1NUX | 2026-09-05 00:25:27 | 52.87516 | 11.91675 | 146° | 18km/h | 26500m | 6.5m/s | -48.5°C | 3% | 21.4hPa | 2.6V | 03:30:58 | 01:55:40 | 00:00:00 | |
| DB0DAN | 2026-09-05 00:25:25 | 52.87507 | 11.91680 | 194° | 5km/h | 26517m | 5.6m/s | -48.5°C | 0.7% | 21.35hPa | 2.7V | 00:00:00 | 00:00:00 | 00:00:00 | |
| SMARD9-15 | 2026-09-05 00:25:24 | 52.87509 | 11.91680 | 172° | 13km/h | 26512m | 4.6m/s | -48.5°C | 0.7% | 21.4hPa | 2.6V | 00:00:00 | 00:00:00 | 00:00:00 | |
| DM0DOS-11 | 2026-09-05 00:25:23 | 52.87531 | 11.91661 | 176° | 13km/h | 26477m | 5.6m/s | -48.5°C | 3% | 21.5hPa | 2.6V | 03:31:02 | 01:55:36 | 00:00:00 | |
| AA1-15 | 2026-09-05 00:25:22 | 52.87516 | 11.91675 | 147° | 18km/h | 26500m | 6.5m/s | -48.5°C | 0% | 21.4hPa | 2.6V | 03:31:02 | 01:55:40 | 00:00:00 | |
| DL1XH-west | 2026-09-05 00:25:20 | 52.87524 | 11.91666 | 145° | 18km/h | 26489m | 5.1m/s | -48.5°C | 0% | 21.5hPa | 2.7V | 03:31:02 | 01:55:38 | 00:00:00 | |
| EDDB2-11 | 2026-09-05 00:25:20 | 52.87528 | 11.91662 | 156° | 15km/h | 26483m | 6.2m/s | -48.5°C | 0.7% | 21.5hPa | 2.6V | 00:00:00 | 00:00:00 | 00:00:00 | |
| DL1XH-15 | 2026-09-05 00:25:19 | 52.87534 | 11.91662 | 207° | 9km/h | 26472m | 4.5m/s | -48.5°C | 3% | 21.5hPa | 2.6V | 03:31:03 | 01:55:35 | 00:00:00 | |
| BIOWL1-15 | 2026-09-05 00:25:19 | 52.87536 | 11.91664 | 233° | 7km/h | 26468m | 4.7m/s | -48.5°C | 0% | 21.5hPa | 2.6V | 03:31:53 | 01:55:34 | 00:00:00 | |
| DF8AY | 2026-09-05 00:25:18 | 52.87531 | 11.91661 | 177° | 13km/h | 26477m | 5.6m/s | -48.5°C | 0% | 21.5hPa | 2.6V | 03:31:02 | 01:55:36 | 00:00:00 | |
| DL1NUX | 2026-09-05 00:25:17 | 52.87537 | 11.91668 | 221° | 4km/h | 26446m | 4.3m/s | -48.6°C | 3% | 21.6hPa | 2.6V | 03:31:08 | 01:55:30 | 00:00:00 | |
| DD8BA-10 | 2026-09-05 00:25:17 | 52.87534 | 11.91662 | 208° | 11km/h | 26473m | 4.4m/s | -48.5°C | 3.0% | 21.4hPa | 2.6V | 00:00:00 | 00:00:00 | 00:00:00 | |
| SO1NDE-10 | 2026-09-05 00:25:16 | 52.87536 | 11.91664 | 233° | 16km/h | 26468m | 4.6m/s | -48.5°C | 2.9% | 21.5hPa | 2.6V | 00:00:00 | 01:55:34 | 00:00:00 | |
| DO2SHX-10 | 2026-09-05 00:25:14 | 52.87537 | 11.91667 | 340° | 2km/h | 26456m | 5.8m/s | -48.5°C | 3.0% | 21.5hPa | 2.7V | 00:00:00 | 01:55:32 | 00:00:00 | |
| DM0DOS-11 | 2026-09-05 00:25:13 | 52.87553 | 11.91674 | 182° | 27km/h | 26424m | 5.4m/s | -48.7°C | 3% | 21.6hPa | 2.7V | 03:31:12 | 01:55:26 | 00:00:00 | |
| AA1-15 | 2026-09-05 00:25:11 | 52.87538 | 11.91669 | 202° | 9km/h | 26441m | 5.8m/s | -48.7°C | 0% | 21.6hPa | 2.6V | 03:31:53 | 01:55:29 | 00:00:00 | |
| DB0DAN | 2026-09-05 00:25:10 | 52.87541 | 11.91671 | 198° | 15km/h | 26435m | 6.6m/s | -48.7°C | 0.6% | 21.61hPa | 2.7V | 00:00:00 | 00:00:00 | 00:00:00 | |
| DL1XH-west | 2026-09-05 00:25:10 | 52.87541 | 11.91671 | 198° | 16km/h | 26435m | 6.6m/s | -48.7°C | 0% | 21.6hPa | 2.7V | 03:31:53 | 01:55:28 | 00:00:00 | |
| DO3MHA-11 | 2026-09-05 00:25:09 | 52.87546 | 11.91673 | 191° | 26km/h | 26429m | 5.5m/s | -48.6°C | 3.0% | 21.6hPa | 2.6V | 00:00:00 | 01:55:27 | 00:00:00 | |
| DL1XH-15 | 2026-09-05 00:25:08 | 52.87560 | 11.91674 | 174° | 31km/h | 26418m | 6.7m/s | -48.7°C | 3% | 21.6hPa | 2.6V | 03:31:13 | 01:55:25 | 00:00:00 | |
| DF8AY | 2026-09-05 00:25:07 | 52.87560 | 11.91674 | 174° | 31km/h | 26418m | 6.7m/s | -48.7°C | 0% | 21.6hPa | 2.6V | 03:31:53 | 01:55:25 | 00:00:00 | |
| DD8BA-10 | 2026-09-05 00:25:07 | 52.87560 | 11.91674 | 175° | 22km/h | 26418m | 6.7m/s | -48.6°C | 3.0% | 21.6hPa | 2.6V | 03:31:00 | 00:00:00 | 00:00:00 | |
| GOEST3-10 | 2026-09-05 00:25:06 | 52.87568 | 11.91671 | 166° | 29km/h | 26412m | 5.8m/s | -48.6°C | 3.0% | 21.6hPa | 2.7V | 00:00:00 | 01:55:24 | 00:00:00 | |
| DL1XH1-15 | 2026-09-05 00:25:05 | 52.87590 | 11.91661 | 169° | 27km/h | 26395m | 6.5m/s | -48.8°C | 3% | 21.7hPa | 2.7V | 03:31:17 | 01:55:21 | 00:00:00 | |
| DO2SHX-10 | 2026-09-05 00:25:05 | 52.87575 | 11.91668 | 163° | 29km/h | 26406m | 4.6m/s | -48.6°C | 3.0% | 21.7hPa | 2.6V | 00:00:00 | 01:55:23 | 00:00:00 | |
| DM0DOS-11 | 2026-09-05 00:25:03 | 52.87609 | 11.91657 | 139° | 9km/h | 26366m | 5.8m/s | -48.8°C | 3% | 21.8hPa | 2.7V | 03:31:22 | 01:55:16 | 00:00:00 | |
| DL1XH-15 | 2026-09-05 00:25:02 | 52.87611 | 11.91655 | 149° | 7km/h | 26361m | 4.6m/s | -48.8°C | 3.1% | 21.9hPa | 2.7V | 03:31:23 | 01:55:15 | 00:00:00 | |
| AA1-15 | 2026-09-05 00:25:00 | 52.87605 | 11.91660 | 175° | 13km/h | 26379m | 5.6m/s | -48.8°C | 0% | 21.8hPa | 2.6V | 03:31:53 | 01:55:18 | 00:00:00 | |
| DL1XH-west | 2026-09-05 00:24:59 | 52.87607 | 11.91659 | 164° | 11km/h | 26373m | 6.8m/s | -48.8°C | 0% | 21.8hPa | 2.6V | 03:31:53 | 01:55:17 | 00:00:00 | |
| DF8AY | 2026-09-05 00:24:58 | 52.87611 | 11.91655 | 150° | 7km/h | 26361m | 4.6m/s | -48.8°C | 0% | 21.9hPa | 2.7V | 03:31:53 | 01:55:15 | 00:00:00 | |
| DL4BBY-15 | 2026-09-05 00:24:58 | 52.87610 | 11.91657 | 140° | 16km/h | 26366m | 5.8m/s | -49.2°C | 0% | 0hPa | 2.6V | 00:00:00 | 00:00:00 | 00:00:00 | |
| DL1NUX | 2026-09-05 00:24:57 | 52.87630 | 11.91655 | 172° | 22km/h | 26334m | 6.2m/s | -49°C | 3.1% | 21.9hPa | 2.6V | 03:31:28 | 01:55:10 | 00:00:00 | |
| BIOWL1-15 | 2026-09-05 00:24:56 | 52.87616 | 11.91654 | 188° | 13km/h | 26349m | 6.1m/s | -48.8°C | 0% | 21.9hPa | 2.6V | 03:31:53 | 01:55:13 | 00:00:00 | |
| DB0DAN | 2026-09-05 00:24:55 | 52.87616 | 11.91654 | 188° | 13km/h | 26349m | 6.1m/s | -48.8°C | 0.7% | 21.9hPa | 2.6V | 00:00:00 | 00:00:00 | 00:00:00 | |
| SONCRA | 2026-09-05 00:24:55 | 52.87620 | 11.91655 | 190° | 16km/h | 26344m | 5.0m/s | -48.9°C | 0.7% | 21.9hPa | 2.6V | 00:00:00 | 00:00:00 | 00:00:00 | |
| DO2SHX-10 | 2026-09-05 00:24:53 | 52.87624 | 11.91656 | 184° | 22km/h | 26339m | 4.9m/s | -48.9°C | 3.1% | 21.9hPa | 2.6V | 00:00:00 | 01:55:11 | 00:00:00 | |
| SP3BTT-10 | 2026-09-05 00:24:52 | 52.87630 | 11.91655 | 173° | 20km/h | 26334m | 6.2m/s | -48.9°C | 3.1% | 21.9hPa | 2.6V | 00:00:00 | 00:00:00 | 00:00:00 | |
| DM0DOS-11 | 2026-09-05 00:24:51 | 52.87650 | 11.91643 | 162° | 18km/h | 26310m | 6.3m/s | -49.2°C | 3.1% | 22hPa | 2.7V | 03:31:32 | 01:55:06 | 00:00:00 | |
| AA1-15 | 2026-09-05 00:24:50 | 52.87641 | 11.91649 | 155° | 22km/h | 26322m | 5.1m/s | -49.1°C | 0% | 22hPa | 2.6V | 03:31:53 | 01:55:08 | 00:00:00 | |
| DL1XH-west | 2026-09-05 00:24:48 | 52.87650 | 11.91643 | 163° | 18km/h | 26310m | 6.3m/s | -49.2°C | 0% | 22hPa | 2.7V | 03:31:53 | 01:55:06 | 00:00:00 | |
| DL1XH-15 | 2026-09-05 00:24:48 | 52.87654 | 11.91641 | 172° | 16km/h | 26305m | 6.4m/s | -49.2°C | 3.1% | 22hPa | 2.7V | 03:31:33 | 01:55:05 | 00:00:00 | |
| DL1XH1-15 | 2026-09-05 00:24:48 | 52.87664 | 11.91638 | 122° | 7km/h | 26281m | 5.8m/s | -49.2°C | 3.1% | 22.1hPa | 2.7V | 03:31:37 | 01:55:01 | 00:00:00 | |
| DF8AY | 2026-09-05 00:24:46 | 52.87658 | 11.91641 | 183° | 13km/h | 26300m | 5.1m/s | -49.2°C | 0% | 22.1hPa | 2.6V | 03:31:53 | 01:55:04 | 00:00:00 | |
| BIOWL1-15 | 2026-09-05 00:24:44 | 52.87663 | 11.91640 | 160° | 7km/h | 26287m | 6.6m/s | -49.3°C | 0% | 22.1hPa | 2.6V | 03:31:53 | 01:55:02 | 00:00:00 | |
| DO2SHX-10 | 2026-09-05 00:24:44 | 52.87663 | 11.91640 | 160° | 7km/h | 26287m | 6.6m/s | -49.2°C | 3.1% | 22.1hPa | 2.7V | 00:00:00 | 01:55:02 | 00:00:00 | |
| DM0DOS-11 | 2026-09-05 00:24:43 | 52.87678 | 11.91630 | 171° | 22km/h | 26252m | 5m/s | -49.2°C | 3.1% | 22.2hPa | 2.7V | 03:31:42 | 01:54:56 | 00:00:00 | |
| DB0DAN | 2026-09-05 00:24:40 | 52.87669 | 11.91632 | 165° | 11km/h | 26264m | 7.1m/s | -49.2°C | 0.7% | 22.18hPa | 2.6V | 00:00:00 | 00:00:00 | 00:00:00 | |
| AA1-15 | 2026-09-05 00:24:40 | 52.87673 | 11.91630 | 174° | 16km/h | 26257m | 6m/s | -49.2°C | 0% | 22.2hPa | 2.7V | 03:31:53 | 01:54:57 | 00:00:00 | |
| DO3MHA-11 | 2026-09-05 00:24:39 | 52.87673 | 11.91630 | 175° | 15km/h | 26258m | 5.9m/s | -49.1°C | 3.1% | 22.2hPa | 2.7V | 03:31:00 | 01:54:57 | 00:00:00 | |
| DL1XH1-15 | 2026-09-05 00:24:38 | 52.87701 | 11.91609 | 142° | 22km/h | 26222m | 6.3m/s | -49.1°C | 3.1% | 22.3hPa | 2.7V | 03:31:47 | 01:54:51 | 00:00:00 | |
| DL1XH-west | 2026-09-05 00:24:37 | 52.87683 | 11.91628 | 166° | 20km/h | 26247m | 5.5m/s | -49.2°C | 0% | 22.2hPa | 2.6V | 03:31:53 | 01:54:55 | 00:00:00 | |
| DF8AY | 2026-09-05 00:24:35 | 52.87693 | 11.91620 | 145° | 22km/h | 26234m | 5.4m/s | -49.1°C | 0% | 22.3hPa | 2.6V | 03:31:53 | 01:54:53 | 00:00:00 | |
| DO2SHX-10 | 2026-09-05 00:24:35 | 52.87692 | 11.91620 | 145° | 22km/h | 26234m | 5.4m/s | -49.1°C | 3.1% | 22.2hPa | 2.7V | 03:31:00 | 01:54:53 | 00:00:00 | |
| DL1XH-15 | 2026-09-05 00:24:32 | 52.87726 | 11.91586 | 132° | 15km/h | 26188m | 6.4m/s | -49.2°C | 3.1% | 22.4hPa | 2.7V | 03:31:53 | 01:54:45 | 00:00:00 | |
| DO2SHX-10 | 2026-09-05 00:24:32 | 52.87705 | 11.91604 | 148° | 22km/h | 26216m | 6.4m/s | -49.1°C | 3.1% | 22.3hPa | 2.7V | 00:00:00 | 01:54:50 | 00:00:00 | |
| GOEST3-10 | 2026-09-05 00:24:31 | 52.87710 | 11.91600 | 157° | 18km/h | 26210m | 5.1m/s | -49.1°C | 3.2% | 22.3hPa | 2.7V | 03:31:00 | 00:00:00 | 00:00:00 | |
| DL1LOL-11 | 2026-09-05 00:24:30 | 52.87710 | 11.91600 | 158° | 22km/h | 26210m | 5.1m/s | -49.2°C | 0.7% | 22.4hPa | 2.7V | 00:00:00 | 00:00:00 | 00:00:00 | |
| DM0DOS-11 | 2026-09-05 00:24:29 | 52.87723 | 11.91590 | 145° | 16km/h | 26194m | 6.5m/s | -49.2°C | 3.1% | 22.4hPa | 2.7V | 03:31:52 | 01:54:46 | 00:00:00 | |
| AA1-15 | 2026-09-05 00:24:29 | 52.87719 | 11.91594 | 155° | 16km/h | 26200m | 4.8m/s | -49.2°C | 0% | 22.4hPa | 2.6V | 03:31:53 | 01:54:47 | 00:00:00 | |
| DO2SHX-10 | 2026-09-05 00:24:29 | 52.87719 | 11.91594 | 156° | 16km/h | 26200m | 4.8m/s | -49.1°C | 3.1% | 22.4hPa | 2.6V | 00:00:00 | 01:54:47 | 00:00:00 | |
| DL1XH1-15 | 2026-09-05 00:24:28 | 52.87740 | 11.91571 | 168° | 22km/h | 26166m | 6.8m/s | -49.1°C | 3.1% | 22.5hPa | 2.6V | 03:31:57 | 01:54:41 | 00:00:00 | |
| DB0NH | 2026-09-05 00:24:28 | 52.87723 | 11.91590 | 146° | 20km/h | 26194m | 6.4m/s | -49.1°C | 3.1% | 22.4hPa | 2.7V | 03:31:00 | 01:54:46 | 00:00:00 | |
| DL1NUX | 2026-09-05 00:24:27 | 52.87746 | 11.91570 | 172° | 29km/h | 26159m | 5.7m/s | -49.1°C | 3.1% | 22.5hPa | 2.7V | 03:31:58 | 01:54:40 | 00:00:00 | |
| DL1XH-west | 2026-09-05 00:24:26 | 52.87729 | 11.91582 | 129° | 15km/h | 26182m | 5m/s | -49.2°C | 0% | 22.5hPa | 2.7V | 03:32:44 | 01:54:44 | 00:00:00 | |
| DB0DAN | 2026-09-05 00:24:25 | 52.87731 | 11.91577 | 141° | 15km/h | 26177m | 5.1m/s | -49.1°C | 0.7% | 22.47hPa | 2.6V | 00:00:00 | 00:00:00 | 00:00:00 | |
| DF8AY | 2026-09-05 00:24:25 | 52.87731 | 11.91577 | 141° | 15km/h | 26177m | 5.1m/s | -49.1°C | 0% | 22.5hPa | 2.6V | 03:32:44 | 01:54:43 | 00:00:00 | |
| SONCRA | 2026-09-05 00:24:24 | 52.87740 | 11.91571 | 168° | 22km/h | 26166m | 6.8m/s | -49.1°C | 0.7% | 22.5hPa | 2.6V | 00:00:00 | 00:00:00 | 00:00:00 | |
| DM0DOS-11 | 2026-09-05 00:24:23 | 52.87775 | 11.91555 | 149° | 27km/h | 26138m | 4.7m/s | -49.2°C | 3.2% | 22.6hPa | 2.6V | 03:32:02 | 01:54:36 | 00:00:00 | |
| BIOWL1-15 | 2026-09-05 00:24:21 | 52.87753 | 11.91568 | 170° | 31km/h | 26154m | 4.9m/s | -49.2°C | 0% | 22.5hPa | 2.7V | 03:33:35 | 01:54:39 | 00:00:00 | |
| AA1-15 | 2026-09-05 00:24:19 | 52.87769 | 11.91560 | 157° | 29km/h | 26143m | 5.4m/s | -49.2°C | 0% | 22.6hPa | 2.6V | 03:32:44 | 01:54:37 | 00:00:00 | |
| EDDB2-11 | 2026-09-05 00:24:18 | 52.87780 | 11.91549 | 138° | 24km/h | 26133m | 4.6m/s | -49.2°C | 0.7% | 22.6hPa | 2.6V | 00:00:00 | 00:00:00 | 00:00:00 | |
| DL1NUX | 2026-09-05 00:24:17 | 52.87798 | 11.91528 | 141° | 16km/h | 26106m | 5.3m/s | -49.2°C | 3.1% | 22.7hPa | 2.6V | 03:32:08 | 01:54:30 | 00:00:00 | |
| DL1XH-west | 2026-09-05 00:24:16 | 52.87785 | 11.91543 | 139° | 20km/h | 26128m | 5.2m/s | -49.2°C | 0% | 22.6hPa | 2.7V | 03:32:44 | 01:54:34 | 00:00:00 | |
| SO1NDE-10 | 2026-09-05 00:24:16 | 52.87784 | 11.91543 | 139° | 18km/h | 26129m | 5.2m/s | -49.2°C | 3.1% | 22.6hPa | 2.6V | 00:00:00 | 01:54:34 | 00:00:00 | |
| DL1XH1-15 | 2026-09-05 00:24:15 | 52.87795 | 11.91532 | 148° | 15km/h | 26111m | 4.8m/s | -49.2°C | 3.1% | 22.7hPa | 2.6V | 03:32:07 | 01:54:31 | 00:00:00 | |
| DF8AY | 2026-09-05 00:24:14 | 52.87792 | 11.91535 | 153° | 15km/h | 26116m | 5.6m/s | -49.2°C | 0% | 22.7hPa | 2.6V | 03:32:44 | 01:54:32 | 00:00:00 | |
| DM0DOS-11 | 2026-09-05 00:24:14 | 52.87812 | 11.91507 | 149° | 22km/h | 26082m | 6.6m/s | -49.2°C | 3.2% | 22.8hPa | 2.6V | 03:32:12 | 01:54:26 | 00:00:00 | |
| BIOWL1-15 | 2026-09-05 00:24:11 | 52.87808 | 11.91512 | 140° | 22km/h | 26088m | 5.2m/s | -49.2°C | 0% | 22.8hPa | 2.7V | 03:33:35 | 01:54:27 | 00:00:00 | |
| DB0DAN | 2026-09-05 00:24:10 | 52.87804 | 11.91518 | 132° | 18km/h | 26093m | 5.5m/s | -49.2°C | 0.7% | 22.76hPa | 2.7V | 00:00:00 | 00:00:00 | 00:00:00 | |
| EDDB2-12 | 2026-09-05 00:24:09 | 52.87808 | 11.91512 | 139° | 20km/h | 26088m | 5.2m/s | -49.2°C | 0.7% | 22.8hPa | 2.6V | 00:00:00 | 00:00:00 | 00:00:00 | |
| DL1XH-15 | 2026-09-05 00:24:08 | 52.87817 | 11.91503 | 159° | 22km/h | 26076m | 6m/s | -49.3°C | 3.2% | 22.8hPa | 2.6V | 03:32:13 | 01:54:25 | 00:00:00 | |
| AA1-15 | 2026-09-05 00:24:08 | 52.87812 | 11.91507 | 150° | 22km/h | 26082m | 6.6m/s | -49.3°C | 0% | 22.8hPa | 2.6V | 03:32:44 | 01:54:26 | 00:00:00 | |
| DC4HF-4 | 2026-09-05 00:24:08 | 52.87817 | 11.91503 | 159° | 22km/h | 26076m | 6.0m/s | -49.3°C | 0.7% | 22.8hPa | 2.6V | 00:00:00 | 00:00:00 | 00:00:00 | |
| DL1NUX | 2026-09-05 00:24:07 | 52.87841 | 11.91483 | 129° | 16km/h | 26047m | 5.2m/s | -49.4°C | 3.2% | 22.9hPa | 2.6V | 03:32:18 | 01:54:20 | 00:00:00 | |
| DL1XH-west | 2026-09-05 00:24:05 | 52.87828 | 11.91497 | 159° | 24km/h | 26065m | 5.4m/s | -49.3°C | 0% | 22.9hPa | 2.7V | 03:32:44 | 01:54:23 | 00:00:00 | |
| DF8AY | 2026-09-05 00:24:03 | 52.87838 | 11.91488 | 138° | 18km/h | 26052m | 6.1m/s | -49.3°C | 0% | 22.9hPa | 2.6V | 03:32:44 | 01:54:21 | 00:00:00 | |
| BIOWL1-15 | 2026-09-05 00:24:01 | 52.87843 | 11.91478 | 125° | 15km/h | 26042m | 5.7m/s | -49.4°C | 0% | 22.9hPa | 2.6V | 03:33:35 | 01:54:19 | 00:00:00 | |
| GOEST3-10 | 2026-09-05 00:24:01 | 52.87843 | 11.91477 | 126° | 11km/h | 26042m | 5.6m/s | -49.3°C | 3.2% | 22.9hPa | 2.6V | 00:00:00 | 00:00:00 | 00:00:00 | |
| DO2SHX-10 | 2026-09-05 00:23:59 | 52.87847 | 11.91471 | 146° | 11km/h | 26029m | 5.2m/s | -49.3°C | 3.2% | 22.9hPa | 2.6V | 03:32:00 | 01:54:17 | 00:00:00 | |
| DL1XH-15 | 2026-09-05 00:23:58 | 52.87852 | 11.91465 | 135° | 13km/h | 26019m | 5.2m/s | -49.3°C | 3.2% | 23hPa | 2.6V | 03:32:23 | 01:54:15 | 00:00:00 | |
| AA1-15 | 2026-09-05 00:23:58 | 52.87849 | 11.91468 | 146° | 11km/h | 26024m | 4.2m/s | -49.4°C | 0% | 23hPa | 2.7V | 03:32:44 | 01:54:16 | 00:00:00 | |
| S3001 | 2026-09-05 00:23:57 | 52.87852 | 11.91465 | 135° | 11km/h | 26020m | 5.2m/s | -49.3°C | 0.8% | 23.0hPa | 2.6V | 00:00:00 | 00:00:00 | 00:00:00 | |
| DF7ER-10 | 2026-09-05 00:23:56 | 52.87852 | 11.91465 | 137° | 13km/h | 26020m | 5.2m/s | -49.3°C | 0.8% | 23.0hPa | 2.6V | 03:32:00 | 00:00:00 | 00:00:00 | |
| DB0DAN | 2026-09-05 00:23:55 | 52.87856 | 11.91456 | 119° | 15km/h | 26008m | 5.5m/s | -49.3°C | 0.7% | 23.05hPa | 2.6V | 00:00:00 | 00:00:00 | 00:00:00 | |
| DAC517 | 2026-09-05 00:23:55 | 52.87853 | 11.91461 | 126° | 13km/h | 26014m | 6.1m/s | -49.3°C | 0% | 0hPa | 2.7V | 03:32:00 | 00:00:00 | 00:00:00 | |
| DL1XH-west | 2026-09-05 00:23:55 | 52.87856 | 11.91456 | 119° | 16km/h | 26008m | 5.5m/s | -49.3°C | 0% | 23.1hPa | 2.6V | 03:32:44 | 01:54:13 | 00:00:00 | |
| DL1XH1-15 | 2026-09-05 00:23:54 | 52.87861 | 11.91445 | 136° | 16km/h | 25997m | 5.4m/s | -49.2°C | 3.1% | 23.1hPa | 2.7V | 03:32:27 | 01:54:11 | 00:00:00 | |
| DO3MHA-11 | 2026-09-05 00:23:54 | 52.87858 | 11.91450 | 127° | 18km/h | 26002m | 5.1m/s | -49.2°C | 3.1% | 23.1hPa | 2.7V | 03:32:00 | 01:54:12 | 00:00:00 | |
| DM0DOS-11 | 2026-09-05 00:23:53 | 52.87882 | 11.91432 | 154° | 20km/h | 25969m | 6.3m/s | -49.1°C | 3.1% | 23.2hPa | 2.7V | 03:32:32 | 01:54:06 | 00:00:00 | |
| DF8AY | 2026-09-05 00:23:53 | 52.87861 | 11.91445 | 137° | 16km/h | 25997m | 5.4m/s | -49.2°C | 0% | 23.1hPa | 2.7V | 03:32:44 | 01:54:11 | 00:00:00 | |
| SONCRA | 2026-09-05 00:23:53 | 52.87864 | 11.91441 | 152° | 16km/h | 25991m | 6.7m/s | -49.2°C | 0.7% | 23.1hPa | 2.7V | 00:00:00 | 00:00:00 | 00:00:00 | |
| DL1XH-15 | 2026-09-05 00:23:51 | 52.87886 | 11.91428 | 136° | 22km/h | 25963m | 6.5m/s | -49.1°C | 3.1% | 23.2hPa | 2.7V | 03:32:33 | 01:54:05 | 00:00:00 | |
| DJ2DS-15 | 2026-09-05 00:23:50 | 52.87873 | 11.91437 | 170° | 18km/h | 25980m | 4.5m/s | -49.2°C | 0.7% | 23.1hPa | 2.7V | 00:00:00 | 00:00:00 | 00:00:00 | |
| SP3WXH-11 | 2026-09-05 00:23:49 | 52.87882 | 11.91432 | 154° | 18km/h | 25970m | 6.3m/s | -49.1°C | 0.7% | 23.2hPa | 2.7V | 00:00:00 | 00:00:00 | 00:00:00 | |
| DF8AY-15 | 2026-09-05 00:23:48 | 52.87882 | 11.91432 | 155° | 22km/h | 25970m | 6.2m/s | -49.1°C | 3.1% | 23.1hPa | 2.7V | 00:00:00 | 01:54:06 | 00:00:00 | |
| DL1NUX | 2026-09-05 00:23:47 | 52.87906 | 11.91399 | 153° | 22km/h | 25935m | 5.6m/s | -49.1°C | 3.1% | 23.3hPa | 2.7V | 03:32:38 | 01:54:00 | 00:00:00 | |
| AA1-15 | 2026-09-05 00:23:47 | 52.87886 | 11.91427 | 137° | 22km/h | 25963m | 6.5m/s | -49.1°C | 0% | 23.2hPa | 2.7V | 03:32:44 | 01:54:05 | 00:00:00 | |
| DL1XH-west | 2026-09-05 00:23:45 | 52.87893 | 11.91414 | 129° | 20km/h | 25952m | 4.7m/s | -49.1°C | 0% | 23.3hPa | 2.6V | 03:32:44 | 01:54:03 | 00:00:00 | |
| DO2SHX-10 | 2026-09-05 00:23:44 | 52.87897 | 11.91408 | 138° | 20km/h | 25947m | 5.8m/s | -49.1°C | 3.1% | 23.2hPa | 2.6V | 00:00:00 | 01:54:02 | 00:00:00 | |
| DM0DOS-11 | 2026-09-05 00:23:43 | 52.87926 | 11.91378 | 153° | 26km/h | 25913m | 4.1m/s | -49.1°C | 3.1% | 23.4hPa | 2.6V | 03:32:42 | 01:53:56 | 00:00:00 | |
| DF8AY | 2026-09-05 00:23:42 | 52.87905 | 11.91399 | 153° | 22km/h | 25935m | 5.6m/s | -49.1°C | 0% | 23.3hPa | 2.7V | 03:32:44 | 01:54:00 | 00:00:00 | |
| DB0DAN | 2026-09-05 00:23:40 | 52.87916 | 11.91389 | 146° | 24km/h | 25923m | 5.9m/s | -49.1°C | 0.7% | 23.35hPa | 2.6V | 00:00:00 | 00:00:00 | 00:00:00 | |
| DL1XH-15 | 2026-09-05 00:23:38 | 52.87933 | 11.91374 | 162° | 24km/h | 25908m | 6.6m/s | -49.1°C | 3.1% | 23.4hPa | 2.7V | 03:32:43 | 01:53:55 | 00:00:00 | |
| DL1XH1-15 | 2026-09-05 00:23:38 | 52.87953 | 11.91369 | 158° | 18km/h | 25885m | 6.1m/s | -49.2°C | 3.1% | 23.5hPa | 2.6V | 03:32:47 | 01:53:51 | 00:00:00 | |
| AA1-15 | 2026-09-05 00:23:36 | 52.87938 | 11.91372 | 173° | 22km/h | 25901m | 6.7m/s | -49.1°C | 0% | 23.5hPa | 2.7V | 03:32:44 | 01:53:54 | 00:00:00 | |
| DL1XH-west | 2026-09-05 00:23:34 | 52.87948 | 11.91371 | 173° | 18km/h | 25891m | 4.8m/s | -49.1°C | 0% | 23.4hPa | 2.6V | 03:33:35 | 01:53:52 | 00:00:00 | |
| DM0DOS-11 | 2026-09-05 00:23:33 | 52.87970 | 11.91333 | 123° | 22km/h | 25856m | 5.7m/s | -49.3°C | 3.1% | 23.6hPa | 2.6V | 03:32:52 | 01:53:46 | 00:00:00 | |
| BIOWL1-15 | 2026-09-05 00:23:33 | 52.87953 | 11.91369 | 159° | 18km/h | 25885m | 6.1m/s | -49.2°C | 0% | 23.5hPa | 2.6V | 03:33:35 | 01:53:51 | 00:00:00 | |
| DF8AY | 2026-09-05 00:23:32 | 52.87973 | 11.91326 | 130° | 22km/h | 25850m | 5.5m/s | -49.3°C | 0% | 23.6hPa | 2.6V | 03:33:35 | 01:53:45 | 00:00:00 | |
| GOEST3-10 | 2026-09-05 00:23:31 | 52.87960 | 11.91358 | 128° | 24km/h | 25873m | 5.7m/s | -49.2°C | 3.1% | 23.5hPa | 2.6V | 03:32:00 | 00:00:00 | 00:00:00 | |
| DO2SHX-10 | 2026-09-05 00:23:29 | 52.87967 | 11.91341 | 120° | 22km/h | 25863m | 6.2m/s | -49.2°C | 3.1% | 23.5hPa | 2.6V | 00:00:00 | 01:53:47 | 00:00:00 | |
| DL1XH-15 | 2026-09-05 00:23:28 | 52.87973 | 11.91326 | 130° | 22km/h | 25850m | 5.5m/s | -49.3°C | 3.1% | 23.6hPa | 2.6V | 03:32:53 | 01:53:45 | 00:00:00 | |
| DL1XH1-15 | 2026-09-05 00:23:28 | 52.87994 | 11.91300 | 154° | 33km/h | 25827m | 4.3m/s | -49.3°C | 3.1% | 23.7hPa | 2.6V | 03:32:57 | 01:53:41 | 00:00:00 | |
| DF8AY-15 | 2026-09-05 00:23:28 | 52.87970 | 11.91333 | 124° | 20km/h | 25857m | 5.7m/s | -49.2°C | 3.1% | 23.5hPa | 2.6V | 03:32:00 | 01:53:46 | 00:00:00 | |
| DL1NUX | 2026-09-05 00:23:27 | 52.88002 | 11.91295 | 162° | 33km/h | 25823m | 4.5m/s | -49.3°C | 3.1% | 23.7hPa | 2.6V | 03:32:58 | 01:53:40 | 00:00:00 | |
| DB0DAN | 2026-09-05 00:23:25 | 52.87981 | 11.91313 | 143° | 26km/h | 25839m | 6.5m/s | -49.2°C | 0.7% | 23.63hPa | 2.7V | 00:00:00 | 00:00:00 | 00:00:00 | |
| AA1-15 | 2026-09-05 00:23:25 | 52.87981 | 11.91313 | 143° | 26km/h | 25839m | 6.5m/s | -49.2°C | 0% | 23.6hPa | 2.7V | 03:33:35 | 01:53:43 | 00:00:00 | |
| DL1XH-west | 2026-09-05 00:23:24 | 52.87987 | 11.91307 | 148° | 29km/h | 25832m | 6m/s | -49.3°C | 0% | 23.6hPa | 2.7V | 03:33:35 | 01:53:42 | 00:00:00 | |
| BIOWL1-15 | 2026-09-05 00:23:22 | 52.88017 | 11.91290 | 179° | 27km/h | 25810m | 6.6m/s | -49.4°C | 0% | 23.8hPa | 2.7V | 03:33:35 | 01:53:38 | 00:00:00 | |
| SONCRA | 2026-09-05 00:23:22 | 52.88010 | 11.91292 | 167° | 31km/h | 25817m | 6.4m/s | -49.4°C | 0.7% | 23.7hPa | 2.6V | 00:00:00 | 00:00:00 | 00:00:00 | |
| GOEST3-10 | 2026-09-05 00:23:21 | 52.88010 | 11.91292 | 168° | 24km/h | 25817m | 6.3m/s | -49.3°C | 3.1% | 23.7hPa | 2.6V | 00:00:00 | 00:00:00 | 00:00:00 | |
| DO2SHX-10 | 2026-09-05 00:23:20 | 52.88017 | 11.91290 | 179° | 24km/h | 25811m | 6.5m/s | -49.3°C | 3.1% | 23.7hPa | 2.6V | 00:00:00 | 01:53:38 | 00:00:00 | |
| DL1XH-15 | 2026-09-05 00:23:18 | 52.88033 | 11.91288 | 158° | 18km/h | 25792m | 6.3m/s | -49.4°C | 3.1% | 23.8hPa | 2.6V | 03:33:03 | 01:53:35 | 00:00:00 | |
| DL1XH1-15 | 2026-09-05 00:23:18 | 52.88040 | 11.91272 | 104° | 7km/h | 25769m | 5.5m/s | -49.4°C | 3.2% | 23.9hPa | 2.7V | 03:33:07 | 01:53:31 | 00:00:00 | |
| DL1NUX | 2026-09-05 00:23:17 | 52.88041 | 11.91269 | 128° | 9km/h | 25764m | 3.5m/s | -49.4°C | 3.2% | 23.9hPa | 2.6V | 03:33:08 | 01:53:30 | 00:00:00 | |
| DF8AY | 2026-09-05 00:23:17 | 52.88037 | 11.91284 | 133° | 13km/h | 25786m | 5.3m/s | -49.4°C | 0% | 23.8hPa | 2.6V | 03:33:35 | 01:53:34 | 00:00:00 | |
| AA1-15 | 2026-09-05 00:23:14 | 52.88040 | 11.91276 | 105° | 9km/h | 25775m | 7.2m/s | -49.4°C | 0% | 23.9hPa | 2.7V | 03:33:35 | 01:53:32 | 00:00:00 | |
| DL1XH-west | 2026-09-05 00:23:13 | 52.88040 | 11.91272 | 104° | 9km/h | 25769m | 5.5m/s | -49.4°C | 0% | 23.9hPa | 2.7V | 03:33:35 | 01:53:31 | 00:00:00 | |
| DK7RCA | 2026-09-05 00:23:12 | 52.88040 | 11.91272 | 105° | 9km/h | 25769m | 5.5m/s | -49.4°C | 0% | 0hPa | 2.6V | 00:00:00 | 00:00:00 | 00:00:00 | |
| DB0DAN | 2026-09-05 00:23:10 | 52.88046 | 11.91261 | 139° | 18km/h | 25754m | 6.8m/s | -49.4°C | 0.7% | 23.96hPa | 2.6V | 00:00:00 | 00:00:00 | 00:00:00 | |
| BIOWL1-15 | 2026-09-05 00:23:09 | 52.88050 | 11.91256 | 148° | 24km/h | 25748m | 6.2m/s | -49.4°C | 0% | 24hPa | 2.7V | 03:33:35 | 01:53:27 | 00:00:00 | |
| DL1XH1-15 | 2026-09-05 00:23:08 | 52.88083 | 11.91243 | 159° | 15km/h | 25714m | 6m/s | -49.5°C | 3.2% | 24.1hPa | 2.7V | 03:33:17 | 01:53:21 | 00:00:00 | |
| DO2SHX-10 | 2026-09-05 00:23:08 | 52.88055 | 11.91251 | 156° | 26km/h | 25742m | 5.7m/s | -49.4°C | 3.1% | 24.0hPa | 2.7V | 00:00:00 | 01:53:26 | 00:00:00 | |
| DL1NUX | 2026-09-05 00:23:07 | 52.88086 | 11.91240 | 139° | 15km/h | 25709m | 6m/s | -49.5°C | 3.2% | 24.1hPa | 2.7V | 03:33:18 | 01:53:20 | 00:00:00 | |
| DF8AY | 2026-09-05 00:23:06 | 52.88074 | 11.91244 | 178° | 22km/h | 25724m | 4.5m/s | -49.5°C | 0% | 24.1hPa | 2.6V | 03:33:35 | 01:53:23 | 00:00:00 | |
| AA1-15 | 2026-09-05 00:23:03 | 52.88083 | 11.91243 | 160° | 15km/h | 25714m | 6m/s | -49.5°C | 0% | 24.1hPa | 2.7V | 03:33:35 | 01:53:21 | 00:00:00 | |
| DL1XH-west | 2026-09-05 00:23:02 | 52.88086 | 11.91240 | 140° | 15km/h | 25709m | 6m/s | -49.5°C | 0% | 24.1hPa | 2.7V | 03:33:35 | 01:53:20 | 00:00:00 | |
| BIOWL1-15 | 2026-09-05 00:22:59 | 52.88091 | 11.91223 | 102° | 15km/h | 25694m | 4.9m/s | -49.5°C | 0% | 24.2hPa | 2.6V | 03:33:35 | 01:53:17 | 00:00:00 | |
| DO2SHX-10 | 2026-09-05 00:22:59 | 52.88090 | 11.91223 | 103° | 13km/h | 25694m | 4.8m/s | -49.4°C | 3.2% | 24.1hPa | 2.6V | 03:33:00 | 01:53:17 | 00:00:00 | |
| DL1XH1-15 | 2026-09-05 00:22:58 | 52.88110 | 11.91195 | 154° | 35km/h | 25661m | 5.4m/s | -49.4°C | 3.2% | 24.2hPa | 2.6V | 03:33:27 | 01:53:11 | 00:00:00 | |
| DL4BBY-15 | 2026-09-05 00:22:58 | 52.88091 | 11.91218 | 106° | 24km/h | 25689m | 6.0m/s | -49.9°C | 0% | 0hPa | 2.7V | 00:00:00 | 00:00:00 | 00:00:00 | |
| DL1NUX | 2026-09-05 00:22:57 | 52.88119 | 11.91189 | 158° | 38km/h | 25656m | 5m/s | -49.4°C | 3.2% | 24.3hPa | 2.7V | 03:33:28 | 01:53:10 | 00:00:00 | |
| DB0DAN | 2026-09-05 00:22:55 | 52.88098 | 11.91205 | 150° | 20km/h | 25673m | 5.8m/s | -49.5°C | 0.7% | 24.24hPa | 2.6V | 00:00:00 | 00:00:00 | 00:00:00 | |
| DF8AY | 2026-09-05 00:22:54 | 52.88137 | 11.91179 | 167° | 37km/h | 25644m | 5.6m/s | -49.4°C | 0% | 24.4hPa | 2.7V | 03:33:35 | 01:53:08 | 00:00:00 | |
| DM0DOS-11 | 2026-09-05 00:22:53 | 52.88152 | 11.91173 | 163° | 27km/h | 25635m | 4.3m/s | -49.3°C | 3.1% | 24.4hPa | 2.6V | 03:33:32 | 01:53:06 | 00:00:00 | |
| AA1-15 | 2026-09-05 00:22:52 | 52.88119 | 11.91189 | 158° | 38km/h | 25656m | 5m/s | -49.4°C | 0% | 24.3hPa | 2.7V | 03:33:35 | 01:53:10 | 00:00:00 | |
| DL1XH-west | 2026-09-05 00:22:51 | 52.88128 | 11.91183 | 162° | 38km/h | 25650m | 6.1m/s | -49.4°C | 0% | 24.3hPa | 2.7V | 03:33:35 | 01:53:09 | 00:00:00 | |
| BIOWL1-15 | 2026-09-05 00:22:49 | 52.88152 | 11.91173 | 163° | 27km/h | 25635m | 4.3m/s | -49.3°C | 0% | 24.4hPa | 2.6V | 03:33:35 | 01:53:06 | 00:00:00 | |
| DF8AY-15 | 2026-09-05 00:22:48 | 52.88152 | 11.91173 | 164° | 24km/h | 25636m | 4.2m/s | -49.3°C | 3.1% | 24.4hPa | 2.6V | 00:00:00 | 01:53:06 | 00:00:00 | |
| DL1NUX | 2026-09-05 00:22:47 | 52.88176 | 11.91148 | 164° | 9km/h | 25601m | 6.4m/s | -49.2°C | 3.1% | 24.5hPa | 2.6V | 03:33:38 | 01:53:00 | 00:00:00 | |
| DO2SHX-10 | 2026-09-05 00:22:47 | 52.88158 | 11.91169 | 158° | 24km/h | 25630m | 5.8m/s | -49.2°C | 3.1% | 24.4hPa | 2.6V | 03:33:00 | 01:53:05 | 00:00:00 | |
| SO1NDE-10 | 2026-09-05 00:22:46 | 52.88164 | 11.91164 | 148° | 26km/h | 25625m | 5.9m/s | -49.2°C | 3.1% | 24.4hPa | 2.6V | 03:33:00 | 01:53:04 | 00:00:00 | |
| GOEST3-10 | 2026-09-05 00:22:45 | 52.88168 | 11.91159 | 139° | 13km/h | 25619m | 5.4m/s | -49.2°C | 3.2% | 24.4hPa | 2.6V | 00:00:00 | 01:53:03 | 00:00:00 | |
| DM0DOS-11 | 2026-09-05 00:22:44 | 52.88190 | 11.91144 | 159° | 24km/h | 25580m | 6.2m/s | -49.3°C | 3.1% | 24.6hPa | 2.6V | 03:33:42 | 01:52:56 | 00:00:00 | |
| AA1-15 | 2026-09-05 00:22:42 | 52.88176 | 11.91148 | 164° | 9km/h | 25601m | 6.4m/s | -49.2°C | 0% | 24.5hPa | 2.6V | 03:34:26 | 01:53:00 | 00:00:00 | |
| DL1XH-west | 2026-09-05 00:22:41 | 52.88179 | 11.91147 | 181° | 11km/h | 25596m | 4.9m/s | -49.2°C | 0% | 24.6hPa | 2.6V | 03:34:26 | 01:52:59 | 00:00:00 | |
| DF8AY | 2026-09-05 00:22:40 | 52.88181 | 11.91147 | 178° | 13km/h | 25592m | 4.4m/s | -49.2°C | 0% | 24.6hPa | 2.7V | 03:35:17 | 01:52:58 | 00:00:00 | |
| DB0DAN | 2026-09-05 00:22:40 | 52.88181 | 11.91147 | 178° | 13km/h | 25592m | 4.4m/s | -49.2°C | 0.7% | 24.55hPa | 2.7V | 00:00:00 | 00:00:00 | 00:00:00 | |
| BIOWL1-15 | 2026-09-05 00:22:39 | 52.88190 | 11.91144 | 159° | 24km/h | 25580m | 6.2m/s | -49.3°C | 0% | 24.6hPa | 2.6V | 03:36:08 | 01:52:56 | 00:00:00 | |
| HTAHTA | 2026-09-05 00:22:39 | 52.88190 | 11.91144 | 159° | 24km/h | 25581m | 6.2m/s | -49.3°C | 0.7% | 24.6hPa | 2.7V | 00:00:00 | 00:00:00 | 00:00:00 | |
| DL1XH1-15 | 2026-09-05 00:22:38 | 52.88227 | 11.91115 | 159° | 29km/h | 25553m | 4.5m/s | -49.3°C | 3.1% | 24.7hPa | 2.7V | 03:33:47 | 01:52:51 | 00:00:00 | |
| DO2SHX-10 | 2026-09-05 00:22:38 | 52.88190 | 11.91144 | 160° | 31km/h | 25581m | 6.1m/s | -49.2°C | 3.1% | 24.5hPa | 2.6V | 00:00:00 | 01:52:56 | 00:00:00 | |
| DL1NUX | 2026-09-05 00:22:37 | 52.88233 | 11.91111 | 158° | 27km/h | 25549m | 4.1m/s | -49.3°C | 3.2% | 24.7hPa | 2.6V | 03:33:48 | 01:52:50 | 00:00:00 | |
| SP3BTT-10 | 2026-09-05 00:22:37 | 52.88196 | 11.91139 | 152° | 29km/h | 25575m | 5.3m/s | -49.3°C | 3.1% | 24.6hPa | 2.6V | 00:00:00 | 00:00:00 | 00:00:00 | |
| DD8BA-10 | 2026-09-05 00:22:36 | 52.88204 | 11.91132 | 152° | 27km/h | 25570m | 4.7m/s | -49.3°C | 3.2% | 24.6hPa | 2.6V | 00:00:00 | 00:00:00 | 00:00:00 | |
| DO2SHX-10 | 2026-09-05 00:22:35 | 52.88212 | 11.91125 | 155° | 31km/h | 25564m | 5.6m/s | -49.3°C | 3.1% | 24.6hPa | 2.7V | 03:33:00 | 01:52:53 | 00:00:00 | |
| DL1ZP-14 | 2026-09-05 00:22:34 | 52.88227 | 11.91115 | 159° | 27km/h | 25553m | 4.5m/s | -49.3°C | 0.7% | 24.7hPa | 2.7V | 00:00:00 | 00:00:00 | 00:00:00 | |
| DM0DOS-11 | 2026-09-05 00:22:33 | 52.88255 | 11.91093 | 159° | 22km/h | 25528m | 5.2m/s | -49.3°C | 3.1% | 24.8hPa | 2.7V | 03:33:52 | 01:52:46 | 00:00:00 | |
| AA1-15 | 2026-09-05 00:22:31 | 52.88239 | 11.91107 | 153° | 24km/h | 25544m | 6m/s | -49.3°C | 0% | 24.8hPa | 2.6V | 03:34:26 | 01:52:49 | 00:00:00 | |
| DL1XH-west | 2026-09-05 00:22:30 | 52.88244 | 11.91102 | 148° | 24km/h | 25538m | 5.5m/s | -49.3°C | 0% | 24.8hPa | 2.6V | 03:34:26 | 01:52:48 | 00:00:00 | |
| DF8AY | 2026-09-05 00:22:29 | 52.88249 | 11.91097 | 150° | 22km/h | 25532m | 4.5m/s | -49.3°C | 0% | 24.8hPa | 2.7V | 03:35:17 | 01:52:47 | 00:00:00 | |
| DO2SHX-10 | 2026-09-05 00:22:29 | 52.88249 | 11.91097 | 150° | 24km/h | 25533m | 4.5m/s | -49.2°C | 3.1% | 24.7hPa | 2.7V | 00:00:00 | 01:52:47 | 00:00:00 | |
| DL1XH-15 | 2026-09-05 00:22:28 | 52.88260 | 11.91090 | 167° | 26km/h | 25522m | 6.5m/s | -49.2°C | 3.1% | 24.8hPa | 2.7V | 03:33:53 | 01:52:45 | 00:00:00 | |
| BIOWL1-15 | 2026-09-05 00:22:27 | 52.88260 | 11.91090 | 168° | 26km/h | 25522m | 6.6m/s | -49.2°C | 0% | 24.8hPa | 2.7V | 03:36:08 | 01:52:45 | 00:00:00 | |
| DB0DAN | 2026-09-05 00:22:25 | 52.88274 | 11.91086 | 171° | 29km/h | 25511m | 4.7m/s | -49.2°C | 0.7% | 24.85hPa | 2.6V | 00:00:00 | 00:00:00 | 00:00:00 | |
| GOEST3-10 | 2026-09-05 00:22:25 | 52.88274 | 11.91086 | 171° | 33km/h | 25511m | 4.6m/s | -49.2°C | 3.1% | 24.8hPa | 2.6V | 00:00:00 | 01:52:43 | 00:00:00 | |
| S3001 | 2026-09-05 00:22:24 | 52.88289 | 11.91079 | 156° | 33km/h | 25500m | 6.4m/s | -49.2°C | 0.7% | 24.9hPa | 2.7V | 00:00:00 | 00:00:00 | 00:00:00 | |
| DM0DOS-11 | 2026-09-05 00:22:23 | 52.88324 | 11.91048 | 164° | 26km/h | 25473m | 5.6m/s | -49.2°C | 3.1% | 25hPa | 2.7V | 03:34:02 | 01:52:36 | 00:00:00 | |
| DO3MHA-11 | 2026-09-05 00:22:23 | 52.88289 | 11.91079 | 157° | 26km/h | 25500m | 6.4m/s | -49.2°C | 3.1% | 24.8hPa | 2.7V | 00:00:00 | 01:52:41 | 00:00:00 | |
| DL1XH-15 | 2026-09-05 00:22:21 | 52.88330 | 11.91046 | 165° | 22km/h | 25467m | 5m/s | -49.2°C | 3.1% | 25hPa | 2.6V | 03:34:03 | 01:52:35 | 00:00:00 | |
| AA1-15 | 2026-09-05 00:22:21 | 52.88304 | 11.91065 | 146° | 33km/h | 25489m | 4.5m/s | -49.2°C | 0% | 25hPa | 2.6V | 03:34:26 | 01:52:39 | 00:00:00 | |
| DL1XH-west | 2026-09-05 00:22:20 | 52.88311 | 11.91058 | 149° | 33km/h | 25484m | 6.1m/s | -49.2°C | 0% | 25hPa | 2.6V | 03:34:26 | 01:52:38 | 00:00:00 | |
| DF8AY | 2026-09-05 00:22:18 | 52.88324 | 11.91048 | 165° | 26km/h | 25473m | 5.6m/s | -49.2°C | 0% | 25hPa | 2.7V | 03:35:17 | 01:52:36 | 00:00:00 | |
| SMARD9-15 | 2026-09-05 00:22:18 | 52.88330 | 11.91046 | 165° | 22km/h | 25468m | 5.0m/s | -49.2°C | 0.7% | 25.0hPa | 2.7V | 00:00:00 | 00:00:00 | 00:00:00 | |
| DL1NUX | 2026-09-05 00:22:17 | 52.88351 | 11.91032 | 167° | 18km/h | 25439m | 6.3m/s | -49.1°C | 3% | 25.1hPa | 2.7V | 03:34:08 | 01:52:30 | 00:00:00 | |
| BIOWL1-15 | 2026-09-05 00:22:14 | 52.88386 | 11.91009 | 148° | 29km/h | 25408m | 4.9m/s | -49.2°C | 0% | 25.3hPa | 2.6V | 03:36:08 | 01:52:24 | 00:00:00 | |
| DO2SHX-10 | 2026-09-05 00:22:14 | 52.88343 | 11.91037 | 154° | 16km/h | 25450m | 4.9m/s | -49.1°C | 3.0% | 25.0hPa | 2.7V | 00:00:00 | 01:52:32 | 00:00:00 | |
| DM0DOS-11 | 2026-09-05 00:22:13 | 52.88374 | 11.91021 | 151° | 27km/h | 25418m | 6.4m/s | -49.2°C | 3.1% | 25.2hPa | 2.7V | 03:34:12 | 01:52:26 | 00:00:00 | |
| DO3MHA-11 | 2026-09-05 00:22:13 | 52.88347 | 11.91034 | 158° | 24km/h | 25445m | 5.0m/s | -49.1°C | 3.0% | 25.1hPa | 2.6V | 00:00:00 | 01:52:31 | 00:00:00 | |
| DF7ER-10 | 2026-09-05 00:22:11 | 52.88351 | 11.91032 | 168° | 18km/h | 25440m | 6.3m/s | -49.1°C | 0.7% | 25.1hPa | 2.6V | 03:34:00 | 00:00:00 | 00:00:00 | |
| DB0DAN | 2026-09-05 00:22:10 | 52.88361 | 11.91029 | 167° | 22km/h | 25429m | 4.3m/s | -49.2°C | 0.7% | 25.17hPa | 2.6V | 00:00:00 | 00:00:00 | 00:00:00 | |
| DL1XH-west | 2026-09-05 00:22:10 | 52.88361 | 11.91029 | 167° | 22km/h | 25429m | 4.3m/s | -49.2°C | 0% | 25.2hPa | 2.6V | 03:34:26 | 01:52:28 | 00:00:00 | |
| DL1XH-15 | 2026-09-05 00:22:08 | 52.88380 | 11.91015 | 147° | 27km/h | 25412m | 5m/s | -49.2°C | 3.1% | 25.2hPa | 2.6V | 03:34:13 | 01:52:25 | 00:00:00 | |
| DL1XH1-15 | 2026-09-05 00:22:08 | 52.88403 | 11.90996 | 158° | 20km/h | 25391m | 4.3m/s | -49.2°C | 3% | 25.3hPa | 2.7V | 03:34:17 | 01:52:21 | 00:00:00 | |
| DF8AY | 2026-09-05 00:22:07 | 52.88380 | 11.91015 | 148° | 27km/h | 25412m | 5m/s | -49.2°C | 0% | 25.2hPa | 2.6V | 03:35:17 | 01:52:25 | 00:00:00 | |
| DD8BA-10 | 2026-09-05 00:22:06 | 52.88386 | 11.91009 | 149° | 18km/h | 25408m | 4.8m/s | -49.2°C | 3.1% | 25.2hPa | 2.6V | 00:00:00 | 00:00:00 | 00:00:00 | |
| DO2SHX-10 | 2026-09-05 00:22:05 | 52.88392 | 11.91003 | 153° | 24km/h | 25402m | 6.7m/s | -49.2°C | 3.1% | 25.2hPa | 2.6V | 00:00:00 | 01:52:23 | 00:00:00 | |
| GOEST3-10 | 2026-09-05 00:22:04 | 52.88397 | 11.90999 | 160° | 16km/h | 25396m | 5.2m/s | -49.2°C | 3.1% | 25.3hPa | 2.6V | 00:00:00 | 01:52:22 | 00:00:00 | |
| DL1ZP-14 | 2026-09-05 00:22:03 | 52.88407 | 11.90992 | 148° | 15km/h | 25386m | 5.4m/s | -49.3°C | 0.7% | 25.3hPa | 2.6V | 00:00:00 | 00:00:00 | 00:00:00 | |
| DM0DOS-11 | 2026-09-05 00:22:02 | 52.88416 | 11.90976 | 136° | 13km/h | 25363m | 6.5m/s | -49.5°C | 3.1% | 25.4hPa | 2.7V | 03:34:22 | 01:52:16 | 00:00:00 | |
| DO2SHX-10 | 2026-09-05 00:22:02 | 52.88407 | 11.90992 | 149° | 15km/h | 25386m | 5.4m/s | -49.2°C | 3.0% | 25.3hPa | 2.7V | 00:00:00 | 01:52:20 | 00:00:00 | |
| DL1XH-15 | 2026-09-05 00:22:01 | 52.88419 | 11.90973 | 146° | 15km/h | 25357m | 5.9m/s | -49.6°C | 3.2% | 25.5hPa | 2.7V | 03:34:23 | 01:52:15 | 00:00:00 | |
| DL1XH-west | 2026-09-05 00:21:59 | 52.88414 | 11.90980 | 131° | 13km/h | 25369m | 5.4m/s | -49.5°C | 0% | 25.4hPa | 2.7V | 03:34:26 | 01:52:17 | 00:00:00 | |
| DO2SHX-10 | 2026-09-05 00:21:59 | 52.88414 | 11.90980 | 131° | 13km/h | 25369m | 5.4m/s | -49.4°C | 3.1% | 25.4hPa | 2.7V | 03:34:00 | 01:52:17 | 00:00:00 | |
| DL1XH1-15 | 2026-09-05 00:21:58 | 52.88436 | 11.90952 | 128° | 26km/h | 25337m | 6.5m/s | -49.6°C | 3.2% | 25.5hPa | 2.7V | 03:34:27 | 01:52:11 | 00:00:00 | |
| DL4BBY-15 | 2026-09-05 00:21:58 | 52.88417 | 11.90976 | 137° | 29km/h | 25364m | 6.4m/s | -49.9°C | 0% | 0hPa | 2.7V | 00:00:00 | 00:00:00 | 00:00:00 | |
| DL1NUX | 2026-09-05 00:21:57 | 52.88440 | 11.90942 | 123° | 29km/h | 25331m | 6m/s | -49.6°C | 3.2% | 25.6hPa | 2.7V | 03:34:28 | 01:52:10 | 00:00:00 | |
| BIOWL1-15 | 2026-09-05 00:21:57 | 52.88419 | 11.90973 | 147° | 15km/h | 25357m | 5.9m/s | -49.6°C | 0% | 25.5hPa | 2.7V | 03:36:08 | 01:52:15 | 00:00:00 | |
| DK7RCA | 2026-09-05 00:21:56 | 52.88419 | 11.90973 | 148° | 15km/h | 25358m | 5.9m/s | -49.6°C | 0% | 0hPa | 2.6V | 00:00:00 | 00:00:00 | 00:00:00 | |
| DB0DAN | 2026-09-05 00:21:55 | 52.88427 | 11.90965 | 146° | 20km/h | 25348m | 4m/s | -49.6°C | 0.7% | 25.51hPa | 2.6V | 00:00:00 | 00:00:00 | 00:00:00 | |
| GOEST3-10 | 2026-09-05 00:21:54 | 52.88431 | 11.90959 | 139° | 29km/h | 25344m | 5.7m/s | -49.6°C | 3.1% | 25.5hPa | 2.6V | 00:00:00 | 01:52:12 | 00:00:00 | |
| DM0DOS-11 | 2026-09-05 00:21:53 | 52.88459 | 11.90902 | 129° | 27km/h | 25308m | 3.8m/s | -49.5°C | 3.1% | 25.6hPa | 2.7V | 03:34:32 | 01:52:06 | 00:00:00 | |
| AA1-15 | 2026-09-05 00:21:49 | 52.88454 | 11.90911 | 133° | 29km/h | 25312m | 5.7m/s | -49.5°C | 0% | 25.6hPa | 2.7V | 03:35:17 | 01:52:07 | 00:00:00 | |
| GOEST3-10 | 2026-09-05 00:21:49 | 52.88454 | 11.90911 | 133° | 24km/h | 25313m | 5.6m/s | -49.5°C | 3.2% | 25.6hPa | 2.6V | 03:34:00 | 00:00:00 | 00:00:00 | |
| DL1XH-15 | 2026-09-05 00:21:48 | 52.88463 | 11.90893 | 121° | 24km/h | 25303m | 4.8m/s | -49.5°C | 3.1% | 25.6hPa | 2.6V | 03:34:33 | 01:52:05 | 00:00:00 | |
| DL1XH-west | 2026-09-05 00:21:48 | 52.88459 | 11.90902 | 130° | 27km/h | 25308m | 3.8m/s | -49.5°C | 0% | 25.6hPa | 2.7V | 03:35:17 | 01:52:06 | 00:00:00 | |
| DF8AY-15 | 2026-09-05 00:21:48 | 52.88459 | 11.90902 | 130° | 33km/h | 25308m | 3.8m/s | -49.5°C | 3.1% | 25.6hPa | 2.7V | 00:00:00 | 01:52:06 | 00:00:00 | |
| DL1NUX | 2026-09-05 00:21:47 | 52.88473 | 11.90857 | 135° | 20km/h | 25276m | 6.1m/s | -49.9°C | 3.2% | 25.8hPa | 2.7V | 03:34:38 | 01:52:00 | 00:00:00 | |
| DF8AY | 2026-09-05 00:21:46 | 52.88466 | 11.90885 | 112° | 20km/h | 25297m | 6.2m/s | -49.6°C | 0% | 25.7hPa | 2.6V | 03:35:17 | 01:52:04 | 00:00:00 | |
| BIOWL1-15 | 2026-09-05 00:21:45 | 52.88483 | 11.90844 | 143° | 31km/h | 25266m | 4.4m/s | -50°C | 0% | 25.8hPa | 2.6V | 03:36:08 | 01:51:58 | 00:00:00 | |
| SP3WXH-11 | 2026-09-05 00:21:45 | 52.88469 | 11.90869 | 104° | 16km/h | 25286m | 4.3m/s | -49.8°C | 0.7% | 25.7hPa | 2.7V | 00:00:00 | 00:00:00 | 00:00:00 | |
| DO2SHX-10 | 2026-09-05 00:21:44 | 52.88469 | 11.90869 | 105° | 18km/h | 25287m | 4.3m/s | -49.7°C | 3.1% | 25.7hPa | 2.7V | 00:00:00 | 01:52:02 | 00:00:00 | |
| DO3MHA-11 | 2026-09-05 00:21:43 | 52.88471 | 11.90862 | 119° | 37km/h | 25282m | 4.6m/s | -49.8°C | 3.2% | 25.7hPa | 2.7V | 00:00:00 | 01:52:01 | 00:00:00 | |
| DF2AP-13 | 2026-09-05 00:21:42 | 52.88473 | 11.90857 | 136° | 31km/h | 25276m | 6.0m/s | -49.9°C | 3.2% | 25.7hPa | 2.7V | 00:00:00 | 01:52:00 | 00:00:00 | |
| DM0DOS-11 | 2026-09-05 00:21:41 | 52.88497 | 11.90823 | 131° | 40km/h | 25255m | 5.9m/s | -50°C | 3.2% | 25.9hPa | 2.7V | 03:34:42 | 01:51:56 | 00:00:00 | |
| DB0DAN | 2026-09-05 00:21:40 | 52.88483 | 11.90844 | 143° | 29km/h | 25266m | 4.4m/s | -50°C | 0.7% | 25.8hPa | 2.6V | 00:00:00 | 00:00:00 | 00:00:00 | |
| AA1-15 | 2026-09-05 00:21:39 | 52.88490 | 11.90835 | 139° | 37km/h | 25261m | 5.4m/s | -50°C | 0% | 25.8hPa | 2.6V | 03:35:17 | 01:51:57 | 00:00:00 | |
| DL1XH-west | 2026-09-05 00:21:38 | 52.88497 | 11.90823 | 131° | 40km/h | 25255m | 5.9m/s | -50.1°C | 0% | 25.9hPa | 2.7V | 03:35:17 | 01:51:56 | 00:00:00 | |
| DF8AY | 2026-09-05 00:21:35 | 52.88516 | 11.90776 | 118° | 49km/h | 25239m | 4.4m/s | -50.1°C | 0% | 25.9hPa | 2.6V | 03:35:17 | 01:51:53 | 00:00:00 | |
| DO2SHX-10 | 2026-09-05 00:21:35 | 52.88516 | 11.90775 | 119° | 47km/h | 25239m | 4.3m/s | -50.1°C | 3.2% | 25.9hPa | 2.7V | 03:34:00 | 01:51:53 | 00:00:00 | |
| EDDB2-12 | 2026-09-05 00:21:34 | 52.88528 | 11.90742 | 123° | 44km/h | 25229m | 5.5m/s | -50.1°C | 0.7% | 26.0hPa | 2.7V | 00:00:00 | 00:00:00 | 00:00:00 | |
| DM0DOS-11 | 2026-09-05 00:21:33 | 52.88546 | 11.90677 | 105° | 24km/h | 25201m | 5.3m/s | -50.3°C | 3.3% | 26.1hPa | 2.7V | 03:34:52 | 01:51:46 | 00:00:00 | |
| BIOWL1-15 | 2026-09-05 00:21:33 | 52.88528 | 11.90742 | 123° | 44km/h | 25228m | 5.5m/s | -50.1°C | 0% | 26hPa | 2.7V | 03:36:08 | 01:51:51 | 00:00:00 | |
| AA1-15 | 2026-09-05 00:21:28 | 52.88546 | 11.90677 | 105° | 24km/h | 25201m | 5.3m/s | -50.3°C | 0.1% | 26.1hPa | 2.7V | 03:35:17 | 01:51:46 | 00:00:00 | |
| DL1XH-15 | 2026-09-05 00:21:28 | 52.88548 | 11.90669 | 110° | 20km/h | 25196m | 6.6m/s | -50.3°C | 3.3% | 26.1hPa | 2.7V | 03:34:53 | 01:51:45 | 00:00:00 | |
| DL1XH-west | 2026-09-05 00:21:27 | 52.88548 | 11.90669 | 110° | 20km/h | 25196m | 6.6m/s | -50.3°C | 0% | 26.1hPa | 2.7V | 03:35:17 | 01:51:45 | 00:00:00 | |
| DB0DAN | 2026-09-05 00:21:25 | 52.88552 | 11.90655 | 126° | 18km/h | 25185m | 4m/s | -50.4°C | 0.8% | 26.15hPa | 2.6V | 00:00:00 | 00:00:00 | 00:00:00 | |
| DF8AY | 2026-09-05 00:21:25 | 52.88555 | 11.90648 | 124° | 22km/h | 25180m | 4.9m/s | -50.4°C | 0.1% | 26.1hPa | 2.6V | 03:35:17 | 01:51:42 | 00:00:00 | |
| BIOWL1-15 | 2026-09-05 00:21:23 | 52.88563 | 11.90620 | 109° | 29km/h | 25165m | 4.2m/s | -50.4°C | 0.1% | 26.2hPa | 2.6V | 03:36:08 | 01:51:39 | 00:00:00 | |
| S3001 | 2026-09-05 00:21:22 | 52.88563 | 11.90620 | 109° | 29km/h | 25165m | 4.2m/s | -50.4°C | 0.8% | 26.2hPa | 2.6V | 00:00:00 | 00:00:00 | 00:00:00 | |
| DL1XH-15 | 2026-09-05 00:21:21 | 52.88575 | 11.90577 | 122° | 26km/h | 25144m | 5m/s | -50.4°C | 3.3% | 26.3hPa | 2.6V | 03:35:03 | 01:51:35 | 00:00:00 | |
| AA1-15 | 2026-09-05 00:21:17 | 52.88575 | 11.90577 | 122° | 26km/h | 25144m | 5m/s | -50.4°C | 0.1% | 26.3hPa | 2.6V | 03:35:17 | 01:51:35 | 00:00:00 | |
| DL1XH1-15 | 2026-09-05 00:21:17 | 52.88584 | 11.90535 | 97° | 31km/h | 25123m | 5.3m/s | -50.4°C | 3.3% | 26.4hPa | 2.7V | 03:35:07 | 01:51:31 | 00:00:00 | |
| DL1XH-west | 2026-09-05 00:21:16 | 52.88579 | 11.90568 | 116° | 24km/h | 25138m | 4.3m/s | -50.4°C | 0.1% | 26.3hPa | 2.6V | 03:35:17 | 01:51:34 | 00:00:00 | |
| DF8AY | 2026-09-05 00:21:13 | 52.88584 | 11.90535 | 97° | 31km/h | 25123m | 5.3m/s | -50.4°C | 0% | 26.4hPa | 2.7V | 03:35:17 | 01:51:31 | 00:00:00 | |
| DO3MHA-11 | 2026-09-05 00:21:13 | 52.88584 | 11.90535 | 98° | 18km/h | 25124m | 5.3m/s | -50.4°C | 3.3% | 26.3hPa | 2.7V | 03:35:00 | 01:51:31 | 00:00:00 | |
| DM0DOS-11 | 2026-09-05 00:21:12 | 52.88592 | 11.90480 | 111° | 20km/h | 25098m | 4.3m/s | -50.4°C | 3.3% | 26.5hPa | 2.7V | 03:35:12 | 01:51:26 | 00:00:00 | |
| BIOWL1-15 | 2026-09-05 00:21:10 | 52.88588 | 11.90498 | 108° | 26km/h | 25107m | 5.2m/s | -50.4°C | 0.1% | 26.5hPa | 2.6V | 03:36:08 | 01:51:28 | 00:00:00 | |
| DB0DAN | 2026-09-05 00:21:10 | 52.88588 | 11.90498 | 108° | 26km/h | 25107m | 5.2m/s | -50.4°C | 0.8% | 26.47hPa | 2.6V | 00:00:00 | 00:00:00 | 00:00:00 | |
| AA1-15 | 2026-09-05 00:21:08 | 52.88594 | 11.90472 | 105° | 20km/h | 25093m | 5.9m/s | -50.4°C | 0.1% | 26.5hPa | 2.7V | 03:35:17 | 01:51:25 | 00:00:00 | |
| DL1XH1-15 | 2026-09-05 00:21:07 | 52.88594 | 11.90448 | 84° | 9km/h | 25071m | 6.6m/s | -50.4°C | 3.3% | 26.6hPa | 2.7V | 03:35:17 | 01:51:21 | 00:00:00 | |
| DL1XH-west | 2026-09-05 00:21:06 | 52.88595 | 11.90464 | 96° | 18km/h | 25087m | 5.4m/s | -50.4°C | 0.1% | 26.5hPa | 2.6V | 03:35:17 | 01:51:24 | 00:00:00 | |
| DF8AY | 2026-09-05 00:21:02 | 52.88595 | 11.90444 | 112° | 7km/h | 25066m | 5.4m/s | -50.3°C | 0% | 26.6hPa | 2.6V | 03:36:08 | 01:51:20 | 00:00:00 | |
| DO2SHX-10 | 2026-09-05 00:21:02 | 52.88595 | 11.90444 | 113° | 11km/h | 25066m | 5.3m/s | -50.3°C | 3.3% | 26.6hPa | 2.6V | 00:00:00 | 01:51:20 | 00:00:00 | |
| DL1XH-15 | 2026-09-05 00:21:01 | 52.88600 | 11.90406 | 94° | 31km/h | 25038m | 4.2m/s | -50.2°C | 3.2% | 26.7hPa | 2.7V | 03:35:23 | 01:51:15 | 00:00:00 | |
| DM0DOS-11 | 2026-09-05 00:21:01 | 52.88599 | 11.90419 | 95° | 29km/h | 25043m | 5.5m/s | -50.2°C | 3.2% | 26.7hPa | 2.7V | 03:35:22 | 01:51:16 | 00:00:00 | |
| DL1ZP-14 | 2026-09-05 00:21:00 | 52.88597 | 11.90436 | 110° | 15km/h | 25056m | 5.2m/s | -50.3°C | 0.7% | 26.7hPa | 2.6V | 00:00:00 | 00:00:00 | 00:00:00 | |
| DO2SHX-10 | 2026-09-05 00:20:59 | 52.88598 | 11.90429 | 104° | 27km/h | 25050m | 6.9m/s | -50.2°C | 3.3% | 26.6hPa | 2.7V | 03:35:00 | 01:51:17 | 00:00:00 | |
| DL4BBY-15 | 2026-09-05 00:20:58 | 52.88599 | 11.90419 | 96° | 15km/h | 25044m | 5.5m/s | -50.7°C | 0% | 0hPa | 2.7V | 00:00:00 | 00:00:00 | 00:00:00 | |
| DL1XH1-15 | 2026-09-05 00:20:57 | 52.88604 | 11.90363 | 106° | 15km/h | 25019m | 5.2m/s | -50.3°C | 3.2% | 26.8hPa | 2.7V | 03:35:27 | 01:51:11 | 00:00:00 | |
| DL1XH-west | 2026-09-05 00:20:56 | 52.88601 | 11.90393 | 95° | 31km/h | 25034m | 4.3m/s | -50.2°C | 0% | 26.8hPa | 2.6V | 03:36:08 | 01:51:14 | 00:00:00 | |
| DB0DAN | 2026-09-05 00:20:55 | 52.88602 | 11.90381 | 102° | 27km/h | 25029m | 5.4m/s | -50.3°C | 0.8% | 26.77hPa | 2.6V | 00:00:00 | 00:00:00 | 00:00:00 | |
| DD8BA-10 | 2026-09-05 00:20:54 | 52.88603 | 11.90371 | 103° | 11km/h | 25024m | 5.3m/s | -50.2°C | 3.3% | 26.7hPa | 2.7V | 00:00:00 | 00:00:00 | 00:00:00 | |
| DM0DOS-11 | 2026-09-05 00:20:53 | 52.88602 | 11.90348 | 72° | 7km/h | 24994m | 4.4m/s | -50.3°C | 3.2% | 26.9hPa | 2.7V | 03:35:32 | 01:51:06 | 00:00:00 | |
| BIOWL1-15 | 2026-09-05 00:20:53 | 52.88605 | 11.90353 | 54° | 7km/h | 25003m | 4.9m/s | -50.3°C | 0% | 26.9hPa | 2.6V | 03:36:08 | 01:51:08 | 00:00:00 | |
| DF8AY | 2026-09-05 00:20:51 | 52.88605 | 11.90355 | 77° | 5km/h | 25009m | 5.7m/s | -50.3°C | 0% | 26.9hPa | 2.6V | 03:36:08 | 01:51:09 | 00:00:00 | |
| S3001 | 2026-09-05 00:20:51 | 52.88605 | 11.90353 | 53° | 5km/h | 25003m | 4.9m/s | -50.3°C | 0.7% | 26.9hPa | 2.7V | 00:00:00 | 00:00:00 | 00:00:00 | |
| DJ2DS-15 | 2026-09-05 00:20:50 | 52.88603 | 11.90351 | 49° | 7km/h | 24998m | 4.2m/s | -50.3°C | 0.7% | 26.9hPa | 2.7V | 00:00:00 | 00:00:00 | 00:00:00 | |
| GOEST3-10 | 2026-09-05 00:20:49 | 52.88603 | 11.90351 | 50° | 11km/h | 24998m | 4.1m/s | -50.2°C | 3.2% | 26.8hPa | 2.7V | 03:35:00 | 00:00:00 | 00:00:00 | |
| DL1XH-15 | 2026-09-05 00:20:48 | 52.88602 | 11.90344 | 102° | 7km/h | 24988m | 5.8m/s | -50.4°C | 3.2% | 26.9hPa | 2.7V | 03:35:33 | 01:51:05 | 00:00:00 | |
| DF8AY-15 | 2026-09-05 00:20:48 | 52.88603 | 11.90347 | 73° | 13km/h | 24994m | 4.4m/s | -50.3°C | 3.2% | 26.9hPa | 2.7V | 03:35:00 | 01:51:06 | 00:00:00 | |
| DL1NUX | 2026-09-05 00:20:47 | 52.88607 | 11.90311 | 79° | 24km/h | 24963m | 5.6m/s | -50.8°C | 3.3% | 27hPa | 2.7V | 03:35:38 | 01:51:00 | 00:00:00 | |
| AA1-15 | 2026-09-05 00:20:46 | 52.88603 | 11.90340 | 118° | 13km/h | 24983m | 5.7m/s | -50.5°C | 0% | 26.9hPa | 2.7V | 03:36:08 | 01:51:04 | 00:00:00 | |
| DL1XH1-15 | 2026-09-05 00:20:46 | 52.88607 | 11.90320 | 94° | 22km/h | 24968m | 6m/s | -50.7°C | 3.3% | 27hPa | 2.6V | 03:35:37 | 01:51:01 | 00:00:00 | |
| DL1XH-west | 2026-09-05 00:20:45 | 52.88605 | 11.90335 | 121° | 15km/h | 24977m | 4.3m/s | -50.6°C | 0.1% | 27hPa | 2.6V | 03:36:08 | 01:51:03 | 00:00:00 | |
| SMARD9-15 | 2026-09-05 00:20:45 | 52.88607 | 11.90328 | 101° | 18km/h | 24973m | 4.1m/s | -50.7°C | 0.8% | 27.0hPa | 2.6V | 00:00:00 | 00:00:00 | 00:00:00 | |
| DO2SHX-10 | 2026-09-05 00:20:44 | 52.88606 | 11.90328 | 102° | 22km/h | 24973m | 4.1m/s | -50.6°C | 3.3% | 26.9hPa | 2.6V | 00:00:00 | 01:51:02 | 00:00:00 | |
| BUE01 | 2026-09-05 00:20:43 | 52.88607 | 11.90311 | 79° | 22km/h | 24963m | 5.6m/s | -50.8°C | 0.8% | 27.0hPa | 2.6V | 00:00:00 | 00:00:00 | 00:00:00 | |
| DM0DOS-11 | 2026-09-05 00:20:41 | 52.88599 | 11.90283 | 35° | 9km/h | 24941m | 5.6m/s | -50.8°C | 3.4% | 27.1hPa | 2.6V | 03:35:42 | 01:50:56 | 00:00:00 | |
| DB0DAN | 2026-09-05 00:20:40 | 52.88604 | 11.90293 | 66° | 18km/h | 24953m | 5m/s | -50.8°C | 0.8% | 27.07hPa | 2.7V | 00:00:00 | 00:00:00 | 00:00:00 | |
| BIOWL1-15 | 2026-09-05 00:20:40 | 52.88604 | 11.90293 | 66° | 20km/h | 24953m | 5m/s | -50.8°C | 0.1% | 27.1hPa | 2.7V | 03:36:08 | 01:50:58 | 00:00:00 | |
| GOEST3-10 | 2026-09-05 00:20:39 | 52.88601 | 11.90287 | 54° | 9km/h | 24948m | 6.2m/s | -50.7°C | 3.4% | 27.0hPa | 2.6V | 00:00:00 | 00:00:00 | 00:00:00 | |
| DL1XH-15 | 2026-09-05 00:20:38 | 52.88597 | 11.90282 | 2° | 5km/h | 24936m | 5.5m/s | -50.8°C | 3.4% | 27.1hPa | 2.6V | 03:35:43 | 01:50:55 | 00:00:00 | |
| DO2SHX-10 | 2026-09-05 00:20:38 | 52.88599 | 11.90283 | 36° | 7km/h | 24942m | 5.6m/s | -50.8°C | 3.4% | 27.1hPa | 2.6V | 00:00:00 | 01:50:56 | 00:00:00 | |
| DL1NUX | 2026-09-05 00:20:37 | 52.88587 | 11.90285 | 16° | 7km/h | 24909m | 4.6m/s | -50.8°C | 3.4% | 27.2hPa | 2.6V | 03:35:48 | 01:50:50 | 00:00:00 | |
| AA1-15 | 2026-09-05 00:20:36 | 52.88596 | 11.90283 | 343° | 9km/h | 24931m | 5.6m/s | -50.8°C | 0.1% | 27.1hPa | 2.7V | 03:36:08 | 01:50:54 | 00:00:00 | |
| SP3BTT-10 | 2026-09-05 00:20:36 | 52.88595 | 11.90283 | 344° | 20km/h | 24931m | 5.6m/s | -50.8°C | 3.4% | 27.1hPa | 2.7V | 03:35:00 | 00:00:00 | 00:00:00 | |
| DL1XH1-15 | 2026-09-05 00:20:35 | 52.88589 | 11.90285 | 1° | 7km/h | 24914m | 4.1m/s | -50.8°C | 3.4% | 27.2hPa | 2.6V | 03:35:47 | 01:50:51 | 00:00:00 | |
| DL1XH-west | 2026-09-05 00:20:34 | 52.88591 | 11.90285 | 354° | 9km/h | 24919m | 5m/s | -50.8°C | 0% | 27.2hPa | 2.6V | 03:36:08 | 01:50:52 | 00:00:00 | |
| DD8BA-10 | 2026-09-05 00:20:34 | 52.88591 | 11.90285 | 355° | 9km/h | 24919m | 4.9m/s | -50.8°C | 3.3% | 27.2hPa | 2.6V | 00:00:00 | 00:00:00 | 00:00:00 | |
| DM0DOS-11 | 2026-09-05 00:20:33 | 52.88587 | 11.90270 | 77° | 13km/h | 24883m | 6.2m/s | -50.8°C | 3.3% | 27.3hPa | 2.6V | 03:35:53 | 01:50:45 | 00:00:00 | |
| DF8AY | 2026-09-05 00:20:30 | 52.88586 | 11.90282 | 116° | 5km/h | 24897m | 5.8m/s | -50.8°C | 0.1% | 27.3hPa | 2.7V | 03:36:08 | 01:50:48 | 00:00:00 | |
| DO2SHX-10 | 2026-09-05 00:20:29 | 52.88587 | 11.90279 | 111° | 11km/h | 24893m | 4.2m/s | -50.7°C | 3.3% | 27.3hPa | 2.6V | 00:00:00 | 01:50:47 | 00:00:00 | |
| DL1XH-15 | 2026-09-05 00:20:28 | 52.88587 | 11.90270 | 77° | 13km/h | 24883m | 6.2m/s | -50.8°C | 3.3% | 27.3hPa | 2.6V | 03:35:53 | 01:50:45 | 00:00:00 | |
| DL1NUX | 2026-09-05 00:20:28 | 52.88581 | 11.90253 | 13° | 4km/h | 24856m | 4.4m/s | -50.8°C | 3.3% | 27.5hPa | 2.6V | 03:35:58 | 01:50:40 | 00:00:00 | |
| DK7RCA | 2026-09-05 00:20:28 | 52.88587 | 11.90275 | 93° | 11km/h | 24888m | 4.6m/s | -50.8°C | 0% | 0hPa | 2.7V | 00:00:00 | 00:00:00 | 00:00:00 | |
| DB0NH | 2026-09-05 00:20:27 | 52.88587 | 11.90269 | 78° | 16km/h | 24883m | 6.2m/s | -50.7°C | 3.3% | 27.3hPa | 2.7V | 00:00:00 | 01:50:45 | 00:00:00 | |
| DB0DAN | 2026-09-05 00:20:25 | 52.88584 | 11.90260 | 56° | 11km/h | 24873m | 4.3m/s | -50.8°C | 0.8% | 27.43hPa | 2.7V | 00:00:00 | 00:00:00 | 00:00:00 | |
| AA1-15 | 2026-09-05 00:20:25 | 52.88584 | 11.90260 | 56° | 13km/h | 24873m | 4.3m/s | -50.8°C | 0% | 27.4hPa | 2.7V | 03:36:08 | 01:50:43 | 00:00:00 | |
| DL1XH-west | 2026-09-05 00:20:24 | 52.88583 | 11.90256 | 53° | 9km/h | 24867m | 6.2m/s | -50.8°C | 0% | 27.4hPa | 2.7V | 03:36:08 | 01:50:42 | 00:00:00 | |
| DO3MHA-11 | 2026-09-05 00:20:24 | 52.88582 | 11.90256 | 53° | 11km/h | 24868m | 6.2m/s | 0°C | 0% | 0hPa | 2.7V | 00:00:00 | 01:50:42 | 00:00:00 | |
| DO2SHX-10 | 2026-09-05 00:20:23 | 52.88582 | 11.90254 | 40° | 4km/h | 24862m | 5.8m/s | -50.7°C | 3.2% | 27.4hPa | 2.7V | 03:35:00 | 01:50:41 | 00:00:00 | |
| DD8BA-10 | 2026-09-05 00:20:22 | 52.88580 | 11.90253 | 14° | 15km/h | 24856m | 4.4m/s | -50.7°C | 3.3% | 27.4hPa | 2.7V | 03:35:00 | 00:00:00 | 00:00:00 | |
| DM0DOS-11 | 2026-09-05 00:20:21 | 52.88577 | 11.90246 | 91° | 11km/h | 24836m | 5m/s | -50.8°C | 3.3% | 27.6hPa | 2.7V | 03:36:02 | 01:50:36 | 00:00:00 | |
| DF8AY | 2026-09-05 00:20:19 | 52.88577 | 11.90250 | 64° | 9km/h | 24841m | 4.7m/s | -50.8°C | 0% | 27.5hPa | 2.7V | 03:36:08 | 01:50:37 | 00:00:00 | |
| GOEST3-10 | 2026-09-05 00:20:19 | 52.88577 | 11.90250 | 65° | 16km/h | 24842m | 4.7m/s | -50.7°C | 3.3% | 27.5hPa | 2.6V | 00:00:00 | 00:00:00 | 00:00:00 | |
| DL1XH-15 | 2026-09-05 00:20:18 | 52.88577 | 11.90240 | 110° | 15km/h | 24831m | 6.5m/s | -50.8°C | 3.3% | 27.6hPa | 2.6V | 03:36:03 | 01:50:35 | 00:00:00 | |
| DL1XH1-15 | 2026-09-05 00:20:18 | 52.88587 | 11.90204 | 103° | 26km/h | 24809m | 6.1m/s | -50.9°C | 3.3% | 27.7hPa | 2.7V | 03:36:07 | 01:50:31 | 00:00:00 | |
| AA1-15 | 2026-09-05 00:20:14 | 52.88585 | 11.90214 | 113° | 27km/h | 24815m | 5.4m/s | -50.9°C | 0% | 27.7hPa | 2.7V | 03:36:08 | 01:50:32 | 00:00:00 | |
| BIOWL1-15 | 2026-09-05 00:20:14 | 52.88587 | 11.90177 | 95° | 5km/h | 24788m | 5.6m/s | -51.3°C | 0% | 27.8hPa | 2.6V | 03:37:50 | 01:50:27 | 00:00:00 | |
| DL1XH-west | 2026-09-05 00:20:13 | 52.88587 | 11.90204 | 104° | 26km/h | 24809m | 6.1m/s | -50.9°C | 0.1% | 27.7hPa | 2.7V | 03:36:08 | 01:50:31 | 00:00:00 | |
| DD8BA-10 | 2026-09-05 00:20:12 | 52.88588 | 11.90194 | 92° | 13km/h | 24804m | 5.0m/s | -51.0°C | 3.3% | 27.6hPa | 2.6V | 00:00:00 | 00:00:00 | 00:00:00 | |
| DB0DAN | 2026-09-05 00:20:10 | 52.88587 | 11.90181 | 75° | 11km/h | 24794m | 5.3m/s | -51.2°C | 0.8% | 27.72hPa | 2.6V | 00:00:00 | 00:00:00 | 00:00:00 | |
| DL1XH-15 | 2026-09-05 00:20:09 | 52.88588 | 11.90174 | 151° | 7km/h | 24778m | 4.5m/s | -51.5°C | 3.4% | 27.8hPa | 2.7V | 03:36:13 | 01:50:25 | 00:00:00 | |
| DL1XH1-15 | 2026-09-05 00:20:08 | 52.88594 | 11.90151 | 101° | 26km/h | 24758m | 4.8m/s | -51.6°C | 3.5% | 27.9hPa | 2.6V | 03:36:17 | 01:50:21 | 00:00:00 | |
| DF8AY | 2026-09-05 00:20:07 | 52.88588 | 11.90174 | 151° | 7km/h | 24778m | 4.5m/s | -51.5°C | 0.1% | 27.8hPa | 2.7V | 03:36:59 | 01:50:25 | 00:00:00 | |
| DL1XH-west | 2026-09-05 00:20:03 | 52.88594 | 11.90151 | 101° | 26km/h | 24758m | 4.8m/s | -51.6°C | 0.1% | 27.9hPa | 2.6V | 03:36:59 | 01:50:21 | 00:00:00 | |
| DD8BA-10 | 2026-09-05 00:20:02 | 52.88595 | 11.90140 | 104° | 33km/h | 24753m | 5.7m/s | -51.5°C | 3.4% | 27.8hPa | 2.7V | 00:00:00 | 00:00:00 | 00:00:00 | |
| EDDB2-12 | 2026-09-05 00:20:01 | 52.88600 | 11.90115 | 109° | 31km/h | 24741m | 4.8m/s | -51.6°C | 0.8% | 28.0hPa | 2.6V | 00:00:00 | 00:00:00 | 00:00:00 | |
| DO2SHX-10 | 2026-09-05 00:19:59 | 52.88603 | 11.90102 | 107° | 33km/h | 24737m | 3.9m/s | -51.6°C | 3.5% | 27.9hPa | 2.6V | 03:36:00 | 01:50:17 | 00:00:00 | |
| DL1XH1-15 | 2026-09-05 00:19:58 | 52.88604 | 11.90020 | 85° | 27km/h | 24703m | 6.2m/s | -51.6°C | 3.5% | 28.1hPa | 2.6V | 03:36:27 | 01:50:11 | 00:00:00 | |
| BIOWL1-15 | 2026-09-05 00:19:58 | 52.88605 | 11.90089 | 103° | 33km/h | 24732m | 4.8m/s | -51.7°C | 0.1% | 28hPa | 2.6V | 03:37:50 | 01:50:16 | 00:00:00 | |
| DL4BBY-15 | 2026-09-05 00:19:58 | 52.88605 | 11.90089 | 104° | 29km/h | 24732m | 4.7m/s | -52.1°C | 0% | 0hPa | 2.6V | 00:00:00 | 00:00:00 | 00:00:00 | |
| DL1NUX | 2026-09-05 00:19:57 | 52.88604 | 11.90009 | 92° | 24km/h | 24697m | 5.3m/s | -51.6°C | 3.5% | 28.1hPa | 2.6V | 03:36:28 | 01:50:10 | 00:00:00 | |
| DF8AY | 2026-09-05 00:19:57 | 52.88606 | 11.90061 | 89° | 37km/h | 24720m | 6.4m/s | -51.7°C | 0.1% | 28.1hPa | 2.7V | 03:36:59 | 01:50:14 | 00:00:00 | |
| DB0DAN | 2026-09-05 00:19:55 | 52.88606 | 11.90046 | 83° | 35km/h | 24714m | 5.7m/s | -51.7°C | 0.8% | 28.08hPa | 2.7V | 00:00:00 | 00:00:00 | 00:00:00 | |
| DL1XH-west | 2026-09-05 00:19:53 | 52.88604 | 11.90020 | 85° | 27km/h | 24703m | 6.2m/s | -51.6°C | 0.2% | 28.1hPa | 2.6V | 03:36:59 | 01:50:11 | 00:00:00 | |
| AA1-15 | 2026-09-05 00:19:52 | 52.88604 | 11.90009 | 93° | 24km/h | 24697m | 5.3m/s | -51.6°C | 0.2% | 28.1hPa | 2.6V | 03:36:59 | 01:50:10 | 00:00:00 | |
| DD8BA-10 | 2026-09-05 00:19:52 | 52.88604 | 11.90009 | 93° | 29km/h | 24698m | 5.3m/s | -51.6°C | 3.5% | 28.1hPa | 2.7V | 00:00:00 | 00:00:00 | 00:00:00 | |
| DO2SHX-10 | 2026-09-05 00:19:50 | 52.88606 | 11.89988 | 105° | 31km/h | 24688m | 5.9m/s | -51.6°C | 3.5% | 28.2hPa | 2.7V | 00:00:00 | 01:50:08 | 00:00:00 | |
| GOEST3-10 | 2026-09-05 00:19:49 | 52.88608 | 11.89977 | 104° | 31km/h | 24681m | 6.4m/s | -51.6°C | 3.5% | 28.2hPa | 2.6V | 03:36:00 | 00:00:00 | 00:00:00 | |
| DL1XH1-15 | 2026-09-05 00:19:48 | 52.88617 | 11.89902 | 82° | 31km/h | 24649m | 6.5m/s | -51.6°C | 3.5% | 28.3hPa | 2.6V | 03:36:37 | 01:50:01 | 00:00:00 | |
| DF8AY | 2026-09-05 00:19:46 | 52.88615 | 11.89938 | 108° | 31km/h | 24665m | 6.5m/s | -51.6°C | 0.2% | 28.3hPa | 2.6V | 03:36:59 | 01:50:04 | 00:00:00 | |
| SO1NDE-10 | 2026-09-05 00:19:46 | 52.88615 | 11.89938 | 109° | 27km/h | 24666m | 6.5m/s | -51.6°C | 3.5% | 28.2hPa | 2.6V | 00:00:00 | 01:50:04 | 00:00:00 | |
| DL1NUX | 2026-09-05 00:19:45 | 52.88615 | 11.89889 | 72° | 33km/h | 24643m | 5.7m/s | -51.6°C | 3.5% | 28.4hPa | 2.6V | 03:36:38 | 01:50:00 | 00:00:00 | |
| DL1XH-west | 2026-09-05 00:19:42 | 52.88615 | 11.89889 | 73° | 33km/h | 24644m | 5.7m/s | -51.6°C | 0.2% | 28.4hPa | 2.6V | 03:36:59 | 01:50:00 | 00:00:00 | |
| DD8BA-10 | 2026-09-05 00:19:42 | 52.88615 | 11.89889 | 73° | 29km/h | 24644m | 5.6m/s | -51.6°C | 3.5% | 28.4hPa | 2.7V | 03:36:00 | 00:00:00 | 00:00:00 | |
| DM0DOS-11 | 2026-09-05 00:19:41 | 52.88601 | 11.89846 | 56° | 24km/h | 24622m | 5.5m/s | -51.7°C | 3.5% | 28.4hPa | 2.7V | 03:36:42 | 01:49:56 | 00:00:00 | |
| AA1-15 | 2026-09-05 00:19:41 | 52.88612 | 11.89877 | 65° | 33km/h | 24639m | 4.5m/s | -51.6°C | 0.2% | 28.4hPa | 2.6V | 03:36:59 | 01:49:59 | 00:00:00 | |
| DB0DAN | 2026-09-05 00:19:40 | 52.88609 | 11.89865 | 59° | 29km/h | 24634m | 5.5m/s | -51.7°C | 0.8% | 28.41hPa | 2.7V | 00:00:00 | 00:00:00 | 00:00:00 | |
| GOEST3-10 | 2026-09-05 00:19:39 | 52.88605 | 11.89855 | 56° | 26km/h | 24628m | 6.4m/s | -51.6°C | 3.4% | 28.4hPa | 2.7V | 00:00:00 | 00:00:00 | 00:00:00 | |
| DL1XH-15 | 2026-09-05 00:19:38 | 52.88598 | 11.89838 | 62° | 22km/h | 24617m | 4.4m/s | -51.7°C | 3.5% | 28.5hPa | 2.6V | 03:36:43 | 01:49:55 | 00:00:00 | |
| DL1XH1-15 | 2026-09-05 00:19:38 | 52.88592 | 11.89793 | 83° | 35km/h | 24596m | 4.9m/s | -51.8°C | 3.5% | 28.6hPa | 2.7V | 03:36:47 | 01:49:51 | 00:00:00 | |
| DO2SHX-10 | 2026-09-05 00:19:38 | 52.88601 | 11.89846 | 57° | 24km/h | 24622m | 5.4m/s | -51.6°C | 3.5% | 28.4hPa | 2.7V | 00:00:00 | 01:49:56 | 00:00:00 | |
| DL1NUX | 2026-09-05 00:19:37 | 52.88591 | 11.89779 | 88° | 31km/h | 24591m | 4.9m/s | -51.8°C | 3.5% | 28.6hPa | 2.7V | 03:36:48 | 01:49:50 | 00:00:00 | |
| DG6HD-11 | 2026-09-05 00:19:36 | 52.88595 | 11.89829 | 72° | 24km/h | 24613m | 5.2m/s | -51.7°C | 3.5% | 28.5hPa | 2.6V | 03:36:00 | 00:00:00 | 00:00:00 | |
| DF8AY | 2026-09-05 00:19:36 | 52.88594 | 11.89819 | 77° | 27km/h | 24607m | 5.5m/s | -51.8°C | 0.1% | 28.6hPa | 2.6V | 03:36:59 | 01:49:53 | 00:00:00 | |
| DO2SHX-10 | 2026-09-05 00:19:35 | 52.88594 | 11.89819 | 78° | 31km/h | 24607m | 5.5m/s | -51.7°C | 3.5% | 28.5hPa | 2.7V | 03:36:00 | 01:49:53 | 00:00:00 | |
| GOEST3-10 | 2026-09-05 00:19:34 | 52.88593 | 11.89806 | 83° | 31km/h | 24602m | 5.3m/s | -51.7°C | 3.5% | 28.5hPa | 2.7V | 00:00:00 | 01:49:52 | 00:00:00 | |
| DM0DOS-11 | 2026-09-05 00:19:33 | 52.88593 | 11.89736 | 93° | 22km/h | 24571m | 4.6m/s | -51.8°C | 3.5% | 28.7hPa | 2.7V | 03:36:52 | 01:49:46 | 00:00:00 | |
| BIOWL1-15 | 2026-09-05 00:19:32 | 52.88591 | 11.89779 | 89° | 31km/h | 24591m | 4.9m/s | -51.8°C | 0.2% | 28.6hPa | 2.7V | 03:37:50 | 01:49:50 | 00:00:00 | |
| DL1XH-west | 2026-09-05 00:19:32 | 52.88591 | 11.89767 | 91° | 29km/h | 24586m | 5.9m/s | -51.8°C | 0.2% | 28.6hPa | 2.6V | 03:36:59 | 01:49:49 | 00:00:00 | |
| AA1-15 | 2026-09-05 00:19:30 | 52.88592 | 11.89755 | 95° | 26km/h | 24580m | 5.4m/s | -51.8°C | 0.2% | 28.7hPa | 2.6V | 03:36:59 | 01:49:48 | 00:00:00 | |
| EDDB2-12 | 2026-09-05 00:19:30 | 52.88592 | 11.89746 | 96° | 22km/h | 24576m | 4.2m/s | -51.8°C | 0.8% | 28.7hPa | 2.7V | 00:00:00 | 00:00:00 | 00:00:00 | |
| DL1XH-15 | 2026-09-05 00:19:29 | 52.88593 | 11.89727 | 88° | 24km/h | 24566m | 5.9m/s | -51.8°C | 3.5% | 28.7hPa | 2.7V | 03:36:53 | 01:49:45 | 00:00:00 | |
| DO2SHX-10 | 2026-09-05 00:19:29 | 52.88592 | 11.89745 | 97° | 22km/h | 24576m | 4.1m/s | -51.8°C | 3.5% | 28.6hPa | 2.7V | 00:00:00 | 01:49:47 | 00:00:00 | |
| DL1XH1-15 | 2026-09-05 00:19:28 | 52.88584 | 11.89694 | 42° | 22km/h | 24545m | 5.7m/s | -51.8°C | 3.5% | 28.8hPa | 2.7V | 03:36:57 | 01:49:41 | 00:00:00 | |
| DL4BBY-15 | 2026-09-05 00:19:28 | 52.88592 | 11.89736 | 94° | 22km/h | 24572m | 4.6m/s | -52.2°C | 0% | 0hPa | 2.7V | 00:00:00 | 00:00:00 | 00:00:00 | |
| DB0NH | 2026-09-05 00:19:27 | 52.88593 | 11.89727 | 89° | 22km/h | 24567m | 5.8m/s | -51.7°C | 3.5% | 28.7hPa | 2.7V | 00:00:00 | 01:49:45 | 00:00:00 | |
| DO2SHX-10 | 2026-09-05 00:19:26 | 52.88592 | 11.89717 | 77° | 22km/h | 24561m | 4.6m/s | -51.7°C | 3.5% | 28.7hPa | 2.7V | 00:00:00 | 01:49:44 | 00:00:00 | |
| DL1NUX | 2026-09-05 00:19:25 | 52.88579 | 11.89688 | 38° | 26km/h | 24540m | 4.9m/s | -51.7°C | 3.5% | 28.9hPa | 2.7V | 03:36:58 | 01:49:40 | 00:00:00 | |
| DB0DAN | 2026-09-05 00:19:25 | 52.88590 | 11.89709 | 63° | 22km/h | 24556m | 4.4m/s | -51.8°C | 0.8% | 28.8hPa | 2.6V | 00:00:00 | 00:00:00 | 00:00:00 | |
| DF8AY | 2026-09-05 00:19:24 | 52.88587 | 11.89701 | 53° | 22km/h | 24551m | 6.2m/s | -51.8°C | 0.2% | 28.8hPa | 2.6V | 03:36:59 | 01:49:42 | 00:00:00 | |
| GOEST3-10 | 2026-09-05 00:19:24 | 52.88587 | 11.89701 | 54° | 26km/h | 24551m | 6.2m/s | -51.7°C | 3.5% | 28.8hPa | 2.6V | 00:00:00 | 01:49:42 | 00:00:00 | |
| DO2SHX-10 | 2026-09-05 00:19:23 | 52.88584 | 11.89694 | 43° | 26km/h | 24545m | 5.7m/s | -51.7°C | 3.5% | 28.8hPa | 2.7V | 03:36:00 | 01:49:41 | 00:00:00 | |
| DD8BA-10 | 2026-09-05 00:19:22 | 52.88579 | 11.89688 | 39° | 22km/h | 24540m | 4.9m/s | -51.7°C | 3.5% | 28.8hPa | 2.6V | 00:00:00 | 00:00:00 | 00:00:00 | |
| DM0DOS-11 | 2026-09-05 00:19:21 | 52.88559 | 11.89651 | 61° | 27km/h | 24521m | 4m/s | -51.9°C | 3.5% | 28.9hPa | 2.6V | 03:37:02 | 01:49:36 | 00:00:00 | |
| AA1-15 | 2026-09-05 00:19:20 | 52.88563 | 11.89661 | 55° | 31km/h | 24525m | 3.6m/s | -51.8°C | 0.2% | 28.9hPa | 2.6V | 03:37:50 | 01:49:37 | 00:00:00 | |
| GOEST3-10 | 2026-09-05 00:19:19 | 52.88563 | 11.89661 | 55° | 22km/h | 24525m | 3.6m/s | -51.8°C | 3.5% | 28.9hPa | 2.7V | 00:00:00 | 00:00:00 | 00:00:00 | |
| DL1XH-15 | 2026-09-05 00:19:18 | 52.88557 | 11.89641 | 67° | 24km/h | 24515m | 6.2m/s | -51.9°C | 3.5% | 28.9hPa | 2.7V | 03:37:03 | 01:49:35 | 00:00:00 | |
| DL1XH1-15 | 2026-09-05 00:19:18 | 52.88554 | 11.89616 | 81° | 13km/h | 24494m | 5.2m/s | -51.9°C | 3.5% | 29.1hPa | 2.6V | 03:37:07 | 01:49:31 | 00:00:00 | |
| DL1NUX | 2026-09-05 00:19:18 | 52.88553 | 11.89610 | 68° | 16km/h | 24489m | 5.9m/s | -51.9°C | 3.5% | 29.1hPa | 2.6V | 03:37:08 | 01:49:30 | 00:00:00 | |
| TFSTFS | 2026-09-05 00:19:17 | 52.88557 | 11.89641 | 68° | 24km/h | 24515m | 6.2m/s | -51.9°C | 0.8% | 28.9hPa | 2.7V | 00:00:00 | 00:00:00 | 00:00:00 | |
| SO1NDE-10 | 2026-09-05 00:19:16 | 52.88555 | 11.89633 | 79° | 22km/h | 24509m | 6.4m/s | -51.8°C | 3.5% | 28.9hPa | 2.7V | 00:00:00 | 01:49:34 | 00:00:00 | |
| SONCRA | 2026-09-05 00:19:13 | 52.88554 | 11.89616 | 81° | 13km/h | 24494m | 5.2m/s | -51.9°C | 0.8% | 29.1hPa | 2.6V | 00:00:00 | 00:00:00 | 00:00:00 | |
| DD8BA-10 | 2026-09-05 00:19:12 | 52.88553 | 11.89610 | 69° | 26km/h | 24489m | 5.9m/s | -51.9°C | 3.5% | 29.0hPa | 2.6V | 00:00:00 | 00:00:00 | 00:00:00 | |
| DL1XH-15 | 2026-09-05 00:19:11 | 52.88532 | 11.89572 | 33° | 26km/h | 24461m | 5.3m/s | -52°C | 3.5% | 29.2hPa | 2.6V | 03:37:13 | 01:49:25 | 00:00:00 | |
| DB0DAN | 2026-09-05 00:19:10 | 52.88547 | 11.89594 | 51° | 26km/h | 24478m | 4.7m/s | -51.9°C | 0.8% | 29.12hPa | 2.7V | 00:00:00 | 00:00:00 | 00:00:00 | |
| DL1XH-west | 2026-09-05 00:19:10 | 52.88542 | 11.89586 | 44° | 27km/h | 24473m | 5.7m/s | -51.9°C | 0.1% | 29.1hPa | 2.6V | 03:37:50 | 01:49:27 | 00:00:00 | |
| AA1-15 | 2026-09-05 00:19:09 | 52.88537 | 11.89579 | 39° | 27km/h | 24467m | 6.2m/s | -51.9°C | 0.2% | 29.2hPa | 2.6V | 03:37:50 | 01:49:26 | 00:00:00 | |
| GOEST3-10 | 2026-09-05 00:19:09 | 52.88542 | 11.89586 | 44° | 27km/h | 24474m | 5.7m/s | -51.9°C | 3.5% | 29.1hPa | 2.6V | 03:37:00 | 00:00:00 | 00:00:00 | |
| DO2SHX-10 | 2026-09-05 00:19:08 | 52.88537 | 11.89579 | 39° | 27km/h | 24468m | 6.2m/s | -51.9°C | 3.5% | 29.1hPa | 2.6V | 00:00:00 | 01:49:26 | 00:00:00 | |
| EDDB2-11 | 2026-09-05 00:19:07 | 52.88532 | 11.89572 | 33° | 26km/h | 24461m | 5.3m/s | -52.0°C | 0.8% | 29.2hPa | 2.6V | 00:00:00 | 00:00:00 | 00:00:00 | |
| DG6HD-11 | 2026-09-05 00:19:06 | 52.88526 | 11.89566 | 35° | 24km/h | 24457m | 4.5m/s | -51.9°C | 3.5% | 29.2hPa | 2.6V | 00:00:00 | 00:00:00 | 00:00:00 | |
| DL1NUX | 2026-09-05 00:19:05 | 52.88507 | 11.89536 | 45° | 22km/h | 24434m | 4.8m/s | -52°C | 3.5% | 29.3hPa | 2.6V | 03:37:18 | 01:49:20 | 00:00:00 | |
| DF8AY | 2026-09-05 00:19:03 | 52.88511 | 11.89543 | 47° | 26km/h | 24439m | 4.1m/s | -52°C | 0.2% | 29.3hPa | 2.6V | 03:37:50 | 01:49:21 | 00:00:00 | |
| DD8BA-10 | 2026-09-05 00:19:02 | 52.88506 | 11.89536 | 46° | 18km/h | 24434m | 4.8m/s | -51.9°C | 3.5% | 29.3hPa | 2.6V | 03:37:00 | 00:00:00 | 00:00:00 | |
| DM0DOS-11 | 2026-09-05 00:19:01 | 52.88498 | 11.89517 | 72° | 15km/h | 24412m | 6.3m/s | -52°C | 3.5% | 29.4hPa | 2.7V | 03:37:22 | 01:49:16 | 00:00:00 | |
| AA1-15 | 2026-09-05 00:18:59 | 52.88498 | 11.89517 | 72° | 15km/h | 24412m | 6.3m/s | -52°C | 0.2% | 29.4hPa | 2.7V | 03:37:50 | 01:49:16 | 00:00:00 | |
| BIOWL1-15 | 2026-09-05 00:18:58 | 52.88487 | 11.89479 | 54° | 24km/h | 24384m | 4.8m/s | -52.1°C | 0.2% | 29.5hPa | 2.7V | 03:37:50 | 01:49:11 | 00:00:00 | |
| DL1ZP-14 | 2026-09-05 00:18:56 | 52.88495 | 11.89502 | 72° | 18km/h | 24401m | 5.0m/s | -52.0°C | 0.8% | 29.4hPa | 2.6V | 00:00:00 | 00:00:00 | 00:00:00 | |
| DB0DAN | 2026-09-05 00:18:55 | 52.88493 | 11.89495 | 64° | 20km/h | 24395m | 5.7m/s | -52°C | 0.8% | 29.5hPa | 2.6V | 00:00:00 | 00:00:00 | 00:00:00 | |
| DF8AY | 2026-09-05 00:18:52 | 52.88484 | 11.89470 | 54° | 26km/h | 24379m | 4.5m/s | -52.1°C | 0.2% | 29.6hPa | 2.6V | 03:37:50 | 01:49:10 | 00:00:00 | |
| DD8BA-10 | 2026-09-05 00:18:52 | 52.88484 | 11.89470 | 55° | 24km/h | 24380m | 4.5m/s | -52.1°C | 3.6% | 29.5hPa | 2.7V | 00:00:00 | 00:00:00 | 00:00:00 | |
| DL1XH-15 | 2026-09-05 00:18:51 | 52.88467 | 11.89419 | 63° | 22km/h | 24354m | 6.2m/s | -52.2°C | 3.5% | 29.7hPa | 2.7V | 03:37:33 | 01:49:05 | 00:00:00 | |
| DM0DOS-11 | 2026-09-05 00:18:51 | 52.88470 | 11.89429 | 66° | 26km/h | 24359m | 4.5m/s | -52.2°C | 3.5% | 29.6hPa | 2.7V | 03:37:32 | 01:49:06 | 00:00:00 | |
| SP3BTT-10 | 2026-09-05 00:18:51 | 52.88480 | 11.89461 | 58° | 22km/h | 24375m | 5.9m/s | -52.1°C | 3.5% | 29.6hPa | 2.7V | 00:00:00 | 00:00:00 | 00:00:00 | |
| DO2SHX-10 | 2026-09-05 00:18:50 | 52.88476 | 11.89450 | 61° | 29km/h | 24369m | 5.0m/s | -52.1°C | 3.6% | 29.6hPa | 2.7V | 00:00:00 | 01:49:08 | 00:00:00 | |
| GOEST3-10 | 2026-09-05 00:18:49 | 52.88473 | 11.89439 | 65° | 22km/h | 24364m | 4.3m/s | -52.1°C | 3.5% | 29.6hPa | 2.7V | 03:37:00 | 00:00:00 | 00:00:00 | |
| DL1XH1-15 | 2026-09-05 00:18:48 | 52.88461 | 11.89392 | 74° | 22km/h | 24333m | 6m/s | -52.5°C | 3.6% | 29.8hPa | 2.7V | 03:37:37 | 01:49:01 | 00:00:00 | |
| DL1XH-west | 2026-09-05 00:18:47 | 52.88467 | 11.89419 | 63° | 22km/h | 24354m | 6.2m/s | -52.2°C | 0.2% | 29.7hPa | 2.7V | 03:37:50 | 01:49:05 | 00:00:00 | |
| SONDE2-11 | 2026-09-05 00:18:47 | 52.88467 | 11.89419 | 63° | 22km/h | 24354m | 6.2m/s | -52.2°C | 0.8% | 29.7hPa | 2.6V | 00:00:00 | 00:00:00 | 00:00:00 | |
| S3001 | 2026-09-05 00:18:46 | 52.88465 | 11.89412 | 62° | 16km/h | 24349m | 5.4m/s | -52.2°C | 0.9% | 29.7hPa | 2.6V | 00:00:00 | 00:00:00 | 00:00:00 | |
| BIOWL1-15 | 2026-09-05 00:18:43 | 52.88454 | 11.89358 | 66° | 31km/h | 24317m | 5m/s | -52.6°C | 0.3% | 29.8hPa | 2.6V | 03:37:50 | 01:48:58 | 00:00:00 | |
| DF8AY | 2026-09-05 00:18:41 | 52.88457 | 11.89370 | 71° | 31km/h | 24322m | 4.7m/s | -52.6°C | 0.3% | 29.8hPa | 2.7V | 03:37:50 | 01:48:59 | 00:00:00 | |
| DM0DOS-11 | 2026-09-05 00:18:41 | 52.88447 | 11.89335 | 59° | 31km/h | 24306m | 5.2m/s | -52.5°C | 3.7% | 29.9hPa | 2.6V | 03:37:42 | 01:48:56 | 00:00:00 | |
| DB0DAN | 2026-09-05 00:18:40 | 52.88454 | 11.89358 | 66° | 29km/h | 24317m | 5m/s | -52.6°C | 0.9% | 29.84hPa | 2.6V | 00:00:00 | 00:00:00 | 00:00:00 | |
| GOEST3-10 | 2026-09-05 00:18:39 | 52.88451 | 11.89346 | 63° | 31km/h | 24312m | 6.2m/s | -52.5°C | 3.7% | 29.8hPa | 2.6V | 00:00:00 | 00:00:00 | 00:00:00 | |
| DL1XH-15 | 2026-09-05 00:18:38 | 52.88443 | 11.89324 | 59° | 31km/h | 24301m | 4.8m/s | -52.5°C | 3.7% | 29.9hPa | 2.7V | 03:37:43 | 01:48:55 | 00:00:00 | |
| DL1XH1-15 | 2026-09-05 00:18:38 | 52.88432 | 11.89276 | 76° | 26km/h | 24281m | 5m/s | -52.5°C | 3.7% | 30hPa | 2.6V | 03:37:47 | 01:48:51 | 00:00:00 | |
| AA1-15 | 2026-09-05 00:18:37 | 52.88443 | 11.89324 | 59° | 31km/h | 24301m | 4.8m/s | -52.5°C | 0.3% | 29.9hPa | 2.7V | 03:37:50 | 01:48:55 | 00:00:00 | |
| DL1XH-west | 2026-09-05 00:18:36 | 52.88439 | 11.89312 | 67° | 33km/h | 24296m | 6.4m/s | -52.5°C | 0.3% | 29.9hPa | 2.7V | 03:37:50 | 01:48:54 | 00:00:00 | |
| DG6HD-11 | 2026-09-05 00:18:36 | 52.88439 | 11.89312 | 67° | 22km/h | 24296m | 6.3m/s | -52.5°C | 3.7% | 29.9hPa | 2.7V | 00:00:00 | 00:00:00 | 00:00:00 | |
| DO2SHX-10 | 2026-09-05 00:18:35 | 52.88436 | 11.89299 | 70° | 29km/h | 24290m | 5.0m/s | -52.5°C | 3.7% | 29.9hPa | 2.7V | 03:37:00 | 01:48:53 | 00:00:00 | |
| GOEST3-10 | 2026-09-05 00:18:34 | 52.88434 | 11.89287 | 76° | 24km/h | 24286m | 3.7m/s | -52.5°C | 3.7% | 29.9hPa | 2.7V | 00:00:00 | 01:48:52 | 00:00:00 | |
| DD8BA-10 | 2026-09-05 00:18:32 | 52.88431 | 11.89266 | 78° | 22km/h | 24275m | 6.8m/s | -52.4°C | 3.7% | 30.0hPa | 2.7V | 00:00:00 | 00:00:00 | 00:00:00 | |
| DM0DOS-11 | 2026-09-05 00:18:31 | 52.88428 | 11.89232 | 82° | 24km/h | 24252m | 4.7m/s | -52.4°C | 3.6% | 30.1hPa | 2.6V | 03:37:52 | 01:48:46 | 00:00:00 | |
| DL1XH-15 | 2026-09-05 00:18:31 | 52.88427 | 11.89222 | 79° | 24km/h | 24248m | 4m/s | -52.4°C | 3.6% | 30.2hPa | 2.6V | 03:37:53 | 01:48:45 | 00:00:00 | |
| DF8AY | 2026-09-05 00:18:30 | 52.88429 | 11.89250 | 83° | 20km/h | 24264m | 5.1m/s | -52.4°C | 0.3% | 30.1hPa | 2.7V | 03:37:50 | 01:48:48 | 00:00:00 | |
| BIOWL1-15 | 2026-09-05 00:18:30 | 52.88417 | 11.89189 | 53° | 22km/h | 24225m | 5.5m/s | -52.3°C | 0.3% | 30.3hPa | 2.6V | 03:38:41 | 01:48:41 | 00:00:00 | |
| HTAHTA | 2026-09-05 00:18:30 | 52.88429 | 11.89250 | 82° | 18km/h | 24264m | 5.1m/s | -52.4°C | 0.9% | 30.1hPa | 2.6V | 00:00:00 | 00:00:00 | 00:00:00 | |
| DO2SHX-10 | 2026-09-05 00:18:29 | 52.88428 | 11.89241 | 84° | 24km/h | 24258m | 6.1m/s | -52.4°C | 3.7% | 30.1hPa | 2.6V | 00:00:00 | 01:48:47 | 00:00:00 | |
| DL1XH1-15 | 2026-09-05 00:18:28 | 52.88414 | 11.89181 | 54° | 24km/h | 24219m | 6.3m/s | -52.2°C | 3.6% | 30.3hPa | 2.6V | 03:37:58 | 01:48:40 | 00:00:00 | |
| AA1-15 | 2026-09-05 00:18:26 | 52.88425 | 11.89212 | 73° | 22km/h | 24242m | 5.8m/s | -52.4°C | 0.2% | 30.2hPa | 2.7V | 03:38:41 | 01:48:44 | 00:00:00 | |
| DL1XH-west | 2026-09-05 00:18:26 | 52.88421 | 11.89196 | 55° | 22km/h | 24230m | 5.5m/s | -52.3°C | 0.3% | 30.2hPa | 2.7V | 03:38:41 | 01:48:42 | 00:00:00 | |
| DB0DAN | 2026-09-05 00:18:25 | 52.88423 | 11.89204 | 62° | 20km/h | 24236m | 6.3m/s | -52.3°C | 0.9% | 30.23hPa | 2.7V | 00:00:00 | 00:00:00 | 00:00:00 | |
| DL1ZP-14 | 2026-09-05 00:18:25 | 52.88423 | 11.89204 | 62° | 20km/h | 24236m | 6.3m/s | -52.3°C | 0.9% | 30.2hPa | 2.7V | 00:00:00 | 00:00:00 | 00:00:00 | |
| GOEST3-10 | 2026-09-05 00:18:24 | 52.88421 | 11.89196 | 56° | 22km/h | 24231m | 5.4m/s | -52.3°C | 3.6% | 30.2hPa | 2.7V | 00:00:00 | 01:48:42 | 00:00:00 | |
| DO2SHX-10 | 2026-09-05 00:18:23 | 52.88417 | 11.89189 | 53° | 24km/h | 24225m | 5.5m/s | -52.2°C | 3.6% | 30.2hPa | 2.6V | 03:37:00 | 01:48:41 | 00:00:00 | |
| DD8BA-10 | 2026-09-05 00:18:22 | 52.88414 | 11.89181 | 55° | 18km/h | 24219m | 6.3m/s | -52.2°C | 3.6% | 30.2hPa | 2.6V | 03:37:00 | 00:00:00 | 00:00:00 | |
| DM0DOS-11 | 2026-09-05 00:18:20 | 52.88403 | 11.89153 | 46° | 15km/h | 24198m | 5.9m/s | -52.2°C | 3.6% | 30.4hPa | 2.6V | 03:38:02 | 01:48:36 | 00:00:00 | |
| DF8AY | 2026-09-05 00:18:20 | 52.88408 | 11.89165 | 60° | 20km/h | 24209m | 4.6m/s | -52.2°C | 0.2% | 30.3hPa | 2.7V | 03:38:41 | 01:48:38 | 00:00:00 | |
| DO2SHX-10 | 2026-09-05 00:18:20 | 52.88408 | 11.89165 | 60° | 18km/h | 24209m | 4.6m/s | -52.2°C | 3.5% | 30.3hPa | 2.7V | 00:00:00 | 01:48:38 | 00:00:00 | |
| GOEST3-10 | 2026-09-05 00:18:19 | 52.88405 | 11.89159 | 56° | 15km/h | 24204m | 6.5m/s | -52.2°C | 3.6% | 30.3hPa | 2.6V | 00:00:00 | 00:00:00 | 00:00:00 | |
| DL1XH-15 | 2026-09-05 00:18:18 | 52.88401 | 11.89149 | 48° | 13km/h | 24192m | 4.7m/s | -52.2°C | 3.5% | 30.4hPa | 2.6V | 03:38:03 | 01:48:35 | 00:00:00 | |
| DL1NUX | 2026-09-05 00:18:17 | 52.88393 | 11.89116 | 65° | 20km/h | 24166m | 5.3m/s | -52.3°C | 3.5% | 30.5hPa | 2.6V | 03:38:08 | 01:48:30 | 00:00:00 | |
| AA1-15 | 2026-09-05 00:18:16 | 52.88399 | 11.89145 | 59° | 13km/h | 24187m | 4.6m/s | -52.3°C | 0.2% | 30.5hPa | 2.6V | 03:38:41 | 01:48:34 | 00:00:00 | |
| DL1XH-west | 2026-09-05 00:18:14 | 52.88396 | 11.89132 | 76° | 20km/h | 24176m | 5.4m/s | -52.2°C | 0.2% | 30.5hPa | 2.7V | 03:38:41 | 01:48:32 | 00:00:00 | |
| DO2SHX-10 | 2026-09-05 00:18:14 | 52.88396 | 11.89132 | 77° | 20km/h | 24176m | 5.3m/s | -52.2°C | 3.5% | 30.5hPa | 2.7V | 00:00:00 | 01:48:32 | 00:00:00 | |
| DM0DOS-11 | 2026-09-05 00:18:13 | 52.88379 | 11.89092 | 36° | 24km/h | 24144m | 6.2m/s | -52.5°C | 3.6% | 30.6hPa | 2.7V | 03:38:12 | 01:48:26 | 00:00:00 | |
| DD8BA-10 | 2026-09-05 00:18:12 | 52.88393 | 11.89116 | 66° | 22km/h | 24166m | 5.2m/s | -52.2°C | 3.5% | 30.5hPa | 2.6V | 00:00:00 | 00:00:00 | 00:00:00 | |
| DB0DAN | 2026-09-05 00:18:10 | 52.88387 | 11.89103 | 41° | 18km/h | 24154m | 5.3m/s | -52.4°C | 0.9% | 30.6hPa | 2.6V | 00:00:00 | 00:00:00 | 00:00:00 | |
| DF8AY | 2026-09-05 00:18:09 | 52.88383 | 11.89097 | 36° | 20km/h | 24149m | 4.7m/s | -52.4°C | 0.2% | 30.6hPa | 2.7V | 03:38:41 | 01:48:27 | 00:00:00 | |
| GOEST3-10 | 2026-09-05 00:18:09 | 52.88383 | 11.89097 | 37° | 22km/h | 24150m | 4.7m/s | -52.4°C | 3.6% | 30.6hPa | 2.7V | 03:38:00 | 00:00:00 | 00:00:00 | |
| DL1XH-15 | 2026-09-05 00:18:08 | 52.88374 | 11.89086 | 39° | 24km/h | 24138m | 5.9m/s | -52.5°C | 3.6% | 30.7hPa | 2.7V | 03:38:13 | 01:48:25 | 00:00:00 | |
| AA1-15 | 2026-09-05 00:18:06 | 52.88369 | 11.89080 | 34° | 24km/h | 24133m | 4.2m/s | -52.6°C | 0.3% | 30.7hPa | 2.6V | 03:38:41 | 01:48:24 | 00:00:00 | |
| DG6HD-11 | 2026-09-05 00:18:06 | 52.88369 | 11.89080 | 35° | 22km/h | 24133m | 4.1m/s | -52.5°C | 3.6% | 30.6hPa | 2.6V | 00:00:00 | 00:00:00 | 00:00:00 | |
| DL1NUX | 2026-09-05 00:18:05 | 52.88351 | 11.89069 | 12° | 11km/h | 24112m | 4.7m/s | -52.6°C | 3.6% | 30.8hPa | 2.7V | 03:38:18 | 01:48:20 | 00:00:00 | |
| DL1XH-west | 2026-09-05 00:18:04 | 52.88359 | 11.89072 | 17° | 20km/h | 24123m | 6.3m/s | -52.6°C | 0.3% | 30.7hPa | 2.6V | 03:38:41 | 01:48:22 | 00:00:00 | |
| GOEST3-10 | 2026-09-05 00:18:04 | 52.88359 | 11.89072 | 18° | 13km/h | 24123m | 6.2m/s | -52.5°C | 3.6% | 30.7hPa | 2.7V | 00:00:00 | 01:48:22 | 00:00:00 | |
| DM0DOS-11 | 2026-09-05 00:18:02 | 52.88352 | 11.89059 | 136° | 13km/h | 24091m | 4.7m/s | -52.6°C | 3.6% | 30.9hPa | 2.7V | 03:38:22 | 01:48:16 | 00:00:00 | |
| DF8AY | 2026-09-05 00:17:58 | 52.88352 | 11.89059 | 137° | 13km/h | 24091m | 4.7m/s | -52.6°C | 0.2% | 30.9hPa | 2.7V | 03:38:41 | 01:48:16 | 00:00:00 | |
| DL1XH-15 | 2026-09-05 00:17:58 | 52.88354 | 11.89056 | 138° | 9km/h | 24087m | 5.7m/s | -52.6°C | 3.6% | 30.9hPa | 2.7V | 03:38:23 | 01:48:15 | 00:00:00 | |
| DL4BBY-15 | 2026-09-05 00:17:58 | 52.88352 | 11.89059 | 137° | 16km/h | 24091m | 4.6m/s | -53.0°C | 0% | 0hPa | 2.7V | 00:00:00 | 00:00:00 | 00:00:00 | |
| DL1NUX | 2026-09-05 00:17:57 | 52.88345 | 11.89033 | 44° | 22km/h | 24055m | 4.8m/s | -52.7°C | 3.7% | 31.1hPa | 2.7V | 03:38:29 | 01:48:09 | 00:00:00 | |
| AA1-15 | 2026-09-05 00:17:56 | 52.88355 | 11.89051 | 60° | 5km/h | 24076m | 4.4m/s | -52.6°C | 0.3% | 31hPa | 2.6V | 03:38:41 | 01:48:13 | 00:00:00 | |
| DB0DAN | 2026-09-05 00:17:55 | 52.88355 | 11.89051 | 60° | 5km/h | 24076m | 4.4m/s | -52.6°C | 0.9% | 30.99hPa | 2.6V | 00:00:00 | 00:00:00 | 00:00:00 | |
| DL1XH-west | 2026-09-05 00:17:54 | 52.88354 | 11.89049 | 44° | 11km/h | 24071m | 4.5m/s | -52.6°C | 0.3% | 31hPa | 2.6V | 03:38:41 | 01:48:12 | 00:00:00 | |
| GOEST3-10 | 2026-09-05 00:17:54 | 52.88354 | 11.89049 | 45° | 18km/h | 24072m | 4.4m/s | -52.6°C | 3.7% | 30.9hPa | 2.6V | 00:00:00 | 01:48:12 | 00:00:00 | |
| DO2SHX-10 | 2026-09-05 00:17:53 | 52.88351 | 11.89045 | 43° | 20km/h | 24066m | 5.5m/s | -52.6°C | 3.6% | 31.0hPa | 2.6V | 00:00:00 | 01:48:11 | 00:00:00 | |
| DM0DOS-11 | 2026-09-05 00:17:52 | 52.88332 | 11.89018 | 17° | 18km/h | 24039m | 5.2m/s | -52.8°C | 3.7% | 31.1hPa | 2.6V | 03:38:32 | 01:48:06 | 00:00:00 | |
| DF8AY | 2026-09-05 00:17:48 | 52.88331 | 11.89018 | 18° | 18km/h | 24039m | 5.2m/s | -52.8°C | 0.3% | 31.1hPa | 2.6V | 03:38:41 | 01:48:06 | 00:00:00 | |
| BIOWL1-15 | 2026-09-05 00:17:45 | 52.88321 | 11.89011 | 50° | 11km/h | 24024m | 5.9m/s | -52.7°C | 0.3% | 31.2hPa | 2.7V | 03:38:41 | 01:48:03 | 00:00:00 | |
| DL1NUX | 2026-09-05 00:17:45 | 52.88316 | 11.88994 | 46° | 13km/h | 24003m | 5.3m/s | -52.7°C | 3.6% | 31.3hPa | 2.7V | 03:38:39 | 01:47:59 | 00:00:00 | |
| DL1XH-west | 2026-09-05 00:17:44 | 52.88320 | 11.89007 | 63° | 13km/h | 24018m | 5m/s | -52.7°C | 0.3% | 31.2hPa | 2.6V | 03:38:41 | 01:48:02 | 00:00:00 | |
| GOEST3-10 | 2026-09-05 00:17:44 | 52.88320 | 11.89006 | 63° | 13km/h | 24019m | 4.9m/s | -52.7°C | 3.7% | 31.2hPa | 2.6V | 00:00:00 | 01:48:02 | 00:00:00 | |
| DM0DOS-11 | 2026-09-05 00:17:42 | 52.88307 | 11.88977 | 51° | 22km/h | 23986m | 6.3m/s | -52.8°C | 3.7% | 31.4hPa | 2.6V | 03:38:42 | 01:47:56 | 00:00:00 | |
| DD8BA-10 | 2026-09-05 00:17:42 | 52.88317 | 11.88998 | 62° | 20km/h | 24009m | 5.7m/s | -52.6°C | 3.6% | 31.3hPa | 2.7V | 03:38:00 | 00:00:00 | 00:00:00 | |
| DB0DAN | 2026-09-05 00:17:40 | 52.88313 | 11.88989 | 45° | 16km/h | 23998m | 5.1m/s | -52.7°C | 0.9% | 31.32hPa | 2.7V | 00:00:00 | 00:00:00 | 00:00:00 | |
| GOEST3-10 | 2026-09-05 00:17:39 | 52.88310 | 11.88984 | 49° | 22km/h | 23992m | 6.0m/s | -52.7°C | 3.7% | 31.3hPa | 2.7V | 00:00:00 | 00:00:00 | 00:00:00 | |
| DL1XH-15 | 2026-09-05 00:17:38 | 52.88303 | 11.88970 | 53° | 24km/h | 23981m | 4.2m/s | -52.8°C | 3.7% | 31.4hPa | 2.6V | 03:38:43 | 01:47:55 | 00:00:00 | |
| DF8AY | 2026-09-05 00:17:38 | 52.88303 | 11.88970 | 53° | 24km/h | 23981m | 4.2m/s | -52.8°C | 0.3% | 31.4hPa | 2.6V | 03:39:32 | 01:47:55 | 00:00:00 | |
| SP3WXH-11 | 2026-09-05 00:17:37 | 52.88299 | 11.88962 | 47° | 24km/h | 23977m | 4.1m/s | -52.8°C | 0.9% | 31.4hPa | 2.6V | 00:00:00 | 00:00:00 | 00:00:00 | |
| DL1NUX | 2026-09-05 00:17:36 | 52.88276 | 11.88944 | 17° | 16km/h | 23951m | 5.7m/s | -52.8°C | 3.7% | 31.5hPa | 2.6V | 03:38:49 | 01:47:49 | 00:00:00 | |
| DL1XH-west | 2026-09-05 00:17:34 | 52.88290 | 11.88950 | 24° | 22km/h | 23966m | 6.1m/s | -52.7°C | 0.3% | 31.5hPa | 2.7V | 03:39:32 | 01:47:52 | 00:00:00 | |
| BIOWL1-15 | 2026-09-05 00:17:34 | 52.88276 | 11.88944 | 17° | 16km/h | 23951m | 5.7m/s | -52.8°C | 0.3% | 31.6hPa | 2.6V | 03:39:32 | 01:47:49 | 00:00:00 | |
| DO2SHX-10 | 2026-09-05 00:17:32 | 52.88280 | 11.88945 | 11° | 16km/h | 23956m | 4.2m/s | -52.7°C | 3.7% | 31.5hPa | 2.6V | 00:00:00 | 01:47:50 | 00:00:00 | |
| DL2RXE-15 | 2026-09-05 00:17:31 | 52.88280 | 11.88946 | 11° | 20km/h | 23956m | 4.2m/s | -52.7°C | 0.9% | 31.5hPa | 2.6V | 00:00:00 | 00:00:00 | 00:00:00 | |
| DK7RCA | 2026-09-05 00:17:30 | 52.88276 | 11.88944 | 18° | 16km/h | 23951m | 5.7m/s | 0°C | 0% | 0hPa | 2.6V | 00:00:00 | 00:00:00 | 00:00:00 | |
| DL1XH-15 | 2026-09-05 00:17:29 | 52.88264 | 11.88930 | 39° | 15km/h | 23930m | 5.9m/s | -52.8°C | 3.7% | 31.7hPa | 2.6V | 03:38:53 | 01:47:45 | 00:00:00 | |
| DF8AY | 2026-09-05 00:17:27 | 52.88264 | 11.88930 | 39° | 15km/h | 23930m | 5.9m/s | -52.8°C | 0.2% | 31.7hPa | 2.6V | 03:39:32 | 01:47:45 | 00:00:00 | |
| DB0NH | 2026-09-05 00:17:26 | 52.88261 | 11.88926 | 31° | 9km/h | 23924m | 5.9m/s | -52.8°C | 3.7% | 31.7hPa | 2.6V | 00:00:00 | 01:47:44 | 00:00:00 | |
| DL1NUX | 2026-09-05 00:17:25 | 52.88250 | 11.88905 | 63° | 15km/h | 23897m | 4.1m/s | -52.8°C | 3.7% | 31.8hPa | 2.6V | 03:38:59 | 01:47:39 | 00:00:00 | |
| DB0DAN | 2026-09-05 00:17:25 | 52.88258 | 11.88923 | 32° | 13km/h | 23919m | 5.2m/s | -52.8°C | 0.9% | 31.73hPa | 2.7V | 00:00:00 | 00:00:00 | 00:00:00 | |
| DL1XH-west | 2026-09-05 00:17:24 | 52.88255 | 11.88920 | 42° | 13km/h | 23913m | 5.4m/s | -52.8°C | 0.3% | 31.8hPa | 2.7V | 03:39:32 | 01:47:42 | 00:00:00 | |
| BIOWL1-15 | 2026-09-05 00:17:23 | 52.88253 | 11.88916 | 59° | 13km/h | 23908m | 6.4m/s | -52.8°C | 0.3% | 31.8hPa | 2.6V | 03:39:32 | 01:47:41 | 00:00:00 | |
| DO2SHX-10 | 2026-09-05 00:17:23 | 52.88253 | 11.88916 | 60° | 15km/h | 23908m | 6.3m/s | -52.7°C | 3.7% | 31.8hPa | 2.7V | 03:38:00 | 01:47:41 | 00:00:00 | |
| DM0DOS-11 | 2026-09-05 00:17:22 | 52.88242 | 11.88893 | 17° | 15km/h | 23880m | 5.8m/s | -52.8°C | 3.7% | 31.9hPa | 2.7V | 03:39:02 | 01:47:36 | 00:00:00 | |
| DF8AY | 2026-09-05 00:17:17 | 52.88235 | 11.88890 | 9° | 15km/h | 23871m | 5.1m/s | -52.8°C | 0.3% | 32hPa | 2.6V | 03:39:32 | 01:47:34 | 00:00:00 | |
| DL1XH1-15 | 2026-09-05 00:17:16 | 52.88226 | 11.88879 | 56° | 2km/h | 23844m | 6.1m/s | -52.8°C | 3.7% | 32.1hPa | 2.6V | 03:39:09 | 01:47:29 | 00:00:00 | |
| DL1XH-west | 2026-09-05 00:17:13 | 52.88227 | 11.88883 | 57° | 7km/h | 23855m | 4.5m/s | -52.8°C | 0.3% | 32hPa | 2.7V | 03:39:32 | 01:47:31 | 00:00:00 | |
| BIOWL1-15 | 2026-09-05 00:17:12 | 52.88226 | 11.88881 | 59° | 5km/h | 23849m | 5.5m/s | -52.8°C | 0.3% | 32.1hPa | 2.6V | 03:39:32 | 01:47:30 | 00:00:00 | |
| DD8BA-10 | 2026-09-05 00:17:12 | 52.88226 | 11.88880 | 59° | 5km/h | 23850m | 5.4m/s | -52.7°C | 3.8% | 32.0hPa | 2.7V | 00:00:00 | 00:00:00 | 00:00:00 | |
| MECKS9 | 2026-09-05 00:17:11 | 52.88226 | 11.88880 | 60° | 5km/h | 23850m | 5.5m/s | -52.8°C | 0.9% | 32.1hPa | 2.7V | 00:00:00 | 00:00:00 | 00:00:00 | |
| DB0DAN | 2026-09-05 00:17:10 | 52.88226 | 11.88879 | 166° | 2km/h | 23838m | 4.6m/s | -52.8°C | 0.9% | 32.11hPa | 2.7V | 00:00:00 | 00:00:00 | 00:00:00 | |
| DL1XH-15 | 2026-09-05 00:17:09 | 52.88229 | 11.88876 | 123° | 5km/h | 23822m | 4.9m/s | -52.7°C | 3.7% | 32.2hPa | 2.6V | 03:39:13 | 01:47:25 | 00:00:00 | |
| DF8AY | 2026-09-05 00:17:06 | 52.88229 | 11.88874 | 104° | 4km/h | 23818m | 4.5m/s | -52.7°C | 0.3% | 32.2hPa | 2.6V | 03:39:32 | 01:47:24 | 00:00:00 | |
| DL1XH-west | 2026-09-05 00:17:03 | 52.88226 | 11.88873 | 342° | 7km/h | 23801m | 4.5m/s | -52.7°C | 0.4% | 32.3hPa | 2.7V | 03:39:32 | 01:47:21 | 00:00:00 | |
| DM0DOS-11 | 2026-09-05 00:17:02 | 52.88223 | 11.88874 | 238° | 4km/h | 23776m | 6.8m/s | -52.6°C | 3.7% | 32.4hPa | 2.7V | 03:39:22 | 01:47:16 | 00:00:00 | |
| AA1-15 | 2026-09-05 00:17:01 | 52.88223 | 11.88874 | 352° | 4km/h | 23791m | 5.9m/s | -52.7°C | 0.3% | 32.4hPa | 2.6V | 03:39:32 | 01:47:19 | 00:00:00 | |
| DF8AY | 2026-09-05 00:16:56 | 52.88224 | 11.88877 | 237° | 5km/h | 23763m | 5.1m/s | -52.6°C | 0.3% | 32.5hPa | 2.6V | 03:39:32 | 01:47:14 | 00:00:00 | |
| DL1NUX | 2026-09-05 00:16:56 | 52.88229 | 11.88878 | 214° | 5km/h | 23736m | 5.5m/s | -52.4°C | 3.7% | 32.6hPa | 2.6V | 03:39:29 | 01:47:09 | 00:00:00 | |
| DB0DAN | 2026-09-05 00:16:55 | 52.88224 | 11.88879 | 209° | 4km/h | 23758m | 5.6m/s | -52.5°C | 0.9% | 32.53hPa | 2.6V | 00:00:00 | 00:00:00 | 00:00:00 | |
| DL1XH-west | 2026-09-05 00:16:52 | 52.88228 | 11.88878 | 166° | 4km/h | 23741m | 4.8m/s | -52.4°C | 0.3% | 32.6hPa | 2.7V | 03:39:32 | 01:47:10 | 00:00:00 | |
| DM0DOS-11 | 2026-09-05 00:16:52 | 52.88231 | 11.88887 | 264° | 9km/h | 23720m | 5m/s | -52.3°C | 3.7% | 32.7hPa | 2.7V | 03:39:32 | 01:47:06 | 00:00:00 | |
| BIOWL1-15 | 2026-09-05 00:16:50 | 52.88230 | 11.88880 | 251° | 7km/h | 23730m | 5.4m/s | -52.3°C | 0.3% | 32.6hPa | 2.6V | 03:39:32 | 01:47:08 | 00:00:00 | |
| DF8AY | 2026-09-05 00:16:45 | 52.88232 | 11.88894 | 240° | 2km/h | 23704m | 5m/s | -52.2°C | 0.3% | 32.8hPa | 2.6V | 03:40:23 | 01:47:03 | 00:00:00 | |
| DK7RCA | 2026-09-05 00:16:45 | 52.88231 | 11.88893 | 271° | 4km/h | 23709m | 5.3m/s | 0°C | 0% | 0hPa | 2.6V | 00:00:00 | 00:00:00 | 00:00:00 | |
| DO2SHX-10 | 2026-09-05 00:16:44 | 52.88232 | 11.88895 | 307° | 4km/h | 23699m | 4.7m/s | -52.1°C | 3.6% | 32.8hPa | 2.6V | 00:00:00 | 01:47:02 | 00:00:00 | |
| SONDE2-11 | 2026-09-05 00:16:43 | 52.88231 | 11.88898 | 300° | 5km/h | 23688m | 5.9m/s | -52.2°C | 0.9% | 32.9hPa | 2.6V | 00:00:00 | 00:00:00 | 00:00:00 | |
| DM0DOS-11 | 2026-09-05 00:16:42 | 52.88233 | 11.88902 | 182° | 9km/h | 23666m | 4.5m/s | -52.1°C | 3.6% | 33hPa | 2.6V | 03:39:42 | 01:46:56 | 00:00:00 | |
| DL1XH1-15 | 2026-09-05 00:16:42 | 52.88230 | 11.88900 | 280° | 5km/h | 23682m | 4.5m/s | -52.1°C | 3.6% | 32.9hPa | 2.7V | 03:39:39 | 01:46:59 | 00:00:00 | |
| DL1XH-west | 2026-09-05 00:16:41 | 52.88230 | 11.88900 | 281° | 5km/h | 23682m | 4.6m/s | -52.1°C | 0.3% | 32.9hPa | 2.7V | 03:40:23 | 01:46:59 | 00:00:00 | |
| AA1-15 | 2026-09-05 00:16:40 | 52.88231 | 11.88901 | 228° | 4km/h | 23677m | 5.5m/s | -52.1°C | 0.3% | 33hPa | 2.7V | 03:40:23 | 01:46:58 | 00:00:00 | |
| DB0DAN | 2026-09-05 00:16:40 | 52.88231 | 11.88901 | 228° | 4km/h | 23677m | 5.5m/s | -52.1°C | 0.9% | 32.95hPa | 2.7V | 00:00:00 | 00:00:00 | 00:00:00 | |
| BIOWL1-15 | 2026-09-05 00:16:39 | 52.88236 | 11.88903 | 203° | 11km/h | 23661m | 4.9m/s | -52.1°C | 0.3% | 33hPa | 2.6V | 03:40:23 | 01:46:55 | 00:00:00 | |
| DL1XH-15 | 2026-09-05 00:16:38 | 52.88236 | 11.88903 | 202° | 11km/h | 23661m | 4.9m/s | -52.1°C | 3.6% | 33hPa | 2.6V | 03:39:43 | 01:46:55 | 00:00:00 | |
| DF8AY | 2026-09-05 00:16:35 | 52.88248 | 11.88921 | 259° | 5km/h | 23629m | 5.1m/s | -51.9°C | 0.2% | 33.2hPa | 2.7V | 03:40:23 | 01:46:49 | 00:00:00 | |
| AA1-15 | 2026-09-05 00:16:30 | 52.88248 | 11.88924 | 283° | 7km/h | 23624m | 5.6m/s | -51.9°C | 0.2% | 33.2hPa | 2.6V | 03:40:23 | 01:46:48 | 00:00:00 | |
| DL1XH-15 | 2026-09-05 00:16:29 | 52.88245 | 11.88935 | 280° | 9km/h | 23608m | 5.5m/s | -51.9°C | 3.6% | 33.3hPa | 2.7V | 03:39:53 | 01:46:45 | 00:00:00 | |
| BIOWL1-15 | 2026-09-05 00:16:27 | 52.88245 | 11.88938 | 264° | 5km/h | 23602m | 6.8m/s | -51.8°C | 0.3% | 33.4hPa | 2.7V | 03:40:23 | 01:46:44 | 00:00:00 | |
| DB0DAN | 2026-09-05 00:16:25 | 52.88246 | 11.88940 | 215° | 4km/h | 23596m | 6m/s | -51.8°C | 0.9% | 33.33hPa | 2.7V | 00:00:00 | 00:00:00 | 00:00:00 | |
| DF8AY | 2026-09-05 00:16:23 | 52.88249 | 11.88942 | 209° | 9km/h | 23585m | 5.5m/s | -51.8°C | 0.2% | 33.4hPa | 2.6V | 03:40:23 | 01:46:41 | 00:00:00 | |
| DL1XH-west | 2026-09-05 00:16:20 | 52.88258 | 11.88958 | 215° | 9km/h | 23557m | 5.8m/s | -51.7°C | 0.3% | 33.6hPa | 2.6V | 03:40:23 | 01:46:36 | 00:00:00 | |
| AA1-15 | 2026-09-05 00:16:19 | 52.88256 | 11.88955 | 230° | 11km/h | 23563m | 5.6m/s | -51.7°C | 0.3% | 33.5hPa | 2.6V | 03:40:23 | 01:46:37 | 00:00:00 | |
| DL1XH-15 | 2026-09-05 00:16:19 | 52.88260 | 11.88960 | 215° | 9km/h | 23552m | 4.6m/s | -51.7°C | 3.6% | 33.6hPa | 2.7V | 03:40:03 | 01:46:35 | 00:00:00 | |
| DC4HF-4 | 2026-09-05 00:16:19 | 52.88258 | 11.88958 | 214° | 7km/h | 23557m | 5.8m/s | -51.7°C | 0.9% | 33.6hPa | 2.7V | 00:00:00 | 00:00:00 | 00:00:00 | |
| DO2SHX-10 | 2026-09-05 00:16:18 | 52.88260 | 11.88960 | 216° | 11km/h | 23552m | 4.5m/s | -51.7°C | 3.6% | 33.6hPa | 2.7V | 00:00:00 | 01:46:35 | 00:00:00 | |
| DL1NUX | 2026-09-05 00:16:16 | 52.88270 | 11.88982 | 214° | 9km/h | 23520m | 6.6m/s | -51.5°C | 3.6% | 33.8hPa | 2.7V | 03:40:09 | 01:46:29 | 00:00:00 | |
| BIOWL1-15 | 2026-09-05 00:16:16 | 52.88263 | 11.88966 | 236° | 11km/h | 23541m | 6.3m/s | -51.6°C | 0.3% | 33.6hPa | 2.6V | 03:40:23 | 01:46:33 | 00:00:00 | |
| DF8AY | 2026-09-05 00:16:12 | 52.88268 | 11.88979 | 233° | 11km/h | 23526m | 5m/s | -51.5°C | 0.2% | 33.7hPa | 2.7V | 03:40:23 | 01:46:30 | 00:00:00 | |
| SONDE2-11 | 2026-09-05 00:16:12 | 52.88270 | 11.88982 | 214° | 7km/h | 23520m | 6.6m/s | -51.5°C | 0.9% | 33.8hPa | 2.6V | 00:00:00 | 00:00:00 | 00:00:00 | |
| DM0DOS-11 | 2026-09-05 00:16:11 | 52.88276 | 11.88983 | 182° | 7km/h | 23505m | 4.9m/s | -51.3°C | 3.6% | 33.8hPa | 2.6V | 03:40:12 | 01:46:26 | 00:00:00 | |
| DB0DAN | 2026-09-05 00:16:10 | 52.88272 | 11.88983 | 189° | 9km/h | 23514m | 5m/s | -51.4°C | 0.9% | 33.77hPa | 2.7V | 00:00:00 | 00:00:00 | 00:00:00 | |
| AA1-15 | 2026-09-05 00:16:09 | 52.88274 | 11.88983 | 173° | 9km/h | 23510m | 3.4m/s | -51.4°C | 0.2% | 33.8hPa | 2.6V | 03:40:23 | 01:46:27 | 00:00:00 | |
| DL1XH-west | 2026-09-05 00:16:08 | 52.88276 | 11.88983 | 182° | 9km/h | 23505m | 4.9m/s | -51.3°C | 0.3% | 33.8hPa | 2.6V | 03:40:23 | 01:46:26 | 00:00:00 | |
| BIOWL1-15 | 2026-09-05 00:16:05 | 52.88282 | 11.88988 | 214° | 11km/h | 23489m | 4.6m/s | -51.2°C | 0.3% | 33.9hPa | 2.7V | 03:40:23 | 01:46:23 | 00:00:00 | |
| DF8AY | 2026-09-05 00:16:02 | 52.88291 | 11.88996 | 216° | 15km/h | 23473m | 4.5m/s | -51.1°C | 0.2% | 34hPa | 2.6V | 03:40:23 | 01:46:20 | 00:00:00 | |
| DD8BA-10 | 2026-09-05 00:16:02 | 52.88291 | 11.88996 | 216° | 9km/h | 23473m | 4.5m/s | -51.0°C | 3.5% | 33.9hPa | 2.6V | 00:00:00 | 00:00:00 | 00:00:00 | |
| DM0DOS-11 | 2026-09-05 00:16:01 | 52.88298 | 11.89015 | 244° | 9km/h | 23451m | 5.6m/s | -50.9°C | 3.5% | 34.1hPa | 2.7V | 03:40:22 | 01:46:16 | 00:00:00 | |
| EDDB2-11 | 2026-09-05 00:16:01 | 52.88294 | 11.89000 | 228° | 13km/h | 23468m | 6.0m/s | -51.0°C | 0.8% | 34.0hPa | 2.7V | 00:00:00 | 00:00:00 | 00:00:00 | |
| DL2RXE-15 | 2026-09-05 00:16:00 | 52.88294 | 11.89000 | 229° | 15km/h | 23468m | 6.0m/s | -51.0°C | 0.8% | 34.0hPa | 2.7V | 00:00:00 | 00:00:00 | 00:00:00 | |
| DL1XH-15 | 2026-09-05 00:15:59 | 52.88299 | 11.89018 | 231° | 5km/h | 23445m | 6.2m/s | -50.8°C | 3.5% | 34.1hPa | 2.7V | 03:40:23 | 01:46:15 | 00:00:00 | |
| AA1-15 | 2026-09-05 00:15:58 | 52.88298 | 11.89015 | 245° | 9km/h | 23451m | 5.6m/s | -50.9°C | 0.2% | 34.1hPa | 2.7V | 03:40:23 | 01:46:16 | 00:00:00 | |
| DL4BBY-15 | 2026-09-05 00:15:58 | 52.88298 | 11.89015 | 245° | 9km/h | 23451m | 5.6m/s | -51.3°C | 0% | 0hPa | 2.6V | 00:00:00 | 00:00:00 | 00:00:00 | |
| DK7RCA | 2026-09-05 00:15:57 | 52.88298 | 11.89015 | 246° | 9km/h | 23451m | 5.6m/s | 0°C | 0% | 0hPa | 2.6V | 00:00:00 | 00:00:00 | 00:00:00 | |
| DB0DAN | 2026-09-05 00:15:55 | 52.88301 | 11.89019 | 194° | 5km/h | 23435m | 5m/s | -50.7°C | 0.8% | 34.19hPa | 2.6V | 00:00:00 | 00:00:00 | 00:00:00 | |
| BIOWL1-15 | 2026-09-05 00:15:54 | 52.88302 | 11.89020 | 201° | 5km/h | 23429m | 6.4m/s | -50.7°C | 0.1% | 34.2hPa | 2.6V | 03:42:05 | 01:46:12 | 00:00:00 | |
| DL1XH1-15 | 2026-09-05 00:15:52 | 52.88308 | 11.89025 | 201° | 13km/h | 23411m | 6.6m/s | -50.5°C | 3.4% | 34.3hPa | 2.7V | 03:40:29 | 01:46:09 | 00:00:00 | |
| DF8AY | 2026-09-05 00:15:51 | 52.88308 | 11.89025 | 202° | 13km/h | 23411m | 6.6m/s | -50.5°C | 0.2% | 34.3hPa | 2.7V | 03:41:14 | 01:46:09 | 00:00:00 | |
| DL1ZP-14 | 2026-09-05 00:15:50 | 52.88314 | 11.89030 | 204° | 15km/h | 23400m | 3.9m/s | -50.4°C | 0.8% | 34.4hPa | 2.6V | 00:00:00 | 00:00:00 | 00:00:00 | |
| DM0DOS-11 | 2026-09-05 00:15:49 | 52.88317 | 11.89033 | 220° | 15km/h | 23396m | 4.8m/s | -50.4°C | 3.4% | 34.4hPa | 2.6V | 03:40:32 | 01:46:06 | 00:00:00 | |
| DL1XH-west | 2026-09-05 00:15:48 | 52.88317 | 11.89033 | 220° | 16km/h | 23396m | 4.8m/s | -50.4°C | 0.2% | 34.4hPa | 2.6V | 03:41:14 | 01:46:06 | 00:00:00 | |
| DL1XH-15 | 2026-09-05 00:15:48 | 52.88320 | 11.89038 | 231° | 18km/h | 23390m | 5.7m/s | -50.4°C | 3.4% | 34.4hPa | 2.7V | 03:40:33 | 01:46:05 | 00:00:00 | |
| AA1-15 | 2026-09-05 00:15:47 | 52.88325 | 11.89050 | 234° | 15km/h | 23380m | 4.1m/s | -50.3°C | 0.1% | 34.4hPa | 2.6V | 03:41:14 | 01:46:03 | 00:00:00 | |
| BIOWL9-15 | 2026-09-05 00:15:47 | 52.88322 | 11.89044 | 236° | 16km/h | 23385m | 4.6m/s | -50.3°C | 0.8% | 34.4hPa | 2.6V | 00:00:00 | 00:00:00 | 00:00:00 | |
| DL1NUX | 2026-09-05 00:15:46 | 52.88334 | 11.89057 | 165° | 5km/h | 23359m | 5.1m/s | -50.2°C | 3.3% | 34.6hPa | 2.6V | 03:40:39 | 01:45:59 | 00:00:00 | |
| BIOWL1-15 | 2026-09-05 00:15:44 | 52.88336 | 11.89056 | 151° | 2km/h | 23347m | 5.2m/s | -50.2°C | 0.1% | 34.6hPa | 2.6V | 03:42:05 | 01:45:57 | 00:00:00 | |
| DF8AY | 2026-09-05 00:15:40 | 52.88335 | 11.89056 | 166° | 4km/h | 23353m | 6.4m/s | -50.2°C | 0.1% | 34.6hPa | 2.6V | 03:41:14 | 01:45:58 | 00:00:00 | |
| DB0DAN | 2026-09-05 00:15:40 | 52.88335 | 11.89056 | 166° | 4km/h | 23353m | 6.4m/s | -50.2°C | 0.8% | 34.63hPa | 2.6V | 00:00:00 | 00:00:00 | 00:00:00 | |
| DL4XJ-10 | 2026-09-05 00:15:40 | 52.88335 | 11.89056 | 167° | 27km/h | 23353m | 6.3m/s | -50.6°C | 0% | 0hPa | 2.7V | 00:00:00 | 00:00:00 | 00:00:00 | |
| DL1XH-15 | 2026-09-05 00:15:39 | 52.88337 | 11.89055 | 176° | 2km/h | 23336m | 5.6m/s | -50.1°C | 3.3% | 34.7hPa | 2.7V | 03:40:43 | 01:45:55 | 00:00:00 | |
| DL1XH-west | 2026-09-05 00:15:38 | 52.88337 | 11.89055 | 163° | 2km/h | 23342m | 4.7m/s | -50.1°C | 0.1% | 34.7hPa | 2.7V | 03:41:14 | 01:45:56 | 00:00:00 | |
| AA1-15 | 2026-09-05 00:15:37 | 52.88337 | 11.89055 | 177° | 2km/h | 23336m | 5.6m/s | -50.1°C | 0.1% | 34.7hPa | 2.7V | 03:41:14 | 01:45:55 | 00:00:00 | |
| BIOWL1-15 | 2026-09-05 00:15:35 | 52.88344 | 11.89060 | 223° | 11km/h | 23315m | 6.4m/s | -50.1°C | 0% | 34.8hPa | 2.6V | 03:42:05 | 01:45:51 | 00:00:00 | |
| DO2SHX-10 | 2026-09-05 00:15:35 | 52.88340 | 11.89055 | 193° | 9km/h | 23326m | 4.2m/s | -50.1°C | 3.3% | 34.7hPa | 2.7V | 03:40:00 | 01:45:53 | 00:00:00 | |
| SMARD9-15 | 2026-09-05 00:15:34 | 52.88342 | 11.89057 | 207° | 9km/h | 23321m | 5.1m/s | -50.1°C | 0.8% | 34.7hPa | 2.7V | 00:00:00 | 00:00:00 | 00:00:00 | |
| GOEST3-10 | 2026-09-05 00:15:33 | 52.88344 | 11.89060 | 224° | 11km/h | 23316m | 6.3m/s | -50.0°C | 3.2% | 34.8hPa | 2.7V | 00:00:00 | 01:45:51 | 00:00:00 | |
| DL1XH1-15 | 2026-09-05 00:15:32 | 52.88348 | 11.89068 | 229° | 11km/h | 23304m | 4.9m/s | -50°C | 3.2% | 34.9hPa | 2.7V | 03:40:49 | 01:45:49 | 00:00:00 | |
| DO2SHX-10 | 2026-09-05 00:15:32 | 52.88346 | 11.89064 | 238° | 11km/h | 23310m | 5.4m/s | -50.0°C | 3.3% | 34.8hPa | 2.6V | 00:00:00 | 01:45:50 | 00:00:00 | |
| DM0DOS-11 | 2026-09-05 00:15:31 | 52.88354 | 11.89071 | 144° | 7km/h | 23288m | 4.5m/s | -49.9°C | 3.2% | 35hPa | 2.6V | 03:40:52 | 01:45:46 | 00:00:00 | |
| DF8AY | 2026-09-05 00:15:29 | 52.88352 | 11.89072 | 181° | 11km/h | 23293m | 6.4m/s | -49.9°C | 0% | 34.9hPa | 2.6V | 03:41:14 | 01:45:47 | 00:00:00 | |
| DO2SHX-10 | 2026-09-05 00:15:29 | 52.88352 | 11.89072 | 182° | 9km/h | 23293m | 6.3m/s | -49.9°C | 3.2% | 34.9hPa | 2.6V | 00:00:00 | 01:45:47 | 00:00:00 | |
| DL1XH-15 | 2026-09-05 00:15:28 | 52.88356 | 11.89069 | 122° | 9km/h | 23283m | 4.5m/s | -49.9°C | 3.2% | 35hPa | 2.6V | 03:40:53 | 01:45:45 | 00:00:00 | |
| AA1-15 | 2026-09-05 00:15:27 | 52.88356 | 11.89068 | 123° | 9km/h | 23283m | 4.6m/s | -49.9°C | 0% | 35hPa | 2.6V | 03:41:14 | 01:45:45 | 00:00:00 | |
| DL1XH1-15 | 2026-09-05 00:15:26 | 52.88360 | 11.89057 | 177° | 9km/h | 23251m | 4.6m/s | -49.9°C | 3.1% | 35.2hPa | 2.6V | 03:40:59 | 01:45:39 | 00:00:00 | |
| DB0DAN | 2026-09-05 00:15:25 | 52.88357 | 11.89063 | 103° | 5km/h | 23272m | 5.4m/s | -49.9°C | 0.8% | 35.04hPa | 2.7V | 00:00:00 | 00:00:00 | 00:00:00 | |
| BIOWL1-15 | 2026-09-05 00:15:22 | 52.88359 | 11.89058 | 152° | 5km/h | 23257m | 5.7m/s | -49.9°C | 0% | 35.1hPa | 2.6V | 03:42:05 | 01:45:40 | 00:00:00 | |
| DL1XH-15 | 2026-09-05 00:15:22 | 52.88368 | 11.89067 | 240° | 9km/h | 23231m | 4.1m/s | -50.2°C | 3.2% | 35.3hPa | 2.7V | 03:41:03 | 01:45:35 | 00:00:00 | |
| DF8AY | 2026-09-05 00:15:19 | 52.88365 | 11.89060 | 223° | 11km/h | 23242m | 5.9m/s | -50.1°C | 0% | 35.2hPa | 2.7V | 03:41:14 | 01:45:37 | 00:00:00 | |
| DM0DOS-11 | 2026-09-05 00:15:19 | 52.88367 | 11.89064 | 235° | 11km/h | 23236m | 5.7m/s | -50.1°C | 3.2% | 35.2hPa | 2.7V | 03:41:02 | 01:45:36 | 00:00:00 | |
| DL1XH-west | 2026-09-05 00:15:17 | 52.88370 | 11.89067 | 108° | 13km/h | 23216m | 6.2m/s | -50.3°C | 0% | 35.4hPa | 2.6V | 03:41:14 | 01:45:32 | 00:00:00 | |
| DK7RCA | 2026-09-05 00:15:16 | 52.88369 | 11.89069 | 228° | 4km/h | 23228m | 3.7m/s | 0°C | 0% | 0hPa | 2.6V | 03:41:00 | 00:00:00 | 00:00:00 | |
| DO2SHX-10 | 2026-09-05 00:15:14 | 52.88370 | 11.89067 | 109° | 16km/h | 23216m | 6.2m/s | -50.3°C | 3.2% | 35.3hPa | 2.6V | 00:00:00 | 01:45:32 | 00:00:00 | |
| GOEST3-10 | 2026-09-05 00:15:13 | 52.88371 | 11.89060 | 104° | 15km/h | 23211m | 5.0m/s | -50.3°C | 3.2% | 35.3hPa | 2.6V | 00:00:00 | 01:45:31 | 00:00:00 | |
| DL1XH1-15 | 2026-09-05 00:15:12 | 52.88373 | 11.89046 | 99° | 16km/h | 23201m | 5.5m/s | -50.5°C | 3.3% | 35.4hPa | 2.6V | 03:41:09 | 01:45:29 | 00:00:00 | |
| BIOWL1-15 | 2026-09-05 00:15:11 | 52.88376 | 11.89036 | 182° | 7km/h | 23185m | 5.2m/s | -50.6°C | 0.1% | 35.5hPa | 2.7V | 03:42:05 | 01:45:26 | 00:00:00 | |
| DB0DAN | 2026-09-05 00:15:10 | 52.88374 | 11.89040 | 103° | 11km/h | 23195m | 5.6m/s | -50.5°C | 0.8% | 35.44hPa | 2.6V | 00:00:00 | 00:00:00 | 00:00:00 | |
| SONDE2-11 | 2026-09-05 00:15:10 | 52.88375 | 11.89037 | 136° | 5km/h | 23190m | 5.1m/s | -50.6°C | 0.8% | 35.5hPa | 2.7V | 00:00:00 | 00:00:00 | 00:00:00 | |
| S3001 | 2026-09-05 00:15:09 | 52.88375 | 11.89037 | 136° | 5km/h | 23190m | 5.1m/s | -50.6°C | 0.8% | 35.5hPa | 2.7V | 00:00:00 | 00:00:00 | 00:00:00 | |
| DL1XH-15 | 2026-09-05 00:15:08 | 52.88378 | 11.89036 | 199° | 7km/h | 23179m | 5.2m/s | -50.6°C | 3.3% | 35.5hPa | 2.7V | 03:41:13 | 01:45:25 | 00:00:00 | |
| DF8AY | 2026-09-05 00:15:07 | 52.88378 | 11.89036 | 200° | 7km/h | 23179m | 5.2m/s | -50.6°C | 0% | 35.5hPa | 2.7V | 03:41:14 | 01:45:25 | 00:00:00 | |
| DL1XH1-15 | 2026-09-05 00:15:06 | 52.88387 | 11.89030 | 88° | 9km/h | 23147m | 4.1m/s | -51°C | 3.4% | 35.7hPa | 2.7V | 03:41:19 | 01:45:19 | 00:00:00 | |
| AA1-15 | 2026-09-05 00:15:04 | 52.88386 | 11.89035 | 133° | 5km/h | 23159m | 4.8m/s | -50.8°C | 0% | 35.6hPa | 2.6V | 03:42:05 | 01:45:21 | 00:00:00 | |
| GOEST3-10 | 2026-09-05 00:15:03 | 52.88386 | 11.89035 | 134° | 11km/h | 23159m | 4.7m/s | -50.8°C | 3.3% | 35.6hPa | 2.6V | 00:00:00 | 01:45:21 | 00:00:00 | |
| DM0DOS-11 | 2026-09-05 00:15:01 | 52.88389 | 11.89012 | 106° | 16km/h | 23132m | 5.1m/s | -51°C | 3.5% | 35.8hPa | 2.6V | 03:41:22 | 01:45:16 | 00:00:00 | |
| BIOWL1-15 | 2026-09-05 00:14:59 | 52.88388 | 11.89019 | 101° | 16km/h | 23137m | 6.4m/s | -51°C | 0.2% | 35.8hPa | 2.6V | 03:42:05 | 01:45:17 | 00:00:00 | |
| DF8AY | 2026-09-05 00:14:57 | 52.88390 | 11.89005 | 110° | 16km/h | 23126m | 5.3m/s | -51°C | 0.1% | 35.9hPa | 2.6V | 03:42:05 | 01:45:15 | 00:00:00 | |
| DB0DAN | 2026-09-05 00:14:55 | 52.88393 | 11.88993 | 118° | 15km/h | 23115m | 4.8m/s | -51°C | 0.8% | 35.91hPa | 2.7V | 00:00:00 | 00:00:00 | 00:00:00 | |
| DL1XH-west | 2026-09-05 00:14:54 | 52.88395 | 11.88988 | 126° | 15km/h | 23110m | 5.1m/s | -51°C | 0.1% | 35.9hPa | 2.6V | 03:42:05 | 01:45:12 | 00:00:00 | |
| AA1-15 | 2026-09-05 00:14:53 | 52.88401 | 11.88978 | 140° | 18km/h | 23098m | 4.6m/s | -51°C | 0.1% | 36hPa | 2.6V | 03:42:05 | 01:45:10 | 00:00:00 | |
| BIOWL1-15 | 2026-09-05 00:14:48 | 52.88412 | 11.88962 | 113° | 11km/h | 23077m | 5.2m/s | -50.9°C | 0.1% | 36.1hPa | 2.6V | 03:42:05 | 01:45:06 | 00:00:00 | |
| DL1XH-15 | 2026-09-05 00:14:48 | 52.88412 | 11.88957 | 104° | 13km/h | 23072m | 5m/s | -51°C | 3.4% | 36.1hPa | 2.6V | 03:41:33 | 01:45:05 | 00:00:00 | |
| DF8AY | 2026-09-05 00:14:46 | 52.88413 | 11.88952 | 102° | 15km/h | 23067m | 5.9m/s | -51°C | 0.1% | 36.2hPa | 2.6V | 03:42:05 | 01:45:04 | 00:00:00 | |
| BIOWL9-15 | 2026-09-05 00:14:45 | 52.88415 | 11.88937 | 94° | 20km/h | 23057m | 4.0m/s | -51.1°C | 0.8% | 36.2hPa | 2.7V | 00:00:00 | 00:00:00 | 00:00:00 | |
| DL1XH-west | 2026-09-05 00:14:43 | 52.88415 | 11.88928 | 89° | 20km/h | 23052m | 5.6m/s | -51.1°C | 0.1% | 36.2hPa | 2.7V | 03:42:05 | 01:45:01 | 00:00:00 | |
| DM0DOS-11 | 2026-09-05 00:14:43 | 52.88419 | 11.88885 | 119° | 24km/h | 23025m | 5.5m/s | -51.2°C | 3.4% | 36.4hPa | 2.7V | 03:41:42 | 01:44:56 | 00:00:00 | |
| AA1-15 | 2026-09-05 00:14:41 | 52.88415 | 11.88911 | 89° | 20km/h | 23041m | 4.9m/s | -51.2°C | 0.1% | 36.3hPa | 2.6V | 03:42:05 | 01:44:59 | 00:00:00 | |
| DB0DAN | 2026-09-05 00:14:40 | 52.88415 | 11.88903 | 98° | 20km/h | 23036m | 4.9m/s | -51.2°C | 0.8% | 36.34hPa | 2.6V | 00:00:00 | 00:00:00 | 00:00:00 | |
| BIOWL1-15 | 2026-09-05 00:14:38 | 52.88427 | 11.88861 | 116° | 20km/h | 23009m | 5.4m/s | -51.3°C | 0.1% | 36.5hPa | 2.6V | 03:42:05 | 01:44:53 | 00:00:00 | |
| DF8AY | 2026-09-05 00:14:34 | 52.88431 | 11.88845 | 108° | 20km/h | 22999m | 5.6m/s | -51.3°C | 0.1% | 36.6hPa | 2.7V | 03:42:05 | 01:44:51 | 00:00:00 | |
| DL1XH-west | 2026-09-05 00:14:33 | 52.88432 | 11.88837 | 107° | 22km/h | 22993m | 6.1m/s | -51.3°C | 0.2% | 36.6hPa | 2.7V | 03:42:05 | 01:44:50 | 00:00:00 | |
| AA1-15 | 2026-09-05 00:14:31 | 52.88435 | 11.88818 | 98° | 24km/h | 22983m | 4.5m/s | -51.3°C | 0.1% | 36.6hPa | 2.6V | 03:42:05 | 01:44:48 | 00:00:00 | |
| BIOWL1-15 | 2026-09-05 00:14:25 | 52.88436 | 11.88770 | 100° | 27km/h | 22957m | 6m/s | -51.3°C | 0.1% | 36.8hPa | 2.6V | 03:42:05 | 01:44:43 | 00:00:00 | |
| DB0DAN | 2026-09-05 00:14:25 | 52.88436 | 11.88770 | 100° | 26km/h | 22957m | 6m/s | -51.3°C | 0.8% | 36.8hPa | 2.6V | 00:00:00 | 00:00:00 | 00:00:00 | |
| DF8AY | 2026-09-05 00:14:23 | 52.88440 | 11.88746 | 108° | 33km/h | 22947m | 3.9m/s | -51.3°C | 0.1% | 36.8hPa | 2.6V | 03:42:05 | 01:44:41 | 00:00:00 | |
| DO2SHX-10 | 2026-09-05 00:14:23 | 52.88440 | 11.88746 | 109° | 31km/h | 22947m | 3.9m/s | -51.2°C | 3.4% | 36.8hPa | 2.7V | 03:41:00 | 01:44:41 | 00:00:00 | |
| DL1XH1-15 | 2026-09-05 00:14:22 | 52.88445 | 11.88722 | 103° | 29km/h | 22937m | 5.7m/s | -51.3°C | 3.4% | 36.9hPa | 2.7V | 03:41:59 | 01:44:39 | 00:00:00 | |
| AA1-15 | 2026-09-05 00:14:21 | 52.88445 | 11.88722 | 104° | 29km/h | 22937m | 5.7m/s | -51.3°C | 0.2% | 36.9hPa | 2.7V | 03:42:05 | 01:44:39 | 00:00:00 | |
| DF2AP-13 | 2026-09-05 00:14:20 | 52.88446 | 11.88711 | 102° | 26km/h | 22932m | 4.9m/s | -51.3°C | 3.3% | 36.8hPa | 2.6V | 00:00:00 | 01:44:38 | 00:00:00 | |
| AM1SDL-15 | 2026-09-05 00:14:19 | 52.88447 | 11.88702 | 104° | 26km/h | 22927m | 4.0m/s | -51.4°C | 3.4% | 36.9hPa | 2.6V | 00:00:00 | 01:44:37 | 00:00:00 | |
| GOEST3-10 | 2026-09-05 00:14:18 | 52.88449 | 11.88693 | 109° | 20km/h | 22922m | 5.9m/s | -51.5°C | 3.4% | 36.9hPa | 2.6V | 00:00:00 | 01:44:36 | 00:00:00 | |
| DO2SHX-10 | 2026-09-05 00:14:17 | 52.88451 | 11.88685 | 116° | 20km/h | 22916m | 5.7m/s | -51.7°C | 3.4% | 37.0hPa | 2.7V | 00:00:00 | 01:44:35 | 00:00:00 | |
| DL1NUX | 2026-09-05 00:14:16 | 52.88454 | 11.88633 | 85° | 29km/h | 22886m | 5.8m/s | -52°C | 3.5% | 37.2hPa | 2.7V | 03:42:09 | 01:44:29 | 00:00:00 | |
| BIOWL1-15 | 2026-09-05 00:14:15 | 52.88455 | 11.88670 | 108° | 18km/h | 22907m | 4.6m/s | -51.9°C | 0.2% | 37.1hPa | 2.7V | 03:42:05 | 01:44:33 | 00:00:00 | |
| DF8AY | 2026-09-05 00:14:13 | 52.88454 | 11.88633 | 86° | 29km/h | 22886m | 5.8m/s | -52°C | 0.2% | 37.2hPa | 2.7V | 03:42:56 | 01:44:29 | 00:00:00 | |
| DL1XH-west | 2026-09-05 00:14:12 | 52.88455 | 11.88645 | 82° | 26km/h | 22891m | 4.5m/s | -52°C | 0.2% | 37.2hPa | 2.6V | 03:42:56 | 01:44:30 | 00:00:00 | |
| AA1-15 | 2026-09-05 00:14:11 | 52.88454 | 11.88620 | 90° | 35km/h | 22880m | 5.6m/s | -52°C | 0.2% | 37.2hPa | 2.7V | 03:42:56 | 01:44:28 | 00:00:00 | |
| DB0DAN | 2026-09-05 00:14:10 | 52.88454 | 11.88620 | 90° | 33km/h | 22880m | 5.6m/s | -52°C | 0.9% | 37.19hPa | 2.7V | 00:00:00 | 00:00:00 | 00:00:00 | |
| DL1XH-15 | 2026-09-05 00:14:08 | 52.88454 | 11.88574 | 86° | 37km/h | 22865m | 5.7m/s | -52.1°C | 3.5% | 37.3hPa | 2.6V | 03:42:13 | 01:44:25 | 00:00:00 | |
| DO2SHX-10 | 2026-09-05 00:14:08 | 52.88454 | 11.88589 | 91° | 37km/h | 22870m | 5.1m/s | -52.0°C | 3.5% | 37.2hPa | 2.6V | 00:00:00 | 01:44:26 | 00:00:00 | |
| S3001 | 2026-09-05 00:14:07 | 52.88454 | 11.88574 | 86° | 37km/h | 22865m | 5.7m/s | -52.1°C | 0.9% | 37.3hPa | 2.6V | 00:00:00 | 00:00:00 | 00:00:00 | |
| AM1SDL-15 | 2026-09-05 00:14:06 | 52.88453 | 11.88559 | 83° | 27km/h | 22860m | 4.9m/s | -52.1°C | 3.5% | 37.3hPa | 2.6V | 03:42:00 | 01:44:24 | 00:00:00 | |
| DL1XH1-15 | 2026-09-05 00:14:05 | 52.88451 | 11.88500 | 94° | 22km/h | 22835m | 4.3m/s | -52.2°C | 3.5% | 37.5hPa | 2.6V | 03:42:19 | 01:44:19 | 00:00:00 | |
| DO2SHX-10 | 2026-09-05 00:14:05 | 52.88452 | 11.88545 | 84° | 29km/h | 22855m | 4.5m/s | -52.1°C | 3.5% | 37.3hPa | 2.6V | 00:00:00 | 01:44:23 | 00:00:00 | |
| GOEST3-10 | 2026-09-05 00:14:03 | 52.88451 | 11.88521 | 92° | 22km/h | 22845m | 6.1m/s | -52.2°C | 3.6% | 37.4hPa | 2.6V | 03:42:00 | 00:00:00 | 00:00:00 | |
| DM0DOS-11 | 2026-09-05 00:14:02 | 52.88451 | 11.88477 | 81° | 18km/h | 22819m | 4.9m/s | -52.2°C | 3.6% | 37.6hPa | 2.7V | 03:42:22 | 01:44:16 | 00:00:00 | |
| DF8AY | 2026-09-05 00:14:02 | 52.88451 | 11.88510 | 94° | 24km/h | 22840m | 4.3m/s | -52.2°C | 0.2% | 37.5hPa | 2.6V | 03:42:56 | 01:44:20 | 00:00:00 | |
| DL1XH-west | 2026-09-05 00:14:01 | 52.88451 | 11.88500 | 95° | 22km/h | 22835m | 4.3m/s | -52.2°C | 0.2% | 37.5hPa | 2.6V | 03:42:56 | 01:44:19 | 00:00:00 | |
| AA1-15 | 2026-09-05 00:14:00 | 52.88452 | 11.88484 | 82° | 18km/h | 22824m | 5.9m/s | -52.2°C | 0.2% | 37.5hPa | 2.7V | 03:42:56 | 01:44:17 | 00:00:00 | |
| SP3WXH-11 | 2026-09-05 00:13:59 | 52.88452 | 11.88484 | 81° | 16km/h | 22824m | 5.9m/s | -52.2°C | 0.9% | 37.5hPa | 2.6V | 00:00:00 | 00:00:00 | 00:00:00 | |
| EDDB2-11 | 2026-09-05 00:13:57 | 52.88450 | 11.88460 | 93° | 22km/h | 22808m | 5.3m/s | -52.2°C | 0.9% | 37.6hPa | 2.6V | 00:00:00 | 00:00:00 | 00:00:00 | |
| DB0DAN | 2026-09-05 00:13:55 | 52.88451 | 11.88450 | 93° | 24km/h | 22803m | 4.2m/s | -52.3°C | 0.9% | 37.68hPa | 2.6V | 00:00:00 | 00:00:00 | 00:00:00 | |
| DC4HF-4 | 2026-09-05 00:13:54 | 52.88451 | 11.88439 | 90° | 26km/h | 22799m | 4.2m/s | -52.3°C | 0.9% | 37.7hPa | 2.7V | 00:00:00 | 00:00:00 | 00:00:00 | |
| DO2SHX-10 | 2026-09-05 00:13:53 | 52.88451 | 11.88428 | 83° | 27km/h | 22794m | 6.0m/s | -52.3°C | 3.6% | 37.7hPa | 2.7V | 00:00:00 | 01:44:11 | 00:00:00 | |
| DM0DOS-11 | 2026-09-05 00:13:52 | 52.88443 | 11.88371 | 90° | 27km/h | 22769m | 5.4m/s | -52.7°C | 3.7% | 37.9hPa | 2.7V | 03:42:32 | 01:44:06 | 00:00:00 | |
| DF8AY | 2026-09-05 00:13:52 | 52.88449 | 11.88417 | 76° | 27km/h | 22788m | 5.5m/s | -52.4°C | 0.2% | 37.7hPa | 2.7V | 03:42:56 | 01:44:10 | 00:00:00 | |
| DL1XH1-15 | 2026-09-05 00:13:52 | 52.88447 | 11.88405 | 70° | 29km/h | 22783m | 4.7m/s | -52.5°C | 3.6% | 37.8hPa | 2.6V | 03:42:29 | 01:44:09 | 00:00:00 | |
| DL1XH-west | 2026-09-05 00:13:50 | 52.88445 | 11.88394 | 73° | 29km/h | 22779m | 4.3m/s | -52.6°C | 0.3% | 37.8hPa | 2.6V | 03:42:56 | 01:44:08 | 00:00:00 | |
| AA1-15 | 2026-09-05 00:13:49 | 52.88443 | 11.88371 | 90° | 27km/h | 22769m | 5.4m/s | -52.7°C | 0.3% | 37.9hPa | 2.7V | 03:42:56 | 01:44:06 | 00:00:00 | |
| DF8AY-15 | 2026-09-05 00:13:48 | 52.88443 | 11.88371 | 91° | 20km/h | 22769m | 5.3m/s | -52.7°C | 3.7% | 37.8hPa | 2.6V | 00:00:00 | 01:44:06 | 00:00:00 | |
| DO2SHX-10 | 2026-09-05 00:13:47 | 52.88443 | 11.88360 | 99° | 18km/h | 22764m | 4.0m/s | -52.7°C | 3.7% | 37.8hPa | 2.6V | 03:42:00 | 01:44:05 | 00:00:00 | |
| DL1XH1-15 | 2026-09-05 00:13:46 | 52.88458 | 11.88323 | 128° | 22km/h | 22727m | 4.8m/s | -52.7°C | 3.7% | 38.1hPa | 2.6V | 03:42:40 | 01:43:58 | 00:00:00 | |
| DL1ZP-14 | 2026-09-05 00:13:45 | 52.88445 | 11.88345 | 111° | 13km/h | 22754m | 6.0m/s | -52.7°C | 0.9% | 38.0hPa | 2.6V | 00:00:00 | 00:00:00 | 00:00:00 | |
| DF8AY | 2026-09-05 00:13:41 | 52.88455 | 11.88329 | 138° | 20km/h | 22732m | 5.9m/s | -52.7°C | 0.3% | 38.1hPa | 2.7V | 03:42:56 | 01:43:59 | 00:00:00 | |
| BIOWL1-15 | 2026-09-05 00:13:41 | 52.88468 | 11.88239 | 86° | 18km/h | 22680m | 6.2m/s | -52.6°C | 0.3% | 38.4hPa | 2.7V | 03:42:56 | 01:43:49 | 00:00:00 | |
| DB0DAN | 2026-09-05 00:13:40 | 52.88458 | 11.88323 | 129° | 20km/h | 22727m | 4.8m/s | -52.7°C | 0.9% | 38.13hPa | 2.6V | 00:00:00 | 00:00:00 | 00:00:00 | |
| AA1-15 | 2026-09-05 00:13:39 | 52.88463 | 11.88308 | 110° | 20km/h | 22716m | 6.1m/s | -52.7°C | 0.3% | 38.2hPa | 2.6V | 03:42:56 | 01:43:56 | 00:00:00 | |
| DL1XH-15 | 2026-09-05 00:13:38 | 52.88464 | 11.88299 | 98° | 22km/h | 22711m | 4.8m/s | -52.6°C | 3.7% | 38.2hPa | 2.7V | 03:42:43 | 01:43:55 | 00:00:00 | |
| DO2SHX-10 | 2026-09-05 00:13:38 | 52.88463 | 11.88308 | 110° | 22km/h | 22716m | 6.1m/s | -52.6°C | 3.7% | 38.1hPa | 2.7V | 00:00:00 | 01:43:56 | 00:00:00 | |
| DJ2DS-15 | 2026-09-05 00:13:37 | 52.88465 | 11.88289 | 94° | 24km/h | 22706m | 4.6m/s | -52.6°C | 0.9% | 38.3hPa | 2.7V | 00:00:00 | 00:00:00 | 00:00:00 | |
| DL1NUX | 2026-09-05 00:13:36 | 52.88468 | 11.88239 | 86° | 18km/h | 22680m | 6.2m/s | -52.6°C | 3.7% | 38.4hPa | 2.7V | 03:42:49 | 01:43:49 | 00:00:00 | |
| GOEST3-10 | 2026-09-05 00:13:36 | 52.88465 | 11.88289 | 95° | 26km/h | 22706m | 4.6m/s | -52.6°C | 3.6% | 38.2hPa | 2.7V | 00:00:00 | 01:43:54 | 00:00:00 | |
| DL1XH1-15 | 2026-09-05 00:13:35 | 52.88467 | 11.88232 | 83° | 15km/h | 22675m | 5.2m/s | -52.6°C | 3.7% | 38.4hPa | 2.7V | 03:42:50 | 01:43:48 | 00:00:00 | |
| DO2SHX-10 | 2026-09-05 00:13:35 | 52.88466 | 11.88279 | 97° | 26km/h | 22701m | 6.0m/s | -52.6°C | 3.7% | 38.2hPa | 2.6V | 03:42:00 | 01:43:53 | 00:00:00 | |
| DM0DOS-11 | 2026-09-05 00:13:33 | 52.88468 | 11.88219 | 108° | 18km/h | 22665m | 5m/s | -52.6°C | 3.7% | 38.5hPa | 2.6V | 03:42:52 | 01:43:46 | 00:00:00 | |
| DF8AY | 2026-09-05 00:13:30 | 52.88468 | 11.88232 | 84° | 15km/h | 22675m | 5.2m/s | -52.7°C | 0.3% | 38.4hPa | 2.7V | 03:42:56 | 01:43:48 | 00:00:00 | |
| AA1-15 | 2026-09-05 00:13:28 | 52.88470 | 11.88211 | 112° | 22km/h | 22660m | 5.7m/s | -52.6°C | 0.2% | 38.5hPa | 2.6V | 03:42:56 | 01:43:45 | 00:00:00 | |
| DL1XH-15 | 2026-09-05 00:13:28 | 52.88470 | 11.88211 | 111° | 22km/h | 22660m | 5.7m/s | -52.6°C | 3.6% | 38.5hPa | 2.6V | 03:42:53 | 01:43:45 | 00:00:00 | |
| DL4BBY-15 | 2026-09-05 00:13:28 | 52.88468 | 11.88219 | 109° | 29km/h | 22665m | 5.0m/s | -53.0°C | 0% | 0hPa | 2.7V | 00:00:00 | 00:00:00 | 00:00:00 | |
| EDDB2-11 | 2026-09-05 00:13:26 | 52.88476 | 11.88190 | 110° | 31km/h | 22651m | 3.4m/s | -52.6°C | 0.9% | 38.6hPa | 2.7V | 00:00:00 | 00:00:00 | 00:00:00 | |
| DL1XH1-15 | 2026-09-05 00:13:25 | 52.88481 | 11.88124 | 92° | 29km/h | 22625m | 6m/s | -52.8°C | 3.7% | 38.7hPa | 2.7V | 03:43:00 | 01:43:38 | 00:00:00 | |
| DB0DAN | 2026-09-05 00:13:25 | 52.88476 | 11.88190 | 111° | 31km/h | 22651m | 3.4m/s | -52.6°C | 0.9% | 38.56hPa | 2.7V | 00:00:00 | 00:00:00 | 00:00:00 | |
| BIOWL1-15 | 2026-09-05 00:13:22 | 52.88481 | 11.88150 | 91° | 33km/h | 22636m | 5.2m/s | -52.6°C | 0.3% | 38.6hPa | 2.6V | 03:43:47 | 01:43:40 | 00:00:00 | |
| DF8AY | 2026-09-05 00:13:19 | 52.88481 | 11.88113 | 94° | 26km/h | 22620m | 5.5m/s | -52.8°C | 0.3% | 38.8hPa | 2.7V | 03:43:47 | 01:43:37 | 00:00:00 | |
| DL1XH-15 | 2026-09-05 00:13:18 | 52.88482 | 11.88093 | 87° | 24km/h | 22609m | 5.7m/s | -52.8°C | 3.7% | 38.8hPa | 2.6V | 03:43:03 | 01:43:35 | 00:00:00 | |
| AA1-15 | 2026-09-05 00:13:18 | 52.88481 | 11.88083 | 82° | 22km/h | 22604m | 5.9m/s | -52.8°C | 0.3% | 38.8hPa | 2.6V | 03:43:47 | 01:43:34 | 00:00:00 | |
| DL1XH-west | 2026-09-05 00:13:17 | 52.88482 | 11.88093 | 88° | 24km/h | 22609m | 5.7m/s | -52.8°C | 0.3% | 38.8hPa | 2.6V | 03:43:47 | 01:43:35 | 00:00:00 | |
| DO2SHX-10 | 2026-09-05 00:13:17 | 52.88482 | 11.88092 | 88° | 22km/h | 22610m | 5.7m/s | -52.8°C | 3.7% | 38.8hPa | 2.6V | 00:00:00 | 01:43:35 | 00:00:00 | |
| SO1NDE-10 | 2026-09-05 00:13:16 | 52.88481 | 11.88083 | 82° | 27km/h | 22604m | 5.8m/s | -52.8°C | 3.7% | 38.8hPa | 2.6V | 00:00:00 | 01:43:34 | 00:00:00 | |
| MECKS9 | 2026-09-05 00:13:15 | 52.88481 | 11.88083 | 83° | 22km/h | 22604m | 5.9m/s | -52.8°C | 0.9% | 38.8hPa | 2.7V | 03:43:00 | 00:00:00 | 00:00:00 | |
| DO2SHX-10 | 2026-09-05 00:13:14 | 52.88480 | 11.88064 | 86° | 26km/h | 22594m | 4.3m/s | -52.8°C | 3.7% | 38.9hPa | 2.7V | 00:00:00 | 01:43:32 | 00:00:00 | |
| DM0DOS-11 | 2026-09-05 00:13:13 | 52.88485 | 11.87988 | 91° | 38km/h | 22563m | 4m/s | -52.8°C | 3.6% | 39.1hPa | 2.7V | 03:43:12 | 01:43:26 | 00:00:00 | |
| DD8BA-10 | 2026-09-05 00:13:12 | 52.88481 | 11.88044 | 102° | 31km/h | 22584m | 4.8m/s | -52.8°C | 3.7% | 38.9hPa | 2.6V | 00:00:00 | 00:00:00 | 00:00:00 | |
| TFSTFS | 2026-09-05 00:13:11 | 52.88481 | 11.88044 | 103° | 27km/h | 22584m | 4.8m/s | -52.9°C | 0.9% | 39.0hPa | 2.6V | 03:43:00 | 00:00:00 | 00:00:00 | |
| DB0DAN | 2026-09-05 00:13:10 | 52.88484 | 11.88018 | 99° | 33km/h | 22573m | 5.4m/s | -52.8°C | 0.9% | 39.06hPa | 2.6V | 00:00:00 | 00:00:00 | 00:00:00 | |
| BIOWL1-15 | 2026-09-05 00:13:10 | 52.88491 | 11.87911 | 96° | 24km/h | 22533m | 6.3m/s | -53°C | 0.3% | 39.2hPa | 2.7V | 03:43:47 | 01:43:20 | 00:00:00 | |
| DF8AY | 2026-09-05 00:13:08 | 52.88485 | 11.87988 | 91° | 38km/h | 22563m | 4m/s | -52.8°C | 0.2% | 39.1hPa | 2.7V | 03:43:47 | 01:43:26 | 00:00:00 | |
| DL1XH-west | 2026-09-05 00:13:07 | 52.88486 | 11.87958 | 95° | 35km/h | 22554m | 5.5m/s | -52.8°C | 0.3% | 39.1hPa | 2.6V | 03:43:47 | 01:43:24 | 00:00:00 | |
| AA1-15 | 2026-09-05 00:13:07 | 52.88487 | 11.87944 | 101° | 31km/h | 22549m | 5.6m/s | -52.8°C | 0.3% | 39.2hPa | 2.6V | 03:43:47 | 01:43:23 | 00:00:00 | |
| DL1NUX | 2026-09-05 00:13:06 | 52.88492 | 11.87901 | 91° | 24km/h | 22528m | 4.8m/s | -53°C | 3.7% | 39.3hPa | 2.7V | 03:43:19 | 01:43:19 | 00:00:00 | |
| GOEST3-10 | 2026-09-05 00:13:06 | 52.88486 | 11.87958 | 95° | 29km/h | 22555m | 5.4m/s | -52.7°C | 3.7% | 39.1hPa | 2.6V | 00:00:00 | 01:43:24 | 00:00:00 | |
| S3001 | 2026-09-05 00:13:05 | 52.88487 | 11.87944 | 101° | 29km/h | 22549m | 5.6m/s | -52.8°C | 0.9% | 39.2hPa | 2.6V | 00:00:00 | 00:00:00 | 00:00:00 | |
| AM1SDL-15 | 2026-09-05 00:13:04 | 52.88489 | 11.87932 | 105° | 24km/h | 22544m | 4.5m/s | -52.9°C | 3.7% | 39.2hPa | 2.6V | 00:00:00 | 01:43:22 | 00:00:00 | |
| DM0DOS-11 | 2026-09-05 00:13:03 | 52.88494 | 11.87873 | 108° | 22km/h | 22513m | 5.2m/s | -53.1°C | 3.8% | 39.4hPa | 2.6V | 03:43:22 | 01:43:16 | 00:00:00 | |
| DF8AY | 2026-09-05 00:13:02 | 52.88496 | 11.87864 | 111° | 24km/h | 22508m | 4.6m/s | -53.1°C | 0.4% | 39.4hPa | 2.7V | 03:43:47 | 01:43:15 | 00:00:00 | |
| DO2SHX-10 | 2026-09-05 00:13:02 | 52.88491 | 11.87911 | 96° | 24km/h | 22534m | 6.3m/s | -52.9°C | 3.7% | 39.2hPa | 2.7V | 00:00:00 | 01:43:20 | 00:00:00 | |
| SONCRA | 2026-09-05 00:13:00 | 52.88492 | 11.87891 | 96° | 22km/h | 22524m | 4.5m/s | -53.0°C | 1.0% | 39.4hPa | 2.7V | 00:00:00 | 00:00:00 | 00:00:00 | |
| SMARD9-15 | 2026-09-05 00:12:59 | 52.88494 | 11.87873 | 108° | 22km/h | 22513m | 5.2m/s | -53.1°C | 1.0% | 39.4hPa | 2.7V | 00:00:00 | 00:00:00 | 00:00:00 | |
| DL1XH-15 | 2026-09-05 00:12:58 | 52.88496 | 11.87864 | 110° | 22km/h | 22508m | 4.6m/s | -53.1°C | 3.8% | 39.4hPa | 2.7V | 03:43:23 | 01:43:15 | 00:00:00 | |
| DL1XH-west | 2026-09-05 00:12:56 | 52.88499 | 11.87846 | 98° | 24km/h | 22497m | 5.9m/s | -53.1°C | 0.3% | 39.5hPa | 2.6V | 03:43:47 | 01:43:13 | 00:00:00 | |
| DL1NUX | 2026-09-05 00:12:56 | 52.88505 | 11.87806 | 112° | 26km/h | 22477m | 4.9m/s | -53.3°C | 3.8% | 39.6hPa | 2.7V | 03:43:29 | 01:43:09 | 00:00:00 | |
| DB0DAN | 2026-09-05 00:12:55 | 52.88499 | 11.87846 | 98° | 22km/h | 22497m | 5.9m/s | -53.1°C | 0.9% | 39.51hPa | 2.6V | 00:00:00 | 00:00:00 | 00:00:00 | |
| DL1XH1-15 | 2026-09-05 00:12:55 | 52.88507 | 11.87796 | 112° | 26km/h | 22472m | 5m/s | -53.3°C | 3.8% | 39.7hPa | 2.7V | 03:43:30 | 01:43:08 | 00:00:00 | |
| AA1-15 | 2026-09-05 00:12:55 | 52.88500 | 11.87836 | 96° | 24km/h | 22492m | 4.5m/s | -53.2°C | 0.4% | 39.5hPa | 2.6V | 03:43:47 | 01:43:12 | 00:00:00 | |
| BIOWL1-15 | 2026-09-05 00:12:51 | 52.88505 | 11.87806 | 113° | 26km/h | 22477m | 4.9m/s | -53.3°C | 0.3% | 39.6hPa | 2.7V | 03:43:47 | 01:43:09 | 00:00:00 | |
| HSKMA3-T | 2026-09-05 00:12:50 | 52.88507 | 11.87796 | 112° | 26km/h | 22472m | 5m/s | 0°C | 0% | 0hPa | 2.7V | 18:12:15 | 01:43:08 | 00:00:00 | |
| DO2SHX-10 | 2026-09-05 00:12:50 | 52.88507 | 11.87796 | 113° | 26km/h | 22472m | 4.9m/s | -53.3°C | 3.8% | 39.6hPa | 2.6V | 00:00:00 | 01:43:08 | 00:00:00 | |
| DM0DOS-11 | 2026-09-05 00:12:49 | 52.88511 | 11.87776 | 103° | 24km/h | 22460m | 5m/s | -53.3°C | 3.8% | 39.7hPa | 2.6V | 03:43:32 | 01:43:06 | 00:00:00 | |
| HARRO8 | 2026-09-05 00:12:49 | 52.88511 | 11.87776 | 103° | 24km/h | 22460m | 5.0m/s | -53.3°C | 1.0% | 39.7hPa | 2.6V | 00:00:00 | 00:00:00 | 00:00:00 | |
| DL1XH-15 | 2026-09-05 00:12:48 | 52.88512 | 11.87766 | 106° | 24km/h | 22456m | 3.8m/s | -53.3°C | 3.7% | 39.7hPa | 2.6V | 03:43:33 | 01:43:05 | 00:00:00 | |
| DF8AY | 2026-09-05 00:12:47 | 52.88512 | 11.87766 | 106° | 24km/h | 22456m | 3.8m/s | -53.3°C | 0.3% | 39.7hPa | 2.6V | 03:43:47 | 01:43:05 | 00:00:00 | |
| DL1XH-west | 2026-09-05 00:12:45 | 52.88518 | 11.87740 | 109° | 20km/h | 22441m | 3.9m/s | -53.3°C | 0.3% | 39.8hPa | 2.7V | 03:43:47 | 01:43:02 | 00:00:00 | |
| DL1XH1-15 | 2026-09-05 00:12:45 | 52.88519 | 11.87709 | 91° | 18km/h | 22420m | 5.7m/s | -53.2°C | 3.7% | 40hPa | 2.7V | 03:43:40 | 01:42:58 | 00:00:00 | |
| AA1-15 | 2026-09-05 00:12:44 | 52.88519 | 11.87732 | 100° | 18km/h | 22436m | 6.2m/s | -53.2°C | 0.4% | 39.9hPa | 2.6V | 03:43:47 | 01:43:01 | 00:00:00 | |
| DM0DOS-11 | 2026-09-05 00:12:43 | 52.88520 | 11.87682 | 91° | 26km/h | 22405m | 5.6m/s | -53.2°C | 3.7% | 40.1hPa | 2.6V | 03:43:43 | 01:42:55 | 00:00:00 | |
| BIOWL1-15 | 2026-09-05 00:12:40 | 52.88519 | 11.87709 | 92° | 18km/h | 22420m | 5.7m/s | -53.2°C | 0.3% | 40hPa | 2.7V | 03:43:47 | 01:42:58 | 00:00:00 | |
| DB0DAN | 2026-09-05 00:12:40 | 52.88519 | 11.87709 | 92° | 18km/h | 22420m | 5.7m/s | -53.2°C | 1% | 39.98hPa | 2.7V | 00:00:00 | 00:00:00 | 00:00:00 | |
| DL1XH-15 | 2026-09-05 00:12:38 | 52.88520 | 11.87682 | 91° | 26km/h | 22405m | 5.6m/s | -53.2°C | 3.7% | 40.1hPa | 2.6V | 03:43:43 | 01:42:55 | 00:00:00 | |
| DF8AY | 2026-09-05 00:12:38 | 52.88520 | 11.87682 | 92° | 26km/h | 22405m | 5.6m/s | -53.2°C | 0.3% | 40.1hPa | 2.6V | 03:43:47 | 01:42:55 | 00:00:00 | |
| DL1NUX | 2026-09-05 00:12:36 | 52.88520 | 11.87619 | 86° | 22km/h | 22375m | 4.1m/s | -53.5°C | 3.8% | 40.2hPa | 2.7V | 03:43:49 | 01:42:49 | 00:00:00 | |
| AA1-15 | 2026-09-05 00:12:33 | 52.88519 | 11.87638 | 91° | 26km/h | 22384m | 5.3m/s | -53.4°C | 0.3% | 40.2hPa | 2.6V | 03:43:47 | 01:42:51 | 00:00:00 | |
| SP3BTT-10 | 2026-09-05 00:12:33 | 52.88519 | 11.87638 | 92° | 11km/h | 22384m | 5.3m/s | -53.3°C | 3.8% | 40.2hPa | 2.6V | 03:43:00 | 00:00:00 | 00:00:00 | |
| DM0DOS-11 | 2026-09-05 00:12:32 | 52.88513 | 11.87584 | 69° | 22km/h | 22354m | 5.5m/s | -53.6°C | 3.9% | 40.4hPa | 2.6V | 03:43:53 | 01:42:45 | 00:00:00 | |
| BIOWL1-15 | 2026-09-05 00:12:29 | 52.88517 | 11.87601 | 66° | 22km/h | 22364m | 5.4m/s | -53.6°C | 0.4% | 40.3hPa | 2.7V | 03:44:38 | 01:42:47 | 00:00:00 | |
| DF8AY | 2026-09-05 00:12:26 | 52.88510 | 11.87566 | 81° | 24km/h | 22344m | 4.4m/s | -53.6°C | 0.5% | 40.5hPa | 2.7V | 03:44:38 | 01:42:43 | 00:00:00 | |
| DL1NUX | 2026-09-05 00:12:26 | 52.88506 | 11.87519 | 78° | 33km/h | 22324m | 5.2m/s | -53.5°C | 3.8% | 40.5hPa | 2.7V | 03:43:59 | 01:42:39 | 00:00:00 | |
| DB0DAN | 2026-09-05 00:12:25 | 52.88510 | 11.87566 | 81° | 22km/h | 22344m | 4.4m/s | -53.6°C | 1% | 40.46hPa | 2.7V | 00:00:00 | 00:00:00 | 00:00:00 | |
| DL1XH1-15 | 2026-09-05 00:12:25 | 52.88503 | 11.87493 | 87° | 31km/h | 22313m | 6.1m/s | -53.5°C | 3.9% | 40.6hPa | 2.6V | 03:44:01 | 01:42:37 | 00:00:00 | |
| DL1XH-west | 2026-09-05 00:12:23 | 52.88508 | 11.87544 | 79° | 29km/h | 22335m | 5.7m/s | -53.6°C | 0.4% | 40.5hPa | 2.6V | 03:44:38 | 01:42:41 | 00:00:00 | |
| BIOWL1-15 | 2026-09-05 00:12:20 | 52.88498 | 11.87427 | 63° | 22km/h | 22284m | 5.9m/s | -53.5°C | 0.4% | 40.8hPa | 2.6V | 03:44:38 | 01:42:31 | 00:00:00 | |
| HARRO8 | 2026-09-05 00:12:18 | 52.88504 | 11.87469 | 90° | 27km/h | 22304m | 4.1m/s | -53.5°C | 1.0% | 40.7hPa | 2.6V | 00:00:00 | 00:00:00 | 00:00:00 | |
| DO2SHX-10 | 2026-09-05 00:12:17 | 52.88503 | 11.87469 | 91° | 27km/h | 22304m | 4.0m/s | -53.5°C | 3.9% | 40.6hPa | 2.6V | 00:00:00 | 01:42:35 | 00:00:00 | |
| DL1NUX | 2026-09-05 00:12:16 | 52.88493 | 11.87414 | 51° | 18km/h | 22273m | 4.1m/s | -53.4°C | 3.9% | 40.9hPa | 2.6V | 03:44:09 | 01:42:29 | 00:00:00 | |
| DF8AY | 2026-09-05 00:12:14 | 52.88500 | 11.87436 | 70° | 26km/h | 22289m | 4.7m/s | -53.5°C | 0.4% | 40.8hPa | 2.7V | 03:44:38 | 01:42:32 | 00:00:00 | |
| AA1-15 | 2026-09-05 00:12:13 | 52.88496 | 11.87420 | 61° | 18km/h | 22278m | 5.4m/s | -53.4°C | 0.4% | 40.9hPa | 2.6V | 03:44:38 | 01:42:30 | 00:00:00 | |
| DM0DOS-11 | 2026-09-05 00:12:12 | 52.88477 | 11.87385 | 51° | 27km/h | 22253m | 4.1m/s | -53.3°C | 3.8% | 41hPa | 2.6V | 03:44:13 | 01:42:25 | 00:00:00 | |
| DD8BA-10 | 2026-09-05 00:12:12 | 52.88495 | 11.87420 | 61° | 22km/h | 22278m | 5.4m/s | -53.4°C | 3.9% | 40.8hPa | 2.7V | 00:00:00 | 00:00:00 | 00:00:00 | |
| DB0DAN | 2026-09-05 00:12:10 | 52.88490 | 11.87408 | 46° | 20km/h | 22269m | 4.8m/s | -53.4°C | 1% | 40.91hPa | 2.7V | 00:00:00 | 00:00:00 | 00:00:00 | |
| GOEST3-10 | 2026-09-05 00:12:09 | 52.88486 | 11.87401 | 45° | 26km/h | 22264m | 6.0m/s | -53.3°C | 3.8% | 40.9hPa | 2.6V | 00:00:00 | 00:00:00 | 00:00:00 | |
| DF8AY-15 | 2026-09-05 00:12:08 | 52.88482 | 11.87393 | 49° | 20km/h | 22258m | 5.5m/s | -53.3°C | 3.8% | 40.9hPa | 2.6V | 00:00:00 | 01:42:26 | 00:00:00 | |
| TFSTFS | 2026-09-05 00:12:07 | 52.88482 | 11.87393 | 49° | 27km/h | 22258m | 5.6m/s | -53.3°C | 1.0% | 41.0hPa | 2.6V | 00:00:00 | 00:00:00 | 00:00:00 | |
| DL1NUX | 2026-09-05 00:12:06 | 52.88459 | 11.87333 | 64° | 24km/h | 22222m | 4.6m/s | -53.1°C | 3.8% | 41.2hPa | 2.6V | 03:44:19 | 01:42:19 | 00:00:00 | |
| DF8AY | 2026-09-05 00:12:04 | 52.88464 | 11.87351 | 65° | 22km/h | 22232m | 4.8m/s | -53.2°C | 0.4% | 41.2hPa | 2.7V | 03:44:38 | 01:42:21 | 00:00:00 | |
| S3001 | 2026-09-05 00:12:03 | 52.88462 | 11.87342 | 64° | 24km/h | 22227m | 6.3m/s | -53.2°C | 1.0% | 41.2hPa | 2.7V | 00:00:00 | 00:00:00 | 00:00:00 | |
| DM0DOS-11 | 2026-09-05 00:12:02 | 52.88453 | 11.87302 | 71° | 15km/h | 22201m | 4.2m/s | -53.1°C | 3.8% | 41.3hPa | 2.7V | 03:44:23 | 01:42:15 | 00:00:00 | |
| AA1-15 | 2026-09-05 00:12:02 | 52.88459 | 11.87333 | 65° | 24km/h | 22222m | 4.6m/s | -53.2°C | 0.4% | 41.2hPa | 2.6V | 03:44:38 | 01:42:19 | 00:00:00 | |
| DF7ER-10 | 2026-09-05 00:12:01 | 52.88462 | 11.87342 | 66° | 24km/h | 22227m | 6.3m/s | -53.2°C | 1.0% | 41.2hPa | 2.7V | 03:44:00 | 00:00:00 | 00:00:00 | |
| DL1XH1-15 | 2026-09-05 00:12:00 | 52.88455 | 11.87316 | 73° | 20km/h | 22212m | 6.5m/s | -53.1°C | 3.8% | 41.3hPa | 2.7V | 03:44:21 | 01:42:17 | 00:00:00 | |
| SONCRA | 2026-09-05 00:11:58 | 52.88454 | 11.87308 | 79° | 16km/h | 22206m | 5.4m/s | -53.1°C | 1.0% | 41.3hPa | 2.7V | 00:00:00 | 00:00:00 | 00:00:00 | |
| SMARD9-15 | 2026-09-05 00:11:57 | 52.88451 | 11.87296 | 58° | 15km/h | 22196m | 5.7m/s | -53.0°C | 1.0% | 41.4hPa | 2.7V | 00:00:00 | 00:00:00 | 00:00:00 | |
| DL1NUX | 2026-09-05 00:11:56 | 52.88438 | 11.87271 | 63° | 15km/h | 22170m | 5.4m/s | -52.9°C | 3.8% | 41.5hPa | 2.7V | 03:44:29 | 01:42:09 | 00:00:00 | |
| DB0DAN | 2026-09-05 00:11:55 | 52.88449 | 11.87290 | 48° | 16km/h | 22191m | 5.2m/s | -53°C | 1% | 41.41hPa | 2.6V | 00:00:00 | 00:00:00 | 00:00:00 | |
| BIOWL1-15 | 2026-09-05 00:11:54 | 52.88440 | 11.87275 | 48° | 15km/h | 22176m | 6.2m/s | -52.9°C | 0.4% | 41.5hPa | 2.7V | 03:44:38 | 01:42:10 | 00:00:00 | |
| DF8AY | 2026-09-05 00:11:53 | 52.88443 | 11.87280 | 45° | 16km/h | 22181m | 5.3m/s | -52.9°C | 0.3% | 41.5hPa | 2.7V | 03:44:38 | 01:42:11 | 00:00:00 | |
| DO2SHX-10 | 2026-09-05 00:11:53 | 52.88442 | 11.87280 | 45° | 15km/h | 22182m | 5.3m/s | -52.9°C | 3.8% | 41.4hPa | 2.7V | 00:00:00 | 01:42:11 | 00:00:00 | |
| DM0DOS-11 | 2026-09-05 00:11:52 | 52.88430 | 11.87251 | 64° | 13km/h | 22149m | 5m/s | -52.9°C | 3.8% | 41.7hPa | 2.7V | 03:44:33 | 01:42:05 | 00:00:00 | |
| AA1-15 | 2026-09-05 00:11:51 | 52.88436 | 11.87266 | 57° | 15km/h | 22165m | 5.1m/s | -52.9°C | 0.4% | 41.6hPa | 2.6V | 03:44:38 | 01:42:08 | 00:00:00 | |
| DL1XH1-15 | 2026-09-05 00:11:50 | 52.88434 | 11.87261 | 54° | 15km/h | 22160m | 6m/s | -52.9°C | 3.8% | 41.6hPa | 2.6V | 03:44:31 | 01:42:07 | 00:00:00 | |
| HARRO8 | 2026-09-05 00:11:47 | 52.88429 | 11.87246 | 77° | 11km/h | 22144m | 6.6m/s | -52.9°C | 1.0% | 41.7hPa | 2.6V | 00:00:00 | 00:00:00 | 00:00:00 | |
| DL1NUX | 2026-09-05 00:11:46 | 52.88427 | 11.87220 | 75° | 15km/h | 22118m | 4.2m/s | -52.9°C | 3.6% | 41.9hPa | 2.6V | 03:44:39 | 01:41:59 | 00:00:00 | |
| SO1NDE-10 | 2026-09-05 00:11:46 | 52.88429 | 11.87246 | 78° | 11km/h | 22144m | 6.6m/s | -52.9°C | 3.8% | 41.7hPa | 2.7V | 00:00:00 | 01:42:04 | 00:00:00 | |
| DO2SHX-10 | 2026-09-05 00:11:44 | 52.88429 | 11.87236 | 93° | 13km/h | 22134m | 4.1m/s | -52.9°C | 3.8% | 41.7hPa | 2.6V | 00:00:00 | 01:42:02 | 00:00:00 | |
| BIOWL7-15 | 2026-09-05 00:11:43 | 52.88429 | 11.87236 | 93° | 11km/h | 22134m | 4.1m/s | -53.0°C | 1.0% | 41.8hPa | 2.7V | 00:00:00 | 00:00:00 | 00:00:00 | |
| DM0DOS-11 | 2026-09-05 00:11:42 | 52.88424 | 11.87200 | 65° | 9km/h | 22096m | 6.2m/s | -52.7°C | 3.7% | 42hPa | 2.7V | 03:44:43 | 01:41:55 | 00:00:00 | |
| BIOWL1-15 | 2026-09-05 00:11:42 | 52.88428 | 11.87226 | 73° | 15km/h | 22123m | 5m/s | -52.9°C | 0.4% | 41.8hPa | 2.7V | 03:44:38 | 01:42:00 | 00:00:00 | |
| DD8BA-10 | 2026-09-05 00:11:42 | 52.88428 | 11.87226 | 73° | 11km/h | 22123m | 5.0m/s | -52.8°C | 3.7% | 41.8hPa | 2.6V | 03:44:00 | 00:00:00 | 00:00:00 | |
| DO2SHX-10 | 2026-09-05 00:11:41 | 52.88427 | 11.87220 | 76° | 13km/h | 22118m | 4.1m/s | -52.8°C | 3.6% | 41.8hPa | 2.6V | 00:00:00 | 01:41:59 | 00:00:00 | |
| DL1XH1-15 | 2026-09-05 00:11:40 | 52.88425 | 11.87209 | 81° | 13km/h | 22108m | 5.6m/s | -52.8°C | 3.6% | 42hPa | 2.6V | 03:44:41 | 01:41:57 | 00:00:00 | |
| DB0DAN | 2026-09-05 00:11:40 | 52.88426 | 11.87214 | 75° | 13km/h | 22113m | 5.5m/s | -52.8°C | 0.9% | 41.9hPa | 2.6V | 00:00:00 | 00:00:00 | 00:00:00 | |
| DL1XH-west | 2026-09-05 00:11:39 | 52.88425 | 11.87209 | 81° | 13km/h | 22108m | 5.6m/s | -52.8°C | 0.2% | 42hPa | 2.6V | 03:45:29 | 01:41:57 | 00:00:00 | |
| GOEST3-10 | 2026-09-05 00:11:39 | 52.88425 | 11.87209 | 82° | 11km/h | 22108m | 5.5m/s | -52.7°C | 3.6% | 41.9hPa | 2.7V | 03:44:00 | 00:00:00 | 00:00:00 | |
| DO2SHX-10 | 2026-09-05 00:11:38 | 52.88425 | 11.87204 | 80° | 11km/h | 22103m | 5.3m/s | -52.7°C | 3.7% | 41.9hPa | 2.7V | 00:00:00 | 01:41:56 | 00:00:00 | |
| DL1NUX | 2026-09-05 00:11:36 | 52.88427 | 11.87175 | 127° | 15km/h | 22067m | 4m/s | -52.6°C | 3.7% | 42.2hPa | 2.7V | 03:44:49 | 01:41:49 | 00:00:00 | |
| DF8AY | 2026-09-05 00:11:32 | 52.88424 | 11.87180 | 127° | 15km/h | 22071m | 4.7m/s | -52.7°C | 0.3% | 42.2hPa | 2.7V | 03:45:29 | 01:41:50 | 00:00:00 | |
| DL1XH-15 | 2026-09-05 00:11:32 | 52.88432 | 11.87159 | 120° | 9km/h | 22047m | 4.5m/s | -52.7°C | 3.6% | 42.3hPa | 2.6V | 03:44:53 | 01:41:45 | 00:00:00 | |
| DO2SHX-10 | 2026-09-05 00:11:32 | 52.88424 | 11.87180 | 128° | 15km/h | 22072m | 4.7m/s | -52.6°C | 3.7% | 42.1hPa | 2.6V | 00:00:00 | 01:41:50 | 00:00:00 | |
| TFSTFS | 2026-09-05 00:11:31 | 52.88424 | 11.87180 | 128° | 15km/h | 22072m | 4.7m/s | -52.7°C | 0.9% | 42.2hPa | 2.6V | 03:45:00 | 00:00:00 | 00:00:00 | |
| DL1XH1-15 | 2026-09-05 00:11:30 | 52.88430 | 11.87166 | 113° | 11km/h | 22057m | 4.9m/s | -52.6°C | 3.6% | 42.3hPa | 2.6V | 03:44:51 | 01:41:47 | 00:00:00 | |
| DL1XH-west | 2026-09-05 00:11:29 | 52.88430 | 11.87166 | 113° | 11km/h | 22057m | 4.9m/s | -52.6°C | 0.3% | 42.3hPa | 2.6V | 03:45:29 | 01:41:47 | 00:00:00 | |
| DO2SHX-10 | 2026-09-05 00:11:29 | 52.88430 | 11.87166 | 114° | 11km/h | 22057m | 4.9m/s | -52.6°C | 3.6% | 42.2hPa | 2.7V | 00:00:00 | 01:41:47 | 00:00:00 | |
| DL4BBY-15 | 2026-09-05 00:11:28 | 52.88431 | 11.87162 | 114° | 15km/h | 22052m | 4.2m/s | -53.0°C | 0% | 0hPa | 2.7V | 00:00:00 | 00:00:00 | 00:00:00 | |
| SONCRA | 2026-09-05 00:11:27 | 52.88432 | 11.87159 | 120° | 7km/h | 22048m | 4.5m/s | -52.7°C | 0.9% | 42.3hPa | 2.7V | 00:00:00 | 00:00:00 | 00:00:00 | |
| DL1NUX | 2026-09-05 00:11:26 | 52.88438 | 11.87152 | 131° | 2km/h | 22017m | 3.7m/s | -53.1°C | 3.7% | 42.6hPa | 2.7V | 03:44:59 | 01:41:39 | 00:00:00 | |
| DB0DAN | 2026-09-05 00:11:25 | 52.88435 | 11.87154 | 158° | 7km/h | 22037m | 5.3m/s | -52.9°C | 1% | 42.42hPa | 2.7V | 00:00:00 | 00:00:00 | 00:00:00 | |
| DG6HD-11 | 2026-09-05 00:11:24 | 52.88436 | 11.87153 | 166° | 18km/h | 22032m | 4.7m/s | 0°C | 0% | 0hPa | 2.6V | 00:00:00 | 00:00:00 | 00:00:00 | |
| DO2SHX-10 | 2026-09-05 00:11:23 | 52.88437 | 11.87153 | 167° | 2km/h | 22027m | 5.4m/s | -52.9°C | 3.7% | 42.4hPa | 2.6V | 03:44:00 | 01:41:41 | 00:00:00 | |
| DM0DOS-11 | 2026-09-05 00:11:22 | 52.88448 | 11.87141 | 144° | 20km/h | 21996m | 4.5m/s | -53°C | 3.8% | 42.7hPa | 2.6V | 03:45:03 | 01:41:35 | 00:00:00 | |
| DF8AY | 2026-09-05 00:11:22 | 52.88439 | 11.87151 | 146° | 7km/h | 22012m | 4.9m/s | -53.1°C | 0.3% | 42.6hPa | 2.7V | 03:45:29 | 01:41:38 | 00:00:00 | |
| BIOWL1-15 | 2026-09-05 00:11:21 | 52.88464 | 11.87107 | 111° | 20km/h | 21969m | 4.7m/s | -52.9°C | 0.3% | 42.9hPa | 2.6V | 03:45:29 | 01:41:30 | 00:00:00 | |
| EDDB2-11 | 2026-09-05 00:11:21 | 52.88438 | 11.87152 | 131° | 2km/h | 22017m | 3.7m/s | -53.1°C | 0.9% | 42.6hPa | 2.7V | 00:00:00 | 00:00:00 | 00:00:00 | |
| DL1XH1-15 | 2026-09-05 00:11:20 | 52.88441 | 11.87149 | 149° | 11km/h | 22007m | 6.3m/s | -53.1°C | 3.7% | 42.6hPa | 2.7V | 03:45:01 | 01:41:37 | 00:00:00 | |
| DL1XH-west | 2026-09-05 00:11:18 | 52.88444 | 11.87146 | 149° | 18km/h | 22001m | 5m/s | -53.1°C | 0.4% | 42.6hPa | 2.6V | 03:45:29 | 01:41:36 | 00:00:00 | |
| DF2AP-13 | 2026-09-05 00:11:18 | 52.88444 | 11.87146 | 149° | 22km/h | 22001m | 5.0m/s | -53.0°C | 3.8% | 42.6hPa | 2.6V | 00:00:00 | 01:41:36 | 00:00:00 | |
| DO2SHX-10 | 2026-09-05 00:11:17 | 52.88448 | 11.87141 | 145° | 20km/h | 21997m | 4.4m/s | -53.0°C | 3.8% | 42.6hPa | 2.6V | 00:00:00 | 01:41:35 | 00:00:00 | |
| DL1NUX | 2026-09-05 00:11:16 | 52.88465 | 11.87099 | 100° | 20km/h | 21964m | 4.1m/s | -52.9°C | 3.8% | 42.9hPa | 2.6V | 03:45:09 | 01:41:29 | 00:00:00 | |
| SO1NDE-10 | 2026-09-05 00:11:16 | 52.88452 | 11.87136 | 140° | 22km/h | 21991m | 5.8m/s | -53.0°C | 3.8% | 42.7hPa | 2.6V | 00:00:00 | 01:41:34 | 00:00:00 | |
| HTAHTA | 2026-09-05 00:11:15 | 52.88456 | 11.87130 | 131° | 20km/h | 21986m | 5.4m/s | -53.0°C | 0.9% | 42.7hPa | 2.6V | 00:00:00 | 00:00:00 | 00:00:00 | |
| DO2SHX-10 | 2026-09-05 00:11:14 | 52.88459 | 11.87123 | 124° | 22km/h | 21980m | 5.2m/s | -52.9°C | 3.8% | 42.7hPa | 2.6V | 00:00:00 | 01:41:32 | 00:00:00 | |
| EDDB2-12 | 2026-09-05 00:11:13 | 52.88464 | 11.87107 | 111° | 20km/h | 21969m | 4.7m/s | -52.9°C | 1.0% | 42.9hPa | 2.6V | 00:00:00 | 00:00:00 | 00:00:00 | |
| DM0DOS-11 | 2026-09-05 00:11:12 | 52.88465 | 11.87068 | 91° | 20km/h | 21946m | 4.8m/s | -52.9°C | 3.7% | 43hPa | 2.6V | 03:45:13 | 01:41:25 | 00:00:00 | |
| DF8AY | 2026-09-05 00:11:11 | 52.88466 | 11.87091 | 89° | 18km/h | 21959m | 6.1m/s | -52.9°C | 0.4% | 42.9hPa | 2.6V | 03:45:29 | 01:41:28 | 00:00:00 | |
| DB0DAN | 2026-09-05 00:11:10 | 52.88466 | 11.87091 | 89° | 18km/h | 21959m | 6.1m/s | -52.9°C | 1% | 42.91hPa | 2.6V | 00:00:00 | 00:00:00 | 00:00:00 | |
| DL1XH-west | 2026-09-05 00:11:08 | 52.88465 | 11.87076 | 84° | 18km/h | 21950m | 3.2m/s | -52.9°C | 0.4% | 43hPa | 2.7V | 03:45:29 | 01:41:26 | 00:00:00 | |
| BIOWL1-15 | 2026-09-05 00:11:08 | 52.88465 | 11.87068 | 92° | 20km/h | 21946m | 4.8m/s | -52.9°C | 0.3% | 43hPa | 2.6V | 03:45:29 | 01:41:25 | 00:00:00 | |
| BIOWL9-15 | 2026-09-05 00:11:07 | 52.88465 | 11.87068 | 91° | 20km/h | 21946m | 4.8m/s | -52.9°C | 1.0% | 43.0hPa | 2.6V | 00:00:00 | 00:00:00 | 00:00:00 | |
| DL1NUX | 2026-09-05 00:11:06 | 52.88482 | 11.87011 | 114° | 22km/h | 21915m | 5.2m/s | -52.8°C | 3.8% | 43.2hPa | 2.6V | 03:45:19 | 01:41:19 | 00:00:00 | |
| DO2SHX-10 | 2026-09-05 00:11:05 | 52.88468 | 11.87049 | 115° | 27km/h | 21935m | 5.4m/s | -52.8°C | 3.7% | 43.0hPa | 2.6V | 00:00:00 | 01:41:23 | 00:00:00 | |
| GOEST3-10 | 2026-09-05 00:11:04 | 52.88471 | 11.87039 | 122° | 24km/h | 21930m | 4.4m/s | -52.8°C | 3.8% | 43.1hPa | 2.6V | 00:00:00 | 01:41:22 | 00:00:00 | |
| DM0DOS-11 | 2026-09-05 00:11:02 | 52.88486 | 11.86977 | 99° | 24km/h | 21894m | 5.9m/s | -52.8°C | 3.7% | 43.4hPa | 2.6V | 03:45:23 | 01:41:15 | 00:00:00 | |
| DF8AY | 2026-09-05 00:11:01 | 52.88484 | 11.86995 | 99° | 20km/h | 21906m | 4.8m/s | -52.8°C | 0.3% | 43.3hPa | 2.7V | 03:45:29 | 01:41:17 | 00:00:00 | |
| DL1XH-west | 2026-09-05 00:10:58 | 52.88486 | 11.86977 | 99° | 24km/h | 21894m | 5.9m/s | -52.8°C | 0.3% | 43.4hPa | 2.6V | 03:45:29 | 01:41:15 | 00:00:00 | |
| BIOWL1-15 | 2026-09-05 00:10:57 | 52.88489 | 11.86938 | 98° | 22km/h | 21872m | 4.7m/s | -52.7°C | 0.3% | 43.5hPa | 2.7V | 03:45:29 | 01:41:11 | 00:00:00 | |
| SONCRA | 2026-09-05 00:10:56 | 52.88487 | 11.86967 | 98° | 24km/h | 21890m | 4.5m/s | -52.7°C | 0.9% | 43.4hPa | 2.6V | 00:00:00 | 00:00:00 | 00:00:00 | |
| DB0DAN | 2026-09-05 00:10:55 | 52.88488 | 11.86957 | 99° | 22km/h | 21884m | 5.1m/s | -52.7°C | 0.9% | 43.42hPa | 2.6V | 00:00:00 | 00:00:00 | 00:00:00 | |
| DG6HD-11 | 2026-09-05 00:10:54 | 52.88488 | 11.86947 | 98° | 26km/h | 21879m | 6.2m/s | 0°C | 0% | 0hPa | 2.6V | 00:00:00 | 00:00:00 | 00:00:00 | |
| DD8BA-10 | 2026-09-05 00:10:52 | 52.88490 | 11.86929 | 105° | 22km/h | 21868m | 4.6m/s | -52.6°C | 3.7% | 43.5hPa | 2.6V | 00:00:00 | 00:00:00 | 00:00:00 | |
| DL1XH1-15 | 2026-09-05 00:10:50 | 52.88497 | 11.86898 | 110° | 27km/h | 21854m | 3.7m/s | -52.6°C | 3.7% | 43.6hPa | 2.6V | 03:45:31 | 01:41:07 | 00:00:00 | |
| DO2SHX-10 | 2026-09-05 00:10:50 | 52.88495 | 11.86908 | 112° | 26km/h | 21858m | 4.5m/s | -52.6°C | 3.7% | 43.5hPa | 2.6V | 00:00:00 | 01:41:08 | 00:00:00 | |
| GOEST3-10 | 2026-09-05 00:10:49 | 52.88497 | 11.86897 | 111° | 22km/h | 21854m | 3.6m/s | -52.6°C | 3.7% | 43.6hPa | 2.7V | 00:00:00 | 00:00:00 | 00:00:00 | |
| DL1XH-15 | 2026-09-05 00:10:48 | 52.88501 | 11.86879 | 101° | 20km/h | 21844m | 6m/s | -52.6°C | 3.6% | 43.6hPa | 2.7V | 03:45:33 | 01:41:05 | 00:00:00 | |
| AA1-15 | 2026-09-05 00:10:48 | 52.88499 | 11.86888 | 109° | 24km/h | 21849m | 5.3m/s | -52.6°C | 0.3% | 43.6hPa | 2.7V | 03:46:20 | 01:41:06 | 00:00:00 | |
| DL1XH-west | 2026-09-05 00:10:47 | 52.88501 | 11.86871 | 91° | 18km/h | 21839m | 4.6m/s | -52.6°C | 0.2% | 43.7hPa | 2.6V | 03:46:20 | 01:41:04 | 00:00:00 | |
| BIOWL1-15 | 2026-09-05 00:10:46 | 52.88500 | 11.86847 | 84° | 24km/h | 21825m | 5.2m/s | -52.7°C | 0.3% | 43.8hPa | 2.7V | 03:48:02 | 01:41:01 | 00:00:00 | |
| DO2SHX-10 | 2026-09-05 00:10:44 | 52.88500 | 11.86856 | 80° | 24km/h | 21830m | 5.0m/s | -52.6°C | 3.6% | 43.8hPa | 2.6V | 00:00:00 | 01:41:02 | 00:00:00 | |
| TFSTFS | 2026-09-05 00:10:43 | 52.88500 | 11.86856 | 80° | 20km/h | 21830m | 5.1m/s | -52.6°C | 0.9% | 43.8hPa | 2.6V | 03:46:00 | 00:00:00 | 00:00:00 | |
| DD8BA-10 | 2026-09-05 00:10:42 | 52.88499 | 11.86836 | 90° | 26km/h | 21820m | 5.1m/s | -52.7°C | 3.7% | 43.8hPa | 2.6V | 00:00:00 | 00:00:00 | 00:00:00 | |
| DB0DAN | 2026-09-05 00:10:40 | 52.88500 | 11.86814 | 94° | 24km/h | 21810m | 5.5m/s | -52.8°C | 1% | 43.97hPa | 2.6V | 00:00:00 | 00:00:00 | 00:00:00 | |
| DL1XH1-15 | 2026-09-05 00:10:40 | 52.88500 | 11.86804 | 96° | 24km/h | 21804m | 5.8m/s | -52.8°C | 3.7% | 44hPa | 2.6V | 03:45:41 | 01:40:57 | 00:00:00 | |
| DF8AY | 2026-09-05 00:10:38 | 52.88501 | 11.86795 | 99° | 22km/h | 21799m | 4.6m/s | -52.8°C | 0.3% | 44hPa | 2.6V | 03:46:20 | 01:40:56 | 00:00:00 | |
| AA1-15 | 2026-09-05 00:10:37 | 52.88502 | 11.86786 | 99° | 24km/h | 21794m | 4.8m/s | -52.8°C | 0.3% | 44hPa | 2.7V | 03:46:20 | 01:40:55 | 00:00:00 | |
| DL1XH-west | 2026-09-05 00:10:36 | 52.88504 | 11.86764 | 97° | 29km/h | 21783m | 4.8m/s | -52.8°C | 0.4% | 44.1hPa | 2.7V | 03:46:20 | 01:40:53 | 00:00:00 | |
| BIOWL1-15 | 2026-09-05 00:10:33 | 52.88504 | 11.86731 | 76° | 26km/h | 21768m | 5.8m/s | -52.8°C | 0.3% | 44.2hPa | 2.6V | 03:48:02 | 01:40:50 | 00:00:00 | |
| DM0DOS-11 | 2026-09-05 00:10:32 | 52.88494 | 11.86677 | 74° | 31km/h | 21743m | 4.2m/s | -52.6°C | 3.7% | 44.4hPa | 2.7V | 03:45:53 | 01:40:45 | 00:00:00 | |
| DL1XH1-15 | 2026-09-05 00:10:30 | 52.88498 | 11.86700 | 72° | 27km/h | 21754m | 5.8m/s | -52.7°C | 3.7% | 44.3hPa | 2.6V | 03:45:51 | 01:40:47 | 00:00:00 | |
| AA1-15 | 2026-09-05 00:10:27 | 52.88491 | 11.86664 | 72° | 31km/h | 21739m | 4.5m/s | -52.6°C | 0.3% | 44.4hPa | 2.7V | 03:46:20 | 01:40:44 | 00:00:00 | |
| DL1XH-west | 2026-09-05 00:10:25 | 52.88489 | 11.86652 | 69° | 29km/h | 21734m | 5.5m/s | -52.6°C | 0.3% | 44.4hPa | 2.6V | 03:46:20 | 01:40:43 | 00:00:00 | |
| DB0DAN | 2026-09-05 00:10:25 | 52.88489 | 11.86652 | 69° | 27km/h | 21734m | 5.5m/s | -52.6°C | 1% | 44.43hPa | 2.6V | 00:00:00 | 00:00:00 | 00:00:00 | |
| BIOWL1-15 | 2026-09-05 00:10:22 | 52.88479 | 11.86609 | 74° | 29km/h | 21714m | 5.5m/s | -52.4°C | 0.3% | 44.6hPa | 2.7V | 03:48:02 | 01:40:39 | 00:00:00 | |
| DL1XH1-15 | 2026-09-05 00:10:20 | 52.88476 | 11.86587 | 85° | 26km/h | 21705m | 4.6m/s | -52.4°C | 3.7% | 44.6hPa | 2.6V | 03:46:01 | 01:40:37 | 00:00:00 | |
| DF8AY | 2026-09-05 00:10:16 | 52.88477 | 11.86561 | 105° | 20km/h | 21689m | 5.4m/s | -52.5°C | 0.2% | 44.8hPa | 2.7V | 03:46:20 | 01:40:34 | 00:00:00 | |
| DL1XH-west | 2026-09-05 00:10:15 | 52.88479 | 11.86552 | 108° | 22km/h | 21683m | 6.2m/s | -52.5°C | 0.3% | 44.8hPa | 2.7V | 03:46:20 | 01:40:33 | 00:00:00 | |
| DO2SHX-10 | 2026-09-05 00:10:14 | 52.88480 | 11.86543 | 107° | 20km/h | 21678m | 4.3m/s | -52.4°C | 3.7% | 44.8hPa | 2.7V | 00:00:00 | 01:40:32 | 00:00:00 | |
| AM1SDL-15 | 2026-09-05 00:10:13 | 52.88481 | 11.86535 | 100° | 18km/h | 21674m | 3.9m/s | -52.4°C | 3.7% | 44.8hPa | 2.6V | 00:00:00 | 01:40:31 | 00:00:00 | |
| DM0DOS-11 | 2026-09-05 00:10:12 | 52.88475 | 11.86492 | 76° | 22km/h | 21642m | 5.1m/s | -52.2°C | 3.6% | 45.1hPa | 2.6V | 03:46:13 | 01:40:25 | 00:00:00 | |
| BIOWL1-15 | 2026-09-05 00:10:11 | 52.88473 | 11.86474 | 89° | 20km/h | 21632m | 5.7m/s | -52.2°C | 0.2% | 45.1hPa | 2.7V | 03:48:02 | 01:40:23 | 00:00:00 | |
| DB0DAN | 2026-09-05 00:10:10 | 52.88481 | 11.86514 | 66° | 15km/h | 21658m | 4.9m/s | -52.3°C | 0.9% | 44.98hPa | 2.7V | 00:00:00 | 00:00:00 | 00:00:00 | |
| DF8AY | 2026-09-05 00:10:06 | 52.88474 | 11.86483 | 83° | 22km/h | 21637m | 4.3m/s | -52.2°C | 0.3% | 45.1hPa | 2.7V | 03:46:20 | 01:40:24 | 00:00:00 | |
| DL1XH-west | 2026-09-05 00:10:05 | 52.88474 | 11.86466 | 93° | 18km/h | 21627m | 5.5m/s | -52.2°C | 0.3% | 45.2hPa | 2.6V | 03:46:20 | 01:40:22 | 00:00:00 | |
| DL1XH1-15 | 2026-09-05 00:10:04 | 52.88482 | 11.86427 | 112° | 22km/h | 21601m | 4.6m/s | -52.1°C | 3.6% | 45.4hPa | 2.7V | 03:46:21 | 01:40:17 | 00:00:00 | |
| BIOWL1-15 | 2026-09-05 00:10:01 | 52.88477 | 11.86444 | 114° | 22km/h | 21612m | 6.3m/s | -52.1°C | 0.2% | 45.3hPa | 2.7V | 03:48:02 | 01:40:19 | 00:00:00 | |
| S3001 | 2026-09-05 00:09:59 | 52.88484 | 11.86418 | 109° | 20km/h | 21597m | 5.6m/s | -52.1°C | 0.9% | 45.4hPa | 2.6V | 00:00:00 | 00:00:00 | 00:00:00 | |
| DL1XH-15 | 2026-09-05 00:09:58 | 52.88485 | 11.86410 | 102° | 18km/h | 21591m | 5.6m/s | -52.1°C | 3.6% | 45.4hPa | 2.6V | 03:46:23 | 01:40:15 | 00:00:00 | |
| AA1-15 | 2026-09-05 00:09:56 | 52.88486 | 11.86403 | 91° | 16km/h | 21586m | 4.6m/s | -52.1°C | 0.3% | 45.4hPa | 2.6V | 03:47:11 | 01:40:14 | 00:00:00 | |
| DF8AY | 2026-09-05 00:09:55 | 52.88485 | 11.86396 | 83° | 16km/h | 21581m | 4.6m/s | -52.2°C | 0.2% | 45.5hPa | 2.7V | 03:47:11 | 01:40:13 | 00:00:00 | |
| DB0DAN | 2026-09-05 00:09:55 | 52.88485 | 11.86396 | 83° | 16km/h | 21581m | 4.6m/s | -52.2°C | 0.9% | 45.5hPa | 2.7V | 00:00:00 | 00:00:00 | 00:00:00 | |
| DL1XH1-15 | 2026-09-05 00:09:54 | 52.88486 | 11.86352 | 123° | 15km/h | 21551m | 4.5m/s | -52.2°C | 3.6% | 45.7hPa | 2.7V | 03:46:31 | 01:40:07 | 00:00:00 | |
| DL1XH-west | 2026-09-05 00:09:54 | 52.88484 | 11.86381 | 83° | 20km/h | 21570m | 5.1m/s | -52.2°C | 0.3% | 45.6hPa | 2.7V | 03:47:11 | 01:40:11 | 00:00:00 | |
| BIOWL1-15 | 2026-09-05 00:09:49 | 52.88487 | 11.86352 | 123° | 15km/h | 21551m | 4.5m/s | -52.2°C | 0.3% | 45.7hPa | 2.7V | 03:48:02 | 01:40:07 | 00:00:00 | |
| GOEST3-10 | 2026-09-05 00:09:49 | 52.88486 | 11.86352 | 124° | 20km/h | 21551m | 4.5m/s | -52.2°C | 3.6% | 45.7hPa | 2.6V | 00:00:00 | 00:00:00 | 00:00:00 | |
| DF8AY-15 | 2026-09-05 00:09:48 | 52.88489 | 11.86347 | 128° | 26km/h | 21547m | 4.1m/s | -52.2°C | 3.6% | 45.7hPa | 2.6V | 00:00:00 | 01:40:06 | 00:00:00 | |
| DO2SHX-10 | 2026-09-05 00:09:47 | 52.88491 | 11.86341 | 125° | 22km/h | 21542m | 5.3m/s | -52.2°C | 3.6% | 45.7hPa | 2.6V | 03:46:00 | 01:40:05 | 00:00:00 | |
| DL1NUX | 2026-09-05 00:09:46 | 52.88509 | 11.86289 | 122° | 22km/h | 21510m | 4.3m/s | -52.1°C | 3.6% | 46hPa | 2.6V | 03:46:39 | 01:39:59 | 00:00:00 | |
| AA1-15 | 2026-09-05 00:09:45 | 52.88497 | 11.86325 | 117° | 26km/h | 21531m | 4.6m/s | -52.2°C | 0.2% | 45.9hPa | 2.7V | 03:47:11 | 01:40:03 | 00:00:00 | |
| DF8AY | 2026-09-05 00:09:44 | 52.88500 | 11.86315 | 116° | 27km/h | 21527m | 4.8m/s | -52.2°C | 0.2% | 45.9hPa | 2.7V | 03:47:11 | 01:40:02 | 00:00:00 | |
| DL1XH-west | 2026-09-05 00:09:42 | 52.88506 | 11.86297 | 122° | 24km/h | 21516m | 5.6m/s | -52.1°C | 0.2% | 46hPa | 2.6V | 03:47:11 | 01:40:00 | 00:00:00 | |
| DD8BA-10 | 2026-09-05 00:09:42 | 52.88506 | 11.86297 | 123° | 27km/h | 21516m | 5.5m/s | -52.1°C | 3.6% | 45.9hPa | 2.7V | 03:46:00 | 00:00:00 | 00:00:00 | |
| DB0DAN | 2026-09-05 00:09:40 | 52.88513 | 11.86280 | 121° | 24km/h | 21506m | 4.5m/s | -52.1°C | 0.9% | 46.02hPa | 2.7V | 00:00:00 | 00:00:00 | 00:00:00 | |
| BIOWL1-15 | 2026-09-05 00:09:39 | 52.88516 | 11.86271 | 117° | 27km/h | 21501m | 5.4m/s | -52.1°C | 0.2% | 46.1hPa | 2.7V | 03:48:02 | 01:39:57 | 00:00:00 | |
| DL1XH-15 | 2026-09-05 00:09:38 | 52.88522 | 11.86247 | 108° | 33km/h | 21490m | 4.5m/s | -52.1°C | 3.6% | 46.2hPa | 2.6V | 03:46:43 | 01:39:55 | 00:00:00 | |
| DO2SHX-10 | 2026-09-05 00:09:38 | 52.88519 | 11.86259 | 112° | 33km/h | 21495m | 5.6m/s | -52.1°C | 3.6% | 46.1hPa | 2.7V | 00:00:00 | 01:39:56 | 00:00:00 | |
| DL1ZP-14 | 2026-09-05 00:09:37 | 52.88524 | 11.86234 | 106° | 31km/h | 21486m | 4.5m/s | -52.1°C | 0.9% | 46.1hPa | 2.6V | 00:00:00 | 00:00:00 | 00:00:00 | |
| DL1NUX | 2026-09-05 00:09:36 | 52.88536 | 11.86181 | 112° | 29km/h | 21461m | 5.9m/s | -52.3°C | 3.6% | 46.4hPa | 2.6V | 03:46:49 | 01:39:49 | 00:00:00 | |
| AA1-15 | 2026-09-05 00:09:35 | 52.88526 | 11.86221 | 109° | 29km/h | 21481m | 5.5m/s | -52.1°C | 0.2% | 46.2hPa | 2.6V | 03:47:11 | 01:39:53 | 00:00:00 | |
| DF8AY | 2026-09-05 00:09:34 | 52.88533 | 11.86191 | 112° | 26km/h | 21466m | 4.5m/s | -52.2°C | 0.3% | 46.3hPa | 2.7V | 03:47:11 | 01:39:50 | 00:00:00 | |
| DM0DOS-11 | 2026-09-05 00:09:32 | 52.88547 | 11.86133 | 108° | 29km/h | 21441m | 5.5m/s | -52.4°C | 3.7% | 46.5hPa | 2.7V | 03:46:53 | 01:39:45 | 00:00:00 | |
| BIOWL1-15 | 2026-09-05 00:09:32 | 52.88544 | 11.86145 | 110° | 31km/h | 21446m | 5.3m/s | -52.4°C | 0.3% | 46.5hPa | 2.7V | 03:48:02 | 01:39:46 | 00:00:00 | |
| DL1XH-west | 2026-09-05 00:09:31 | 52.88536 | 11.86181 | 112° | 29km/h | 21461m | 5.9m/s | -52.3°C | 0.3% | 46.4hPa | 2.6V | 03:47:11 | 01:39:49 | 00:00:00 | |
| DL1LOL-11 | 2026-09-05 00:09:30 | 52.88536 | 11.86180 | 113° | 29km/h | 21462m | 5.9m/s | -52.3°C | 0.9% | 46.4hPa | 2.6V | 03:47:00 | 00:00:00 | 00:00:00 | |
| DO2SHX-10 | 2026-09-05 00:09:29 | 52.88541 | 11.86157 | 112° | 31km/h | 21451m | 4.5m/s | -52.3°C | 3.7% | 46.4hPa | 2.6V | 00:00:00 | 01:39:47 | 00:00:00 | |
| DL4BBY-15 | 2026-09-05 00:09:28 | 52.88544 | 11.86145 | 111° | 31km/h | 21446m | 5.2m/s | -52.8°C | 0% | 0hPa | 2.6V | 00:00:00 | 00:00:00 | 00:00:00 | |
| S3001 | 2026-09-05 00:09:27 | 52.88547 | 11.86133 | 108° | 27km/h | 21441m | 5.5m/s | -52.4°C | 0.9% | 46.5hPa | 2.6V | 00:00:00 | 00:00:00 | 00:00:00 | |
| DL1NUX | 2026-09-05 00:09:26 | 52.88560 | 11.86057 | 105° | 35km/h | 21411m | 4.8m/s | -52.2°C | 3.6% | 46.7hPa | 2.6V | 03:46:59 | 01:39:39 | 00:00:00 | |
| DB0DAN | 2026-09-05 00:09:25 | 52.88551 | 11.86111 | 106° | 27km/h | 21431m | 4.7m/s | -52.3°C | 1% | 46.55hPa | 2.6V | 00:00:00 | 00:00:00 | 00:00:00 | |
| AA1-15 | 2026-09-05 00:09:24 | 52.88553 | 11.86099 | 107° | 31km/h | 21426m | 5.6m/s | -52.3°C | 0.3% | 46.6hPa | 2.7V | 03:47:11 | 01:39:42 | 00:00:00 | |
| DF8AY | 2026-09-05 00:09:23 | 52.88555 | 11.86086 | 106° | 35km/h | 21420m | 5.4m/s | -52.3°C | 0.3% | 46.6hPa | 2.7V | 03:47:11 | 01:39:41 | 00:00:00 | |
| DL1XH-west | 2026-09-05 00:09:20 | 52.88562 | 11.86044 | 103° | 33km/h | 21405m | 6.2m/s | -52.2°C | 0.3% | 46.7hPa | 2.6V | 03:47:11 | 01:39:38 | 00:00:00 | |
| DO2SHX-10 | 2026-09-05 00:09:20 | 52.88562 | 11.86043 | 103° | 33km/h | 21405m | 6.1m/s | -52.1°C | 3.6% | 46.7hPa | 2.6V | 00:00:00 | 01:39:38 | 00:00:00 | |
| DL1XH-15 | 2026-09-05 00:09:19 | 52.88565 | 11.86003 | 93° | 37km/h | 21390m | 6.2m/s | -52.2°C | 3.7% | 46.8hPa | 2.7V | 03:47:03 | 01:39:35 | 00:00:00 | |
| BIOWL1-15 | 2026-09-05 00:09:18 | 52.88565 | 11.86017 | 95° | 33km/h | 21395m | 4.7m/s | -52.2°C | 0.3% | 46.8hPa | 2.7V | 03:48:02 | 01:39:36 | 00:00:00 | |
| DF2AP-13 | 2026-09-05 00:09:18 | 52.88564 | 11.86017 | 95° | 31km/h | 21395m | 4.6m/s | -52.1°C | 3.7% | 46.7hPa | 2.7V | 00:00:00 | 01:39:36 | 00:00:00 | |
| DO2SHX-10 | 2026-09-05 00:09:17 | 52.88565 | 11.86003 | 94° | 37km/h | 21390m | 6.1m/s | -52.1°C | 3.7% | 46.8hPa | 2.7V | 00:00:00 | 01:39:35 | 00:00:00 | |
| DL1NUX | 2026-09-05 00:09:16 | 52.88565 | 11.85917 | 93° | 35km/h | 21358m | 6.4m/s | -52°C | 3.6% | 47.1hPa | 2.7V | 03:47:09 | 01:39:29 | 00:00:00 | |
| DF8AY | 2026-09-05 00:09:14 | 52.88565 | 11.85945 | 90° | 31km/h | 21368m | 4.7m/s | -52.1°C | 0.3% | 47hPa | 2.7V | 03:47:11 | 01:39:31 | 00:00:00 | |
| DL1XH1-15 | 2026-09-05 00:09:14 | 52.88567 | 11.85889 | 97° | 33km/h | 21348m | 4.4m/s | -52°C | 3.6% | 47.2hPa | 2.6V | 03:47:11 | 01:39:27 | 00:00:00 | |
| DL1XH-west | 2026-09-05 00:09:10 | 52.88566 | 11.85903 | 95° | 35km/h | 21352m | 4.7m/s | -52°C | 0.3% | 47.1hPa | 2.6V | 03:47:11 | 01:39:28 | 00:00:00 | |
| DB0DAN | 2026-09-05 00:09:10 | 52.88566 | 11.85903 | 95° | 33km/h | 21352m | 4.7m/s | -52°C | 0.9% | 47.15hPa | 2.6V | 00:00:00 | 00:00:00 | 00:00:00 | |
| BIOWL1-15 | 2026-09-05 00:09:07 | 52.88571 | 11.85817 | 91° | 31km/h | 21315m | 4.6m/s | -51.8°C | 0.3% | 47.4hPa | 2.7V | 03:48:02 | 01:39:21 | 00:00:00 | |
| DL1NUX | 2026-09-05 00:09:06 | 52.88571 | 11.85794 | 89° | 27km/h | 21305m | 5.9m/s | -51.8°C | 3.6% | 47.5hPa | 2.6V | 03:47:19 | 01:39:19 | 00:00:00 | |
| DF8AY | 2026-09-05 00:09:03 | 52.88571 | 11.85805 | 89° | 29km/h | 21310m | 5.2m/s | -51.8°C | 0.3% | 47.4hPa | 2.7V | 03:48:02 | 01:39:20 | 00:00:00 | |
| DO2SHX-10 | 2026-09-05 00:09:02 | 52.88571 | 11.85805 | 90° | 27km/h | 21311m | 5.1m/s | -51.7°C | 3.6% | 47.4hPa | 2.7V | 00:00:00 | 01:39:20 | 00:00:00 | |
| DL1XH1-15 | 2026-09-05 00:09:01 | 52.88570 | 11.85773 | 86° | 26km/h | 21295m | 4.8m/s | -51.7°C | 3.5% | 47.5hPa | 2.6V | 03:47:21 | 01:39:17 | 00:00:00 | |
| DL1XH-west | 2026-09-05 00:09:00 | 52.88571 | 11.85773 | 87° | 26km/h | 21295m | 4.9m/s | -51.7°C | 0.2% | 47.5hPa | 2.6V | 03:48:02 | 01:39:17 | 00:00:00 | |
| DO2SHX-10 | 2026-09-05 00:08:59 | 52.88571 | 11.85773 | 87° | 27km/h | 21295m | 4.8m/s | -51.7°C | 3.5% | 47.5hPa | 2.7V | 03:47:00 | 01:39:17 | 00:00:00 | |
| DL1XH-15 | 2026-09-05 00:08:58 | 52.88570 | 11.85750 | 93° | 31km/h | 21284m | 5.4m/s | -51.7°C | 3.5% | 47.6hPa | 2.7V | 03:47:23 | 01:39:15 | 00:00:00 | |
| DL4BBY-15 | 2026-09-05 00:08:58 | 52.88570 | 11.85762 | 89° | 24km/h | 21290m | 6.0m/s | -52.1°C | 0% | 0hPa | 2.7V | 00:00:00 | 00:00:00 | 00:00:00 | |
| TFSTFS | 2026-09-05 00:08:57 | 52.88570 | 11.85762 | 89° | 27km/h | 21289m | 6.1m/s | -51.7°C | 0.9% | 47.6hPa | 2.7V | 03:48:00 | 00:00:00 | 00:00:00 | |
| DL1NUX | 2026-09-05 00:08:56 | 52.88586 | 11.85682 | 115° | 29km/h | 21252m | 7m/s | -51.6°C | 3.5% | 47.9hPa | 2.7V | 03:47:29 | 01:39:09 | 00:00:00 | |
| BIOWL1-15 | 2026-09-05 00:08:56 | 52.88571 | 11.85737 | 100° | 31km/h | 21279m | 4.3m/s | -51.6°C | 0.3% | 47.7hPa | 2.7V | 03:48:02 | 01:39:14 | 00:00:00 | |
| DB0DAN | 2026-09-05 00:08:55 | 52.88573 | 11.85724 | 105° | 29km/h | 21274m | 5.6m/s | -51.6°C | 0.9% | 47.7hPa | 2.6V | 00:00:00 | 00:00:00 | 00:00:00 | |
| AA1-15 | 2026-09-05 00:08:52 | 52.88586 | 11.85682 | 116° | 29km/h | 21252m | 7m/s | -51.6°C | 0.2% | 47.9hPa | 2.7V | 03:48:02 | 01:39:09 | 00:00:00 | |
| DL1XH-west | 2026-09-05 00:08:49 | 52.88591 | 11.85660 | 108° | 26km/h | 21241m | 4.6m/s | -51.6°C | 0.2% | 47.9hPa | 2.6V | 03:48:02 | 01:39:07 | 00:00:00 | |
| GOEST3-10 | 2026-09-05 00:08:49 | 52.88591 | 11.85660 | 109° | 22km/h | 21241m | 4.6m/s | -51.6°C | 3.5% | 47.9hPa | 2.6V | 00:00:00 | 00:00:00 | 00:00:00 | |
| DL1XH-15 | 2026-09-05 00:08:48 | 52.88594 | 11.85642 | 102° | 20km/h | 21229m | 5.3m/s | -51.6°C | 3.6% | 48hPa | 2.6V | 03:47:33 | 01:39:05 | 00:00:00 | |
| DF8AY-15 | 2026-09-05 00:08:48 | 52.88593 | 11.85651 | 105° | 20km/h | 21235m | 6.3m/s | -51.5°C | 3.6% | 47.9hPa | 2.7V | 03:47:00 | 01:39:06 | 00:00:00 | |
| DO2SHX-10 | 2026-09-05 00:08:47 | 52.88594 | 11.85642 | 103° | 20km/h | 21230m | 5.2m/s | -51.6°C | 3.6% | 48.0hPa | 2.7V | 03:47:00 | 01:39:05 | 00:00:00 | |
| DL1NUX | 2026-09-05 00:08:46 | 52.88596 | 11.85593 | 100° | 16km/h | 21197m | 5.3m/s | -51.5°C | 3.5% | 48.3hPa | 2.7V | 03:47:39 | 01:38:59 | 00:00:00 | |
| BIOWL1-15 | 2026-09-05 00:08:43 | 52.88599 | 11.85579 | 112° | 20km/h | 21187m | 6.3m/s | -51.5°C | 0.2% | 48.4hPa | 2.6V | 03:48:02 | 01:38:57 | 00:00:00 | |
| GOEST3-10 | 2026-09-05 00:08:43 | 52.88596 | 11.85608 | 89° | 18km/h | 21208m | 4.5m/s | -51.6°C | 3.5% | 48.1hPa | 2.6V | 00:00:00 | 01:39:01 | 00:00:00 | |
| DL1XH1-15 | 2026-09-05 00:08:41 | 52.88599 | 11.85579 | 111° | 20km/h | 21186m | 6.2m/s | -51.5°C | 3.5% | 48.4hPa | 2.6V | 03:47:41 | 01:38:57 | 00:00:00 | |
| DF8AY | 2026-09-05 00:08:41 | 52.88597 | 11.85586 | 108° | 18km/h | 21192m | 5.2m/s | -51.5°C | 0.3% | 48.3hPa | 2.6V | 03:48:02 | 01:38:58 | 00:00:00 | |
| DB0DAN | 2026-09-05 00:08:40 | 52.88597 | 11.85586 | 107° | 16km/h | 21192m | 5.2m/s | -51.5°C | 0.9% | 48.32hPa | 2.6V | 00:00:00 | 00:00:00 | 00:00:00 | |
| DL1XH-west | 2026-09-05 00:08:38 | 52.88601 | 11.85571 | 118° | 22km/h | 21180m | 5.5m/s | -51.5°C | 0.2% | 48.4hPa | 2.6V | 03:48:02 | 01:38:56 | 00:00:00 | |
| DL1XH-15 | 2026-09-05 00:08:38 | 52.88604 | 11.85563 | 123° | 22km/h | 21175m | 5.1m/s | -51.5°C | 3.6% | 48.4hPa | 2.7V | 03:47:43 | 01:38:55 | 00:00:00 | |
| EDDB2-12 | 2026-09-05 00:08:38 | 52.88604 | 11.85563 | 123° | 20km/h | 21175m | 5.1m/s | -51.5°C | 0.9% | 48.4hPa | 2.7V | 00:00:00 | 00:00:00 | 00:00:00 | |
| DL1NUX | 2026-09-05 00:08:36 | 52.88620 | 11.85524 | 110° | 22km/h | 21142m | 4.7m/s | -51.3°C | 3.5% | 48.7hPa | 2.7V | 03:47:49 | 01:38:49 | 00:00:00 | |
| DL1ZP-14 | 2026-09-05 00:08:35 | 52.88613 | 11.85545 | 131° | 16km/h | 21159m | 4.2m/s | -51.4°C | 0.9% | 48.6hPa | 2.6V | 00:00:00 | 00:00:00 | 00:00:00 | |
| DL1XH1-15 | 2026-09-05 00:08:34 | 52.88625 | 11.85507 | 119° | 22km/h | 21131m | 5.7m/s | -51.2°C | 3.5% | 48.8hPa | 2.7V | 03:47:51 | 01:38:47 | 00:00:00 | |
| BIOWL1-15 | 2026-09-05 00:08:33 | 52.88616 | 11.85539 | 123° | 18km/h | 21153m | 6.3m/s | -51.4°C | 0.2% | 48.6hPa | 2.6V | 03:48:02 | 01:38:51 | 00:00:00 | |
| DF8AY | 2026-09-05 00:08:30 | 52.88622 | 11.85515 | 114° | 22km/h | 21137m | 6.2m/s | -51.3°C | 0.2% | 48.7hPa | 2.7V | 03:48:02 | 01:38:48 | 00:00:00 | |
| AA1-15 | 2026-09-05 00:08:30 | 52.88625 | 11.85507 | 120° | 22km/h | 21131m | 5.7m/s | -51.2°C | 0.3% | 48.8hPa | 2.7V | 03:48:02 | 01:38:47 | 00:00:00 | |
| DC4HF-4 | 2026-09-05 00:08:30 | 52.88625 | 11.85507 | 119° | 20km/h | 21131m | 5.7m/s | -51.2°C | 0.9% | 48.8hPa | 2.6V | 00:00:00 | 00:00:00 | 00:00:00 | |
| DO2SHX-10 | 2026-09-05 00:08:29 | 52.88625 | 11.85507 | 120° | 24km/h | 21131m | 5.6m/s | -51.2°C | 3.5% | 48.7hPa | 2.6V | 00:00:00 | 01:38:47 | 00:00:00 | |
| DL1XH-15 | 2026-09-05 00:08:28 | 52.88631 | 11.85491 | 120° | 26km/h | 21121m | 5.1m/s | -51.1°C | 3.4% | 48.8hPa | 2.6V | 03:47:53 | 01:38:45 | 00:00:00 | |
| DL1XH-west | 2026-09-05 00:08:28 | 52.88628 | 11.85499 | 122° | 24km/h | 21126m | 4.5m/s | -51.2°C | 0.2% | 48.8hPa | 2.6V | 03:48:02 | 01:38:46 | 00:00:00 | |
| GOEST3-10 | 2026-09-05 00:08:27 | 52.88631 | 11.85491 | 121° | 27km/h | 21121m | 5.1m/s | -51.1°C | 3.4% | 48.8hPa | 2.6V | 00:00:00 | 00:00:00 | 00:00:00 | |
| DL1NUX | 2026-09-05 00:08:26 | 52.88657 | 11.85440 | 143° | 24km/h | 21088m | 4.4m/s | -50.9°C | 3.4% | 49.1hPa | 2.7V | 03:47:59 | 01:38:39 | 00:00:00 | |
| DB0DAN | 2026-09-05 00:08:25 | 52.88638 | 11.85471 | 122° | 27km/h | 21110m | 5.2m/s | -51.1°C | 0.9% | 48.92hPa | 2.7V | 00:00:00 | 00:00:00 | 00:00:00 | |
| DO2SHX-10 | 2026-09-05 00:08:23 | 52.88647 | 11.85453 | 135° | 26km/h | 21099m | 6.3m/s | -50.9°C | 3.4% | 49.0hPa | 2.6V | 03:47:00 | 01:38:41 | 00:00:00 | |
| DM0DOS-11 | 2026-09-05 00:08:22 | 52.88793 | 11.85169 | 133° | 35km/h | 20931m | 5.7m/s | -51.4°C | 3.5% | 50.3hPa | 2.6V | 03:48:28 | 01:38:10 | 00:00:00 | |
| GOEST3-10 | 2026-09-05 00:08:22 | 52.88652 | 11.85446 | 143° | 24km/h | 21093m | 5.6m/s | -50.9°C | 3.4% | 49.0hPa | 2.6V | 00:00:00 | 01:38:40 | 00:00:00 | |
| DL1XH1-15 | 2026-09-05 00:08:21 | 52.88665 | 11.85427 | 127° | 22km/h | 21077m | 6.7m/s | -50.9°C | 3.4% | 49.2hPa | 2.6V | 03:48:01 | 01:38:37 | 00:00:00 | |
| SONCRA | 2026-09-05 00:08:21 | 52.88661 | 11.85434 | 137° | 22km/h | 21083m | 5.0m/s | -50.9°C | 0.9% | 49.1hPa | 2.6V | 00:00:00 | 00:00:00 | 00:00:00 | |
| DO2SHX-10 | 2026-09-05 00:08:20 | 52.88661 | 11.85434 | 138° | 22km/h | 21083m | 4.9m/s | -50.9°C | 3.4% | 49.1hPa | 2.6V | 00:00:00 | 01:38:38 | 00:00:00 | |
| DF7ER-10 | 2026-09-05 00:08:19 | 52.88665 | 11.85427 | 129° | 22km/h | 21078m | 6.7m/s | -50.9°C | 0.9% | 49.2hPa | 2.6V | 03:48:00 | 00:00:00 | 00:00:00 | |
| DL1XH-west | 2026-09-05 00:08:18 | 52.88803 | 11.85148 | 127° | 27km/h | 20922m | 5.1m/s | -51.5°C | 0.1% | 50.4hPa | 2.6V | 03:48:53 | 01:38:08 | 00:00:00 | |
| DO2SHX-10 | 2026-09-05 00:08:18 | 52.88680 | 11.85384 | 126° | 33km/h | 21050m | 4.9m/s | -50.9°C | 3.4% | 49.3hPa | 2.6V | 00:00:00 | 01:38:32 | 00:00:00 | |
| DL1NUX | 2026-09-05 00:08:16 | 52.88749 | 11.85264 | 117° | 20km/h | 20979m | 4.8m/s | -51.3°C | 3.4% | 49.9hPa | 2.6V | 03:48:19 | 01:38:19 | 00:00:00 | |
| DL1XH1-15 | 2026-09-05 00:08:16 | 52.88807 | 11.85140 | 125° | 26km/h | 20917m | 5.8m/s | -51.5°C | 3.5% | 50.4hPa | 2.7V | 03:48:31 | 01:38:07 | 00:00:00 | |
| DL2RXE-15 | 2026-09-05 00:08:16 | 52.88727 | 11.85312 | 143° | 33km/h | 21012m | 5.2m/s | -51.2°C | 0.9% | 49.7hPa | 2.7V | 00:00:00 | 00:00:00 | 00:00:00 | |
| BIOWL1-15 | 2026-09-05 00:08:15 | 52.88810 | 11.85131 | 122° | 26km/h | 20911m | 4.5m/s | -51.5°C | 0.2% | 50.5hPa | 2.7V | 03:50:35 | 01:38:06 | 00:00:00 | |
| DL1NUX | 2026-09-05 00:08:14 | 52.88807 | 11.85140 | 125° | 26km/h | 20917m | 5.8m/s | -51.5°C | 3.5% | 50.4hPa | 2.7V | 03:48:31 | 01:38:07 | 00:00:00 | |
| DF8AY | 2026-09-05 00:08:06 | 52.88780 | 11.85189 | 139° | 37km/h | 20943m | 5.1m/s | -51.4°C | 0.1% | 50.2hPa | 2.7V | 03:48:53 | 01:38:12 | 00:00:00 | |
| DL1ZP-14 | 2026-09-05 00:08:05 | 52.88745 | 11.85278 | 118° | 20km/h | 20989m | 6.3m/s | -51.2°C | 0.9% | 49.8hPa | 2.7V | 00:00:00 | 00:00:00 | 00:00:00 | |
| DM0DOS-11 | 2026-09-05 00:08:05 | 52.88814 | 11.85121 | 118° | 27km/h | 20907m | 4.5m/s | -51.5°C | 3.5% | 50.5hPa | 2.7V | 03:48:33 | 01:38:05 | 00:00:00 | |
| DL1XH-15 | 2026-09-05 00:08:05 | 52.88799 | 11.85158 | 128° | 31km/h | 20926m | 4.2m/s | -51.4°C | 3.5% | 50.3hPa | 2.6V | 03:48:29 | 01:38:09 | 00:00:00 | |
| AA1-15 | 2026-09-05 00:08:05 | 52.88807 | 11.85140 | 125° | 26km/h | 20917m | 5.8m/s | -51.5°C | 0.2% | 50.4hPa | 2.7V | 03:48:53 | 01:38:07 | 00:00:00 | |
| SONCRA | 2026-09-05 00:07:58 | 52.88807 | 11.85140 | 125° | 24km/h | 20917m | 5.8m/s | -51.5°C | 0.9% | 50.4hPa | 2.7V | 00:00:00 | 00:00:00 | 00:00:00 | |
| AM1SDL-15 | 2026-09-05 00:07:56 | 52.88807 | 11.85140 | 126° | 33km/h | 20917m | 5.7m/s | -51.4°C | 3.5% | 50.4hPa | 2.7V | 00:00:00 | 01:38:07 | 00:00:00 | |
| DF2AP-13 | 2026-09-05 00:07:53 | 52.88810 | 11.85131 | 123° | 33km/h | 20911m | 4.5m/s | -51.5°C | 3.5% | 50.4hPa | 2.7V | 00:00:00 | 01:38:06 | 00:00:00 | |
| DF8AY-15 | 2026-09-05 00:07:51 | 52.88810 | 11.85131 | 123° | 35km/h | 20911m | 4.5m/s | -51.5°C | 3.5% | 50.4hPa | 2.6V | 00:00:00 | 01:38:06 | 00:00:00 | |
| DF7ER-10 | 2026-09-05 00:07:48 | 52.88810 | 11.85131 | 123° | 26km/h | 20911m | 4.5m/s | -51.5°C | 0.9% | 50.4hPa | 2.6V | 03:48:00 | 00:00:00 | 00:00:00 | |
| SO1NDE-10 | 2026-09-05 00:07:46 | 52.88817 | 11.85110 | 117° | 35km/h | 20902m | 6.3m/s | -51.5°C | 3.5% | 50.5hPa | 2.6V | 00:00:00 | 01:38:04 | 00:00:00 | |
| DL1XH-15 | 2026-09-05 00:07:45 | 52.88843 | 11.85044 | 132° | 37km/h | 20875m | 4.8m/s | -51.6°C | 3.5% | 50.7hPa | 2.6V | 03:48:39 | 01:37:59 | 00:00:00 | |
| DF8AY | 2026-09-05 00:07:44 | 52.88826 | 11.85083 | 119° | 40km/h | 20892m | 4.3m/s | -51.6°C | 0.2% | 50.6hPa | 2.6V | 03:48:53 | 01:38:02 | 00:00:00 | |
| DO2SHX-10 | 2026-09-05 00:07:44 | 52.88826 | 11.85083 | 119° | 40km/h | 20892m | 4.2m/s | -51.6°C | 3.5% | 50.6hPa | 2.7V | 00:00:00 | 01:38:02 | 00:00:00 | |
| DL1XH1-15 | 2026-09-05 00:07:43 | 52.88837 | 11.85055 | 128° | 38km/h | 20881m | 6m/s | -51.6°C | 3.4% | 50.6hPa | 2.7V | 03:48:38 | 01:38:00 | 00:00:00 | |
| AA1-15 | 2026-09-05 00:07:43 | 52.88831 | 11.85069 | 125° | 40km/h | 20887m | 5.2m/s | -51.6°C | 0.2% | 50.6hPa | 2.7V | 03:48:53 | 01:38:01 | 00:00:00 | |
| DB0DAN | 2026-09-05 00:07:40 | 52.88849 | 11.85032 | 133° | 33km/h | 20871m | 4.4m/s | -51.6°C | 0.9% | 50.73hPa | 2.6V | 00:00:00 | 00:00:00 | 00:00:00 | |
| BIOWL1-15 | 2026-09-05 00:07:39 | 52.88855 | 11.85022 | 129° | 35km/h | 20866m | 5.1m/s | -51.6°C | 0.2% | 50.8hPa | 2.7V | 03:50:35 | 01:37:57 | 00:00:00 | |
| DO2SHX-10 | 2026-09-05 00:07:38 | 52.88860 | 11.85010 | 120° | 35km/h | 20861m | 5.5m/s | -51.5°C | 3.5% | 50.8hPa | 2.6V | 00:00:00 | 01:37:56 | 00:00:00 | |
| EDDB2-12 | 2026-09-05 00:07:36 | 52.88869 | 11.84971 | 105° | 31km/h | 20845m | 4.9m/s | -51.6°C | 0.9% | 51.0hPa | 2.6V | 00:00:00 | 00:00:00 | 00:00:00 | |
| DL1XH-15 | 2026-09-05 00:07:35 | 52.88876 | 11.84920 | 101° | 33km/h | 20823m | 6.2m/s | -51.7°C | 3.6% | 51.1hPa | 2.6V | 03:48:49 | 01:37:49 | 00:00:00 | |
| DO2SHX-10 | 2026-09-05 00:07:35 | 52.88869 | 11.84971 | 106° | 31km/h | 20846m | 4.8m/s | -51.6°C | 3.5% | 50.9hPa | 2.7V | 03:48:00 | 01:37:53 | 00:00:00 | |
| TFSTFS | 2026-09-05 00:07:34 | 52.88869 | 11.84971 | 106° | 33km/h | 20846m | 4.9m/s | -51.6°C | 0.9% | 51.0hPa | 2.7V | 03:48:00 | 00:00:00 | 00:00:00 | |
| DL1XH1-15 | 2026-09-05 00:07:33 | 52.88875 | 11.84933 | 103° | 31km/h | 20829m | 5.5m/s | -51.7°C | 3.5% | 51.1hPa | 2.7V | 03:48:48 | 01:37:50 | 00:00:00 | |
| AA1-15 | 2026-09-05 00:07:32 | 52.88875 | 11.84933 | 104° | 31km/h | 20829m | 5.5m/s | -51.7°C | 0.2% | 51.1hPa | 2.7V | 03:48:53 | 01:37:50 | 00:00:00 | |
| DL1XH-west | 2026-09-05 00:07:29 | 52.88881 | 11.84892 | 107° | 35km/h | 20814m | 3.9m/s | -51.9°C | 0.3% | 51.2hPa | 2.6V | 03:48:53 | 01:37:47 | 00:00:00 | |
| BIOWL1-15 | 2026-09-05 00:07:28 | 52.88883 | 11.84878 | 113° | 35km/h | 20809m | 5.7m/s | -51.9°C | 0.3% | 51.2hPa | 2.7V | 03:50:35 | 01:37:46 | 00:00:00 | |
| DL4BBY-15 | 2026-09-05 00:07:28 | 52.88883 | 11.84878 | 113° | 31km/h | 20809m | 5.6m/s | -52.3°C | 0% | 0hPa | 2.6V | 00:00:00 | 00:00:00 | 00:00:00 | |
| DF7ER-10 | 2026-09-05 00:07:26 | 52.88887 | 11.84865 | 120° | 35km/h | 20804m | 5.3m/s | -52.0°C | 1.0% | 51.3hPa | 2.6V | 03:48:00 | 00:00:00 | 00:00:00 | |
| DB0DAN | 2026-09-05 00:07:25 | 52.88896 | 11.84840 | 118° | 33km/h | 20794m | 5.6m/s | -52°C | 0.9% | 51.35hPa | 2.6V | 00:00:00 | 00:00:00 | 00:00:00 | |
| DL1XH-15 | 2026-09-05 00:07:25 | 52.88905 | 11.84787 | 94° | 29km/h | 20773m | 5.8m/s | -51.9°C | 3.6% | 51.5hPa | 2.7V | 03:48:59 | 01:37:39 | 00:00:00 | |
| AM1SDL-15 | 2026-09-05 00:07:25 | 52.88900 | 11.84827 | 111° | 31km/h | 20788m | 5.3m/s | -52.0°C | 3.7% | 51.4hPa | 2.6V | 03:48:00 | 01:37:42 | 00:00:00 | |
| DO2SHX-10 | 2026-09-05 00:07:23 | 52.88902 | 11.84813 | 103° | 31km/h | 20783m | 4.2m/s | -51.9°C | 3.7% | 51.4hPa | 2.6V | 03:48:00 | 01:37:41 | 00:00:00 | |
| DM0DOS-11 | 2026-09-05 00:07:22 | 52.88904 | 11.84736 | 88° | 33km/h | 20751m | 4.6m/s | -51.7°C | 3.6% | 51.7hPa | 2.7V | 03:49:03 | 01:37:35 | 00:00:00 | |
| AA1-15 | 2026-09-05 00:07:22 | 52.88904 | 11.84800 | 98° | 31km/h | 20778m | 4.7m/s | -52°C | 0.3% | 51.5hPa | 2.7V | 03:49:44 | 01:37:40 | 00:00:00 | |
| DF8AY | 2026-09-05 00:07:21 | 52.88904 | 11.84787 | 95° | 29km/h | 20773m | 5.8m/s | -51.9°C | 0.3% | 51.5hPa | 2.7V | 03:49:44 | 01:37:39 | 00:00:00 | |
| DD8BA-10 | 2026-09-05 00:07:21 | 52.88904 | 11.84787 | 95° | 31km/h | 20773m | 5.8m/s | -51.9°C | 3.6% | 51.5hPa | 2.6V | 00:00:00 | 00:00:00 | 00:00:00 | |
| DO2SHX-10 | 2026-09-05 00:07:20 | 52.88905 | 11.84775 | 91° | 31km/h | 20768m | 4.8m/s | -51.8°C | 3.6% | 51.5hPa | 2.6V | 00:00:00 | 01:37:38 | 00:00:00 | |
| DL1NUX | 2026-09-05 00:07:19 | 52.88906 | 11.84699 | 101° | 27km/h | 20736m | 4.8m/s | -51.6°C | 3.5% | 51.8hPa | 2.6V | 03:49:06 | 01:37:32 | 00:00:00 | |
| BIOWL1-15 | 2026-09-05 00:07:18 | 52.88905 | 11.84750 | 89° | 31km/h | 20757m | 6.2m/s | -51.8°C | 0.3% | 51.7hPa | 2.7V | 03:50:35 | 01:37:36 | 00:00:00 | |
| DF2AP-13 | 2026-09-05 00:07:18 | 52.88905 | 11.84750 | 89° | 33km/h | 20757m | 6.1m/s | -51.7°C | 3.6% | 51.6hPa | 2.6V | 00:00:00 | 01:37:36 | 00:00:00 | |
| DO2SHX-10 | 2026-09-05 00:07:17 | 52.88904 | 11.84736 | 89° | 31km/h | 20751m | 4.5m/s | -51.7°C | 3.6% | 51.7hPa | 2.6V | 00:00:00 | 01:37:35 | 00:00:00 | |
| SO1NDE-10 | 2026-09-05 00:07:16 | 52.88904 | 11.84723 | 94° | 33km/h | 20747m | 4.2m/s | -51.6°C | 3.6% | 51.7hPa | 2.6V | 00:00:00 | 01:37:34 | 00:00:00 | |
| DL1LOL-11 | 2026-09-05 00:07:15 | 52.88905 | 11.84723 | 94° | 31km/h | 20747m | 4.2m/s | -51.7°C | 0.9% | 51.7hPa | 2.6V | 00:00:00 | 00:00:00 | 00:00:00 | |
| DO2SHX-10 | 2026-09-05 00:07:14 | 52.88906 | 11.84699 | 102° | 31km/h | 20736m | 4.7m/s | -51.5°C | 3.5% | 51.8hPa | 2.6V | 00:00:00 | 01:37:32 | 00:00:00 | |
| DL1XH1-15 | 2026-09-05 00:07:13 | 52.88910 | 11.84674 | 107° | 33km/h | 20726m | 5.9m/s | -51.5°C | 3.4% | 51.9hPa | 2.7V | 03:49:08 | 01:37:30 | 00:00:00 | |
| DM0DOS-11 | 2026-09-05 00:07:12 | 52.88923 | 11.84603 | 104° | 33km/h | 20699m | 4m/s | -51.5°C | 3.4% | 52.1hPa | 2.7V | 03:49:13 | 01:37:25 | 00:00:00 | |
| DF8AY | 2026-09-05 00:07:12 | 52.88927 | 11.84563 | 94° | 31km/h | 20684m | 4.4m/s | -51.5°C | 0.1% | 52.2hPa | 2.6V | 03:49:44 | 01:37:22 | 00:00:00 | |
| AA1-15 | 2026-09-05 00:07:11 | 52.88912 | 11.84661 | 105° | 37km/h | 20720m | 5.9m/s | -51.5°C | 0.2% | 51.9hPa | 2.7V | 03:49:44 | 01:37:29 | 00:00:00 | |
| DB0DAN | 2026-09-05 00:07:10 | 52.88915 | 11.84646 | 107° | 37km/h | 20715m | 4.8m/s | -51.5°C | 0.9% | 51.98hPa | 2.6V | 00:00:00 | 00:00:00 | 00:00:00 | |
| DL1NUX | 2026-09-05 00:07:09 | 52.88927 | 11.84563 | 93° | 31km/h | 20684m | 4.4m/s | -51.5°C | 3.4% | 52.2hPa | 2.6V | 03:49:16 | 01:37:22 | 00:00:00 | |
| DL1XH-west | 2026-09-05 00:07:08 | 52.88921 | 11.84617 | 108° | 35km/h | 20704m | 5.3m/s | -51.4°C | 0.1% | 52.1hPa | 2.6V | 03:49:44 | 01:37:26 | 00:00:00 | |
| BIOWL1-15 | 2026-09-05 00:07:08 | 52.88925 | 11.84590 | 101° | 33km/h | 20694m | 5.2m/s | -51.5°C | 0.2% | 52.1hPa | 2.7V | 03:50:35 | 01:37:24 | 00:00:00 | |
| HARRO8 | 2026-09-05 00:07:07 | 52.88925 | 11.84590 | 101° | 31km/h | 20694m | 5.2m/s | -51.5°C | 0.9% | 52.1hPa | 2.7V | 00:00:00 | 00:00:00 | 00:00:00 | |
| DL1XH-15 | 2026-09-05 00:07:05 | 52.88929 | 11.84529 | 99° | 24km/h | 20668m | 4.5m/s | -51.9°C | 3.6% | 52.3hPa | 2.7V | 03:49:19 | 01:37:19 | 00:00:00 | |
| EDDB2-12 | 2026-09-05 00:07:05 | 52.88927 | 11.84563 | 93° | 31km/h | 20684m | 4.4m/s | -51.5°C | 0.9% | 52.2hPa | 2.6V | 00:00:00 | 00:00:00 | 00:00:00 | |
| GOEST3-10 | 2026-09-05 00:07:04 | 52.88927 | 11.84563 | 94° | 27km/h | 20684m | 4.4m/s | -51.5°C | 3.4% | 52.2hPa | 2.6V | 00:00:00 | 00:00:00 | 00:00:00 | |
| DL1XH1-15 | 2026-09-05 00:07:03 | 52.88928 | 11.84539 | 94° | 24km/h | 20674m | 5.7m/s | -51.8°C | 3.5% | 52.3hPa | 2.6V | 03:49:18 | 01:37:20 | 00:00:00 | |
| DM0DOS-11 | 2026-09-05 00:07:02 | 52.88936 | 11.84485 | 112° | 33km/h | 20649m | 4.7m/s | -51.9°C | 3.5% | 52.5hPa | 2.7V | 03:49:23 | 01:37:15 | 00:00:00 | |
| AA1-15 | 2026-09-05 00:07:00 | 52.88930 | 11.84519 | 104° | 24km/h | 20664m | 4.2m/s | -51.9°C | 0.2% | 52.4hPa | 2.7V | 03:49:44 | 01:37:18 | 00:00:00 | |
| DL1XH-west | 2026-09-05 00:06:57 | 52.88936 | 11.84485 | 112° | 35km/h | 20649m | 4.7m/s | -51.9°C | 0.2% | 52.5hPa | 2.7V | 03:49:44 | 01:37:15 | 00:00:00 | |
| DL1XH1-15 | 2026-09-05 00:06:57 | 52.88961 | 11.84417 | 119° | 42km/h | 20624m | 5.6m/s | -52°C | 3.6% | 52.7hPa | 2.7V | 03:49:28 | 01:37:10 | 00:00:00 | |
| DB0UT-7 | 2026-09-05 00:06:56 | 52.88940 | 11.84472 | 118° | 37km/h | 20644m | 5.8m/s | -51.9°C | 3.6% | 52.5hPa | 2.7V | 00:00:00 | 00:00:00 | 00:00:00 | |
| DL1XH-15 | 2026-09-05 00:06:55 | 52.88966 | 11.84402 | 117° | 40km/h | 20619m | 4.6m/s | -52°C | 3.6% | 52.7hPa | 2.7V | 03:49:29 | 01:37:09 | 00:00:00 | |
| DB0DAN | 2026-09-05 00:06:55 | 52.88944 | 11.84459 | 123° | 35km/h | 20638m | 5.2m/s | -52°C | 0.9% | 52.6hPa | 2.6V | 00:00:00 | 00:00:00 | 00:00:00 | |
| BIOWL1-15 | 2026-09-05 00:06:55 | 52.88944 | 11.84459 | 123° | 37km/h | 20638m | 5.2m/s | -52°C | 0.3% | 52.6hPa | 2.6V | 03:50:35 | 01:37:13 | 00:00:00 | |
| DF7ER-10 | 2026-09-05 00:06:54 | 52.88944 | 11.84459 | 124° | 37km/h | 20638m | 5.2m/s | -52.0°C | 1.0% | 52.6hPa | 2.6V | 03:49:00 | 00:00:00 | 00:00:00 | |
| DO2SHX-10 | 2026-09-05 00:06:53 | 52.88955 | 11.84432 | 124° | 40km/h | 20629m | 4.5m/s | -51.9°C | 3.6% | 52.6hPa | 2.6V | 00:00:00 | 01:37:11 | 00:00:00 | |
| DM0DOS-11 | 2026-09-05 00:06:52 | 52.88982 | 11.84344 | 108° | 38km/h | 20600m | 4.8m/s | -52°C | 3.6% | 52.9hPa | 2.6V | 03:49:33 | 01:37:05 | 00:00:00 | |
| DF8AY | 2026-09-05 00:06:50 | 52.88989 | 11.84297 | 104° | 38km/h | 20586m | 3.5m/s | -51.9°C | 0.3% | 53hPa | 2.7V | 03:49:44 | 01:37:02 | 00:00:00 | |
| DL1NUX | 2026-09-05 00:06:49 | 52.88988 | 11.84297 | 103° | 38km/h | 20585m | 3.5m/s | -51.8°C | 3.6% | 53hPa | 2.7V | 03:49:36 | 01:37:02 | 00:00:00 | |
| AA1-15 | 2026-09-05 00:06:49 | 52.88974 | 11.84373 | 116° | 38km/h | 20609m | 5.1m/s | -52°C | 0.3% | 52.8hPa | 2.6V | 03:49:44 | 01:37:07 | 00:00:00 | |
| DL1XH-west | 2026-09-05 00:06:47 | 52.88982 | 11.84344 | 109° | 38km/h | 20600m | 4.8m/s | -52°C | 0.2% | 52.9hPa | 2.6V | 03:49:44 | 01:37:05 | 00:00:00 | |
| BIOWL1-15 | 2026-09-05 00:06:46 | 52.88994 | 11.84268 | 112° | 35km/h | 20576m | 5.2m/s | -51.8°C | 0.3% | 53.1hPa | 2.6V | 03:50:35 | 01:37:00 | 00:00:00 | |
| SO1NDE-10 | 2026-09-05 00:06:46 | 52.88984 | 11.84329 | 105° | 35km/h | 20594m | 5.6m/s | -51.9°C | 3.6% | 52.9hPa | 2.6V | 03:49:00 | 01:37:04 | 00:00:00 | |
| DL1XH-15 | 2026-09-05 00:06:45 | 52.88998 | 11.84255 | 115° | 35km/h | 20571m | 4.5m/s | -51.8°C | 3.6% | 53.2hPa | 2.6V | 03:49:39 | 01:36:59 | 00:00:00 | |
| DO2SHX-10 | 2026-09-05 00:06:44 | 52.88988 | 11.84297 | 104° | 37km/h | 20586m | 3.5m/s | -51.8°C | 3.6% | 53.0hPa | 2.6V | 00:00:00 | 01:37:02 | 00:00:00 | |
| DL1XH1-15 | 2026-09-05 00:06:43 | 52.88994 | 11.84268 | 112° | 35km/h | 20576m | 5.2m/s | -51.8°C | 3.6% | 53.1hPa | 2.6V | 03:49:38 | 01:37:00 | 00:00:00 | |
| DM0DOS-11 | 2026-09-05 00:06:42 | 52.89008 | 11.84201 | 97° | 35km/h | 20552m | 3.7m/s | -51.8°C | 3.6% | 53.3hPa | 2.6V | 03:49:43 | 01:36:55 | 00:00:00 | |
| EDDB2-11 | 2026-09-05 00:06:42 | 52.88994 | 11.84268 | 112° | 35km/h | 20576m | 5.2m/s | -51.8°C | 0.9% | 53.1hPa | 2.7V | 00:00:00 | 00:00:00 | 00:00:00 | |
| DB0DAN | 2026-09-05 00:06:40 | 52.89001 | 11.84242 | 113° | 31km/h | 20566m | 4.3m/s | -51.8°C | 0.9% | 53.19hPa | 2.7V | 00:00:00 | 00:00:00 | 00:00:00 | |
| DL1NUX | 2026-09-05 00:06:39 | 52.89011 | 11.84159 | 98° | 33km/h | 20538m | 4.5m/s | -51.7°C | 3.5% | 53.4hPa | 2.6V | 03:49:46 | 01:36:52 | 00:00:00 | |
| AA1-15 | 2026-09-05 00:06:38 | 52.89006 | 11.84215 | 101° | 35km/h | 20556m | 5m/s | -51.8°C | 0.3% | 53.2hPa | 2.6V | 03:49:44 | 01:36:56 | 00:00:00 | |
| DL1XH-west | 2026-09-05 00:06:37 | 52.89008 | 11.84201 | 98° | 35km/h | 20552m | 3.7m/s | -51.8°C | 0.2% | 53.3hPa | 2.6V | 03:49:44 | 01:36:55 | 00:00:00 | |
| HARRO8 | 2026-09-05 00:06:36 | 52.89010 | 11.84172 | 98° | 33km/h | 20544m | 5.8m/s | -51.7°C | 0.9% | 53.4hPa | 2.7V | 00:00:00 | 00:00:00 | 00:00:00 | |
| DL1XH-15 | 2026-09-05 00:06:35 | 52.89012 | 11.84119 | 85° | 33km/h | 20523m | 5.3m/s | -51.7°C | 3.5% | 53.5hPa | 2.7V | 03:49:49 | 01:36:49 | 00:00:00 | |
| DF8AY | 2026-09-05 00:06:34 | 52.89012 | 11.84145 | 94° | 31km/h | 20534m | 4.2m/s | -51.7°C | 0.2% | 53.5hPa | 2.6V | 03:50:35 | 01:36:51 | 00:00:00 | |
| DF7ER-10 | 2026-09-05 00:06:33 | 52.89011 | 11.84158 | 99° | 33km/h | 20538m | 4.5m/s | -51.7°C | 0.9% | 53.4hPa | 2.6V | 03:50:00 | 00:00:00 | 00:00:00 | |
| DM0DOS-11 | 2026-09-05 00:06:32 | 52.89013 | 11.84065 | 99° | 33km/h | 20504m | 4.3m/s | -51.6°C | 3.5% | 53.7hPa | 2.6V | 03:49:53 | 01:36:45 | 00:00:00 | |
| DL1XH-west | 2026-09-05 00:06:27 | 52.89012 | 11.84065 | 99° | 33km/h | 20504m | 4.3m/s | -51.6°C | 0.2% | 53.7hPa | 2.6V | 03:50:35 | 01:36:45 | 00:00:00 | |
| BIOWL1-15 | 2026-09-05 00:06:26 | 52.89019 | 11.83988 | 97° | 37km/h | 20480m | 5.6m/s | -51.4°C | 0.2% | 53.9hPa | 2.6V | 03:50:35 | 01:36:40 | 00:00:00 | |
| DB0DAN | 2026-09-05 00:06:25 | 52.89015 | 11.84036 | 98° | 37km/h | 20494m | 5.7m/s | -51.5°C | 0.9% | 53.77hPa | 2.7V | 00:00:00 | 00:00:00 | 00:00:00 | |
| DF8AY | 2026-09-05 00:06:22 | 52.89020 | 11.83912 | 84° | 37km/h | 20456m | 4.1m/s | -51.2°C | 0.2% | 54.1hPa | 2.6V | 03:50:35 | 01:36:35 | 00:00:00 | |
| DM0DOS-11 | 2026-09-05 00:06:22 | 52.89020 | 11.83912 | 84° | 37km/h | 20456m | 4.1m/s | -51.2°C | 3.4% | 54.1hPa | 2.6V | 03:50:03 | 01:36:35 | 00:00:00 | |
| DL1XH-west | 2026-09-05 00:06:16 | 52.89019 | 11.83897 | 86° | 33km/h | 20452m | 5.5m/s | -51.2°C | 0.1% | 54.1hPa | 2.6V | 03:50:35 | 01:36:34 | 00:00:00 | |
| SO1NDE-10 | 2026-09-05 00:06:16 | 52.89019 | 11.83897 | 86° | 35km/h | 20452m | 5.5m/s | -51.2°C | 3.4% | 54.1hPa | 2.6V | 00:00:00 | 01:36:34 | 00:00:00 | |
| DL1XH-15 | 2026-09-05 00:06:15 | 52.89018 | 11.83830 | 84° | 37km/h | 20429m | 4.4m/s | -51.1°C | 3.4% | 54.3hPa | 2.6V | 03:50:09 | 01:36:29 | 00:00:00 | |
| BIOWL1-15 | 2026-09-05 00:06:13 | 52.89019 | 11.83858 | 90° | 31km/h | 20439m | 4.1m/s | -51.1°C | 0.1% | 54.3hPa | 2.6V | 03:50:35 | 01:36:31 | 00:00:00 | |
| DM0DOS-11 | 2026-09-05 00:06:12 | 52.89017 | 11.83771 | 91° | 33km/h | 20411m | 4.4m/s | -51.2°C | 3.5% | 54.5hPa | 2.6V | 03:50:13 | 01:36:25 | 00:00:00 | |
| DF7ER-10 | 2026-09-05 00:06:12 | 52.89019 | 11.83858 | 91° | 31km/h | 20439m | 4.1m/s | -51.1°C | 0.9% | 54.3hPa | 2.7V | 03:50:00 | 00:00:00 | 00:00:00 | |
| DB0DAN | 2026-09-05 00:06:10 | 52.89017 | 11.83815 | 85° | 35km/h | 20425m | 3.7m/s | -51.1°C | 0.9% | 54.36hPa | 2.7V | 00:00:00 | 00:00:00 | 00:00:00 | |
| DL1NUX | 2026-09-05 00:06:09 | 52.89015 | 11.83731 | 82° | 33km/h | 20396m | 3.8m/s | -51.4°C | 3.5% | 54.6hPa | 2.7V | 03:50:16 | 01:36:22 | 00:00:00 | |
| DF8AY | 2026-09-05 00:06:09 | 52.89017 | 11.83785 | 91° | 35km/h | 20416m | 5.1m/s | -51.2°C | 0.2% | 54.4hPa | 2.7V | 03:50:35 | 01:36:26 | 00:00:00 | |
| AA1-15 | 2026-09-05 00:06:07 | 52.89017 | 11.83758 | 89° | 31km/h | 20406m | 4.8m/s | -51.3°C | 0.2% | 54.5hPa | 2.6V | 03:50:35 | 01:36:24 | 00:00:00 | |
| DL1XH-west | 2026-09-05 00:06:05 | 52.89016 | 11.83744 | 84° | 33km/h | 20401m | 5.5m/s | -51.3°C | 0.1% | 54.5hPa | 2.6V | 03:50:35 | 01:36:23 | 00:00:00 | |
| DL1XH-15 | 2026-09-05 00:06:05 | 52.89013 | 11.83691 | 87° | 33km/h | 20383m | 4.1m/s | -51.4°C | 3.5% | 54.7hPa | 2.6V | 03:50:19 | 01:36:19 | 00:00:00 | |
| BIOWL1-15 | 2026-09-05 00:06:03 | 52.89013 | 11.83705 | 86° | 31km/h | 20387m | 5.5m/s | -51.4°C | 0.2% | 54.7hPa | 2.7V | 03:50:35 | 01:36:20 | 00:00:00 | |
| DM0DOS-11 | 2026-09-05 00:06:02 | 52.89008 | 11.83627 | 82° | 46km/h | 20365m | 3.9m/s | -51.3°C | 3.5% | 54.9hPa | 2.7V | 03:50:23 | 01:36:15 | 00:00:00 | |
| DD8BA-10 | 2026-09-05 00:06:01 | 52.89013 | 11.83691 | 88° | 40km/h | 20383m | 4.0m/s | -51.3°C | 3.5% | 54.7hPa | 2.6V | 00:00:00 | 00:00:00 | 00:00:00 | |
| DL1NUX | 2026-09-05 00:05:59 | 52.89006 | 11.83572 | 88° | 42km/h | 20351m | 3.5m/s | -51.2°C | 3.4% | 55hPa | 2.7V | 03:50:26 | 01:36:12 | 00:00:00 | |
| DF8AY | 2026-09-05 00:05:58 | 52.89010 | 11.83645 | 82° | 42km/h | 20369m | 4.8m/s | -51.3°C | 0.1% | 54.8hPa | 2.7V | 03:50:35 | 01:36:16 | 00:00:00 | |
| AA1-15 | 2026-09-05 00:05:56 | 52.89007 | 11.83609 | 86° | 46km/h | 20360m | 5.7m/s | -51.2°C | 0.1% | 54.9hPa | 2.6V | 03:50:35 | 01:36:14 | 00:00:00 | |
| DB0DAN | 2026-09-05 00:05:55 | 52.89006 | 11.83590 | 88° | 42km/h | 20355m | 4.9m/s | -51.2°C | 0.9% | 54.91hPa | 2.6V | 00:00:00 | 00:00:00 | 00:00:00 | |
| DL1XH-west | 2026-09-05 00:05:54 | 52.89006 | 11.83572 | 89° | 42km/h | 20351m | 3.5m/s | -51.2°C | 0.1% | 55hPa | 2.7V | 03:50:35 | 01:36:12 | 00:00:00 | |
| BIOWL1-15 | 2026-09-05 00:05:52 | 52.89001 | 11.83508 | 79° | 35km/h | 20333m | 4.6m/s | -51.2°C | 0.1% | 55.1hPa | 2.6V | 03:50:35 | 01:36:08 | 00:00:00 | |
| GOEST3-10 | 2026-09-05 00:05:52 | 52.89004 | 11.83538 | 82° | 38km/h | 20342m | 5.2m/s | -51.2°C | 3.4% | 55.0hPa | 2.6V | 00:00:00 | 00:00:00 | 00:00:00 | |
| DM0DOS-11 | 2026-09-05 00:05:51 | 52.88996 | 11.83469 | 75° | 33km/h | 20319m | 4.8m/s | -51.4°C | 3.5% | 55.2hPa | 2.7V | 03:50:33 | 01:36:05 | 00:00:00 | |
| DD8BA-10 | 2026-09-05 00:05:51 | 52.89003 | 11.83523 | 79° | 35km/h | 20337m | 4.2m/s | -51.2°C | 3.4% | 55.1hPa | 2.6V | 00:00:00 | 00:00:00 | 00:00:00 | |
| DO2SHX-10 | 2026-09-05 00:05:50 | 52.89001 | 11.83508 | 80° | 33km/h | 20333m | 4.6m/s | -51.2°C | 3.4% | 55.1hPa | 2.6V | 00:00:00 | 01:36:08 | 00:00:00 | |
| DL1NUX | 2026-09-05 00:05:49 | 52.88988 | 11.83426 | 71° | 38km/h | 20305m | 4.5m/s | -51.4°C | 3.5% | 55.4hPa | 2.6V | 03:50:36 | 01:36:02 | 00:00:00 | |
| DF8AY | 2026-09-05 00:05:48 | 52.88996 | 11.83469 | 76° | 33km/h | 20319m | 4.8m/s | -51.4°C | 0.2% | 55.2hPa | 2.7V | 03:50:35 | 01:36:05 | 00:00:00 | |
| DF8AY-15 | 2026-09-05 00:05:48 | 52.88998 | 11.83482 | 79° | 35km/h | 20323m | 3.7m/s | -51.3°C | 3.5% | 55.2hPa | 2.7V | 00:00:00 | 01:36:06 | 00:00:00 | |
| DL1XH1-15 | 2026-09-05 00:05:47 | 52.88983 | 11.83395 | 78° | 38km/h | 20295m | 4.4m/s | -51.4°C | 3.5% | 55.4hPa | 2.7V | 03:50:38 | 01:36:00 | 00:00:00 | |
| AA1-15 | 2026-09-05 00:05:46 | 52.88994 | 11.83455 | 72° | 35km/h | 20314m | 5m/s | -51.4°C | 0.2% | 55.3hPa | 2.6V | 03:50:35 | 01:36:04 | 00:00:00 | |
| SONDE2-11 | 2026-09-05 00:05:46 | 52.88991 | 11.83441 | 70° | 37km/h | 20310m | 3.7m/s | -51.4°C | 0.9% | 55.3hPa | 2.7V | 00:00:00 | 00:00:00 | 00:00:00 | |
| SONCRA | 2026-09-05 00:05:45 | 52.88991 | 11.83441 | 70° | 37km/h | 20310m | 3.7m/s | -51.4°C | 0.9% | 55.3hPa | 2.7V | 00:00:00 | 00:00:00 | 00:00:00 | |
| DL1XH-west | 2026-09-05 00:05:43 | 52.88985 | 11.83411 | 77° | 38km/h | 20301m | 5.2m/s | -51.4°C | 0.2% | 55.4hPa | 2.7V | 03:51:26 | 01:36:01 | 00:00:00 | |
| GOEST3-10 | 2026-09-05 00:05:42 | 52.88983 | 11.83395 | 79° | 38km/h | 20296m | 4.4m/s | -51.3°C | 3.5% | 55.4hPa | 2.7V | 03:50:00 | 00:00:00 | 00:00:00 | |
| DM0DOS-11 | 2026-09-05 00:05:41 | 52.88971 | 11.83319 | 69° | 35km/h | 20274m | 2.9m/s | -51.3°C | 3.4% | 55.6hPa | 2.7V | 03:50:43 | 01:35:55 | 00:00:00 | |
| BIOWL1-15 | 2026-09-05 00:05:40 | 52.88979 | 11.83364 | 77° | 38km/h | 20287m | 5m/s | -51.3°C | 0.2% | 55.5hPa | 2.6V | 03:51:26 | 01:35:58 | 00:00:00 | |
| DB0DAN | 2026-09-05 00:05:40 | 52.88979 | 11.83364 | 77° | 37km/h | 20287m | 5m/s | -51.3°C | 0.9% | 55.53hPa | 2.6V | 00:00:00 | 00:00:00 | 00:00:00 | |
| EDDB2-11 | 2026-09-05 00:05:40 | 52.88979 | 11.83364 | 76° | 38km/h | 20287m | 5.0m/s | -51.3°C | 0.9% | 55.5hPa | 2.6V | 00:00:00 | 00:00:00 | 00:00:00 | |
| DL1NUX | 2026-09-05 00:05:39 | 52.88965 | 11.83281 | 80° | 29km/h | 20262m | 4m/s | -51.4°C | 3.4% | 55.7hPa | 2.6V | 03:50:46 | 01:35:52 | 00:00:00 | |
| DO2SHX-10 | 2026-09-05 00:05:38 | 52.88974 | 11.83333 | 71° | 35km/h | 20278m | 3.4m/s | -51.3°C | 3.4% | 55.6hPa | 2.7V | 00:00:00 | 01:35:56 | 00:00:00 | |
| DL1XH1-15 | 2026-09-05 00:05:37 | 52.88962 | 11.83255 | 80° | 33km/h | 20253m | 5.5m/s | -51.4°C | 3.5% | 55.8hPa | 2.7V | 03:50:48 | 01:35:50 | 00:00:00 | |
| DF8AY | 2026-09-05 00:05:36 | 52.88968 | 11.83306 | 73° | 33km/h | 20271m | 4.5m/s | -51.3°C | 0.2% | 55.7hPa | 2.7V | 03:52:17 | 01:35:54 | 00:00:00 | |
| AA1-15 | 2026-09-05 00:05:35 | 52.88966 | 11.83293 | 78° | 31km/h | 20266m | 5m/s | -51.4°C | 0.1% | 55.7hPa | 2.6V | 03:51:26 | 01:35:53 | 00:00:00 | |
| DL1XH-west | 2026-09-05 00:05:33 | 52.88964 | 11.83268 | 81° | 31km/h | 20258m | 4.2m/s | -51.4°C | 0.2% | 55.8hPa | 2.7V | 03:51:26 | 01:35:51 | 00:00:00 | |
| DL1XH-15 | 2026-09-05 00:05:33 | 52.88961 | 11.83242 | 77° | 33km/h | 20248m | 3.7m/s | -51.4°C | 3.4% | 55.8hPa | 2.6V | 03:50:49 | 01:35:49 | 00:00:00 | |
| DM0DOS-11 | 2026-09-05 00:05:32 | 52.88952 | 11.83193 | 70° | 27km/h | 20231m | 4.1m/s | -51.6°C | 3.5% | 56hPa | 2.7V | 03:50:53 | 01:35:45 | 00:00:00 | |
| BIOWL1-15 | 2026-09-05 00:05:30 | 52.88957 | 11.83216 | 75° | 29km/h | 20240m | 5.3m/s | -51.5°C | 0.2% | 55.9hPa | 2.6V | 03:51:26 | 01:35:47 | 00:00:00 | |
| DD8BA-10 | 2026-09-05 00:05:30 | 52.88958 | 11.83228 | 76° | 27km/h | 20245m | 3.4m/s | -51.4°C | 3.5% | 55.8hPa | 2.6V | 00:00:00 | 00:00:00 | 00:00:00 | |
| DL1NUX | 2026-09-05 00:05:29 | 52.88945 | 11.83161 | 69° | 27km/h | 20217m | 3.9m/s | -51.6°C | 3.5% | 56.1hPa | 2.6V | 03:50:56 | 01:35:42 | 00:00:00 | |
| DO2SHX-10 | 2026-09-05 00:05:29 | 52.88956 | 11.83216 | 75° | 29km/h | 20241m | 5.3m/s | -51.4°C | 3.5% | 55.9hPa | 2.7V | 00:00:00 | 01:35:47 | 00:00:00 | |
| DF8AY-15 | 2026-09-05 00:05:28 | 52.88955 | 11.83204 | 73° | 26km/h | 20235m | 4.7m/s | -51.5°C | 3.5% | 55.9hPa | 2.7V | 00:00:00 | 01:35:46 | 00:00:00 | |
| DL1XH1-15 | 2026-09-05 00:05:27 | 52.88940 | 11.83141 | 72° | 26km/h | 20208m | 3.8m/s | -51.6°C | 3.5% | 56.2hPa | 2.7V | 03:50:58 | 01:35:40 | 00:00:00 | |
| DF8AY | 2026-09-05 00:05:26 | 52.88947 | 11.83172 | 68° | 27km/h | 20221m | 4m/s | -51.6°C | 0.2% | 56.1hPa | 2.6V | 03:52:17 | 01:35:43 | 00:00:00 | |
| DL1XH-15 | 2026-09-05 00:05:25 | 52.88939 | 11.83130 | 68° | 26km/h | 20204m | 4.9m/s | -51.6°C | 3.5% | 56.2hPa | 2.7V | 03:50:59 | 01:35:39 | 00:00:00 | |
| DB0DAN | 2026-09-05 00:05:25 | 52.88947 | 11.83172 | 68° | 27km/h | 20221m | 4m/s | -51.6°C | 0.9% | 56.09hPa | 2.6V | 00:00:00 | 00:00:00 | 00:00:00 | |
| AA1-15 | 2026-09-05 00:05:24 | 52.88945 | 11.83161 | 69° | 27km/h | 20217m | 3.9m/s | -51.6°C | 0.2% | 56.1hPa | 2.6V | 03:51:26 | 01:35:42 | 00:00:00 | |
| DL1XH-west | 2026-09-05 00:05:22 | 52.88941 | 11.83141 | 72° | 26km/h | 20208m | 3.8m/s | -51.6°C | 0.2% | 56.2hPa | 2.7V | 03:51:26 | 01:35:40 | 00:00:00 | |
| DM0DOS-11 | 2026-09-05 00:05:22 | 52.88925 | 11.83089 | 54° | 26km/h | 20185m | 5m/s | -51.6°C | 3.5% | 56.4hPa | 2.6V | 03:51:03 | 01:35:35 | 00:00:00 | |
| GOEST3-10 | 2026-09-05 00:05:22 | 52.88940 | 11.83140 | 73° | 27km/h | 20208m | 3.8m/s | -51.5°C | 3.5% | 56.1hPa | 2.7V | 03:50:00 | 00:00:00 | 00:00:00 | |
| DL4BBY-15 | 2026-09-05 00:05:21 | 52.88938 | 11.83130 | 69° | 27km/h | 20204m | 4.9m/s | -52.0°C | 0% | 0hPa | 2.7V | 00:00:00 | 00:00:00 | 00:00:00 | |
| DD8BA-10 | 2026-09-05 00:05:20 | 52.88936 | 11.83120 | 64° | 26km/h | 20199m | 5.3m/s | -51.5°C | 3.5% | 56.2hPa | 2.7V | 00:00:00 | 00:00:00 | 00:00:00 | |
| S3001 | 2026-09-05 00:05:19 | 52.88932 | 11.83109 | 60° | 29km/h | 20194m | 3.8m/s | -51.6°C | 0.9% | 56.4hPa | 2.7V | 00:00:00 | 00:00:00 | 00:00:00 | |
| BIOWL1-15 | 2026-09-05 00:05:18 | 52.88889 | 11.82902 | 72° | 27km/h | 20104m | 5.4m/s | -51.6°C | 0.1% | 57.1hPa | 2.7V | 03:51:26 | 01:35:17 | 00:00:00 | |
| DL1XH1-15 | 2026-09-05 00:05:17 | 52.88908 | 11.83044 | 70° | 22km/h | 20163m | 4.9m/s | -51.6°C | 3.5% | 56.5hPa | 2.7V | 03:51:08 | 01:35:30 | 00:00:00 | |
| AA1-15 | 2026-09-05 00:05:14 | 52.88913 | 11.83062 | 57° | 27km/h | 20171m | 4.3m/s | -51.6°C | 0.2% | 56.5hPa | 2.6V | 03:51:26 | 01:35:32 | 00:00:00 | |
| DO2SHX-10 | 2026-09-05 00:05:14 | 52.88913 | 11.83062 | 58° | 24km/h | 20171m | 4.2m/s | -51.5°C | 3.5% | 56.4hPa | 2.7V | 00:00:00 | 01:35:32 | 00:00:00 | |
| DL1XH-15 | 2026-09-05 00:05:13 | 52.88906 | 11.83036 | 82° | 18km/h | 20158m | 5.5m/s | -51.6°C | 3.5% | 56.6hPa | 2.7V | 03:51:09 | 01:35:29 | 00:00:00 | |
| DL1XH-west | 2026-09-05 00:05:12 | 52.88908 | 11.83044 | 71° | 22km/h | 20163m | 4.9m/s | -51.6°C | 0.1% | 56.6hPa | 2.7V | 03:51:26 | 01:35:30 | 00:00:00 | |
| GOEST3-10 | 2026-09-05 00:05:12 | 52.88908 | 11.83044 | 71° | 22km/h | 20163m | 4.9m/s | -51.5°C | 3.5% | 56.5hPa | 2.6V | 00:00:00 | 00:00:00 | 00:00:00 | |
| DH5RUM-10 | 2026-09-05 00:05:11 | 52.88908 | 11.83044 | 71° | 22km/h | 20163m | 4.9m/s | -51.6°C | 0.9% | 56.6hPa | 2.6V | 00:00:00 | 00:00:00 | 00:00:00 | |
| DB0DAN | 2026-09-05 00:05:10 | 52.88906 | 11.83028 | 93° | 18km/h | 20154m | 3.8m/s | -51.6°C | 0.9% | 56.66hPa | 2.6V | 00:00:00 | 00:00:00 | 00:00:00 | |
| DD8BA-10 | 2026-09-05 00:05:10 | 52.88906 | 11.83028 | 93° | 27km/h | 20154m | 3.8m/s | -51.5°C | 3.5% | 56.6hPa | 2.6V | 00:00:00 | 00:00:00 | 00:00:00 | |
| DL1NUX | 2026-09-05 00:05:09 | 52.88904 | 11.82964 | 73° | 29km/h | 20126m | 3.5m/s | -51.5°C | 3.4% | 56.9hPa | 2.6V | 03:51:16 | 01:35:22 | 00:00:00 | |
| BIOWL1-15 | 2026-09-05 00:05:07 | 52.88887 | 11.82892 | 83° | 22km/h | 20099m | 4.7m/s | -51.5°C | 0.1% | 57.2hPa | 2.6V | 03:51:26 | 01:35:16 | 00:00:00 | |
| DL1XH-15 | 2026-09-05 00:05:05 | 52.88895 | 11.82926 | 64° | 35km/h | 20112m | 4m/s | -51.5°C | 3.4% | 57hPa | 2.7V | 03:51:19 | 01:35:19 | 00:00:00 | |
| DL1XH1-15 | 2026-09-05 00:05:03 | 52.88898 | 11.82939 | 65° | 35km/h | 20117m | 5.4m/s | -51.5°C | 3.4% | 57hPa | 2.6V | 03:51:18 | 01:35:20 | 00:00:00 | |
| DF8AY | 2026-09-05 00:05:03 | 52.88902 | 11.82952 | 68° | 33km/h | 20122m | 4.4m/s | -51.5°C | 0.2% | 57hPa | 2.6V | 03:52:17 | 01:35:21 | 00:00:00 | |
| DL1XH-west | 2026-09-05 00:05:02 | 52.88898 | 11.82939 | 66° | 35km/h | 20117m | 5.4m/s | -51.5°C | 0.1% | 57hPa | 2.6V | 03:51:26 | 01:35:20 | 00:00:00 | |
| DO2SHX-10 | 2026-09-05 00:05:02 | 52.88898 | 11.82939 | 66° | 33km/h | 20117m | 5.3m/s | -51.5°C | 3.4% | 56.9hPa | 2.7V | 00:00:00 | 01:35:20 | 00:00:00 | |
| AM1SDL-15 | 2026-09-05 00:05:01 | 52.88895 | 11.82926 | 65° | 29km/h | 20112m | 4.0m/s | -51.5°C | 3.4% | 57.0hPa | 2.7V | 00:00:00 | 01:35:19 | 00:00:00 | |
| DD8BA-10 | 2026-09-05 00:05:00 | 52.88891 | 11.82913 | 68° | 29km/h | 20109m | 3.8m/s | -51.5°C | 3.4% | 57.0hPa | 2.7V | 03:51:00 | 00:00:00 | 00:00:00 | |
| DL1NUX | 2026-09-05 00:04:59 | 52.88894 | 11.82852 | 112° | 31km/h | 20080m | 3.8m/s | -51.6°C | 3.4% | 57.3hPa | 2.7V | 03:51:26 | 01:35:12 | 00:00:00 | |
| DL1ZP-14 | 2026-09-05 00:04:57 | 52.88888 | 11.82883 | 98° | 20km/h | 20095m | 4.5m/s | -51.5°C | 0.9% | 57.2hPa | 2.6V | 00:00:00 | 00:00:00 | 00:00:00 | |
| DF7ER-10 | 2026-09-05 00:04:56 | 52.88888 | 11.82883 | 100° | 22km/h | 20095m | 4.5m/s | -51.5°C | 0.9% | 57.2hPa | 2.7V | 03:51:00 | 00:00:00 | 00:00:00 | |
| DB0DAN | 2026-09-05 00:04:55 | 52.88891 | 11.82864 | 112° | 27km/h | 20084m | 4.6m/s | -51.6°C | 0.9% | 57.27hPa | 2.7V | 00:00:00 | 00:00:00 | 00:00:00 | |
| DB0NH | 2026-09-05 00:04:54 | 52.88894 | 11.82852 | 113° | 42km/h | 20081m | 3.7m/s | -51.5°C | 3.4% | 57.3hPa | 2.7V | 00:00:00 | 01:35:12 | 00:00:00 | |
| DL1XH1-15 | 2026-09-05 00:04:53 | 52.88900 | 11.82827 | 104° | 33km/h | 20070m | 5.2m/s | -51.6°C | 3.4% | 57.4hPa | 2.6V | 03:51:28 | 01:35:10 | 00:00:00 | |
| DL1XH-15 | 2026-09-05 00:04:53 | 52.88901 | 11.82812 | 97° | 37km/h | 20066m | 4.6m/s | -51.6°C | 3.4% | 57.4hPa | 2.7V | 03:51:29 | 01:35:09 | 00:00:00 | |
| DO2SHX-10 | 2026-09-05 00:04:53 | 52.88897 | 11.82840 | 110° | 35km/h | 20076m | 5.0m/s | -51.5°C | 3.4% | 57.3hPa | 2.6V | 00:00:00 | 01:35:11 | 00:00:00 | |
| DM0DOS-11 | 2026-09-05 00:04:52 | 52.88898 | 11.82738 | 78° | 49km/h | 20046m | 3.8m/s | -51.9°C | 3.4% | 57.6hPa | 2.6V | 03:51:33 | 01:35:05 | 00:00:00 | |
| DL1XH-west | 2026-09-05 00:04:52 | 52.88900 | 11.82827 | 105° | 33km/h | 20070m | 5.2m/s | -51.6°C | 0.1% | 57.4hPa | 2.6V | 03:52:17 | 01:35:10 | 00:00:00 | |
| BIOWL1-15 | 2026-09-05 00:04:51 | 52.88901 | 11.82812 | 97° | 37km/h | 20066m | 4.6m/s | -51.6°C | 0.1% | 57.4hPa | 2.7V | 03:52:17 | 01:35:09 | 00:00:00 | |
| DL4BBY-15 | 2026-09-05 00:04:50 | 52.88901 | 11.82796 | 91° | 47km/h | 20061m | 5.2m/s | -52.1°C | 0% | 0hPa | 2.7V | 00:00:00 | 00:00:00 | 00:00:00 | |
| DL1NUX | 2026-09-05 00:04:49 | 52.88893 | 11.82686 | 88° | 35km/h | 20033m | 3.4m/s | -52.3°C | 3.5% | 57.7hPa | 2.7V | 03:51:36 | 01:35:02 | 00:00:00 | |
| GOEST3-10 | 2026-09-05 00:04:49 | 52.88901 | 11.82778 | 86° | 46km/h | 20056m | 6.0m/s | -51.7°C | 3.4% | 57.5hPa | 2.6V | 00:00:00 | 00:00:00 | 00:00:00 | |
| DF8AY-15 | 2026-09-05 00:04:48 | 52.88900 | 11.82758 | 82° | 46km/h | 20051m | 4.5m/s | -51.7°C | 3.4% | 57.5hPa | 2.6V | 03:51:00 | 01:35:06 | 00:00:00 | |
| SO1NDE-10 | 2026-09-05 00:04:47 | 52.88895 | 11.82719 | 80° | 46km/h | 20042m | 5.5m/s | -52.0°C | 3.4% | 57.6hPa | 2.6V | 03:51:00 | 01:35:04 | 00:00:00 | |
| DL1XH-15 | 2026-09-05 00:04:46 | 52.88897 | 11.82645 | 106° | 37km/h | 20020m | 3.7m/s | -52.5°C | 3.6% | 57.9hPa | 2.6V | 03:51:39 | 01:34:59 | 00:00:00 | |
| DL1XH1-15 | 2026-09-05 00:04:46 | 52.88895 | 11.82659 | 102° | 33km/h | 20025m | 4.7m/s | -52.5°C | 3.6% | 57.8hPa | 2.6V | 03:51:38 | 01:35:00 | 00:00:00 | |
| DL1XH-west | 2026-09-05 00:04:42 | 52.88895 | 11.82659 | 103° | 33km/h | 20025m | 4.7m/s | -52.5°C | 0.2% | 57.8hPa | 2.6V | 03:52:17 | 01:35:00 | 00:00:00 | |
| BIOWL1-15 | 2026-09-05 00:04:41 | 52.88897 | 11.82645 | 107° | 37km/h | 20020m | 3.7m/s | -52.5°C | 0.2% | 57.9hPa | 2.6V | 03:52:17 | 01:34:59 | 00:00:00 | |
| DB0DAN | 2026-09-05 00:04:40 | 52.88900 | 11.82630 | 106° | 37km/h | 20017m | 3.6m/s | -52.5°C | 0.9% | 57.85hPa | 2.7V | 00:00:00 | 00:00:00 | 00:00:00 | |
| DD8BA-10 | 2026-09-05 00:04:40 | 52.88899 | 11.82630 | 107° | 49km/h | 20017m | 3.6m/s | -52.5°C | 3.5% | 57.8hPa | 2.6V | 00:00:00 | 00:00:00 | 00:00:00 | |
| GOEST3-10 | 2026-09-05 00:04:39 | 52.88902 | 11.82615 | 104° | 49km/h | 20013m | 4.6m/s | -52.5°C | 3.5% | 57.9hPa | 2.6V | 03:51:00 | 00:00:00 | 00:00:00 | |
| DO2SHX-10 | 2026-09-05 00:04:38 | 52.88904 | 11.82598 | 97° | 46km/h | 20008m | 4.5m/s | -52.5°C | 3.6% | 57.9hPa | 2.6V | 00:00:00 | 01:34:56 | 00:00:00 | |
| AM1SDL-15 | 2026-09-05 00:04:37 | 52.88905 | 11.82580 | 93° | 46km/h | 20004m | 3.8m/s | -52.6°C | 3.6% | 57.9hPa | 2.6V | 00:00:00 | 01:34:55 | 00:00:00 | |
| DF7ER-10 | 2026-09-05 00:04:36 | 52.88905 | 11.82580 | 93° | 46km/h | 20004m | 3.8m/s | -52.6°C | 1.0% | 58.0hPa | 2.6V | 03:52:00 | 00:00:00 | 00:00:00 | |
| DO2SHX-10 | 2026-09-05 00:04:35 | 52.88905 | 11.82538 | 90° | 57km/h | 19995m | 4.6m/s | -52.7°C | 3.6% | 58.0hPa | 2.6V | 03:51:00 | 01:34:53 | 00:00:00 | |
| DL1XH-15 | 2026-09-05 00:04:34 | 52.88900 | 11.82444 | 81° | 53km/h | 19978m | 3.2m/s | -52.9°C | 3.7% | 58.2hPa | 2.6V | 03:51:49 | 01:34:49 | 00:00:00 | |
| DL1XH1-15 | 2026-09-05 00:04:34 | 52.88902 | 11.82466 | 81° | 57km/h | 19981m | 4.8m/s | -52.9°C | 3.7% | 58.2hPa | 2.6V | 03:51:48 | 01:34:50 | 00:00:00 | |
| AA1-15 | 2026-09-05 00:04:34 | 52.88893 | 11.82250 | 80° | 55km/h | 19935m | 3.8m/s | -52.9°C | 0.2% | 58.6hPa | 2.6V | 03:52:17 | 01:34:39 | 00:00:00 | |
| DF8AY | 2026-09-05 00:04:34 | 52.88895 | 11.82272 | 84° | 51km/h | 19939m | 3.2m/s | -52.9°C | 0.3% | 58.6hPa | 2.6V | 03:52:17 | 01:34:40 | 00:00:00 | |
| DL1XH-west | 2026-09-05 00:04:31 | 52.88890 | 11.82228 | 75° | 55km/h | 19931m | 5.2m/s | -52.9°C | 0.3% | 58.7hPa | 2.6V | 03:52:17 | 01:34:38 | 00:00:00 | |
| DD8BA-10 | 2026-09-05 00:04:30 | 52.88898 | 11.82422 | 84° | 46km/h | 19974m | 4.5m/s | -52.9°C | 3.7% | 58.2hPa | 2.7V | 00:00:00 | 00:00:00 | 00:00:00 | |
| DO2SHX-10 | 2026-09-05 00:04:29 | 52.88897 | 11.82401 | 87° | 46km/h | 19970m | 4.3m/s | -52.9°C | 3.7% | 58.2hPa | 2.6V | 00:00:00 | 01:34:47 | 00:00:00 | |
| DL1XH-15 | 2026-09-05 00:04:28 | 52.88893 | 11.82250 | 80° | 55km/h | 19935m | 3.8m/s | -52.9°C | 3.6% | 58.6hPa | 2.6V | 03:51:59 | 01:34:39 | 00:00:00 | |
| DL1XH1-15 | 2026-09-05 00:04:28 | 52.88895 | 11.82272 | 84° | 51km/h | 19939m | 3.2m/s | -52.9°C | 3.6% | 58.6hPa | 2.6V | 03:51:58 | 01:34:40 | 00:00:00 | |
| DF8AY | 2026-09-05 00:04:26 | 52.88887 | 11.82206 | 71° | 53km/h | 19926m | 4.6m/s | -52.9°C | 0.3% | 58.7hPa | 2.7V | 03:52:17 | 01:34:37 | 00:00:00 | |
| DB0DAN | 2026-09-05 00:04:25 | 52.88896 | 11.82329 | 89° | 38km/h | 19952m | 3.6m/s | -52.9°C | 1% | 58.45hPa | 2.7V | 00:00:00 | 00:00:00 | 00:00:00 | |
| AA1-15 | 2026-09-05 00:04:18 | 52.88882 | 11.82186 | 68° | 49km/h | 19922m | 3.1m/s | -52.9°C | 0.2% | 58.8hPa | 2.7V | 03:52:17 | 01:34:36 | 00:00:00 | |
| BIOWL1-15 | 2026-09-05 00:04:15 | 52.88868 | 11.82103 | 81° | 31km/h | 19900m | 4.5m/s | -53.2°C | 0.3% | 58.9hPa | 2.7V | 03:52:17 | 01:34:31 | 00:00:00 | |
| DL1XH-15 | 2026-09-05 00:04:15 | 52.88865 | 11.82080 | 72° | 27km/h | 19890m | 4.6m/s | -53.3°C | 3.7% | 59hPa | 2.6V | 03:52:09 | 01:34:29 | 00:00:00 | |
| DL1XH-west | 2026-09-05 00:04:11 | 52.88865 | 11.82080 | 72° | 27km/h | 19890m | 4.6m/s | -53.3°C | 0.3% | 59hPa | 2.6V | 03:52:17 | 01:34:29 | 00:00:00 | |
| DF8AY | 2026-09-05 00:04:11 | 52.88862 | 11.82069 | 73° | 29km/h | 19885m | 4.7m/s | -53.4°C | 0.3% | 59hPa | 2.6V | 03:52:17 | 01:34:28 | 00:00:00 | |
| DB0DAN | 2026-09-05 00:04:10 | 52.88862 | 11.82069 | 73° | 27km/h | 19885m | 4.7m/s | -53.4°C | 1% | 59.04hPa | 2.6V | 00:00:00 | 00:00:00 | 00:00:00 | |
| AA1-15 | 2026-09-05 00:04:08 | 52.88858 | 11.82043 | 75° | 37km/h | 19875m | 4.5m/s | -53.4°C | 0.3% | 59.1hPa | 2.7V | 03:52:17 | 01:34:26 | 00:00:00 | |
| DF8AY-15 | 2026-09-05 00:04:08 | 52.88858 | 11.82042 | 75° | 31km/h | 19875m | 4.5m/s | -53.4°C | 3.7% | 59.1hPa | 2.6V | 00:00:00 | 01:34:26 | 00:00:00 | |
| EDDB2-11 | 2026-09-05 00:04:07 | 52.88852 | 11.82013 | 68° | 37km/h | 19867m | 4.5m/s | -53.5°C | 1.0% | 59.2hPa | 2.6V | 00:00:00 | 00:00:00 | 00:00:00 | |
| DO2SHX-10 | 2026-09-05 00:04:06 | 52.88848 | 11.81999 | 64° | 33km/h | 19862m | 5.1m/s | -53.5°C | 3.7% | 59.2hPa | 2.6V | 00:00:00 | 01:34:23 | 00:00:00 | |
| DF7ER-10 | 2026-09-05 00:04:04 | 52.88848 | 11.81999 | 65° | 37km/h | 19862m | 5.1m/s | -53.5°C | 1.0% | 59.3hPa | 2.7V | 03:52:00 | 00:00:00 | 00:00:00 | |
| DL1XH1-15 | 2026-09-05 00:04:03 | 52.88837 | 11.81963 | 67° | 27km/h | 19847m | 6.3m/s | -53.5°C | 3.7% | 59.4hPa | 2.7V | 03:52:18 | 01:34:20 | 00:00:00 | |
| DL1XH-15 | 2026-09-05 00:04:03 | 52.88835 | 11.81952 | 73° | 26km/h | 19842m | 4.6m/s | -53.5°C | 3.8% | 59.4hPa | 2.6V | 03:52:19 | 01:34:19 | 00:00:00 | |
| BIOWL1-15 | 2026-09-05 00:04:02 | 52.88825 | 11.81896 | 77° | 33km/h | 19818m | 5.8m/s | -53.7°C | 0.3% | 59.7hPa | 2.7V | 03:53:08 | 01:34:14 | 00:00:00 | |
| DM0DOS-11 | 2026-09-05 00:04:02 | 52.88828 | 11.81909 | 74° | 29km/h | 19823m | 4.2m/s | -53.7°C | 3.7% | 59.6hPa | 2.7V | 03:52:23 | 01:34:15 | 00:00:00 | |
| DL1XH-west | 2026-09-05 00:04:01 | 52.88835 | 11.81952 | 74° | 26km/h | 19842m | 4.6m/s | -53.5°C | 0.3% | 59.5hPa | 2.6V | 03:53:08 | 01:34:19 | 00:00:00 | |
| DF8AY | 2026-09-05 00:04:00 | 52.88833 | 11.81942 | 76° | 26km/h | 19837m | 3.9m/s | -53.6°C | 0.3% | 59.5hPa | 2.6V | 03:53:08 | 01:34:18 | 00:00:00 | |
| DJ2DS-15 | 2026-09-05 00:04:00 | 52.88831 | 11.81931 | 72° | 26km/h | 19832m | 5.3m/s | -53.6°C | 1.0% | 59.5hPa | 2.6V | 00:00:00 | 00:00:00 | 00:00:00 | |
| DL1NUX | 2026-09-05 00:03:59 | 52.88822 | 11.81869 | 74° | 35km/h | 19809m | 4.5m/s | -53.8°C | 3.8% | 59.8hPa | 2.6V | 03:52:26 | 01:34:12 | 00:00:00 | |
| AA1-15 | 2026-09-05 00:03:58 | 52.88829 | 11.81921 | 73° | 27km/h | 19828m | 4.1m/s | -53.6°C | 0.3% | 59.6hPa | 2.7V | 03:53:08 | 01:34:16 | 00:00:00 | |
| GOEST3-10 | 2026-09-05 00:03:58 | 52.88829 | 11.81921 | 73° | 31km/h | 19828m | 4.1m/s | -53.6°C | 3.7% | 59.6hPa | 2.6V | 03:52:00 | 00:00:00 | 00:00:00 | |
| DB0DAN | 2026-09-05 00:03:55 | 52.88824 | 11.81883 | 78° | 33km/h | 19814m | 4.5m/s | -53.7°C | 1% | 59.74hPa | 2.6V | 00:00:00 | 00:00:00 | 00:00:00 | |
| DL1XH-15 | 2026-09-05 00:03:55 | 52.88812 | 11.81830 | 62° | 31km/h | 19795m | 4.1m/s | -54.1°C | 3.9% | 59.9hPa | 2.7V | 03:52:29 | 01:34:09 | 00:00:00 | |
| DB0NH | 2026-09-05 00:03:54 | 52.88822 | 11.81869 | 75° | 27km/h | 19809m | 4.5m/s | -53.7°C | 3.8% | 59.7hPa | 2.7V | 03:52:00 | 01:34:12 | 00:00:00 | |
| DL1XH1-15 | 2026-09-05 00:03:53 | 52.88816 | 11.81842 | 64° | 33km/h | 19799m | 4m/s | -54°C | 3.9% | 59.9hPa | 2.7V | 03:52:28 | 01:34:10 | 00:00:00 | |
| DO2SHX-10 | 2026-09-05 00:03:53 | 52.88819 | 11.81855 | 70° | 33km/h | 19804m | 5.5m/s | -53.9°C | 3.8% | 59.8hPa | 2.7V | 00:00:00 | 01:34:11 | 00:00:00 | |
| DM0DOS-11 | 2026-09-05 00:03:52 | 52.88800 | 11.81793 | 57° | 22km/h | 19776m | 5.7m/s | -54.1°C | 3.9% | 60.1hPa | 2.7V | 03:52:33 | 01:34:05 | 00:00:00 | |
| BIOWL1-15 | 2026-09-05 00:03:51 | 52.88812 | 11.81830 | 63° | 31km/h | 19795m | 4.1m/s | -54.1°C | 0.4% | 59.9hPa | 2.7V | 03:53:08 | 01:34:09 | 00:00:00 | |
| DL1XH-west | 2026-09-05 00:03:50 | 52.88809 | 11.81820 | 65° | 27km/h | 19790m | 5.6m/s | -54.1°C | 0.4% | 59.9hPa | 2.6V | 03:53:08 | 01:34:08 | 00:00:00 | |
| AA1-15 | 2026-09-05 00:03:48 | 52.88803 | 11.81801 | 61° | 24km/h | 19781m | 4.2m/s | -54.1°C | 0.4% | 60hPa | 2.7V | 03:53:08 | 01:34:06 | 00:00:00 | |
| S3001 | 2026-09-05 00:03:47 | 52.88797 | 11.81785 | 59° | 22km/h | 19771m | 4.1m/s | -54.1°C | 1.0% | 60.1hPa | 2.6V | 00:00:00 | 00:00:00 | 00:00:00 | |
| SO1NDE-10 | 2026-09-05 00:03:46 | 52.88797 | 11.81785 | 60° | 29km/h | 19771m | 4.1m/s | 0°C | 0% | 0hPa | 2.6V | 00:00:00 | 01:34:04 | 00:00:00 | |
| DL1NUX | 2026-09-05 00:03:45 | 52.88793 | 11.81768 | 76° | 24km/h | 19762m | 5.8m/s | -54°C | 4% | 60.2hPa | 2.6V | 03:52:36 | 01:34:02 | 00:00:00 | |
| DO2SHX-10 | 2026-09-05 00:03:44 | 52.88793 | 11.81768 | 77° | 26km/h | 19762m | 5.7m/s | -54.0°C | 4.0% | 60.2hPa | 2.7V | 00:00:00 | 01:34:02 | 00:00:00 | |
| DL1XH1-15 | 2026-09-05 00:03:43 | 52.88792 | 11.81746 | 86° | 29km/h | 19752m | 4.3m/s | -54°C | 3.9% | 60.3hPa | 2.7V | 03:52:38 | 01:34:00 | 00:00:00 | |
| GOEST3-10 | 2026-09-05 00:03:43 | 52.88792 | 11.81757 | 86° | 31km/h | 19757m | 4.6m/s | -54.0°C | 3.9% | 60.2hPa | 2.7V | 00:00:00 | 01:34:01 | 00:00:00 | |
| DM0DOS-11 | 2026-09-05 00:03:42 | 52.88784 | 11.81679 | 78° | 33km/h | 19728m | 5.6m/s | -53.9°C | 3.9% | 60.5hPa | 2.7V | 03:52:43 | 01:33:55 | 00:00:00 | |
| MECKS9 | 2026-09-05 00:03:42 | 52.88792 | 11.81757 | 86° | 26km/h | 19757m | 4.6m/s | -54.0°C | 1.0% | 60.3hPa | 2.6V | 00:00:00 | 00:00:00 | 00:00:00 | |
| DB0DAN | 2026-09-05 00:03:40 | 52.88790 | 11.81720 | 77° | 31km/h | 19743m | 5m/s | -54°C | 1% | 60.38hPa | 2.6V | 00:00:00 | 00:00:00 | 00:00:00 | |
| BIOWL1-15 | 2026-09-05 00:03:40 | 52.88790 | 11.81720 | 77° | 33km/h | 19743m | 5m/s | -54°C | 0.4% | 60.4hPa | 2.6V | 03:53:08 | 01:33:58 | 00:00:00 | |
| DL1XH-west | 2026-09-05 00:03:39 | 52.88788 | 11.81707 | 76° | 35km/h | 19738m | 4.5m/s | -53.9°C | 0.4% | 60.4hPa | 2.6V | 03:53:08 | 01:33:57 | 00:00:00 | |
| AA1-15 | 2026-09-05 00:03:38 | 52.88784 | 11.81679 | 79° | 33km/h | 19728m | 5.6m/s | -53.9°C | 0.4% | 60.5hPa | 2.7V | 03:53:08 | 01:33:55 | 00:00:00 | |
| EDDB2-11 | 2026-09-05 00:03:36 | 52.88781 | 11.81653 | 77° | 29km/h | 19718m | 4.3m/s | -53.9°C | 1.1% | 60.6hPa | 2.7V | 00:00:00 | 00:00:00 | 00:00:00 | |
| DL1XH-15 | 2026-09-05 00:03:35 | 52.88773 | 11.81607 | 77° | 27km/h | 19698m | 5.1m/s | -53.9°C | 3.9% | 60.8hPa | 2.7V | 03:52:49 | 01:33:49 | 00:00:00 | |
| DO2SHX-10 | 2026-09-05 00:03:35 | 52.88781 | 11.81653 | 78° | 29km/h | 19718m | 4.3m/s | -53.9°C | 3.9% | 60.6hPa | 2.7V | 03:52:00 | 01:33:53 | 00:00:00 | |
| DF7ER-10 | 2026-09-05 00:03:34 | 52.88779 | 11.81641 | 76° | 29km/h | 19713m | 5.3m/s | -53.9°C | 1.1% | 60.7hPa | 2.7V | 03:53:00 | 00:00:00 | 00:00:00 | |
| DM0DOS-11 | 2026-09-05 00:03:33 | 52.88771 | 11.81563 | 84° | 27km/h | 19679m | 5.2m/s | -53.8°C | 3.9% | 61hPa | 2.7V | 03:52:53 | 01:33:45 | 00:00:00 | |
| DL1XH-west | 2026-09-05 00:03:29 | 52.88771 | 11.81585 | 90° | 26km/h | 19688m | 3.9m/s | -53.8°C | 0.4% | 60.9hPa | 2.6V | 03:53:08 | 01:33:47 | 00:00:00 | |
| AA1-15 | 2026-09-05 00:03:27 | 52.88771 | 11.81563 | 85° | 27km/h | 19679m | 5.2m/s | -53.8°C | 0.4% | 61hPa | 2.7V | 03:53:08 | 01:33:45 | 00:00:00 | |
| EDDB2-12 | 2026-09-05 00:03:27 | 52.88771 | 11.81563 | 84° | 27km/h | 19679m | 5.2m/s | -53.8°C | 1.0% | 61.0hPa | 2.6V | 00:00:00 | 00:00:00 | 00:00:00 | |
| DL1NUX | 2026-09-05 00:03:26 | 52.88770 | 11.81526 | 88° | 29km/h | 19665m | 5.5m/s | -53.7°C | 0% | 61.1hPa | 2.6V | 03:52:56 | 01:33:42 | 00:00:00 | |
| BIOWL1-15 | 2026-09-05 00:03:25 | 52.88770 | 11.81539 | 87° | 29km/h | 19670m | 4.9m/s | -53.7°C | 0.3% | 61.1hPa | 2.6V | 03:53:08 | 01:33:43 | 00:00:00 | |
| DB0DAN | 2026-09-05 00:03:25 | 52.88770 | 11.81539 | 87° | 29km/h | 19670m | 4.9m/s | -53.7°C | 1% | 61.09hPa | 2.6V | 00:00:00 | 00:00:00 | 00:00:00 | |
| DJ2DS-15 | 2026-09-05 00:03:24 | 52.88769 | 11.81514 | 87° | 29km/h | 19660m | 4.4m/s | -53.7°C | 1.0% | 61.2hPa | 2.7V | 00:00:00 | 00:00:00 | 00:00:00 | |
| DL1XH-15 | 2026-09-05 00:03:23 | 52.88768 | 11.81488 | 78° | 33km/h | 19650m | 5.4m/s | -53.6°C | 3.8% | 61.2hPa | 2.7V | 03:52:59 | 01:33:39 | 00:00:00 | |
| DM0DOS-11 | 2026-09-05 00:03:22 | 52.88762 | 11.81436 | 87° | 29km/h | 19630m | 4.3m/s | -53.5°C | 3.8% | 61.4hPa | 2.6V | 03:53:03 | 01:33:35 | 00:00:00 | |
| DH5RUM-10 | 2026-09-05 00:03:21 | 52.88769 | 11.81501 | 85° | 31km/h | 19655m | 5.0m/s | -53.7°C | 1.0% | 61.2hPa | 2.7V | 00:00:00 | 00:00:00 | 00:00:00 | |
| DD8BA-10 | 2026-09-05 00:03:20 | 52.88766 | 11.81475 | 78° | 33km/h | 19645m | 3.9m/s | -53.5°C | 3.9% | 61.3hPa | 2.7V | 00:00:00 | 00:00:00 | 00:00:00 | |
| DL1NUX | 2026-09-05 00:03:19 | 52.88761 | 11.81397 | 88° | 33km/h | 19616m | 4.2m/s | 0°C | 0% | 0hPa | 2.7V | 03:53:06 | 01:33:32 | 00:00:00 | |
| DL1XH-west | 2026-09-05 00:03:18 | 52.88763 | 11.81449 | 82° | 29km/h | 19636m | 5.3m/s | -53.6°C | 0.3% | 61.4hPa | 2.6V | 03:53:08 | 01:33:36 | 00:00:00 | |
| AA1-15 | 2026-09-05 00:03:17 | 52.88762 | 11.81424 | 88° | 31km/h | 19626m | 4.9m/s | -53.5°C | 0.3% | 61.5hPa | 2.7V | 03:53:08 | 01:33:34 | 00:00:00 | |
| DL1XH-15 | 2026-09-05 00:03:16 | 52.88762 | 11.81356 | 94° | 33km/h | 19601m | 3.8m/s | -53.5°C | 3.8% | 61.7hPa | 2.6V | 03:53:09 | 01:33:29 | 00:00:00 | |
| BIOWL1-15 | 2026-09-05 00:03:14 | 52.88761 | 11.81397 | 89° | 33km/h | 19616m | 4.2m/s | -53.5°C | 0.3% | 61.5hPa | 2.7V | 03:53:08 | 01:33:32 | 00:00:00 | |
| DO2SHX-10 | 2026-09-05 00:03:14 | 52.88761 | 11.81397 | 89° | 33km/h | 19616m | 4.1m/s | -53.4°C | 3.8% | 61.5hPa | 2.6V | 00:00:00 | 01:33:32 | 00:00:00 | |
| DL4BBY-15 | 2026-09-05 00:03:12 | 52.88761 | 11.81369 | 93° | 42km/h | 19607m | 5.7m/s | -53.9°C | 0% | 0hPa | 2.6V | 00:00:00 | 00:00:00 | 00:00:00 | |
| DO2SHX-10 | 2026-09-05 00:03:11 | 52.88762 | 11.81356 | 95° | 37km/h | 19601m | 3.8m/s | -53.4°C | 3.8% | 61.6hPa | 2.6V | 03:53:00 | 01:33:29 | 00:00:00 | |
| DM0DOS-11 | 2026-09-05 00:03:10 | 52.88760 | 11.81291 | 84° | 44km/h | 19582m | 3.6m/s | -53.4°C | 3.7% | 61.9hPa | 2.6V | 03:53:13 | 01:33:25 | 00:00:00 | |
| DB0DAN | 2026-09-05 00:03:10 | 52.88762 | 11.81341 | 92° | 35km/h | 19597m | 3.6m/s | -53.4°C | 1% | 61.76hPa | 2.7V | 00:00:00 | 00:00:00 | 00:00:00 | |
| DL1NUX | 2026-09-05 00:03:10 | 52.88760 | 11.81222 | 96° | 37km/h | 19564m | 4.2m/s | 0°C | 0% | 0hPa | 2.6V | 00:00:00 | 01:33:21 | 00:00:00 | |
| DF8AY | 2026-09-05 00:03:08 | 52.88761 | 11.81207 | 95° | 37km/h | 19560m | 4.4m/s | -53.7°C | 0.4% | 62.1hPa | 2.7V | 03:53:59 | 01:33:20 | 00:00:00 | |
| DL1XH-west | 2026-09-05 00:03:07 | 52.88760 | 11.81291 | 85° | 44km/h | 19582m | 3.6m/s | -53.4°C | 0.3% | 61.9hPa | 2.6V | 03:53:59 | 01:33:25 | 00:00:00 | |
| AA1-15 | 2026-09-05 00:03:06 | 52.88759 | 11.81273 | 86° | 44km/h | 19579m | 3.8m/s | -53.4°C | 0.2% | 62hPa | 2.7V | 03:53:59 | 01:33:24 | 00:00:00 | |
| BIOWL1-15 | 2026-09-05 00:03:04 | 52.88760 | 11.81222 | 96° | 37km/h | 19565m | 4.2m/s | -53.6°C | 0.3% | 62.1hPa | 2.6V | 03:53:59 | 01:33:21 | 00:00:00 | |
| DM0DOS-11 | 2026-09-05 00:03:03 | 52.88760 | 11.81136 | 91° | 33km/h | 19537m | 4.5m/s | -53.7°C | 3.8% | 62.3hPa | 2.7V | 03:53:23 | 01:33:15 | 00:00:00 | |
| DB0NH | 2026-09-05 00:03:02 | 52.88761 | 11.81088 | 93° | 46km/h | 19524m | 5.2m/s | -53.6°C | 3.9% | 62.4hPa | 2.6V | 00:00:00 | 01:33:12 | 00:00:00 | |
| DL1ZP-14 | 2026-09-05 00:03:01 | 52.88763 | 11.81047 | 94° | 51km/h | 19516m | 3.3m/s | -53.6°C | 1.0% | 62.6hPa | 2.6V | 00:00:00 | 00:00:00 | 00:00:00 | |
| DO2SHX-10 | 2026-09-05 00:03:00 | 52.88762 | 11.81069 | 93° | 51km/h | 19520m | 3.5m/s | -53.5°C | 3.8% | 62.5hPa | 2.6V | 00:00:00 | 01:33:11 | 00:00:00 | |
| DF8AY | 2026-09-05 00:02:58 | 52.88760 | 11.81136 | 92° | 33km/h | 19538m | 4.5m/s | -53.7°C | 0.4% | 62.3hPa | 2.7V | 03:53:59 | 01:33:15 | 00:00:00 | |
| BIOWL1-15 | 2026-09-05 00:02:57 | 52.88762 | 11.81069 | 93° | 51km/h | 19520m | 3.6m/s | -53.6°C | 0.4% | 62.5hPa | 2.6V | 03:53:59 | 01:33:11 | 00:00:00 | |
| DL1NUX | 2026-09-05 00:02:57 | 52.88762 | 11.81088 | 92° | 46km/h | 19524m | 5.2m/s | 0°C | 0% | 0hPa | 2.6V | 00:00:00 | 01:33:12 | 00:00:00 | |
| AA1-15 | 2026-09-05 00:02:57 | 52.88760 | 11.81122 | 94° | 35km/h | 19533m | 3.7m/s | -53.7°C | 0.4% | 62.4hPa | 2.7V | 03:53:59 | 01:33:14 | 00:00:00 | |
| DF7ER-10 | 2026-09-05 00:02:56 | 52.88762 | 11.81047 | 95° | 53km/h | 19516m | 3.3m/s | -53.6°C | 1.1% | 62.6hPa | 2.7V | 03:53:00 | 00:00:00 | 00:00:00 | |
| DB0DAN | 2026-09-05 00:02:55 | 52.88761 | 11.81106 | 94° | 38km/h | 19529m | 4.6m/s | -53.6°C | 1.1% | 62.44hPa | 2.7V | 00:00:00 | 00:00:00 | 00:00:00 | |
| MECKS9 | 2026-09-05 00:02:54 | 52.88766 | 11.81003 | 101° | 53km/h | 19508m | 5.1m/s | -53.5°C | 1.0% | 62.6hPa | 2.6V | 00:00:00 | 00:00:00 | 00:00:00 | |
| DL1XH-15 | 2026-09-05 00:02:54 | 52.88764 | 11.81025 | 96° | 53km/h | 19512m | 4.7m/s | -53.5°C | 3.8% | 62.6hPa | 2.7V | 03:53:29 | 01:33:09 | 00:00:00 | |
| DL1XH1-15 | 2026-09-05 00:02:53 | 52.88763 | 11.81047 | 94° | 53km/h | 19516m | 3.3m/s | -53.5°C | 3.8% | 62.6hPa | 2.6V | 03:53:28 | 01:33:10 | 00:00:00 | |
| DF2AP-13 | 2026-09-05 00:02:52 | 52.88771 | 11.80961 | 101° | 47km/h | 19499m | 3.9m/s | -53.4°C | 3.8% | 62.7hPa | 2.6V | 03:53:00 | 01:33:06 | 00:00:00 | |
| DO2SHX-10 | 2026-09-05 00:02:51 | 52.88773 | 11.80940 | 98° | 46km/h | 19494m | 5.4m/s | -53.4°C | 3.7% | 62.7hPa | 2.6V | 03:53:00 | 01:33:05 | 00:00:00 | |
| DM0DOS-11 | 2026-09-05 00:02:50 | 52.88773 | 11.80940 | 97° | 49km/h | 19493m | 5.4m/s | -53.4°C | 3.7% | 62.8hPa | 2.6V | 03:53:33 | 01:33:05 | 00:00:00 | |
| S3001 | 2026-09-05 00:02:50 | 52.88778 | 11.80850 | 98° | 40km/h | 19471m | 3.8m/s | -53.7°C | 1.0% | 63.0hPa | 2.7V | 00:00:00 | 00:00:00 | 00:00:00 | |
| DO2SHX-10 | 2026-09-05 00:02:49 | 52.88775 | 11.80884 | 96° | 42km/h | 19480m | 5.1m/s | -53.5°C | 3.7% | 62.9hPa | 2.7V | 00:00:00 | 01:33:02 | 00:00:00 | |
| DL4BBY-15 | 2026-09-05 00:02:48 | 52.88778 | 11.80850 | 99° | 49km/h | 19471m | 3.7m/s | -54.1°C | 0% | 0hPa | 2.7V | 00:00:00 | 00:00:00 | 00:00:00 | |
| DL1XH-west | 2026-09-05 00:02:47 | 52.88775 | 11.80884 | 95° | 42km/h | 19480m | 5.1m/s | -53.6°C | 0.3% | 62.9hPa | 2.7V | 03:53:59 | 01:33:02 | 00:00:00 | |
| DO2SHX-10 | 2026-09-05 00:02:47 | 52.88779 | 11.80832 | 97° | 44km/h | 19467m | 4.4m/s | -53.6°C | 3.7% | 63.0hPa | 2.7V | 00:00:00 | 01:32:59 | 00:00:00 | |
| DF8AY | 2026-09-05 00:02:47 | 52.88774 | 11.80921 | 94° | 46km/h | 19489m | 4.3m/s | -53.5°C | 0.3% | 62.8hPa | 2.6V | 03:53:59 | 01:33:04 | 00:00:00 | |
| AA1-15 | 2026-09-05 00:02:46 | 52.88774 | 11.80902 | 93° | 44km/h | 19485m | 3.7m/s | -53.5°C | 0.3% | 62.8hPa | 2.7V | 03:53:59 | 01:33:03 | 00:00:00 | |
| DF7ER-10 | 2026-09-05 00:02:45 | 52.88779 | 11.80832 | 97° | 42km/h | 19467m | 4.5m/s | -53.6°C | 1.1% | 63.0hPa | 2.6V | 03:53:00 | 00:00:00 | 00:00:00 | |
| DD8BA-10 | 2026-09-05 00:02:44 | 52.88780 | 11.80814 | 95° | 44km/h | 19463m | 4.7m/s | -53.6°C | 3.7% | 63.1hPa | 2.6V | 00:00:00 | 00:00:00 | 00:00:00 | |
| DL1XH1-15 | 2026-09-05 00:02:43 | 52.88778 | 11.80850 | 98° | 42km/h | 19471m | 3.8m/s | -53.7°C | 3.7% | 63hPa | 2.6V | 03:53:38 | 01:33:00 | 00:00:00 | |
| SONCRA | 2026-09-05 00:02:42 | 52.88784 | 11.80664 | 86° | 42km/h | 19429m | 3.6m/s | -53.8°C | 1.0% | 63.4hPa | 2.6V | 00:00:00 | 00:00:00 | 00:00:00 | |
| BIOWL1-15 | 2026-09-05 00:02:41 | 52.88781 | 11.80796 | 93° | 46km/h | 19458m | 3.6m/s | -53.6°C | 0.3% | 63.1hPa | 2.6V | 03:53:59 | 01:32:57 | 00:00:00 | |
| DO2SHX-10 | 2026-09-05 00:02:41 | 52.88781 | 11.80777 | 95° | 46km/h | 19454m | 3.8m/s | -53.5°C | 3.7% | 63.1hPa | 2.7V | 00:00:00 | 01:32:56 | 00:00:00 | |
| DB0DAN | 2026-09-05 00:02:40 | 52.88780 | 11.80814 | 94° | 42km/h | 19462m | 4.7m/s | -53.6°C | 1% | 63.12hPa | 2.7V | 00:00:00 | 00:00:00 | 00:00:00 | |
| DF8AY | 2026-09-05 00:02:36 | 52.88783 | 11.80629 | 93° | 42km/h | 19421m | 4.7m/s | -53.8°C | 0.4% | 63.5hPa | 2.7V | 03:53:59 | 01:32:48 | 00:00:00 | |
| DL1XH-west | 2026-09-05 00:02:35 | 52.88785 | 11.80701 | 90° | 44km/h | 19438m | 5.1m/s | -53.7°C | 0.3% | 63.3hPa | 2.6V | 03:53:59 | 01:32:52 | 00:00:00 | |
| EDDB2-11 | 2026-09-05 00:02:35 | 52.88784 | 11.80682 | 87° | 44km/h | 19434m | 4.5m/s | -53.7°C | 1.0% | 63.4hPa | 2.7V | 00:00:00 | 00:00:00 | 00:00:00 | |
| AA1-15 | 2026-09-05 00:02:35 | 52.88784 | 11.80682 | 87° | 44km/h | 19433m | 4.5m/s | -53.7°C | 0.3% | 63.4hPa | 2.6V | 03:53:59 | 01:32:51 | 00:00:00 | |
| DH5RUM-10 | 2026-09-05 00:02:34 | 52.88784 | 11.80701 | 91° | 44km/h | 19439m | 5.1m/s | -53.7°C | 1.0% | 63.3hPa | 2.7V | 00:00:00 | 00:00:00 | 00:00:00 | |
| TFSTFS | 2026-09-05 00:02:33 | 52.88784 | 11.80682 | 88° | 44km/h | 19434m | 4.5m/s | -53.7°C | 1.0% | 63.4hPa | 2.7V | 03:53:00 | 00:00:00 | 00:00:00 | |
| DL1XH-15 | 2026-09-05 00:02:32 | 52.88783 | 11.80647 | 89° | 42km/h | 19425m | 4.7m/s | -53.8°C | 3.7% | 63.4hPa | 2.7V | 03:53:49 | 01:32:49 | 00:00:00 | |
| DO2SHX-10 | 2026-09-05 00:02:32 | 52.88784 | 11.80664 | 87° | 42km/h | 19429m | 3.5m/s | -53.7°C | 3.7% | 63.4hPa | 2.6V | 00:00:00 | 01:32:50 | 00:00:00 | |
| AM1SDL-15 | 2026-09-05 00:02:31 | 52.88783 | 11.80647 | 90° | 49km/h | 19426m | 4.7m/s | -53.7°C | 3.7% | 63.4hPa | 2.6V | 00:00:00 | 01:32:49 | 00:00:00 | |
| DM0DOS-11 | 2026-09-05 00:02:30 | 52.88786 | 11.80571 | 92° | 49km/h | 19408m | 5m/s | -53.9°C | 3.8% | 63.6hPa | 2.6V | 03:53:53 | 01:32:45 | 00:00:00 | |
| DD8BA-10 | 2026-09-05 00:02:30 | 52.88783 | 11.80629 | 94° | 51km/h | 19421m | 4.6m/s | -53.7°C | 3.8% | 63.4hPa | 2.7V | 00:00:00 | 00:00:00 | 00:00:00 | |
| DO2SHX-10 | 2026-09-05 00:02:29 | 52.88784 | 11.80611 | 96° | 47km/h | 19417m | 3.4m/s | -53.8°C | 3.8% | 63.5hPa | 2.6V | 00:00:00 | 01:32:47 | 00:00:00 | |
| BIOWL1-15 | 2026-09-05 00:02:28 | 52.88785 | 11.80592 | 96° | 47km/h | 19413m | 3.8m/s | -53.9°C | 0.3% | 63.6hPa | 2.6V | 03:53:59 | 01:32:46 | 00:00:00 | |
| DF8AY | 2026-09-05 00:02:27 | 52.88793 | 11.80436 | 97° | 57km/h | 19381m | 4.3m/s | -54.2°C | 0.3% | 63.9hPa | 2.6V | 03:53:59 | 01:32:39 | 00:00:00 | |
| DB0UT-7 | 2026-09-05 00:02:26 | 52.88787 | 11.80550 | 91° | 49km/h | 19404m | 4.4m/s | -53.9°C | 3.8% | 63.5hPa | 2.7V | 00:00:00 | 01:32:44 | 00:00:00 | |
| DB0DAN | 2026-09-05 00:02:25 | 52.88787 | 11.80528 | 92° | 51km/h | 19399m | 3.7m/s | -54°C | 1% | 63.67hPa | 2.7V | 00:00:00 | 00:00:00 | 00:00:00 | |
| DL1XH-west | 2026-09-05 00:02:25 | 52.88787 | 11.80528 | 92° | 55km/h | 19399m | 3.7m/s | -54°C | 0.3% | 63.7hPa | 2.7V | 03:53:59 | 01:32:43 | 00:00:00 | |
| AA1-15 | 2026-09-05 00:02:24 | 52.88788 | 11.80505 | 94° | 55km/h | 19395m | 4.7m/s | -54°C | 0.3% | 63.8hPa | 2.7V | 03:53:59 | 01:32:42 | 00:00:00 | |
| DB0NH | 2026-09-05 00:02:24 | 52.88789 | 11.80482 | 98° | 47km/h | 19390m | 4.9m/s | -54.0°C | 3.8% | 63.7hPa | 2.6V | 00:00:00 | 01:32:41 | 00:00:00 | |
| DL1XH1-15 | 2026-09-05 00:02:23 | 52.88791 | 11.80459 | 97° | 57km/h | 19386m | 3.8m/s | -54.1°C | 3.8% | 63.8hPa | 2.6V | 03:53:58 | 01:32:40 | 00:00:00 | |
| DK1YY | 2026-09-05 00:02:23 | 52.88795 | 11.80340 | 90° | 55km/h | 19364m | 4.6m/s | -54.6°C | 1.1% | 64.0hPa | 2.7V | 00:00:00 | 00:00:00 | 00:00:00 | |
| DM0DOS-11 | 2026-09-05 00:02:23 | 52.88795 | 11.80340 | 90° | 57km/h | 19364m | 4.6m/s | -54.5°C | 3.9% | 64hPa | 2.6V | 03:54:03 | 01:32:35 | 00:00:00 | |
| DO2SHX-10 | 2026-09-05 00:02:22 | 52.88794 | 11.80412 | 94° | 58km/h | 19377m | 5.1m/s | -54.3°C | 3.9% | 63.9hPa | 2.7V | 00:00:00 | 01:32:38 | 00:00:00 | |
| BIOWL9-15 | 2026-09-05 00:02:21 | 52.88795 | 11.80363 | 89° | 57km/h | 19368m | 4.1m/s | -54.5°C | 1.1% | 64.0hPa | 2.7V | 00:00:00 | 00:00:00 | 00:00:00 | |
| GOEST3-10 | 2026-09-05 00:02:20 | 52.88795 | 11.80340 | 91° | 53km/h | 19364m | 4.5m/s | -54.5°C | 3.9% | 64.0hPa | 2.7V | 00:00:00 | 01:32:35 | 00:00:00 | |
| DL2RXE-15 | 2026-09-05 00:02:19 | 52.88795 | 11.80340 | 91° | 57km/h | 19364m | 4.6m/s | -54.5°C | 1.1% | 64.0hPa | 2.7V | 00:00:00 | 00:00:00 | 00:00:00 | |
| DF2AP-13 | 2026-09-05 00:02:18 | 52.88795 | 11.80316 | 93° | 46km/h | 19359m | 4.9m/s | -54.5°C | 3.9% | 64.0hPa | 2.7V | 00:00:00 | 01:32:34 | 00:00:00 | |
| BIOWL1-15 | 2026-09-05 00:02:17 | 52.88795 | 11.80316 | 92° | 55km/h | 19359m | 4.9m/s | -54.6°C | 0.4% | 64.1hPa | 2.7V | 03:54:50 | 01:32:34 | 00:00:00 | |
| AA1-15 | 2026-09-05 00:02:15 | 52.88796 | 11.80272 | 92° | 51km/h | 19350m | 3.9m/s | -54.6°C | 0.5% | 64.2hPa | 2.6V | 03:54:50 | 01:32:32 | 00:00:00 | |
| DL1XH1-15 | 2026-09-05 00:02:14 | 52.88796 | 11.80232 | 89° | 46km/h | 19341m | 4.3m/s | -54.8°C | 4% | 64.3hPa | 2.7V | 03:54:08 | 01:32:30 | 00:00:00 | |
| DD8BA-10 | 2026-09-05 00:02:13 | 52.88796 | 11.80196 | 92° | 42km/h | 19332m | 5.1m/s | -54.9°C | 4.1% | 64.3hPa | 2.6V | 00:00:00 | 00:00:00 | 00:00:00 | |
| DO2SHX-10 | 2026-09-05 00:02:12 | 52.88797 | 11.80162 | 88° | 44km/h | 19324m | 4.8m/s | -54.9°C | 4.0% | 64.4hPa | 2.6V | 00:00:00 | 01:32:26 | 00:00:00 | |
| DF8AY | 2026-09-05 00:02:11 | 52.88796 | 11.80196 | 92° | 40km/h | 19332m | 5.1m/s | -54.9°C | 0.5% | 64.3hPa | 2.6V | 03:54:50 | 01:32:28 | 00:00:00 | |
| AM1SDL-15 | 2026-09-05 00:02:11 | 52.88795 | 11.80126 | 85° | 44km/h | 19315m | 3.1m/s | -54.9°C | 4.0% | 64.5hPa | 2.6V | 03:54:00 | 01:32:24 | 00:00:00 | |
| DB0DAN | 2026-09-05 00:02:10 | 52.88796 | 11.80196 | 92° | 38km/h | 19332m | 5.1m/s | -54.9°C | 1.1% | 64.34hPa | 2.6V | 00:00:00 | 00:00:00 | 00:00:00 | |
| DL1XH1-15 | 2026-09-05 00:02:07 | 52.88794 | 11.80054 | 91° | 44km/h | 19297m | 4m/s | -54.8°C | 4.1% | 64.7hPa | 2.6V | 03:54:18 | 01:32:20 | 00:00:00 | |
| BIOWL1-15 | 2026-09-05 00:02:07 | 52.88794 | 11.80017 | 92° | 46km/h | 19287m | 4.4m/s | -54.8°C | 0.4% | 64.8hPa | 2.7V | 03:54:50 | 01:32:18 | 00:00:00 | |
| DO2SHX-10 | 2026-09-05 00:02:06 | 52.88794 | 11.80107 | 86° | 44km/h | 19311m | 4.0m/s | -54.8°C | 4.1% | 64.5hPa | 2.7V | 00:00:00 | 01:32:23 | 00:00:00 | |
| DL1XH-15 | 2026-09-05 00:02:05 | 52.88794 | 11.80035 | 90° | 44km/h | 19292m | 5.2m/s | -54.8°C | 4.1% | 64.8hPa | 2.7V | 03:54:19 | 01:32:19 | 00:00:00 | |
| DL1XH-west | 2026-09-05 00:02:05 | 52.88794 | 11.80107 | 86° | 44km/h | 19311m | 4.1m/s | -54.9°C | 0.5% | 64.6hPa | 2.7V | 03:54:50 | 01:32:23 | 00:00:00 | |
| AA1-15 | 2026-09-05 00:02:03 | 52.88794 | 11.80071 | 91° | 42km/h | 19301m | 4.2m/s | -54.8°C | 0.5% | 64.7hPa | 2.6V | 03:54:50 | 01:32:21 | 00:00:00 | |
| DM0DOS-11 | 2026-09-05 00:02:02 | 52.88799 | 11.79962 | 104° | 44km/h | 19273m | 4.1m/s | -54.7°C | 4.1% | 64.9hPa | 2.6V | 03:54:23 | 01:32:15 | 00:00:00 | |
| DF8AY | 2026-09-05 00:02:02 | 52.88795 | 11.79998 | 95° | 44km/h | 19283m | 4.3m/s | -54.8°C | 0.6% | 64.8hPa | 2.7V | 03:54:50 | 01:32:17 | 00:00:00 | |
| TFSTFS | 2026-09-05 00:02:01 | 52.88801 | 11.79944 | 106° | 44km/h | 19270m | 2.9m/s | -54.7°C | 1.1% | 65.0hPa | 2.6V | 00:00:00 | 00:00:00 | 00:00:00 | |
| EDDB2-12 | 2026-09-05 00:01:58 | 52.88806 | 11.79908 | 101° | 44km/h | 19261m | 4.3m/s | -54.7°C | 1.1% | 65.1hPa | 2.6V | 00:00:00 | 00:00:00 | 00:00:00 | |
| DL1XH1-15 | 2026-09-05 00:01:57 | 52.88811 | 11.79872 | 101° | 44km/h | 19252m | 5.1m/s | -54.6°C | 4.1% | 65.1hPa | 2.6V | 03:54:28 | 01:32:10 | 00:00:00 | |
| BIOWL1-15 | 2026-09-05 00:01:57 | 52.88804 | 11.79927 | 103° | 44km/h | 19265m | 5.1m/s | -54.7°C | 0.5% | 65.1hPa | 2.7V | 03:54:50 | 01:32:13 | 00:00:00 | |
| DO2SHX-10 | 2026-09-05 00:01:57 | 52.88808 | 11.79890 | 101° | 44km/h | 19257m | 3.5m/s | -54.6°C | 4.1% | 65.1hPa | 2.7V | 00:00:00 | 01:32:11 | 00:00:00 | |
| DL1ZP-14 | 2026-09-05 00:01:55 | 52.88815 | 11.79837 | 99° | 42km/h | 19244m | 3.6m/s | -54.6°C | 1.1% | 65.2hPa | 2.7V | 00:00:00 | 00:00:00 | 00:00:00 | |
| DB0DAN | 2026-09-05 00:01:55 | 52.88804 | 11.79927 | 103° | 42km/h | 19265m | 5.1m/s | -54.7°C | 1.1% | 65.07hPa | 2.7V | 00:00:00 | 00:00:00 | 00:00:00 | |
| DL1XH-west | 2026-09-05 00:01:54 | 52.88806 | 11.79908 | 102° | 44km/h | 19261m | 4.3m/s | -54.7°C | 0.4% | 65.1hPa | 2.7V | 03:54:50 | 01:32:12 | 00:00:00 | |
| DO2SHX-10 | 2026-09-05 00:01:54 | 52.88815 | 11.79837 | 100° | 46km/h | 19244m | 3.6m/s | -54.5°C | 4.0% | 65.2hPa | 2.7V | 00:00:00 | 01:32:08 | 00:00:00 | |
| AA1-15 | 2026-09-05 00:01:53 | 52.88813 | 11.79855 | 102° | 42km/h | 19248m | 4.6m/s | -54.6°C | 0.5% | 65.2hPa | 2.7V | 03:54:50 | 01:32:09 | 00:00:00 | |
| DL1XH-15 | 2026-09-05 00:01:53 | 52.88813 | 11.79855 | 102° | 42km/h | 19248m | 4.6m/s | -54.6°C | 4% | 65.2hPa | 2.7V | 03:54:29 | 01:32:09 | 00:00:00 | |
| BIOWL9-15 | 2026-09-05 00:01:51 | 52.88818 | 11.79800 | 95° | 46km/h | 19235m | 4.2m/s | -54.5°C | 1.1% | 65.3hPa | 2.7V | 00:00:00 | 00:00:00 | 00:00:00 | |
| DM0DOS-11 | 2026-09-05 00:01:50 | 52.88819 | 11.79781 | 95° | 46km/h | 19230m | 3.8m/s | -54.5°C | 4% | 65.4hPa | 2.7V | 03:54:33 | 01:32:05 | 00:00:00 | |
| DF8AY | 2026-09-05 00:01:50 | 52.88815 | 11.79837 | 100° | 44km/h | 19244m | 3.6m/s | -54.6°C | 0.5% | 65.2hPa | 2.7V | 03:54:50 | 01:32:08 | 00:00:00 | |
| DO2SHX-10 | 2026-09-05 00:01:49 | 52.88819 | 11.79781 | 96° | 46km/h | 19231m | 3.8m/s | -54.5°C | 4.0% | 65.3hPa | 2.7V | 03:54:00 | 01:32:05 | 00:00:00 | |
| DF2AP-13 | 2026-09-05 00:01:48 | 52.88820 | 11.79762 | 98° | 49km/h | 19226m | 5.3m/s | -54.4°C | 4.0% | 65.4hPa | 2.7V | 00:00:00 | 01:32:04 | 00:00:00 | |
| DL1XH1-15 | 2026-09-05 00:01:46 | 52.88829 | 11.79690 | 100° | 46km/h | 19208m | 4.5m/s | -54.4°C | 3.9% | 65.6hPa | 2.7V | 03:54:38 | 01:32:00 | 00:00:00 | |
| DL1XH-15 | 2026-09-05 00:01:45 | 52.88831 | 11.79671 | 101° | 46km/h | 19204m | 3.9m/s | -54.4°C | 3.9% | 65.7hPa | 2.7V | 03:54:39 | 01:31:59 | 00:00:00 | |
| BIOWL1-15 | 2026-09-05 00:01:44 | 52.88824 | 11.79726 | 102° | 44km/h | 19217m | 3.9m/s | -54.4°C | 0.4% | 65.5hPa | 2.6V | 03:54:50 | 01:32:02 | 00:00:00 | |
| DM0DOS-11 | 2026-09-05 00:01:43 | 52.88845 | 11.79578 | 100° | 49km/h | 19182m | 5m/s | -54.4°C | 3.9% | 65.9hPa | 2.7V | 03:54:44 | 01:31:54 | 00:00:00 | |
| AA1-15 | 2026-09-05 00:01:43 | 52.88829 | 11.79690 | 101° | 46km/h | 19208m | 4.5m/s | -54.4°C | 0.4% | 65.6hPa | 2.7V | 03:54:50 | 01:32:00 | 00:00:00 | |
| AM1SDL-15 | 2026-09-05 00:01:41 | 52.88836 | 11.79634 | 106° | 49km/h | 19195m | 4.9m/s | -54.3°C | 3.9% | 65.7hPa | 2.6V | 00:00:00 | 01:31:57 | 00:00:00 | |
| DB0DAN | 2026-09-05 00:01:40 | 52.88833 | 11.79653 | 104° | 44km/h | 19200m | 4.8m/s | -54.4°C | 1.1% | 65.73hPa | 2.7V | 00:00:00 | 00:00:00 | 00:00:00 | |
| SONCRA | 2026-09-05 00:01:40 | 52.88845 | 11.79578 | 100° | 47km/h | 19182m | 5.0m/s | -54.4°C | 1.1% | 65.9hPa | 2.6V | 00:00:00 | 00:00:00 | 00:00:00 | |
| DF8AY | 2026-09-05 00:01:39 | 52.88839 | 11.79616 | 106° | 46km/h | 19191m | 3.6m/s | -54.4°C | 0.4% | 65.8hPa | 2.6V | 03:54:50 | 01:31:56 | 00:00:00 | |
| DL1LOL-11 | 2026-09-05 00:01:38 | 52.88848 | 11.79537 | 100° | 49km/h | 19174m | 3.8m/s | -54.5°C | 1.1% | 66.0hPa | 2.6V | 03:54:00 | 00:00:00 | 00:00:00 | |
| DL1XH1-15 | 2026-09-05 00:01:37 | 52.88853 | 11.79496 | 103° | 51km/h | 19165m | 4.2m/s | -54.4°C | 4% | 66hPa | 2.6V | 03:54:48 | 01:31:50 | 00:00:00 | |
| BIOWL1-15 | 2026-09-05 00:01:34 | 52.88861 | 11.79432 | 99° | 53km/h | 19151m | 4.7m/s | -54.4°C | 0.4% | 66.2hPa | 2.7V | 03:55:41 | 01:31:47 | 00:00:00 | |
| DL1XH-15 | 2026-09-05 00:01:33 | 52.88857 | 11.79475 | 102° | 51km/h | 19161m | 3.6m/s | -54.4°C | 3.9% | 66.1hPa | 2.6V | 03:54:49 | 01:31:49 | 00:00:00 | |
| AA1-15 | 2026-09-05 00:01:32 | 52.88859 | 11.79454 | 101° | 53km/h | 19156m | 4.8m/s | -54.4°C | 0.4% | 66.2hPa | 2.7V | 03:54:50 | 01:31:48 | 00:00:00 | |
| DM0DOS-11 | 2026-09-05 00:01:31 | 52.88866 | 11.79388 | 101° | 51km/h | 19142m | 5.6m/s | -54.5°C | 4% | 66.3hPa | 2.6V | 03:54:53 | 01:31:45 | 00:00:00 | |
| AM1SDL-15 | 2026-09-05 00:01:30 | 52.88866 | 11.79388 | 102° | 51km/h | 19142m | 5.5m/s | -54.4°C | 4.0% | 66.2hPa | 2.6V | 00:00:00 | 01:31:45 | 00:00:00 | |
| DO2SHX-10 | 2026-09-05 00:01:29 | 52.88869 | 11.79368 | 104° | 49km/h | 19137m | 4.1m/s | -54.4°C | 4.0% | 66.3hPa | 2.6V | 00:00:00 | 01:31:44 | 00:00:00 | |
| HARRO8 | 2026-09-05 00:01:28 | 52.88872 | 11.79348 | 102° | 47km/h | 19134m | 3.4m/s | -54.5°C | 1.1% | 66.3hPa | 2.6V | 00:00:00 | 00:00:00 | 00:00:00 | |
| DF8AY | 2026-09-05 00:01:27 | 52.88866 | 11.79388 | 102° | 51km/h | 19142m | 5.6m/s | -54.5°C | 0.4% | 66.3hPa | 2.6V | 03:55:41 | 01:31:45 | 00:00:00 | |
| DO2SHX-10 | 2026-09-05 00:01:26 | 52.88876 | 11.79308 | 99° | 49km/h | 19125m | 4.4m/s | -54.4°C | 4.0% | 66.4hPa | 2.7V | 03:54:00 | 01:31:41 | 00:00:00 | |
| DB0DAN | 2026-09-05 00:01:25 | 52.88872 | 11.79348 | 103° | 46km/h | 19134m | 3.4m/s | -54.5°C | 1.1% | 66.35hPa | 2.6V | 00:00:00 | 00:00:00 | 00:00:00 | |
| DL1XH-15 | 2026-09-05 00:01:25 | 52.88880 | 11.79268 | 99° | 49km/h | 19116m | 4.6m/s | -54.5°C | 4% | 66.6hPa | 2.6V | 03:54:59 | 01:31:39 | 00:00:00 | |
| DB0NH | 2026-09-05 00:01:25 | 52.88880 | 11.79268 | 100° | 57km/h | 19116m | 4.6m/s | -54.4°C | 4.0% | 66.5hPa | 2.6V | 00:00:00 | 01:31:39 | 00:00:00 | |
| DD8BA-10 | 2026-09-05 00:01:24 | 52.88882 | 11.79247 | 101° | 58km/h | 19112m | 4.8m/s | -54.5°C | 4.0% | 66.6hPa | 2.6V | 00:00:00 | 00:00:00 | 00:00:00 | |
| DK1YY | 2026-09-05 00:01:23 | 52.88884 | 11.79226 | 100° | 51km/h | 19107m | 3.4m/s | -54.5°C | 1.1% | 66.7hPa | 2.6V | 00:00:00 | 00:00:00 | 00:00:00 | |
| DM0DOS-11 | 2026-09-05 00:01:22 | 52.88889 | 11.79181 | 98° | 58km/h | 19098m | 4.8m/s | -54.6°C | 4% | 66.8hPa | 2.6V | 03:55:03 | 01:31:35 | 00:00:00 | |
| DL1XH-west | 2026-09-05 00:01:21 | 52.88882 | 11.79247 | 101° | 49km/h | 19111m | 4.8m/s | -54.5°C | 0.5% | 66.6hPa | 2.7V | 03:55:41 | 01:31:38 | 00:00:00 | |
| AA1-15 | 2026-09-05 00:01:21 | 52.88884 | 11.79226 | 101° | 53km/h | 19107m | 3.4m/s | -54.5°C | 0.4% | 66.7hPa | 2.7V | 03:55:41 | 01:31:37 | 00:00:00 | |
| DC4HF-4 | 2026-09-05 00:01:20 | 52.88891 | 11.79156 | 97° | 58km/h | 19094m | 3.6m/s | -54.6°C | 1.1% | 66.8hPa | 2.7V | 00:00:00 | 00:00:00 | 00:00:00 | |
| BIOWL1-15 | 2026-09-05 00:01:19 | 52.88908 | 11.79009 | 103° | 57km/h | 19069m | 3.8m/s | -54.5°C | 0.4% | 67hPa | 2.7V | 03:55:41 | 01:31:28 | 00:00:00 | |
| DF7ER-10 | 2026-09-05 00:01:19 | 52.88889 | 11.79180 | 100° | 58km/h | 19098m | 4.8m/s | -54.6°C | 1.2% | 66.8hPa | 2.6V | 03:55:00 | 00:00:00 | 00:00:00 | |
| DF2AP-13 | 2026-09-05 00:01:18 | 52.88891 | 11.79156 | 98° | 58km/h | 19095m | 3.6m/s | -54.5°C | 4.0% | 66.7hPa | 2.6V | 00:00:00 | 01:31:34 | 00:00:00 | |
| DF8AY | 2026-09-05 00:01:17 | 52.88914 | 11.78964 | 102° | 51km/h | 19060m | 3.8m/s | -54.4°C | 0.4% | 67.2hPa | 2.6V | 03:55:41 | 01:31:26 | 00:00:00 | |
| DO2SHX-10 | 2026-09-05 00:01:16 | 52.88895 | 11.79107 | 101° | 60km/h | 19085m | 4.3m/s | -54.5°C | 4.0% | 66.8hPa | 2.6V | 00:00:00 | 01:31:32 | 00:00:00 | |
| DL1XH-15 | 2026-09-05 00:01:15 | 52.88905 | 11.79033 | 102° | 60km/h | 19072m | 3.4m/s | -54.5°C | 4% | 67hPa | 2.7V | 03:55:09 | 01:31:29 | 00:00:00 | |
| TFSTFS | 2026-09-05 00:01:15 | 52.88898 | 11.79082 | 102° | 60km/h | 19081m | 3.8m/s | -54.6°C | 1.1% | 66.9hPa | 2.6V | 03:55:00 | 00:00:00 | 00:00:00 | |
| S3001 | 2026-09-05 00:01:14 | 52.88908 | 11.79009 | 103° | 57km/h | 19069m | 3.8m/s | -54.5°C | 1.1% | 67.0hPa | 2.6V | 00:00:00 | 00:00:00 | 00:00:00 | |
| DD8BA-10 | 2026-09-05 00:01:13 | 52.88908 | 11.79008 | 104° | 57km/h | 19069m | 3.7m/s | -54.5°C | 3.9% | 67.0hPa | 2.6V | 00:00:00 | 00:00:00 | 00:00:00 | |
| DM0DOS-11 | 2026-09-05 00:01:11 | 52.88916 | 11.78943 | 98° | 51km/h | 19056m | 3.7m/s | -54.4°C | 4% | 67.2hPa | 2.6V | 03:55:13 | 01:31:25 | 00:00:00 | |
| DB0DAN | 2026-09-05 00:01:10 | 52.88908 | 11.79009 | 103° | 55km/h | 19069m | 3.8m/s | -54.5°C | 1.1% | 67.01hPa | 2.7V | 00:00:00 | 00:00:00 | 00:00:00 | |
| DL1XH-west | 2026-09-05 00:01:10 | 52.88918 | 11.78922 | 95° | 53km/h | 19052m | 4.6m/s | -54.4°C | 0.4% | 67.2hPa | 2.6V | 03:55:41 | 01:31:24 | 00:00:00 | |
| AA1-15 | 2026-09-05 00:01:10 | 52.88918 | 11.78874 | 89° | 60km/h | 19044m | 3.4m/s | -54.3°C | 0.4% | 67.3hPa | 2.7V | 03:55:41 | 01:31:22 | 00:00:00 | |
| SONCRA | 2026-09-05 00:01:09 | 52.88918 | 11.78922 | 94° | 53km/h | 19052m | 4.6m/s | -54.4°C | 1.1% | 67.2hPa | 2.6V | 00:00:00 | 00:00:00 | 00:00:00 | |
| DL1XH1-15 | 2026-09-05 00:01:08 | 52.88918 | 11.78823 | 88° | 60km/h | 19036m | 4.8m/s | -54.2°C | 3.9% | 67.4hPa | 2.6V | 03:55:18 | 01:31:20 | 00:00:00 | |
| DL1XH-15 | 2026-09-05 00:01:07 | 52.88917 | 11.78799 | 88° | 57km/h | 19031m | 4.9m/s | -54.2°C | 3.9% | 67.5hPa | 2.6V | 03:55:19 | 01:31:19 | 00:00:00 | |
| SMARD9-15 | 2026-09-05 00:01:07 | 52.88918 | 11.78874 | 89° | 60km/h | 19044m | 3.4m/s | -54.3°C | 1.1% | 67.3hPa | 2.6V | 00:00:00 | 00:00:00 | 00:00:00 | |
| BIOWL1-15 | 2026-09-05 00:01:05 | 52.88918 | 11.78823 | 88° | 60km/h | 19036m | 4.8m/s | -54.2°C | 0.4% | 67.4hPa | 2.6V | 03:55:41 | 01:31:20 | 00:00:00 | |
| DM0DOS-11 | 2026-09-05 00:01:05 | 52.88919 | 11.78705 | 94° | 60km/h | 19014m | 4.7m/s | -54.4°C | 4% | 67.6hPa | 2.7V | 03:55:23 | 01:31:15 | 00:00:00 | |
| DF8AY | 2026-09-05 00:01:02 | 52.88917 | 11.78775 | 91° | 55km/h | 19027m | 3.9m/s | -54.2°C | 0.3% | 67.5hPa | 2.6V | 03:55:41 | 01:31:18 | 00:00:00 | |
| EDDB2-11 | 2026-09-05 00:01:01 | 52.88917 | 11.78775 | 90° | 55km/h | 19027m | 3.9m/s | -54.2°C | 1.0% | 67.5hPa | 2.6V | 00:00:00 | 00:00:00 | 00:00:00 | |
| DD8BA-10 | 2026-09-05 00:01:00 | 52.88917 | 11.78775 | 91° | 57km/h | 19027m | 3.9m/s | -54.1°C | 3.8% | 67.4hPa | 2.6V | 03:55:00 | 00:00:00 | 00:00:00 | |
| DL1XH-west | 2026-09-05 00:00:59 | 52.88918 | 11.78752 | 93° | 55km/h | 19023m | 3.7m/s | -54.2°C | 0.4% | 67.6hPa | 2.7V | 03:55:41 | 01:31:17 | 00:00:00 | |
| AA1-15 | 2026-09-05 00:00:58 | 52.88920 | 11.78680 | 92° | 60km/h | 19010m | 3.7m/s | -54.5°C | 0.4% | 67.7hPa | 2.6V | 03:55:41 | 01:31:14 | 00:00:00 | |
| DL1XH1-15 | 2026-09-05 00:00:57 | 52.88919 | 11.78587 | 86° | 53km/h | 18994m | 3.2m/s | -54.6°C | 4% | 67.8hPa | 2.7V | 03:55:28 | 01:31:10 | 00:00:00 | |
| DL1XH-15 | 2026-09-05 00:00:56 | 52.88919 | 11.78565 | 87° | 55km/h | 18990m | 3.5m/s | -54.6°C | 4% | 67.9hPa | 2.6V | 03:55:29 | 01:31:09 | 00:00:00 | |
| DF7ER-10 | 2026-09-05 00:00:56 | 52.88920 | 11.78680 | 93° | 60km/h | 19010m | 3.7m/s | -54.5°C | 1.1% | 67.7hPa | 2.6V | 03:55:00 | 00:00:00 | 00:00:00 | |
| DB0DAN | 2026-09-05 00:00:55 | 52.88921 | 11.78655 | 90° | 55km/h | 19006m | 3.6m/s | -54.5°C | 1.1% | 67.7hPa | 2.6V | 00:00:00 | 00:00:00 | 00:00:00 | |
| HARRO8 | 2026-09-05 00:00:55 | 52.88921 | 11.78631 | 89° | 55km/h | 19002m | 4.8m/s | -54.6°C | 1.1% | 67.8hPa | 2.6V | 00:00:00 | 00:00:00 | 00:00:00 | |
| DO2SHX-10 | 2026-09-05 00:00:54 | 52.88920 | 11.78609 | 87° | 53km/h | 18998m | 4.1m/s | -54.5°C | 4.0% | 67.7hPa | 2.6V | 00:00:00 | 01:31:11 | 00:00:00 | |
| EDDB2-12 | 2026-09-05 00:00:53 | 52.88919 | 11.78587 | 86° | 51km/h | 18994m | 3.2m/s | -54.6°C | 1.1% | 67.8hPa | 2.6V | 00:00:00 | 00:00:00 | 00:00:00 | |
| TFSTFS | 2026-09-05 00:00:52 | 52.88919 | 11.78587 | 87° | 53km/h | 18994m | 3.2m/s | -54.6°C | 1.1% | 67.8hPa | 2.6V | 03:55:00 | 00:00:00 | 00:00:00 | |
| DB0NH | 2026-09-05 00:00:51 | 52.88919 | 11.78564 | 88° | 55km/h | 18991m | 3.5m/s | -54.6°C | 4.0% | 67.8hPa | 2.6V | 00:00:00 | 01:31:09 | 00:00:00 | |
| DF8AY | 2026-09-05 00:00:50 | 52.88918 | 11.78541 | 89° | 58km/h | 18986m | 5.3m/s | -54.6°C | 0.4% | 68hPa | 2.6V | 03:55:41 | 01:31:08 | 00:00:00 | |
| DO2SHX-10 | 2026-09-05 00:00:50 | 52.88918 | 11.78541 | 90° | 62km/h | 18986m | 5.2m/s | -54.6°C | 4.0% | 67.9hPa | 2.7V | 00:00:00 | 01:31:08 | 00:00:00 | |
| DL1XH-west | 2026-09-05 00:00:49 | 52.88918 | 11.78489 | 88° | 66km/h | 18978m | 3.1m/s | -54.6°C | 0.5% | 68hPa | 2.7V | 03:55:41 | 01:31:06 | 00:00:00 | |
| DM0DOS-11 | 2026-09-05 00:00:48 | 52.88917 | 11.78462 | 85° | 66km/h | 18974m | 4.1m/s | -54.6°C | 4.1% | 68hPa | 2.6V | 03:55:33 | 01:31:05 | 00:00:00 | |
| DO2SHX-10 | 2026-09-05 00:00:48 | 52.88917 | 11.78462 | 86° | 66km/h | 18974m | 4.1m/s | -54.6°C | 4.1% | 68.0hPa | 2.6V | 03:55:00 | 01:31:05 | 00:00:00 | |
| AA1-15 | 2026-09-05 00:00:47 | 52.88917 | 11.78462 | 86° | 66km/h | 18974m | 4.1m/s | -54.6°C | 0.5% | 68hPa | 2.6V | 03:55:41 | 01:31:05 | 00:00:00 | |
| BIOWL9-15 | 2026-09-05 00:00:47 | 52.88913 | 11.78408 | 80° | 62km/h | 18965m | 4.3m/s | -54.6°C | 1.1% | 68.2hPa | 2.6V | 00:00:00 | 00:00:00 | 00:00:00 | |
| DL1XH1-15 | 2026-09-05 00:00:46 | 52.88905 | 11.78334 | 82° | 57km/h | 18951m | 4.8m/s | -54.4°C | 4% | 68.3hPa | 2.6V | 03:55:38 | 01:31:00 | 00:00:00 | |
| DL1XH-15 | 2026-09-05 00:00:45 | 52.88904 | 11.78312 | 83° | 51km/h | 18947m | 3m/s | -54.4°C | 4% | 68.3hPa | 2.6V | 03:55:39 | 01:30:59 | 00:00:00 | |
| DO2SHX-10 | 2026-09-05 00:00:45 | 52.88910 | 11.78382 | 80° | 58km/h | 18961m | 3.8m/s | -54.5°C | 4.1% | 68.2hPa | 2.7V | 00:00:00 | 01:31:02 | 00:00:00 | |
| Es werden nur die letzten 3500 von 6559 Frames angezeigt. GPX/KML und Diagramme bleiben verfügbar. | |||||||||||||||